<?xml version="1.0" encoding="UTF-8" standalone="no" ?>
<gpx xmlns="http://www.topografix.com/GPX/1/1" xmlns:xsi="http://www.w3.org/2001/XMLSchema-instance" xsi:schemaLocation="http://www.topografix.com/GPX/1/1 http://www.topografix.com/GPX/1/1/gpx.xsd" version="1.1" creator="VisuGPX - https://www.visugpx.com">
  <metadata>
    <name>Tours to Bourges</name>
    <desc><![CDATA[Tracé récupéré et modifié de http://www.velocanauxdodo.fr/?page_id=5108]]></desc>
  </metadata>
  <wpt lat="47.26835" lon="1.86209">
    <ele>89</ele>
    <name><![CDATA[Camping Municipal Val Rose - Mennetou sur Cher [<51] (07/05-07/09) (90m) +33254980119]]></name>
    <desc><![CDATA[description=Rue de Val Rose 41320 Mennetou-sur-Cher
Tél : 02.54.98.11.02
Mail : mairie.mennetou@wanadoo.fr

OUVERTURE DU CAMPING DU 30 MAI 2019 AU 1er SEPTEMBRE 2019

Horaires d'ouverture :
Du lundi au dimanche
7h00 - 11h00 et 17h00 - 21h00

http://mennetou.fr/tourisme/se-loger-restauration/camping-municipal
name=Camping Municipal Val Rose - Mennetou sur Cher [<51] (07/05-07/09) (90m) +33254980119]]></desc>
  </wpt>
  <wpt lat="47.37073" lon="0.72431">
    <ele>48</ele>
    <name><![CDATA[Camping Val de Loire - St. Avertin (37) (01/02-15/12) -CCA (49m) +33247278747]]></name>
    <desc><![CDATA[description=Camping Onlycamp Tours Val de Loire St 61 rue de Rochepinard 37550 Saint-Avertin

Autre tarif	de 10.10	€	à 12.30	€	Pour 1 personne sans véhicule sans électricité en tente
Taxe de séjour	0.66	€	Pour les plus de 18 ans et par personne et par nuit.

https://www.onlycamp.fr/
name=Camping Val de Loire - St. Avertin (37) (01/02-15/12) -CCA (49m) +33247278747]]></desc>
  </wpt>
  <trk>
    <name><![CDATA[Tours > Montrichard (47 km)]]></name>
    <desc><![CDATA[Globalement beau chemin roulant le long du Cher sur toute l’étape. Prendre rive droite à la sortie de Montrichard par l’amorce d’une voie verte. Pout avoir une belle vue de Chenonceau passer rive gauche au pont de la D80 avant le chateau et y rester jusqu’à Azay. Belle voie verte après le pont de la D81 jusqu’à Bléré. A Azay passer rive droite jusqu’à Tours. Traversée de voies difficiles au niveau du pont de l’A10 puis pistes cyclables dans toute la ville; un bonheur.]]></desc>
    <trkseg>
      <trkpt lat="47.38982" lon="0.69338">
        <ele>47.24</ele>
        <time>2015-08-15T15:03:18Z</time>
      </trkpt>
      <trkpt lat="47.38982" lon="0.69338">
        <ele>43.4</ele>
        <time>2015-08-15T15:03:19Z</time>
      </trkpt>
      <trkpt lat="47.38982" lon="0.69338">
        <ele>51.57</ele>
        <time>2015-08-15T15:03:22Z</time>
      </trkpt>
      <trkpt lat="47.38981" lon="0.69338">
        <ele>46.28</ele>
        <time>2015-08-15T15:03:23Z</time>
      </trkpt>
      <trkpt lat="47.38982" lon="0.69338">
        <ele>49.16</ele>
        <time>2015-08-15T15:03:38Z</time>
      </trkpt>
      <trkpt lat="47.38981" lon="0.69337">
        <ele>49.16</ele>
        <time>2015-08-15T15:04:07Z</time>
      </trkpt>
      <trkpt lat="47.38979" lon="0.69335">
        <ele>49.16</ele>
        <time>2015-08-15T15:04:38Z</time>
      </trkpt>
      <trkpt lat="47.3898" lon="0.69335">
        <ele>49.16</ele>
        <time>2015-08-15T15:05:11Z</time>
      </trkpt>
      <trkpt lat="47.3898" lon="0.69334">
        <ele>49.16</ele>
        <time>2015-08-15T15:05:38Z</time>
      </trkpt>
      <trkpt lat="47.3898" lon="0.69337">
        <ele>48.68</ele>
        <time>2015-08-15T15:06:05Z</time>
      </trkpt>
      <trkpt lat="47.3898" lon="0.69338">
        <ele>48.68</ele>
        <time>2015-08-15T15:06:35Z</time>
      </trkpt>
      <trkpt lat="47.38979" lon="0.69339">
        <ele>48.68</ele>
        <time>2015-08-15T15:07:06Z</time>
      </trkpt>
      <trkpt lat="47.38978" lon="0.69338">
        <ele>48.68</ele>
        <time>2015-08-15T15:07:35Z</time>
      </trkpt>
      <trkpt lat="47.38975" lon="0.69336">
        <ele>48.68</ele>
        <time>2015-08-15T15:08:06Z</time>
      </trkpt>
      <trkpt lat="47.38967" lon="0.69335">
        <ele>48.68</ele>
        <time>2015-08-15T15:08:37Z</time>
      </trkpt>
      <trkpt lat="47.38966" lon="0.69335">
        <ele>48.68</ele>
        <time>2015-08-15T15:08:55Z</time>
      </trkpt>
      <trkpt lat="47.38959" lon="0.69325">
        <ele>48.68</ele>
        <time>2015-08-15T15:09:05Z</time>
      </trkpt>
      <trkpt lat="47.38958" lon="0.69323">
        <ele>48.68</ele>
        <time>2015-08-15T15:09:06Z</time>
      </trkpt>
      <trkpt lat="47.38956" lon="0.69321">
        <ele>48.68</ele>
        <time>2015-08-15T15:09:07Z</time>
      </trkpt>
      <trkpt lat="47.38955" lon="0.69319">
        <ele>48.68</ele>
        <time>2015-08-15T15:09:08Z</time>
      </trkpt>
      <trkpt lat="47.38953" lon="0.69317">
        <ele>48.2</ele>
        <time>2015-08-15T15:09:09Z</time>
      </trkpt>
      <trkpt lat="47.38951" lon="0.69317">
        <ele>48.2</ele>
        <time>2015-08-15T15:09:10Z</time>
      </trkpt>
      <trkpt lat="47.38941" lon="0.69325">
        <ele>48.68</ele>
        <time>2015-08-15T15:09:14Z</time>
      </trkpt>
      <trkpt lat="47.38911" lon="0.69353">
        <ele>48.68</ele>
        <time>2015-08-15T15:09:26Z</time>
      </trkpt>
      <trkpt lat="47.38909" lon="0.69354">
        <ele>48.68</ele>
        <time>2015-08-15T15:09:27Z</time>
      </trkpt>
      <trkpt lat="47.38906" lon="0.69356">
        <ele>48.68</ele>
        <time>2015-08-15T15:09:28Z</time>
      </trkpt>
      <trkpt lat="47.38903" lon="0.69357">
        <ele>48.68</ele>
        <time>2015-08-15T15:09:29Z</time>
      </trkpt>
      <trkpt lat="47.38901" lon="0.69358">
        <ele>48.68</ele>
        <time>2015-08-15T15:09:30Z</time>
      </trkpt>
      <trkpt lat="47.38899" lon="0.69359">
        <ele>48.68</ele>
        <time>2015-08-15T15:09:31Z</time>
      </trkpt>
      <trkpt lat="47.38896" lon="0.69359">
        <ele>48.2</ele>
        <time>2015-08-15T15:09:32Z</time>
      </trkpt>
      <trkpt lat="47.38894" lon="0.69357">
        <ele>48.2</ele>
        <time>2015-08-15T15:09:33Z</time>
      </trkpt>
      <trkpt lat="47.38893" lon="0.69356">
        <ele>48.68</ele>
        <time>2015-08-15T15:09:34Z</time>
      </trkpt>
      <trkpt lat="47.38891" lon="0.69353">
        <ele>48.68</ele>
        <time>2015-08-15T15:09:35Z</time>
      </trkpt>
      <trkpt lat="47.3889" lon="0.69352">
        <ele>48.2</ele>
        <time>2015-08-15T15:09:36Z</time>
      </trkpt>
      <trkpt lat="47.38888" lon="0.6935">
        <ele>48.2</ele>
        <time>2015-08-15T15:09:37Z</time>
      </trkpt>
      <trkpt lat="47.38876" lon="0.69353">
        <ele>48.68</ele>
        <time>2015-08-15T15:09:42Z</time>
      </trkpt>
      <trkpt lat="47.38825" lon="0.69379">
        <ele>48.2</ele>
        <time>2015-08-15T15:09:57Z</time>
      </trkpt>
      <trkpt lat="47.38783" lon="0.69427">
        <ele>48.68</ele>
        <time>2015-08-15T15:10:12Z</time>
      </trkpt>
      <trkpt lat="47.38741" lon="0.69467">
        <ele>48.68</ele>
        <time>2015-08-15T15:10:24Z</time>
      </trkpt>
      <trkpt lat="47.38704" lon="0.69495">
        <ele>49.16</ele>
        <time>2015-08-15T15:10:36Z</time>
      </trkpt>
      <trkpt lat="47.38672" lon="0.69508">
        <ele>49.16</ele>
        <time>2015-08-15T15:10:49Z</time>
      </trkpt>
      <trkpt lat="47.38643" lon="0.69528">
        <ele>48.68</ele>
        <time>2015-08-15T15:11:02Z</time>
      </trkpt>
      <trkpt lat="47.38642" lon="0.69529">
        <ele>48.68</ele>
        <time>2015-08-15T15:11:03Z</time>
      </trkpt>
      <trkpt lat="47.38641" lon="0.6953">
        <ele>48.68</ele>
        <time>2015-08-15T15:11:04Z</time>
      </trkpt>
      <trkpt lat="47.3864" lon="0.69531">
        <ele>48.68</ele>
        <time>2015-08-15T15:11:06Z</time>
      </trkpt>
      <trkpt lat="47.38639" lon="0.69531">
        <ele>48.68</ele>
        <time>2015-08-15T15:11:28Z</time>
      </trkpt>
      <trkpt lat="47.3863" lon="0.69519">
        <ele>48.68</ele>
        <time>2015-08-15T15:11:38Z</time>
      </trkpt>
      <trkpt lat="47.38609" lon="0.69486">
        <ele>47.72</ele>
        <time>2015-08-15T15:11:50Z</time>
      </trkpt>
      <trkpt lat="47.38607" lon="0.69485">
        <ele>47.72</ele>
        <time>2015-08-15T15:11:51Z</time>
      </trkpt>
      <trkpt lat="47.38581" lon="0.69508">
        <ele>47.72</ele>
        <time>2015-08-15T15:12:00Z</time>
      </trkpt>
      <trkpt lat="47.38578" lon="0.69511">
        <ele>47.72</ele>
        <time>2015-08-15T15:12:01Z</time>
      </trkpt>
      <trkpt lat="47.38543" lon="0.69544">
        <ele>47.72</ele>
        <time>2015-08-15T15:12:11Z</time>
      </trkpt>
      <trkpt lat="47.3854" lon="0.69547">
        <ele>47.72</ele>
        <time>2015-08-15T15:12:12Z</time>
      </trkpt>
      <trkpt lat="47.38503" lon="0.69564">
        <ele>47.72</ele>
        <time>2015-08-15T15:12:21Z</time>
      </trkpt>
      <trkpt lat="47.38457" lon="0.69583">
        <ele>47.72</ele>
        <time>2015-08-15T15:12:35Z</time>
      </trkpt>
      <trkpt lat="47.38396" lon="0.6961">
        <ele>48.68</ele>
        <time>2015-08-15T15:12:51Z</time>
      </trkpt>
      <trkpt lat="47.38355" lon="0.69626">
        <ele>48.68</ele>
        <time>2015-08-15T15:13:04Z</time>
      </trkpt>
      <trkpt lat="47.38346" lon="0.6963">
        <ele>48.68</ele>
        <time>2015-08-15T15:13:18Z</time>
      </trkpt>
      <trkpt lat="47.38296" lon="0.69648">
        <ele>48.68</ele>
        <time>2015-08-15T15:13:35Z</time>
      </trkpt>
      <trkpt lat="47.38253" lon="0.69665">
        <ele>48.68</ele>
        <time>2015-08-15T15:13:49Z</time>
      </trkpt>
      <trkpt lat="47.38189" lon="0.69691">
        <ele>50.13</ele>
        <time>2015-08-15T15:14:08Z</time>
      </trkpt>
      <trkpt lat="47.38186" lon="0.69693">
        <ele>48.68</ele>
        <time>2015-08-15T15:14:09Z</time>
      </trkpt>
      <trkpt lat="47.38183" lon="0.69693">
        <ele>48.68</ele>
        <time>2015-08-15T15:14:10Z</time>
      </trkpt>
      <trkpt lat="47.3818" lon="0.69694">
        <ele>48.68</ele>
        <time>2015-08-15T15:14:11Z</time>
      </trkpt>
      <trkpt lat="47.38178" lon="0.69696">
        <ele>48.2</ele>
        <time>2015-08-15T15:14:12Z</time>
      </trkpt>
      <trkpt lat="47.38176" lon="0.69699">
        <ele>48.68</ele>
        <time>2015-08-15T15:14:13Z</time>
      </trkpt>
      <trkpt lat="47.38174" lon="0.69702">
        <ele>48.68</ele>
        <time>2015-08-15T15:14:14Z</time>
      </trkpt>
      <trkpt lat="47.38177" lon="0.69718">
        <ele>48.68</ele>
        <time>2015-08-15T15:14:18Z</time>
      </trkpt>
      <trkpt lat="47.38177" lon="0.69722">
        <ele>48.2</ele>
        <time>2015-08-15T15:14:19Z</time>
      </trkpt>
      <trkpt lat="47.38178" lon="0.69725">
        <ele>48.68</ele>
        <time>2015-08-15T15:14:20Z</time>
      </trkpt>
      <trkpt lat="47.38178" lon="0.69728">
        <ele>48.68</ele>
        <time>2015-08-15T15:14:21Z</time>
      </trkpt>
      <trkpt lat="47.38178" lon="0.69732">
        <ele>48.68</ele>
        <time>2015-08-15T15:14:22Z</time>
      </trkpt>
      <trkpt lat="47.38177" lon="0.69735">
        <ele>48.68</ele>
        <time>2015-08-15T15:14:23Z</time>
      </trkpt>
      <trkpt lat="47.38176" lon="0.69737">
        <ele>48.68</ele>
        <time>2015-08-15T15:14:24Z</time>
      </trkpt>
      <trkpt lat="47.38174" lon="0.69738">
        <ele>48.2</ele>
        <time>2015-08-15T15:14:25Z</time>
      </trkpt>
      <trkpt lat="47.38129" lon="0.69758">
        <ele>48.68</ele>
        <time>2015-08-15T15:14:39Z</time>
      </trkpt>
      <trkpt lat="47.38086" lon="0.69774">
        <ele>49.16</ele>
        <time>2015-08-15T15:14:53Z</time>
      </trkpt>
      <trkpt lat="47.38084" lon="0.69775">
        <ele>49.16</ele>
        <time>2015-08-15T15:14:54Z</time>
      </trkpt>
      <trkpt lat="47.38082" lon="0.69775">
        <ele>49.16</ele>
        <time>2015-08-15T15:14:55Z</time>
      </trkpt>
      <trkpt lat="47.3808" lon="0.69776">
        <ele>49.16</ele>
        <time>2015-08-15T15:14:56Z</time>
      </trkpt>
      <trkpt lat="47.38078" lon="0.69775">
        <ele>49.16</ele>
        <time>2015-08-15T15:14:57Z</time>
      </trkpt>
      <trkpt lat="47.38076" lon="0.69775">
        <ele>49.16</ele>
        <time>2015-08-15T15:14:58Z</time>
      </trkpt>
      <trkpt lat="47.38074" lon="0.69774">
        <ele>49.16</ele>
        <time>2015-08-15T15:14:59Z</time>
      </trkpt>
      <trkpt lat="47.38072" lon="0.69772">
        <ele>48.68</ele>
        <time>2015-08-15T15:15:00Z</time>
      </trkpt>
      <trkpt lat="47.3807" lon="0.69767">
        <ele>48.68</ele>
        <time>2015-08-15T15:15:02Z</time>
      </trkpt>
      <trkpt lat="47.38069" lon="0.69765">
        <ele>48.68</ele>
        <time>2015-08-15T15:15:03Z</time>
      </trkpt>
      <trkpt lat="47.38068" lon="0.69763">
        <ele>49.16</ele>
        <time>2015-08-15T15:15:04Z</time>
      </trkpt>
      <trkpt lat="47.38066" lon="0.69761">
        <ele>49.16</ele>
        <time>2015-08-15T15:15:05Z</time>
      </trkpt>
      <trkpt lat="47.38065" lon="0.69761">
        <ele>48.68</ele>
        <time>2015-08-15T15:15:06Z</time>
      </trkpt>
      <trkpt lat="47.38064" lon="0.69762">
        <ele>49.16</ele>
        <time>2015-08-15T15:15:07Z</time>
      </trkpt>
      <trkpt lat="47.38062" lon="0.69762">
        <ele>49.16</ele>
        <time>2015-08-15T15:15:08Z</time>
      </trkpt>
      <trkpt lat="47.3806" lon="0.69763">
        <ele>49.16</ele>
        <time>2015-08-15T15:15:09Z</time>
      </trkpt>
      <trkpt lat="47.38058" lon="0.69763">
        <ele>49.16</ele>
        <time>2015-08-15T15:15:10Z</time>
      </trkpt>
      <trkpt lat="47.38055" lon="0.69763">
        <ele>49.16</ele>
        <time>2015-08-15T15:15:14Z</time>
      </trkpt>
      <trkpt lat="47.38058" lon="0.69773">
        <ele>49.16</ele>
        <time>2015-08-15T15:15:27Z</time>
      </trkpt>
      <trkpt lat="47.38064" lon="0.69818">
        <ele>49.16</ele>
        <time>2015-08-15T15:15:39Z</time>
      </trkpt>
      <trkpt lat="47.3808" lon="0.699">
        <ele>49.16</ele>
        <time>2015-08-15T15:15:54Z</time>
      </trkpt>
      <trkpt lat="47.38084" lon="0.69925">
        <ele>49.16</ele>
        <time>2015-08-15T15:15:58Z</time>
      </trkpt>
      <trkpt lat="47.38093" lon="0.69975">
        <ele>49.16</ele>
        <time>2015-08-15T15:16:07Z</time>
      </trkpt>
      <trkpt lat="47.38083" lon="0.70012">
        <ele>49.16</ele>
        <time>2015-08-15T15:16:18Z</time>
      </trkpt>
      <trkpt lat="47.38081" lon="0.70013">
        <ele>48.68</ele>
        <time>2015-08-15T15:16:20Z</time>
      </trkpt>
      <trkpt lat="47.3808" lon="0.70017">
        <ele>48.68</ele>
        <time>2015-08-15T15:16:49Z</time>
      </trkpt>
      <trkpt lat="47.38079" lon="0.70019">
        <ele>49.16</ele>
        <time>2015-08-15T15:17:10Z</time>
      </trkpt>
      <trkpt lat="47.38048" lon="0.70027">
        <ele>48.68</ele>
        <time>2015-08-15T15:17:24Z</time>
      </trkpt>
      <trkpt lat="47.37987" lon="0.70051">
        <ele>48.68</ele>
        <time>2015-08-15T15:17:41Z</time>
      </trkpt>
      <trkpt lat="47.37929" lon="0.70077">
        <ele>48.68</ele>
        <time>2015-08-15T15:17:58Z</time>
      </trkpt>
      <trkpt lat="47.37889" lon="0.70093">
        <ele>48.68</ele>
        <time>2015-08-15T15:18:11Z</time>
      </trkpt>
      <trkpt lat="47.37841" lon="0.70119">
        <ele>48.2</ele>
        <time>2015-08-15T15:18:27Z</time>
      </trkpt>
      <trkpt lat="47.37792" lon="0.7015">
        <ele>47.72</ele>
        <time>2015-08-15T15:18:42Z</time>
      </trkpt>
      <trkpt lat="47.37788" lon="0.70152">
        <ele>47.72</ele>
        <time>2015-08-15T15:18:43Z</time>
      </trkpt>
      <trkpt lat="47.37726" lon="0.70192">
        <ele>48.68</ele>
        <time>2015-08-15T15:18:59Z</time>
      </trkpt>
      <trkpt lat="47.37667" lon="0.7022">
        <ele>48.68</ele>
        <time>2015-08-15T15:19:15Z</time>
      </trkpt>
      <trkpt lat="47.37612" lon="0.7025">
        <ele>48.2</ele>
        <time>2015-08-15T15:19:30Z</time>
      </trkpt>
      <trkpt lat="47.37608" lon="0.70251">
        <ele>48.2</ele>
        <time>2015-08-15T15:19:31Z</time>
      </trkpt>
      <trkpt lat="47.37604" lon="0.70251">
        <ele>48.2</ele>
        <time>2015-08-15T15:19:32Z</time>
      </trkpt>
      <trkpt lat="47.37591" lon="0.70254">
        <ele>48.2</ele>
        <time>2015-08-15T15:19:35Z</time>
      </trkpt>
      <trkpt lat="47.37527" lon="0.70284">
        <ele>48.2</ele>
        <time>2015-08-15T15:19:50Z</time>
      </trkpt>
      <trkpt lat="47.37504" lon="0.70285">
        <ele>48.2</ele>
        <time>2015-08-15T15:19:55Z</time>
      </trkpt>
      <trkpt lat="47.37499" lon="0.70286">
        <ele>48.2</ele>
        <time>2015-08-15T15:19:56Z</time>
      </trkpt>
      <trkpt lat="47.37485" lon="0.70288">
        <ele>48.68</ele>
        <time>2015-08-15T15:19:59Z</time>
      </trkpt>
      <trkpt lat="47.37481" lon="0.70288">
        <ele>48.68</ele>
        <time>2015-08-15T15:20:00Z</time>
      </trkpt>
      <trkpt lat="47.37477" lon="0.70286">
        <ele>48.68</ele>
        <time>2015-08-15T15:20:01Z</time>
      </trkpt>
      <trkpt lat="47.37452" lon="0.70283">
        <ele>49.65</ele>
        <time>2015-08-15T15:20:08Z</time>
      </trkpt>
      <trkpt lat="47.3745" lon="0.70283">
        <ele>49.65</ele>
        <time>2015-08-15T15:20:09Z</time>
      </trkpt>
      <trkpt lat="47.37448" lon="0.70282">
        <ele>50.13</ele>
        <time>2015-08-15T15:20:10Z</time>
      </trkpt>
      <trkpt lat="47.37444" lon="0.70282">
        <ele>50.61</ele>
        <time>2015-08-15T15:20:13Z</time>
      </trkpt>
      <trkpt lat="47.37443" lon="0.70282">
        <ele>50.61</ele>
        <time>2015-08-15T15:20:14Z</time>
      </trkpt>
      <trkpt lat="47.37441" lon="0.70283">
        <ele>50.61</ele>
        <time>2015-08-15T15:20:15Z</time>
      </trkpt>
      <trkpt lat="47.37434" lon="0.70285">
        <ele>50.61</ele>
        <time>2015-08-15T15:20:22Z</time>
      </trkpt>
      <trkpt lat="47.37432" lon="0.70286">
        <ele>50.13</ele>
        <time>2015-08-15T15:20:23Z</time>
      </trkpt>
      <trkpt lat="47.37431" lon="0.70286">
        <ele>50.13</ele>
        <time>2015-08-15T15:20:24Z</time>
      </trkpt>
      <trkpt lat="47.3743" lon="0.70286">
        <ele>50.61</ele>
        <time>2015-08-15T15:20:25Z</time>
      </trkpt>
      <trkpt lat="47.37423" lon="0.70284">
        <ele>50.13</ele>
        <time>2015-08-15T15:20:41Z</time>
      </trkpt>
      <trkpt lat="47.37421" lon="0.70283">
        <ele>50.13</ele>
        <time>2015-08-15T15:20:49Z</time>
      </trkpt>
      <trkpt lat="47.37422" lon="0.70251">
        <ele>51.09</ele>
        <time>2015-08-15T15:21:00Z</time>
      </trkpt>
      <trkpt lat="47.3742" lon="0.70153">
        <ele>52.53</ele>
        <time>2015-08-15T15:21:17Z</time>
      </trkpt>
      <trkpt lat="47.37411" lon="0.70088">
        <ele>52.53</ele>
        <time>2015-08-15T15:21:29Z</time>
      </trkpt>
      <trkpt lat="47.37408" lon="0.70027">
        <ele>53.01</ele>
        <time>2015-08-15T15:21:43Z</time>
      </trkpt>
      <trkpt lat="47.37407" lon="0.70024">
        <ele>53.01</ele>
        <time>2015-08-15T15:21:45Z</time>
      </trkpt>
      <trkpt lat="47.37408" lon="0.70024">
        <ele>53.01</ele>
        <time>2015-08-15T15:21:56Z</time>
      </trkpt>
      <trkpt lat="47.37408" lon="0.70024">
        <ele>53.01</ele>
        <time>2015-08-15T15:22:32Z</time>
      </trkpt>
      <trkpt lat="47.37409" lon="0.70024">
        <ele>52.53</ele>
        <time>2015-08-15T15:22:57Z</time>
      </trkpt>
      <trkpt lat="47.37408" lon="0.70023">
        <ele>52.53</ele>
        <time>2015-08-15T15:23:29Z</time>
      </trkpt>
      <trkpt lat="47.37408" lon="0.70023">
        <ele>53.01</ele>
        <time>2015-08-15T15:24:00Z</time>
      </trkpt>
      <trkpt lat="47.37407" lon="0.70022">
        <ele>53.01</ele>
        <time>2015-08-15T15:24:33Z</time>
      </trkpt>
      <trkpt lat="47.37408" lon="0.70022">
        <ele>53.01</ele>
        <time>2015-08-15T15:25:02Z</time>
      </trkpt>
      <trkpt lat="47.37408" lon="0.70023">
        <ele>53.01</ele>
        <time>2015-08-15T15:25:35Z</time>
      </trkpt>
      <trkpt lat="47.37408" lon="0.70022">
        <ele>53.01</ele>
        <time>2015-08-15T15:26:07Z</time>
      </trkpt>
      <trkpt lat="47.37407" lon="0.70022">
        <ele>53.01</ele>
        <time>2015-08-15T15:26:35Z</time>
      </trkpt>
      <trkpt lat="47.37407" lon="0.70021">
        <ele>53.49</ele>
        <time>2015-08-15T15:27:02Z</time>
      </trkpt>
      <trkpt lat="47.37408" lon="0.7002">
        <ele>53.01</ele>
        <time>2015-08-15T15:27:22Z</time>
      </trkpt>
      <trkpt lat="47.37409" lon="0.69972">
        <ele>53.01</ele>
        <time>2015-08-15T15:27:34Z</time>
      </trkpt>
      <trkpt lat="47.37402" lon="0.69884">
        <ele>53.49</ele>
        <time>2015-08-15T15:27:52Z</time>
      </trkpt>
      <trkpt lat="47.374" lon="0.69815">
        <ele>55.41</ele>
        <time>2015-08-15T15:28:06Z</time>
      </trkpt>
      <trkpt lat="47.374" lon="0.6981">
        <ele>51.09</ele>
        <time>2015-08-15T15:28:07Z</time>
      </trkpt>
      <trkpt lat="47.37397" lon="0.6976">
        <ele>54.93</ele>
        <time>2015-08-15T15:28:16Z</time>
      </trkpt>
      <trkpt lat="47.37393" lon="0.69667">
        <ele>53.49</ele>
        <time>2015-08-15T15:28:34Z</time>
      </trkpt>
      <trkpt lat="47.37387" lon="0.69597">
        <ele>54.45</ele>
        <time>2015-08-15T15:28:50Z</time>
      </trkpt>
      <trkpt lat="47.37386" lon="0.69585">
        <ele>54.45</ele>
        <time>2015-08-15T15:28:56Z</time>
      </trkpt>
      <trkpt lat="47.37386" lon="0.69584">
        <ele>54.45</ele>
        <time>2015-08-15T15:29:19Z</time>
      </trkpt>
      <trkpt lat="47.37387" lon="0.69584">
        <ele>54.45</ele>
        <time>2015-08-15T15:29:52Z</time>
      </trkpt>
      <trkpt lat="47.37386" lon="0.69583">
        <ele>54.45</ele>
        <time>2015-08-15T15:30:23Z</time>
      </trkpt>
      <trkpt lat="47.37387" lon="0.69582">
        <ele>54.45</ele>
        <time>2015-08-15T15:30:58Z</time>
      </trkpt>
      <trkpt lat="47.37386" lon="0.69583">
        <ele>53.97</ele>
        <time>2015-08-15T15:31:26Z</time>
      </trkpt>
      <trkpt lat="47.37384" lon="0.69581">
        <ele>54.45</ele>
        <time>2015-08-15T15:31:39Z</time>
      </trkpt>
      <trkpt lat="47.37358" lon="0.69599">
        <ele>54.45</ele>
        <time>2015-08-15T15:31:51Z</time>
      </trkpt>
      <trkpt lat="47.37327" lon="0.6962">
        <ele>54.45</ele>
        <time>2015-08-15T15:32:01Z</time>
      </trkpt>
      <trkpt lat="47.37293" lon="0.69617">
        <ele>54.93</ele>
        <time>2015-08-15T15:32:12Z</time>
      </trkpt>
      <trkpt lat="47.37289" lon="0.69617">
        <ele>54.45</ele>
        <time>2015-08-15T15:32:13Z</time>
      </trkpt>
      <trkpt lat="47.3727" lon="0.69619">
        <ele>55.89</ele>
        <time>2015-08-15T15:32:19Z</time>
      </trkpt>
      <trkpt lat="47.37267" lon="0.69618">
        <ele>54.93</ele>
        <time>2015-08-15T15:32:20Z</time>
      </trkpt>
      <trkpt lat="47.37236" lon="0.69621">
        <ele>55.41</ele>
        <time>2015-08-15T15:32:30Z</time>
      </trkpt>
      <trkpt lat="47.37167" lon="0.69648">
        <ele>56.37</ele>
        <time>2015-08-15T15:32:49Z</time>
      </trkpt>
      <trkpt lat="47.37102" lon="0.69676">
        <ele>55.89</ele>
        <time>2015-08-15T15:33:09Z</time>
      </trkpt>
      <trkpt lat="47.37068" lon="0.69696">
        <ele>54.93</ele>
        <time>2015-08-15T15:33:20Z</time>
      </trkpt>
      <trkpt lat="47.37036" lon="0.69706">
        <ele>54.45</ele>
        <time>2015-08-15T15:33:34Z</time>
      </trkpt>
      <trkpt lat="47.36987" lon="0.69722">
        <ele>54.45</ele>
        <time>2015-08-15T15:33:50Z</time>
      </trkpt>
      <trkpt lat="47.36938" lon="0.69743">
        <ele>54.45</ele>
        <time>2015-08-15T15:34:07Z</time>
      </trkpt>
      <trkpt lat="47.36936" lon="0.69744">
        <ele>54.45</ele>
        <time>2015-08-15T15:34:08Z</time>
      </trkpt>
      <trkpt lat="47.36934" lon="0.69745">
        <ele>54.45</ele>
        <time>2015-08-15T15:34:09Z</time>
      </trkpt>
      <trkpt lat="47.36932" lon="0.69746">
        <ele>54.45</ele>
        <time>2015-08-15T15:34:10Z</time>
      </trkpt>
      <trkpt lat="47.3693" lon="0.69747">
        <ele>54.45</ele>
        <time>2015-08-15T15:34:11Z</time>
      </trkpt>
      <trkpt lat="47.36929" lon="0.69748">
        <ele>54.45</ele>
        <time>2015-08-15T15:34:12Z</time>
      </trkpt>
      <trkpt lat="47.36927" lon="0.69749">
        <ele>54.45</ele>
        <time>2015-08-15T15:34:13Z</time>
      </trkpt>
      <trkpt lat="47.36926" lon="0.6975">
        <ele>54.45</ele>
        <time>2015-08-15T15:34:14Z</time>
      </trkpt>
      <trkpt lat="47.36925" lon="0.69752">
        <ele>54.45</ele>
        <time>2015-08-15T15:34:15Z</time>
      </trkpt>
      <trkpt lat="47.36924" lon="0.69753">
        <ele>54.45</ele>
        <time>2015-08-15T15:34:16Z</time>
      </trkpt>
      <trkpt lat="47.36921" lon="0.69756">
        <ele>54.93</ele>
        <time>2015-08-15T15:34:20Z</time>
      </trkpt>
      <trkpt lat="47.36916" lon="0.69765">
        <ele>53.49</ele>
        <time>2015-08-15T15:34:33Z</time>
      </trkpt>
      <trkpt lat="47.36922" lon="0.69766">
        <ele>53.01</ele>
        <time>2015-08-15T15:34:38Z</time>
      </trkpt>
      <trkpt lat="47.36924" lon="0.69768">
        <ele>52.53</ele>
        <time>2015-08-15T15:34:40Z</time>
      </trkpt>
      <trkpt lat="47.36933" lon="0.69809">
        <ele>53.01</ele>
        <time>2015-08-15T15:34:51Z</time>
      </trkpt>
      <trkpt lat="47.36945" lon="0.69883">
        <ele>53.01</ele>
        <time>2015-08-15T15:35:05Z</time>
      </trkpt>
      <trkpt lat="47.36947" lon="0.69942">
        <ele>52.53</ele>
        <time>2015-08-15T15:35:16Z</time>
      </trkpt>
      <trkpt lat="47.36954" lon="0.69993">
        <ele>52.53</ele>
        <time>2015-08-15T15:35:26Z</time>
      </trkpt>
      <trkpt lat="47.36954" lon="0.70066">
        <ele>52.53</ele>
        <time>2015-08-15T15:35:40Z</time>
      </trkpt>
      <trkpt lat="47.36961" lon="0.70127">
        <ele>52.53</ele>
        <time>2015-08-15T15:35:52Z</time>
      </trkpt>
      <trkpt lat="47.36959" lon="0.70195">
        <ele>53.01</ele>
        <time>2015-08-15T15:36:06Z</time>
      </trkpt>
      <trkpt lat="47.36959" lon="0.70199">
        <ele>53.01</ele>
        <time>2015-08-15T15:36:07Z</time>
      </trkpt>
      <trkpt lat="47.36958" lon="0.70203">
        <ele>53.01</ele>
        <time>2015-08-15T15:36:08Z</time>
      </trkpt>
      <trkpt lat="47.3696" lon="0.70219">
        <ele>52.53</ele>
        <time>2015-08-15T15:36:12Z</time>
      </trkpt>
      <trkpt lat="47.3695" lon="0.70264">
        <ele>51.09</ele>
        <time>2015-08-15T15:36:25Z</time>
      </trkpt>
      <trkpt lat="47.3695" lon="0.7032">
        <ele>50.61</ele>
        <time>2015-08-15T15:36:37Z</time>
      </trkpt>
      <trkpt lat="47.36947" lon="0.70373">
        <ele>50.61</ele>
        <time>2015-08-15T15:36:48Z</time>
      </trkpt>
      <trkpt lat="47.36947" lon="0.70379">
        <ele>50.61</ele>
        <time>2015-08-15T15:36:49Z</time>
      </trkpt>
      <trkpt lat="47.36951" lon="0.70438">
        <ele>52.05</ele>
        <time>2015-08-15T15:36:59Z</time>
      </trkpt>
      <trkpt lat="47.36951" lon="0.70442">
        <ele>52.05</ele>
        <time>2015-08-15T15:37:00Z</time>
      </trkpt>
      <trkpt lat="47.3695" lon="0.70445">
        <ele>52.05</ele>
        <time>2015-08-15T15:37:01Z</time>
      </trkpt>
      <trkpt lat="47.3695" lon="0.70447">
        <ele>52.05</ele>
        <time>2015-08-15T15:37:02Z</time>
      </trkpt>
      <trkpt lat="47.36949" lon="0.7045">
        <ele>52.05</ele>
        <time>2015-08-15T15:37:03Z</time>
      </trkpt>
      <trkpt lat="47.36949" lon="0.70453">
        <ele>52.05</ele>
        <time>2015-08-15T15:37:04Z</time>
      </trkpt>
      <trkpt lat="47.36949" lon="0.70456">
        <ele>52.05</ele>
        <time>2015-08-15T15:37:05Z</time>
      </trkpt>
      <trkpt lat="47.3695" lon="0.70459">
        <ele>52.05</ele>
        <time>2015-08-15T15:37:06Z</time>
      </trkpt>
      <trkpt lat="47.36949" lon="0.70463">
        <ele>52.05</ele>
        <time>2015-08-15T15:37:07Z</time>
      </trkpt>
      <trkpt lat="47.36949" lon="0.70466">
        <ele>52.05</ele>
        <time>2015-08-15T15:37:08Z</time>
      </trkpt>
      <trkpt lat="47.3695" lon="0.7047">
        <ele>52.05</ele>
        <time>2015-08-15T15:37:09Z</time>
      </trkpt>
      <trkpt lat="47.36949" lon="0.70473">
        <ele>52.53</ele>
        <time>2015-08-15T15:37:10Z</time>
      </trkpt>
      <trkpt lat="47.36949" lon="0.70476">
        <ele>52.05</ele>
        <time>2015-08-15T15:37:11Z</time>
      </trkpt>
      <trkpt lat="47.36948" lon="0.70477">
        <ele>52.05</ele>
        <time>2015-08-15T15:37:12Z</time>
      </trkpt>
      <trkpt lat="47.36947" lon="0.70479">
        <ele>52.53</ele>
        <time>2015-08-15T15:37:13Z</time>
      </trkpt>
      <trkpt lat="47.36948" lon="0.70481">
        <ele>52.53</ele>
        <time>2015-08-15T15:37:14Z</time>
      </trkpt>
      <trkpt lat="47.36949" lon="0.70483">
        <ele>53.01</ele>
        <time>2015-08-15T15:37:15Z</time>
      </trkpt>
      <trkpt lat="47.3695" lon="0.70484">
        <ele>53.01</ele>
        <time>2015-08-15T15:37:16Z</time>
      </trkpt>
      <trkpt lat="47.36951" lon="0.70485">
        <ele>53.01</ele>
        <time>2015-08-15T15:37:17Z</time>
      </trkpt>
      <trkpt lat="47.36953" lon="0.70486">
        <ele>53.01</ele>
        <time>2015-08-15T15:37:18Z</time>
      </trkpt>
      <trkpt lat="47.36955" lon="0.70572">
        <ele>53.01</ele>
        <time>2015-08-15T15:37:33Z</time>
      </trkpt>
      <trkpt lat="47.36957" lon="0.70584">
        <ele>53.01</ele>
        <time>2015-08-15T15:37:35Z</time>
      </trkpt>
      <trkpt lat="47.36957" lon="0.7059">
        <ele>53.01</ele>
        <time>2015-08-15T15:37:36Z</time>
      </trkpt>
      <trkpt lat="47.36962" lon="0.70671">
        <ele>52.53</ele>
        <time>2015-08-15T15:37:50Z</time>
      </trkpt>
      <trkpt lat="47.36963" lon="0.70684">
        <ele>52.53</ele>
        <time>2015-08-15T15:37:52Z</time>
      </trkpt>
      <trkpt lat="47.36964" lon="0.70709">
        <ele>53.01</ele>
        <time>2015-08-15T15:37:56Z</time>
      </trkpt>
      <trkpt lat="47.36985" lon="0.70819">
        <ele>52.53</ele>
        <time>2015-08-15T15:38:15Z</time>
      </trkpt>
      <trkpt lat="47.36998" lon="0.70877">
        <ele>52.05</ele>
        <time>2015-08-15T15:38:27Z</time>
      </trkpt>
      <trkpt lat="47.37023" lon="0.70948">
        <ele>52.05</ele>
        <time>2015-08-15T15:38:42Z</time>
      </trkpt>
      <trkpt lat="47.37039" lon="0.70999">
        <ele>52.05</ele>
        <time>2015-08-15T15:38:53Z</time>
      </trkpt>
      <trkpt lat="47.37053" lon="0.71043">
        <ele>52.05</ele>
        <time>2015-08-15T15:39:04Z</time>
      </trkpt>
      <trkpt lat="47.37063" lon="0.71062">
        <ele>52.05</ele>
        <time>2015-08-15T15:39:15Z</time>
      </trkpt>
      <trkpt lat="47.37063" lon="0.71063">
        <ele>52.05</ele>
        <time>2015-08-15T15:39:45Z</time>
      </trkpt>
      <trkpt lat="47.37079" lon="0.71096">
        <ele>52.05</ele>
        <time>2015-08-15T15:39:57Z</time>
      </trkpt>
      <trkpt lat="47.37101" lon="0.71157">
        <ele>52.53</ele>
        <time>2015-08-15T15:40:10Z</time>
      </trkpt>
      <trkpt lat="47.37121" lon="0.71202">
        <ele>52.05</ele>
        <time>2015-08-15T15:40:20Z</time>
      </trkpt>
      <trkpt lat="47.37147" lon="0.71263">
        <ele>52.53</ele>
        <time>2015-08-15T15:40:34Z</time>
      </trkpt>
      <trkpt lat="47.37165" lon="0.71321">
        <ele>52.05</ele>
        <time>2015-08-15T15:40:48Z</time>
      </trkpt>
      <trkpt lat="47.3718" lon="0.71361">
        <ele>52.05</ele>
        <time>2015-08-15T15:40:59Z</time>
      </trkpt>
      <trkpt lat="47.37196" lon="0.71407">
        <ele>51.57</ele>
        <time>2015-08-15T15:41:14Z</time>
      </trkpt>
      <trkpt lat="47.37196" lon="0.71409">
        <ele>51.57</ele>
        <time>2015-08-15T15:41:15Z</time>
      </trkpt>
      <trkpt lat="47.37204" lon="0.71451">
        <ele>50.13</ele>
        <time>2015-08-15T15:41:31Z</time>
      </trkpt>
      <trkpt lat="47.3721" lon="0.71485">
        <ele>48.68</ele>
        <time>2015-08-15T15:41:43Z</time>
      </trkpt>
      <trkpt lat="47.37217" lon="0.71539">
        <ele>48.2</ele>
        <time>2015-08-15T15:41:54Z</time>
      </trkpt>
      <trkpt lat="47.37215" lon="0.71583">
        <ele>47.72</ele>
        <time>2015-08-15T15:42:00Z</time>
      </trkpt>
      <trkpt lat="47.37216" lon="0.71608">
        <ele>48.2</ele>
        <time>2015-08-15T15:42:03Z</time>
      </trkpt>
      <trkpt lat="47.37212" lon="0.71707">
        <ele>51.09</ele>
        <time>2015-08-15T15:42:15Z</time>
      </trkpt>
      <trkpt lat="47.37211" lon="0.71719">
        <ele>51.09</ele>
        <time>2015-08-15T15:42:17Z</time>
      </trkpt>
      <trkpt lat="47.3721" lon="0.71762">
        <ele>51.57</ele>
        <time>2015-08-15T15:42:31Z</time>
      </trkpt>
      <trkpt lat="47.3721" lon="0.71764">
        <ele>51.57</ele>
        <time>2015-08-15T15:42:32Z</time>
      </trkpt>
      <trkpt lat="47.3721" lon="0.71787">
        <ele>52.05</ele>
        <time>2015-08-15T15:42:42Z</time>
      </trkpt>
      <trkpt lat="47.3721" lon="0.7179">
        <ele>52.05</ele>
        <time>2015-08-15T15:42:43Z</time>
      </trkpt>
      <trkpt lat="47.3721" lon="0.71794">
        <ele>52.05</ele>
        <time>2015-08-15T15:42:44Z</time>
      </trkpt>
      <trkpt lat="47.37209" lon="0.71797">
        <ele>52.05</ele>
        <time>2015-08-15T15:42:45Z</time>
      </trkpt>
      <trkpt lat="47.37206" lon="0.71798">
        <ele>52.05</ele>
        <time>2015-08-15T15:42:46Z</time>
      </trkpt>
      <trkpt lat="47.37204" lon="0.71797">
        <ele>52.05</ele>
        <time>2015-08-15T15:42:47Z</time>
      </trkpt>
      <trkpt lat="47.37201" lon="0.71795">
        <ele>52.53</ele>
        <time>2015-08-15T15:42:48Z</time>
      </trkpt>
      <trkpt lat="47.372" lon="0.71792">
        <ele>52.53</ele>
        <time>2015-08-15T15:42:49Z</time>
      </trkpt>
      <trkpt lat="47.37202" lon="0.71781">
        <ele>52.53</ele>
        <time>2015-08-15T15:42:52Z</time>
      </trkpt>
      <trkpt lat="47.37203" lon="0.71778">
        <ele>52.53</ele>
        <time>2015-08-15T15:42:53Z</time>
      </trkpt>
      <trkpt lat="47.37204" lon="0.71775">
        <ele>52.53</ele>
        <time>2015-08-15T15:42:54Z</time>
      </trkpt>
      <trkpt lat="47.37205" lon="0.71773">
        <ele>52.53</ele>
        <time>2015-08-15T15:42:55Z</time>
      </trkpt>
      <trkpt lat="47.37206" lon="0.71771">
        <ele>52.53</ele>
        <time>2015-08-15T15:42:56Z</time>
      </trkpt>
      <trkpt lat="47.37206" lon="0.71769">
        <ele>52.53</ele>
        <time>2015-08-15T15:42:57Z</time>
      </trkpt>
      <trkpt lat="47.37202" lon="0.71771">
        <ele>52.53</ele>
        <time>2015-08-15T15:43:02Z</time>
      </trkpt>
      <trkpt lat="47.372" lon="0.71774">
        <ele>52.05</ele>
        <time>2015-08-15T15:43:03Z</time>
      </trkpt>
      <trkpt lat="47.37199" lon="0.71777">
        <ele>52.05</ele>
        <time>2015-08-15T15:43:04Z</time>
      </trkpt>
      <trkpt lat="47.37197" lon="0.71781">
        <ele>52.05</ele>
        <time>2015-08-15T15:43:05Z</time>
      </trkpt>
      <trkpt lat="47.37195" lon="0.71785">
        <ele>52.05</ele>
        <time>2015-08-15T15:43:06Z</time>
      </trkpt>
      <trkpt lat="47.37192" lon="0.71788">
        <ele>52.05</ele>
        <time>2015-08-15T15:43:07Z</time>
      </trkpt>
      <trkpt lat="47.37187" lon="0.71789">
        <ele>52.05</ele>
        <time>2015-08-15T15:43:08Z</time>
      </trkpt>
      <trkpt lat="47.37183" lon="0.71789">
        <ele>52.05</ele>
        <time>2015-08-15T15:43:09Z</time>
      </trkpt>
      <trkpt lat="47.37179" lon="0.71788">
        <ele>52.05</ele>
        <time>2015-08-15T15:43:10Z</time>
      </trkpt>
      <trkpt lat="47.37175" lon="0.71785">
        <ele>52.05</ele>
        <time>2015-08-15T15:43:11Z</time>
      </trkpt>
      <trkpt lat="47.37171" lon="0.71781">
        <ele>52.05</ele>
        <time>2015-08-15T15:43:12Z</time>
      </trkpt>
      <trkpt lat="47.37169" lon="0.71776">
        <ele>52.05</ele>
        <time>2015-08-15T15:43:13Z</time>
      </trkpt>
      <trkpt lat="47.37167" lon="0.7177">
        <ele>52.05</ele>
        <time>2015-08-15T15:43:14Z</time>
      </trkpt>
      <trkpt lat="47.37166" lon="0.71764">
        <ele>52.05</ele>
        <time>2015-08-15T15:43:15Z</time>
      </trkpt>
      <trkpt lat="47.37167" lon="0.71758">
        <ele>52.05</ele>
        <time>2015-08-15T15:43:16Z</time>
      </trkpt>
      <trkpt lat="47.37172" lon="0.71742">
        <ele>52.53</ele>
        <time>2015-08-15T15:43:19Z</time>
      </trkpt>
      <trkpt lat="47.37175" lon="0.71738">
        <ele>52.53</ele>
        <time>2015-08-15T15:43:20Z</time>
      </trkpt>
      <trkpt lat="47.37177" lon="0.71733">
        <ele>52.53</ele>
        <time>2015-08-15T15:43:21Z</time>
      </trkpt>
      <trkpt lat="47.37179" lon="0.71727">
        <ele>52.05</ele>
        <time>2015-08-15T15:43:22Z</time>
      </trkpt>
      <trkpt lat="47.3718" lon="0.71721">
        <ele>52.53</ele>
        <time>2015-08-15T15:43:23Z</time>
      </trkpt>
      <trkpt lat="47.3718" lon="0.71714">
        <ele>52.53</ele>
        <time>2015-08-15T15:43:24Z</time>
      </trkpt>
      <trkpt lat="47.37166" lon="0.71626">
        <ele>53.49</ele>
        <time>2015-08-15T15:43:38Z</time>
      </trkpt>
      <trkpt lat="47.37176" lon="0.71596">
        <ele>53.97</ele>
        <time>2015-08-15T15:43:45Z</time>
      </trkpt>
      <trkpt lat="47.37189" lon="0.71598">
        <ele>53.97</ele>
        <time>2015-08-15T15:43:49Z</time>
      </trkpt>
      <trkpt lat="47.37196" lon="0.71595">
        <ele>53.97</ele>
        <time>2015-08-15T15:43:53Z</time>
      </trkpt>
      <trkpt lat="47.37199" lon="0.71591">
        <ele>53.97</ele>
        <time>2015-08-15T15:43:56Z</time>
      </trkpt>
      <trkpt lat="47.372" lon="0.7159">
        <ele>53.97</ele>
        <time>2015-08-15T15:44:05Z</time>
      </trkpt>
      <trkpt lat="47.37253" lon="0.7159">
        <ele>54.93</ele>
        <time>2015-08-15T15:44:24Z</time>
      </trkpt>
      <trkpt lat="47.37313" lon="0.71585">
        <ele>54.45</ele>
        <time>2015-08-15T15:44:44Z</time>
      </trkpt>
      <trkpt lat="47.37371" lon="0.71577">
        <ele>54.45</ele>
        <time>2015-08-15T15:45:04Z</time>
      </trkpt>
      <trkpt lat="47.37422" lon="0.71565">
        <ele>53.97</ele>
        <time>2015-08-15T15:45:23Z</time>
      </trkpt>
      <trkpt lat="47.37424" lon="0.71565">
        <ele>53.97</ele>
        <time>2015-08-15T15:45:24Z</time>
      </trkpt>
      <trkpt lat="47.37426" lon="0.71564">
        <ele>53.97</ele>
        <time>2015-08-15T15:45:25Z</time>
      </trkpt>
      <trkpt lat="47.37428" lon="0.71563">
        <ele>53.97</ele>
        <time>2015-08-15T15:45:26Z</time>
      </trkpt>
      <trkpt lat="47.3743" lon="0.71563">
        <ele>53.97</ele>
        <time>2015-08-15T15:45:27Z</time>
      </trkpt>
      <trkpt lat="47.37431" lon="0.71562">
        <ele>53.97</ele>
        <time>2015-08-15T15:45:28Z</time>
      </trkpt>
      <trkpt lat="47.37433" lon="0.71562">
        <ele>53.97</ele>
        <time>2015-08-15T15:45:29Z</time>
      </trkpt>
      <trkpt lat="47.37434" lon="0.71561">
        <ele>53.97</ele>
        <time>2015-08-15T15:45:51Z</time>
      </trkpt>
      <trkpt lat="47.37434" lon="0.71561">
        <ele>53.97</ele>
        <time>2015-08-15T15:46:21Z</time>
      </trkpt>
      <trkpt lat="47.37444" lon="0.71559">
        <ele>53.97</ele>
        <time>2015-08-15T15:46:35Z</time>
      </trkpt>
      <trkpt lat="47.37478" lon="0.71552">
        <ele>53.49</ele>
        <time>2015-08-15T15:46:51Z</time>
      </trkpt>
      <trkpt lat="47.3748" lon="0.71551">
        <ele>53.49</ele>
        <time>2015-08-15T15:46:52Z</time>
      </trkpt>
      <trkpt lat="47.37482" lon="0.7155">
        <ele>53.49</ele>
        <time>2015-08-15T15:46:53Z</time>
      </trkpt>
      <trkpt lat="47.37488" lon="0.7155">
        <ele>53.49</ele>
        <time>2015-08-15T15:46:59Z</time>
      </trkpt>
      <trkpt lat="47.3749" lon="0.71551">
        <ele>53.49</ele>
        <time>2015-08-15T15:47:00Z</time>
      </trkpt>
      <trkpt lat="47.37492" lon="0.71551">
        <ele>53.49</ele>
        <time>2015-08-15T15:47:01Z</time>
      </trkpt>
      <trkpt lat="47.37494" lon="0.71553">
        <ele>53.49</ele>
        <time>2015-08-15T15:47:02Z</time>
      </trkpt>
      <trkpt lat="47.37498" lon="0.71559">
        <ele>53.01</ele>
        <time>2015-08-15T15:47:05Z</time>
      </trkpt>
      <trkpt lat="47.37499" lon="0.71562">
        <ele>53.01</ele>
        <time>2015-08-15T15:47:06Z</time>
      </trkpt>
      <trkpt lat="47.375" lon="0.71564">
        <ele>53.01</ele>
        <time>2015-08-15T15:47:07Z</time>
      </trkpt>
      <trkpt lat="47.37501" lon="0.71567">
        <ele>53.01</ele>
        <time>2015-08-15T15:47:08Z</time>
      </trkpt>
      <trkpt lat="47.37503" lon="0.71569">
        <ele>53.01</ele>
        <time>2015-08-15T15:47:09Z</time>
      </trkpt>
      <trkpt lat="47.37504" lon="0.71571">
        <ele>53.01</ele>
        <time>2015-08-15T15:47:10Z</time>
      </trkpt>
      <trkpt lat="47.37506" lon="0.71573">
        <ele>53.01</ele>
        <time>2015-08-15T15:47:11Z</time>
      </trkpt>
      <trkpt lat="47.37507" lon="0.71575">
        <ele>53.01</ele>
        <time>2015-08-15T15:47:12Z</time>
      </trkpt>
      <trkpt lat="47.37507" lon="0.71578">
        <ele>53.01</ele>
        <time>2015-08-15T15:47:13Z</time>
      </trkpt>
      <trkpt lat="47.37505" lon="0.71603">
        <ele>53.01</ele>
        <time>2015-08-15T15:47:20Z</time>
      </trkpt>
      <trkpt lat="47.37505" lon="0.71606">
        <ele>53.01</ele>
        <time>2015-08-15T15:47:21Z</time>
      </trkpt>
      <trkpt lat="47.37505" lon="0.71609">
        <ele>53.01</ele>
        <time>2015-08-15T15:47:22Z</time>
      </trkpt>
      <trkpt lat="47.37505" lon="0.71612">
        <ele>52.53</ele>
        <time>2015-08-15T15:47:23Z</time>
      </trkpt>
      <trkpt lat="47.37504" lon="0.71615">
        <ele>52.53</ele>
        <time>2015-08-15T15:47:24Z</time>
      </trkpt>
      <trkpt lat="47.37503" lon="0.71618">
        <ele>52.53</ele>
        <time>2015-08-15T15:47:25Z</time>
      </trkpt>
      <trkpt lat="47.37502" lon="0.7162">
        <ele>52.53</ele>
        <time>2015-08-15T15:47:26Z</time>
      </trkpt>
      <trkpt lat="47.37502" lon="0.71622">
        <ele>52.53</ele>
        <time>2015-08-15T15:47:27Z</time>
      </trkpt>
      <trkpt lat="47.37502" lon="0.71623">
        <ele>52.53</ele>
        <time>2015-08-15T15:47:28Z</time>
      </trkpt>
      <trkpt lat="47.37501" lon="0.71625">
        <ele>52.53</ele>
        <time>2015-08-15T15:47:29Z</time>
      </trkpt>
      <trkpt lat="47.375" lon="0.71625">
        <ele>52.53</ele>
        <time>2015-08-15T15:47:33Z</time>
      </trkpt>
      <trkpt lat="47.3748" lon="0.71629">
        <ele>53.01</ele>
        <time>2015-08-15T15:47:47Z</time>
      </trkpt>
      <trkpt lat="47.37478" lon="0.71629">
        <ele>53.01</ele>
        <time>2015-08-15T15:47:48Z</time>
      </trkpt>
      <trkpt lat="47.37476" lon="0.7163">
        <ele>52.53</ele>
        <time>2015-08-15T15:47:49Z</time>
      </trkpt>
      <trkpt lat="47.37474" lon="0.71631">
        <ele>52.53</ele>
        <time>2015-08-15T15:47:50Z</time>
      </trkpt>
      <trkpt lat="47.37473" lon="0.71632">
        <ele>52.53</ele>
        <time>2015-08-15T15:47:51Z</time>
      </trkpt>
      <trkpt lat="47.37458" lon="0.71682">
        <ele>51.57</ele>
        <time>2015-08-15T15:48:05Z</time>
      </trkpt>
      <trkpt lat="47.37466" lon="0.71746">
        <ele>50.13</ele>
        <time>2015-08-15T15:48:20Z</time>
      </trkpt>
      <trkpt lat="47.37467" lon="0.7175">
        <ele>49.65</ele>
        <time>2015-08-15T15:48:21Z</time>
      </trkpt>
      <trkpt lat="47.37468" lon="0.71755">
        <ele>49.65</ele>
        <time>2015-08-15T15:48:22Z</time>
      </trkpt>
      <trkpt lat="47.37469" lon="0.7176">
        <ele>49.65</ele>
        <time>2015-08-15T15:48:23Z</time>
      </trkpt>
      <trkpt lat="47.3747" lon="0.71765">
        <ele>49.65</ele>
        <time>2015-08-15T15:48:24Z</time>
      </trkpt>
      <trkpt lat="47.37469" lon="0.71769">
        <ele>50.13</ele>
        <time>2015-08-15T15:48:25Z</time>
      </trkpt>
      <trkpt lat="47.37468" lon="0.71774">
        <ele>49.65</ele>
        <time>2015-08-15T15:48:26Z</time>
      </trkpt>
      <trkpt lat="47.37442" lon="0.71797">
        <ele>51.57</ele>
        <time>2015-08-15T15:48:36Z</time>
      </trkpt>
      <trkpt lat="47.3744" lon="0.718">
        <ele>51.09</ele>
        <time>2015-08-15T15:48:37Z</time>
      </trkpt>
      <trkpt lat="47.37433" lon="0.71797">
        <ele>51.57</ele>
        <time>2015-08-15T15:49:29Z</time>
      </trkpt>
      <trkpt lat="47.37426" lon="0.71835">
        <ele>52.05</ele>
        <time>2015-08-15T15:49:39Z</time>
      </trkpt>
      <trkpt lat="47.37426" lon="0.71909">
        <ele>52.05</ele>
        <time>2015-08-15T15:49:54Z</time>
      </trkpt>
      <trkpt lat="47.37428" lon="0.71993">
        <ele>52.05</ele>
        <time>2015-08-15T15:50:11Z</time>
      </trkpt>
      <trkpt lat="47.37429" lon="0.72046">
        <ele>52.05</ele>
        <time>2015-08-15T15:50:25Z</time>
      </trkpt>
      <trkpt lat="47.3743" lon="0.72048">
        <ele>52.53</ele>
        <time>2015-08-15T15:50:26Z</time>
      </trkpt>
      <trkpt lat="47.37429" lon="0.72051">
        <ele>51.57</ele>
        <time>2015-08-15T15:50:36Z</time>
      </trkpt>
      <trkpt lat="47.37429" lon="0.72054">
        <ele>51.57</ele>
        <time>2015-08-15T15:50:50Z</time>
      </trkpt>
      <trkpt lat="47.37429" lon="0.72056">
        <ele>51.57</ele>
        <time>2015-08-15T15:50:51Z</time>
      </trkpt>
      <trkpt lat="47.37429" lon="0.72058">
        <ele>52.05</ele>
        <time>2015-08-15T15:50:52Z</time>
      </trkpt>
      <trkpt lat="47.37429" lon="0.72061">
        <ele>51.57</ele>
        <time>2015-08-15T15:50:53Z</time>
      </trkpt>
      <trkpt lat="47.37428" lon="0.72071">
        <ele>51.57</ele>
        <time>2015-08-15T15:50:57Z</time>
      </trkpt>
      <trkpt lat="47.37428" lon="0.72074">
        <ele>51.57</ele>
        <time>2015-08-15T15:50:58Z</time>
      </trkpt>
      <trkpt lat="47.37427" lon="0.72077">
        <ele>51.57</ele>
        <time>2015-08-15T15:50:59Z</time>
      </trkpt>
      <trkpt lat="47.37426" lon="0.72079">
        <ele>51.57</ele>
        <time>2015-08-15T15:51:00Z</time>
      </trkpt>
      <trkpt lat="47.37425" lon="0.7208">
        <ele>51.57</ele>
        <time>2015-08-15T15:51:01Z</time>
      </trkpt>
      <trkpt lat="47.37424" lon="0.72081">
        <ele>51.57</ele>
        <time>2015-08-15T15:51:02Z</time>
      </trkpt>
      <trkpt lat="47.37423" lon="0.72082">
        <ele>51.57</ele>
        <time>2015-08-15T15:51:03Z</time>
      </trkpt>
      <trkpt lat="47.37422" lon="0.72084">
        <ele>51.57</ele>
        <time>2015-08-15T15:51:04Z</time>
      </trkpt>
      <trkpt lat="47.37421" lon="0.72085">
        <ele>51.57</ele>
        <time>2015-08-15T15:51:05Z</time>
      </trkpt>
      <trkpt lat="47.3742" lon="0.72086">
        <ele>51.57</ele>
        <time>2015-08-15T15:51:06Z</time>
      </trkpt>
      <trkpt lat="47.37419" lon="0.72087">
        <ele>51.09</ele>
        <time>2015-08-15T15:51:07Z</time>
      </trkpt>
      <trkpt lat="47.37418" lon="0.72089">
        <ele>51.09</ele>
        <time>2015-08-15T15:51:08Z</time>
      </trkpt>
      <trkpt lat="47.37417" lon="0.72105">
        <ele>49.65</ele>
        <time>2015-08-15T15:51:18Z</time>
      </trkpt>
      <trkpt lat="47.37416" lon="0.72107">
        <ele>49.65</ele>
        <time>2015-08-15T15:51:19Z</time>
      </trkpt>
      <trkpt lat="47.37415" lon="0.72108">
        <ele>49.65</ele>
        <time>2015-08-15T15:51:20Z</time>
      </trkpt>
      <trkpt lat="47.37415" lon="0.7211">
        <ele>49.16</ele>
        <time>2015-08-15T15:51:21Z</time>
      </trkpt>
      <trkpt lat="47.37414" lon="0.72111">
        <ele>49.16</ele>
        <time>2015-08-15T15:51:22Z</time>
      </trkpt>
      <trkpt lat="47.37413" lon="0.72113">
        <ele>49.16</ele>
        <time>2015-08-15T15:51:23Z</time>
      </trkpt>
      <trkpt lat="47.37412" lon="0.72115">
        <ele>48.68</ele>
        <time>2015-08-15T15:51:24Z</time>
      </trkpt>
      <trkpt lat="47.37412" lon="0.72116">
        <ele>48.68</ele>
        <time>2015-08-15T15:51:25Z</time>
      </trkpt>
      <trkpt lat="47.37411" lon="0.72117">
        <ele>48.68</ele>
        <time>2015-08-15T15:51:26Z</time>
      </trkpt>
      <trkpt lat="47.3741" lon="0.72119">
        <ele>48.68</ele>
        <time>2015-08-15T15:51:27Z</time>
      </trkpt>
      <trkpt lat="47.37409" lon="0.72122">
        <ele>48.68</ele>
        <time>2015-08-15T15:51:29Z</time>
      </trkpt>
      <trkpt lat="47.37409" lon="0.72124">
        <ele>48.68</ele>
        <time>2015-08-15T15:51:30Z</time>
      </trkpt>
      <trkpt lat="47.37409" lon="0.72126">
        <ele>50.13</ele>
        <time>2015-08-15T15:51:41Z</time>
      </trkpt>
      <trkpt lat="47.37409" lon="0.72126">
        <ele>46.76</ele>
        <time>2015-08-15T15:51:42Z</time>
      </trkpt>
      <trkpt lat="47.37409" lon="0.72126">
        <ele>50.61</ele>
        <time>2015-08-15T15:51:43Z</time>
      </trkpt>
      <trkpt lat="47.37409" lon="0.72126">
        <ele>47.24</ele>
        <time>2015-08-15T15:51:59Z</time>
      </trkpt>
      <trkpt lat="47.37408" lon="0.72125">
        <ele>48.2</ele>
        <time>2015-08-15T15:52:28Z</time>
      </trkpt>
      <trkpt lat="47.37408" lon="0.72125">
        <ele>48.68</ele>
        <time>2015-08-15T15:53:01Z</time>
      </trkpt>
      <trkpt lat="47.37409" lon="0.72125">
        <ele>48.2</ele>
        <time>2015-08-15T15:53:21Z</time>
      </trkpt>
      <trkpt lat="47.37401" lon="0.72163">
        <ele>48.2</ele>
        <time>2015-08-15T15:53:32Z</time>
      </trkpt>
      <trkpt lat="47.37397" lon="0.7223">
        <ele>48.2</ele>
        <time>2015-08-15T15:53:45Z</time>
      </trkpt>
      <trkpt lat="47.37389" lon="0.72306">
        <ele>48.2</ele>
        <time>2015-08-15T15:53:59Z</time>
      </trkpt>
      <trkpt lat="47.37381" lon="0.72371">
        <ele>48.2</ele>
        <time>2015-08-15T15:54:12Z</time>
      </trkpt>
      <trkpt lat="47.3737" lon="0.72447">
        <ele>48.2</ele>
        <time>2015-08-15T15:54:29Z</time>
      </trkpt>
      <trkpt lat="47.37363" lon="0.72499">
        <ele>48.2</ele>
        <time>2015-08-15T15:54:42Z</time>
      </trkpt>
      <trkpt lat="47.37351" lon="0.72578">
        <ele>48.2</ele>
        <time>2015-08-15T15:54:58Z</time>
      </trkpt>
      <trkpt lat="47.37344" lon="0.72632">
        <ele>48.2</ele>
        <time>2015-08-15T15:55:08Z</time>
      </trkpt>
      <trkpt lat="47.37329" lon="0.72702">
        <ele>48.2</ele>
        <time>2015-08-15T15:55:23Z</time>
      </trkpt>
      <trkpt lat="47.37312" lon="0.72782">
        <ele>48.68</ele>
        <time>2015-08-15T15:55:39Z</time>
      </trkpt>
      <trkpt lat="47.37303" lon="0.72844">
        <ele>48.2</ele>
        <time>2015-08-15T15:55:53Z</time>
      </trkpt>
      <trkpt lat="47.37289" lon="0.72919">
        <ele>48.2</ele>
        <time>2015-08-15T15:56:08Z</time>
      </trkpt>
      <trkpt lat="47.37273" lon="0.72987">
        <ele>48.2</ele>
        <time>2015-08-15T15:56:22Z</time>
      </trkpt>
      <trkpt lat="47.37256" lon="0.73076">
        <ele>48.2</ele>
        <time>2015-08-15T15:56:39Z</time>
      </trkpt>
      <trkpt lat="47.37238" lon="0.73151">
        <ele>48.2</ele>
        <time>2015-08-15T15:56:54Z</time>
      </trkpt>
      <trkpt lat="47.37237" lon="0.73156">
        <ele>48.2</ele>
        <time>2015-08-15T15:56:55Z</time>
      </trkpt>
      <trkpt lat="47.37215" lon="0.73245">
        <ele>48.68</ele>
        <time>2015-08-15T15:57:12Z</time>
      </trkpt>
      <trkpt lat="47.37191" lon="0.73342">
        <ele>48.2</ele>
        <time>2015-08-15T15:57:30Z</time>
      </trkpt>
      <trkpt lat="47.37167" lon="0.73447">
        <ele>48.2</ele>
        <time>2015-08-15T15:57:48Z</time>
      </trkpt>
      <trkpt lat="47.37149" lon="0.73539">
        <ele>48.68</ele>
        <time>2015-08-15T15:58:04Z</time>
      </trkpt>
      <trkpt lat="47.37149" lon="0.73545">
        <ele>48.68</ele>
        <time>2015-08-15T15:58:05Z</time>
      </trkpt>
      <trkpt lat="47.37148" lon="0.7355">
        <ele>48.68</ele>
        <time>2015-08-15T15:58:06Z</time>
      </trkpt>
      <trkpt lat="47.37147" lon="0.73556">
        <ele>48.2</ele>
        <time>2015-08-15T15:58:07Z</time>
      </trkpt>
      <trkpt lat="47.37147" lon="0.73562">
        <ele>48.2</ele>
        <time>2015-08-15T15:58:08Z</time>
      </trkpt>
      <trkpt lat="47.37145" lon="0.73567">
        <ele>48.2</ele>
        <time>2015-08-15T15:58:09Z</time>
      </trkpt>
      <trkpt lat="47.37144" lon="0.73573">
        <ele>48.68</ele>
        <time>2015-08-15T15:58:10Z</time>
      </trkpt>
      <trkpt lat="47.37143" lon="0.73578">
        <ele>48.68</ele>
        <time>2015-08-15T15:58:11Z</time>
      </trkpt>
      <trkpt lat="47.37137" lon="0.73614">
        <ele>48.68</ele>
        <time>2015-08-15T15:58:18Z</time>
      </trkpt>
      <trkpt lat="47.37126" lon="0.73681">
        <ele>48.68</ele>
        <time>2015-08-15T15:58:30Z</time>
      </trkpt>
      <trkpt lat="47.37118" lon="0.73745">
        <ele>48.68</ele>
        <time>2015-08-15T15:58:45Z</time>
      </trkpt>
      <trkpt lat="47.37114" lon="0.73796">
        <ele>48.68</ele>
        <time>2015-08-15T15:58:59Z</time>
      </trkpt>
      <trkpt lat="47.37113" lon="0.73799">
        <ele>48.68</ele>
        <time>2015-08-15T15:59:00Z</time>
      </trkpt>
      <trkpt lat="47.37113" lon="0.73802">
        <ele>48.68</ele>
        <time>2015-08-15T15:59:01Z</time>
      </trkpt>
      <trkpt lat="47.37111" lon="0.7381">
        <ele>48.68</ele>
        <time>2015-08-15T15:59:05Z</time>
      </trkpt>
      <trkpt lat="47.37111" lon="0.73811">
        <ele>48.68</ele>
        <time>2015-08-15T15:59:29Z</time>
      </trkpt>
      <trkpt lat="47.3711" lon="0.73813">
        <ele>48.68</ele>
        <time>2015-08-15T15:59:48Z</time>
      </trkpt>
      <trkpt lat="47.37111" lon="0.73814">
        <ele>48.68</ele>
        <time>2015-08-15T16:00:20Z</time>
      </trkpt>
      <trkpt lat="47.37112" lon="0.73814">
        <ele>48.68</ele>
        <time>2015-08-15T16:00:48Z</time>
      </trkpt>
      <trkpt lat="47.37112" lon="0.73814">
        <ele>48.68</ele>
        <time>2015-08-15T16:01:22Z</time>
      </trkpt>
      <trkpt lat="47.37111" lon="0.73814">
        <ele>48.68</ele>
        <time>2015-08-15T16:01:38Z</time>
      </trkpt>
      <trkpt lat="47.3711" lon="0.73817">
        <ele>48.68</ele>
        <time>2015-08-15T16:01:53Z</time>
      </trkpt>
      <trkpt lat="47.37105" lon="0.73859">
        <ele>48.68</ele>
        <time>2015-08-15T16:02:05Z</time>
      </trkpt>
      <trkpt lat="47.37091" lon="0.73913">
        <ele>48.2</ele>
        <time>2015-08-15T16:02:19Z</time>
      </trkpt>
      <trkpt lat="47.37085" lon="0.7396">
        <ele>49.65</ele>
        <time>2015-08-15T16:02:30Z</time>
      </trkpt>
      <trkpt lat="47.3708" lon="0.74027">
        <ele>48.2</ele>
        <time>2015-08-15T16:02:45Z</time>
      </trkpt>
      <trkpt lat="47.37078" lon="0.7409">
        <ele>48.68</ele>
        <time>2015-08-15T16:02:57Z</time>
      </trkpt>
      <trkpt lat="47.37091" lon="0.74172">
        <ele>48.68</ele>
        <time>2015-08-15T16:03:12Z</time>
      </trkpt>
      <trkpt lat="47.3711" lon="0.74245">
        <ele>48.68</ele>
        <time>2015-08-15T16:03:26Z</time>
      </trkpt>
      <trkpt lat="47.37134" lon="0.74293">
        <ele>49.16</ele>
        <time>2015-08-15T16:03:38Z</time>
      </trkpt>
      <trkpt lat="47.37171" lon="0.74348">
        <ele>48.68</ele>
        <time>2015-08-15T16:03:54Z</time>
      </trkpt>
      <trkpt lat="47.37207" lon="0.74377">
        <ele>48.68</ele>
        <time>2015-08-15T16:04:07Z</time>
      </trkpt>
      <trkpt lat="47.37249" lon="0.74414">
        <ele>48.68</ele>
        <time>2015-08-15T16:04:21Z</time>
      </trkpt>
      <trkpt lat="47.37311" lon="0.74481">
        <ele>48.68</ele>
        <time>2015-08-15T16:04:41Z</time>
      </trkpt>
      <trkpt lat="47.3736" lon="0.74535">
        <ele>48.68</ele>
        <time>2015-08-15T16:04:57Z</time>
      </trkpt>
      <trkpt lat="47.37394" lon="0.7458">
        <ele>48.68</ele>
        <time>2015-08-15T16:05:11Z</time>
      </trkpt>
      <trkpt lat="47.37432" lon="0.74639">
        <ele>48.2</ele>
        <time>2015-08-15T16:05:28Z</time>
      </trkpt>
      <trkpt lat="47.37459" lon="0.74691">
        <ele>48.2</ele>
        <time>2015-08-15T16:05:43Z</time>
      </trkpt>
      <trkpt lat="47.37469" lon="0.74714">
        <ele>48.2</ele>
        <time>2015-08-15T16:05:55Z</time>
      </trkpt>
      <trkpt lat="47.37469" lon="0.74714">
        <ele>48.2</ele>
        <time>2015-08-15T16:06:18Z</time>
      </trkpt>
      <trkpt lat="47.37474" lon="0.74725">
        <ele>48.2</ele>
        <time>2015-08-15T16:06:33Z</time>
      </trkpt>
      <trkpt lat="47.37489" lon="0.74758">
        <ele>48.68</ele>
        <time>2015-08-15T16:06:47Z</time>
      </trkpt>
      <trkpt lat="47.37499" lon="0.74785">
        <ele>48.68</ele>
        <time>2015-08-15T16:06:55Z</time>
      </trkpt>
      <trkpt lat="47.37515" lon="0.74834">
        <ele>48.68</ele>
        <time>2015-08-15T16:07:09Z</time>
      </trkpt>
      <trkpt lat="47.37516" lon="0.74837">
        <ele>48.68</ele>
        <time>2015-08-15T16:07:10Z</time>
      </trkpt>
      <trkpt lat="47.37517" lon="0.7484">
        <ele>48.2</ele>
        <time>2015-08-15T16:07:11Z</time>
      </trkpt>
      <trkpt lat="47.37517" lon="0.74843">
        <ele>48.68</ele>
        <time>2015-08-15T16:07:12Z</time>
      </trkpt>
      <trkpt lat="47.37518" lon="0.74845">
        <ele>48.2</ele>
        <time>2015-08-15T16:07:13Z</time>
      </trkpt>
      <trkpt lat="47.37519" lon="0.74848">
        <ele>48.68</ele>
        <time>2015-08-15T16:07:14Z</time>
      </trkpt>
      <trkpt lat="47.3752" lon="0.74851">
        <ele>48.68</ele>
        <time>2015-08-15T16:07:15Z</time>
      </trkpt>
      <trkpt lat="47.3752" lon="0.74854">
        <ele>48.2</ele>
        <time>2015-08-15T16:07:16Z</time>
      </trkpt>
      <trkpt lat="47.37536" lon="0.74912">
        <ele>48.68</ele>
        <time>2015-08-15T16:07:32Z</time>
      </trkpt>
      <trkpt lat="47.3755" lon="0.74966">
        <ele>48.2</ele>
        <time>2015-08-15T16:07:45Z</time>
      </trkpt>
      <trkpt lat="47.37557" lon="0.75035">
        <ele>48.2</ele>
        <time>2015-08-15T16:07:59Z</time>
      </trkpt>
      <trkpt lat="47.3756" lon="0.75125">
        <ele>48.68</ele>
        <time>2015-08-15T16:08:15Z</time>
      </trkpt>
      <trkpt lat="47.37552" lon="0.75231">
        <ele>49.65</ele>
        <time>2015-08-15T16:08:33Z</time>
      </trkpt>
      <trkpt lat="47.37542" lon="0.75325">
        <ele>48.68</ele>
        <time>2015-08-15T16:08:50Z</time>
      </trkpt>
      <trkpt lat="47.37523" lon="0.75405">
        <ele>48.68</ele>
        <time>2015-08-15T16:09:06Z</time>
      </trkpt>
      <trkpt lat="47.37502" lon="0.75455">
        <ele>48.68</ele>
        <time>2015-08-15T16:09:19Z</time>
      </trkpt>
      <trkpt lat="47.37477" lon="0.75508">
        <ele>48.68</ele>
        <time>2015-08-15T16:09:32Z</time>
      </trkpt>
      <trkpt lat="47.37445" lon="0.75576">
        <ele>48.68</ele>
        <time>2015-08-15T16:09:47Z</time>
      </trkpt>
      <trkpt lat="47.37398" lon="0.75628">
        <ele>48.2</ele>
        <time>2015-08-15T16:10:03Z</time>
      </trkpt>
      <trkpt lat="47.37366" lon="0.75683">
        <ele>48.68</ele>
        <time>2015-08-15T16:10:17Z</time>
      </trkpt>
      <trkpt lat="47.37344" lon="0.75734">
        <ele>48.68</ele>
        <time>2015-08-15T16:10:29Z</time>
      </trkpt>
      <trkpt lat="47.37318" lon="0.75798">
        <ele>48.68</ele>
        <time>2015-08-15T16:10:44Z</time>
      </trkpt>
      <trkpt lat="47.37294" lon="0.75857">
        <ele>48.2</ele>
        <time>2015-08-15T16:10:58Z</time>
      </trkpt>
      <trkpt lat="47.37271" lon="0.7591">
        <ele>48.68</ele>
        <time>2015-08-15T16:11:10Z</time>
      </trkpt>
      <trkpt lat="47.37239" lon="0.75987">
        <ele>48.2</ele>
        <time>2015-08-15T16:11:27Z</time>
      </trkpt>
      <trkpt lat="47.37219" lon="0.76026">
        <ele>48.2</ele>
        <time>2015-08-15T16:11:37Z</time>
      </trkpt>
      <trkpt lat="47.37204" lon="0.76061">
        <ele>48.2</ele>
        <time>2015-08-15T16:11:49Z</time>
      </trkpt>
      <trkpt lat="47.37202" lon="0.76062">
        <ele>48.2</ele>
        <time>2015-08-15T16:12:17Z</time>
      </trkpt>
      <trkpt lat="47.37203" lon="0.76064">
        <ele>48.2</ele>
        <time>2015-08-15T16:12:34Z</time>
      </trkpt>
      <trkpt lat="47.37184" lon="0.76101">
        <ele>48.2</ele>
        <time>2015-08-15T16:12:47Z</time>
      </trkpt>
      <trkpt lat="47.37162" lon="0.76153">
        <ele>48.68</ele>
        <time>2015-08-15T16:13:00Z</time>
      </trkpt>
      <trkpt lat="47.37144" lon="0.76191">
        <ele>48.2</ele>
        <time>2015-08-15T16:13:11Z</time>
      </trkpt>
      <trkpt lat="47.37116" lon="0.76248">
        <ele>48.68</ele>
        <time>2015-08-15T16:13:26Z</time>
      </trkpt>
      <trkpt lat="47.37102" lon="0.76292">
        <ele>48.68</ele>
        <time>2015-08-15T16:13:37Z</time>
      </trkpt>
      <trkpt lat="47.37087" lon="0.7634">
        <ele>48.68</ele>
        <time>2015-08-15T16:13:50Z</time>
      </trkpt>
      <trkpt lat="47.37065" lon="0.76398">
        <ele>48.68</ele>
        <time>2015-08-15T16:14:04Z</time>
      </trkpt>
      <trkpt lat="47.37061" lon="0.76444">
        <ele>48.68</ele>
        <time>2015-08-15T16:14:14Z</time>
      </trkpt>
      <trkpt lat="47.37065" lon="0.76496">
        <ele>49.16</ele>
        <time>2015-08-15T16:14:25Z</time>
      </trkpt>
      <trkpt lat="47.37073" lon="0.76565">
        <ele>48.68</ele>
        <time>2015-08-15T16:14:39Z</time>
      </trkpt>
      <trkpt lat="47.3709" lon="0.76653">
        <ele>48.68</ele>
        <time>2015-08-15T16:14:58Z</time>
      </trkpt>
      <trkpt lat="47.37102" lon="0.76712">
        <ele>48.68</ele>
        <time>2015-08-15T16:15:11Z</time>
      </trkpt>
      <trkpt lat="47.37116" lon="0.76778">
        <ele>48.68</ele>
        <time>2015-08-15T16:15:26Z</time>
      </trkpt>
      <trkpt lat="47.37132" lon="0.76854">
        <ele>48.68</ele>
        <time>2015-08-15T16:15:42Z</time>
      </trkpt>
      <trkpt lat="47.37143" lon="0.76924">
        <ele>48.68</ele>
        <time>2015-08-15T16:15:57Z</time>
      </trkpt>
      <trkpt lat="47.37151" lon="0.76997">
        <ele>48.68</ele>
        <time>2015-08-15T16:16:12Z</time>
      </trkpt>
      <trkpt lat="47.37147" lon="0.77065">
        <ele>49.16</ele>
        <time>2015-08-15T16:16:26Z</time>
      </trkpt>
      <trkpt lat="47.37159" lon="0.77148">
        <ele>48.68</ele>
        <time>2015-08-15T16:16:44Z</time>
      </trkpt>
      <trkpt lat="47.37166" lon="0.77204">
        <ele>49.16</ele>
        <time>2015-08-15T16:16:56Z</time>
      </trkpt>
      <trkpt lat="47.3717" lon="0.77278">
        <ele>49.16</ele>
        <time>2015-08-15T16:17:11Z</time>
      </trkpt>
      <trkpt lat="47.37157" lon="0.77347">
        <ele>48.68</ele>
        <time>2015-08-15T16:17:27Z</time>
      </trkpt>
      <trkpt lat="47.37137" lon="0.77407">
        <ele>48.68</ele>
        <time>2015-08-15T16:17:42Z</time>
      </trkpt>
      <trkpt lat="47.37115" lon="0.77413">
        <ele>48.68</ele>
        <time>2015-08-15T16:17:53Z</time>
      </trkpt>
      <trkpt lat="47.37114" lon="0.77417">
        <ele>49.16</ele>
        <time>2015-08-15T16:17:56Z</time>
      </trkpt>
      <trkpt lat="47.37112" lon="0.77419">
        <ele>49.16</ele>
        <time>2015-08-15T16:18:03Z</time>
      </trkpt>
      <trkpt lat="47.37111" lon="0.77419">
        <ele>49.16</ele>
        <time>2015-08-15T16:18:35Z</time>
      </trkpt>
      <trkpt lat="47.37111" lon="0.77418">
        <ele>48.68</ele>
        <time>2015-08-15T16:19:12Z</time>
      </trkpt>
      <trkpt lat="47.37111" lon="0.77419">
        <ele>48.68</ele>
        <time>2015-08-15T16:19:50Z</time>
      </trkpt>
      <trkpt lat="47.37112" lon="0.7742">
        <ele>48.68</ele>
        <time>2015-08-15T16:20:28Z</time>
      </trkpt>
      <trkpt lat="47.37111" lon="0.77421">
        <ele>48.68</ele>
        <time>2015-08-15T16:21:03Z</time>
      </trkpt>
      <trkpt lat="47.37111" lon="0.77421">
        <ele>48.2</ele>
        <time>2015-08-15T16:21:34Z</time>
      </trkpt>
      <trkpt lat="47.3711" lon="0.77421">
        <ele>48.68</ele>
        <time>2015-08-15T16:21:53Z</time>
      </trkpt>
      <trkpt lat="47.37115" lon="0.77398">
        <ele>48.68</ele>
        <time>2015-08-15T16:22:03Z</time>
      </trkpt>
      <trkpt lat="47.37119" lon="0.77335">
        <ele>48.68</ele>
        <time>2015-08-15T16:22:19Z</time>
      </trkpt>
      <trkpt lat="47.37121" lon="0.77325">
        <ele>48.68</ele>
        <time>2015-08-15T16:22:24Z</time>
      </trkpt>
      <trkpt lat="47.37119" lon="0.77323">
        <ele>48.68</ele>
        <time>2015-08-15T16:22:27Z</time>
      </trkpt>
      <trkpt lat="47.37116" lon="0.7735">
        <ele>48.68</ele>
        <time>2015-08-15T16:22:39Z</time>
      </trkpt>
      <trkpt lat="47.37113" lon="0.77411">
        <ele>48.68</ele>
        <time>2015-08-15T16:22:55Z</time>
      </trkpt>
      <trkpt lat="47.37106" lon="0.7748">
        <ele>48.68</ele>
        <time>2015-08-15T16:23:10Z</time>
      </trkpt>
      <trkpt lat="47.37099" lon="0.77539">
        <ele>48.2</ele>
        <time>2015-08-15T16:23:24Z</time>
      </trkpt>
      <trkpt lat="47.37097" lon="0.77585">
        <ele>48.68</ele>
        <time>2015-08-15T16:23:34Z</time>
      </trkpt>
      <trkpt lat="47.37093" lon="0.7763">
        <ele>48.68</ele>
        <time>2015-08-15T16:23:44Z</time>
      </trkpt>
      <trkpt lat="47.37088" lon="0.77687">
        <ele>48.2</ele>
        <time>2015-08-15T16:23:57Z</time>
      </trkpt>
      <trkpt lat="47.37092" lon="0.77752">
        <ele>48.68</ele>
        <time>2015-08-15T16:24:11Z</time>
      </trkpt>
      <trkpt lat="47.37088" lon="0.77808">
        <ele>48.68</ele>
        <time>2015-08-15T16:24:23Z</time>
      </trkpt>
      <trkpt lat="47.37086" lon="0.7788">
        <ele>48.2</ele>
        <time>2015-08-15T16:24:39Z</time>
      </trkpt>
      <trkpt lat="47.37087" lon="0.77895">
        <ele>48.68</ele>
        <time>2015-08-15T16:24:43Z</time>
      </trkpt>
      <trkpt lat="47.37087" lon="0.77908">
        <ele>48.68</ele>
        <time>2015-08-15T16:24:46Z</time>
      </trkpt>
      <trkpt lat="47.37081" lon="0.77965">
        <ele>48.68</ele>
        <time>2015-08-15T16:24:59Z</time>
      </trkpt>
      <trkpt lat="47.37071" lon="0.78039">
        <ele>48.68</ele>
        <time>2015-08-15T16:25:15Z</time>
      </trkpt>
      <trkpt lat="47.37063" lon="0.78111">
        <ele>49.16</ele>
        <time>2015-08-15T16:25:30Z</time>
      </trkpt>
      <trkpt lat="47.37053" lon="0.78171">
        <ele>48.68</ele>
        <time>2015-08-15T16:25:44Z</time>
      </trkpt>
      <trkpt lat="47.37043" lon="0.78229">
        <ele>48.68</ele>
        <time>2015-08-15T16:25:57Z</time>
      </trkpt>
      <trkpt lat="47.37031" lon="0.7829">
        <ele>48.68</ele>
        <time>2015-08-15T16:26:11Z</time>
      </trkpt>
      <trkpt lat="47.37028" lon="0.78303">
        <ele>48.68</ele>
        <time>2015-08-15T16:26:15Z</time>
      </trkpt>
      <trkpt lat="47.37017" lon="0.78364">
        <ele>48.68</ele>
        <time>2015-08-15T16:26:27Z</time>
      </trkpt>
      <trkpt lat="47.37" lon="0.78432">
        <ele>48.68</ele>
        <time>2015-08-15T16:26:41Z</time>
      </trkpt>
      <trkpt lat="47.36988" lon="0.7849">
        <ele>49.16</ele>
        <time>2015-08-15T16:26:54Z</time>
      </trkpt>
      <trkpt lat="47.36972" lon="0.78536">
        <ele>49.16</ele>
        <time>2015-08-15T16:27:05Z</time>
      </trkpt>
      <trkpt lat="47.36964" lon="0.78599">
        <ele>49.16</ele>
        <time>2015-08-15T16:27:18Z</time>
      </trkpt>
      <trkpt lat="47.36961" lon="0.78676">
        <ele>49.16</ele>
        <time>2015-08-15T16:27:33Z</time>
      </trkpt>
      <trkpt lat="47.36956" lon="0.78728">
        <ele>49.16</ele>
        <time>2015-08-15T16:27:45Z</time>
      </trkpt>
      <trkpt lat="47.36952" lon="0.78779">
        <ele>49.16</ele>
        <time>2015-08-15T16:27:57Z</time>
      </trkpt>
      <trkpt lat="47.36945" lon="0.78831">
        <ele>49.16</ele>
        <time>2015-08-15T16:28:14Z</time>
      </trkpt>
      <trkpt lat="47.36939" lon="0.78858">
        <ele>48.68</ele>
        <time>2015-08-15T16:28:23Z</time>
      </trkpt>
      <trkpt lat="47.36935" lon="0.78868">
        <ele>49.16</ele>
        <time>2015-08-15T16:28:27Z</time>
      </trkpt>
      <trkpt lat="47.36932" lon="0.78877">
        <ele>49.16</ele>
        <time>2015-08-15T16:28:31Z</time>
      </trkpt>
      <trkpt lat="47.36932" lon="0.78876">
        <ele>49.16</ele>
        <time>2015-08-15T16:28:36Z</time>
      </trkpt>
      <trkpt lat="47.36929" lon="0.78898">
        <ele>49.16</ele>
        <time>2015-08-15T16:28:48Z</time>
      </trkpt>
      <trkpt lat="47.36924" lon="0.78953">
        <ele>48.68</ele>
        <time>2015-08-15T16:29:03Z</time>
      </trkpt>
      <trkpt lat="47.36917" lon="0.78986">
        <ele>49.16</ele>
        <time>2015-08-15T16:29:11Z</time>
      </trkpt>
      <trkpt lat="47.36913" lon="0.79029">
        <ele>49.16</ele>
        <time>2015-08-15T16:29:22Z</time>
      </trkpt>
      <trkpt lat="47.3691" lon="0.79048">
        <ele>49.16</ele>
        <time>2015-08-15T16:29:27Z</time>
      </trkpt>
      <trkpt lat="47.36905" lon="0.79099">
        <ele>49.16</ele>
        <time>2015-08-15T16:29:41Z</time>
      </trkpt>
      <trkpt lat="47.36901" lon="0.79135">
        <ele>49.16</ele>
        <time>2015-08-15T16:29:51Z</time>
      </trkpt>
      <trkpt lat="47.36897" lon="0.7918">
        <ele>49.16</ele>
        <time>2015-08-15T16:30:05Z</time>
      </trkpt>
      <trkpt lat="47.36896" lon="0.79196">
        <ele>49.16</ele>
        <time>2015-08-15T16:30:16Z</time>
      </trkpt>
      <trkpt lat="47.36895" lon="0.79196">
        <ele>49.16</ele>
        <time>2015-08-15T16:30:45Z</time>
      </trkpt>
      <trkpt lat="47.36893" lon="0.79216">
        <ele>49.16</ele>
        <time>2015-08-15T16:30:56Z</time>
      </trkpt>
      <trkpt lat="47.36885" lon="0.79257">
        <ele>49.16</ele>
        <time>2015-08-15T16:31:08Z</time>
      </trkpt>
      <trkpt lat="47.36878" lon="0.79306">
        <ele>49.65</ele>
        <time>2015-08-15T16:31:21Z</time>
      </trkpt>
      <trkpt lat="47.36868" lon="0.79355">
        <ele>49.16</ele>
        <time>2015-08-15T16:31:34Z</time>
      </trkpt>
      <trkpt lat="47.36857" lon="0.79399">
        <ele>49.65</ele>
        <time>2015-08-15T16:31:47Z</time>
      </trkpt>
      <trkpt lat="47.36847" lon="0.79435">
        <ele>49.16</ele>
        <time>2015-08-15T16:31:58Z</time>
      </trkpt>
      <trkpt lat="47.36832" lon="0.79476">
        <ele>49.16</ele>
        <time>2015-08-15T16:32:10Z</time>
      </trkpt>
      <trkpt lat="47.36816" lon="0.79528">
        <ele>49.16</ele>
        <time>2015-08-15T16:32:22Z</time>
      </trkpt>
      <trkpt lat="47.36805" lon="0.79571">
        <ele>49.16</ele>
        <time>2015-08-15T16:32:32Z</time>
      </trkpt>
      <trkpt lat="47.36785" lon="0.79629">
        <ele>49.16</ele>
        <time>2015-08-15T16:32:45Z</time>
      </trkpt>
      <trkpt lat="47.36767" lon="0.79689">
        <ele>49.65</ele>
        <time>2015-08-15T16:32:59Z</time>
      </trkpt>
      <trkpt lat="47.36749" lon="0.79738">
        <ele>49.65</ele>
        <time>2015-08-15T16:33:11Z</time>
      </trkpt>
      <trkpt lat="47.36729" lon="0.79787">
        <ele>49.16</ele>
        <time>2015-08-15T16:33:23Z</time>
      </trkpt>
      <trkpt lat="47.36697" lon="0.79838">
        <ele>49.16</ele>
        <time>2015-08-15T16:33:38Z</time>
      </trkpt>
      <trkpt lat="47.36676" lon="0.79872">
        <ele>49.16</ele>
        <time>2015-08-15T16:33:49Z</time>
      </trkpt>
      <trkpt lat="47.36649" lon="0.79922">
        <ele>49.16</ele>
        <time>2015-08-15T16:34:02Z</time>
      </trkpt>
      <trkpt lat="47.36623" lon="0.79963">
        <ele>49.16</ele>
        <time>2015-08-15T16:34:14Z</time>
      </trkpt>
      <trkpt lat="47.36602" lon="0.79998">
        <ele>49.16</ele>
        <time>2015-08-15T16:34:25Z</time>
      </trkpt>
      <trkpt lat="47.36579" lon="0.80035">
        <ele>49.16</ele>
        <time>2015-08-15T16:34:37Z</time>
      </trkpt>
      <trkpt lat="47.3656" lon="0.80066">
        <ele>49.16</ele>
        <time>2015-08-15T16:34:48Z</time>
      </trkpt>
      <trkpt lat="47.36538" lon="0.80091">
        <ele>49.16</ele>
        <time>2015-08-15T16:34:59Z</time>
      </trkpt>
      <trkpt lat="47.3651" lon="0.80121">
        <ele>49.16</ele>
        <time>2015-08-15T16:35:13Z</time>
      </trkpt>
      <trkpt lat="47.36483" lon="0.80156">
        <ele>49.16</ele>
        <time>2015-08-15T16:35:24Z</time>
      </trkpt>
      <trkpt lat="47.36461" lon="0.80183">
        <ele>49.16</ele>
        <time>2015-08-15T16:35:35Z</time>
      </trkpt>
      <trkpt lat="47.36442" lon="0.80213">
        <ele>49.16</ele>
        <time>2015-08-15T16:35:50Z</time>
      </trkpt>
      <trkpt lat="47.36441" lon="0.80214">
        <ele>49.16</ele>
        <time>2015-08-15T16:35:53Z</time>
      </trkpt>
      <trkpt lat="47.36439" lon="0.8022">
        <ele>49.16</ele>
        <time>2015-08-15T16:36:11Z</time>
      </trkpt>
      <trkpt lat="47.36439" lon="0.80221">
        <ele>49.16</ele>
        <time>2015-08-15T16:36:48Z</time>
      </trkpt>
      <trkpt lat="47.36438" lon="0.80222">
        <ele>49.16</ele>
        <time>2015-08-15T16:37:25Z</time>
      </trkpt>
      <trkpt lat="47.36438" lon="0.80222">
        <ele>49.16</ele>
        <time>2015-08-15T16:38:04Z</time>
      </trkpt>
      <trkpt lat="47.36439" lon="0.8022">
        <ele>49.16</ele>
        <time>2015-08-15T16:38:46Z</time>
      </trkpt>
      <trkpt lat="47.36439" lon="0.80219">
        <ele>49.16</ele>
        <time>2015-08-15T16:39:26Z</time>
      </trkpt>
      <trkpt lat="47.36438" lon="0.80219">
        <ele>49.16</ele>
        <time>2015-08-15T16:40:04Z</time>
      </trkpt>
      <trkpt lat="47.36439" lon="0.80219">
        <ele>49.16</ele>
        <time>2015-08-15T16:40:45Z</time>
      </trkpt>
      <trkpt lat="47.36439" lon="0.8022">
        <ele>48.68</ele>
        <time>2015-08-15T16:41:23Z</time>
      </trkpt>
      <trkpt lat="47.36438" lon="0.8022">
        <ele>49.16</ele>
        <time>2015-08-15T16:41:56Z</time>
      </trkpt>
      <trkpt lat="47.36435" lon="0.8022">
        <ele>49.16</ele>
        <time>2015-08-15T16:42:15Z</time>
      </trkpt>
      <trkpt lat="47.36435" lon="0.8022">
        <ele>48.68</ele>
        <time>2015-08-15T16:42:56Z</time>
      </trkpt>
      <trkpt lat="47.36435" lon="0.80221">
        <ele>48.68</ele>
        <time>2015-08-15T16:43:30Z</time>
      </trkpt>
      <trkpt lat="47.36434" lon="0.80222">
        <ele>48.68</ele>
        <time>2015-08-15T16:44:08Z</time>
      </trkpt>
      <trkpt lat="47.36434" lon="0.80222">
        <ele>48.68</ele>
        <time>2015-08-15T16:44:46Z</time>
      </trkpt>
      <trkpt lat="47.36434" lon="0.80222">
        <ele>48.68</ele>
        <time>2015-08-15T16:45:18Z</time>
      </trkpt>
      <trkpt lat="47.36432" lon="0.80223">
        <ele>48.68</ele>
        <time>2015-08-15T16:45:31Z</time>
      </trkpt>
      <trkpt lat="47.36429" lon="0.80227">
        <ele>48.68</ele>
        <time>2015-08-15T16:45:38Z</time>
      </trkpt>
      <trkpt lat="47.36429" lon="0.80225">
        <ele>48.68</ele>
        <time>2015-08-15T16:45:39Z</time>
      </trkpt>
      <trkpt lat="47.36433" lon="0.80222">
        <ele>48.68</ele>
        <time>2015-08-15T16:45:42Z</time>
      </trkpt>
      <trkpt lat="47.36447" lon="0.80202">
        <ele>48.68</ele>
        <time>2015-08-15T16:45:54Z</time>
      </trkpt>
      <trkpt lat="47.36447" lon="0.80201">
        <ele>48.68</ele>
        <time>2015-08-15T16:45:58Z</time>
      </trkpt>
      <trkpt lat="47.36448" lon="0.80201">
        <ele>48.68</ele>
        <time>2015-08-15T16:46:08Z</time>
      </trkpt>
      <trkpt lat="47.36442" lon="0.80208">
        <ele>48.68</ele>
        <time>2015-08-15T16:46:13Z</time>
      </trkpt>
      <trkpt lat="47.36415" lon="0.80243">
        <ele>49.16</ele>
        <time>2015-08-15T16:46:26Z</time>
      </trkpt>
      <trkpt lat="47.36389" lon="0.80278">
        <ele>49.16</ele>
        <time>2015-08-15T16:46:36Z</time>
      </trkpt>
      <trkpt lat="47.36354" lon="0.8033">
        <ele>48.68</ele>
        <time>2015-08-15T16:46:50Z</time>
      </trkpt>
      <trkpt lat="47.36333" lon="0.80353">
        <ele>49.16</ele>
        <time>2015-08-15T16:46:59Z</time>
      </trkpt>
      <trkpt lat="47.36301" lon="0.80387">
        <ele>48.68</ele>
        <time>2015-08-15T16:47:13Z</time>
      </trkpt>
      <trkpt lat="47.36263" lon="0.80435">
        <ele>49.65</ele>
        <time>2015-08-15T16:47:28Z</time>
      </trkpt>
      <trkpt lat="47.36243" lon="0.80469">
        <ele>49.65</ele>
        <time>2015-08-15T16:47:40Z</time>
      </trkpt>
      <trkpt lat="47.36224" lon="0.80498">
        <ele>49.65</ele>
        <time>2015-08-15T16:47:51Z</time>
      </trkpt>
      <trkpt lat="47.36223" lon="0.80501">
        <ele>49.65</ele>
        <time>2015-08-15T16:47:52Z</time>
      </trkpt>
      <trkpt lat="47.36212" lon="0.80523">
        <ele>49.65</ele>
        <time>2015-08-15T16:48:02Z</time>
      </trkpt>
      <trkpt lat="47.3621" lon="0.80525">
        <ele>49.65</ele>
        <time>2015-08-15T16:48:03Z</time>
      </trkpt>
      <trkpt lat="47.36208" lon="0.80527">
        <ele>49.16</ele>
        <time>2015-08-15T16:48:04Z</time>
      </trkpt>
      <trkpt lat="47.36207" lon="0.80529">
        <ele>49.16</ele>
        <time>2015-08-15T16:48:05Z</time>
      </trkpt>
      <trkpt lat="47.36206" lon="0.80531">
        <ele>49.16</ele>
        <time>2015-08-15T16:48:06Z</time>
      </trkpt>
      <trkpt lat="47.36206" lon="0.80533">
        <ele>49.65</ele>
        <time>2015-08-15T16:48:07Z</time>
      </trkpt>
      <trkpt lat="47.36195" lon="0.80547">
        <ele>49.65</ele>
        <time>2015-08-15T16:48:16Z</time>
      </trkpt>
      <trkpt lat="47.36192" lon="0.80554">
        <ele>49.65</ele>
        <time>2015-08-15T16:48:25Z</time>
      </trkpt>
      <trkpt lat="47.36192" lon="0.80556">
        <ele>49.65</ele>
        <time>2015-08-15T16:48:26Z</time>
      </trkpt>
      <trkpt lat="47.36191" lon="0.80557">
        <ele>49.65</ele>
        <time>2015-08-15T16:48:27Z</time>
      </trkpt>
      <trkpt lat="47.3619" lon="0.80558">
        <ele>49.65</ele>
        <time>2015-08-15T16:48:28Z</time>
      </trkpt>
      <trkpt lat="47.36177" lon="0.80568">
        <ele>48.2</ele>
        <time>2015-08-15T16:48:42Z</time>
      </trkpt>
      <trkpt lat="47.36177" lon="0.80571">
        <ele>47.72</ele>
        <time>2015-08-15T16:49:00Z</time>
      </trkpt>
      <trkpt lat="47.36175" lon="0.80575">
        <ele>47.24</ele>
        <time>2015-08-15T16:49:16Z</time>
      </trkpt>
      <trkpt lat="47.36174" lon="0.80578">
        <ele>48.2</ele>
        <time>2015-08-15T16:49:31Z</time>
      </trkpt>
      <trkpt lat="47.3616" lon="0.806">
        <ele>48.2</ele>
        <time>2015-08-15T16:49:43Z</time>
      </trkpt>
      <trkpt lat="47.36148" lon="0.80621">
        <ele>48.2</ele>
        <time>2015-08-15T16:49:54Z</time>
      </trkpt>
      <trkpt lat="47.36125" lon="0.80645">
        <ele>47.72</ele>
        <time>2015-08-15T16:50:08Z</time>
      </trkpt>
      <trkpt lat="47.36102" lon="0.80672">
        <ele>48.2</ele>
        <time>2015-08-15T16:50:22Z</time>
      </trkpt>
      <trkpt lat="47.3608" lon="0.807">
        <ele>47.72</ele>
        <time>2015-08-15T16:50:36Z</time>
      </trkpt>
      <trkpt lat="47.36064" lon="0.80731">
        <ele>48.68</ele>
        <time>2015-08-15T16:50:48Z</time>
      </trkpt>
      <trkpt lat="47.36063" lon="0.80733">
        <ele>48.68</ele>
        <time>2015-08-15T16:50:49Z</time>
      </trkpt>
      <trkpt lat="47.36062" lon="0.80734">
        <ele>48.68</ele>
        <time>2015-08-15T16:50:50Z</time>
      </trkpt>
      <trkpt lat="47.36061" lon="0.80736">
        <ele>48.2</ele>
        <time>2015-08-15T16:50:51Z</time>
      </trkpt>
      <trkpt lat="47.36061" lon="0.80738">
        <ele>48.2</ele>
        <time>2015-08-15T16:50:52Z</time>
      </trkpt>
      <trkpt lat="47.3606" lon="0.8074">
        <ele>48.2</ele>
        <time>2015-08-15T16:50:53Z</time>
      </trkpt>
      <trkpt lat="47.3606" lon="0.80742">
        <ele>48.2</ele>
        <time>2015-08-15T16:50:54Z</time>
      </trkpt>
      <trkpt lat="47.3606" lon="0.80744">
        <ele>48.2</ele>
        <time>2015-08-15T16:50:55Z</time>
      </trkpt>
      <trkpt lat="47.3606" lon="0.80747">
        <ele>48.2</ele>
        <time>2015-08-15T16:50:57Z</time>
      </trkpt>
      <trkpt lat="47.36061" lon="0.8075">
        <ele>48.2</ele>
        <time>2015-08-15T16:50:58Z</time>
      </trkpt>
      <trkpt lat="47.36061" lon="0.80752">
        <ele>48.2</ele>
        <time>2015-08-15T16:50:59Z</time>
      </trkpt>
      <trkpt lat="47.36063" lon="0.80755">
        <ele>48.68</ele>
        <time>2015-08-15T16:51:01Z</time>
      </trkpt>
      <trkpt lat="47.36066" lon="0.80758">
        <ele>49.16</ele>
        <time>2015-08-15T16:51:12Z</time>
      </trkpt>
      <trkpt lat="47.36067" lon="0.80759">
        <ele>49.65</ele>
        <time>2015-08-15T16:51:13Z</time>
      </trkpt>
      <trkpt lat="47.36067" lon="0.80761">
        <ele>49.65</ele>
        <time>2015-08-15T16:51:14Z</time>
      </trkpt>
      <trkpt lat="47.36067" lon="0.80763">
        <ele>49.65</ele>
        <time>2015-08-15T16:51:15Z</time>
      </trkpt>
      <trkpt lat="47.36058" lon="0.80768">
        <ele>49.65</ele>
        <time>2015-08-15T16:51:20Z</time>
      </trkpt>
      <trkpt lat="47.36057" lon="0.80769">
        <ele>49.65</ele>
        <time>2015-08-15T16:51:21Z</time>
      </trkpt>
      <trkpt lat="47.36055" lon="0.80769">
        <ele>49.65</ele>
        <time>2015-08-15T16:51:22Z</time>
      </trkpt>
      <trkpt lat="47.36052" lon="0.8077">
        <ele>49.65</ele>
        <time>2015-08-15T16:51:23Z</time>
      </trkpt>
      <trkpt lat="47.3605" lon="0.80771">
        <ele>49.65</ele>
        <time>2015-08-15T16:51:24Z</time>
      </trkpt>
      <trkpt lat="47.36048" lon="0.80772">
        <ele>49.65</ele>
        <time>2015-08-15T16:51:25Z</time>
      </trkpt>
      <trkpt lat="47.36046" lon="0.80773">
        <ele>49.65</ele>
        <time>2015-08-15T16:51:26Z</time>
      </trkpt>
      <trkpt lat="47.36043" lon="0.80774">
        <ele>49.65</ele>
        <time>2015-08-15T16:51:27Z</time>
      </trkpt>
      <trkpt lat="47.36042" lon="0.80774">
        <ele>49.65</ele>
        <time>2015-08-15T16:51:28Z</time>
      </trkpt>
      <trkpt lat="47.3604" lon="0.80773">
        <ele>49.65</ele>
        <time>2015-08-15T16:51:29Z</time>
      </trkpt>
      <trkpt lat="47.36038" lon="0.80772">
        <ele>49.65</ele>
        <time>2015-08-15T16:51:45Z</time>
      </trkpt>
      <trkpt lat="47.36038" lon="0.80771">
        <ele>49.65</ele>
        <time>2015-08-15T16:52:09Z</time>
      </trkpt>
      <trkpt lat="47.36038" lon="0.80771">
        <ele>50.13</ele>
        <time>2015-08-15T16:52:30Z</time>
      </trkpt>
      <trkpt lat="47.36038" lon="0.80771">
        <ele>50.13</ele>
        <time>2015-08-15T16:52:50Z</time>
      </trkpt>
      <trkpt lat="47.36038" lon="0.80771">
        <ele>50.13</ele>
        <time>2015-08-15T16:53:08Z</time>
      </trkpt>
      <trkpt lat="47.36038" lon="0.80774">
        <ele>50.13</ele>
        <time>2015-08-15T16:53:25Z</time>
      </trkpt>
      <trkpt lat="47.36038" lon="0.80775">
        <ele>50.61</ele>
        <time>2015-08-15T16:53:46Z</time>
      </trkpt>
      <trkpt lat="47.36032" lon="0.80792">
        <ele>50.13</ele>
        <time>2015-08-15T16:53:56Z</time>
      </trkpt>
      <trkpt lat="47.36017" lon="0.80827">
        <ele>50.61</ele>
        <time>2015-08-15T16:54:06Z</time>
      </trkpt>
      <trkpt lat="47.35991" lon="0.80893">
        <ele>50.61</ele>
        <time>2015-08-15T16:54:21Z</time>
      </trkpt>
      <trkpt lat="47.35967" lon="0.80951">
        <ele>51.57</ele>
        <time>2015-08-15T16:54:34Z</time>
      </trkpt>
      <trkpt lat="47.35942" lon="0.81018">
        <ele>50.61</ele>
        <time>2015-08-15T16:54:48Z</time>
      </trkpt>
      <trkpt lat="47.35926" lon="0.81077">
        <ele>50.13</ele>
        <time>2015-08-15T16:55:01Z</time>
      </trkpt>
      <trkpt lat="47.35924" lon="0.81143">
        <ele>50.61</ele>
        <time>2015-08-15T16:55:15Z</time>
      </trkpt>
      <trkpt lat="47.3593" lon="0.81239">
        <ele>50.61</ele>
        <time>2015-08-15T16:55:33Z</time>
      </trkpt>
      <trkpt lat="47.35934" lon="0.81305">
        <ele>50.61</ele>
        <time>2015-08-15T16:55:47Z</time>
      </trkpt>
      <trkpt lat="47.35939" lon="0.81353">
        <ele>50.61</ele>
        <time>2015-08-15T16:55:59Z</time>
      </trkpt>
      <trkpt lat="47.35939" lon="0.81382">
        <ele>50.61</ele>
        <time>2015-08-15T16:56:07Z</time>
      </trkpt>
      <trkpt lat="47.35938" lon="0.81386">
        <ele>50.61</ele>
        <time>2015-08-15T16:56:08Z</time>
      </trkpt>
      <trkpt lat="47.35938" lon="0.8139">
        <ele>50.61</ele>
        <time>2015-08-15T16:56:09Z</time>
      </trkpt>
      <trkpt lat="47.35938" lon="0.81393">
        <ele>50.61</ele>
        <time>2015-08-15T16:56:10Z</time>
      </trkpt>
      <trkpt lat="47.3594" lon="0.81397">
        <ele>50.61</ele>
        <time>2015-08-15T16:56:11Z</time>
      </trkpt>
      <trkpt lat="47.35941" lon="0.814">
        <ele>50.61</ele>
        <time>2015-08-15T16:56:12Z</time>
      </trkpt>
      <trkpt lat="47.35941" lon="0.81408">
        <ele>50.61</ele>
        <time>2015-08-15T16:56:14Z</time>
      </trkpt>
      <trkpt lat="47.3595" lon="0.815">
        <ele>51.09</ele>
        <time>2015-08-15T16:56:32Z</time>
      </trkpt>
      <trkpt lat="47.35953" lon="0.81572">
        <ele>51.09</ele>
        <time>2015-08-15T16:56:47Z</time>
      </trkpt>
      <trkpt lat="47.35973" lon="0.81644">
        <ele>51.09</ele>
        <time>2015-08-15T16:57:02Z</time>
      </trkpt>
      <trkpt lat="47.35989" lon="0.81715">
        <ele>50.61</ele>
        <time>2015-08-15T16:57:17Z</time>
      </trkpt>
      <trkpt lat="47.35996" lon="0.81801">
        <ele>50.61</ele>
        <time>2015-08-15T16:57:33Z</time>
      </trkpt>
      <trkpt lat="47.35998" lon="0.81877">
        <ele>50.61</ele>
        <time>2015-08-15T16:57:48Z</time>
      </trkpt>
      <trkpt lat="47.36003" lon="0.81936">
        <ele>50.61</ele>
        <time>2015-08-15T16:58:04Z</time>
      </trkpt>
      <trkpt lat="47.36005" lon="0.81979">
        <ele>50.61</ele>
        <time>2015-08-15T16:58:16Z</time>
      </trkpt>
      <trkpt lat="47.36003" lon="0.82067">
        <ele>51.09</ele>
        <time>2015-08-15T16:58:32Z</time>
      </trkpt>
      <trkpt lat="47.36004" lon="0.82147">
        <ele>51.09</ele>
        <time>2015-08-15T16:58:47Z</time>
      </trkpt>
      <trkpt lat="47.36004" lon="0.8221">
        <ele>51.09</ele>
        <time>2015-08-15T16:59:00Z</time>
      </trkpt>
      <trkpt lat="47.36004" lon="0.8227">
        <ele>51.09</ele>
        <time>2015-08-15T16:59:11Z</time>
      </trkpt>
      <trkpt lat="47.36002" lon="0.82344">
        <ele>51.09</ele>
        <time>2015-08-15T16:59:25Z</time>
      </trkpt>
      <trkpt lat="47.35989" lon="0.82406">
        <ele>51.09</ele>
        <time>2015-08-15T16:59:37Z</time>
      </trkpt>
      <trkpt lat="47.3597" lon="0.82456">
        <ele>51.09</ele>
        <time>2015-08-15T16:59:49Z</time>
      </trkpt>
      <trkpt lat="47.35946" lon="0.82524">
        <ele>51.09</ele>
        <time>2015-08-15T17:00:03Z</time>
      </trkpt>
      <trkpt lat="47.35924" lon="0.82587">
        <ele>50.61</ele>
        <time>2015-08-15T17:00:16Z</time>
      </trkpt>
      <trkpt lat="47.35911" lon="0.82656">
        <ele>51.09</ele>
        <time>2015-08-15T17:00:29Z</time>
      </trkpt>
      <trkpt lat="47.35905" lon="0.82725">
        <ele>51.09</ele>
        <time>2015-08-15T17:00:41Z</time>
      </trkpt>
      <trkpt lat="47.35897" lon="0.82813">
        <ele>51.09</ele>
        <time>2015-08-15T17:00:57Z</time>
      </trkpt>
      <trkpt lat="47.35886" lon="0.82892">
        <ele>50.61</ele>
        <time>2015-08-15T17:01:12Z</time>
      </trkpt>
      <trkpt lat="47.35873" lon="0.82958">
        <ele>51.09</ele>
        <time>2015-08-15T17:01:24Z</time>
      </trkpt>
      <trkpt lat="47.35862" lon="0.83038">
        <ele>50.61</ele>
        <time>2015-08-15T17:01:37Z</time>
      </trkpt>
      <trkpt lat="47.35861" lon="0.83044">
        <ele>51.09</ele>
        <time>2015-08-15T17:01:38Z</time>
      </trkpt>
      <trkpt lat="47.35859" lon="0.83049">
        <ele>50.61</ele>
        <time>2015-08-15T17:01:39Z</time>
      </trkpt>
      <trkpt lat="47.35848" lon="0.83081">
        <ele>51.09</ele>
        <time>2015-08-15T17:01:45Z</time>
      </trkpt>
      <trkpt lat="47.3584" lon="0.83109">
        <ele>50.61</ele>
        <time>2015-08-15T17:01:50Z</time>
      </trkpt>
      <trkpt lat="47.35838" lon="0.83115">
        <ele>51.09</ele>
        <time>2015-08-15T17:01:51Z</time>
      </trkpt>
      <trkpt lat="47.35836" lon="0.83121">
        <ele>51.09</ele>
        <time>2015-08-15T17:01:52Z</time>
      </trkpt>
      <trkpt lat="47.35811" lon="0.83183">
        <ele>51.57</ele>
        <time>2015-08-15T17:02:04Z</time>
      </trkpt>
      <trkpt lat="47.35789" lon="0.83236">
        <ele>51.09</ele>
        <time>2015-08-15T17:02:18Z</time>
      </trkpt>
      <trkpt lat="47.35774" lon="0.83265">
        <ele>51.09</ele>
        <time>2015-08-15T17:02:29Z</time>
      </trkpt>
      <trkpt lat="47.35774" lon="0.83266">
        <ele>51.57</ele>
        <time>2015-08-15T17:02:38Z</time>
      </trkpt>
      <trkpt lat="47.35774" lon="0.83265">
        <ele>51.09</ele>
        <time>2015-08-15T17:03:06Z</time>
      </trkpt>
      <trkpt lat="47.35769" lon="0.83281">
        <ele>51.09</ele>
        <time>2015-08-15T17:03:18Z</time>
      </trkpt>
      <trkpt lat="47.35754" lon="0.83331">
        <ele>51.09</ele>
        <time>2015-08-15T17:03:31Z</time>
      </trkpt>
      <trkpt lat="47.35725" lon="0.8341">
        <ele>51.09</ele>
        <time>2015-08-15T17:03:50Z</time>
      </trkpt>
      <trkpt lat="47.35696" lon="0.83463">
        <ele>51.09</ele>
        <time>2015-08-15T17:04:04Z</time>
      </trkpt>
      <trkpt lat="47.35679" lon="0.83501">
        <ele>51.09</ele>
        <time>2015-08-15T17:04:14Z</time>
      </trkpt>
      <trkpt lat="47.35679" lon="0.83569">
        <ele>50.61</ele>
        <time>2015-08-15T17:04:28Z</time>
      </trkpt>
      <trkpt lat="47.35681" lon="0.83615">
        <ele>51.09</ele>
        <time>2015-08-15T17:04:39Z</time>
      </trkpt>
      <trkpt lat="47.3568" lon="0.8362">
        <ele>52.05</ele>
        <time>2015-08-15T17:04:40Z</time>
      </trkpt>
      <trkpt lat="47.35679" lon="0.83624">
        <ele>50.61</ele>
        <time>2015-08-15T17:04:41Z</time>
      </trkpt>
      <trkpt lat="47.35678" lon="0.83629">
        <ele>50.61</ele>
        <time>2015-08-15T17:04:42Z</time>
      </trkpt>
      <trkpt lat="47.35677" lon="0.83634">
        <ele>50.61</ele>
        <time>2015-08-15T17:04:43Z</time>
      </trkpt>
      <trkpt lat="47.35675" lon="0.8364">
        <ele>50.61</ele>
        <time>2015-08-15T17:04:44Z</time>
      </trkpt>
      <trkpt lat="47.35674" lon="0.83646">
        <ele>50.61</ele>
        <time>2015-08-15T17:04:45Z</time>
      </trkpt>
      <trkpt lat="47.3566" lon="0.83708">
        <ele>51.09</ele>
        <time>2015-08-15T17:04:56Z</time>
      </trkpt>
      <trkpt lat="47.35658" lon="0.83714">
        <ele>51.09</ele>
        <time>2015-08-15T17:04:57Z</time>
      </trkpt>
      <trkpt lat="47.35656" lon="0.83719">
        <ele>51.09</ele>
        <time>2015-08-15T17:04:58Z</time>
      </trkpt>
      <trkpt lat="47.35653" lon="0.83724">
        <ele>51.09</ele>
        <time>2015-08-15T17:04:59Z</time>
      </trkpt>
      <trkpt lat="47.3565" lon="0.83729">
        <ele>51.09</ele>
        <time>2015-08-15T17:05:00Z</time>
      </trkpt>
      <trkpt lat="47.35633" lon="0.83758">
        <ele>51.09</ele>
        <time>2015-08-15T17:05:06Z</time>
      </trkpt>
      <trkpt lat="47.35629" lon="0.83763">
        <ele>50.61</ele>
        <time>2015-08-15T17:05:07Z</time>
      </trkpt>
      <trkpt lat="47.35625" lon="0.83769">
        <ele>51.09</ele>
        <time>2015-08-15T17:05:08Z</time>
      </trkpt>
      <trkpt lat="47.35619" lon="0.83787">
        <ele>51.09</ele>
        <time>2015-08-15T17:05:12Z</time>
      </trkpt>
      <trkpt lat="47.35619" lon="0.83791">
        <ele>51.09</ele>
        <time>2015-08-15T17:05:13Z</time>
      </trkpt>
      <trkpt lat="47.35599" lon="0.83821">
        <ele>51.57</ele>
        <time>2015-08-15T17:05:22Z</time>
      </trkpt>
      <trkpt lat="47.35572" lon="0.83857">
        <ele>51.09</ele>
        <time>2015-08-15T17:05:34Z</time>
      </trkpt>
      <trkpt lat="47.3555" lon="0.83899">
        <ele>51.09</ele>
        <time>2015-08-15T17:05:47Z</time>
      </trkpt>
      <trkpt lat="47.35548" lon="0.83901">
        <ele>51.09</ele>
        <time>2015-08-15T17:05:48Z</time>
      </trkpt>
      <trkpt lat="47.35547" lon="0.83902">
        <ele>51.09</ele>
        <time>2015-08-15T17:05:49Z</time>
      </trkpt>
      <trkpt lat="47.35544" lon="0.83908">
        <ele>51.57</ele>
        <time>2015-08-15T17:05:57Z</time>
      </trkpt>
      <trkpt lat="47.35517" lon="0.83965">
        <ele>52.05</ele>
        <time>2015-08-15T17:06:10Z</time>
      </trkpt>
      <trkpt lat="47.35515" lon="0.8397">
        <ele>52.05</ele>
        <time>2015-08-15T17:06:11Z</time>
      </trkpt>
      <trkpt lat="47.35512" lon="0.83974">
        <ele>51.57</ele>
        <time>2015-08-15T17:06:12Z</time>
      </trkpt>
      <trkpt lat="47.35509" lon="0.83977">
        <ele>52.05</ele>
        <time>2015-08-15T17:06:13Z</time>
      </trkpt>
      <trkpt lat="47.35506" lon="0.83981">
        <ele>52.05</ele>
        <time>2015-08-15T17:06:14Z</time>
      </trkpt>
      <trkpt lat="47.35504" lon="0.83986">
        <ele>51.57</ele>
        <time>2015-08-15T17:06:15Z</time>
      </trkpt>
      <trkpt lat="47.35489" lon="0.84019">
        <ele>52.05</ele>
        <time>2015-08-15T17:06:22Z</time>
      </trkpt>
      <trkpt lat="47.35471" lon="0.84083">
        <ele>51.57</ele>
        <time>2015-08-15T17:06:34Z</time>
      </trkpt>
      <trkpt lat="47.35452" lon="0.84139">
        <ele>52.05</ele>
        <time>2015-08-15T17:06:45Z</time>
      </trkpt>
      <trkpt lat="47.35434" lon="0.84196">
        <ele>52.05</ele>
        <time>2015-08-15T17:06:56Z</time>
      </trkpt>
      <trkpt lat="47.35419" lon="0.84272">
        <ele>52.05</ele>
        <time>2015-08-15T17:07:10Z</time>
      </trkpt>
      <trkpt lat="47.35412" lon="0.84344">
        <ele>52.05</ele>
        <time>2015-08-15T17:07:23Z</time>
      </trkpt>
      <trkpt lat="47.35411" lon="0.8435">
        <ele>51.57</ele>
        <time>2015-08-15T17:07:24Z</time>
      </trkpt>
      <trkpt lat="47.35403" lon="0.84441">
        <ele>52.05</ele>
        <time>2015-08-15T17:07:40Z</time>
      </trkpt>
      <trkpt lat="47.35396" lon="0.84519">
        <ele>52.05</ele>
        <time>2015-08-15T17:07:54Z</time>
      </trkpt>
      <trkpt lat="47.35387" lon="0.84586">
        <ele>52.53</ele>
        <time>2015-08-15T17:08:06Z</time>
      </trkpt>
      <trkpt lat="47.35377" lon="0.84669">
        <ele>52.53</ele>
        <time>2015-08-15T17:08:21Z</time>
      </trkpt>
      <trkpt lat="47.35376" lon="0.84675">
        <ele>52.53</ele>
        <time>2015-08-15T17:08:22Z</time>
      </trkpt>
      <trkpt lat="47.35366" lon="0.84738">
        <ele>53.01</ele>
        <time>2015-08-15T17:08:33Z</time>
      </trkpt>
      <trkpt lat="47.35349" lon="0.8481">
        <ele>52.53</ele>
        <time>2015-08-15T17:08:47Z</time>
      </trkpt>
      <trkpt lat="47.35331" lon="0.84897">
        <ele>52.53</ele>
        <time>2015-08-15T17:09:03Z</time>
      </trkpt>
      <trkpt lat="47.35326" lon="0.84972">
        <ele>53.01</ele>
        <time>2015-08-15T17:09:16Z</time>
      </trkpt>
      <trkpt lat="47.35321" lon="0.8502">
        <ele>52.53</ele>
        <time>2015-08-15T17:09:24Z</time>
      </trkpt>
      <trkpt lat="47.3529" lon="0.85108">
        <ele>52.53</ele>
        <time>2015-08-15T17:09:41Z</time>
      </trkpt>
      <trkpt lat="47.35262" lon="0.85123">
        <ele>53.49</ele>
        <time>2015-08-15T17:09:50Z</time>
      </trkpt>
      <trkpt lat="47.35205" lon="0.85096">
        <ele>56.37</ele>
        <time>2015-08-15T17:10:02Z</time>
      </trkpt>
      <trkpt lat="47.35149" lon="0.85073">
        <ele>56.86</ele>
        <time>2015-08-15T17:10:18Z</time>
      </trkpt>
      <trkpt lat="47.35114" lon="0.85055">
        <ele>55.89</ele>
        <time>2015-08-15T17:10:33Z</time>
      </trkpt>
      <trkpt lat="47.35113" lon="0.85055">
        <ele>55.89</ele>
        <time>2015-08-15T17:10:34Z</time>
      </trkpt>
      <trkpt lat="47.35111" lon="0.85055">
        <ele>55.89</ele>
        <time>2015-08-15T17:10:50Z</time>
      </trkpt>
      <trkpt lat="47.35111" lon="0.85052">
        <ele>55.89</ele>
        <time>2015-08-15T17:11:05Z</time>
      </trkpt>
      <trkpt lat="47.35111" lon="0.85052">
        <ele>55.89</ele>
        <time>2015-08-15T17:11:17Z</time>
      </trkpt>
      <trkpt lat="47.35091" lon="0.85019">
        <ele>54.93</ele>
        <time>2015-08-15T17:11:31Z</time>
      </trkpt>
      <trkpt lat="47.35091" lon="0.85016">
        <ele>55.41</ele>
        <time>2015-08-15T17:11:32Z</time>
      </trkpt>
      <trkpt lat="47.35091" lon="0.85013">
        <ele>54.93</ele>
        <time>2015-08-15T17:11:33Z</time>
      </trkpt>
      <trkpt lat="47.35091" lon="0.8501">
        <ele>55.41</ele>
        <time>2015-08-15T17:11:34Z</time>
      </trkpt>
      <trkpt lat="47.35091" lon="0.85007">
        <ele>54.93</ele>
        <time>2015-08-15T17:11:35Z</time>
      </trkpt>
      <trkpt lat="47.35091" lon="0.85005">
        <ele>54.93</ele>
        <time>2015-08-15T17:11:36Z</time>
      </trkpt>
      <trkpt lat="47.3509" lon="0.85003">
        <ele>54.93</ele>
        <time>2015-08-15T17:11:37Z</time>
      </trkpt>
      <trkpt lat="47.35089" lon="0.84999">
        <ele>54.93</ele>
        <time>2015-08-15T17:11:46Z</time>
      </trkpt>
      <trkpt lat="47.35089" lon="0.84997">
        <ele>54.93</ele>
        <time>2015-08-15T17:11:47Z</time>
      </trkpt>
      <trkpt lat="47.35088" lon="0.84996">
        <ele>54.45</ele>
        <time>2015-08-15T17:11:48Z</time>
      </trkpt>
      <trkpt lat="47.35086" lon="0.84998">
        <ele>54.45</ele>
        <time>2015-08-15T17:11:49Z</time>
      </trkpt>
      <trkpt lat="47.35093" lon="0.85041">
        <ele>53.97</ele>
        <time>2015-08-15T17:12:02Z</time>
      </trkpt>
      <trkpt lat="47.351" lon="0.85081">
        <ele>53.49</ele>
        <time>2015-08-15T17:12:14Z</time>
      </trkpt>
      <trkpt lat="47.35099" lon="0.85084">
        <ele>53.01</ele>
        <time>2015-08-15T17:12:15Z</time>
      </trkpt>
      <trkpt lat="47.35098" lon="0.85086">
        <ele>53.01</ele>
        <time>2015-08-15T17:12:16Z</time>
      </trkpt>
      <trkpt lat="47.35098" lon="0.85089">
        <ele>53.01</ele>
        <time>2015-08-15T17:12:17Z</time>
      </trkpt>
      <trkpt lat="47.35098" lon="0.85092">
        <ele>53.01</ele>
        <time>2015-08-15T17:12:18Z</time>
      </trkpt>
      <trkpt lat="47.35098" lon="0.85095">
        <ele>53.01</ele>
        <time>2015-08-15T17:12:19Z</time>
      </trkpt>
      <trkpt lat="47.351" lon="0.85097">
        <ele>53.01</ele>
        <time>2015-08-15T17:12:20Z</time>
      </trkpt>
      <trkpt lat="47.35101" lon="0.851">
        <ele>53.01</ele>
        <time>2015-08-15T17:12:21Z</time>
      </trkpt>
      <trkpt lat="47.35102" lon="0.85114">
        <ele>53.01</ele>
        <time>2015-08-15T17:12:26Z</time>
      </trkpt>
      <trkpt lat="47.35102" lon="0.85117">
        <ele>53.01</ele>
        <time>2015-08-15T17:12:27Z</time>
      </trkpt>
      <trkpt lat="47.35103" lon="0.85119">
        <ele>52.53</ele>
        <time>2015-08-15T17:12:28Z</time>
      </trkpt>
      <trkpt lat="47.35103" lon="0.85122">
        <ele>52.53</ele>
        <time>2015-08-15T17:12:29Z</time>
      </trkpt>
      <trkpt lat="47.35103" lon="0.85125">
        <ele>52.53</ele>
        <time>2015-08-15T17:12:30Z</time>
      </trkpt>
      <trkpt lat="47.35104" lon="0.85128">
        <ele>52.53</ele>
        <time>2015-08-15T17:12:31Z</time>
      </trkpt>
      <trkpt lat="47.3511" lon="0.85141">
        <ele>52.53</ele>
        <time>2015-08-15T17:12:37Z</time>
      </trkpt>
      <trkpt lat="47.35111" lon="0.85145">
        <ele>53.01</ele>
        <time>2015-08-15T17:12:44Z</time>
      </trkpt>
      <trkpt lat="47.35111" lon="0.85149">
        <ele>53.01</ele>
        <time>2015-08-15T17:12:54Z</time>
      </trkpt>
      <trkpt lat="47.3511" lon="0.85151">
        <ele>53.01</ele>
        <time>2015-08-15T17:12:55Z</time>
      </trkpt>
      <trkpt lat="47.35109" lon="0.85153">
        <ele>53.01</ele>
        <time>2015-08-15T17:12:56Z</time>
      </trkpt>
      <trkpt lat="47.35112" lon="0.85203">
        <ele>52.53</ele>
        <time>2015-08-15T17:13:08Z</time>
      </trkpt>
      <trkpt lat="47.35109" lon="0.85265">
        <ele>53.01</ele>
        <time>2015-08-15T17:13:20Z</time>
      </trkpt>
      <trkpt lat="47.35103" lon="0.85332">
        <ele>53.49</ele>
        <time>2015-08-15T17:13:35Z</time>
      </trkpt>
      <trkpt lat="47.35102" lon="0.85337">
        <ele>53.49</ele>
        <time>2015-08-15T17:13:36Z</time>
      </trkpt>
      <trkpt lat="47.351" lon="0.85344">
        <ele>53.01</ele>
        <time>2015-08-15T17:13:38Z</time>
      </trkpt>
      <trkpt lat="47.35095" lon="0.85401">
        <ele>53.01</ele>
        <time>2015-08-15T17:13:50Z</time>
      </trkpt>
      <trkpt lat="47.35086" lon="0.85483">
        <ele>53.01</ele>
        <time>2015-08-15T17:14:05Z</time>
      </trkpt>
      <trkpt lat="47.35068" lon="0.85584">
        <ele>53.01</ele>
        <time>2015-08-15T17:14:24Z</time>
      </trkpt>
      <trkpt lat="47.35056" lon="0.85662">
        <ele>53.01</ele>
        <time>2015-08-15T17:14:39Z</time>
      </trkpt>
      <trkpt lat="47.3504" lon="0.85741">
        <ele>53.01</ele>
        <time>2015-08-15T17:14:55Z</time>
      </trkpt>
      <trkpt lat="47.35028" lon="0.85789">
        <ele>53.49</ele>
        <time>2015-08-15T17:15:08Z</time>
      </trkpt>
      <trkpt lat="47.35013" lon="0.85851">
        <ele>53.49</ele>
        <time>2015-08-15T17:15:22Z</time>
      </trkpt>
      <trkpt lat="47.35" lon="0.85893">
        <ele>53.49</ele>
        <time>2015-08-15T17:15:34Z</time>
      </trkpt>
      <trkpt lat="47.34989" lon="0.85933">
        <ele>53.49</ele>
        <time>2015-08-15T17:15:47Z</time>
      </trkpt>
      <trkpt lat="47.34989" lon="0.85936">
        <ele>53.49</ele>
        <time>2015-08-15T17:15:48Z</time>
      </trkpt>
      <trkpt lat="47.34982" lon="0.85972">
        <ele>53.49</ele>
        <time>2015-08-15T17:16:00Z</time>
      </trkpt>
      <trkpt lat="47.3497" lon="0.8601">
        <ele>53.49</ele>
        <time>2015-08-15T17:16:14Z</time>
      </trkpt>
      <trkpt lat="47.34965" lon="0.86033">
        <ele>53.01</ele>
        <time>2015-08-15T17:16:24Z</time>
      </trkpt>
      <trkpt lat="47.34963" lon="0.86041">
        <ele>53.01</ele>
        <time>2015-08-15T17:16:29Z</time>
      </trkpt>
      <trkpt lat="47.34955" lon="0.86046">
        <ele>53.49</ele>
        <time>2015-08-15T17:16:42Z</time>
      </trkpt>
      <trkpt lat="47.34954" lon="0.86043">
        <ele>53.49</ele>
        <time>2015-08-15T17:16:43Z</time>
      </trkpt>
      <trkpt lat="47.34949" lon="0.86037">
        <ele>51.57</ele>
        <time>2015-08-15T18:24:19Z</time>
      </trkpt>
      <trkpt lat="47.34949" lon="0.86037">
        <ele>53.49</ele>
        <time>2015-08-15T18:24:24Z</time>
      </trkpt>
      <trkpt lat="47.34945" lon="0.86049">
        <ele>53.49</ele>
        <time>2015-08-15T18:24:36Z</time>
      </trkpt>
      <trkpt lat="47.34941" lon="0.8607">
        <ele>53.49</ele>
        <time>2015-08-15T18:24:49Z</time>
      </trkpt>
      <trkpt lat="47.34933" lon="0.86089">
        <ele>53.97</ele>
        <time>2015-08-15T18:24:55Z</time>
      </trkpt>
      <trkpt lat="47.34928" lon="0.8611">
        <ele>53.49</ele>
        <time>2015-08-15T18:25:03Z</time>
      </trkpt>
      <trkpt lat="47.3492" lon="0.86124">
        <ele>53.97</ele>
        <time>2015-08-15T18:25:11Z</time>
      </trkpt>
      <trkpt lat="47.34918" lon="0.86127">
        <ele>53.49</ele>
        <time>2015-08-15T18:25:13Z</time>
      </trkpt>
      <trkpt lat="47.34919" lon="0.86128">
        <ele>53.97</ele>
        <time>2015-08-15T18:25:20Z</time>
      </trkpt>
      <trkpt lat="47.34924" lon="0.8613">
        <ele>53.97</ele>
        <time>2015-08-15T18:25:37Z</time>
      </trkpt>
      <trkpt lat="47.34927" lon="0.86129">
        <ele>53.49</ele>
        <time>2015-08-15T18:25:39Z</time>
      </trkpt>
      <trkpt lat="47.34921" lon="0.86139">
        <ele>53.01</ele>
        <time>2015-08-15T18:25:49Z</time>
      </trkpt>
      <trkpt lat="47.34921" lon="0.86146">
        <ele>53.49</ele>
        <time>2015-08-15T18:25:55Z</time>
      </trkpt>
      <trkpt lat="47.34904" lon="0.8615">
        <ele>53.97</ele>
        <time>2015-08-15T18:26:02Z</time>
      </trkpt>
      <trkpt lat="47.34903" lon="0.86146">
        <ele>53.97</ele>
        <time>2015-08-15T18:26:03Z</time>
      </trkpt>
      <trkpt lat="47.34902" lon="0.86142">
        <ele>53.97</ele>
        <time>2015-08-15T18:26:04Z</time>
      </trkpt>
      <trkpt lat="47.34902" lon="0.86139">
        <ele>53.97</ele>
        <time>2015-08-15T18:26:05Z</time>
      </trkpt>
      <trkpt lat="47.34904" lon="0.86133">
        <ele>53.97</ele>
        <time>2015-08-15T18:26:07Z</time>
      </trkpt>
      <trkpt lat="47.34904" lon="0.8613">
        <ele>53.97</ele>
        <time>2015-08-15T18:26:08Z</time>
      </trkpt>
      <trkpt lat="47.34905" lon="0.86127">
        <ele>53.49</ele>
        <time>2015-08-15T18:26:09Z</time>
      </trkpt>
      <trkpt lat="47.34905" lon="0.86125">
        <ele>53.49</ele>
        <time>2015-08-15T18:26:10Z</time>
      </trkpt>
      <trkpt lat="47.34904" lon="0.86123">
        <ele>53.49</ele>
        <time>2015-08-15T18:26:11Z</time>
      </trkpt>
      <trkpt lat="47.34904" lon="0.86122">
        <ele>53.49</ele>
        <time>2015-08-15T18:26:12Z</time>
      </trkpt>
      <trkpt lat="47.34905" lon="0.86121">
        <ele>53.97</ele>
        <time>2015-08-15T18:26:13Z</time>
      </trkpt>
      <trkpt lat="47.34905" lon="0.86125">
        <ele>53.97</ele>
        <time>2015-08-15T18:26:16Z</time>
      </trkpt>
      <trkpt lat="47.34901" lon="0.86167">
        <ele>53.97</ele>
        <time>2015-08-15T18:26:27Z</time>
      </trkpt>
      <trkpt lat="47.34901" lon="0.86171">
        <ele>53.97</ele>
        <time>2015-08-15T18:26:28Z</time>
      </trkpt>
      <trkpt lat="47.34882" lon="0.86232">
        <ele>53.97</ele>
        <time>2015-08-15T18:26:41Z</time>
      </trkpt>
      <trkpt lat="47.3487" lon="0.86277">
        <ele>53.97</ele>
        <time>2015-08-15T18:26:51Z</time>
      </trkpt>
      <trkpt lat="47.3486" lon="0.86317">
        <ele>54.45</ele>
        <time>2015-08-15T18:27:02Z</time>
      </trkpt>
      <trkpt lat="47.34843" lon="0.86376">
        <ele>53.97</ele>
        <time>2015-08-15T18:27:14Z</time>
      </trkpt>
      <trkpt lat="47.34826" lon="0.8642">
        <ele>54.45</ele>
        <time>2015-08-15T18:27:23Z</time>
      </trkpt>
      <trkpt lat="47.34805" lon="0.86489">
        <ele>54.45</ele>
        <time>2015-08-15T18:27:37Z</time>
      </trkpt>
      <trkpt lat="47.34793" lon="0.8654">
        <ele>55.41</ele>
        <time>2015-08-15T18:27:49Z</time>
      </trkpt>
      <trkpt lat="47.34791" lon="0.86544">
        <ele>53.97</ele>
        <time>2015-08-15T18:27:50Z</time>
      </trkpt>
      <trkpt lat="47.34776" lon="0.86608">
        <ele>54.45</ele>
        <time>2015-08-15T18:28:04Z</time>
      </trkpt>
      <trkpt lat="47.34764" lon="0.86662">
        <ele>53.97</ele>
        <time>2015-08-15T18:28:16Z</time>
      </trkpt>
      <trkpt lat="47.34763" lon="0.86667">
        <ele>53.97</ele>
        <time>2015-08-15T18:28:17Z</time>
      </trkpt>
      <trkpt lat="47.34763" lon="0.86673">
        <ele>54.45</ele>
        <time>2015-08-15T18:28:18Z</time>
      </trkpt>
      <trkpt lat="47.34762" lon="0.86684">
        <ele>54.45</ele>
        <time>2015-08-15T18:28:20Z</time>
      </trkpt>
      <trkpt lat="47.34752" lon="0.86733">
        <ele>54.45</ele>
        <time>2015-08-15T18:28:30Z</time>
      </trkpt>
      <trkpt lat="47.34742" lon="0.8681">
        <ele>53.97</ele>
        <time>2015-08-15T18:28:43Z</time>
      </trkpt>
      <trkpt lat="47.34731" lon="0.86872">
        <ele>54.93</ele>
        <time>2015-08-15T18:28:56Z</time>
      </trkpt>
      <trkpt lat="47.34727" lon="0.86892">
        <ele>54.45</ele>
        <time>2015-08-15T18:29:01Z</time>
      </trkpt>
      <trkpt lat="47.34724" lon="0.869">
        <ele>54.45</ele>
        <time>2015-08-15T18:29:03Z</time>
      </trkpt>
      <trkpt lat="47.34715" lon="0.86949">
        <ele>54.45</ele>
        <time>2015-08-15T18:29:15Z</time>
      </trkpt>
      <trkpt lat="47.34705" lon="0.87008">
        <ele>54.45</ele>
        <time>2015-08-15T18:29:29Z</time>
      </trkpt>
      <trkpt lat="47.34705" lon="0.87018">
        <ele>54.45</ele>
        <time>2015-08-15T18:29:33Z</time>
      </trkpt>
      <trkpt lat="47.34703" lon="0.8702">
        <ele>54.45</ele>
        <time>2015-08-15T18:29:38Z</time>
      </trkpt>
      <trkpt lat="47.34704" lon="0.8702">
        <ele>53.97</ele>
        <time>2015-08-15T18:30:07Z</time>
      </trkpt>
      <trkpt lat="47.34704" lon="0.87021">
        <ele>53.97</ele>
        <time>2015-08-15T18:30:40Z</time>
      </trkpt>
      <trkpt lat="47.34702" lon="0.87019">
        <ele>54.45</ele>
        <time>2015-08-15T18:31:05Z</time>
      </trkpt>
      <trkpt lat="47.34701" lon="0.87015">
        <ele>54.45</ele>
        <time>2015-08-15T18:31:40Z</time>
      </trkpt>
      <trkpt lat="47.34701" lon="0.87013">
        <ele>54.45</ele>
        <time>2015-08-15T18:32:07Z</time>
      </trkpt>
      <trkpt lat="47.34701" lon="0.8701">
        <ele>54.93</ele>
        <time>2015-08-15T18:32:32Z</time>
      </trkpt>
      <trkpt lat="47.34705" lon="0.86994">
        <ele>54.93</ele>
        <time>2015-08-15T18:32:44Z</time>
      </trkpt>
      <trkpt lat="47.34712" lon="0.86956">
        <ele>54.93</ele>
        <time>2015-08-15T18:32:54Z</time>
      </trkpt>
      <trkpt lat="47.34716" lon="0.8694">
        <ele>54.93</ele>
        <time>2015-08-15T18:32:58Z</time>
      </trkpt>
      <trkpt lat="47.3472" lon="0.86907">
        <ele>55.41</ele>
        <time>2015-08-15T18:33:06Z</time>
      </trkpt>
      <trkpt lat="47.34731" lon="0.86869">
        <ele>55.41</ele>
        <time>2015-08-15T18:33:19Z</time>
      </trkpt>
      <trkpt lat="47.34744" lon="0.86873">
        <ele>54.45</ele>
        <time>2015-08-15T18:33:27Z</time>
      </trkpt>
      <trkpt lat="47.3476" lon="0.86881">
        <ele>53.49</ele>
        <time>2015-08-15T18:33:35Z</time>
      </trkpt>
      <trkpt lat="47.34776" lon="0.86906">
        <ele>53.49</ele>
        <time>2015-08-15T18:33:45Z</time>
      </trkpt>
      <trkpt lat="47.34769" lon="0.86954">
        <ele>53.97</ele>
        <time>2015-08-15T18:33:57Z</time>
      </trkpt>
      <trkpt lat="47.34768" lon="0.86965">
        <ele>53.97</ele>
        <time>2015-08-15T18:34:02Z</time>
      </trkpt>
      <trkpt lat="47.34768" lon="0.86991">
        <ele>53.97</ele>
        <time>2015-08-15T18:34:12Z</time>
      </trkpt>
      <trkpt lat="47.34768" lon="0.86994">
        <ele>53.97</ele>
        <time>2015-08-15T18:34:24Z</time>
      </trkpt>
      <trkpt lat="47.34766" lon="0.8703">
        <ele>53.97</ele>
        <time>2015-08-15T18:34:35Z</time>
      </trkpt>
      <trkpt lat="47.34765" lon="0.87075">
        <ele>53.49</ele>
        <time>2015-08-15T18:34:45Z</time>
      </trkpt>
      <trkpt lat="47.34766" lon="0.87128">
        <ele>53.49</ele>
        <time>2015-08-15T18:34:56Z</time>
      </trkpt>
      <trkpt lat="47.34772" lon="0.87178">
        <ele>53.49</ele>
        <time>2015-08-15T18:35:08Z</time>
      </trkpt>
      <trkpt lat="47.34777" lon="0.8721">
        <ele>53.01</ele>
        <time>2015-08-15T18:35:17Z</time>
      </trkpt>
      <trkpt lat="47.34788" lon="0.87261">
        <ele>53.01</ele>
        <time>2015-08-15T18:35:29Z</time>
      </trkpt>
      <trkpt lat="47.34793" lon="0.87305">
        <ele>53.01</ele>
        <time>2015-08-15T18:35:39Z</time>
      </trkpt>
      <trkpt lat="47.34797" lon="0.87349">
        <ele>53.01</ele>
        <time>2015-08-15T18:35:50Z</time>
      </trkpt>
      <trkpt lat="47.34807" lon="0.87418">
        <ele>53.01</ele>
        <time>2015-08-15T18:36:04Z</time>
      </trkpt>
      <trkpt lat="47.34809" lon="0.87465">
        <ele>53.01</ele>
        <time>2015-08-15T18:36:16Z</time>
      </trkpt>
      <trkpt lat="47.34814" lon="0.87524">
        <ele>53.01</ele>
        <time>2015-08-15T18:36:29Z</time>
      </trkpt>
      <trkpt lat="47.34818" lon="0.87578">
        <ele>53.01</ele>
        <time>2015-08-15T18:36:41Z</time>
      </trkpt>
      <trkpt lat="47.34814" lon="0.87647">
        <ele>53.49</ele>
        <time>2015-08-15T18:36:54Z</time>
      </trkpt>
      <trkpt lat="47.34808" lon="0.87696">
        <ele>53.49</ele>
        <time>2015-08-15T18:37:07Z</time>
      </trkpt>
      <trkpt lat="47.348" lon="0.87718">
        <ele>53.01</ele>
        <time>2015-08-15T18:37:18Z</time>
      </trkpt>
      <trkpt lat="47.348" lon="0.87721">
        <ele>53.01</ele>
        <time>2015-08-15T18:37:21Z</time>
      </trkpt>
      <trkpt lat="47.348" lon="0.87723">
        <ele>53.01</ele>
        <time>2015-08-15T18:37:45Z</time>
      </trkpt>
      <trkpt lat="47.34802" lon="0.87729">
        <ele>53.49</ele>
        <time>2015-08-15T18:37:58Z</time>
      </trkpt>
      <trkpt lat="47.34811" lon="0.87741">
        <ele>51.57</ele>
        <time>2015-08-15T18:38:12Z</time>
      </trkpt>
      <trkpt lat="47.34814" lon="0.87733">
        <ele>51.57</ele>
        <time>2015-08-15T18:38:23Z</time>
      </trkpt>
      <trkpt lat="47.34814" lon="0.87732">
        <ele>51.57</ele>
        <time>2015-08-15T18:38:25Z</time>
      </trkpt>
      <trkpt lat="47.34814" lon="0.87747">
        <ele>51.57</ele>
        <time>2015-08-15T18:38:35Z</time>
      </trkpt>
      <trkpt lat="47.34807" lon="0.87793">
        <ele>52.05</ele>
        <time>2015-08-15T18:38:46Z</time>
      </trkpt>
      <trkpt lat="47.34801" lon="0.87834">
        <ele>52.05</ele>
        <time>2015-08-15T18:38:57Z</time>
      </trkpt>
      <trkpt lat="47.34797" lon="0.87887">
        <ele>52.05</ele>
        <time>2015-08-15T18:39:09Z</time>
      </trkpt>
      <trkpt lat="47.34791" lon="0.87944">
        <ele>52.53</ele>
        <time>2015-08-15T18:39:22Z</time>
      </trkpt>
      <trkpt lat="47.34792" lon="0.88004">
        <ele>52.53</ele>
        <time>2015-08-15T18:39:35Z</time>
      </trkpt>
      <trkpt lat="47.3479" lon="0.88047">
        <ele>52.53</ele>
        <time>2015-08-15T18:39:47Z</time>
      </trkpt>
      <trkpt lat="47.34785" lon="0.88098">
        <ele>52.53</ele>
        <time>2015-08-15T18:39:57Z</time>
      </trkpt>
      <trkpt lat="47.3478" lon="0.88161">
        <ele>52.53</ele>
        <time>2015-08-15T18:40:12Z</time>
      </trkpt>
      <trkpt lat="47.34782" lon="0.88177">
        <ele>52.53</ele>
        <time>2015-08-15T18:40:33Z</time>
      </trkpt>
      <trkpt lat="47.34781" lon="0.88195">
        <ele>52.53</ele>
        <time>2015-08-15T18:40:44Z</time>
      </trkpt>
      <trkpt lat="47.3478" lon="0.88199">
        <ele>52.05</ele>
        <time>2015-08-15T18:40:46Z</time>
      </trkpt>
      <trkpt lat="47.34777" lon="0.88241">
        <ele>52.05</ele>
        <time>2015-08-15T18:40:57Z</time>
      </trkpt>
      <trkpt lat="47.3477" lon="0.88294">
        <ele>51.57</ele>
        <time>2015-08-15T18:41:10Z</time>
      </trkpt>
      <trkpt lat="47.34766" lon="0.88301">
        <ele>51.57</ele>
        <time>2015-08-15T18:41:13Z</time>
      </trkpt>
      <trkpt lat="47.34763" lon="0.88306">
        <ele>52.05</ele>
        <time>2015-08-15T18:41:15Z</time>
      </trkpt>
      <trkpt lat="47.34758" lon="0.88316">
        <ele>52.05</ele>
        <time>2015-08-15T18:41:19Z</time>
      </trkpt>
      <trkpt lat="47.34758" lon="0.88322">
        <ele>52.05</ele>
        <time>2015-08-15T18:41:22Z</time>
      </trkpt>
      <trkpt lat="47.34761" lon="0.88344">
        <ele>51.57</ele>
        <time>2015-08-15T18:41:34Z</time>
      </trkpt>
      <trkpt lat="47.34764" lon="0.88354">
        <ele>51.57</ele>
        <time>2015-08-15T18:41:38Z</time>
      </trkpt>
      <trkpt lat="47.34765" lon="0.88363">
        <ele>51.57</ele>
        <time>2015-08-15T18:41:41Z</time>
      </trkpt>
      <trkpt lat="47.34768" lon="0.88407">
        <ele>51.57</ele>
        <time>2015-08-15T18:41:53Z</time>
      </trkpt>
      <trkpt lat="47.34766" lon="0.88463">
        <ele>51.57</ele>
        <time>2015-08-15T18:42:07Z</time>
      </trkpt>
      <trkpt lat="47.34768" lon="0.88531">
        <ele>51.57</ele>
        <time>2015-08-15T18:42:23Z</time>
      </trkpt>
      <trkpt lat="47.34764" lon="0.88616">
        <ele>51.57</ele>
        <time>2015-08-15T18:42:41Z</time>
      </trkpt>
      <trkpt lat="47.34754" lon="0.88685">
        <ele>52.05</ele>
        <time>2015-08-15T18:42:55Z</time>
      </trkpt>
      <trkpt lat="47.34744" lon="0.88754">
        <ele>51.57</ele>
        <time>2015-08-15T18:43:09Z</time>
      </trkpt>
      <trkpt lat="47.34734" lon="0.88806">
        <ele>52.05</ele>
        <time>2015-08-15T18:43:21Z</time>
      </trkpt>
      <trkpt lat="47.34722" lon="0.8885">
        <ele>52.05</ele>
        <time>2015-08-15T18:43:33Z</time>
      </trkpt>
      <trkpt lat="47.34706" lon="0.88907">
        <ele>52.53</ele>
        <time>2015-08-15T18:43:46Z</time>
      </trkpt>
      <trkpt lat="47.34688" lon="0.88937">
        <ele>53.01</ele>
        <time>2015-08-15T18:43:55Z</time>
      </trkpt>
      <trkpt lat="47.34683" lon="0.88965">
        <ele>53.01</ele>
        <time>2015-08-15T18:44:00Z</time>
      </trkpt>
      <trkpt lat="47.34668" lon="0.89007">
        <ele>52.53</ele>
        <time>2015-08-15T18:44:10Z</time>
      </trkpt>
      <trkpt lat="47.34648" lon="0.89055">
        <ele>52.53</ele>
        <time>2015-08-15T18:44:21Z</time>
      </trkpt>
      <trkpt lat="47.34645" lon="0.89058">
        <ele>52.53</ele>
        <time>2015-08-15T18:44:22Z</time>
      </trkpt>
      <trkpt lat="47.34642" lon="0.89062">
        <ele>52.53</ele>
        <time>2015-08-15T18:44:23Z</time>
      </trkpt>
      <trkpt lat="47.34639" lon="0.89066">
        <ele>53.01</ele>
        <time>2015-08-15T18:44:24Z</time>
      </trkpt>
      <trkpt lat="47.34637" lon="0.8907">
        <ele>53.01</ele>
        <time>2015-08-15T18:44:25Z</time>
      </trkpt>
      <trkpt lat="47.34636" lon="0.89074">
        <ele>52.53</ele>
        <time>2015-08-15T18:44:26Z</time>
      </trkpt>
      <trkpt lat="47.34636" lon="0.89078">
        <ele>52.53</ele>
        <time>2015-08-15T18:44:27Z</time>
      </trkpt>
      <trkpt lat="47.34635" lon="0.89082">
        <ele>53.01</ele>
        <time>2015-08-15T18:44:28Z</time>
      </trkpt>
      <trkpt lat="47.34613" lon="0.8911">
        <ele>54.45</ele>
        <time>2015-08-15T18:44:36Z</time>
      </trkpt>
      <trkpt lat="47.34592" lon="0.89166">
        <ele>56.86</ele>
        <time>2015-08-15T18:44:50Z</time>
      </trkpt>
      <trkpt lat="47.34587" lon="0.89181">
        <ele>53.97</ele>
        <time>2015-08-15T18:44:55Z</time>
      </trkpt>
      <trkpt lat="47.34572" lon="0.89233">
        <ele>54.93</ele>
        <time>2015-08-15T18:45:09Z</time>
      </trkpt>
      <trkpt lat="47.34556" lon="0.89288">
        <ele>54.45</ele>
        <time>2015-08-15T18:45:23Z</time>
      </trkpt>
      <trkpt lat="47.34544" lon="0.8934">
        <ele>54.45</ele>
        <time>2015-08-15T18:45:37Z</time>
      </trkpt>
      <trkpt lat="47.34541" lon="0.8935">
        <ele>54.45</ele>
        <time>2015-08-15T18:45:41Z</time>
      </trkpt>
      <trkpt lat="47.34538" lon="0.8936">
        <ele>54.93</ele>
        <time>2015-08-15T18:45:44Z</time>
      </trkpt>
      <trkpt lat="47.34537" lon="0.89374">
        <ele>54.45</ele>
        <time>2015-08-15T18:45:48Z</time>
      </trkpt>
      <trkpt lat="47.34535" lon="0.89381">
        <ele>54.45</ele>
        <time>2015-08-15T18:45:50Z</time>
      </trkpt>
      <trkpt lat="47.3453" lon="0.8941">
        <ele>54.93</ele>
        <time>2015-08-15T18:46:01Z</time>
      </trkpt>
      <trkpt lat="47.3453" lon="0.89414">
        <ele>54.45</ele>
        <time>2015-08-15T18:46:06Z</time>
      </trkpt>
      <trkpt lat="47.34529" lon="0.89413">
        <ele>54.45</ele>
        <time>2015-08-15T18:46:29Z</time>
      </trkpt>
      <trkpt lat="47.34528" lon="0.89413">
        <ele>54.45</ele>
        <time>2015-08-15T18:47:01Z</time>
      </trkpt>
      <trkpt lat="47.34524" lon="0.89409">
        <ele>54.93</ele>
        <time>2015-08-15T18:47:13Z</time>
      </trkpt>
      <trkpt lat="47.34521" lon="0.89409">
        <ele>55.41</ele>
        <time>2015-08-15T18:47:15Z</time>
      </trkpt>
      <trkpt lat="47.34516" lon="0.89402">
        <ele>55.89</ele>
        <time>2015-08-15T18:47:19Z</time>
      </trkpt>
      <trkpt lat="47.34516" lon="0.89403">
        <ele>56.37</ele>
        <time>2015-08-15T18:47:28Z</time>
      </trkpt>
      <trkpt lat="47.34526" lon="0.89412">
        <ele>54.45</ele>
        <time>2015-08-15T18:47:37Z</time>
      </trkpt>
      <trkpt lat="47.34527" lon="0.89414">
        <ele>54.45</ele>
        <time>2015-08-15T18:47:38Z</time>
      </trkpt>
      <trkpt lat="47.34527" lon="0.89416">
        <ele>54.45</ele>
        <time>2015-08-15T18:47:39Z</time>
      </trkpt>
      <trkpt lat="47.34525" lon="0.89421">
        <ele>54.45</ele>
        <time>2015-08-15T18:47:42Z</time>
      </trkpt>
      <trkpt lat="47.34523" lon="0.89427">
        <ele>54.45</ele>
        <time>2015-08-15T18:47:46Z</time>
      </trkpt>
      <trkpt lat="47.34523" lon="0.89429">
        <ele>54.45</ele>
        <time>2015-08-15T18:47:47Z</time>
      </trkpt>
      <trkpt lat="47.34522" lon="0.89431">
        <ele>54.45</ele>
        <time>2015-08-15T18:47:48Z</time>
      </trkpt>
      <trkpt lat="47.34522" lon="0.89433">
        <ele>54.45</ele>
        <time>2015-08-15T18:47:49Z</time>
      </trkpt>
      <trkpt lat="47.34519" lon="0.89451">
        <ele>54.45</ele>
        <time>2015-08-15T18:47:56Z</time>
      </trkpt>
      <trkpt lat="47.34504" lon="0.89515">
        <ele>54.45</ele>
        <time>2015-08-15T18:48:11Z</time>
      </trkpt>
      <trkpt lat="47.34493" lon="0.89568">
        <ele>54.45</ele>
        <time>2015-08-15T18:48:25Z</time>
      </trkpt>
      <trkpt lat="47.34493" lon="0.8957">
        <ele>54.45</ele>
        <time>2015-08-15T18:48:26Z</time>
      </trkpt>
      <trkpt lat="47.34493" lon="0.89573">
        <ele>54.45</ele>
        <time>2015-08-15T18:48:28Z</time>
      </trkpt>
      <trkpt lat="47.34493" lon="0.89578">
        <ele>54.45</ele>
        <time>2015-08-15T18:48:35Z</time>
      </trkpt>
      <trkpt lat="47.34493" lon="0.89579">
        <ele>54.45</ele>
        <time>2015-08-15T18:48:36Z</time>
      </trkpt>
      <trkpt lat="47.34493" lon="0.89581">
        <ele>53.97</ele>
        <time>2015-08-15T18:49:04Z</time>
      </trkpt>
      <trkpt lat="47.34494" lon="0.89581">
        <ele>53.97</ele>
        <time>2015-08-15T18:49:40Z</time>
      </trkpt>
      <trkpt lat="47.34493" lon="0.8958">
        <ele>54.45</ele>
        <time>2015-08-15T18:50:03Z</time>
      </trkpt>
      <trkpt lat="47.34492" lon="0.89586">
        <ele>54.45</ele>
        <time>2015-08-15T18:50:12Z</time>
      </trkpt>
      <trkpt lat="47.34477" lon="0.89655">
        <ele>54.45</ele>
        <time>2015-08-15T18:50:25Z</time>
      </trkpt>
      <trkpt lat="47.34461" lon="0.89717">
        <ele>54.45</ele>
        <time>2015-08-15T18:50:38Z</time>
      </trkpt>
      <trkpt lat="47.34446" lon="0.89769">
        <ele>54.45</ele>
        <time>2015-08-15T18:50:50Z</time>
      </trkpt>
      <trkpt lat="47.34427" lon="0.89796">
        <ele>54.45</ele>
        <time>2015-08-15T18:51:00Z</time>
      </trkpt>
      <trkpt lat="47.34387" lon="0.89785">
        <ele>54.93</ele>
        <time>2015-08-15T18:51:12Z</time>
      </trkpt>
      <trkpt lat="47.34348" lon="0.89766">
        <ele>55.41</ele>
        <time>2015-08-15T18:51:23Z</time>
      </trkpt>
      <trkpt lat="47.3433" lon="0.89758">
        <ele>55.89</ele>
        <time>2015-08-15T18:51:39Z</time>
      </trkpt>
      <trkpt lat="47.34327" lon="0.89754">
        <ele>55.89</ele>
        <time>2015-08-15T18:51:52Z</time>
      </trkpt>
      <trkpt lat="47.34326" lon="0.89753">
        <ele>55.89</ele>
        <time>2015-08-15T18:51:53Z</time>
      </trkpt>
      <trkpt lat="47.34324" lon="0.89752">
        <ele>56.37</ele>
        <time>2015-08-15T18:51:54Z</time>
      </trkpt>
      <trkpt lat="47.34323" lon="0.89751">
        <ele>56.37</ele>
        <time>2015-08-15T18:51:55Z</time>
      </trkpt>
      <trkpt lat="47.34322" lon="0.8975">
        <ele>56.37</ele>
        <time>2015-08-15T18:51:56Z</time>
      </trkpt>
      <trkpt lat="47.3432" lon="0.8975">
        <ele>55.89</ele>
        <time>2015-08-15T18:51:57Z</time>
      </trkpt>
      <trkpt lat="47.34319" lon="0.89749">
        <ele>56.37</ele>
        <time>2015-08-15T18:51:58Z</time>
      </trkpt>
      <trkpt lat="47.34317" lon="0.89751">
        <ele>56.37</ele>
        <time>2015-08-15T18:52:00Z</time>
      </trkpt>
      <trkpt lat="47.34299" lon="0.898">
        <ele>54.93</ele>
        <time>2015-08-15T18:52:15Z</time>
      </trkpt>
      <trkpt lat="47.34288" lon="0.89873">
        <ele>55.89</ele>
        <time>2015-08-15T18:52:28Z</time>
      </trkpt>
      <trkpt lat="47.34296" lon="0.89934">
        <ele>55.89</ele>
        <time>2015-08-15T18:52:41Z</time>
      </trkpt>
      <trkpt lat="47.34298" lon="0.90014">
        <ele>55.41</ele>
        <time>2015-08-15T18:52:57Z</time>
      </trkpt>
      <trkpt lat="47.34282" lon="0.90099">
        <ele>55.89</ele>
        <time>2015-08-15T18:53:12Z</time>
      </trkpt>
      <trkpt lat="47.34281" lon="0.90105">
        <ele>55.41</ele>
        <time>2015-08-15T18:53:13Z</time>
      </trkpt>
      <trkpt lat="47.34273" lon="0.90151">
        <ele>55.89</ele>
        <time>2015-08-15T18:53:21Z</time>
      </trkpt>
      <trkpt lat="47.34251" lon="0.9025">
        <ele>55.41</ele>
        <time>2015-08-15T18:53:39Z</time>
      </trkpt>
      <trkpt lat="47.34232" lon="0.90343">
        <ele>55.89</ele>
        <time>2015-08-15T18:53:55Z</time>
      </trkpt>
      <trkpt lat="47.34217" lon="0.9042">
        <ele>55.89</ele>
        <time>2015-08-15T18:54:08Z</time>
      </trkpt>
      <trkpt lat="47.34203" lon="0.9048">
        <ele>56.37</ele>
        <time>2015-08-15T18:54:19Z</time>
      </trkpt>
      <trkpt lat="47.34189" lon="0.90544">
        <ele>56.37</ele>
        <time>2015-08-15T18:54:32Z</time>
      </trkpt>
      <trkpt lat="47.34182" lon="0.90626">
        <ele>55.89</ele>
        <time>2015-08-15T18:54:49Z</time>
      </trkpt>
      <trkpt lat="47.34177" lon="0.90683">
        <ele>54.45</ele>
        <time>2015-08-15T18:55:02Z</time>
      </trkpt>
      <trkpt lat="47.3417" lon="0.90747">
        <ele>54.45</ele>
        <time>2015-08-15T18:55:17Z</time>
      </trkpt>
      <trkpt lat="47.3417" lon="0.90802">
        <ele>53.97</ele>
        <time>2015-08-15T18:55:30Z</time>
      </trkpt>
      <trkpt lat="47.34169" lon="0.90806">
        <ele>53.97</ele>
        <time>2015-08-15T18:55:31Z</time>
      </trkpt>
      <trkpt lat="47.34169" lon="0.90809">
        <ele>53.97</ele>
        <time>2015-08-15T18:55:32Z</time>
      </trkpt>
      <trkpt lat="47.34169" lon="0.90812">
        <ele>53.97</ele>
        <time>2015-08-15T18:55:33Z</time>
      </trkpt>
      <trkpt lat="47.34169" lon="0.90815">
        <ele>53.97</ele>
        <time>2015-08-15T18:55:34Z</time>
      </trkpt>
      <trkpt lat="47.34168" lon="0.90817">
        <ele>53.97</ele>
        <time>2015-08-15T18:55:35Z</time>
      </trkpt>
      <trkpt lat="47.34168" lon="0.9082">
        <ele>53.97</ele>
        <time>2015-08-15T18:55:36Z</time>
      </trkpt>
      <trkpt lat="47.34168" lon="0.90822">
        <ele>53.97</ele>
        <time>2015-08-15T18:55:37Z</time>
      </trkpt>
      <trkpt lat="47.34168" lon="0.90824">
        <ele>53.97</ele>
        <time>2015-08-15T18:55:38Z</time>
      </trkpt>
      <trkpt lat="47.34168" lon="0.90826">
        <ele>53.97</ele>
        <time>2015-08-15T18:55:39Z</time>
      </trkpt>
      <trkpt lat="47.34168" lon="0.90828">
        <ele>53.97</ele>
        <time>2015-08-15T18:55:40Z</time>
      </trkpt>
      <trkpt lat="47.34168" lon="0.9083">
        <ele>53.97</ele>
        <time>2015-08-15T18:55:41Z</time>
      </trkpt>
      <trkpt lat="47.3417" lon="0.90833">
        <ele>53.97</ele>
        <time>2015-08-15T18:55:43Z</time>
      </trkpt>
      <trkpt lat="47.34171" lon="0.90835">
        <ele>53.97</ele>
        <time>2015-08-15T18:55:44Z</time>
      </trkpt>
      <trkpt lat="47.34172" lon="0.90837">
        <ele>53.97</ele>
        <time>2015-08-15T18:55:45Z</time>
      </trkpt>
      <trkpt lat="47.34173" lon="0.90838">
        <ele>53.97</ele>
        <time>2015-08-15T18:55:46Z</time>
      </trkpt>
      <trkpt lat="47.34174" lon="0.90839">
        <ele>53.97</ele>
        <time>2015-08-15T18:55:47Z</time>
      </trkpt>
      <trkpt lat="47.34175" lon="0.90841">
        <ele>53.97</ele>
        <time>2015-08-15T18:55:48Z</time>
      </trkpt>
      <trkpt lat="47.34177" lon="0.90841">
        <ele>53.97</ele>
        <time>2015-08-15T18:55:49Z</time>
      </trkpt>
      <trkpt lat="47.34179" lon="0.90841">
        <ele>53.97</ele>
        <time>2015-08-15T18:55:50Z</time>
      </trkpt>
      <trkpt lat="47.3419" lon="0.90824">
        <ele>53.49</ele>
        <time>2015-08-15T18:55:58Z</time>
      </trkpt>
      <trkpt lat="47.34202" lon="0.90797">
        <ele>53.01</ele>
        <time>2015-08-15T18:56:09Z</time>
      </trkpt>
      <trkpt lat="47.34203" lon="0.90795">
        <ele>53.01</ele>
        <time>2015-08-15T18:56:10Z</time>
      </trkpt>
      <trkpt lat="47.34204" lon="0.90793">
        <ele>53.01</ele>
        <time>2015-08-15T18:56:11Z</time>
      </trkpt>
      <trkpt lat="47.34205" lon="0.90792">
        <ele>53.01</ele>
        <time>2015-08-15T18:56:12Z</time>
      </trkpt>
      <trkpt lat="47.34206" lon="0.9079">
        <ele>53.01</ele>
        <time>2015-08-15T18:56:13Z</time>
      </trkpt>
      <trkpt lat="47.34208" lon="0.9079">
        <ele>52.53</ele>
        <time>2015-08-15T18:56:14Z</time>
      </trkpt>
      <trkpt lat="47.34209" lon="0.9079">
        <ele>52.53</ele>
        <time>2015-08-15T18:56:15Z</time>
      </trkpt>
      <trkpt lat="47.34211" lon="0.9079">
        <ele>52.53</ele>
        <time>2015-08-15T18:56:18Z</time>
      </trkpt>
      <trkpt lat="47.34211" lon="0.90791">
        <ele>52.53</ele>
        <time>2015-08-15T18:56:29Z</time>
      </trkpt>
      <trkpt lat="47.3421" lon="0.90791">
        <ele>52.53</ele>
        <time>2015-08-15T18:56:30Z</time>
      </trkpt>
      <trkpt lat="47.34209" lon="0.9079">
        <ele>52.53</ele>
        <time>2015-08-15T18:56:31Z</time>
      </trkpt>
      <trkpt lat="47.34208" lon="0.9079">
        <ele>53.01</ele>
        <time>2015-08-15T18:56:32Z</time>
      </trkpt>
      <trkpt lat="47.34207" lon="0.9079">
        <ele>53.01</ele>
        <time>2015-08-15T18:56:33Z</time>
      </trkpt>
      <trkpt lat="47.34205" lon="0.9079">
        <ele>53.01</ele>
        <time>2015-08-15T18:56:35Z</time>
      </trkpt>
      <trkpt lat="47.34204" lon="0.90791">
        <ele>53.01</ele>
        <time>2015-08-15T18:56:36Z</time>
      </trkpt>
      <trkpt lat="47.3419" lon="0.90828">
        <ele>53.01</ele>
        <time>2015-08-15T18:56:49Z</time>
      </trkpt>
      <trkpt lat="47.34182" lon="0.90842">
        <ele>53.49</ele>
        <time>2015-08-15T18:56:55Z</time>
      </trkpt>
      <trkpt lat="47.3418" lon="0.90845">
        <ele>53.97</ele>
        <time>2015-08-15T18:56:56Z</time>
      </trkpt>
      <trkpt lat="47.34178" lon="0.90848">
        <ele>53.97</ele>
        <time>2015-08-15T18:56:57Z</time>
      </trkpt>
      <trkpt lat="47.34177" lon="0.90857">
        <ele>53.97</ele>
        <time>2015-08-15T18:57:01Z</time>
      </trkpt>
      <trkpt lat="47.34176" lon="0.90858">
        <ele>53.49</ele>
        <time>2015-08-15T18:57:26Z</time>
      </trkpt>
      <trkpt lat="47.34176" lon="0.90858">
        <ele>53.49</ele>
        <time>2015-08-15T18:57:54Z</time>
      </trkpt>
      <trkpt lat="47.34174" lon="0.90875">
        <ele>53.49</ele>
        <time>2015-08-15T18:58:07Z</time>
      </trkpt>
      <trkpt lat="47.34167" lon="0.90933">
        <ele>53.01</ele>
        <time>2015-08-15T18:58:22Z</time>
      </trkpt>
      <trkpt lat="47.34158" lon="0.90983">
        <ele>53.01</ele>
        <time>2015-08-15T18:58:36Z</time>
      </trkpt>
      <trkpt lat="47.34146" lon="0.91021">
        <ele>53.01</ele>
        <time>2015-08-15T18:58:50Z</time>
      </trkpt>
      <trkpt lat="47.34145" lon="0.91023">
        <ele>53.01</ele>
        <time>2015-08-15T18:58:51Z</time>
      </trkpt>
      <trkpt lat="47.34145" lon="0.91027">
        <ele>53.01</ele>
        <time>2015-08-15T18:58:53Z</time>
      </trkpt>
      <trkpt lat="47.34146" lon="0.91028">
        <ele>53.01</ele>
        <time>2015-08-15T18:58:54Z</time>
      </trkpt>
      <trkpt lat="47.34147" lon="0.9103">
        <ele>53.01</ele>
        <time>2015-08-15T18:58:55Z</time>
      </trkpt>
      <trkpt lat="47.34169" lon="0.91051">
        <ele>52.05</ele>
        <time>2015-08-15T18:59:09Z</time>
      </trkpt>
      <trkpt lat="47.3417" lon="0.91054">
        <ele>52.05</ele>
        <time>2015-08-15T18:59:10Z</time>
      </trkpt>
      <trkpt lat="47.34171" lon="0.91056">
        <ele>52.05</ele>
        <time>2015-08-15T18:59:11Z</time>
      </trkpt>
      <trkpt lat="47.34171" lon="0.91058">
        <ele>52.05</ele>
        <time>2015-08-15T18:59:12Z</time>
      </trkpt>
      <trkpt lat="47.34172" lon="0.9106">
        <ele>52.05</ele>
        <time>2015-08-15T18:59:13Z</time>
      </trkpt>
      <trkpt lat="47.34175" lon="0.91063">
        <ele>51.57</ele>
        <time>2015-08-15T18:59:17Z</time>
      </trkpt>
      <trkpt lat="47.34176" lon="0.91064">
        <ele>51.57</ele>
        <time>2015-08-15T18:59:18Z</time>
      </trkpt>
      <trkpt lat="47.34176" lon="0.91067">
        <ele>51.57</ele>
        <time>2015-08-15T18:59:34Z</time>
      </trkpt>
      <trkpt lat="47.34177" lon="0.91067">
        <ele>51.57</ele>
        <time>2015-08-15T19:00:00Z</time>
      </trkpt>
      <trkpt lat="47.34176" lon="0.91066">
        <ele>51.57</ele>
        <time>2015-08-15T19:00:22Z</time>
      </trkpt>
      <trkpt lat="47.34175" lon="0.91066">
        <ele>50.61</ele>
        <time>2015-08-15T19:00:48Z</time>
      </trkpt>
      <trkpt lat="47.34175" lon="0.91066">
        <ele>50.13</ele>
        <time>2015-08-15T19:00:49Z</time>
      </trkpt>
      <trkpt lat="47.34175" lon="0.91066">
        <ele>53.97</ele>
        <time>2015-08-15T19:00:50Z</time>
      </trkpt>
      <trkpt lat="47.34175" lon="0.91066">
        <ele>50.13</ele>
        <time>2015-08-15T19:00:52Z</time>
      </trkpt>
      <trkpt lat="47.34175" lon="0.91066">
        <ele>54.93</ele>
        <time>2015-08-15T19:00:53Z</time>
      </trkpt>
      <trkpt lat="47.34175" lon="0.91066">
        <ele>47.72</ele>
        <time>2015-08-15T19:00:54Z</time>
      </trkpt>
      <trkpt lat="47.34176" lon="0.91067">
        <ele>51.57</ele>
        <time>2015-08-15T19:01:00Z</time>
      </trkpt>
      <trkpt lat="47.34175" lon="0.91066">
        <ele>51.57</ele>
        <time>2015-08-15T19:01:27Z</time>
      </trkpt>
      <trkpt lat="47.34166" lon="0.91045">
        <ele>52.05</ele>
        <time>2015-08-15T19:01:40Z</time>
      </trkpt>
      <trkpt lat="47.34146" lon="0.91032">
        <ele>52.53</ele>
        <time>2015-08-15T19:01:51Z</time>
      </trkpt>
      <trkpt lat="47.34144" lon="0.9103">
        <ele>52.53</ele>
        <time>2015-08-15T19:01:52Z</time>
      </trkpt>
      <trkpt lat="47.34143" lon="0.91029">
        <ele>53.01</ele>
        <time>2015-08-15T19:01:53Z</time>
      </trkpt>
      <trkpt lat="47.3414" lon="0.91028">
        <ele>53.01</ele>
        <time>2015-08-15T19:02:03Z</time>
      </trkpt>
      <trkpt lat="47.34122" lon="0.91076">
        <ele>53.49</ele>
        <time>2015-08-15T19:02:16Z</time>
      </trkpt>
      <trkpt lat="47.34106" lon="0.91149">
        <ele>53.01</ele>
        <time>2015-08-15T19:02:31Z</time>
      </trkpt>
      <trkpt lat="47.34093" lon="0.91216">
        <ele>52.53</ele>
        <time>2015-08-15T19:02:45Z</time>
      </trkpt>
      <trkpt lat="47.34075" lon="0.91301">
        <ele>53.01</ele>
        <time>2015-08-15T19:03:01Z</time>
      </trkpt>
      <trkpt lat="47.34054" lon="0.91395">
        <ele>53.49</ele>
        <time>2015-08-15T19:03:19Z</time>
      </trkpt>
      <trkpt lat="47.34041" lon="0.91459">
        <ele>53.49</ele>
        <time>2015-08-15T19:03:32Z</time>
      </trkpt>
      <trkpt lat="47.34025" lon="0.9154">
        <ele>53.01</ele>
        <time>2015-08-15T19:03:48Z</time>
      </trkpt>
      <trkpt lat="47.34014" lon="0.91592">
        <ele>53.49</ele>
        <time>2015-08-15T19:03:59Z</time>
      </trkpt>
      <trkpt lat="47.34001" lon="0.91663">
        <ele>53.01</ele>
        <time>2015-08-15T19:04:13Z</time>
      </trkpt>
      <trkpt lat="47.34" lon="0.91669">
        <ele>53.01</ele>
        <time>2015-08-15T19:04:14Z</time>
      </trkpt>
      <trkpt lat="47.33999" lon="0.91675">
        <ele>53.01</ele>
        <time>2015-08-15T19:04:15Z</time>
      </trkpt>
      <trkpt lat="47.33995" lon="0.91711">
        <ele>53.01</ele>
        <time>2015-08-15T19:04:21Z</time>
      </trkpt>
      <trkpt lat="47.33991" lon="0.91742">
        <ele>53.49</ele>
        <time>2015-08-15T19:04:29Z</time>
      </trkpt>
      <trkpt lat="47.3399" lon="0.91744">
        <ele>53.49</ele>
        <time>2015-08-15T19:04:49Z</time>
      </trkpt>
      <trkpt lat="47.3399" lon="0.91755">
        <ele>53.97</ele>
        <time>2015-08-15T19:05:01Z</time>
      </trkpt>
      <trkpt lat="47.33996" lon="0.91764">
        <ele>53.01</ele>
        <time>2015-08-15T19:05:06Z</time>
      </trkpt>
      <trkpt lat="47.34018" lon="0.91772">
        <ele>52.05</ele>
        <time>2015-08-15T19:05:16Z</time>
      </trkpt>
      <trkpt lat="47.34055" lon="0.91788">
        <ele>52.05</ele>
        <time>2015-08-15T19:05:30Z</time>
      </trkpt>
      <trkpt lat="47.34104" lon="0.91809">
        <ele>52.53</ele>
        <time>2015-08-15T19:05:48Z</time>
      </trkpt>
      <trkpt lat="47.34143" lon="0.91828">
        <ele>52.05</ele>
        <time>2015-08-15T19:06:05Z</time>
      </trkpt>
      <trkpt lat="47.34151" lon="0.91832">
        <ele>52.05</ele>
        <time>2015-08-15T19:06:10Z</time>
      </trkpt>
      <trkpt lat="47.34152" lon="0.91832">
        <ele>52.05</ele>
        <time>2015-08-15T19:06:19Z</time>
      </trkpt>
      <trkpt lat="47.34153" lon="0.91832">
        <ele>52.05</ele>
        <time>2015-08-15T19:06:43Z</time>
      </trkpt>
      <trkpt lat="47.34159" lon="0.91834">
        <ele>52.05</ele>
        <time>2015-08-15T19:06:56Z</time>
      </trkpt>
      <trkpt lat="47.34163" lon="0.9188">
        <ele>51.57</ele>
        <time>2015-08-15T19:07:08Z</time>
      </trkpt>
      <trkpt lat="47.34161" lon="0.91946">
        <ele>52.05</ele>
        <time>2015-08-15T19:07:23Z</time>
      </trkpt>
      <trkpt lat="47.34153" lon="0.92006">
        <ele>51.57</ele>
        <time>2015-08-15T19:07:38Z</time>
      </trkpt>
      <trkpt lat="47.34138" lon="0.92069">
        <ele>52.05</ele>
        <time>2015-08-15T19:07:53Z</time>
      </trkpt>
      <trkpt lat="47.34121" lon="0.92125">
        <ele>52.05</ele>
        <time>2015-08-15T19:08:07Z</time>
      </trkpt>
      <trkpt lat="47.34109" lon="0.92139">
        <ele>52.05</ele>
        <time>2015-08-15T19:08:13Z</time>
      </trkpt>
      <trkpt lat="47.34101" lon="0.92163">
        <ele>51.57</ele>
        <time>2015-08-15T19:08:20Z</time>
      </trkpt>
      <trkpt lat="47.34096" lon="0.92176">
        <ele>52.05</ele>
        <time>2015-08-15T19:08:24Z</time>
      </trkpt>
      <trkpt lat="47.34082" lon="0.92212">
        <ele>51.57</ele>
        <time>2015-08-15T19:08:36Z</time>
      </trkpt>
      <trkpt lat="47.34064" lon="0.92249">
        <ele>51.57</ele>
        <time>2015-08-15T19:08:49Z</time>
      </trkpt>
      <trkpt lat="47.34046" lon="0.92303">
        <ele>51.57</ele>
        <time>2015-08-15T19:09:06Z</time>
      </trkpt>
      <trkpt lat="47.34027" lon="0.92356">
        <ele>51.57</ele>
        <time>2015-08-15T19:09:23Z</time>
      </trkpt>
      <trkpt lat="47.34013" lon="0.92396">
        <ele>51.57</ele>
        <time>2015-08-15T19:09:37Z</time>
      </trkpt>
      <trkpt lat="47.33993" lon="0.92443">
        <ele>51.57</ele>
        <time>2015-08-15T19:09:53Z</time>
      </trkpt>
      <trkpt lat="47.33976" lon="0.92482">
        <ele>51.57</ele>
        <time>2015-08-15T19:10:08Z</time>
      </trkpt>
      <trkpt lat="47.33955" lon="0.92523">
        <ele>51.57</ele>
        <time>2015-08-15T19:10:24Z</time>
      </trkpt>
      <trkpt lat="47.33938" lon="0.92551">
        <ele>51.09</ele>
        <time>2015-08-15T19:10:37Z</time>
      </trkpt>
      <trkpt lat="47.33933" lon="0.9256">
        <ele>51.09</ele>
        <time>2015-08-15T19:10:48Z</time>
      </trkpt>
      <trkpt lat="47.33928" lon="0.9257">
        <ele>51.09</ele>
        <time>2015-08-15T19:11:02Z</time>
      </trkpt>
      <trkpt lat="47.33927" lon="0.9257">
        <ele>51.09</ele>
        <time>2015-08-15T19:11:33Z</time>
      </trkpt>
      <trkpt lat="47.33926" lon="0.92571">
        <ele>51.09</ele>
        <time>2015-08-15T19:12:11Z</time>
      </trkpt>
      <trkpt lat="47.33926" lon="0.92571">
        <ele>51.09</ele>
        <time>2015-08-15T19:12:49Z</time>
      </trkpt>
      <trkpt lat="47.33926" lon="0.9257">
        <ele>51.09</ele>
        <time>2015-08-15T19:13:25Z</time>
      </trkpt>
      <trkpt lat="47.33927" lon="0.92571">
        <ele>51.09</ele>
        <time>2015-08-15T19:13:59Z</time>
      </trkpt>
      <trkpt lat="47.33927" lon="0.92571">
        <ele>54.45</ele>
        <time>2015-08-15T19:14:00Z</time>
      </trkpt>
      <trkpt lat="47.33927" lon="0.92571">
        <ele>50.61</ele>
        <time>2015-08-15T19:14:01Z</time>
      </trkpt>
      <trkpt lat="47.33927" lon="0.92571">
        <ele>47.24</ele>
        <time>2015-08-15T19:14:02Z</time>
      </trkpt>
      <trkpt lat="47.33927" lon="0.92571">
        <ele>50.61</ele>
        <time>2015-08-15T19:14:18Z</time>
      </trkpt>
      <trkpt lat="47.33927" lon="0.92571">
        <ele>52.05</ele>
        <time>2015-08-15T19:14:47Z</time>
      </trkpt>
      <trkpt lat="47.33927" lon="0.92571">
        <ele>48.2</ele>
        <time>2015-08-15T19:14:48Z</time>
      </trkpt>
      <trkpt lat="47.33927" lon="0.92571">
        <ele>52.53</ele>
        <time>2015-08-15T19:14:49Z</time>
      </trkpt>
      <trkpt lat="47.33927" lon="0.92571">
        <ele>47.24</ele>
        <time>2015-08-15T19:14:50Z</time>
      </trkpt>
      <trkpt lat="47.33927" lon="0.92571">
        <ele>53.01</ele>
        <time>2015-08-15T19:14:52Z</time>
      </trkpt>
      <trkpt lat="47.33927" lon="0.92571">
        <ele>46.76</ele>
        <time>2015-08-15T19:14:53Z</time>
      </trkpt>
      <trkpt lat="47.33927" lon="0.92572">
        <ele>50.13</ele>
        <time>2015-08-15T19:15:14Z</time>
      </trkpt>
      <trkpt lat="47.33928" lon="0.92571">
        <ele>50.13</ele>
        <time>2015-08-15T19:15:48Z</time>
      </trkpt>
      <trkpt lat="47.33928" lon="0.92572">
        <ele>50.13</ele>
        <time>2015-08-15T19:16:23Z</time>
      </trkpt>
      <trkpt lat="47.33928" lon="0.92572">
        <ele>52.53</ele>
        <time>2015-08-15T19:16:49Z</time>
      </trkpt>
      <trkpt lat="47.33928" lon="0.92572">
        <ele>48.68</ele>
        <time>2015-08-15T19:16:56Z</time>
      </trkpt>
      <trkpt lat="47.33928" lon="0.92572">
        <ele>50.61</ele>
        <time>2015-08-15T19:16:59Z</time>
      </trkpt>
      <trkpt lat="47.33928" lon="0.92572">
        <ele>46.76</ele>
        <time>2015-08-15T19:17:00Z</time>
      </trkpt>
      <trkpt lat="47.33928" lon="0.92572">
        <ele>49.65</ele>
        <time>2015-08-15T19:17:07Z</time>
      </trkpt>
      <trkpt lat="47.33924" lon="0.92583">
        <ele>49.65</ele>
        <time>2015-08-15T19:17:20Z</time>
      </trkpt>
      <trkpt lat="47.33909" lon="0.92611">
        <ele>49.65</ele>
        <time>2015-08-15T19:17:29Z</time>
      </trkpt>
      <trkpt lat="47.33885" lon="0.9266">
        <ele>49.65</ele>
        <time>2015-08-15T19:17:43Z</time>
      </trkpt>
      <trkpt lat="47.33854" lon="0.92724">
        <ele>49.65</ele>
        <time>2015-08-15T19:18:02Z</time>
      </trkpt>
      <trkpt lat="47.33821" lon="0.92804">
        <ele>49.16</ele>
        <time>2015-08-15T19:18:22Z</time>
      </trkpt>
      <trkpt lat="47.33802" lon="0.92858">
        <ele>49.65</ele>
        <time>2015-08-15T19:18:37Z</time>
      </trkpt>
      <trkpt lat="47.33776" lon="0.92942">
        <ele>49.65</ele>
        <time>2015-08-15T19:18:57Z</time>
      </trkpt>
      <trkpt lat="47.33749" lon="0.93023">
        <ele>49.16</ele>
        <time>2015-08-15T19:19:16Z</time>
      </trkpt>
      <trkpt lat="47.33728" lon="0.93091">
        <ele>49.16</ele>
        <time>2015-08-15T19:19:31Z</time>
      </trkpt>
      <trkpt lat="47.3371" lon="0.93154">
        <ele>49.16</ele>
        <time>2015-08-15T19:19:45Z</time>
      </trkpt>
      <trkpt lat="47.33693" lon="0.93225">
        <ele>49.65</ele>
        <time>2015-08-15T19:19:58Z</time>
      </trkpt>
      <trkpt lat="47.33665" lon="0.93295">
        <ele>50.13</ele>
        <time>2015-08-15T19:20:12Z</time>
      </trkpt>
      <trkpt lat="47.33648" lon="0.93359">
        <ele>50.13</ele>
        <time>2015-08-15T19:20:25Z</time>
      </trkpt>
      <trkpt lat="47.33648" lon="0.93364">
        <ele>50.13</ele>
        <time>2015-08-15T19:20:26Z</time>
      </trkpt>
      <trkpt lat="47.33644" lon="0.9342">
        <ele>50.13</ele>
        <time>2015-08-15T19:20:40Z</time>
      </trkpt>
      <trkpt lat="47.33642" lon="0.93464">
        <ele>49.65</ele>
        <time>2015-08-15T19:20:51Z</time>
      </trkpt>
      <trkpt lat="47.33642" lon="0.93473">
        <ele>50.13</ele>
        <time>2015-08-15T19:20:54Z</time>
      </trkpt>
      <trkpt lat="47.33619" lon="0.93515">
        <ele>50.61</ele>
        <time>2015-08-15T19:21:06Z</time>
      </trkpt>
      <trkpt lat="47.33613" lon="0.93557">
        <ele>50.13</ele>
        <time>2015-08-15T19:21:18Z</time>
      </trkpt>
      <trkpt lat="47.33612" lon="0.9357">
        <ele>50.13</ele>
        <time>2015-08-15T19:21:21Z</time>
      </trkpt>
      <trkpt lat="47.33599" lon="0.93594">
        <ele>50.61</ele>
        <time>2015-08-15T19:21:27Z</time>
      </trkpt>
      <trkpt lat="47.33598" lon="0.93605">
        <ele>50.61</ele>
        <time>2015-08-15T19:21:30Z</time>
      </trkpt>
      <trkpt lat="47.33597" lon="0.93616">
        <ele>50.61</ele>
        <time>2015-08-15T19:21:33Z</time>
      </trkpt>
      <trkpt lat="47.33593" lon="0.9364">
        <ele>51.09</ele>
        <time>2015-08-15T19:21:39Z</time>
      </trkpt>
      <trkpt lat="47.33592" lon="0.93646">
        <ele>50.61</ele>
        <time>2015-08-15T19:21:41Z</time>
      </trkpt>
      <trkpt lat="47.33587" lon="0.93686">
        <ele>51.09</ele>
        <time>2015-08-15T19:21:52Z</time>
      </trkpt>
      <trkpt lat="47.33577" lon="0.93716">
        <ele>51.09</ele>
        <time>2015-08-15T19:22:02Z</time>
      </trkpt>
      <trkpt lat="47.33575" lon="0.93722">
        <ele>50.61</ele>
        <time>2015-08-15T19:22:04Z</time>
      </trkpt>
      <trkpt lat="47.33573" lon="0.93732">
        <ele>50.61</ele>
        <time>2015-08-15T19:22:07Z</time>
      </trkpt>
      <trkpt lat="47.33567" lon="0.93751">
        <ele>51.09</ele>
        <time>2015-08-15T19:22:12Z</time>
      </trkpt>
      <trkpt lat="47.33557" lon="0.93786">
        <ele>51.09</ele>
        <time>2015-08-15T19:22:21Z</time>
      </trkpt>
      <trkpt lat="47.33544" lon="0.93833">
        <ele>51.09</ele>
        <time>2015-08-15T19:22:33Z</time>
      </trkpt>
      <trkpt lat="47.33541" lon="0.93839">
        <ele>50.61</ele>
        <time>2015-08-15T19:22:35Z</time>
      </trkpt>
      <trkpt lat="47.3353" lon="0.93886">
        <ele>52.05</ele>
        <time>2015-08-15T19:22:47Z</time>
      </trkpt>
      <trkpt lat="47.33521" lon="0.93917">
        <ele>51.09</ele>
        <time>2015-08-15T19:22:58Z</time>
      </trkpt>
      <trkpt lat="47.33505" lon="0.93948">
        <ele>52.05</ele>
        <time>2015-08-15T19:23:06Z</time>
      </trkpt>
      <trkpt lat="47.33496" lon="0.9398">
        <ele>52.53</ele>
        <time>2015-08-15T19:23:14Z</time>
      </trkpt>
      <trkpt lat="47.33493" lon="0.9399">
        <ele>52.53</ele>
        <time>2015-08-15T19:23:17Z</time>
      </trkpt>
      <trkpt lat="47.33493" lon="0.94029">
        <ele>53.01</ele>
        <time>2015-08-15T19:23:27Z</time>
      </trkpt>
      <trkpt lat="47.33487" lon="0.94079">
        <ele>53.01</ele>
        <time>2015-08-15T19:23:40Z</time>
      </trkpt>
      <trkpt lat="47.33473" lon="0.9413">
        <ele>53.01</ele>
        <time>2015-08-15T19:23:55Z</time>
      </trkpt>
      <trkpt lat="47.33463" lon="0.94158">
        <ele>53.49</ele>
        <time>2015-08-15T19:24:06Z</time>
      </trkpt>
      <trkpt lat="47.33462" lon="0.94159">
        <ele>53.49</ele>
        <time>2015-08-15T19:24:07Z</time>
      </trkpt>
      <trkpt lat="47.33461" lon="0.9416">
        <ele>53.49</ele>
        <time>2015-08-15T19:24:23Z</time>
      </trkpt>
      <trkpt lat="47.33462" lon="0.94161">
        <ele>53.49</ele>
        <time>2015-08-15T19:24:43Z</time>
      </trkpt>
      <trkpt lat="47.33461" lon="0.94162">
        <ele>53.49</ele>
        <time>2015-08-15T19:25:12Z</time>
      </trkpt>
      <trkpt lat="47.33459" lon="0.94161">
        <ele>53.49</ele>
        <time>2015-08-15T19:25:38Z</time>
      </trkpt>
      <trkpt lat="47.3346" lon="0.9416">
        <ele>53.49</ele>
        <time>2015-08-15T19:26:01Z</time>
      </trkpt>
      <trkpt lat="47.33459" lon="0.94163">
        <ele>53.49</ele>
        <time>2015-08-15T19:26:28Z</time>
      </trkpt>
      <trkpt lat="47.33458" lon="0.94164">
        <ele>53.97</ele>
        <time>2015-08-15T19:26:51Z</time>
      </trkpt>
      <trkpt lat="47.33455" lon="0.94168">
        <ele>53.97</ele>
        <time>2015-08-15T19:27:02Z</time>
      </trkpt>
      <trkpt lat="47.33455" lon="0.9417">
        <ele>53.97</ele>
        <time>2015-08-15T19:27:03Z</time>
      </trkpt>
      <trkpt lat="47.33455" lon="0.94172">
        <ele>53.97</ele>
        <time>2015-08-15T19:27:04Z</time>
      </trkpt>
      <trkpt lat="47.33455" lon="0.94175">
        <ele>53.97</ele>
        <time>2015-08-15T19:27:05Z</time>
      </trkpt>
      <trkpt lat="47.33455" lon="0.94177">
        <ele>53.97</ele>
        <time>2015-08-15T19:27:06Z</time>
      </trkpt>
      <trkpt lat="47.33455" lon="0.9418">
        <ele>53.97</ele>
        <time>2015-08-15T19:27:07Z</time>
      </trkpt>
      <trkpt lat="47.33454" lon="0.94182">
        <ele>53.97</ele>
        <time>2015-08-15T19:27:08Z</time>
      </trkpt>
      <trkpt lat="47.33452" lon="0.94183">
        <ele>53.97</ele>
        <time>2015-08-15T19:27:09Z</time>
      </trkpt>
      <trkpt lat="47.3345" lon="0.94185">
        <ele>53.97</ele>
        <time>2015-08-15T19:27:10Z</time>
      </trkpt>
      <trkpt lat="47.33438" lon="0.94226">
        <ele>54.45</ele>
        <time>2015-08-15T19:27:20Z</time>
      </trkpt>
      <trkpt lat="47.33437" lon="0.94231">
        <ele>53.97</ele>
        <time>2015-08-15T19:27:21Z</time>
      </trkpt>
      <trkpt lat="47.33436" lon="0.94237">
        <ele>53.97</ele>
        <time>2015-08-15T19:27:22Z</time>
      </trkpt>
      <trkpt lat="47.33435" lon="0.94242">
        <ele>53.97</ele>
        <time>2015-08-15T19:27:23Z</time>
      </trkpt>
      <trkpt lat="47.33434" lon="0.94248">
        <ele>53.97</ele>
        <time>2015-08-15T19:27:24Z</time>
      </trkpt>
      <trkpt lat="47.33433" lon="0.94254">
        <ele>53.97</ele>
        <time>2015-08-15T19:27:25Z</time>
      </trkpt>
      <trkpt lat="47.33426" lon="0.94281">
        <ele>54.45</ele>
        <time>2015-08-15T19:27:30Z</time>
      </trkpt>
      <trkpt lat="47.3341" lon="0.94339">
        <ele>54.45</ele>
        <time>2015-08-15T19:27:41Z</time>
      </trkpt>
      <trkpt lat="47.33379" lon="0.944">
        <ele>53.97</ele>
        <time>2015-08-15T19:27:55Z</time>
      </trkpt>
      <trkpt lat="47.33365" lon="0.94459">
        <ele>53.97</ele>
        <time>2015-08-15T19:28:07Z</time>
      </trkpt>
      <trkpt lat="47.33357" lon="0.94523">
        <ele>53.97</ele>
        <time>2015-08-15T19:28:20Z</time>
      </trkpt>
      <trkpt lat="47.33344" lon="0.94611">
        <ele>53.97</ele>
        <time>2015-08-15T19:28:35Z</time>
      </trkpt>
      <trkpt lat="47.33336" lon="0.94632">
        <ele>53.97</ele>
        <time>2015-08-15T19:28:39Z</time>
      </trkpt>
      <trkpt lat="47.33319" lon="0.94717">
        <ele>53.49</ele>
        <time>2015-08-15T19:28:55Z</time>
      </trkpt>
      <trkpt lat="47.33318" lon="0.94723">
        <ele>53.49</ele>
        <time>2015-08-15T19:28:56Z</time>
      </trkpt>
      <trkpt lat="47.33316" lon="0.94729">
        <ele>53.49</ele>
        <time>2015-08-15T19:28:57Z</time>
      </trkpt>
      <trkpt lat="47.33308" lon="0.94785">
        <ele>53.49</ele>
        <time>2015-08-15T19:29:06Z</time>
      </trkpt>
      <trkpt lat="47.33307" lon="0.94791">
        <ele>53.49</ele>
        <time>2015-08-15T19:29:07Z</time>
      </trkpt>
      <trkpt lat="47.33306" lon="0.94798">
        <ele>53.01</ele>
        <time>2015-08-15T19:29:08Z</time>
      </trkpt>
      <trkpt lat="47.33305" lon="0.94804">
        <ele>53.49</ele>
        <time>2015-08-15T19:29:09Z</time>
      </trkpt>
      <trkpt lat="47.33303" lon="0.94811">
        <ele>53.49</ele>
        <time>2015-08-15T19:29:10Z</time>
      </trkpt>
      <trkpt lat="47.33299" lon="0.94852">
        <ele>53.49</ele>
        <time>2015-08-15T19:29:16Z</time>
      </trkpt>
      <trkpt lat="47.33282" lon="0.94949">
        <ele>53.97</ele>
        <time>2015-08-15T19:29:32Z</time>
      </trkpt>
      <trkpt lat="47.33274" lon="0.95023">
        <ele>53.97</ele>
        <time>2015-08-15T19:29:45Z</time>
      </trkpt>
      <trkpt lat="47.33273" lon="0.9503">
        <ele>53.97</ele>
        <time>2015-08-15T19:29:46Z</time>
      </trkpt>
      <trkpt lat="47.33273" lon="0.95036">
        <ele>53.97</ele>
        <time>2015-08-15T19:29:47Z</time>
      </trkpt>
      <trkpt lat="47.3327" lon="0.9506">
        <ele>53.97</ele>
        <time>2015-08-15T19:29:51Z</time>
      </trkpt>
      <trkpt lat="47.33269" lon="0.95066">
        <ele>53.97</ele>
        <time>2015-08-15T19:29:52Z</time>
      </trkpt>
      <trkpt lat="47.33269" lon="0.95072">
        <ele>53.97</ele>
        <time>2015-08-15T19:29:53Z</time>
      </trkpt>
      <trkpt lat="47.33268" lon="0.95077">
        <ele>53.97</ele>
        <time>2015-08-15T19:29:54Z</time>
      </trkpt>
      <trkpt lat="47.33268" lon="0.95083">
        <ele>53.97</ele>
        <time>2015-08-15T19:29:55Z</time>
      </trkpt>
      <trkpt lat="47.33268" lon="0.95089">
        <ele>53.97</ele>
        <time>2015-08-15T19:29:56Z</time>
      </trkpt>
      <trkpt lat="47.3326" lon="0.95153">
        <ele>53.97</ele>
        <time>2015-08-15T19:30:07Z</time>
      </trkpt>
      <trkpt lat="47.33252" lon="0.95213">
        <ele>53.49</ele>
        <time>2015-08-15T19:30:18Z</time>
      </trkpt>
      <trkpt lat="47.33241" lon="0.95282">
        <ele>53.49</ele>
        <time>2015-08-15T19:30:31Z</time>
      </trkpt>
      <trkpt lat="47.3324" lon="0.95288">
        <ele>53.49</ele>
        <time>2015-08-15T19:30:32Z</time>
      </trkpt>
      <trkpt lat="47.33237" lon="0.95311">
        <ele>53.49</ele>
        <time>2015-08-15T19:30:36Z</time>
      </trkpt>
      <trkpt lat="47.33233" lon="0.95329">
        <ele>53.49</ele>
        <time>2015-08-15T19:30:39Z</time>
      </trkpt>
      <trkpt lat="47.33232" lon="0.95335">
        <ele>53.49</ele>
        <time>2015-08-15T19:30:40Z</time>
      </trkpt>
      <trkpt lat="47.33231" lon="0.95341">
        <ele>53.49</ele>
        <time>2015-08-15T19:30:41Z</time>
      </trkpt>
      <trkpt lat="47.33219" lon="0.95386">
        <ele>53.49</ele>
        <time>2015-08-15T19:30:49Z</time>
      </trkpt>
      <trkpt lat="47.33215" lon="0.95403">
        <ele>53.49</ele>
        <time>2015-08-15T19:30:52Z</time>
      </trkpt>
      <trkpt lat="47.33197" lon="0.95487">
        <ele>53.97</ele>
        <time>2015-08-15T19:31:06Z</time>
      </trkpt>
      <trkpt lat="47.33182" lon="0.95575">
        <ele>53.97</ele>
        <time>2015-08-15T19:31:21Z</time>
      </trkpt>
      <trkpt lat="47.33169" lon="0.95649">
        <ele>54.45</ele>
        <time>2015-08-15T19:31:34Z</time>
      </trkpt>
      <trkpt lat="47.33152" lon="0.95756">
        <ele>53.97</ele>
        <time>2015-08-15T19:31:52Z</time>
      </trkpt>
      <trkpt lat="47.33148" lon="0.9578">
        <ele>54.45</ele>
        <time>2015-08-15T19:31:56Z</time>
      </trkpt>
      <trkpt lat="47.33144" lon="0.95804">
        <ele>54.45</ele>
        <time>2015-08-15T19:32:00Z</time>
      </trkpt>
      <trkpt lat="47.33144" lon="0.9581">
        <ele>54.45</ele>
        <time>2015-08-15T19:32:01Z</time>
      </trkpt>
      <trkpt lat="47.33142" lon="0.95823">
        <ele>54.45</ele>
        <time>2015-08-15T19:32:03Z</time>
      </trkpt>
      <trkpt lat="47.3314" lon="0.95836">
        <ele>54.45</ele>
        <time>2015-08-15T19:32:05Z</time>
      </trkpt>
      <trkpt lat="47.33136" lon="0.9586">
        <ele>54.93</ele>
        <time>2015-08-15T19:32:09Z</time>
      </trkpt>
      <trkpt lat="47.33135" lon="0.95866">
        <ele>54.45</ele>
        <time>2015-08-15T19:32:10Z</time>
      </trkpt>
      <trkpt lat="47.33135" lon="0.95872">
        <ele>54.93</ele>
        <time>2015-08-15T19:32:11Z</time>
      </trkpt>
      <trkpt lat="47.33127" lon="0.95912">
        <ele>54.93</ele>
        <time>2015-08-15T19:32:18Z</time>
      </trkpt>
      <trkpt lat="47.33117" lon="0.95965">
        <ele>54.93</ele>
        <time>2015-08-15T19:32:28Z</time>
      </trkpt>
      <trkpt lat="47.33109" lon="0.96028">
        <ele>54.93</ele>
        <time>2015-08-15T19:32:40Z</time>
      </trkpt>
      <trkpt lat="47.331" lon="0.96082">
        <ele>55.41</ele>
        <time>2015-08-15T19:32:51Z</time>
      </trkpt>
      <trkpt lat="47.33085" lon="0.96137">
        <ele>54.93</ele>
        <time>2015-08-15T19:33:05Z</time>
      </trkpt>
      <trkpt lat="47.33084" lon="0.9614">
        <ele>54.45</ele>
        <time>2015-08-15T19:33:06Z</time>
      </trkpt>
      <trkpt lat="47.33082" lon="0.96177">
        <ele>53.97</ele>
        <time>2015-08-15T19:33:15Z</time>
      </trkpt>
      <trkpt lat="47.33076" lon="0.9624">
        <ele>53.49</ele>
        <time>2015-08-15T19:33:31Z</time>
      </trkpt>
      <trkpt lat="47.33075" lon="0.96255">
        <ele>53.49</ele>
        <time>2015-08-15T19:33:42Z</time>
      </trkpt>
      <trkpt lat="47.33075" lon="0.96254">
        <ele>53.49</ele>
        <time>2015-08-15T19:34:13Z</time>
      </trkpt>
      <trkpt lat="47.33075" lon="0.96254">
        <ele>53.49</ele>
        <time>2015-08-15T19:34:39Z</time>
      </trkpt>
      <trkpt lat="47.33075" lon="0.96254">
        <ele>53.49</ele>
        <time>2015-08-15T19:35:07Z</time>
      </trkpt>
      <trkpt lat="47.33076" lon="0.96254">
        <ele>53.49</ele>
        <time>2015-08-15T19:35:35Z</time>
      </trkpt>
      <trkpt lat="47.33077" lon="0.96255">
        <ele>53.01</ele>
        <time>2015-08-15T19:36:02Z</time>
      </trkpt>
      <trkpt lat="47.33076" lon="0.96255">
        <ele>53.01</ele>
        <time>2015-08-15T19:36:24Z</time>
      </trkpt>
      <trkpt lat="47.33077" lon="0.9626">
        <ele>53.01</ele>
        <time>2015-08-15T19:36:37Z</time>
      </trkpt>
      <trkpt lat="47.33077" lon="0.96261">
        <ele>53.01</ele>
        <time>2015-08-15T19:36:51Z</time>
      </trkpt>
      <trkpt lat="47.33071" lon="0.96311">
        <ele>53.49</ele>
        <time>2015-08-15T19:37:05Z</time>
      </trkpt>
      <trkpt lat="47.33065" lon="0.96359">
        <ele>53.49</ele>
        <time>2015-08-15T19:37:20Z</time>
      </trkpt>
      <trkpt lat="47.33064" lon="0.96361">
        <ele>53.49</ele>
        <time>2015-08-15T19:37:21Z</time>
      </trkpt>
      <trkpt lat="47.33064" lon="0.96364">
        <ele>53.49</ele>
        <time>2015-08-15T19:37:22Z</time>
      </trkpt>
      <trkpt lat="47.33063" lon="0.96366">
        <ele>53.49</ele>
        <time>2015-08-15T19:37:23Z</time>
      </trkpt>
      <trkpt lat="47.33063" lon="0.96368">
        <ele>53.49</ele>
        <time>2015-08-15T19:37:24Z</time>
      </trkpt>
      <trkpt lat="47.33063" lon="0.96368">
        <ele>53.49</ele>
        <time>2015-08-15T19:37:30Z</time>
      </trkpt>
      <trkpt lat="47.33063" lon="0.96368">
        <ele>53.49</ele>
        <time>2015-08-15T19:37:50Z</time>
      </trkpt>
      <trkpt lat="47.33063" lon="0.96371">
        <ele>53.49</ele>
        <time>2015-08-15T19:38:13Z</time>
      </trkpt>
      <trkpt lat="47.33063" lon="0.96376">
        <ele>53.49</ele>
        <time>2015-08-15T19:38:23Z</time>
      </trkpt>
      <trkpt lat="47.33062" lon="0.96378">
        <ele>53.49</ele>
        <time>2015-08-15T19:38:24Z</time>
      </trkpt>
      <trkpt lat="47.33059" lon="0.96445">
        <ele>53.49</ele>
        <time>2015-08-15T19:38:37Z</time>
      </trkpt>
      <trkpt lat="47.33055" lon="0.96517">
        <ele>53.49</ele>
        <time>2015-08-15T19:38:50Z</time>
      </trkpt>
      <trkpt lat="47.33052" lon="0.96573">
        <ele>53.49</ele>
        <time>2015-08-15T19:39:01Z</time>
      </trkpt>
      <trkpt lat="47.33048" lon="0.96648">
        <ele>53.97</ele>
        <time>2015-08-15T19:39:14Z</time>
      </trkpt>
      <trkpt lat="47.33042" lon="0.9671">
        <ele>53.97</ele>
        <time>2015-08-15T19:39:26Z</time>
      </trkpt>
      <trkpt lat="47.33034" lon="0.96771">
        <ele>53.97</ele>
        <time>2015-08-15T19:39:39Z</time>
      </trkpt>
      <trkpt lat="47.33033" lon="0.96811">
        <ele>53.49</ele>
        <time>2015-08-15T19:39:49Z</time>
      </trkpt>
      <trkpt lat="47.33029" lon="0.96856">
        <ele>53.01</ele>
        <time>2015-08-15T19:40:00Z</time>
      </trkpt>
      <trkpt lat="47.3303" lon="0.96909">
        <ele>52.53</ele>
        <time>2015-08-15T19:40:11Z</time>
      </trkpt>
      <trkpt lat="47.33026" lon="0.96962">
        <ele>52.53</ele>
        <time>2015-08-15T19:40:22Z</time>
      </trkpt>
      <trkpt lat="47.33025" lon="0.97014">
        <ele>52.05</ele>
        <time>2015-08-15T19:40:34Z</time>
      </trkpt>
      <trkpt lat="47.33027" lon="0.97093">
        <ele>52.53</ele>
        <time>2015-08-15T19:40:49Z</time>
      </trkpt>
      <trkpt lat="47.33033" lon="0.97153">
        <ele>52.53</ele>
        <time>2015-08-15T19:41:02Z</time>
      </trkpt>
      <trkpt lat="47.3304" lon="0.97209">
        <ele>52.05</ele>
        <time>2015-08-15T19:41:12Z</time>
      </trkpt>
      <trkpt lat="47.33033" lon="0.97259">
        <ele>52.05</ele>
        <time>2015-08-15T19:41:23Z</time>
      </trkpt>
      <trkpt lat="47.33034" lon="0.97325">
        <ele>52.05</ele>
        <time>2015-08-15T19:41:36Z</time>
      </trkpt>
      <trkpt lat="47.33045" lon="0.97418">
        <ele>52.53</ele>
        <time>2015-08-15T19:41:53Z</time>
      </trkpt>
      <trkpt lat="47.33051" lon="0.97501">
        <ele>52.53</ele>
        <time>2015-08-15T19:42:09Z</time>
      </trkpt>
      <trkpt lat="47.3305" lon="0.97564">
        <ele>52.53</ele>
        <time>2015-08-15T19:42:23Z</time>
      </trkpt>
      <trkpt lat="47.33049" lon="0.97651">
        <ele>52.53</ele>
        <time>2015-08-15T19:42:39Z</time>
      </trkpt>
      <trkpt lat="47.33048" lon="0.97723">
        <ele>52.53</ele>
        <time>2015-08-15T19:42:53Z</time>
      </trkpt>
      <trkpt lat="47.33039" lon="0.97805">
        <ele>52.53</ele>
        <time>2015-08-15T19:43:08Z</time>
      </trkpt>
      <trkpt lat="47.33032" lon="0.97885">
        <ele>53.01</ele>
        <time>2015-08-15T19:43:22Z</time>
      </trkpt>
      <trkpt lat="47.3304" lon="0.97979">
        <ele>52.53</ele>
        <time>2015-08-15T19:43:39Z</time>
      </trkpt>
      <trkpt lat="47.33047" lon="0.98055">
        <ele>52.05</ele>
        <time>2015-08-15T19:43:53Z</time>
      </trkpt>
      <trkpt lat="47.3305" lon="0.98116">
        <ele>52.53</ele>
        <time>2015-08-15T19:44:05Z</time>
      </trkpt>
      <trkpt lat="47.33058" lon="0.98161">
        <ele>52.53</ele>
        <time>2015-08-15T19:44:16Z</time>
      </trkpt>
      <trkpt lat="47.33052" lon="0.98209">
        <ele>52.05</ele>
        <time>2015-08-15T19:44:28Z</time>
      </trkpt>
      <trkpt lat="47.33045" lon="0.9828">
        <ele>52.53</ele>
        <time>2015-08-15T19:44:42Z</time>
      </trkpt>
      <trkpt lat="47.33042" lon="0.9834">
        <ele>52.53</ele>
        <time>2015-08-15T19:44:54Z</time>
      </trkpt>
      <trkpt lat="47.33048" lon="0.9843">
        <ele>52.53</ele>
        <time>2015-08-15T19:45:09Z</time>
      </trkpt>
      <trkpt lat="47.33058" lon="0.98502">
        <ele>53.01</ele>
        <time>2015-08-15T19:45:21Z</time>
      </trkpt>
      <trkpt lat="47.33059" lon="0.98508">
        <ele>52.53</ele>
        <time>2015-08-15T19:45:22Z</time>
      </trkpt>
      <trkpt lat="47.33068" lon="0.98565">
        <ele>53.01</ele>
        <time>2015-08-15T19:45:31Z</time>
      </trkpt>
      <trkpt lat="47.33071" lon="0.98609">
        <ele>53.01</ele>
        <time>2015-08-15T19:45:38Z</time>
      </trkpt>
      <trkpt lat="47.33071" lon="0.98615">
        <ele>53.01</ele>
        <time>2015-08-15T19:45:39Z</time>
      </trkpt>
      <trkpt lat="47.33072" lon="0.98621">
        <ele>53.01</ele>
        <time>2015-08-15T19:45:40Z</time>
      </trkpt>
      <trkpt lat="47.33072" lon="0.98626">
        <ele>53.01</ele>
        <time>2015-08-15T19:45:41Z</time>
      </trkpt>
      <trkpt lat="47.33072" lon="0.98632">
        <ele>53.01</ele>
        <time>2015-08-15T19:45:42Z</time>
      </trkpt>
      <trkpt lat="47.33073" lon="0.98638">
        <ele>53.01</ele>
        <time>2015-08-15T19:45:43Z</time>
      </trkpt>
      <trkpt lat="47.33073" lon="0.98644">
        <ele>53.01</ele>
        <time>2015-08-15T19:45:44Z</time>
      </trkpt>
      <trkpt lat="47.33073" lon="0.98685">
        <ele>53.01</ele>
        <time>2015-08-15T19:45:51Z</time>
      </trkpt>
      <trkpt lat="47.33073" lon="0.98745">
        <ele>52.53</ele>
        <time>2015-08-15T19:46:02Z</time>
      </trkpt>
      <trkpt lat="47.33072" lon="0.98749">
        <ele>53.01</ele>
        <time>2015-08-15T19:46:03Z</time>
      </trkpt>
      <trkpt lat="47.33071" lon="0.98754">
        <ele>53.01</ele>
        <time>2015-08-15T19:46:04Z</time>
      </trkpt>
      <trkpt lat="47.3307" lon="0.98774">
        <ele>53.01</ele>
        <time>2015-08-15T19:46:08Z</time>
      </trkpt>
      <trkpt lat="47.33063" lon="0.98836">
        <ele>53.49</ele>
        <time>2015-08-15T19:46:19Z</time>
      </trkpt>
      <trkpt lat="47.33062" lon="0.98842">
        <ele>53.49</ele>
        <time>2015-08-15T19:46:20Z</time>
      </trkpt>
      <trkpt lat="47.33061" lon="0.98848">
        <ele>53.49</ele>
        <time>2015-08-15T19:46:21Z</time>
      </trkpt>
      <trkpt lat="47.33054" lon="0.9889">
        <ele>53.49</ele>
        <time>2015-08-15T19:46:28Z</time>
      </trkpt>
      <trkpt lat="47.33053" lon="0.98896">
        <ele>53.49</ele>
        <time>2015-08-15T19:46:29Z</time>
      </trkpt>
      <trkpt lat="47.33051" lon="0.98908">
        <ele>53.49</ele>
        <time>2015-08-15T19:46:31Z</time>
      </trkpt>
      <trkpt lat="47.33038" lon="0.98982">
        <ele>53.97</ele>
        <time>2015-08-15T19:46:43Z</time>
      </trkpt>
      <trkpt lat="47.33034" lon="0.99003">
        <ele>53.97</ele>
        <time>2015-08-15T19:46:46Z</time>
      </trkpt>
      <trkpt lat="47.33024" lon="0.99097">
        <ele>54.93</ele>
        <time>2015-08-15T19:46:58Z</time>
      </trkpt>
      <trkpt lat="47.33023" lon="0.99104">
        <ele>55.41</ele>
        <time>2015-08-15T19:46:59Z</time>
      </trkpt>
      <trkpt lat="47.33018" lon="0.99182">
        <ele>53.97</ele>
        <time>2015-08-15T19:49:51Z</time>
      </trkpt>
      <trkpt lat="47.33021" lon="0.99264">
        <ele>53.49</ele>
        <time>2015-08-15T19:50:07Z</time>
      </trkpt>
      <trkpt lat="47.33022" lon="0.99339">
        <ele>53.49</ele>
        <time>2015-08-15T19:50:21Z</time>
      </trkpt>
      <trkpt lat="47.33004" lon="0.99409">
        <ele>53.01</ele>
        <time>2015-08-15T19:50:35Z</time>
      </trkpt>
      <trkpt lat="47.32925" lon="0.99532">
        <ele>52.53</ele>
        <time>2015-08-15T20:33:34Z</time>
      </trkpt>
      <trkpt lat="47.32928" lon="0.9953">
        <ele>52.53</ele>
        <time>2015-08-15T20:33:35Z</time>
      </trkpt>
      <trkpt lat="47.3293" lon="0.99528">
        <ele>52.53</ele>
        <time>2015-08-15T20:33:36Z</time>
      </trkpt>
      <trkpt lat="47.32933" lon="0.99527">
        <ele>52.53</ele>
        <time>2015-08-15T20:33:37Z</time>
      </trkpt>
      <trkpt lat="47.32934" lon="0.99526">
        <ele>52.53</ele>
        <time>2015-08-15T20:33:38Z</time>
      </trkpt>
      <trkpt lat="47.32936" lon="0.99526">
        <ele>53.01</ele>
        <time>2015-08-15T20:33:39Z</time>
      </trkpt>
      <trkpt lat="47.32941" lon="0.99529">
        <ele>53.01</ele>
        <time>2015-08-15T20:33:41Z</time>
      </trkpt>
      <trkpt lat="47.32942" lon="0.99531">
        <ele>53.01</ele>
        <time>2015-08-15T20:33:42Z</time>
      </trkpt>
      <trkpt lat="47.32943" lon="0.99533">
        <ele>53.01</ele>
        <time>2015-08-15T20:33:43Z</time>
      </trkpt>
      <trkpt lat="47.32943" lon="0.99535">
        <ele>53.01</ele>
        <time>2015-08-15T20:33:44Z</time>
      </trkpt>
      <trkpt lat="47.32942" lon="0.9954">
        <ele>53.01</ele>
        <time>2015-08-15T20:33:46Z</time>
      </trkpt>
      <trkpt lat="47.32941" lon="0.99548">
        <ele>53.01</ele>
        <time>2015-08-15T20:33:49Z</time>
      </trkpt>
      <trkpt lat="47.32942" lon="0.99551">
        <ele>53.01</ele>
        <time>2015-08-15T20:33:50Z</time>
      </trkpt>
      <trkpt lat="47.32941" lon="0.99556">
        <ele>53.01</ele>
        <time>2015-08-15T20:33:51Z</time>
      </trkpt>
      <trkpt lat="47.3294" lon="0.9956">
        <ele>53.01</ele>
        <time>2015-08-15T20:33:52Z</time>
      </trkpt>
      <trkpt lat="47.3294" lon="0.99563">
        <ele>53.01</ele>
        <time>2015-08-15T20:33:53Z</time>
      </trkpt>
      <trkpt lat="47.32939" lon="0.99566">
        <ele>53.01</ele>
        <time>2015-08-15T20:33:54Z</time>
      </trkpt>
      <trkpt lat="47.32937" lon="0.99573">
        <ele>52.53</ele>
        <time>2015-08-15T20:33:56Z</time>
      </trkpt>
      <trkpt lat="47.32926" lon="0.99615">
        <ele>52.05</ele>
        <time>2015-08-15T20:34:07Z</time>
      </trkpt>
      <trkpt lat="47.32925" lon="0.99618">
        <ele>52.05</ele>
        <time>2015-08-15T20:34:08Z</time>
      </trkpt>
      <trkpt lat="47.32925" lon="0.99621">
        <ele>52.05</ele>
        <time>2015-08-15T20:34:09Z</time>
      </trkpt>
      <trkpt lat="47.32925" lon="0.99624">
        <ele>52.05</ele>
        <time>2015-08-15T20:34:10Z</time>
      </trkpt>
      <trkpt lat="47.32925" lon="0.99628">
        <ele>52.05</ele>
        <time>2015-08-15T20:34:11Z</time>
      </trkpt>
      <trkpt lat="47.32924" lon="0.99633">
        <ele>52.05</ele>
        <time>2015-08-15T20:34:12Z</time>
      </trkpt>
      <trkpt lat="47.32922" lon="0.99637">
        <ele>52.53</ele>
        <time>2015-08-15T20:34:14Z</time>
      </trkpt>
      <trkpt lat="47.32921" lon="0.99638">
        <ele>52.53</ele>
        <time>2015-08-15T20:34:15Z</time>
      </trkpt>
      <trkpt lat="47.3292" lon="0.99639">
        <ele>52.53</ele>
        <time>2015-08-15T20:34:22Z</time>
      </trkpt>
      <trkpt lat="47.32919" lon="0.99639">
        <ele>52.53</ele>
        <time>2015-08-15T20:34:56Z</time>
      </trkpt>
      <trkpt lat="47.3292" lon="0.99638">
        <ele>52.53</ele>
        <time>2015-08-15T20:35:25Z</time>
      </trkpt>
      <trkpt lat="47.32908" lon="0.99634">
        <ele>52.05</ele>
        <time>2015-08-15T20:35:40Z</time>
      </trkpt>
      <trkpt lat="47.32906" lon="0.99634">
        <ele>52.05</ele>
        <time>2015-08-15T20:35:41Z</time>
      </trkpt>
      <trkpt lat="47.32905" lon="0.99635">
        <ele>52.05</ele>
        <time>2015-08-15T20:35:42Z</time>
      </trkpt>
      <trkpt lat="47.32896" lon="0.99692">
        <ele>51.57</ele>
        <time>2015-08-15T20:35:57Z</time>
      </trkpt>
      <trkpt lat="47.32895" lon="0.99697">
        <ele>51.57</ele>
        <time>2015-08-15T20:35:58Z</time>
      </trkpt>
      <trkpt lat="47.32895" lon="0.99701">
        <ele>51.09</ele>
        <time>2015-08-15T20:35:59Z</time>
      </trkpt>
      <trkpt lat="47.32894" lon="0.99705">
        <ele>51.57</ele>
        <time>2015-08-15T20:36:00Z</time>
      </trkpt>
      <trkpt lat="47.32895" lon="0.99708">
        <ele>51.09</ele>
        <time>2015-08-15T20:36:01Z</time>
      </trkpt>
      <trkpt lat="47.32895" lon="0.99711">
        <ele>51.57</ele>
        <time>2015-08-15T20:36:02Z</time>
      </trkpt>
      <trkpt lat="47.32879" lon="0.99744">
        <ele>51.57</ele>
        <time>2015-08-15T20:36:11Z</time>
      </trkpt>
      <trkpt lat="47.32867" lon="0.9982">
        <ele>51.57</ele>
        <time>2015-08-15T20:36:25Z</time>
      </trkpt>
      <trkpt lat="47.32862" lon="0.99895">
        <ele>51.57</ele>
        <time>2015-08-15T20:36:38Z</time>
      </trkpt>
      <trkpt lat="47.32855" lon="0.9995">
        <ele>51.57</ele>
        <time>2015-08-15T20:36:49Z</time>
      </trkpt>
      <trkpt lat="47.32848" lon="1.00008">
        <ele>51.57</ele>
        <time>2015-08-15T20:37:04Z</time>
      </trkpt>
      <trkpt lat="47.32848" lon="1.00012">
        <ele>51.57</ele>
        <time>2015-08-15T20:37:05Z</time>
      </trkpt>
      <trkpt lat="47.32842" lon="1.00045">
        <ele>51.09</ele>
        <time>2015-08-15T20:37:15Z</time>
      </trkpt>
      <trkpt lat="47.32832" lon="1.00081">
        <ele>51.57</ele>
        <time>2015-08-15T20:37:26Z</time>
      </trkpt>
      <trkpt lat="47.32832" lon="1.00084">
        <ele>51.57</ele>
        <time>2015-08-15T20:37:27Z</time>
      </trkpt>
      <trkpt lat="47.32832" lon="1.00086">
        <ele>51.57</ele>
        <time>2015-08-15T20:37:28Z</time>
      </trkpt>
      <trkpt lat="47.32832" lon="1.00089">
        <ele>51.57</ele>
        <time>2015-08-15T20:37:29Z</time>
      </trkpt>
      <trkpt lat="47.32833" lon="1.00092">
        <ele>51.57</ele>
        <time>2015-08-15T20:37:30Z</time>
      </trkpt>
      <trkpt lat="47.32829" lon="1.00124">
        <ele>51.09</ele>
        <time>2015-08-15T20:37:37Z</time>
      </trkpt>
      <trkpt lat="47.32823" lon="1.002">
        <ele>51.57</ele>
        <time>2015-08-15T20:37:51Z</time>
      </trkpt>
      <trkpt lat="47.32814" lon="1.00277">
        <ele>51.57</ele>
        <time>2015-08-15T20:38:06Z</time>
      </trkpt>
      <trkpt lat="47.32812" lon="1.00354">
        <ele>51.57</ele>
        <time>2015-08-15T20:38:20Z</time>
      </trkpt>
      <trkpt lat="47.32811" lon="1.00459">
        <ele>53.49</ele>
        <time>2015-08-15T20:38:37Z</time>
      </trkpt>
      <trkpt lat="47.328" lon="1.00571">
        <ele>52.53</ele>
        <time>2015-08-15T20:38:55Z</time>
      </trkpt>
      <trkpt lat="47.32787" lon="1.00676">
        <ele>52.05</ele>
        <time>2015-08-15T20:39:14Z</time>
      </trkpt>
      <trkpt lat="47.32775" lon="1.0078">
        <ele>52.05</ele>
        <time>2015-08-15T20:39:31Z</time>
      </trkpt>
      <trkpt lat="47.3277" lon="1.00875">
        <ele>52.05</ele>
        <time>2015-08-15T20:39:47Z</time>
      </trkpt>
      <trkpt lat="47.32765" lon="1.00985">
        <ele>52.05</ele>
        <time>2015-08-15T20:40:06Z</time>
      </trkpt>
      <trkpt lat="47.32762" lon="1.0108">
        <ele>52.05</ele>
        <time>2015-08-15T20:40:23Z</time>
      </trkpt>
      <trkpt lat="47.32761" lon="1.0118">
        <ele>52.53</ele>
        <time>2015-08-15T20:40:40Z</time>
      </trkpt>
      <trkpt lat="47.32759" lon="1.01272">
        <ele>52.05</ele>
        <time>2015-08-15T20:40:57Z</time>
      </trkpt>
      <trkpt lat="47.32758" lon="1.01377">
        <ele>52.53</ele>
        <time>2015-08-15T20:41:14Z</time>
      </trkpt>
      <trkpt lat="47.32756" lon="1.01485">
        <ele>52.53</ele>
        <time>2015-08-15T20:41:33Z</time>
      </trkpt>
      <trkpt lat="47.32754" lon="1.01571">
        <ele>52.53</ele>
        <time>2015-08-15T20:41:49Z</time>
      </trkpt>
      <trkpt lat="47.32759" lon="1.01637">
        <ele>52.53</ele>
        <time>2015-08-15T20:42:04Z</time>
      </trkpt>
      <trkpt lat="47.32759" lon="1.01642">
        <ele>52.53</ele>
        <time>2015-08-15T20:42:05Z</time>
      </trkpt>
      <trkpt lat="47.32759" lon="1.01646">
        <ele>52.05</ele>
        <time>2015-08-15T20:42:06Z</time>
      </trkpt>
      <trkpt lat="47.32761" lon="1.01655">
        <ele>52.05</ele>
        <time>2015-08-15T20:42:08Z</time>
      </trkpt>
      <trkpt lat="47.32763" lon="1.017">
        <ele>52.53</ele>
        <time>2015-08-15T20:42:16Z</time>
      </trkpt>
      <trkpt lat="47.3277" lon="1.01789">
        <ele>52.05</ele>
        <time>2015-08-15T20:42:31Z</time>
      </trkpt>
      <trkpt lat="47.32771" lon="1.01821">
        <ele>52.53</ele>
        <time>2015-08-15T20:42:36Z</time>
      </trkpt>
      <trkpt lat="47.32775" lon="1.01861">
        <ele>52.05</ele>
        <time>2015-08-15T20:42:43Z</time>
      </trkpt>
      <trkpt lat="47.3277" lon="1.01958">
        <ele>52.05</ele>
        <time>2015-08-15T20:43:00Z</time>
      </trkpt>
      <trkpt lat="47.3277" lon="1.01971">
        <ele>52.05</ele>
        <time>2015-08-15T20:43:02Z</time>
      </trkpt>
      <trkpt lat="47.3277" lon="1.02075">
        <ele>52.53</ele>
        <time>2015-08-15T20:43:19Z</time>
      </trkpt>
      <trkpt lat="47.32768" lon="1.02175">
        <ele>52.05</ele>
        <time>2015-08-15T20:43:36Z</time>
      </trkpt>
      <trkpt lat="47.32766" lon="1.02276">
        <ele>52.53</ele>
        <time>2015-08-15T20:43:54Z</time>
      </trkpt>
      <trkpt lat="47.32763" lon="1.02364">
        <ele>52.53</ele>
        <time>2015-08-15T20:44:10Z</time>
      </trkpt>
      <trkpt lat="47.32764" lon="1.02461">
        <ele>52.53</ele>
        <time>2015-08-15T20:44:27Z</time>
      </trkpt>
      <trkpt lat="47.32767" lon="1.02555">
        <ele>52.53</ele>
        <time>2015-08-15T20:44:43Z</time>
      </trkpt>
      <trkpt lat="47.32767" lon="1.0258">
        <ele>52.53</ele>
        <time>2015-08-15T20:44:47Z</time>
      </trkpt>
      <trkpt lat="47.3277" lon="1.02676">
        <ele>52.05</ele>
        <time>2015-08-15T20:45:03Z</time>
      </trkpt>
      <trkpt lat="47.32766" lon="1.02784">
        <ele>52.53</ele>
        <time>2015-08-15T20:45:21Z</time>
      </trkpt>
      <trkpt lat="47.32758" lon="1.02888">
        <ele>52.05</ele>
        <time>2015-08-15T20:45:40Z</time>
      </trkpt>
      <trkpt lat="47.32749" lon="1.02987">
        <ele>51.57</ele>
        <time>2015-08-15T20:45:58Z</time>
      </trkpt>
      <trkpt lat="47.32734" lon="1.03067">
        <ele>51.57</ele>
        <time>2015-08-15T20:46:14Z</time>
      </trkpt>
      <trkpt lat="47.32723" lon="1.03123">
        <ele>51.57</ele>
        <time>2015-08-15T20:46:25Z</time>
      </trkpt>
      <trkpt lat="47.327" lon="1.0322">
        <ele>51.57</ele>
        <time>2015-08-15T20:46:42Z</time>
      </trkpt>
      <trkpt lat="47.32698" lon="1.03225">
        <ele>51.57</ele>
        <time>2015-08-15T20:46:43Z</time>
      </trkpt>
      <trkpt lat="47.32697" lon="1.03231">
        <ele>51.57</ele>
        <time>2015-08-15T20:46:44Z</time>
      </trkpt>
      <trkpt lat="47.32684" lon="1.03275">
        <ele>52.05</ele>
        <time>2015-08-15T20:46:52Z</time>
      </trkpt>
      <trkpt lat="47.32659" lon="1.03363">
        <ele>51.57</ele>
        <time>2015-08-15T20:47:08Z</time>
      </trkpt>
      <trkpt lat="47.32636" lon="1.03433">
        <ele>51.09</ele>
        <time>2015-08-15T20:47:21Z</time>
      </trkpt>
      <trkpt lat="47.32634" lon="1.03439">
        <ele>51.09</ele>
        <time>2015-08-15T20:47:22Z</time>
      </trkpt>
      <trkpt lat="47.32609" lon="1.03516">
        <ele>51.57</ele>
        <time>2015-08-15T20:47:36Z</time>
      </trkpt>
      <trkpt lat="47.32585" lon="1.03591">
        <ele>51.57</ele>
        <time>2015-08-15T20:47:50Z</time>
      </trkpt>
      <trkpt lat="47.32564" lon="1.03667">
        <ele>51.57</ele>
        <time>2015-08-15T20:48:04Z</time>
      </trkpt>
      <trkpt lat="47.32544" lon="1.03734">
        <ele>51.09</ele>
        <time>2015-08-15T20:48:18Z</time>
      </trkpt>
      <trkpt lat="47.32517" lon="1.03819">
        <ele>51.09</ele>
        <time>2015-08-15T20:48:34Z</time>
      </trkpt>
      <trkpt lat="47.32516" lon="1.03825">
        <ele>51.57</ele>
        <time>2015-08-15T20:48:35Z</time>
      </trkpt>
      <trkpt lat="47.32515" lon="1.0383">
        <ele>51.57</ele>
        <time>2015-08-15T20:48:36Z</time>
      </trkpt>
      <trkpt lat="47.3251" lon="1.03904">
        <ele>51.09</ele>
        <time>2015-08-15T20:48:49Z</time>
      </trkpt>
      <trkpt lat="47.3251" lon="1.0391">
        <ele>51.09</ele>
        <time>2015-08-15T20:48:50Z</time>
      </trkpt>
      <trkpt lat="47.32509" lon="1.03917">
        <ele>51.09</ele>
        <time>2015-08-15T20:48:51Z</time>
      </trkpt>
      <trkpt lat="47.32508" lon="1.03923">
        <ele>51.57</ele>
        <time>2015-08-15T20:48:52Z</time>
      </trkpt>
      <trkpt lat="47.32505" lon="1.03929">
        <ele>51.09</ele>
        <time>2015-08-15T20:48:53Z</time>
      </trkpt>
      <trkpt lat="47.32502" lon="1.03933">
        <ele>51.57</ele>
        <time>2015-08-15T20:48:54Z</time>
      </trkpt>
      <trkpt lat="47.32464" lon="1.03936">
        <ele>51.57</ele>
        <time>2015-08-15T20:49:04Z</time>
      </trkpt>
      <trkpt lat="47.32431" lon="1.03938">
        <ele>52.53</ele>
        <time>2015-08-15T20:49:15Z</time>
      </trkpt>
      <trkpt lat="47.32433" lon="1.03939">
        <ele>52.53</ele>
        <time>2015-08-15T20:49:17Z</time>
      </trkpt>
      <trkpt lat="47.32484" lon="1.03949">
        <ele>54.93</ele>
        <time>2015-08-15T20:49:30Z</time>
      </trkpt>
      <trkpt lat="47.32494" lon="1.03953">
        <ele>54.93</ele>
        <time>2015-08-15T20:49:36Z</time>
      </trkpt>
      <trkpt lat="47.32491" lon="1.03956">
        <ele>54.93</ele>
        <time>2015-08-15T20:49:47Z</time>
      </trkpt>
      <trkpt lat="47.32451" lon="1.03951">
        <ele>53.01</ele>
        <time>2015-08-15T20:50:05Z</time>
      </trkpt>
      <trkpt lat="47.32424" lon="1.03946">
        <ele>52.05</ele>
        <time>2015-08-15T20:50:18Z</time>
      </trkpt>
      <trkpt lat="47.32429" lon="1.03949">
        <ele>51.09</ele>
        <time>2015-08-15T20:50:23Z</time>
      </trkpt>
      <trkpt lat="47.3247" lon="1.0396">
        <ele>51.09</ele>
        <time>2015-08-15T20:50:39Z</time>
      </trkpt>
      <trkpt lat="47.325" lon="1.03964">
        <ele>50.61</ele>
        <time>2015-08-15T20:50:54Z</time>
      </trkpt>
      <trkpt lat="47.32501" lon="1.03964">
        <ele>50.61</ele>
        <time>2015-08-15T20:50:58Z</time>
      </trkpt>
      <trkpt lat="47.32501" lon="1.03965">
        <ele>52.05</ele>
        <time>2015-08-15T20:51:01Z</time>
      </trkpt>
      <trkpt lat="47.32501" lon="1.03965">
        <ele>51.57</ele>
        <time>2015-08-15T20:51:02Z</time>
      </trkpt>
      <trkpt lat="47.32501" lon="1.03965">
        <ele>47.24</ele>
        <time>2015-08-15T20:51:03Z</time>
      </trkpt>
      <trkpt lat="47.32501" lon="1.03964">
        <ele>50.61</ele>
        <time>2015-08-15T20:51:19Z</time>
      </trkpt>
      <trkpt lat="47.325" lon="1.03965">
        <ele>50.61</ele>
        <time>2015-08-15T20:51:44Z</time>
      </trkpt>
      <trkpt lat="47.32506" lon="1.0397">
        <ele>50.13</ele>
        <time>2015-08-15T20:51:55Z</time>
      </trkpt>
      <trkpt lat="47.32506" lon="1.03972">
        <ele>50.13</ele>
        <time>2015-08-15T20:51:56Z</time>
      </trkpt>
      <trkpt lat="47.32503" lon="1.04007">
        <ele>50.61</ele>
        <time>2015-08-15T20:52:06Z</time>
      </trkpt>
      <trkpt lat="47.32506" lon="1.04068">
        <ele>50.61</ele>
        <time>2015-08-15T20:52:20Z</time>
      </trkpt>
      <trkpt lat="47.3251" lon="1.04141">
        <ele>50.61</ele>
        <time>2015-08-15T20:52:35Z</time>
      </trkpt>
      <trkpt lat="47.32508" lon="1.04198">
        <ele>50.61</ele>
        <time>2015-08-15T20:52:47Z</time>
      </trkpt>
      <trkpt lat="47.32515" lon="1.0428">
        <ele>50.13</ele>
        <time>2015-08-15T20:53:02Z</time>
      </trkpt>
      <trkpt lat="47.32515" lon="1.04332">
        <ele>50.61</ele>
        <time>2015-08-15T20:53:13Z</time>
      </trkpt>
      <trkpt lat="47.32507" lon="1.04378">
        <ele>50.61</ele>
        <time>2015-08-15T20:53:24Z</time>
      </trkpt>
      <trkpt lat="47.32502" lon="1.04433">
        <ele>50.61</ele>
        <time>2015-08-15T20:53:38Z</time>
      </trkpt>
      <trkpt lat="47.32505" lon="1.04475">
        <ele>50.61</ele>
        <time>2015-08-15T20:53:51Z</time>
      </trkpt>
      <trkpt lat="47.32505" lon="1.04478">
        <ele>50.61</ele>
        <time>2015-08-15T20:54:23Z</time>
      </trkpt>
      <trkpt lat="47.32504" lon="1.0449">
        <ele>50.61</ele>
        <time>2015-08-15T20:54:34Z</time>
      </trkpt>
      <trkpt lat="47.32498" lon="1.04553">
        <ele>50.13</ele>
        <time>2015-08-15T20:54:50Z</time>
      </trkpt>
      <trkpt lat="47.32492" lon="1.04619">
        <ele>50.13</ele>
        <time>2015-08-15T20:55:05Z</time>
      </trkpt>
      <trkpt lat="47.32486" lon="1.04676">
        <ele>50.13</ele>
        <time>2015-08-15T20:55:19Z</time>
      </trkpt>
      <trkpt lat="47.32479" lon="1.04729">
        <ele>50.13</ele>
        <time>2015-08-15T20:55:33Z</time>
      </trkpt>
      <trkpt lat="47.32468" lon="1.04781">
        <ele>49.65</ele>
        <time>2015-08-15T20:55:47Z</time>
      </trkpt>
      <trkpt lat="47.3246" lon="1.0482">
        <ele>50.13</ele>
        <time>2015-08-15T20:55:58Z</time>
      </trkpt>
      <trkpt lat="47.32449" lon="1.04875">
        <ele>50.13</ele>
        <time>2015-08-15T20:56:11Z</time>
      </trkpt>
      <trkpt lat="47.32436" lon="1.04932">
        <ele>50.13</ele>
        <time>2015-08-15T20:56:25Z</time>
      </trkpt>
      <trkpt lat="47.32423" lon="1.04993">
        <ele>50.13</ele>
        <time>2015-08-15T20:56:38Z</time>
      </trkpt>
      <trkpt lat="47.32412" lon="1.05059">
        <ele>50.61</ele>
        <time>2015-08-15T20:56:51Z</time>
      </trkpt>
      <trkpt lat="47.32402" lon="1.05118">
        <ele>50.61</ele>
        <time>2015-08-15T20:57:04Z</time>
      </trkpt>
      <trkpt lat="47.32393" lon="1.05175">
        <ele>50.61</ele>
        <time>2015-08-15T20:57:17Z</time>
      </trkpt>
      <trkpt lat="47.32383" lon="1.05246">
        <ele>50.61</ele>
        <time>2015-08-15T20:57:33Z</time>
      </trkpt>
      <trkpt lat="47.32373" lon="1.05302">
        <ele>50.13</ele>
        <time>2015-08-15T20:57:47Z</time>
      </trkpt>
      <trkpt lat="47.3236" lon="1.05369">
        <ele>50.13</ele>
        <time>2015-08-15T20:58:03Z</time>
      </trkpt>
      <trkpt lat="47.3235" lon="1.05433">
        <ele>50.13</ele>
        <time>2015-08-15T20:58:18Z</time>
      </trkpt>
      <trkpt lat="47.32343" lon="1.05468">
        <ele>50.13</ele>
        <time>2015-08-15T20:58:28Z</time>
      </trkpt>
      <trkpt lat="47.32338" lon="1.05518">
        <ele>50.13</ele>
        <time>2015-08-15T20:58:41Z</time>
      </trkpt>
      <trkpt lat="47.32324" lon="1.05582">
        <ele>50.13</ele>
        <time>2015-08-15T20:58:56Z</time>
      </trkpt>
      <trkpt lat="47.3231" lon="1.0565">
        <ele>50.13</ele>
        <time>2015-08-15T20:59:10Z</time>
      </trkpt>
      <trkpt lat="47.32292" lon="1.0572">
        <ele>50.13</ele>
        <time>2015-08-15T20:59:25Z</time>
      </trkpt>
      <trkpt lat="47.32278" lon="1.05786">
        <ele>50.13</ele>
        <time>2015-08-15T20:59:37Z</time>
      </trkpt>
      <trkpt lat="47.32268" lon="1.05837">
        <ele>50.13</ele>
        <time>2015-08-15T20:59:48Z</time>
      </trkpt>
      <trkpt lat="47.32257" lon="1.05879">
        <ele>50.13</ele>
        <time>2015-08-15T20:59:59Z</time>
      </trkpt>
      <trkpt lat="47.32256" lon="1.05889">
        <ele>50.13</ele>
        <time>2015-08-15T21:00:22Z</time>
      </trkpt>
      <trkpt lat="47.32255" lon="1.05903">
        <ele>50.13</ele>
        <time>2015-08-15T21:00:33Z</time>
      </trkpt>
      <trkpt lat="47.32247" lon="1.05956">
        <ele>50.13</ele>
        <time>2015-08-15T21:00:47Z</time>
      </trkpt>
      <trkpt lat="47.32245" lon="1.05977">
        <ele>50.13</ele>
        <time>2015-08-15T21:00:54Z</time>
      </trkpt>
      <trkpt lat="47.32247" lon="1.06024">
        <ele>50.13</ele>
        <time>2015-08-15T21:01:06Z</time>
      </trkpt>
      <trkpt lat="47.32246" lon="1.06084">
        <ele>50.13</ele>
        <time>2015-08-15T21:01:17Z</time>
      </trkpt>
      <trkpt lat="47.32244" lon="1.06134">
        <ele>50.13</ele>
        <time>2015-08-15T21:01:27Z</time>
      </trkpt>
      <trkpt lat="47.32245" lon="1.06137">
        <ele>50.13</ele>
        <time>2015-08-15T21:01:28Z</time>
      </trkpt>
      <trkpt lat="47.32254" lon="1.06186">
        <ele>50.13</ele>
        <time>2015-08-15T21:01:39Z</time>
      </trkpt>
      <trkpt lat="47.32255" lon="1.06208">
        <ele>49.65</ele>
        <time>2015-08-15T21:01:44Z</time>
      </trkpt>
      <trkpt lat="47.32257" lon="1.06257">
        <ele>50.13</ele>
        <time>2015-08-15T21:01:55Z</time>
      </trkpt>
      <trkpt lat="47.32259" lon="1.0628">
        <ele>50.13</ele>
        <time>2015-08-15T21:02:02Z</time>
      </trkpt>
      <trkpt lat="47.3226" lon="1.06292">
        <ele>50.13</ele>
        <time>2015-08-15T21:02:06Z</time>
      </trkpt>
      <trkpt lat="47.32265" lon="1.06312">
        <ele>49.65</ele>
        <time>2015-08-15T21:02:15Z</time>
      </trkpt>
      <trkpt lat="47.32266" lon="1.06326">
        <ele>49.65</ele>
        <time>2015-08-15T21:02:18Z</time>
      </trkpt>
      <trkpt lat="47.32269" lon="1.06373">
        <ele>50.13</ele>
        <time>2015-08-15T21:02:29Z</time>
      </trkpt>
      <trkpt lat="47.32273" lon="1.06389">
        <ele>49.65</ele>
        <time>2015-08-15T21:02:33Z</time>
      </trkpt>
      <trkpt lat="47.3228" lon="1.06423">
        <ele>49.65</ele>
        <time>2015-08-15T21:02:41Z</time>
      </trkpt>
      <trkpt lat="47.32284" lon="1.06477">
        <ele>49.65</ele>
        <time>2015-08-15T21:02:54Z</time>
      </trkpt>
      <trkpt lat="47.32287" lon="1.06524">
        <ele>50.13</ele>
        <time>2015-08-15T21:03:05Z</time>
      </trkpt>
      <trkpt lat="47.3229" lon="1.06541">
        <ele>50.13</ele>
        <time>2015-08-15T21:03:10Z</time>
      </trkpt>
      <trkpt lat="47.32297" lon="1.06561">
        <ele>50.13</ele>
        <time>2015-08-15T21:03:16Z</time>
      </trkpt>
      <trkpt lat="47.32299" lon="1.06578">
        <ele>49.65</ele>
        <time>2015-08-15T21:03:23Z</time>
      </trkpt>
      <trkpt lat="47.32306" lon="1.06598">
        <ele>50.13</ele>
        <time>2015-08-15T21:03:29Z</time>
      </trkpt>
      <trkpt lat="47.32307" lon="1.06613">
        <ele>49.65</ele>
        <time>2015-08-15T21:03:34Z</time>
      </trkpt>
      <trkpt lat="47.32307" lon="1.06615">
        <ele>49.65</ele>
        <time>2015-08-15T21:03:35Z</time>
      </trkpt>
      <trkpt lat="47.32316" lon="1.06638">
        <ele>49.65</ele>
        <time>2015-08-15T21:03:43Z</time>
      </trkpt>
      <trkpt lat="47.32319" lon="1.06654">
        <ele>49.65</ele>
        <time>2015-08-15T21:03:47Z</time>
      </trkpt>
      <trkpt lat="47.3233" lon="1.06701">
        <ele>49.65</ele>
        <time>2015-08-15T21:03:58Z</time>
      </trkpt>
      <trkpt lat="47.3234" lon="1.06747">
        <ele>49.65</ele>
        <time>2015-08-15T21:04:10Z</time>
      </trkpt>
      <trkpt lat="47.32348" lon="1.06788">
        <ele>49.65</ele>
        <time>2015-08-15T21:04:21Z</time>
      </trkpt>
      <trkpt lat="47.32363" lon="1.0684">
        <ele>49.65</ele>
        <time>2015-08-15T21:04:34Z</time>
      </trkpt>
      <trkpt lat="47.32361" lon="1.06858">
        <ele>50.13</ele>
        <time>2015-08-15T21:04:41Z</time>
      </trkpt>
      <trkpt lat="47.3236" lon="1.0686">
        <ele>50.13</ele>
        <time>2015-08-15T21:04:43Z</time>
      </trkpt>
      <trkpt lat="47.32358" lon="1.06867">
        <ele>50.13</ele>
        <time>2015-08-15T21:04:46Z</time>
      </trkpt>
      <trkpt lat="47.32365" lon="1.0688">
        <ele>50.13</ele>
        <time>2015-08-15T21:04:54Z</time>
      </trkpt>
      <trkpt lat="47.32367" lon="1.06881">
        <ele>50.13</ele>
        <time>2015-08-15T21:04:55Z</time>
      </trkpt>
      <trkpt lat="47.32368" lon="1.06882">
        <ele>50.13</ele>
        <time>2015-08-15T21:04:56Z</time>
      </trkpt>
      <trkpt lat="47.32376" lon="1.06895">
        <ele>49.65</ele>
        <time>2015-08-15T21:05:01Z</time>
      </trkpt>
      <trkpt lat="47.32378" lon="1.06899">
        <ele>49.65</ele>
        <time>2015-08-15T21:05:02Z</time>
      </trkpt>
      <trkpt lat="47.32379" lon="1.06902">
        <ele>49.65</ele>
        <time>2015-08-15T21:05:03Z</time>
      </trkpt>
      <trkpt lat="47.32381" lon="1.06906">
        <ele>49.65</ele>
        <time>2015-08-15T21:05:04Z</time>
      </trkpt>
      <trkpt lat="47.32382" lon="1.06909">
        <ele>49.65</ele>
        <time>2015-08-15T21:05:05Z</time>
      </trkpt>
      <trkpt lat="47.3239" lon="1.06948">
        <ele>49.65</ele>
        <time>2015-08-15T21:05:16Z</time>
      </trkpt>
      <trkpt lat="47.32401" lon="1.06994">
        <ele>49.65</ele>
        <time>2015-08-15T21:05:30Z</time>
      </trkpt>
      <trkpt lat="47.32402" lon="1.06997">
        <ele>49.65</ele>
        <time>2015-08-15T21:05:31Z</time>
      </trkpt>
      <trkpt lat="47.32402" lon="1.07">
        <ele>49.65</ele>
        <time>2015-08-15T21:05:32Z</time>
      </trkpt>
      <trkpt lat="47.32403" lon="1.07003">
        <ele>49.65</ele>
        <time>2015-08-15T21:05:33Z</time>
      </trkpt>
      <trkpt lat="47.32403" lon="1.07006">
        <ele>49.65</ele>
        <time>2015-08-15T21:05:34Z</time>
      </trkpt>
      <trkpt lat="47.32404" lon="1.07009">
        <ele>49.65</ele>
        <time>2015-08-15T21:05:36Z</time>
      </trkpt>
      <trkpt lat="47.32405" lon="1.07011">
        <ele>49.65</ele>
        <time>2015-08-15T21:05:37Z</time>
      </trkpt>
      <trkpt lat="47.32406" lon="1.07013">
        <ele>49.65</ele>
        <time>2015-08-15T21:05:38Z</time>
      </trkpt>
      <trkpt lat="47.32406" lon="1.07016">
        <ele>49.65</ele>
        <time>2015-08-15T21:05:39Z</time>
      </trkpt>
      <trkpt lat="47.32406" lon="1.07018">
        <ele>49.65</ele>
        <time>2015-08-15T21:05:40Z</time>
      </trkpt>
      <trkpt lat="47.32406" lon="1.07021">
        <ele>49.65</ele>
        <time>2015-08-15T21:05:56Z</time>
      </trkpt>
      <trkpt lat="47.32406" lon="1.07021">
        <ele>49.65</ele>
        <time>2015-08-15T21:06:25Z</time>
      </trkpt>
      <trkpt lat="47.32405" lon="1.07021">
        <ele>49.16</ele>
        <time>2015-08-15T21:06:53Z</time>
      </trkpt>
      <trkpt lat="47.32405" lon="1.07022">
        <ele>49.16</ele>
        <time>2015-08-15T21:07:26Z</time>
      </trkpt>
      <trkpt lat="47.32406" lon="1.07021">
        <ele>48.68</ele>
        <time>2015-08-15T21:07:51Z</time>
      </trkpt>
      <trkpt lat="47.32406" lon="1.0702">
        <ele>48.2</ele>
        <time>2015-08-15T21:08:32Z</time>
      </trkpt>
      <trkpt lat="47.32407" lon="1.07021">
        <ele>48.2</ele>
        <time>2015-08-15T21:09:06Z</time>
      </trkpt>
      <trkpt lat="47.32408" lon="1.07019">
        <ele>47.72</ele>
        <time>2015-08-15T21:09:37Z</time>
      </trkpt>
      <trkpt lat="47.32408" lon="1.0702">
        <ele>47.72</ele>
        <time>2015-08-15T21:10:07Z</time>
      </trkpt>
      <trkpt lat="47.32408" lon="1.07019">
        <ele>47.24</ele>
        <time>2015-08-15T21:10:38Z</time>
      </trkpt>
      <trkpt lat="47.32408" lon="1.07019">
        <ele>47.24</ele>
        <time>2015-08-15T21:11:14Z</time>
      </trkpt>
      <trkpt lat="47.32408" lon="1.07018">
        <ele>47.24</ele>
        <time>2015-08-15T21:11:37Z</time>
      </trkpt>
      <trkpt lat="47.32408" lon="1.07017">
        <ele>46.76</ele>
        <time>2015-08-15T21:12:17Z</time>
      </trkpt>
      <trkpt lat="47.32408" lon="1.07017">
        <ele>46.76</ele>
        <time>2015-08-15T21:12:48Z</time>
      </trkpt>
      <trkpt lat="47.32408" lon="1.07016">
        <ele>46.76</ele>
        <time>2015-08-15T21:13:11Z</time>
      </trkpt>
      <trkpt lat="47.32412" lon="1.0702">
        <ele>46.76</ele>
        <time>2015-08-15T21:13:21Z</time>
      </trkpt>
      <trkpt lat="47.32412" lon="1.07022">
        <ele>46.76</ele>
        <time>2015-08-15T21:13:22Z</time>
      </trkpt>
      <trkpt lat="47.32413" lon="1.07025">
        <ele>46.76</ele>
        <time>2015-08-15T21:13:23Z</time>
      </trkpt>
      <trkpt lat="47.32413" lon="1.07028">
        <ele>46.76</ele>
        <time>2015-08-15T21:13:24Z</time>
      </trkpt>
      <trkpt lat="47.32416" lon="1.07045">
        <ele>46.28</ele>
        <time>2015-08-15T21:13:30Z</time>
      </trkpt>
      <trkpt lat="47.32416" lon="1.07048">
        <ele>46.76</ele>
        <time>2015-08-15T21:13:31Z</time>
      </trkpt>
      <trkpt lat="47.32422" lon="1.07062">
        <ele>46.28</ele>
        <time>2015-08-15T21:13:35Z</time>
      </trkpt>
      <trkpt lat="47.32422" lon="1.07064">
        <ele>45.8</ele>
        <time>2015-08-15T21:13:36Z</time>
      </trkpt>
      <trkpt lat="47.32423" lon="1.07067">
        <ele>46.28</ele>
        <time>2015-08-15T21:13:37Z</time>
      </trkpt>
      <trkpt lat="47.32428" lon="1.07085">
        <ele>46.28</ele>
        <time>2015-08-15T21:13:43Z</time>
      </trkpt>
      <trkpt lat="47.32446" lon="1.07121">
        <ele>46.76</ele>
        <time>2015-08-15T21:13:53Z</time>
      </trkpt>
      <trkpt lat="47.32463" lon="1.07179">
        <ele>46.28</ele>
        <time>2015-08-15T21:14:08Z</time>
      </trkpt>
      <trkpt lat="47.32464" lon="1.07183">
        <ele>46.28</ele>
        <time>2015-08-15T21:14:09Z</time>
      </trkpt>
      <trkpt lat="47.32465" lon="1.07186">
        <ele>46.76</ele>
        <time>2015-08-15T21:14:10Z</time>
      </trkpt>
      <trkpt lat="47.32465" lon="1.07189">
        <ele>46.28</ele>
        <time>2015-08-15T21:14:11Z</time>
      </trkpt>
      <trkpt lat="47.32466" lon="1.07192">
        <ele>46.28</ele>
        <time>2015-08-15T21:14:12Z</time>
      </trkpt>
      <trkpt lat="47.32466" lon="1.07195">
        <ele>46.28</ele>
        <time>2015-08-15T21:14:13Z</time>
      </trkpt>
      <trkpt lat="47.32467" lon="1.07198">
        <ele>46.28</ele>
        <time>2015-08-15T21:14:14Z</time>
      </trkpt>
      <trkpt lat="47.32468" lon="1.07201">
        <ele>46.28</ele>
        <time>2015-08-15T21:14:15Z</time>
      </trkpt>
      <trkpt lat="47.32469" lon="1.07204">
        <ele>46.28</ele>
        <time>2015-08-15T21:14:16Z</time>
      </trkpt>
      <trkpt lat="47.3247" lon="1.07206">
        <ele>46.28</ele>
        <time>2015-08-15T21:14:17Z</time>
      </trkpt>
      <trkpt lat="47.3247" lon="1.07208">
        <ele>46.28</ele>
        <time>2015-08-15T21:14:18Z</time>
      </trkpt>
      <trkpt lat="47.32472" lon="1.0721">
        <ele>46.28</ele>
        <time>2015-08-15T21:14:32Z</time>
      </trkpt>
      <trkpt lat="47.32472" lon="1.07207">
        <ele>46.28</ele>
        <time>2015-08-15T21:15:01Z</time>
      </trkpt>
      <trkpt lat="47.32472" lon="1.0721">
        <ele>45.8</ele>
        <time>2015-08-15T21:15:31Z</time>
      </trkpt>
      <trkpt lat="47.3247" lon="1.07214">
        <ele>45.32</ele>
        <time>2015-08-15T21:16:00Z</time>
      </trkpt>
      <trkpt lat="47.32469" lon="1.07216">
        <ele>45.32</ele>
        <time>2015-08-15T21:16:18Z</time>
      </trkpt>
      <trkpt lat="47.32469" lon="1.07215">
        <ele>45.32</ele>
        <time>2015-08-15T21:16:45Z</time>
      </trkpt>
      <trkpt lat="47.32467" lon="1.07211">
        <ele>45.32</ele>
        <time>2015-08-15T21:16:59Z</time>
      </trkpt>
      <trkpt lat="47.32468" lon="1.07212">
        <ele>45.32</ele>
        <time>2015-08-15T21:17:14Z</time>
      </trkpt>
      <trkpt lat="47.32466" lon="1.07213">
        <ele>44.84</ele>
        <time>2015-08-15T21:17:44Z</time>
      </trkpt>
      <trkpt lat="47.32462" lon="1.07198">
        <ele>44.84</ele>
        <time>2015-08-15T21:17:58Z</time>
      </trkpt>
      <trkpt lat="47.32462" lon="1.07197">
        <ele>44.84</ele>
        <time>2015-08-15T21:18:01Z</time>
      </trkpt>
      <trkpt lat="47.32463" lon="1.07197">
        <ele>44.84</ele>
        <time>2015-08-15T21:18:02Z</time>
      </trkpt>
      <trkpt lat="47.32465" lon="1.07205">
        <ele>44.84</ele>
        <time>2015-08-15T21:18:07Z</time>
      </trkpt>
      <trkpt lat="47.32465" lon="1.07207">
        <ele>44.84</ele>
        <time>2015-08-15T21:18:08Z</time>
      </trkpt>
      <trkpt lat="47.32465" lon="1.07209">
        <ele>44.84</ele>
        <time>2015-08-15T21:18:09Z</time>
      </trkpt>
      <trkpt lat="47.3247" lon="1.07226">
        <ele>44.84</ele>
        <time>2015-08-15T21:18:31Z</time>
      </trkpt>
      <trkpt lat="47.3248" lon="1.07247">
        <ele>44.84</ele>
        <time>2015-08-15T21:18:44Z</time>
      </trkpt>
      <trkpt lat="47.32487" lon="1.0728">
        <ele>44.84</ele>
        <time>2015-08-15T21:18:56Z</time>
      </trkpt>
      <trkpt lat="47.32494" lon="1.07307">
        <ele>44.36</ele>
        <time>2015-08-15T21:19:07Z</time>
      </trkpt>
      <trkpt lat="47.32495" lon="1.0731">
        <ele>44.36</ele>
        <time>2015-08-15T21:19:08Z</time>
      </trkpt>
      <trkpt lat="47.32498" lon="1.07315">
        <ele>44.36</ele>
        <time>2015-08-15T21:19:13Z</time>
      </trkpt>
      <trkpt lat="47.32505" lon="1.07329">
        <ele>44.36</ele>
        <time>2015-08-15T21:19:25Z</time>
      </trkpt>
      <trkpt lat="47.32504" lon="1.0733">
        <ele>43.88</ele>
        <time>2015-08-15T21:19:51Z</time>
      </trkpt>
      <trkpt lat="47.32505" lon="1.07332">
        <ele>43.88</ele>
        <time>2015-08-15T21:20:26Z</time>
      </trkpt>
      <trkpt lat="47.32511" lon="1.07336">
        <ele>43.4</ele>
        <time>2015-08-15T21:21:00Z</time>
      </trkpt>
      <trkpt lat="47.32518" lon="1.07349">
        <ele>43.4</ele>
        <time>2015-08-15T21:21:29Z</time>
      </trkpt>
      <trkpt lat="47.32535" lon="1.07381">
        <ele>42.92</ele>
        <time>2015-08-15T21:21:41Z</time>
      </trkpt>
      <trkpt lat="47.32537" lon="1.07384">
        <ele>42.92</ele>
        <time>2015-08-15T21:21:42Z</time>
      </trkpt>
      <trkpt lat="47.32538" lon="1.07386">
        <ele>43.4</ele>
        <time>2015-08-15T21:21:43Z</time>
      </trkpt>
      <trkpt lat="47.32539" lon="1.07389">
        <ele>43.4</ele>
        <time>2015-08-15T21:21:44Z</time>
      </trkpt>
      <trkpt lat="47.32541" lon="1.07392">
        <ele>43.4</ele>
        <time>2015-08-15T21:21:45Z</time>
      </trkpt>
      <trkpt lat="47.32542" lon="1.07394">
        <ele>43.4</ele>
        <time>2015-08-15T21:21:46Z</time>
      </trkpt>
      <trkpt lat="47.32544" lon="1.07396">
        <ele>43.4</ele>
        <time>2015-08-15T21:21:47Z</time>
      </trkpt>
      <trkpt lat="47.32545" lon="1.07399">
        <ele>42.92</ele>
        <time>2015-08-15T21:21:48Z</time>
      </trkpt>
      <trkpt lat="47.32547" lon="1.074">
        <ele>43.4</ele>
        <time>2015-08-15T21:21:49Z</time>
      </trkpt>
      <trkpt lat="47.32548" lon="1.07402">
        <ele>42.92</ele>
        <time>2015-08-15T21:21:50Z</time>
      </trkpt>
      <trkpt lat="47.32556" lon="1.07423">
        <ele>43.4</ele>
        <time>2015-08-15T21:21:58Z</time>
      </trkpt>
      <trkpt lat="47.32557" lon="1.07426">
        <ele>43.4</ele>
        <time>2015-08-15T21:21:59Z</time>
      </trkpt>
      <trkpt lat="47.32558" lon="1.07428">
        <ele>43.4</ele>
        <time>2015-08-15T21:22:00Z</time>
      </trkpt>
      <trkpt lat="47.32567" lon="1.07472">
        <ele>43.4</ele>
        <time>2015-08-15T21:22:11Z</time>
      </trkpt>
      <trkpt lat="47.32565" lon="1.0751">
        <ele>42.92</ele>
        <time>2015-08-15T21:22:20Z</time>
      </trkpt>
      <trkpt lat="47.32573" lon="1.07563">
        <ele>42.92</ele>
        <time>2015-08-15T21:22:31Z</time>
      </trkpt>
      <trkpt lat="47.32577" lon="1.07582">
        <ele>42.92</ele>
        <time>2015-08-15T21:22:35Z</time>
      </trkpt>
      <trkpt lat="47.32577" lon="1.07587">
        <ele>42.44</ele>
        <time>2015-08-15T21:22:36Z</time>
      </trkpt>
      <trkpt lat="47.32577" lon="1.07591">
        <ele>42.44</ele>
        <time>2015-08-15T21:22:37Z</time>
      </trkpt>
      <trkpt lat="47.32579" lon="1.07615">
        <ele>42.44</ele>
        <time>2015-08-15T21:22:43Z</time>
      </trkpt>
      <trkpt lat="47.32581" lon="1.07656">
        <ele>42.44</ele>
        <time>2015-08-15T21:22:52Z</time>
      </trkpt>
      <trkpt lat="47.32581" lon="1.0766">
        <ele>42.44</ele>
        <time>2015-08-15T21:22:53Z</time>
      </trkpt>
      <trkpt lat="47.32582" lon="1.07664">
        <ele>42.44</ele>
        <time>2015-08-15T21:22:54Z</time>
      </trkpt>
      <trkpt lat="47.32582" lon="1.07668">
        <ele>41.95</ele>
        <time>2015-08-15T21:22:55Z</time>
      </trkpt>
      <trkpt lat="47.32582" lon="1.07672">
        <ele>41.95</ele>
        <time>2015-08-15T21:22:56Z</time>
      </trkpt>
      <trkpt lat="47.32583" lon="1.07676">
        <ele>42.44</ele>
        <time>2015-08-15T21:22:57Z</time>
      </trkpt>
      <trkpt lat="47.32582" lon="1.0768">
        <ele>42.44</ele>
        <time>2015-08-15T21:22:58Z</time>
      </trkpt>
      <trkpt lat="47.32586" lon="1.07715">
        <ele>41.95</ele>
        <time>2015-08-15T21:23:06Z</time>
      </trkpt>
      <trkpt lat="47.32588" lon="1.07762">
        <ele>41.95</ele>
        <time>2015-08-15T21:23:16Z</time>
      </trkpt>
      <trkpt lat="47.32589" lon="1.07806">
        <ele>42.44</ele>
        <time>2015-08-15T21:23:26Z</time>
      </trkpt>
      <trkpt lat="47.3259" lon="1.07826">
        <ele>41.95</ele>
        <time>2015-08-15T21:23:31Z</time>
      </trkpt>
      <trkpt lat="47.32591" lon="1.07831">
        <ele>42.44</ele>
        <time>2015-08-15T21:23:32Z</time>
      </trkpt>
      <trkpt lat="47.32593" lon="1.07846">
        <ele>41.95</ele>
        <time>2015-08-15T21:23:36Z</time>
      </trkpt>
      <trkpt lat="47.32592" lon="1.0785">
        <ele>41.95</ele>
        <time>2015-08-15T21:23:37Z</time>
      </trkpt>
      <trkpt lat="47.32592" lon="1.07859">
        <ele>41.95</ele>
        <time>2015-08-15T21:23:39Z</time>
      </trkpt>
      <trkpt lat="47.32597" lon="1.07914">
        <ele>41.95</ele>
        <time>2015-08-15T21:23:51Z</time>
      </trkpt>
      <trkpt lat="47.32602" lon="1.07951">
        <ele>41.95</ele>
        <time>2015-08-15T21:24:00Z</time>
      </trkpt>
      <trkpt lat="47.32603" lon="1.07954">
        <ele>41.95</ele>
        <time>2015-08-15T21:24:01Z</time>
      </trkpt>
      <trkpt lat="47.32603" lon="1.07958">
        <ele>41.95</ele>
        <time>2015-08-15T21:24:02Z</time>
      </trkpt>
      <trkpt lat="47.32603" lon="1.07961">
        <ele>41.95</ele>
        <time>2015-08-15T21:24:03Z</time>
      </trkpt>
      <trkpt lat="47.32602" lon="1.07964">
        <ele>41.95</ele>
        <time>2015-08-15T21:24:04Z</time>
      </trkpt>
      <trkpt lat="47.32602" lon="1.07967">
        <ele>41.95</ele>
        <time>2015-08-15T21:24:05Z</time>
      </trkpt>
      <trkpt lat="47.32603" lon="1.0797">
        <ele>41.95</ele>
        <time>2015-08-15T21:24:06Z</time>
      </trkpt>
      <trkpt lat="47.32603" lon="1.07974">
        <ele>41.95</ele>
        <time>2015-08-15T21:24:07Z</time>
      </trkpt>
      <trkpt lat="47.32604" lon="1.07977">
        <ele>41.95</ele>
        <time>2015-08-15T21:24:08Z</time>
      </trkpt>
      <trkpt lat="47.32605" lon="1.0798">
        <ele>41.95</ele>
        <time>2015-08-15T21:24:09Z</time>
      </trkpt>
      <trkpt lat="47.32607" lon="1.08015">
        <ele>41.95</ele>
        <time>2015-08-15T21:24:18Z</time>
      </trkpt>
      <trkpt lat="47.32611" lon="1.0807">
        <ele>41.95</ele>
        <time>2015-08-15T21:24:30Z</time>
      </trkpt>
      <trkpt lat="47.32617" lon="1.08109">
        <ele>41.95</ele>
        <time>2015-08-15T21:24:39Z</time>
      </trkpt>
      <trkpt lat="47.32624" lon="1.08156">
        <ele>41.47</ele>
        <time>2015-08-15T21:24:50Z</time>
      </trkpt>
      <trkpt lat="47.32631" lon="1.08207">
        <ele>42.92</ele>
        <time>2015-08-15T21:25:01Z</time>
      </trkpt>
      <trkpt lat="47.32643" lon="1.08259">
        <ele>41.47</ele>
        <time>2015-08-15T21:25:14Z</time>
      </trkpt>
      <trkpt lat="47.32651" lon="1.08304">
        <ele>40.99</ele>
        <time>2015-08-15T21:25:29Z</time>
      </trkpt>
      <trkpt lat="47.32651" lon="1.08306">
        <ele>40.99</ele>
        <time>2015-08-15T21:25:30Z</time>
      </trkpt>
      <trkpt lat="47.32631" lon="1.08318">
        <ele>40.99</ele>
        <time>2015-08-15T21:25:40Z</time>
      </trkpt>
      <trkpt lat="47.3259" lon="1.08335">
        <ele>41.47</ele>
        <time>2015-08-15T21:25:53Z</time>
      </trkpt>
      <trkpt lat="47.32587" lon="1.08337">
        <ele>41.47</ele>
        <time>2015-08-15T21:25:54Z</time>
      </trkpt>
      <trkpt lat="47.32583" lon="1.08338">
        <ele>41.47</ele>
        <time>2015-08-15T21:25:55Z</time>
      </trkpt>
      <trkpt lat="47.3258" lon="1.08339">
        <ele>41.47</ele>
        <time>2015-08-15T21:25:56Z</time>
      </trkpt>
      <trkpt lat="47.32576" lon="1.0834">
        <ele>41.47</ele>
        <time>2015-08-15T21:25:57Z</time>
      </trkpt>
      <trkpt lat="47.32573" lon="1.08342">
        <ele>41.47</ele>
        <time>2015-08-15T21:25:58Z</time>
      </trkpt>
      <trkpt lat="47.32571" lon="1.08344">
        <ele>41.47</ele>
        <time>2015-08-15T21:25:59Z</time>
      </trkpt>
      <trkpt lat="47.32569" lon="1.08347">
        <ele>41.95</ele>
        <time>2015-08-15T21:26:00Z</time>
      </trkpt>
      <trkpt lat="47.32569" lon="1.0835">
        <ele>41.95</ele>
        <time>2015-08-15T21:26:01Z</time>
      </trkpt>
      <trkpt lat="47.3257" lon="1.08354">
        <ele>42.44</ele>
        <time>2015-08-15T21:26:02Z</time>
      </trkpt>
      <trkpt lat="47.32572" lon="1.08356">
        <ele>42.44</ele>
        <time>2015-08-15T21:26:03Z</time>
      </trkpt>
      <trkpt lat="47.32586" lon="1.08354">
        <ele>42.92</ele>
        <time>2015-08-15T21:26:07Z</time>
      </trkpt>
      <trkpt lat="47.32646" lon="1.08331">
        <ele>45.8</ele>
        <time>2015-08-15T21:26:20Z</time>
      </trkpt>
      <trkpt lat="47.32677" lon="1.08315">
        <ele>46.76</ele>
        <time>2015-08-15T21:26:30Z</time>
      </trkpt>
      <trkpt lat="47.32727" lon="1.08286">
        <ele>46.28</ele>
        <time>2015-08-15T21:26:46Z</time>
      </trkpt>
      <trkpt lat="47.32765" lon="1.08263">
        <ele>46.76</ele>
        <time>2015-08-15T21:27:02Z</time>
      </trkpt>
      <trkpt lat="47.32798" lon="1.08244">
        <ele>43.88</ele>
        <time>2015-08-15T21:27:18Z</time>
      </trkpt>
      <trkpt lat="47.32836" lon="1.08222">
        <ele>41.47</ele>
        <time>2015-08-15T21:27:38Z</time>
      </trkpt>
      <trkpt lat="47.32845" lon="1.0823">
        <ele>41.47</ele>
        <time>2015-08-15T21:27:44Z</time>
      </trkpt>
      <trkpt lat="47.32838" lon="1.0824">
        <ele>40.99</ele>
        <time>2015-08-15T21:27:48Z</time>
      </trkpt>
      <trkpt lat="47.32787" lon="1.08271">
        <ele>40.03</ele>
        <time>2015-08-15T21:28:04Z</time>
      </trkpt>
      <trkpt lat="47.32776" lon="1.08315">
        <ele>40.03</ele>
        <time>2015-08-15T21:28:14Z</time>
      </trkpt>
      <trkpt lat="47.32802" lon="1.08383">
        <ele>39.55</ele>
        <time>2015-08-15T21:28:29Z</time>
      </trkpt>
      <trkpt lat="47.32828" lon="1.08449">
        <ele>39.55</ele>
        <time>2015-08-15T21:28:43Z</time>
      </trkpt>
      <trkpt lat="47.32858" lon="1.08523">
        <ele>39.55</ele>
        <time>2015-08-15T21:28:58Z</time>
      </trkpt>
      <trkpt lat="47.32875" lon="1.08596">
        <ele>39.55</ele>
        <time>2015-08-15T21:29:12Z</time>
      </trkpt>
      <trkpt lat="47.32884" lon="1.08662">
        <ele>39.07</ele>
        <time>2015-08-15T21:29:25Z</time>
      </trkpt>
      <trkpt lat="47.32895" lon="1.08732">
        <ele>39.07</ele>
        <time>2015-08-15T21:29:42Z</time>
      </trkpt>
      <trkpt lat="47.32901" lon="1.08785">
        <ele>38.59</ele>
        <time>2015-08-15T21:29:56Z</time>
      </trkpt>
      <trkpt lat="47.32905" lon="1.08841">
        <ele>38.59</ele>
        <time>2015-08-15T21:30:09Z</time>
      </trkpt>
      <trkpt lat="47.32905" lon="1.08888">
        <ele>39.07</ele>
        <time>2015-08-15T21:30:20Z</time>
      </trkpt>
      <trkpt lat="47.32909" lon="1.08946">
        <ele>39.55</ele>
        <time>2015-08-15T21:30:34Z</time>
      </trkpt>
      <trkpt lat="47.32915" lon="1.08999">
        <ele>39.07</ele>
        <time>2015-08-15T21:30:50Z</time>
      </trkpt>
      <trkpt lat="47.32914" lon="1.09009">
        <ele>39.07</ele>
        <time>2015-08-15T21:31:02Z</time>
      </trkpt>
      <trkpt lat="47.32925" lon="1.0907">
        <ele>39.07</ele>
        <time>2015-08-15T21:31:16Z</time>
      </trkpt>
      <trkpt lat="47.32935" lon="1.09119">
        <ele>38.59</ele>
        <time>2015-08-15T21:31:30Z</time>
      </trkpt>
      <trkpt lat="47.32937" lon="1.09124">
        <ele>38.11</ele>
        <time>2015-08-15T21:31:44Z</time>
      </trkpt>
      <trkpt lat="47.32937" lon="1.09124">
        <ele>37.63</ele>
        <time>2015-08-15T21:32:20Z</time>
      </trkpt>
      <trkpt lat="47.32937" lon="1.09123">
        <ele>37.15</ele>
        <time>2015-08-15T21:32:48Z</time>
      </trkpt>
      <trkpt lat="47.32939" lon="1.09123">
        <ele>37.15</ele>
        <time>2015-08-15T21:33:15Z</time>
      </trkpt>
      <trkpt lat="47.32937" lon="1.09123">
        <ele>36.67</ele>
        <time>2015-08-15T21:33:42Z</time>
      </trkpt>
      <trkpt lat="47.32938" lon="1.09124">
        <ele>36.19</ele>
        <time>2015-08-15T21:33:59Z</time>
      </trkpt>
      <trkpt lat="47.32937" lon="1.09123">
        <ele>36.19</ele>
        <time>2015-08-15T21:34:13Z</time>
      </trkpt>
      <trkpt lat="47.32937" lon="1.09124">
        <ele>36.19</ele>
        <time>2015-08-15T21:34:14Z</time>
      </trkpt>
      <trkpt lat="47.32938" lon="1.09126">
        <ele>36.19</ele>
        <time>2015-08-15T21:34:15Z</time>
      </trkpt>
      <trkpt lat="47.32938" lon="1.09127">
        <ele>36.19</ele>
        <time>2015-08-15T21:34:16Z</time>
      </trkpt>
      <trkpt lat="47.32939" lon="1.09129">
        <ele>36.19</ele>
        <time>2015-08-15T21:34:17Z</time>
      </trkpt>
      <trkpt lat="47.3294" lon="1.09131">
        <ele>36.19</ele>
        <time>2015-08-15T21:34:18Z</time>
      </trkpt>
      <trkpt lat="47.32941" lon="1.09133">
        <ele>36.19</ele>
        <time>2015-08-15T21:34:19Z</time>
      </trkpt>
      <trkpt lat="47.32942" lon="1.09139">
        <ele>36.19</ele>
        <time>2015-08-15T21:34:22Z</time>
      </trkpt>
      <trkpt lat="47.32954" lon="1.09181">
        <ele>35.71</ele>
        <time>2015-08-15T21:34:36Z</time>
      </trkpt>
      <trkpt lat="47.32973" lon="1.09222">
        <ele>35.71</ele>
        <time>2015-08-15T21:34:48Z</time>
      </trkpt>
      <trkpt lat="47.32991" lon="1.09271">
        <ele>35.23</ele>
        <time>2015-08-15T21:35:02Z</time>
      </trkpt>
      <trkpt lat="47.32999" lon="1.09292">
        <ele>34.74</ele>
        <time>2015-08-15T21:35:15Z</time>
      </trkpt>
      <trkpt lat="47.33019" lon="1.09346">
        <ele>35.23</ele>
        <time>2015-08-15T21:35:28Z</time>
      </trkpt>
      <trkpt lat="47.33028" lon="1.09406">
        <ele>34.74</ele>
        <time>2015-08-15T21:35:39Z</time>
      </trkpt>
      <trkpt lat="47.33031" lon="1.09453">
        <ele>34.74</ele>
        <time>2015-08-15T21:35:50Z</time>
      </trkpt>
      <trkpt lat="47.3303" lon="1.09457">
        <ele>34.74</ele>
        <time>2015-08-15T21:35:54Z</time>
      </trkpt>
      <trkpt lat="47.33029" lon="1.09455">
        <ele>34.74</ele>
        <time>2015-08-15T21:35:56Z</time>
      </trkpt>
      <trkpt lat="47.33029" lon="1.09446">
        <ele>34.74</ele>
        <time>2015-08-15T21:36:09Z</time>
      </trkpt>
      <trkpt lat="47.3303" lon="1.09449">
        <ele>34.26</ele>
        <time>2015-08-15T21:36:17Z</time>
      </trkpt>
      <trkpt lat="47.3303" lon="1.09465">
        <ele>34.26</ele>
        <time>2015-08-15T21:36:22Z</time>
      </trkpt>
      <trkpt lat="47.33036" lon="1.09509">
        <ele>34.26</ele>
        <time>2015-08-15T21:36:37Z</time>
      </trkpt>
      <trkpt lat="47.33041" lon="1.0954">
        <ele>34.26</ele>
        <time>2015-08-15T21:36:49Z</time>
      </trkpt>
      <trkpt lat="47.33041" lon="1.0954">
        <ele>33.78</ele>
        <time>2015-08-15T21:36:54Z</time>
      </trkpt>
      <trkpt lat="47.33042" lon="1.09543">
        <ele>33.78</ele>
        <time>2015-08-15T21:37:10Z</time>
      </trkpt>
      <trkpt lat="47.33043" lon="1.09538">
        <ele>33.78</ele>
        <time>2015-08-15T21:37:22Z</time>
      </trkpt>
      <trkpt lat="47.33041" lon="1.0953">
        <ele>33.78</ele>
        <time>2015-08-15T21:37:25Z</time>
      </trkpt>
      <trkpt lat="47.33043" lon="1.09517">
        <ele>33.78</ele>
        <time>2015-08-15T21:37:32Z</time>
      </trkpt>
      <trkpt lat="47.33046" lon="1.09521">
        <ele>33.78</ele>
        <time>2015-08-15T21:37:34Z</time>
      </trkpt>
      <trkpt lat="47.33046" lon="1.09524">
        <ele>33.78</ele>
        <time>2015-08-15T21:37:36Z</time>
      </trkpt>
      <trkpt lat="47.33046" lon="1.09525">
        <ele>33.78</ele>
        <time>2015-08-15T21:37:37Z</time>
      </trkpt>
      <trkpt lat="47.3305" lon="1.09526">
        <ele>33.78</ele>
        <time>2015-08-15T21:37:38Z</time>
      </trkpt>
      <trkpt lat="47.33051" lon="1.09527">
        <ele>33.78</ele>
        <time>2015-08-15T21:37:39Z</time>
      </trkpt>
      <trkpt lat="47.33052" lon="1.09529">
        <ele>33.78</ele>
        <time>2015-08-15T21:37:40Z</time>
      </trkpt>
      <trkpt lat="47.33052" lon="1.0956">
        <ele>33.78</ele>
        <time>2015-08-15T21:37:46Z</time>
      </trkpt>
      <trkpt lat="47.33051" lon="1.09646">
        <ele>33.78</ele>
        <time>2015-08-15T21:38:00Z</time>
      </trkpt>
      <trkpt lat="47.33048" lon="1.09722">
        <ele>34.26</ele>
        <time>2015-08-15T21:38:13Z</time>
      </trkpt>
      <trkpt lat="47.3305" lon="1.09787">
        <ele>34.26</ele>
        <time>2015-08-15T21:38:24Z</time>
      </trkpt>
      <trkpt lat="47.33051" lon="1.09793">
        <ele>34.26</ele>
        <time>2015-08-15T21:38:25Z</time>
      </trkpt>
      <trkpt lat="47.33061" lon="1.09862">
        <ele>34.26</ele>
        <time>2015-08-15T21:38:37Z</time>
      </trkpt>
      <trkpt lat="47.33069" lon="1.09931">
        <ele>34.74</ele>
        <time>2015-08-15T21:38:50Z</time>
      </trkpt>
      <trkpt lat="47.33073" lon="1.09984">
        <ele>34.74</ele>
        <time>2015-08-15T21:39:01Z</time>
      </trkpt>
      <trkpt lat="47.33088" lon="1.1004">
        <ele>34.74</ele>
        <time>2015-08-15T21:39:14Z</time>
      </trkpt>
      <trkpt lat="47.33099" lon="1.1011">
        <ele>34.74</ele>
        <time>2015-08-15T21:39:28Z</time>
      </trkpt>
      <trkpt lat="47.33112" lon="1.1019">
        <ele>35.23</ele>
        <time>2015-08-15T21:39:42Z</time>
      </trkpt>
      <trkpt lat="47.33117" lon="1.10238">
        <ele>34.74</ele>
        <time>2015-08-15T21:39:51Z</time>
      </trkpt>
      <trkpt lat="47.33124" lon="1.10293">
        <ele>34.74</ele>
        <time>2015-08-15T21:40:02Z</time>
      </trkpt>
      <trkpt lat="47.33131" lon="1.10355">
        <ele>34.74</ele>
        <time>2015-08-15T21:40:13Z</time>
      </trkpt>
      <trkpt lat="47.33131" lon="1.10361">
        <ele>34.74</ele>
        <time>2015-08-15T21:40:14Z</time>
      </trkpt>
      <trkpt lat="47.33132" lon="1.10368">
        <ele>34.74</ele>
        <time>2015-08-15T21:40:15Z</time>
      </trkpt>
      <trkpt lat="47.33133" lon="1.10374">
        <ele>34.74</ele>
        <time>2015-08-15T21:40:16Z</time>
      </trkpt>
      <trkpt lat="47.33134" lon="1.1038">
        <ele>34.74</ele>
        <time>2015-08-15T21:40:17Z</time>
      </trkpt>
      <trkpt lat="47.33139" lon="1.10418">
        <ele>35.23</ele>
        <time>2015-08-15T21:40:23Z</time>
      </trkpt>
      <trkpt lat="47.33144" lon="1.10461">
        <ele>35.23</ele>
        <time>2015-08-15T21:40:31Z</time>
      </trkpt>
      <trkpt lat="47.33156" lon="1.10516">
        <ele>34.74</ele>
        <time>2015-08-15T21:40:42Z</time>
      </trkpt>
      <trkpt lat="47.33171" lon="1.1058">
        <ele>34.74</ele>
        <time>2015-08-15T21:40:54Z</time>
      </trkpt>
      <trkpt lat="47.33199" lon="1.10661">
        <ele>35.23</ele>
        <time>2015-08-15T21:41:08Z</time>
      </trkpt>
      <trkpt lat="47.3323" lon="1.10736">
        <ele>35.23</ele>
        <time>2015-08-15T21:41:22Z</time>
      </trkpt>
      <trkpt lat="47.33233" lon="1.10747">
        <ele>35.23</ele>
        <time>2015-08-15T21:41:24Z</time>
      </trkpt>
      <trkpt lat="47.33264" lon="1.10826">
        <ele>35.71</ele>
        <time>2015-08-15T21:41:37Z</time>
      </trkpt>
      <trkpt lat="47.33272" lon="1.10853">
        <ele>35.71</ele>
        <time>2015-08-15T21:41:42Z</time>
      </trkpt>
      <trkpt lat="47.33293" lon="1.10919">
        <ele>35.71</ele>
        <time>2015-08-15T21:41:54Z</time>
      </trkpt>
      <trkpt lat="47.33301" lon="1.10964">
        <ele>35.71</ele>
        <time>2015-08-15T21:42:01Z</time>
      </trkpt>
      <trkpt lat="47.33305" lon="1.10989">
        <ele>36.19</ele>
        <time>2015-08-15T21:42:05Z</time>
      </trkpt>
      <trkpt lat="47.33306" lon="1.10995">
        <ele>36.19</ele>
        <time>2015-08-15T21:42:06Z</time>
      </trkpt>
      <trkpt lat="47.3332" lon="1.11095">
        <ele>36.19</ele>
        <time>2015-08-15T21:42:22Z</time>
      </trkpt>
      <trkpt lat="47.33327" lon="1.11172">
        <ele>36.19</ele>
        <time>2015-08-15T21:42:35Z</time>
      </trkpt>
      <trkpt lat="47.33334" lon="1.11254">
        <ele>36.19</ele>
        <time>2015-08-15T21:42:49Z</time>
      </trkpt>
      <trkpt lat="47.3334" lon="1.11318">
        <ele>35.71</ele>
        <time>2015-08-15T21:43:02Z</time>
      </trkpt>
      <trkpt lat="47.33346" lon="1.11382">
        <ele>35.71</ele>
        <time>2015-08-15T21:43:15Z</time>
      </trkpt>
      <trkpt lat="47.33346" lon="1.11388">
        <ele>35.23</ele>
        <time>2015-08-15T21:43:16Z</time>
      </trkpt>
      <trkpt lat="47.33347" lon="1.11394">
        <ele>35.23</ele>
        <time>2015-08-15T21:43:17Z</time>
      </trkpt>
      <trkpt lat="47.33347" lon="1.11401">
        <ele>35.23</ele>
        <time>2015-08-15T21:43:18Z</time>
      </trkpt>
      <trkpt lat="47.33347" lon="1.11408">
        <ele>35.71</ele>
        <time>2015-08-15T21:43:19Z</time>
      </trkpt>
      <trkpt lat="47.33347" lon="1.11414">
        <ele>35.23</ele>
        <time>2015-08-15T21:43:20Z</time>
      </trkpt>
      <trkpt lat="47.33343" lon="1.11497">
        <ele>35.23</ele>
        <time>2015-08-15T21:43:33Z</time>
      </trkpt>
      <trkpt lat="47.33338" lon="1.11558">
        <ele>34.74</ele>
        <time>2015-08-15T21:43:44Z</time>
      </trkpt>
      <trkpt lat="47.33329" lon="1.11628">
        <ele>34.74</ele>
        <time>2015-08-15T21:43:57Z</time>
      </trkpt>
      <trkpt lat="47.33328" lon="1.11633">
        <ele>34.74</ele>
        <time>2015-08-15T21:43:58Z</time>
      </trkpt>
      <trkpt lat="47.33329" lon="1.11639">
        <ele>34.74</ele>
        <time>2015-08-15T21:43:59Z</time>
      </trkpt>
      <trkpt lat="47.33328" lon="1.11671">
        <ele>34.74</ele>
        <time>2015-08-15T21:44:04Z</time>
      </trkpt>
      <trkpt lat="47.33328" lon="1.11678">
        <ele>34.74</ele>
        <time>2015-08-15T21:44:05Z</time>
      </trkpt>
      <trkpt lat="47.33329" lon="1.11685">
        <ele>34.74</ele>
        <time>2015-08-15T21:44:06Z</time>
      </trkpt>
      <trkpt lat="47.33329" lon="1.11691">
        <ele>34.74</ele>
        <time>2015-08-15T21:44:07Z</time>
      </trkpt>
      <trkpt lat="47.3333" lon="1.11697">
        <ele>34.74</ele>
        <time>2015-08-15T21:44:08Z</time>
      </trkpt>
      <trkpt lat="47.33332" lon="1.11709">
        <ele>34.74</ele>
        <time>2015-08-15T21:44:10Z</time>
      </trkpt>
      <trkpt lat="47.33346" lon="1.1176">
        <ele>35.23</ele>
        <time>2015-08-15T21:44:18Z</time>
      </trkpt>
      <trkpt lat="47.33351" lon="1.11814">
        <ele>34.74</ele>
        <time>2015-08-15T21:44:29Z</time>
      </trkpt>
      <trkpt lat="47.33352" lon="1.11878">
        <ele>34.26</ele>
        <time>2015-08-15T21:44:43Z</time>
      </trkpt>
      <trkpt lat="47.33348" lon="1.11932">
        <ele>34.74</ele>
        <time>2015-08-15T21:44:55Z</time>
      </trkpt>
      <trkpt lat="47.33348" lon="1.11936">
        <ele>34.74</ele>
        <time>2015-08-15T21:44:56Z</time>
      </trkpt>
      <trkpt lat="47.33348" lon="1.11943">
        <ele>34.74</ele>
        <time>2015-08-15T21:44:58Z</time>
      </trkpt>
      <trkpt lat="47.33343" lon="1.12001">
        <ele>34.26</ele>
        <time>2015-08-15T21:45:10Z</time>
      </trkpt>
      <trkpt lat="47.33341" lon="1.12053">
        <ele>34.26</ele>
        <time>2015-08-15T21:45:21Z</time>
      </trkpt>
      <trkpt lat="47.33341" lon="1.12107">
        <ele>34.26</ele>
        <time>2015-08-15T21:45:33Z</time>
      </trkpt>
      <trkpt lat="47.3334" lon="1.12145">
        <ele>33.78</ele>
        <time>2015-08-15T21:45:45Z</time>
      </trkpt>
      <trkpt lat="47.33338" lon="1.12159">
        <ele>33.78</ele>
        <time>2015-08-15T21:45:53Z</time>
      </trkpt>
      <trkpt lat="47.33338" lon="1.12165">
        <ele>33.78</ele>
        <time>2015-08-15T21:45:54Z</time>
      </trkpt>
      <trkpt lat="47.33338" lon="1.12171">
        <ele>33.78</ele>
        <time>2015-08-15T21:45:55Z</time>
      </trkpt>
      <trkpt lat="47.33338" lon="1.12195">
        <ele>33.78</ele>
        <time>2015-08-15T21:45:59Z</time>
      </trkpt>
      <trkpt lat="47.33337" lon="1.12201">
        <ele>33.78</ele>
        <time>2015-08-15T21:46:00Z</time>
      </trkpt>
      <trkpt lat="47.33333" lon="1.12275">
        <ele>33.78</ele>
        <time>2015-08-15T21:46:13Z</time>
      </trkpt>
      <trkpt lat="47.3332" lon="1.12359">
        <ele>33.3</ele>
        <time>2015-08-15T21:46:29Z</time>
      </trkpt>
      <trkpt lat="47.33315" lon="1.12387">
        <ele>33.3</ele>
        <time>2015-08-15T21:46:34Z</time>
      </trkpt>
      <trkpt lat="47.33295" lon="1.12496">
        <ele>33.3</ele>
        <time>2015-08-15T21:46:53Z</time>
      </trkpt>
      <trkpt lat="47.33294" lon="1.12502">
        <ele>33.3</ele>
        <time>2015-08-15T21:46:54Z</time>
      </trkpt>
      <trkpt lat="47.33273" lon="1.12594">
        <ele>32.82</ele>
        <time>2015-08-15T21:47:12Z</time>
      </trkpt>
      <trkpt lat="47.33257" lon="1.12648">
        <ele>33.3</ele>
        <time>2015-08-15T21:47:24Z</time>
      </trkpt>
      <trkpt lat="47.33239" lon="1.12729">
        <ele>33.78</ele>
        <time>2015-08-15T21:47:40Z</time>
      </trkpt>
      <trkpt lat="47.33228" lon="1.12799">
        <ele>33.78</ele>
        <time>2015-08-15T21:47:54Z</time>
      </trkpt>
      <trkpt lat="47.33217" lon="1.12886">
        <ele>33.3</ele>
        <time>2015-08-15T21:48:11Z</time>
      </trkpt>
      <trkpt lat="47.3321" lon="1.12926">
        <ele>33.3</ele>
        <time>2015-08-15T21:48:23Z</time>
      </trkpt>
      <trkpt lat="47.33201" lon="1.12963">
        <ele>32.82</ele>
        <time>2015-08-15T21:48:35Z</time>
      </trkpt>
      <trkpt lat="47.33201" lon="1.12967">
        <ele>32.34</ele>
        <time>2015-08-15T21:49:01Z</time>
      </trkpt>
      <trkpt lat="47.33198" lon="1.12987">
        <ele>32.82</ele>
        <time>2015-08-15T21:49:14Z</time>
      </trkpt>
      <trkpt lat="47.33193" lon="1.13041">
        <ele>32.34</ele>
        <time>2015-08-15T21:49:28Z</time>
      </trkpt>
      <trkpt lat="47.33187" lon="1.13084">
        <ele>31.86</ele>
        <time>2015-08-15T21:49:41Z</time>
      </trkpt>
      <trkpt lat="47.3318" lon="1.13131">
        <ele>31.86</ele>
        <time>2015-08-15T21:49:56Z</time>
      </trkpt>
      <trkpt lat="47.33174" lon="1.13185">
        <ele>31.86</ele>
        <time>2015-08-15T21:50:14Z</time>
      </trkpt>
      <trkpt lat="47.3317" lon="1.13234">
        <ele>31.38</ele>
        <time>2015-08-15T21:50:30Z</time>
      </trkpt>
      <trkpt lat="47.3317" lon="1.13273">
        <ele>30.9</ele>
        <time>2015-08-15T21:50:45Z</time>
      </trkpt>
      <trkpt lat="47.33173" lon="1.1328">
        <ele>30.9</ele>
        <time>2015-08-15T21:50:49Z</time>
      </trkpt>
      <trkpt lat="47.33176" lon="1.13282">
        <ele>30.42</ele>
        <time>2015-08-15T21:50:51Z</time>
      </trkpt>
      <trkpt lat="47.33175" lon="1.13329">
        <ele>30.42</ele>
        <time>2015-08-15T21:51:06Z</time>
      </trkpt>
      <trkpt lat="47.33174" lon="1.13401">
        <ele>30.42</ele>
        <time>2015-08-15T21:51:21Z</time>
      </trkpt>
      <trkpt lat="47.33173" lon="1.13476">
        <ele>29.46</ele>
        <time>2015-08-15T21:51:36Z</time>
      </trkpt>
      <trkpt lat="47.33181" lon="1.13533">
        <ele>29.46</ele>
        <time>2015-08-15T21:51:48Z</time>
      </trkpt>
      <trkpt lat="47.33195" lon="1.13612">
        <ele>28.98</ele>
        <time>2015-08-15T21:52:04Z</time>
      </trkpt>
      <trkpt lat="47.33191" lon="1.1367">
        <ele>28.98</ele>
        <time>2015-08-15T21:52:16Z</time>
      </trkpt>
      <trkpt lat="47.33176" lon="1.13722">
        <ele>28.5</ele>
        <time>2015-08-15T21:52:30Z</time>
      </trkpt>
      <trkpt lat="47.33176" lon="1.13786">
        <ele>28.5</ele>
        <time>2015-08-15T21:52:46Z</time>
      </trkpt>
      <trkpt lat="47.33175" lon="1.13842">
        <ele>28.5</ele>
        <time>2015-08-15T21:53:00Z</time>
      </trkpt>
      <trkpt lat="47.33171" lon="1.1391">
        <ele>28.02</ele>
        <time>2015-08-15T21:53:16Z</time>
      </trkpt>
      <trkpt lat="47.33166" lon="1.13983">
        <ele>28.02</ele>
        <time>2015-08-15T21:53:32Z</time>
      </trkpt>
      <trkpt lat="47.33161" lon="1.14006">
        <ele>27.53</ele>
        <time>2015-08-15T21:53:37Z</time>
      </trkpt>
      <trkpt lat="47.33161" lon="1.1401">
        <ele>27.53</ele>
        <time>2015-08-15T21:53:38Z</time>
      </trkpt>
      <trkpt lat="47.33161" lon="1.14063">
        <ele>27.05</ele>
        <time>2015-08-15T21:53:50Z</time>
      </trkpt>
      <trkpt lat="47.33156" lon="1.14115">
        <ele>27.53</ele>
        <time>2015-08-15T21:54:02Z</time>
      </trkpt>
      <trkpt lat="47.33151" lon="1.14166">
        <ele>27.05</ele>
        <time>2015-08-15T21:54:13Z</time>
      </trkpt>
      <trkpt lat="47.33147" lon="1.14212">
        <ele>26.57</ele>
        <time>2015-08-15T21:54:24Z</time>
      </trkpt>
      <trkpt lat="47.33143" lon="1.1427">
        <ele>26.57</ele>
        <time>2015-08-15T21:54:37Z</time>
      </trkpt>
      <trkpt lat="47.33146" lon="1.14324">
        <ele>26.57</ele>
        <time>2015-08-15T21:54:51Z</time>
      </trkpt>
      <trkpt lat="47.33149" lon="1.14372">
        <ele>26.57</ele>
        <time>2015-08-15T21:55:03Z</time>
      </trkpt>
      <trkpt lat="47.33155" lon="1.14439">
        <ele>27.05</ele>
        <time>2015-08-15T21:55:18Z</time>
      </trkpt>
      <trkpt lat="47.33169" lon="1.14506">
        <ele>26.09</ele>
        <time>2015-08-15T21:55:33Z</time>
      </trkpt>
      <trkpt lat="47.33172" lon="1.14531">
        <ele>26.09</ele>
        <time>2015-08-15T21:55:39Z</time>
      </trkpt>
      <trkpt lat="47.3317" lon="1.14543">
        <ele>26.09</ele>
        <time>2015-08-15T21:55:43Z</time>
      </trkpt>
      <trkpt lat="47.33172" lon="1.14562">
        <ele>25.61</ele>
        <time>2015-08-15T21:55:48Z</time>
      </trkpt>
      <trkpt lat="47.33176" lon="1.14581">
        <ele>25.61</ele>
        <time>2015-08-15T21:55:53Z</time>
      </trkpt>
      <trkpt lat="47.33182" lon="1.14623">
        <ele>25.13</ele>
        <time>2015-08-15T21:56:04Z</time>
      </trkpt>
      <trkpt lat="47.33186" lon="1.14644">
        <ele>25.61</ele>
        <time>2015-08-15T21:56:10Z</time>
      </trkpt>
      <trkpt lat="47.33196" lon="1.14694">
        <ele>24.65</ele>
        <time>2015-08-15T21:56:23Z</time>
      </trkpt>
      <trkpt lat="47.33205" lon="1.14739">
        <ele>24.65</ele>
        <time>2015-08-15T21:56:34Z</time>
      </trkpt>
      <trkpt lat="47.33219" lon="1.14798">
        <ele>24.65</ele>
        <time>2015-08-15T21:56:48Z</time>
      </trkpt>
      <trkpt lat="47.33229" lon="1.14846">
        <ele>24.17</ele>
        <time>2015-08-15T21:57:00Z</time>
      </trkpt>
      <trkpt lat="47.33241" lon="1.14899">
        <ele>24.17</ele>
        <time>2015-08-15T21:57:13Z</time>
      </trkpt>
      <trkpt lat="47.33256" lon="1.14953">
        <ele>24.17</ele>
        <time>2015-08-15T21:57:25Z</time>
      </trkpt>
      <trkpt lat="47.33265" lon="1.14997">
        <ele>23.69</ele>
        <time>2015-08-15T21:57:37Z</time>
      </trkpt>
      <trkpt lat="47.33268" lon="1.15021">
        <ele>23.21</ele>
        <time>2015-08-15T21:57:44Z</time>
      </trkpt>
      <trkpt lat="47.33273" lon="1.15057">
        <ele>23.21</ele>
        <time>2015-08-15T21:57:56Z</time>
      </trkpt>
      <trkpt lat="47.33274" lon="1.15067">
        <ele>23.21</ele>
        <time>2015-08-15T21:57:59Z</time>
      </trkpt>
      <trkpt lat="47.33281" lon="1.15099">
        <ele>22.25</ele>
        <time>2015-08-15T21:58:08Z</time>
      </trkpt>
      <trkpt lat="47.33287" lon="1.15142">
        <ele>22.73</ele>
        <time>2015-08-15T21:58:19Z</time>
      </trkpt>
      <trkpt lat="47.3329" lon="1.15157">
        <ele>22.73</ele>
        <time>2015-08-15T21:58:24Z</time>
      </trkpt>
      <trkpt lat="47.33294" lon="1.15182">
        <ele>22.73</ele>
        <time>2015-08-15T21:58:30Z</time>
      </trkpt>
      <trkpt lat="47.33298" lon="1.15229">
        <ele>22.73</ele>
        <time>2015-08-15T21:58:40Z</time>
      </trkpt>
      <trkpt lat="47.33306" lon="1.15273">
        <ele>22.73</ele>
        <time>2015-08-15T21:58:50Z</time>
      </trkpt>
      <trkpt lat="47.33311" lon="1.15318">
        <ele>21.77</ele>
        <time>2015-08-15T21:59:03Z</time>
      </trkpt>
      <trkpt lat="47.33316" lon="1.15369">
        <ele>21.77</ele>
        <time>2015-08-15T21:59:16Z</time>
      </trkpt>
      <trkpt lat="47.33323" lon="1.15416">
        <ele>21.77</ele>
        <time>2015-08-15T21:59:31Z</time>
      </trkpt>
      <trkpt lat="47.33326" lon="1.15453">
        <ele>21.77</ele>
        <time>2015-08-15T21:59:41Z</time>
      </trkpt>
      <trkpt lat="47.33328" lon="1.15486">
        <ele>21.29</ele>
        <time>2015-08-15T21:59:48Z</time>
      </trkpt>
      <trkpt lat="47.33333" lon="1.15542">
        <ele>21.29</ele>
        <time>2015-08-15T22:00:00Z</time>
      </trkpt>
      <trkpt lat="47.33335" lon="1.15595">
        <ele>21.29</ele>
        <time>2015-08-15T22:00:11Z</time>
      </trkpt>
      <trkpt lat="47.33336" lon="1.15635">
        <ele>21.29</ele>
        <time>2015-08-15T22:00:21Z</time>
      </trkpt>
      <trkpt lat="47.33338" lon="1.15655">
        <ele>20.81</ele>
        <time>2015-08-15T22:00:26Z</time>
      </trkpt>
      <trkpt lat="47.3334" lon="1.15689">
        <ele>20.81</ele>
        <time>2015-08-15T22:00:35Z</time>
      </trkpt>
      <trkpt lat="47.33337" lon="1.15699">
        <ele>19.84</ele>
        <time>2015-08-15T22:01:02Z</time>
      </trkpt>
      <trkpt lat="47.33338" lon="1.15706">
        <ele>19.84</ele>
        <time>2015-08-15T22:01:14Z</time>
      </trkpt>
      <trkpt lat="47.3334" lon="1.15752">
        <ele>19.84</ele>
        <time>2015-08-15T22:01:29Z</time>
      </trkpt>
      <trkpt lat="47.3334" lon="1.15772">
        <ele>19.84</ele>
        <time>2015-08-15T22:01:36Z</time>
      </trkpt>
      <trkpt lat="47.3334" lon="1.15776">
        <ele>19.84</ele>
        <time>2015-08-15T22:01:37Z</time>
      </trkpt>
      <trkpt lat="47.33343" lon="1.15817">
        <ele>19.84</ele>
        <time>2015-08-15T22:01:47Z</time>
      </trkpt>
      <trkpt lat="47.33347" lon="1.15869">
        <ele>19.36</ele>
        <time>2015-08-15T22:02:01Z</time>
      </trkpt>
      <trkpt lat="47.33354" lon="1.15904">
        <ele>18.88</ele>
        <time>2015-08-15T22:02:13Z</time>
      </trkpt>
      <trkpt lat="47.33361" lon="1.15949">
        <ele>17.92</ele>
        <time>2015-08-15T22:02:25Z</time>
      </trkpt>
      <trkpt lat="47.33369" lon="1.16003">
        <ele>17.44</ele>
        <time>2015-08-15T22:02:38Z</time>
      </trkpt>
      <trkpt lat="47.33372" lon="1.16025">
        <ele>17.44</ele>
        <time>2015-08-15T22:02:45Z</time>
      </trkpt>
      <trkpt lat="47.33376" lon="1.16055">
        <ele>17.44</ele>
        <time>2015-08-15T22:02:53Z</time>
      </trkpt>
      <trkpt lat="47.33386" lon="1.161">
        <ele>17.44</ele>
        <time>2015-08-15T22:03:05Z</time>
      </trkpt>
      <trkpt lat="47.33397" lon="1.16146">
        <ele>17.44</ele>
        <time>2015-08-15T22:03:17Z</time>
      </trkpt>
      <trkpt lat="47.3341" lon="1.16188">
        <ele>17.44</ele>
        <time>2015-08-15T22:03:30Z</time>
      </trkpt>
      <trkpt lat="47.33429" lon="1.16244">
        <ele>16.96</ele>
        <time>2015-08-15T22:03:46Z</time>
      </trkpt>
      <trkpt lat="47.33444" lon="1.16297">
        <ele>16.48</ele>
        <time>2015-08-15T22:04:00Z</time>
      </trkpt>
      <trkpt lat="47.33459" lon="1.16332">
        <ele>16</ele>
        <time>2015-08-15T22:04:12Z</time>
      </trkpt>
      <trkpt lat="47.33478" lon="1.16366">
        <ele>16</ele>
        <time>2015-08-15T22:04:23Z</time>
      </trkpt>
      <trkpt lat="47.33497" lon="1.16406">
        <ele>15.52</ele>
        <time>2015-08-15T22:04:36Z</time>
      </trkpt>
      <trkpt lat="47.33518" lon="1.1645">
        <ele>14.56</ele>
        <time>2015-08-15T22:04:51Z</time>
      </trkpt>
      <trkpt lat="47.33531" lon="1.16487">
        <ele>14.08</ele>
        <time>2015-08-15T22:05:05Z</time>
      </trkpt>
      <trkpt lat="47.33545" lon="1.16554">
        <ele>14.08</ele>
        <time>2015-08-15T22:05:21Z</time>
      </trkpt>
      <trkpt lat="47.33557" lon="1.16598">
        <ele>13.6</ele>
        <time>2015-08-15T22:05:32Z</time>
      </trkpt>
      <trkpt lat="47.33573" lon="1.16655">
        <ele>13.6</ele>
        <time>2015-08-15T22:05:44Z</time>
      </trkpt>
      <trkpt lat="47.33593" lon="1.1671">
        <ele>14.08</ele>
        <time>2015-08-15T22:05:56Z</time>
      </trkpt>
      <trkpt lat="47.33603" lon="1.16754">
        <ele>13.6</ele>
        <time>2015-08-15T22:06:08Z</time>
      </trkpt>
      <trkpt lat="47.33617" lon="1.16805">
        <ele>13.12</ele>
        <time>2015-08-15T22:06:20Z</time>
      </trkpt>
      <trkpt lat="47.33629" lon="1.16862">
        <ele>12.63</ele>
        <time>2015-08-15T22:06:34Z</time>
      </trkpt>
      <trkpt lat="47.33646" lon="1.16923">
        <ele>12.15</ele>
        <time>2015-08-15T22:06:49Z</time>
      </trkpt>
      <trkpt lat="47.3366" lon="1.16988">
        <ele>12.15</ele>
        <time>2015-08-15T22:07:05Z</time>
      </trkpt>
      <trkpt lat="47.33676" lon="1.17039">
        <ele>11.67</ele>
        <time>2015-08-15T22:07:18Z</time>
      </trkpt>
      <trkpt lat="47.33699" lon="1.17093">
        <ele>11.67</ele>
        <time>2015-08-15T22:07:32Z</time>
      </trkpt>
      <trkpt lat="47.33719" lon="1.17132">
        <ele>11.67</ele>
        <time>2015-08-15T22:07:44Z</time>
      </trkpt>
      <trkpt lat="47.33738" lon="1.17161">
        <ele>11.19</ele>
        <time>2015-08-15T22:07:58Z</time>
      </trkpt>
      <trkpt lat="47.33739" lon="1.17163">
        <ele>11.67</ele>
        <time>2015-08-15T22:07:59Z</time>
      </trkpt>
      <trkpt lat="47.33742" lon="1.17165">
        <ele>11.19</ele>
        <time>2015-08-15T22:08:24Z</time>
      </trkpt>
      <trkpt lat="47.33747" lon="1.17169">
        <ele>10.71</ele>
        <time>2015-08-15T22:08:37Z</time>
      </trkpt>
      <trkpt lat="47.33772" lon="1.17206">
        <ele>10.71</ele>
        <time>2015-08-15T22:08:48Z</time>
      </trkpt>
      <trkpt lat="47.33773" lon="1.17209">
        <ele>10.71</ele>
        <time>2015-08-15T22:08:49Z</time>
      </trkpt>
      <trkpt lat="47.33807" lon="1.17258">
        <ele>11.19</ele>
        <time>2015-08-15T22:09:02Z</time>
      </trkpt>
      <trkpt lat="47.33854" lon="1.17327">
        <ele>10.71</ele>
        <time>2015-08-15T22:09:21Z</time>
      </trkpt>
      <trkpt lat="47.33884" lon="1.17374">
        <ele>10.23</ele>
        <time>2015-08-15T22:09:34Z</time>
      </trkpt>
      <trkpt lat="47.33912" lon="1.17417">
        <ele>9.75</ele>
        <time>2015-08-15T22:09:47Z</time>
      </trkpt>
      <trkpt lat="47.33935" lon="1.1745">
        <ele>9.75</ele>
        <time>2015-08-15T22:09:58Z</time>
      </trkpt>
      <trkpt lat="47.33967" lon="1.17531">
        <ele>8.79</ele>
        <time>2015-08-15T22:10:16Z</time>
      </trkpt>
      <trkpt lat="47.33998" lon="1.17619">
        <ele>8.31</ele>
        <time>2015-08-15T22:10:34Z</time>
      </trkpt>
      <trkpt lat="47.3403" lon="1.17704">
        <ele>7.83</ele>
        <time>2015-08-15T22:10:52Z</time>
      </trkpt>
      <trkpt lat="47.34061" lon="1.17788">
        <ele>7.35</ele>
        <time>2015-08-15T22:11:09Z</time>
      </trkpt>
      <trkpt lat="47.3408" lon="1.17821">
        <ele>6.87</ele>
        <time>2015-08-15T22:11:19Z</time>
      </trkpt>
      <trkpt lat="47.34097" lon="1.17879">
        <ele>6.87</ele>
        <time>2015-08-15T22:11:32Z</time>
      </trkpt>
      <trkpt lat="47.34124" lon="1.1797">
        <ele>5.91</ele>
        <time>2015-08-15T22:11:50Z</time>
      </trkpt>
      <trkpt lat="47.34134" lon="1.18009">
        <ele>5.42</ele>
        <time>2015-08-15T22:12:03Z</time>
      </trkpt>
      <trkpt lat="47.34151" lon="1.18072">
        <ele>4.94</ele>
        <time>2015-08-15T22:12:17Z</time>
      </trkpt>
      <trkpt lat="47.34181" lon="1.18186">
        <ele>3.98</ele>
        <time>2015-08-15T22:12:40Z</time>
      </trkpt>
      <trkpt lat="47.34196" lon="1.1827">
        <ele>3.5</ele>
        <time>2015-08-15T22:12:58Z</time>
      </trkpt>
      <trkpt lat="47.34196" lon="1.18273">
        <ele>3.5</ele>
        <time>2015-08-15T22:12:59Z</time>
      </trkpt>
      <trkpt lat="47.34197" lon="1.18277">
        <ele>3.02</ele>
        <time>2015-08-15T22:13:00Z</time>
      </trkpt>
      <trkpt lat="47.34234" lon="1.18267">
        <ele>3.98</ele>
        <time>2015-08-15T22:13:11Z</time>
      </trkpt>
      <trkpt lat="47.34238" lon="1.18266">
        <ele>4.46</ele>
        <time>2015-08-15T22:13:12Z</time>
      </trkpt>
      <trkpt lat="47.34255" lon="1.18266">
        <ele>4.46</ele>
        <time>2015-08-15T22:13:16Z</time>
      </trkpt>
      <trkpt lat="47.34262" lon="1.18265">
        <ele>4.46</ele>
        <time>2015-08-15T22:13:18Z</time>
      </trkpt>
      <trkpt lat="47.34282" lon="1.18274">
        <ele>4.46</ele>
        <time>2015-08-15T22:13:26Z</time>
      </trkpt>
      <trkpt lat="47.34298" lon="1.18638">
        <ele>64.07</ele>
        <time>2015-08-16T14:00:00Z</time>
      </trkpt>
    </trkseg>
  </trk>
  <trk>
    <name><![CDATA[Montrichard > Mennetou (65 km)]]></name>
    <desc><![CDATA[Halage trop pourri. On a pris la route jusqu’à La Pêcherie avant Gièvres, puis un beau chemin type voie verte jusqu’à Chabris. Chabris à Selles par une petite route tranquille. De Selles à Noyers le halage reste difficile et on a coupé à plusieurs reprises par la route.
A Noyers on quitte le canal pour longer le Cher canalisé. Belle petite route de 11km SANS voiture jusqu’à Thésée puis alternance de routes et chemins jusqu’à Montrichard. Étape longue et difficile; raison pour laquelle on avait réservé un hôtel.]]></desc>
    <trkseg>
      <trkpt lat="47.34298" lon="1.18641">
        <ele>64.07</ele>
        <time>2015-08-16T14:00:01Z</time>
      </trkpt>
      <trkpt lat="47.34286" lon="1.1865">
        <ele>63.1</ele>
        <time>2015-08-16T14:00:11Z</time>
      </trkpt>
      <trkpt lat="47.34281" lon="1.18655">
        <ele>62.62</ele>
        <time>2015-08-16T14:00:24Z</time>
      </trkpt>
      <trkpt lat="47.34279" lon="1.18655">
        <ele>63.1</ele>
        <time>2015-08-16T14:00:25Z</time>
      </trkpt>
      <trkpt lat="47.34277" lon="1.18656">
        <ele>62.62</ele>
        <time>2015-08-16T14:00:26Z</time>
      </trkpt>
      <trkpt lat="47.34275" lon="1.18656">
        <ele>62.62</ele>
        <time>2015-08-16T14:00:27Z</time>
      </trkpt>
      <trkpt lat="47.34273" lon="1.18657">
        <ele>62.62</ele>
        <time>2015-08-16T14:00:28Z</time>
      </trkpt>
      <trkpt lat="47.34251" lon="1.18664">
        <ele>63.1</ele>
        <time>2015-08-16T14:00:35Z</time>
      </trkpt>
      <trkpt lat="47.34247" lon="1.18664">
        <ele>63.1</ele>
        <time>2015-08-16T14:00:36Z</time>
      </trkpt>
      <trkpt lat="47.34243" lon="1.18665">
        <ele>63.1</ele>
        <time>2015-08-16T14:00:37Z</time>
      </trkpt>
      <trkpt lat="47.34239" lon="1.18665">
        <ele>63.58</ele>
        <time>2015-08-16T14:00:38Z</time>
      </trkpt>
      <trkpt lat="47.34234" lon="1.18666">
        <ele>63.58</ele>
        <time>2015-08-16T14:00:39Z</time>
      </trkpt>
      <trkpt lat="47.34199" lon="1.18678">
        <ele>64.55</ele>
        <time>2015-08-16T14:00:49Z</time>
      </trkpt>
      <trkpt lat="47.34197" lon="1.18678">
        <ele>64.55</ele>
        <time>2015-08-16T14:00:50Z</time>
      </trkpt>
      <trkpt lat="47.34196" lon="1.18679">
        <ele>64.55</ele>
        <time>2015-08-16T14:00:51Z</time>
      </trkpt>
      <trkpt lat="47.34195" lon="1.18679">
        <ele>64.55</ele>
        <time>2015-08-16T14:01:07Z</time>
      </trkpt>
      <trkpt lat="47.34196" lon="1.18679">
        <ele>64.55</ele>
        <time>2015-08-16T14:01:32Z</time>
      </trkpt>
      <trkpt lat="47.34183" lon="1.18683">
        <ele>65.03</ele>
        <time>2015-08-16T14:01:41Z</time>
      </trkpt>
      <trkpt lat="47.34149" lon="1.1869">
        <ele>64.55</ele>
        <time>2015-08-16T14:01:52Z</time>
      </trkpt>
      <trkpt lat="47.34131" lon="1.18693">
        <ele>63.58</ele>
        <time>2015-08-16T14:02:06Z</time>
      </trkpt>
      <trkpt lat="47.34117" lon="1.18695">
        <ele>63.1</ele>
        <time>2015-08-16T14:02:20Z</time>
      </trkpt>
      <trkpt lat="47.34097" lon="1.18704">
        <ele>62.62</ele>
        <time>2015-08-16T14:02:31Z</time>
      </trkpt>
      <trkpt lat="47.34097" lon="1.18703">
        <ele>62.62</ele>
        <time>2015-08-16T14:02:50Z</time>
      </trkpt>
      <trkpt lat="47.34095" lon="1.18705">
        <ele>62.14</ele>
        <time>2015-08-16T14:03:01Z</time>
      </trkpt>
      <trkpt lat="47.34094" lon="1.18706">
        <ele>62.14</ele>
        <time>2015-08-16T14:03:02Z</time>
      </trkpt>
      <trkpt lat="47.34092" lon="1.18708">
        <ele>62.14</ele>
        <time>2015-08-16T14:03:03Z</time>
      </trkpt>
      <trkpt lat="47.3409" lon="1.18709">
        <ele>62.14</ele>
        <time>2015-08-16T14:03:04Z</time>
      </trkpt>
      <trkpt lat="47.34088" lon="1.1871">
        <ele>62.14</ele>
        <time>2015-08-16T14:03:05Z</time>
      </trkpt>
      <trkpt lat="47.34086" lon="1.18711">
        <ele>62.14</ele>
        <time>2015-08-16T14:03:06Z</time>
      </trkpt>
      <trkpt lat="47.34084" lon="1.18716">
        <ele>62.62</ele>
        <time>2015-08-16T14:03:18Z</time>
      </trkpt>
      <trkpt lat="47.34085" lon="1.1874">
        <ele>62.14</ele>
        <time>2015-08-16T14:03:26Z</time>
      </trkpt>
      <trkpt lat="47.34087" lon="1.18791">
        <ele>62.14</ele>
        <time>2015-08-16T14:03:37Z</time>
      </trkpt>
      <trkpt lat="47.34091" lon="1.18872">
        <ele>62.14</ele>
        <time>2015-08-16T14:03:52Z</time>
      </trkpt>
      <trkpt lat="47.34091" lon="1.18947">
        <ele>62.14</ele>
        <time>2015-08-16T14:04:07Z</time>
      </trkpt>
      <trkpt lat="47.34084" lon="1.19038">
        <ele>62.14</ele>
        <time>2015-08-16T14:04:24Z</time>
      </trkpt>
      <trkpt lat="47.34075" lon="1.19102">
        <ele>61.66</ele>
        <time>2015-08-16T14:04:38Z</time>
      </trkpt>
      <trkpt lat="47.34063" lon="1.19166">
        <ele>61.66</ele>
        <time>2015-08-16T14:04:51Z</time>
      </trkpt>
      <trkpt lat="47.3405" lon="1.1923">
        <ele>61.18</ele>
        <time>2015-08-16T14:05:06Z</time>
      </trkpt>
      <trkpt lat="47.34045" lon="1.19292">
        <ele>61.66</ele>
        <time>2015-08-16T14:05:21Z</time>
      </trkpt>
      <trkpt lat="47.34045" lon="1.19296">
        <ele>61.66</ele>
        <time>2015-08-16T14:05:22Z</time>
      </trkpt>
      <trkpt lat="47.34045" lon="1.19299">
        <ele>61.66</ele>
        <time>2015-08-16T14:05:23Z</time>
      </trkpt>
      <trkpt lat="47.34044" lon="1.19303">
        <ele>61.66</ele>
        <time>2015-08-16T14:05:24Z</time>
      </trkpt>
      <trkpt lat="47.34044" lon="1.19306">
        <ele>61.18</ele>
        <time>2015-08-16T14:05:25Z</time>
      </trkpt>
      <trkpt lat="47.34043" lon="1.19308">
        <ele>61.18</ele>
        <time>2015-08-16T14:05:26Z</time>
      </trkpt>
      <trkpt lat="47.34042" lon="1.19313">
        <ele>61.18</ele>
        <time>2015-08-16T14:05:36Z</time>
      </trkpt>
      <trkpt lat="47.34042" lon="1.19326">
        <ele>61.66</ele>
        <time>2015-08-16T14:05:48Z</time>
      </trkpt>
      <trkpt lat="47.34043" lon="1.194">
        <ele>61.66</ele>
        <time>2015-08-16T14:06:04Z</time>
      </trkpt>
      <trkpt lat="47.34051" lon="1.19482">
        <ele>61.66</ele>
        <time>2015-08-16T14:06:21Z</time>
      </trkpt>
      <trkpt lat="47.34058" lon="1.19553">
        <ele>62.14</ele>
        <time>2015-08-16T14:06:36Z</time>
      </trkpt>
      <trkpt lat="47.34066" lon="1.19625">
        <ele>62.14</ele>
        <time>2015-08-16T14:06:51Z</time>
      </trkpt>
      <trkpt lat="47.34068" lon="1.19704">
        <ele>61.66</ele>
        <time>2015-08-16T14:07:09Z</time>
      </trkpt>
      <trkpt lat="47.34075" lon="1.19772">
        <ele>61.66</ele>
        <time>2015-08-16T14:07:25Z</time>
      </trkpt>
      <trkpt lat="47.3408" lon="1.1983">
        <ele>61.66</ele>
        <time>2015-08-16T14:07:40Z</time>
      </trkpt>
      <trkpt lat="47.3408" lon="1.19834">
        <ele>61.66</ele>
        <time>2015-08-16T14:07:41Z</time>
      </trkpt>
      <trkpt lat="47.34081" lon="1.19837">
        <ele>62.14</ele>
        <time>2015-08-16T14:07:42Z</time>
      </trkpt>
      <trkpt lat="47.34081" lon="1.1984">
        <ele>61.66</ele>
        <time>2015-08-16T14:07:43Z</time>
      </trkpt>
      <trkpt lat="47.34082" lon="1.19842">
        <ele>62.14</ele>
        <time>2015-08-16T14:07:44Z</time>
      </trkpt>
      <trkpt lat="47.34082" lon="1.19845">
        <ele>62.14</ele>
        <time>2015-08-16T14:07:45Z</time>
      </trkpt>
      <trkpt lat="47.34082" lon="1.1985">
        <ele>61.66</ele>
        <time>2015-08-16T14:07:47Z</time>
      </trkpt>
      <trkpt lat="47.34083" lon="1.19917">
        <ele>62.62</ele>
        <time>2015-08-16T14:08:02Z</time>
      </trkpt>
      <trkpt lat="47.34084" lon="1.20008">
        <ele>62.62</ele>
        <time>2015-08-16T14:08:21Z</time>
      </trkpt>
      <trkpt lat="47.34084" lon="1.20103">
        <ele>63.1</ele>
        <time>2015-08-16T14:08:40Z</time>
      </trkpt>
      <trkpt lat="47.34081" lon="1.20178">
        <ele>62.62</ele>
        <time>2015-08-16T14:08:56Z</time>
      </trkpt>
      <trkpt lat="47.34073" lon="1.20253">
        <ele>62.62</ele>
        <time>2015-08-16T14:09:13Z</time>
      </trkpt>
      <trkpt lat="47.34065" lon="1.20317">
        <ele>62.62</ele>
        <time>2015-08-16T14:09:28Z</time>
      </trkpt>
      <trkpt lat="47.34064" lon="1.20389">
        <ele>63.1</ele>
        <time>2015-08-16T14:09:42Z</time>
      </trkpt>
      <trkpt lat="47.34064" lon="1.20395">
        <ele>63.1</ele>
        <time>2015-08-16T14:09:43Z</time>
      </trkpt>
      <trkpt lat="47.34063" lon="1.20401">
        <ele>63.1</ele>
        <time>2015-08-16T14:09:44Z</time>
      </trkpt>
      <trkpt lat="47.34063" lon="1.2042">
        <ele>63.1</ele>
        <time>2015-08-16T14:09:47Z</time>
      </trkpt>
      <trkpt lat="47.34063" lon="1.20427">
        <ele>63.1</ele>
        <time>2015-08-16T14:09:48Z</time>
      </trkpt>
      <trkpt lat="47.34063" lon="1.20454">
        <ele>62.62</ele>
        <time>2015-08-16T14:09:52Z</time>
      </trkpt>
      <trkpt lat="47.34063" lon="1.20545">
        <ele>62.62</ele>
        <time>2015-08-16T14:10:05Z</time>
      </trkpt>
      <trkpt lat="47.34066" lon="1.20658">
        <ele>62.62</ele>
        <time>2015-08-16T14:10:24Z</time>
      </trkpt>
      <trkpt lat="47.34064" lon="1.20692">
        <ele>62.14</ele>
        <time>2015-08-16T14:10:35Z</time>
      </trkpt>
      <trkpt lat="47.34063" lon="1.20693">
        <ele>62.14</ele>
        <time>2015-08-16T14:11:02Z</time>
      </trkpt>
      <trkpt lat="47.3405" lon="1.20738">
        <ele>62.62</ele>
        <time>2015-08-16T14:11:15Z</time>
      </trkpt>
      <trkpt lat="47.34027" lon="1.20817">
        <ele>62.62</ele>
        <time>2015-08-16T14:11:32Z</time>
      </trkpt>
      <trkpt lat="47.34018" lon="1.20882">
        <ele>62.62</ele>
        <time>2015-08-16T14:11:47Z</time>
      </trkpt>
      <trkpt lat="47.34006" lon="1.20963">
        <ele>63.1</ele>
        <time>2015-08-16T14:12:05Z</time>
      </trkpt>
      <trkpt lat="47.34001" lon="1.2102">
        <ele>63.1</ele>
        <time>2015-08-16T14:12:17Z</time>
      </trkpt>
      <trkpt lat="47.33993" lon="1.21069">
        <ele>63.1</ele>
        <time>2015-08-16T14:12:29Z</time>
      </trkpt>
      <trkpt lat="47.33983" lon="1.21133">
        <ele>62.62</ele>
        <time>2015-08-16T14:12:43Z</time>
      </trkpt>
      <trkpt lat="47.33974" lon="1.21192">
        <ele>62.62</ele>
        <time>2015-08-16T14:12:59Z</time>
      </trkpt>
      <trkpt lat="47.33968" lon="1.21249">
        <ele>62.14</ele>
        <time>2015-08-16T14:13:14Z</time>
      </trkpt>
      <trkpt lat="47.33965" lon="1.213">
        <ele>62.62</ele>
        <time>2015-08-16T14:13:27Z</time>
      </trkpt>
      <trkpt lat="47.33963" lon="1.21323">
        <ele>62.62</ele>
        <time>2015-08-16T14:13:33Z</time>
      </trkpt>
      <trkpt lat="47.33962" lon="1.2134">
        <ele>62.62</ele>
        <time>2015-08-16T14:13:37Z</time>
      </trkpt>
      <trkpt lat="47.33957" lon="1.2139">
        <ele>62.62</ele>
        <time>2015-08-16T14:13:48Z</time>
      </trkpt>
      <trkpt lat="47.33952" lon="1.2144">
        <ele>63.1</ele>
        <time>2015-08-16T14:13:58Z</time>
      </trkpt>
      <trkpt lat="47.33944" lon="1.21499">
        <ele>63.1</ele>
        <time>2015-08-16T14:14:10Z</time>
      </trkpt>
      <trkpt lat="47.33928" lon="1.21564">
        <ele>63.58</ele>
        <time>2015-08-16T14:14:23Z</time>
      </trkpt>
      <trkpt lat="47.33918" lon="1.21623">
        <ele>63.58</ele>
        <time>2015-08-16T14:14:34Z</time>
      </trkpt>
      <trkpt lat="47.33917" lon="1.21635">
        <ele>63.58</ele>
        <time>2015-08-16T14:14:37Z</time>
      </trkpt>
      <trkpt lat="47.33909" lon="1.21657">
        <ele>63.58</ele>
        <time>2015-08-16T14:14:43Z</time>
      </trkpt>
      <trkpt lat="47.33896" lon="1.21681">
        <ele>63.58</ele>
        <time>2015-08-16T14:14:51Z</time>
      </trkpt>
      <trkpt lat="47.33882" lon="1.21704">
        <ele>64.07</ele>
        <time>2015-08-16T14:15:02Z</time>
      </trkpt>
      <trkpt lat="47.3388" lon="1.21709">
        <ele>63.58</ele>
        <time>2015-08-16T14:15:04Z</time>
      </trkpt>
      <trkpt lat="47.33861" lon="1.21751">
        <ele>63.58</ele>
        <time>2015-08-16T14:15:17Z</time>
      </trkpt>
      <trkpt lat="47.3385" lon="1.21791">
        <ele>63.1</ele>
        <time>2015-08-16T14:15:30Z</time>
      </trkpt>
      <trkpt lat="47.33848" lon="1.21797">
        <ele>63.1</ele>
        <time>2015-08-16T14:15:34Z</time>
      </trkpt>
      <trkpt lat="47.33847" lon="1.218">
        <ele>63.1</ele>
        <time>2015-08-16T14:15:53Z</time>
      </trkpt>
      <trkpt lat="47.33841" lon="1.21832">
        <ele>63.58</ele>
        <time>2015-08-16T14:16:05Z</time>
      </trkpt>
      <trkpt lat="47.33841" lon="1.21844">
        <ele>63.58</ele>
        <time>2015-08-16T14:16:09Z</time>
      </trkpt>
      <trkpt lat="47.33839" lon="1.21872">
        <ele>63.58</ele>
        <time>2015-08-16T14:16:20Z</time>
      </trkpt>
      <trkpt lat="47.3384" lon="1.21876">
        <ele>63.58</ele>
        <time>2015-08-16T14:16:23Z</time>
      </trkpt>
      <trkpt lat="47.33842" lon="1.2188">
        <ele>63.58</ele>
        <time>2015-08-16T14:16:49Z</time>
      </trkpt>
      <trkpt lat="47.33842" lon="1.21881">
        <ele>63.1</ele>
        <time>2015-08-16T14:17:04Z</time>
      </trkpt>
      <trkpt lat="47.33842" lon="1.21881">
        <ele>63.1</ele>
        <time>2015-08-16T14:17:32Z</time>
      </trkpt>
      <trkpt lat="47.33842" lon="1.21882">
        <ele>63.1</ele>
        <time>2015-08-16T14:17:58Z</time>
      </trkpt>
      <trkpt lat="47.33843" lon="1.21881">
        <ele>63.1</ele>
        <time>2015-08-16T14:18:24Z</time>
      </trkpt>
      <trkpt lat="47.33842" lon="1.2188">
        <ele>63.1</ele>
        <time>2015-08-16T14:18:51Z</time>
      </trkpt>
      <trkpt lat="47.33842" lon="1.2188">
        <ele>62.62</ele>
        <time>2015-08-16T14:19:22Z</time>
      </trkpt>
      <trkpt lat="47.33844" lon="1.2188">
        <ele>62.62</ele>
        <time>2015-08-16T14:19:54Z</time>
      </trkpt>
      <trkpt lat="47.33843" lon="1.21882">
        <ele>62.62</ele>
        <time>2015-08-16T14:20:25Z</time>
      </trkpt>
      <trkpt lat="47.33844" lon="1.21883">
        <ele>62.14</ele>
        <time>2015-08-16T14:20:56Z</time>
      </trkpt>
      <trkpt lat="47.33844" lon="1.21882">
        <ele>62.14</ele>
        <time>2015-08-16T14:21:26Z</time>
      </trkpt>
      <trkpt lat="47.33845" lon="1.2188">
        <ele>62.14</ele>
        <time>2015-08-16T14:21:54Z</time>
      </trkpt>
      <trkpt lat="47.33845" lon="1.21879">
        <ele>61.66</ele>
        <time>2015-08-16T14:22:32Z</time>
      </trkpt>
      <trkpt lat="47.33845" lon="1.2188">
        <ele>62.14</ele>
        <time>2015-08-16T14:23:02Z</time>
      </trkpt>
      <trkpt lat="47.33846" lon="1.21881">
        <ele>62.14</ele>
        <time>2015-08-16T14:23:32Z</time>
      </trkpt>
      <trkpt lat="47.33846" lon="1.2188">
        <ele>62.14</ele>
        <time>2015-08-16T14:24:06Z</time>
      </trkpt>
      <trkpt lat="47.33846" lon="1.21879">
        <ele>61.66</ele>
        <time>2015-08-16T14:24:37Z</time>
      </trkpt>
      <trkpt lat="47.33844" lon="1.21881">
        <ele>61.66</ele>
        <time>2015-08-16T14:25:10Z</time>
      </trkpt>
      <trkpt lat="47.33844" lon="1.2188">
        <ele>61.18</ele>
        <time>2015-08-16T14:25:38Z</time>
      </trkpt>
      <trkpt lat="47.33845" lon="1.21879">
        <ele>61.18</ele>
        <time>2015-08-16T14:26:09Z</time>
      </trkpt>
      <trkpt lat="47.33846" lon="1.21879">
        <ele>61.18</ele>
        <time>2015-08-16T14:26:40Z</time>
      </trkpt>
      <trkpt lat="47.33846" lon="1.2188">
        <ele>61.18</ele>
        <time>2015-08-16T14:27:07Z</time>
      </trkpt>
      <trkpt lat="47.33846" lon="1.21879">
        <ele>61.18</ele>
        <time>2015-08-16T14:27:38Z</time>
      </trkpt>
      <trkpt lat="47.33845" lon="1.21882">
        <ele>63.1</ele>
        <time>2015-08-16T14:28:07Z</time>
      </trkpt>
      <trkpt lat="47.33845" lon="1.21882">
        <ele>58.3</ele>
        <time>2015-08-16T14:28:08Z</time>
      </trkpt>
      <trkpt lat="47.33845" lon="1.21883">
        <ele>62.14</ele>
        <time>2015-08-16T14:28:18Z</time>
      </trkpt>
      <trkpt lat="47.33846" lon="1.21884">
        <ele>61.18</ele>
        <time>2015-08-16T14:28:46Z</time>
      </trkpt>
      <trkpt lat="47.33846" lon="1.21892">
        <ele>61.66</ele>
        <time>2015-08-16T14:28:57Z</time>
      </trkpt>
      <trkpt lat="47.33843" lon="1.21931">
        <ele>61.18</ele>
        <time>2015-08-16T14:29:07Z</time>
      </trkpt>
      <trkpt lat="47.33842" lon="1.21985">
        <ele>60.7</ele>
        <time>2015-08-16T14:29:20Z</time>
      </trkpt>
      <trkpt lat="47.33845" lon="1.22042">
        <ele>61.18</ele>
        <time>2015-08-16T14:29:32Z</time>
      </trkpt>
      <trkpt lat="47.33853" lon="1.2209">
        <ele>61.18</ele>
        <time>2015-08-16T14:29:44Z</time>
      </trkpt>
      <trkpt lat="47.33864" lon="1.22171">
        <ele>61.18</ele>
        <time>2015-08-16T14:30:01Z</time>
      </trkpt>
      <trkpt lat="47.33868" lon="1.22233">
        <ele>61.18</ele>
        <time>2015-08-16T14:30:14Z</time>
      </trkpt>
      <trkpt lat="47.33873" lon="1.22283">
        <ele>60.7</ele>
        <time>2015-08-16T14:30:25Z</time>
      </trkpt>
      <trkpt lat="47.33878" lon="1.22335">
        <ele>60.7</ele>
        <time>2015-08-16T14:30:37Z</time>
      </trkpt>
      <trkpt lat="47.33878" lon="1.22413">
        <ele>61.18</ele>
        <time>2015-08-16T14:30:53Z</time>
      </trkpt>
      <trkpt lat="47.33877" lon="1.22471">
        <ele>61.18</ele>
        <time>2015-08-16T14:31:06Z</time>
      </trkpt>
      <trkpt lat="47.33865" lon="1.22547">
        <ele>61.18</ele>
        <time>2015-08-16T14:31:22Z</time>
      </trkpt>
      <trkpt lat="47.33851" lon="1.22608">
        <ele>61.18</ele>
        <time>2015-08-16T14:31:36Z</time>
      </trkpt>
      <trkpt lat="47.33827" lon="1.2269">
        <ele>61.18</ele>
        <time>2015-08-16T14:31:54Z</time>
      </trkpt>
      <trkpt lat="47.33806" lon="1.2275">
        <ele>61.18</ele>
        <time>2015-08-16T14:32:08Z</time>
      </trkpt>
      <trkpt lat="47.33786" lon="1.22811">
        <ele>61.18</ele>
        <time>2015-08-16T14:32:21Z</time>
      </trkpt>
      <trkpt lat="47.33769" lon="1.2286">
        <ele>61.66</ele>
        <time>2015-08-16T14:32:34Z</time>
      </trkpt>
      <trkpt lat="47.33747" lon="1.22935">
        <ele>61.66</ele>
        <time>2015-08-16T14:32:52Z</time>
      </trkpt>
      <trkpt lat="47.3373" lon="1.22992">
        <ele>61.66</ele>
        <time>2015-08-16T14:33:06Z</time>
      </trkpt>
      <trkpt lat="47.33713" lon="1.23041">
        <ele>62.14</ele>
        <time>2015-08-16T14:33:18Z</time>
      </trkpt>
      <trkpt lat="47.33699" lon="1.23084">
        <ele>62.14</ele>
        <time>2015-08-16T14:33:30Z</time>
      </trkpt>
      <trkpt lat="47.33686" lon="1.23128">
        <ele>62.62</ele>
        <time>2015-08-16T14:33:42Z</time>
      </trkpt>
      <trkpt lat="47.33674" lon="1.23181">
        <ele>62.62</ele>
        <time>2015-08-16T14:33:55Z</time>
      </trkpt>
      <trkpt lat="47.33661" lon="1.23254">
        <ele>62.14</ele>
        <time>2015-08-16T14:34:11Z</time>
      </trkpt>
      <trkpt lat="47.33652" lon="1.23314">
        <ele>62.14</ele>
        <time>2015-08-16T14:34:25Z</time>
      </trkpt>
      <trkpt lat="47.33655" lon="1.23408">
        <ele>62.14</ele>
        <time>2015-08-16T14:34:44Z</time>
      </trkpt>
      <trkpt lat="47.33658" lon="1.23472">
        <ele>61.66</ele>
        <time>2015-08-16T14:34:59Z</time>
      </trkpt>
      <trkpt lat="47.33664" lon="1.23545">
        <ele>62.14</ele>
        <time>2015-08-16T14:35:16Z</time>
      </trkpt>
      <trkpt lat="47.33682" lon="1.23614">
        <ele>62.14</ele>
        <time>2015-08-16T14:35:32Z</time>
      </trkpt>
      <trkpt lat="47.33704" lon="1.23691">
        <ele>62.14</ele>
        <time>2015-08-16T14:35:52Z</time>
      </trkpt>
      <trkpt lat="47.33715" lon="1.23758">
        <ele>62.14</ele>
        <time>2015-08-16T14:36:08Z</time>
      </trkpt>
      <trkpt lat="47.33709" lon="1.23808">
        <ele>62.14</ele>
        <time>2015-08-16T14:36:21Z</time>
      </trkpt>
      <trkpt lat="47.33709" lon="1.2383">
        <ele>62.14</ele>
        <time>2015-08-16T14:36:33Z</time>
      </trkpt>
      <trkpt lat="47.33709" lon="1.23831">
        <ele>62.14</ele>
        <time>2015-08-16T14:36:59Z</time>
      </trkpt>
      <trkpt lat="47.33706" lon="1.23857">
        <ele>62.62</ele>
        <time>2015-08-16T14:37:12Z</time>
      </trkpt>
      <trkpt lat="47.33704" lon="1.23901">
        <ele>62.62</ele>
        <time>2015-08-16T14:37:25Z</time>
      </trkpt>
      <trkpt lat="47.3371" lon="1.23949">
        <ele>63.1</ele>
        <time>2015-08-16T14:37:37Z</time>
      </trkpt>
      <trkpt lat="47.3372" lon="1.24021">
        <ele>63.58</ele>
        <time>2015-08-16T14:37:54Z</time>
      </trkpt>
      <trkpt lat="47.33725" lon="1.24071">
        <ele>63.58</ele>
        <time>2015-08-16T14:38:07Z</time>
      </trkpt>
      <trkpt lat="47.33733" lon="1.2412">
        <ele>63.58</ele>
        <time>2015-08-16T14:38:19Z</time>
      </trkpt>
      <trkpt lat="47.33745" lon="1.2421">
        <ele>63.1</ele>
        <time>2015-08-16T14:38:37Z</time>
      </trkpt>
      <trkpt lat="47.33752" lon="1.24284">
        <ele>63.1</ele>
        <time>2015-08-16T14:38:54Z</time>
      </trkpt>
      <trkpt lat="47.33754" lon="1.24331">
        <ele>63.1</ele>
        <time>2015-08-16T14:39:08Z</time>
      </trkpt>
      <trkpt lat="47.33756" lon="1.24389">
        <ele>63.1</ele>
        <time>2015-08-16T14:39:23Z</time>
      </trkpt>
      <trkpt lat="47.33755" lon="1.24438">
        <ele>63.1</ele>
        <time>2015-08-16T14:39:35Z</time>
      </trkpt>
      <trkpt lat="47.33754" lon="1.24489">
        <ele>63.1</ele>
        <time>2015-08-16T14:39:47Z</time>
      </trkpt>
      <trkpt lat="47.33754" lon="1.24561">
        <ele>63.1</ele>
        <time>2015-08-16T14:40:02Z</time>
      </trkpt>
      <trkpt lat="47.33751" lon="1.24623">
        <ele>62.62</ele>
        <time>2015-08-16T14:40:16Z</time>
      </trkpt>
      <trkpt lat="47.33748" lon="1.24682">
        <ele>62.62</ele>
        <time>2015-08-16T14:40:29Z</time>
      </trkpt>
      <trkpt lat="47.33746" lon="1.2474">
        <ele>62.62</ele>
        <time>2015-08-16T14:40:41Z</time>
      </trkpt>
      <trkpt lat="47.33739" lon="1.24809">
        <ele>62.62</ele>
        <time>2015-08-16T14:40:55Z</time>
      </trkpt>
      <trkpt lat="47.33734" lon="1.24876">
        <ele>62.62</ele>
        <time>2015-08-16T14:41:08Z</time>
      </trkpt>
      <trkpt lat="47.33727" lon="1.24954">
        <ele>63.1</ele>
        <time>2015-08-16T14:41:23Z</time>
      </trkpt>
      <trkpt lat="47.33719" lon="1.25008">
        <ele>63.1</ele>
        <time>2015-08-16T14:41:34Z</time>
      </trkpt>
      <trkpt lat="47.33708" lon="1.25056">
        <ele>63.1</ele>
        <time>2015-08-16T14:41:44Z</time>
      </trkpt>
      <trkpt lat="47.33696" lon="1.25114">
        <ele>63.1</ele>
        <time>2015-08-16T14:41:57Z</time>
      </trkpt>
      <trkpt lat="47.33689" lon="1.25166">
        <ele>63.1</ele>
        <time>2015-08-16T14:42:09Z</time>
      </trkpt>
      <trkpt lat="47.33682" lon="1.25235">
        <ele>63.1</ele>
        <time>2015-08-16T14:42:23Z</time>
      </trkpt>
      <trkpt lat="47.33668" lon="1.25298">
        <ele>63.1</ele>
        <time>2015-08-16T14:42:37Z</time>
      </trkpt>
      <trkpt lat="47.33646" lon="1.25374">
        <ele>63.1</ele>
        <time>2015-08-16T14:42:54Z</time>
      </trkpt>
      <trkpt lat="47.3362" lon="1.25431">
        <ele>63.1</ele>
        <time>2015-08-16T14:43:07Z</time>
      </trkpt>
      <trkpt lat="47.33595" lon="1.25483">
        <ele>63.1</ele>
        <time>2015-08-16T14:43:21Z</time>
      </trkpt>
      <trkpt lat="47.33566" lon="1.25555">
        <ele>63.1</ele>
        <time>2015-08-16T14:43:37Z</time>
      </trkpt>
      <trkpt lat="47.33534" lon="1.2562">
        <ele>63.1</ele>
        <time>2015-08-16T14:43:53Z</time>
      </trkpt>
      <trkpt lat="47.33504" lon="1.25679">
        <ele>63.1</ele>
        <time>2015-08-16T14:44:07Z</time>
      </trkpt>
      <trkpt lat="47.3347" lon="1.25753">
        <ele>63.1</ele>
        <time>2015-08-16T14:44:24Z</time>
      </trkpt>
      <trkpt lat="47.33461" lon="1.25765">
        <ele>63.1</ele>
        <time>2015-08-16T14:44:27Z</time>
      </trkpt>
      <trkpt lat="47.33458" lon="1.25768">
        <ele>63.1</ele>
        <time>2015-08-16T14:44:28Z</time>
      </trkpt>
      <trkpt lat="47.33454" lon="1.25768">
        <ele>63.1</ele>
        <time>2015-08-16T14:44:29Z</time>
      </trkpt>
      <trkpt lat="47.3344" lon="1.25757">
        <ele>63.58</ele>
        <time>2015-08-16T14:44:33Z</time>
      </trkpt>
      <trkpt lat="47.33417" lon="1.25737">
        <ele>64.07</ele>
        <time>2015-08-16T14:44:39Z</time>
      </trkpt>
      <trkpt lat="47.33372" lon="1.25697">
        <ele>64.07</ele>
        <time>2015-08-16T14:44:53Z</time>
      </trkpt>
      <trkpt lat="47.33321" lon="1.25652">
        <ele>64.07</ele>
        <time>2015-08-16T14:45:10Z</time>
      </trkpt>
      <trkpt lat="47.33272" lon="1.2561">
        <ele>63.58</ele>
        <time>2015-08-16T14:45:26Z</time>
      </trkpt>
      <trkpt lat="47.33229" lon="1.25572">
        <ele>64.07</ele>
        <time>2015-08-16T14:45:40Z</time>
      </trkpt>
      <trkpt lat="47.33182" lon="1.25532">
        <ele>64.07</ele>
        <time>2015-08-16T14:45:56Z</time>
      </trkpt>
      <trkpt lat="47.33179" lon="1.2553">
        <ele>64.07</ele>
        <time>2015-08-16T14:45:57Z</time>
      </trkpt>
      <trkpt lat="47.33177" lon="1.25528">
        <ele>64.07</ele>
        <time>2015-08-16T14:45:58Z</time>
      </trkpt>
      <trkpt lat="47.33175" lon="1.25527">
        <ele>64.55</ele>
        <time>2015-08-16T14:45:59Z</time>
      </trkpt>
      <trkpt lat="47.33173" lon="1.25526">
        <ele>64.55</ele>
        <time>2015-08-16T14:46:00Z</time>
      </trkpt>
      <trkpt lat="47.33169" lon="1.25525">
        <ele>64.55</ele>
        <time>2015-08-16T14:46:04Z</time>
      </trkpt>
      <trkpt lat="47.33168" lon="1.25525">
        <ele>64.07</ele>
        <time>2015-08-16T14:46:15Z</time>
      </trkpt>
      <trkpt lat="47.33148" lon="1.25511">
        <ele>64.07</ele>
        <time>2015-08-16T14:46:24Z</time>
      </trkpt>
      <trkpt lat="47.33083" lon="1.25461">
        <ele>65.51</ele>
        <time>2015-08-16T14:46:39Z</time>
      </trkpt>
      <trkpt lat="47.33077" lon="1.25453">
        <ele>65.99</ele>
        <time>2015-08-16T14:46:41Z</time>
      </trkpt>
      <trkpt lat="47.33066" lon="1.25443">
        <ele>66.47</ele>
        <time>2015-08-16T14:46:44Z</time>
      </trkpt>
      <trkpt lat="47.33037" lon="1.25415">
        <ele>67.43</ele>
        <time>2015-08-16T14:46:55Z</time>
      </trkpt>
      <trkpt lat="47.33036" lon="1.25413">
        <ele>67.43</ele>
        <time>2015-08-16T14:46:56Z</time>
      </trkpt>
      <trkpt lat="47.33034" lon="1.25413">
        <ele>67.43</ele>
        <time>2015-08-16T14:46:57Z</time>
      </trkpt>
      <trkpt lat="47.33033" lon="1.25412">
        <ele>68.87</ele>
        <time>2015-08-16T14:47:01Z</time>
      </trkpt>
      <trkpt lat="47.33032" lon="1.25412">
        <ele>67.43</ele>
        <time>2015-08-16T14:47:20Z</time>
      </trkpt>
      <trkpt lat="47.33031" lon="1.25413">
        <ele>67.43</ele>
        <time>2015-08-16T14:47:48Z</time>
      </trkpt>
      <trkpt lat="47.33031" lon="1.25413">
        <ele>66.95</ele>
        <time>2015-08-16T14:48:11Z</time>
      </trkpt>
      <trkpt lat="47.33028" lon="1.25417">
        <ele>67.43</ele>
        <time>2015-08-16T14:48:24Z</time>
      </trkpt>
      <trkpt lat="47.33026" lon="1.25426">
        <ele>66.95</ele>
        <time>2015-08-16T14:48:28Z</time>
      </trkpt>
      <trkpt lat="47.33015" lon="1.25486">
        <ele>66.47</ele>
        <time>2015-08-16T14:48:43Z</time>
      </trkpt>
      <trkpt lat="47.32998" lon="1.25564">
        <ele>65.51</ele>
        <time>2015-08-16T14:48:58Z</time>
      </trkpt>
      <trkpt lat="47.32986" lon="1.25625">
        <ele>65.51</ele>
        <time>2015-08-16T14:49:08Z</time>
      </trkpt>
      <trkpt lat="47.32974" lon="1.25679">
        <ele>65.51</ele>
        <time>2015-08-16T14:49:18Z</time>
      </trkpt>
      <trkpt lat="47.32955" lon="1.25771">
        <ele>65.99</ele>
        <time>2015-08-16T14:49:36Z</time>
      </trkpt>
      <trkpt lat="47.32941" lon="1.25842">
        <ele>65.99</ele>
        <time>2015-08-16T14:49:50Z</time>
      </trkpt>
      <trkpt lat="47.32927" lon="1.25918">
        <ele>65.99</ele>
        <time>2015-08-16T14:50:05Z</time>
      </trkpt>
      <trkpt lat="47.32925" lon="1.25924">
        <ele>65.99</ele>
        <time>2015-08-16T14:50:06Z</time>
      </trkpt>
      <trkpt lat="47.32924" lon="1.2593">
        <ele>66.47</ele>
        <time>2015-08-16T14:50:07Z</time>
      </trkpt>
      <trkpt lat="47.32922" lon="1.25936">
        <ele>66.47</ele>
        <time>2015-08-16T14:50:08Z</time>
      </trkpt>
      <trkpt lat="47.32909" lon="1.26006">
        <ele>66.95</ele>
        <time>2015-08-16T14:50:21Z</time>
      </trkpt>
      <trkpt lat="47.32895" lon="1.26064">
        <ele>66.47</ele>
        <time>2015-08-16T14:50:34Z</time>
      </trkpt>
      <trkpt lat="47.32868" lon="1.26158">
        <ele>65.51</ele>
        <time>2015-08-16T14:50:52Z</time>
      </trkpt>
      <trkpt lat="47.32866" lon="1.26163">
        <ele>65.51</ele>
        <time>2015-08-16T14:50:53Z</time>
      </trkpt>
      <trkpt lat="47.32864" lon="1.26169">
        <ele>65.51</ele>
        <time>2015-08-16T14:50:54Z</time>
      </trkpt>
      <trkpt lat="47.32844" lon="1.26233">
        <ele>65.03</ele>
        <time>2015-08-16T14:51:06Z</time>
      </trkpt>
      <trkpt lat="47.32817" lon="1.26325">
        <ele>65.51</ele>
        <time>2015-08-16T14:51:23Z</time>
      </trkpt>
      <trkpt lat="47.32792" lon="1.26413">
        <ele>65.51</ele>
        <time>2015-08-16T14:51:39Z</time>
      </trkpt>
      <trkpt lat="47.32763" lon="1.26509">
        <ele>66.95</ele>
        <time>2015-08-16T14:51:54Z</time>
      </trkpt>
      <trkpt lat="47.32761" lon="1.26516">
        <ele>66.95</ele>
        <time>2015-08-16T14:51:55Z</time>
      </trkpt>
      <trkpt lat="47.32759" lon="1.26523">
        <ele>66.95</ele>
        <time>2015-08-16T14:51:56Z</time>
      </trkpt>
      <trkpt lat="47.32757" lon="1.2653">
        <ele>66.95</ele>
        <time>2015-08-16T14:51:57Z</time>
      </trkpt>
      <trkpt lat="47.32755" lon="1.26537">
        <ele>66.95</ele>
        <time>2015-08-16T14:51:58Z</time>
      </trkpt>
      <trkpt lat="47.32754" lon="1.26544">
        <ele>67.43</ele>
        <time>2015-08-16T14:51:59Z</time>
      </trkpt>
      <trkpt lat="47.32752" lon="1.2655">
        <ele>67.43</ele>
        <time>2015-08-16T14:52:00Z</time>
      </trkpt>
      <trkpt lat="47.32747" lon="1.26568">
        <ele>66.47</ele>
        <time>2015-08-16T14:52:03Z</time>
      </trkpt>
      <trkpt lat="47.32733" lon="1.26614">
        <ele>68.87</ele>
        <time>2015-08-16T14:52:15Z</time>
      </trkpt>
      <trkpt lat="47.32719" lon="1.26655">
        <ele>68.87</ele>
        <time>2015-08-16T14:52:28Z</time>
      </trkpt>
      <trkpt lat="47.32686" lon="1.26742">
        <ele>69.35</ele>
        <time>2015-08-16T14:52:47Z</time>
      </trkpt>
      <trkpt lat="47.32656" lon="1.26813">
        <ele>69.83</ele>
        <time>2015-08-16T14:53:04Z</time>
      </trkpt>
      <trkpt lat="47.32628" lon="1.26884">
        <ele>68.87</ele>
        <time>2015-08-16T14:53:22Z</time>
      </trkpt>
      <trkpt lat="47.32603" lon="1.26944">
        <ele>68.39</ele>
        <time>2015-08-16T14:53:38Z</time>
      </trkpt>
      <trkpt lat="47.32571" lon="1.27022">
        <ele>67.91</ele>
        <time>2015-08-16T14:53:55Z</time>
      </trkpt>
      <trkpt lat="47.32541" lon="1.27094">
        <ele>67.91</ele>
        <time>2015-08-16T14:54:10Z</time>
      </trkpt>
      <trkpt lat="47.32507" lon="1.27179">
        <ele>67.91</ele>
        <time>2015-08-16T14:54:26Z</time>
      </trkpt>
      <trkpt lat="47.32506" lon="1.27184">
        <ele>69.83</ele>
        <time>2015-08-16T14:54:27Z</time>
      </trkpt>
      <trkpt lat="47.32504" lon="1.27189">
        <ele>66.47</ele>
        <time>2015-08-16T14:54:28Z</time>
      </trkpt>
      <trkpt lat="47.32483" lon="1.2724">
        <ele>67.91</ele>
        <time>2015-08-16T14:54:38Z</time>
      </trkpt>
      <trkpt lat="47.32481" lon="1.27246">
        <ele>67.91</ele>
        <time>2015-08-16T14:54:39Z</time>
      </trkpt>
      <trkpt lat="47.32479" lon="1.27251">
        <ele>68.39</ele>
        <time>2015-08-16T14:54:40Z</time>
      </trkpt>
      <trkpt lat="47.32451" lon="1.2732">
        <ele>68.39</ele>
        <time>2015-08-16T14:54:53Z</time>
      </trkpt>
      <trkpt lat="47.32408" lon="1.27426">
        <ele>68.87</ele>
        <time>2015-08-16T14:55:14Z</time>
      </trkpt>
      <trkpt lat="47.32366" lon="1.2753">
        <ele>68.39</ele>
        <time>2015-08-16T14:55:33Z</time>
      </trkpt>
      <trkpt lat="47.32325" lon="1.27631">
        <ele>68.39</ele>
        <time>2015-08-16T14:55:50Z</time>
      </trkpt>
      <trkpt lat="47.32284" lon="1.27731">
        <ele>68.87</ele>
        <time>2015-08-16T14:56:07Z</time>
      </trkpt>
      <trkpt lat="47.32281" lon="1.27737">
        <ele>68.87</ele>
        <time>2015-08-16T14:56:08Z</time>
      </trkpt>
      <trkpt lat="47.32279" lon="1.27743">
        <ele>68.87</ele>
        <time>2015-08-16T14:56:09Z</time>
      </trkpt>
      <trkpt lat="47.32277" lon="1.27749">
        <ele>68.87</ele>
        <time>2015-08-16T14:56:10Z</time>
      </trkpt>
      <trkpt lat="47.32274" lon="1.27755">
        <ele>68.87</ele>
        <time>2015-08-16T14:56:11Z</time>
      </trkpt>
      <trkpt lat="47.32272" lon="1.27761">
        <ele>68.87</ele>
        <time>2015-08-16T14:56:12Z</time>
      </trkpt>
      <trkpt lat="47.3227" lon="1.27768">
        <ele>68.87</ele>
        <time>2015-08-16T14:56:13Z</time>
      </trkpt>
      <trkpt lat="47.32225" lon="1.27878">
        <ele>68.87</ele>
        <time>2015-08-16T14:56:30Z</time>
      </trkpt>
      <trkpt lat="47.32169" lon="1.28017">
        <ele>70.31</ele>
        <time>2015-08-16T14:56:52Z</time>
      </trkpt>
      <trkpt lat="47.32126" lon="1.28126">
        <ele>71.76</ele>
        <time>2015-08-16T14:57:10Z</time>
      </trkpt>
      <trkpt lat="47.32093" lon="1.28206">
        <ele>72.72</ele>
        <time>2015-08-16T14:57:26Z</time>
      </trkpt>
      <trkpt lat="47.32052" lon="1.28308">
        <ele>72.24</ele>
        <time>2015-08-16T14:57:46Z</time>
      </trkpt>
      <trkpt lat="47.32013" lon="1.28403">
        <ele>74.16</ele>
        <time>2015-08-16T14:58:03Z</time>
      </trkpt>
      <trkpt lat="47.3197" lon="1.28518">
        <ele>77.52</ele>
        <time>2015-08-16T14:58:20Z</time>
      </trkpt>
      <trkpt lat="47.31968" lon="1.28524">
        <ele>77.52</ele>
        <time>2015-08-16T14:58:21Z</time>
      </trkpt>
      <trkpt lat="47.31936" lon="1.28598">
        <ele>78.97</ele>
        <time>2015-08-16T14:58:35Z</time>
      </trkpt>
      <trkpt lat="47.31917" lon="1.28648">
        <ele>79.45</ele>
        <time>2015-08-16T14:58:49Z</time>
      </trkpt>
      <trkpt lat="47.31903" lon="1.28685">
        <ele>78.97</ele>
        <time>2015-08-16T14:59:04Z</time>
      </trkpt>
      <trkpt lat="47.31884" lon="1.28723">
        <ele>78.48</ele>
        <time>2015-08-16T14:59:21Z</time>
      </trkpt>
      <trkpt lat="47.31851" lon="1.28786">
        <ele>76.08</ele>
        <time>2015-08-16T15:03:21Z</time>
      </trkpt>
      <trkpt lat="47.31822" lon="1.28833">
        <ele>74.64</ele>
        <time>2015-08-16T15:03:37Z</time>
      </trkpt>
      <trkpt lat="47.31798" lon="1.28873">
        <ele>74.64</ele>
        <time>2015-08-16T15:03:52Z</time>
      </trkpt>
      <trkpt lat="47.31783" lon="1.28892">
        <ele>74.16</ele>
        <time>2015-08-16T15:04:04Z</time>
      </trkpt>
      <trkpt lat="47.31782" lon="1.28893">
        <ele>74.16</ele>
        <time>2015-08-16T15:04:05Z</time>
      </trkpt>
      <trkpt lat="47.31781" lon="1.28895">
        <ele>74.16</ele>
        <time>2015-08-16T15:04:12Z</time>
      </trkpt>
      <trkpt lat="47.3178" lon="1.28897">
        <ele>73.68</ele>
        <time>2015-08-16T15:04:24Z</time>
      </trkpt>
      <trkpt lat="47.31782" lon="1.28903">
        <ele>73.68</ele>
        <time>2015-08-16T15:04:45Z</time>
      </trkpt>
      <trkpt lat="47.31793" lon="1.28912">
        <ele>73.2</ele>
        <time>2015-08-16T15:04:57Z</time>
      </trkpt>
      <trkpt lat="47.31823" lon="1.28937">
        <ele>72.24</ele>
        <time>2015-08-16T15:05:11Z</time>
      </trkpt>
      <trkpt lat="47.31865" lon="1.28972">
        <ele>71.27</ele>
        <time>2015-08-16T15:05:27Z</time>
      </trkpt>
      <trkpt lat="47.31912" lon="1.29023">
        <ele>70.31</ele>
        <time>2015-08-16T15:05:45Z</time>
      </trkpt>
      <trkpt lat="47.31945" lon="1.29062">
        <ele>69.35</ele>
        <time>2015-08-16T15:06:00Z</time>
      </trkpt>
      <trkpt lat="47.31986" lon="1.29107">
        <ele>68.87</ele>
        <time>2015-08-16T15:06:18Z</time>
      </trkpt>
      <trkpt lat="47.32037" lon="1.29164">
        <ele>68.39</ele>
        <time>2015-08-16T15:06:37Z</time>
      </trkpt>
      <trkpt lat="47.32077" lon="1.29207">
        <ele>68.39</ele>
        <time>2015-08-16T15:06:52Z</time>
      </trkpt>
      <trkpt lat="47.32113" lon="1.29266">
        <ele>68.39</ele>
        <time>2015-08-16T15:07:08Z</time>
      </trkpt>
      <trkpt lat="47.32141" lon="1.29288">
        <ele>68.39</ele>
        <time>2015-08-16T15:07:20Z</time>
      </trkpt>
      <trkpt lat="47.3217" lon="1.29311">
        <ele>67.43</ele>
        <time>2015-08-16T15:07:34Z</time>
      </trkpt>
      <trkpt lat="47.32214" lon="1.29357">
        <ele>66.95</ele>
        <time>2015-08-16T15:07:52Z</time>
      </trkpt>
      <trkpt lat="47.32271" lon="1.29413">
        <ele>67.43</ele>
        <time>2015-08-16T15:08:11Z</time>
      </trkpt>
      <trkpt lat="47.32309" lon="1.29462">
        <ele>66.47</ele>
        <time>2015-08-16T15:08:27Z</time>
      </trkpt>
      <trkpt lat="47.3233" lon="1.29533">
        <ele>65.51</ele>
        <time>2015-08-16T15:08:43Z</time>
      </trkpt>
      <trkpt lat="47.32346" lon="1.29611">
        <ele>66.47</ele>
        <time>2015-08-16T15:09:00Z</time>
      </trkpt>
      <trkpt lat="47.32354" lon="1.29652">
        <ele>65.99</ele>
        <time>2015-08-16T15:09:12Z</time>
      </trkpt>
      <trkpt lat="47.32361" lon="1.29684">
        <ele>65.51</ele>
        <time>2015-08-16T15:09:27Z</time>
      </trkpt>
      <trkpt lat="47.32371" lon="1.29742">
        <ele>65.51</ele>
        <time>2015-08-16T15:09:41Z</time>
      </trkpt>
      <trkpt lat="47.32387" lon="1.29809">
        <ele>65.99</ele>
        <time>2015-08-16T15:09:57Z</time>
      </trkpt>
      <trkpt lat="47.32391" lon="1.29862">
        <ele>65.51</ele>
        <time>2015-08-16T15:10:14Z</time>
      </trkpt>
      <trkpt lat="47.32391" lon="1.29864">
        <ele>65.51</ele>
        <time>2015-08-16T15:10:15Z</time>
      </trkpt>
      <trkpt lat="47.32391" lon="1.29867">
        <ele>65.51</ele>
        <time>2015-08-16T15:10:16Z</time>
      </trkpt>
      <trkpt lat="47.32391" lon="1.29869">
        <ele>65.51</ele>
        <time>2015-08-16T15:10:17Z</time>
      </trkpt>
      <trkpt lat="47.32391" lon="1.29871">
        <ele>65.51</ele>
        <time>2015-08-16T15:10:18Z</time>
      </trkpt>
      <trkpt lat="47.32391" lon="1.29874">
        <ele>65.51</ele>
        <time>2015-08-16T15:10:19Z</time>
      </trkpt>
      <trkpt lat="47.3239" lon="1.29876">
        <ele>65.51</ele>
        <time>2015-08-16T15:10:20Z</time>
      </trkpt>
      <trkpt lat="47.3239" lon="1.29879">
        <ele>65.51</ele>
        <time>2015-08-16T15:10:21Z</time>
      </trkpt>
      <trkpt lat="47.3239" lon="1.29881">
        <ele>65.51</ele>
        <time>2015-08-16T15:10:22Z</time>
      </trkpt>
      <trkpt lat="47.3239" lon="1.29883">
        <ele>65.51</ele>
        <time>2015-08-16T15:10:23Z</time>
      </trkpt>
      <trkpt lat="47.32391" lon="1.29885">
        <ele>65.51</ele>
        <time>2015-08-16T15:10:24Z</time>
      </trkpt>
      <trkpt lat="47.32391" lon="1.29885">
        <ele>65.51</ele>
        <time>2015-08-16T15:10:28Z</time>
      </trkpt>
      <trkpt lat="47.32394" lon="1.29892">
        <ele>65.51</ele>
        <time>2015-08-16T15:10:43Z</time>
      </trkpt>
      <trkpt lat="47.32395" lon="1.29895">
        <ele>65.51</ele>
        <time>2015-08-16T15:10:45Z</time>
      </trkpt>
      <trkpt lat="47.32395" lon="1.29896">
        <ele>65.51</ele>
        <time>2015-08-16T15:11:24Z</time>
      </trkpt>
      <trkpt lat="47.32395" lon="1.29896">
        <ele>65.99</ele>
        <time>2015-08-16T15:12:01Z</time>
      </trkpt>
      <trkpt lat="47.32394" lon="1.29896">
        <ele>65.51</ele>
        <time>2015-08-16T15:12:42Z</time>
      </trkpt>
      <trkpt lat="47.32395" lon="1.29895">
        <ele>65.51</ele>
        <time>2015-08-16T15:13:19Z</time>
      </trkpt>
      <trkpt lat="47.32394" lon="1.29895">
        <ele>65.51</ele>
        <time>2015-08-16T15:13:53Z</time>
      </trkpt>
      <trkpt lat="47.32391" lon="1.29897">
        <ele>65.51</ele>
        <time>2015-08-16T15:14:05Z</time>
      </trkpt>
      <trkpt lat="47.32391" lon="1.29898">
        <ele>65.51</ele>
        <time>2015-08-16T15:14:14Z</time>
      </trkpt>
      <trkpt lat="47.32389" lon="1.29909">
        <ele>65.99</ele>
        <time>2015-08-16T15:14:22Z</time>
      </trkpt>
      <trkpt lat="47.32383" lon="1.30028">
        <ele>65.99</ele>
        <time>2015-08-16T15:14:42Z</time>
      </trkpt>
      <trkpt lat="47.32377" lon="1.30145">
        <ele>65.99</ele>
        <time>2015-08-16T15:15:00Z</time>
      </trkpt>
      <trkpt lat="47.32376" lon="1.30245">
        <ele>65.99</ele>
        <time>2015-08-16T15:15:14Z</time>
      </trkpt>
      <trkpt lat="47.32376" lon="1.30253">
        <ele>66.47</ele>
        <time>2015-08-16T15:15:15Z</time>
      </trkpt>
      <trkpt lat="47.32377" lon="1.30261">
        <ele>66.47</ele>
        <time>2015-08-16T15:15:16Z</time>
      </trkpt>
      <trkpt lat="47.32382" lon="1.30275">
        <ele>66.95</ele>
        <time>2015-08-16T15:15:18Z</time>
      </trkpt>
      <trkpt lat="47.32385" lon="1.30283">
        <ele>66.95</ele>
        <time>2015-08-16T15:15:19Z</time>
      </trkpt>
      <trkpt lat="47.32388" lon="1.3029">
        <ele>66.95</ele>
        <time>2015-08-16T15:15:20Z</time>
      </trkpt>
      <trkpt lat="47.32401" lon="1.30313">
        <ele>66.95</ele>
        <time>2015-08-16T15:15:24Z</time>
      </trkpt>
      <trkpt lat="47.32432" lon="1.30367">
        <ele>68.87</ele>
        <time>2015-08-16T15:15:38Z</time>
      </trkpt>
      <trkpt lat="47.32471" lon="1.30426">
        <ele>68.87</ele>
        <time>2015-08-16T15:15:55Z</time>
      </trkpt>
      <trkpt lat="47.32494" lon="1.30463">
        <ele>68.39</ele>
        <time>2015-08-16T15:16:08Z</time>
      </trkpt>
      <trkpt lat="47.32516" lon="1.30492">
        <ele>67.91</ele>
        <time>2015-08-16T15:16:20Z</time>
      </trkpt>
      <trkpt lat="47.32533" lon="1.30518">
        <ele>68.39</ele>
        <time>2015-08-16T15:16:32Z</time>
      </trkpt>
      <trkpt lat="47.32536" lon="1.30519">
        <ele>68.87</ele>
        <time>2015-08-16T15:16:43Z</time>
      </trkpt>
      <trkpt lat="47.32536" lon="1.30519">
        <ele>68.87</ele>
        <time>2015-08-16T15:17:12Z</time>
      </trkpt>
      <trkpt lat="47.32535" lon="1.30519">
        <ele>68.87</ele>
        <time>2015-08-16T15:17:42Z</time>
      </trkpt>
      <trkpt lat="47.32534" lon="1.30519">
        <ele>68.87</ele>
        <time>2015-08-16T15:18:00Z</time>
      </trkpt>
      <trkpt lat="47.32531" lon="1.30519">
        <ele>67.91</ele>
        <time>2015-08-16T15:18:25Z</time>
      </trkpt>
      <trkpt lat="47.32531" lon="1.30518">
        <ele>68.39</ele>
        <time>2015-08-16T15:18:40Z</time>
      </trkpt>
      <trkpt lat="47.32533" lon="1.30522">
        <ele>68.87</ele>
        <time>2015-08-16T15:18:52Z</time>
      </trkpt>
      <trkpt lat="47.32523" lon="1.30534">
        <ele>68.39</ele>
        <time>2015-08-16T15:19:08Z</time>
      </trkpt>
      <trkpt lat="47.32519" lon="1.30535">
        <ele>68.39</ele>
        <time>2015-08-16T15:19:13Z</time>
      </trkpt>
      <trkpt lat="47.32504" lon="1.30533">
        <ele>66.47</ele>
        <time>2015-08-16T15:19:27Z</time>
      </trkpt>
      <trkpt lat="47.32491" lon="1.30525">
        <ele>65.51</ele>
        <time>2015-08-16T15:19:44Z</time>
      </trkpt>
      <trkpt lat="47.32477" lon="1.30515">
        <ele>63.58</ele>
        <time>2015-08-16T15:20:00Z</time>
      </trkpt>
      <trkpt lat="47.3248" lon="1.30498">
        <ele>64.07</ele>
        <time>2015-08-16T15:20:06Z</time>
      </trkpt>
      <trkpt lat="47.32478" lon="1.30485">
        <ele>64.07</ele>
        <time>2015-08-16T15:20:16Z</time>
      </trkpt>
      <trkpt lat="47.32464" lon="1.30495">
        <ele>64.55</ele>
        <time>2015-08-16T15:20:24Z</time>
      </trkpt>
      <trkpt lat="47.3243" lon="1.30523">
        <ele>64.07</ele>
        <time>2015-08-16T15:20:36Z</time>
      </trkpt>
      <trkpt lat="47.32385" lon="1.30554">
        <ele>64.55</ele>
        <time>2015-08-16T15:20:49Z</time>
      </trkpt>
      <trkpt lat="47.32324" lon="1.30578">
        <ele>64.55</ele>
        <time>2015-08-16T15:21:05Z</time>
      </trkpt>
      <trkpt lat="47.32279" lon="1.30591">
        <ele>64.55</ele>
        <time>2015-08-16T15:21:19Z</time>
      </trkpt>
      <trkpt lat="47.32237" lon="1.30595">
        <ele>64.55</ele>
        <time>2015-08-16T15:21:32Z</time>
      </trkpt>
      <trkpt lat="47.32199" lon="1.30595">
        <ele>64.07</ele>
        <time>2015-08-16T15:21:45Z</time>
      </trkpt>
      <trkpt lat="47.32183" lon="1.30595">
        <ele>63.58</ele>
        <time>2015-08-16T15:21:53Z</time>
      </trkpt>
      <trkpt lat="47.32147" lon="1.30598">
        <ele>63.1</ele>
        <time>2015-08-16T15:22:06Z</time>
      </trkpt>
      <trkpt lat="47.32116" lon="1.30618">
        <ele>63.1</ele>
        <time>2015-08-16T15:22:17Z</time>
      </trkpt>
      <trkpt lat="47.32086" lon="1.30633">
        <ele>63.1</ele>
        <time>2015-08-16T15:22:27Z</time>
      </trkpt>
      <trkpt lat="47.3206" lon="1.30646">
        <ele>63.1</ele>
        <time>2015-08-16T15:22:38Z</time>
      </trkpt>
      <trkpt lat="47.32041" lon="1.30664">
        <ele>63.58</ele>
        <time>2015-08-16T15:22:45Z</time>
      </trkpt>
      <trkpt lat="47.32027" lon="1.30692">
        <ele>63.58</ele>
        <time>2015-08-16T15:22:57Z</time>
      </trkpt>
      <trkpt lat="47.32026" lon="1.30692">
        <ele>63.1</ele>
        <time>2015-08-16T15:23:21Z</time>
      </trkpt>
      <trkpt lat="47.32024" lon="1.30691">
        <ele>63.58</ele>
        <time>2015-08-16T15:23:34Z</time>
      </trkpt>
      <trkpt lat="47.32022" lon="1.30691">
        <ele>63.58</ele>
        <time>2015-08-16T15:23:35Z</time>
      </trkpt>
      <trkpt lat="47.32007" lon="1.30726">
        <ele>64.07</ele>
        <time>2015-08-16T15:23:46Z</time>
      </trkpt>
      <trkpt lat="47.32" lon="1.30789">
        <ele>64.55</ele>
        <time>2015-08-16T15:23:59Z</time>
      </trkpt>
      <trkpt lat="47.32" lon="1.30792">
        <ele>64.55</ele>
        <time>2015-08-16T15:24:00Z</time>
      </trkpt>
      <trkpt lat="47.31999" lon="1.30794">
        <ele>64.55</ele>
        <time>2015-08-16T15:24:01Z</time>
      </trkpt>
      <trkpt lat="47.31999" lon="1.30797">
        <ele>64.55</ele>
        <time>2015-08-16T15:24:02Z</time>
      </trkpt>
      <trkpt lat="47.31994" lon="1.30846">
        <ele>64.07</ele>
        <time>2015-08-16T15:24:17Z</time>
      </trkpt>
      <trkpt lat="47.31991" lon="1.30902">
        <ele>63.58</ele>
        <time>2015-08-16T15:24:30Z</time>
      </trkpt>
      <trkpt lat="47.31989" lon="1.3096">
        <ele>64.55</ele>
        <time>2015-08-16T15:24:45Z</time>
      </trkpt>
      <trkpt lat="47.31989" lon="1.30963">
        <ele>64.55</ele>
        <time>2015-08-16T15:24:46Z</time>
      </trkpt>
      <trkpt lat="47.31989" lon="1.30966">
        <ele>64.07</ele>
        <time>2015-08-16T15:24:47Z</time>
      </trkpt>
      <trkpt lat="47.31988" lon="1.30969">
        <ele>64.55</ele>
        <time>2015-08-16T15:24:48Z</time>
      </trkpt>
      <trkpt lat="47.31988" lon="1.30972">
        <ele>64.55</ele>
        <time>2015-08-16T15:24:49Z</time>
      </trkpt>
      <trkpt lat="47.31987" lon="1.30974">
        <ele>64.55</ele>
        <time>2015-08-16T15:24:50Z</time>
      </trkpt>
      <trkpt lat="47.31987" lon="1.30977">
        <ele>64.55</ele>
        <time>2015-08-16T15:24:51Z</time>
      </trkpt>
      <trkpt lat="47.31986" lon="1.30979">
        <ele>64.55</ele>
        <time>2015-08-16T15:24:52Z</time>
      </trkpt>
      <trkpt lat="47.31986" lon="1.30981">
        <ele>64.55</ele>
        <time>2015-08-16T15:24:53Z</time>
      </trkpt>
      <trkpt lat="47.31981" lon="1.31044">
        <ele>64.55</ele>
        <time>2015-08-16T15:25:07Z</time>
      </trkpt>
      <trkpt lat="47.31974" lon="1.3112">
        <ele>64.55</ele>
        <time>2015-08-16T15:25:23Z</time>
      </trkpt>
      <trkpt lat="47.31969" lon="1.31174">
        <ele>64.55</ele>
        <time>2015-08-16T15:25:36Z</time>
      </trkpt>
      <trkpt lat="47.3196" lon="1.31259">
        <ele>65.03</ele>
        <time>2015-08-16T15:25:50Z</time>
      </trkpt>
      <trkpt lat="47.3196" lon="1.31264">
        <ele>65.51</ele>
        <time>2015-08-16T15:25:51Z</time>
      </trkpt>
      <trkpt lat="47.3196" lon="1.31269">
        <ele>65.99</ele>
        <time>2015-08-16T15:25:52Z</time>
      </trkpt>
      <trkpt lat="47.3196" lon="1.31273">
        <ele>65.99</ele>
        <time>2015-08-16T15:25:53Z</time>
      </trkpt>
      <trkpt lat="47.3196" lon="1.31276">
        <ele>66.47</ele>
        <time>2015-08-16T15:25:54Z</time>
      </trkpt>
      <trkpt lat="47.3196" lon="1.31278">
        <ele>66.47</ele>
        <time>2015-08-16T15:25:55Z</time>
      </trkpt>
      <trkpt lat="47.3196" lon="1.3128">
        <ele>66.47</ele>
        <time>2015-08-16T15:25:56Z</time>
      </trkpt>
      <trkpt lat="47.3196" lon="1.31282">
        <ele>66.47</ele>
        <time>2015-08-16T15:25:57Z</time>
      </trkpt>
      <trkpt lat="47.31959" lon="1.31284">
        <ele>65.99</ele>
        <time>2015-08-16T15:25:58Z</time>
      </trkpt>
      <trkpt lat="47.31958" lon="1.31286">
        <ele>65.99</ele>
        <time>2015-08-16T15:25:59Z</time>
      </trkpt>
      <trkpt lat="47.31953" lon="1.31307">
        <ele>65.03</ele>
        <time>2015-08-16T15:26:08Z</time>
      </trkpt>
      <trkpt lat="47.31953" lon="1.3131">
        <ele>65.03</ele>
        <time>2015-08-16T15:26:09Z</time>
      </trkpt>
      <trkpt lat="47.31953" lon="1.31312">
        <ele>65.03</ele>
        <time>2015-08-16T15:26:10Z</time>
      </trkpt>
      <trkpt lat="47.31952" lon="1.31315">
        <ele>65.03</ele>
        <time>2015-08-16T15:26:13Z</time>
      </trkpt>
      <trkpt lat="47.31952" lon="1.31316">
        <ele>65.03</ele>
        <time>2015-08-16T15:26:19Z</time>
      </trkpt>
      <trkpt lat="47.31949" lon="1.3132">
        <ele>65.03</ele>
        <time>2015-08-16T15:26:34Z</time>
      </trkpt>
      <trkpt lat="47.31946" lon="1.31324">
        <ele>64.55</ele>
        <time>2015-08-16T15:26:58Z</time>
      </trkpt>
      <trkpt lat="47.31946" lon="1.31323">
        <ele>64.55</ele>
        <time>2015-08-16T15:27:37Z</time>
      </trkpt>
      <trkpt lat="47.31946" lon="1.31323">
        <ele>64.55</ele>
        <time>2015-08-16T15:28:17Z</time>
      </trkpt>
      <trkpt lat="47.31947" lon="1.31322">
        <ele>64.55</ele>
        <time>2015-08-16T15:28:57Z</time>
      </trkpt>
      <trkpt lat="47.31947" lon="1.31324">
        <ele>64.55</ele>
        <time>2015-08-16T15:29:36Z</time>
      </trkpt>
      <trkpt lat="47.31946" lon="1.31323">
        <ele>65.03</ele>
        <time>2015-08-16T15:30:12Z</time>
      </trkpt>
      <trkpt lat="47.31945" lon="1.31323">
        <ele>65.03</ele>
        <time>2015-08-16T15:30:50Z</time>
      </trkpt>
      <trkpt lat="47.31943" lon="1.31321">
        <ele>64.55</ele>
        <time>2015-08-16T15:31:03Z</time>
      </trkpt>
      <trkpt lat="47.31941" lon="1.3132">
        <ele>64.07</ele>
        <time>2015-08-16T15:31:05Z</time>
      </trkpt>
      <trkpt lat="47.31909" lon="1.31329">
        <ele>64.55</ele>
        <time>2015-08-16T15:31:18Z</time>
      </trkpt>
      <trkpt lat="47.31868" lon="1.31354">
        <ele>64.55</ele>
        <time>2015-08-16T15:31:33Z</time>
      </trkpt>
      <trkpt lat="47.31822" lon="1.3139">
        <ele>65.03</ele>
        <time>2015-08-16T15:31:50Z</time>
      </trkpt>
      <trkpt lat="47.31784" lon="1.31418">
        <ele>65.03</ele>
        <time>2015-08-16T15:32:04Z</time>
      </trkpt>
      <trkpt lat="47.31739" lon="1.31454">
        <ele>65.51</ele>
        <time>2015-08-16T15:32:22Z</time>
      </trkpt>
      <trkpt lat="47.31692" lon="1.3149">
        <ele>65.03</ele>
        <time>2015-08-16T15:32:40Z</time>
      </trkpt>
      <trkpt lat="47.31648" lon="1.31526">
        <ele>65.03</ele>
        <time>2015-08-16T15:32:56Z</time>
      </trkpt>
      <trkpt lat="47.31604" lon="1.3156">
        <ele>65.51</ele>
        <time>2015-08-16T15:33:13Z</time>
      </trkpt>
      <trkpt lat="47.31577" lon="1.31579">
        <ele>65.03</ele>
        <time>2015-08-16T15:33:25Z</time>
      </trkpt>
      <trkpt lat="47.31542" lon="1.31605">
        <ele>65.03</ele>
        <time>2015-08-16T15:33:40Z</time>
      </trkpt>
      <trkpt lat="47.31515" lon="1.31628">
        <ele>65.03</ele>
        <time>2015-08-16T15:33:52Z</time>
      </trkpt>
      <trkpt lat="47.31483" lon="1.31653">
        <ele>65.03</ele>
        <time>2015-08-16T15:34:04Z</time>
      </trkpt>
      <trkpt lat="47.31442" lon="1.31688">
        <ele>65.51</ele>
        <time>2015-08-16T15:34:18Z</time>
      </trkpt>
      <trkpt lat="47.31413" lon="1.31707">
        <ele>65.51</ele>
        <time>2015-08-16T15:34:31Z</time>
      </trkpt>
      <trkpt lat="47.31387" lon="1.31725">
        <ele>65.51</ele>
        <time>2015-08-16T15:34:43Z</time>
      </trkpt>
      <trkpt lat="47.31352" lon="1.31749">
        <ele>65.51</ele>
        <time>2015-08-16T15:34:59Z</time>
      </trkpt>
      <trkpt lat="47.31332" lon="1.31767">
        <ele>65.03</ele>
        <time>2015-08-16T15:35:10Z</time>
      </trkpt>
      <trkpt lat="47.31295" lon="1.31797">
        <ele>65.03</ele>
        <time>2015-08-16T15:35:26Z</time>
      </trkpt>
      <trkpt lat="47.31268" lon="1.31826">
        <ele>65.51</ele>
        <time>2015-08-16T15:35:39Z</time>
      </trkpt>
      <trkpt lat="47.31238" lon="1.31863">
        <ele>65.51</ele>
        <time>2015-08-16T15:35:53Z</time>
      </trkpt>
      <trkpt lat="47.31203" lon="1.31893">
        <ele>65.51</ele>
        <time>2015-08-16T15:36:08Z</time>
      </trkpt>
      <trkpt lat="47.31162" lon="1.31921">
        <ele>65.99</ele>
        <time>2015-08-16T15:36:24Z</time>
      </trkpt>
      <trkpt lat="47.31122" lon="1.31949">
        <ele>65.99</ele>
        <time>2015-08-16T15:36:40Z</time>
      </trkpt>
      <trkpt lat="47.31089" lon="1.31973">
        <ele>65.51</ele>
        <time>2015-08-16T15:36:54Z</time>
      </trkpt>
      <trkpt lat="47.31064" lon="1.31996">
        <ele>65.51</ele>
        <time>2015-08-16T15:37:07Z</time>
      </trkpt>
      <trkpt lat="47.31032" lon="1.32025">
        <ele>65.51</ele>
        <time>2015-08-16T15:37:21Z</time>
      </trkpt>
      <trkpt lat="47.31024" lon="1.32033">
        <ele>65.51</ele>
        <time>2015-08-16T15:37:37Z</time>
      </trkpt>
      <trkpt lat="47.31025" lon="1.32032">
        <ele>66.47</ele>
        <time>2015-08-16T15:38:11Z</time>
      </trkpt>
      <trkpt lat="47.31022" lon="1.32034">
        <ele>66.47</ele>
        <time>2015-08-16T15:38:28Z</time>
      </trkpt>
      <trkpt lat="47.31016" lon="1.32043">
        <ele>65.99</ele>
        <time>2015-08-16T15:38:34Z</time>
      </trkpt>
      <trkpt lat="47.30985" lon="1.32065">
        <ele>65.99</ele>
        <time>2015-08-16T15:38:47Z</time>
      </trkpt>
      <trkpt lat="47.3095" lon="1.32069">
        <ele>65.99</ele>
        <time>2015-08-16T15:38:57Z</time>
      </trkpt>
      <trkpt lat="47.30921" lon="1.32043">
        <ele>65.51</ele>
        <time>2015-08-16T15:39:10Z</time>
      </trkpt>
      <trkpt lat="47.30875" lon="1.32038">
        <ele>65.51</ele>
        <time>2015-08-16T15:39:23Z</time>
      </trkpt>
      <trkpt lat="47.30814" lon="1.32075">
        <ele>66.47</ele>
        <time>2015-08-16T15:39:39Z</time>
      </trkpt>
      <trkpt lat="47.30761" lon="1.32137">
        <ele>65.99</ele>
        <time>2015-08-16T15:39:57Z</time>
      </trkpt>
      <trkpt lat="47.30709" lon="1.32196">
        <ele>65.99</ele>
        <time>2015-08-16T15:40:15Z</time>
      </trkpt>
      <trkpt lat="47.30674" lon="1.32234">
        <ele>65.99</ele>
        <time>2015-08-16T15:40:30Z</time>
      </trkpt>
      <trkpt lat="47.3067" lon="1.32238">
        <ele>65.99</ele>
        <time>2015-08-16T15:40:48Z</time>
      </trkpt>
      <trkpt lat="47.30669" lon="1.32239">
        <ele>65.99</ele>
        <time>2015-08-16T15:41:14Z</time>
      </trkpt>
      <trkpt lat="47.30645" lon="1.32266">
        <ele>65.99</ele>
        <time>2015-08-16T15:41:26Z</time>
      </trkpt>
      <trkpt lat="47.30589" lon="1.32329">
        <ele>66.47</ele>
        <time>2015-08-16T15:41:45Z</time>
      </trkpt>
      <trkpt lat="47.30542" lon="1.32373">
        <ele>65.99</ele>
        <time>2015-08-16T15:42:00Z</time>
      </trkpt>
      <trkpt lat="47.30496" lon="1.32428">
        <ele>66.47</ele>
        <time>2015-08-16T15:42:15Z</time>
      </trkpt>
      <trkpt lat="47.30467" lon="1.32468">
        <ele>65.99</ele>
        <time>2015-08-16T15:42:26Z</time>
      </trkpt>
      <trkpt lat="47.3042" lon="1.32548">
        <ele>66.47</ele>
        <time>2015-08-16T15:42:45Z</time>
      </trkpt>
      <trkpt lat="47.30376" lon="1.32609">
        <ele>66.47</ele>
        <time>2015-08-16T15:43:02Z</time>
      </trkpt>
      <trkpt lat="47.30327" lon="1.32671">
        <ele>66.47</ele>
        <time>2015-08-16T15:43:20Z</time>
      </trkpt>
      <trkpt lat="47.30277" lon="1.32734">
        <ele>66.47</ele>
        <time>2015-08-16T15:43:38Z</time>
      </trkpt>
      <trkpt lat="47.3023" lon="1.32797">
        <ele>66.47</ele>
        <time>2015-08-16T15:43:55Z</time>
      </trkpt>
      <trkpt lat="47.30192" lon="1.32852">
        <ele>66.47</ele>
        <time>2015-08-16T15:44:10Z</time>
      </trkpt>
      <trkpt lat="47.30149" lon="1.32899">
        <ele>66.47</ele>
        <time>2015-08-16T15:44:25Z</time>
      </trkpt>
      <trkpt lat="47.30099" lon="1.32928">
        <ele>66.47</ele>
        <time>2015-08-16T15:44:39Z</time>
      </trkpt>
      <trkpt lat="47.30046" lon="1.32967">
        <ele>66.95</ele>
        <time>2015-08-16T15:44:56Z</time>
      </trkpt>
      <trkpt lat="47.29992" lon="1.33016">
        <ele>66.95</ele>
        <time>2015-08-16T15:45:07Z</time>
      </trkpt>
      <trkpt lat="47.2997" lon="1.33032">
        <ele>66.47</ele>
        <time>2015-08-16T15:45:23Z</time>
      </trkpt>
      <trkpt lat="47.29925" lon="1.3308">
        <ele>66.47</ele>
        <time>2015-08-16T15:45:40Z</time>
      </trkpt>
      <trkpt lat="47.29877" lon="1.33127">
        <ele>66.47</ele>
        <time>2015-08-16T15:45:57Z</time>
      </trkpt>
      <trkpt lat="47.29827" lon="1.3317">
        <ele>66.47</ele>
        <time>2015-08-16T15:46:14Z</time>
      </trkpt>
      <trkpt lat="47.29781" lon="1.3321">
        <ele>66.47</ele>
        <time>2015-08-16T15:46:29Z</time>
      </trkpt>
      <trkpt lat="47.2973" lon="1.33253">
        <ele>66.95</ele>
        <time>2015-08-16T15:46:45Z</time>
      </trkpt>
      <trkpt lat="47.29681" lon="1.33303">
        <ele>66.95</ele>
        <time>2015-08-16T15:47:03Z</time>
      </trkpt>
      <trkpt lat="47.29645" lon="1.33353">
        <ele>66.95</ele>
        <time>2015-08-16T15:47:17Z</time>
      </trkpt>
      <trkpt lat="47.29608" lon="1.33412">
        <ele>66.95</ele>
        <time>2015-08-16T15:47:33Z</time>
      </trkpt>
      <trkpt lat="47.29575" lon="1.33469">
        <ele>67.43</ele>
        <time>2015-08-16T15:47:47Z</time>
      </trkpt>
      <trkpt lat="47.29545" lon="1.33532">
        <ele>66.95</ele>
        <time>2015-08-16T15:48:03Z</time>
      </trkpt>
      <trkpt lat="47.29536" lon="1.33559">
        <ele>66.95</ele>
        <time>2015-08-16T15:48:10Z</time>
      </trkpt>
      <trkpt lat="47.29523" lon="1.33601">
        <ele>67.43</ele>
        <time>2015-08-16T15:48:25Z</time>
      </trkpt>
      <trkpt lat="47.29523" lon="1.33604">
        <ele>67.43</ele>
        <time>2015-08-16T15:48:26Z</time>
      </trkpt>
      <trkpt lat="47.2952" lon="1.33619">
        <ele>67.43</ele>
        <time>2015-08-16T15:48:33Z</time>
      </trkpt>
      <trkpt lat="47.2952" lon="1.3362">
        <ele>67.91</ele>
        <time>2015-08-16T15:48:51Z</time>
      </trkpt>
      <trkpt lat="47.29519" lon="1.3362">
        <ele>67.43</ele>
        <time>2015-08-16T15:49:15Z</time>
      </trkpt>
      <trkpt lat="47.29517" lon="1.33623">
        <ele>67.43</ele>
        <time>2015-08-16T15:49:28Z</time>
      </trkpt>
      <trkpt lat="47.29508" lon="1.33676">
        <ele>67.91</ele>
        <time>2015-08-16T15:49:39Z</time>
      </trkpt>
      <trkpt lat="47.2951" lon="1.33778">
        <ele>67.91</ele>
        <time>2015-08-16T15:49:56Z</time>
      </trkpt>
      <trkpt lat="47.29521" lon="1.3384">
        <ele>67.91</ele>
        <time>2015-08-16T15:50:09Z</time>
      </trkpt>
      <trkpt lat="47.29522" lon="1.33844">
        <ele>67.91</ele>
        <time>2015-08-16T15:50:10Z</time>
      </trkpt>
      <trkpt lat="47.29523" lon="1.33848">
        <ele>67.91</ele>
        <time>2015-08-16T15:50:11Z</time>
      </trkpt>
      <trkpt lat="47.29524" lon="1.33851">
        <ele>67.91</ele>
        <time>2015-08-16T15:50:12Z</time>
      </trkpt>
      <trkpt lat="47.29524" lon="1.33854">
        <ele>67.91</ele>
        <time>2015-08-16T15:50:13Z</time>
      </trkpt>
      <trkpt lat="47.29524" lon="1.33856">
        <ele>67.91</ele>
        <time>2015-08-16T15:50:14Z</time>
      </trkpt>
      <trkpt lat="47.29524" lon="1.33859">
        <ele>67.91</ele>
        <time>2015-08-16T15:50:15Z</time>
      </trkpt>
      <trkpt lat="47.29524" lon="1.33862">
        <ele>67.91</ele>
        <time>2015-08-16T15:50:16Z</time>
      </trkpt>
      <trkpt lat="47.29525" lon="1.33865">
        <ele>67.91</ele>
        <time>2015-08-16T15:50:17Z</time>
      </trkpt>
      <trkpt lat="47.29526" lon="1.33866">
        <ele>67.91</ele>
        <time>2015-08-16T15:50:18Z</time>
      </trkpt>
      <trkpt lat="47.29527" lon="1.33867">
        <ele>67.91</ele>
        <time>2015-08-16T15:50:19Z</time>
      </trkpt>
      <trkpt lat="47.29528" lon="1.33869">
        <ele>67.91</ele>
        <time>2015-08-16T15:50:37Z</time>
      </trkpt>
      <trkpt lat="47.29529" lon="1.33913">
        <ele>68.39</ele>
        <time>2015-08-16T15:50:50Z</time>
      </trkpt>
      <trkpt lat="47.29517" lon="1.33982">
        <ele>68.39</ele>
        <time>2015-08-16T15:51:05Z</time>
      </trkpt>
      <trkpt lat="47.29492" lon="1.34049">
        <ele>68.39</ele>
        <time>2015-08-16T15:51:21Z</time>
      </trkpt>
      <trkpt lat="47.29473" lon="1.34108">
        <ele>67.91</ele>
        <time>2015-08-16T15:51:36Z</time>
      </trkpt>
      <trkpt lat="47.29456" lon="1.34169">
        <ele>67.91</ele>
        <time>2015-08-16T15:51:51Z</time>
      </trkpt>
      <trkpt lat="47.29438" lon="1.34229">
        <ele>67.91</ele>
        <time>2015-08-16T15:52:07Z</time>
      </trkpt>
      <trkpt lat="47.29418" lon="1.34295">
        <ele>67.91</ele>
        <time>2015-08-16T15:52:23Z</time>
      </trkpt>
      <trkpt lat="47.29397" lon="1.34368">
        <ele>68.39</ele>
        <time>2015-08-16T15:52:41Z</time>
      </trkpt>
      <trkpt lat="47.29369" lon="1.34428">
        <ele>68.87</ele>
        <time>2015-08-16T15:52:56Z</time>
      </trkpt>
      <trkpt lat="47.29335" lon="1.34497">
        <ele>68.39</ele>
        <time>2015-08-16T15:53:13Z</time>
      </trkpt>
      <trkpt lat="47.29289" lon="1.34555">
        <ele>67.91</ele>
        <time>2015-08-16T15:53:31Z</time>
      </trkpt>
      <trkpt lat="47.29248" lon="1.34598">
        <ele>67.43</ele>
        <time>2015-08-16T15:53:46Z</time>
      </trkpt>
      <trkpt lat="47.29196" lon="1.34645">
        <ele>67.91</ele>
        <time>2015-08-16T15:54:03Z</time>
      </trkpt>
      <trkpt lat="47.29151" lon="1.34706">
        <ele>68.39</ele>
        <time>2015-08-16T15:54:20Z</time>
      </trkpt>
      <trkpt lat="47.29117" lon="1.34769">
        <ele>67.91</ele>
        <time>2015-08-16T15:54:35Z</time>
      </trkpt>
      <trkpt lat="47.29088" lon="1.34809">
        <ele>67.91</ele>
        <time>2015-08-16T15:54:47Z</time>
      </trkpt>
      <trkpt lat="47.29068" lon="1.34872">
        <ele>67.43</ele>
        <time>2015-08-16T15:55:02Z</time>
      </trkpt>
      <trkpt lat="47.29066" lon="1.34936">
        <ele>67.91</ele>
        <time>2015-08-16T15:55:16Z</time>
      </trkpt>
      <trkpt lat="47.29063" lon="1.35004">
        <ele>67.91</ele>
        <time>2015-08-16T15:55:28Z</time>
      </trkpt>
      <trkpt lat="47.29055" lon="1.35067">
        <ele>68.39</ele>
        <time>2015-08-16T15:55:42Z</time>
      </trkpt>
      <trkpt lat="47.29055" lon="1.35071">
        <ele>68.39</ele>
        <time>2015-08-16T15:55:43Z</time>
      </trkpt>
      <trkpt lat="47.29055" lon="1.35074">
        <ele>68.39</ele>
        <time>2015-08-16T15:55:44Z</time>
      </trkpt>
      <trkpt lat="47.29055" lon="1.35077">
        <ele>68.39</ele>
        <time>2015-08-16T15:55:45Z</time>
      </trkpt>
      <trkpt lat="47.29054" lon="1.35081">
        <ele>68.39</ele>
        <time>2015-08-16T15:55:46Z</time>
      </trkpt>
      <trkpt lat="47.29054" lon="1.35085">
        <ele>67.91</ele>
        <time>2015-08-16T15:55:47Z</time>
      </trkpt>
      <trkpt lat="47.29054" lon="1.35089">
        <ele>67.91</ele>
        <time>2015-08-16T15:55:48Z</time>
      </trkpt>
      <trkpt lat="47.29049" lon="1.3513">
        <ele>68.39</ele>
        <time>2015-08-16T15:56:00Z</time>
      </trkpt>
      <trkpt lat="47.29037" lon="1.35197">
        <ele>67.91</ele>
        <time>2015-08-16T15:56:15Z</time>
      </trkpt>
      <trkpt lat="47.29026" lon="1.35265">
        <ele>67.91</ele>
        <time>2015-08-16T15:56:27Z</time>
      </trkpt>
      <trkpt lat="47.29026" lon="1.35271">
        <ele>67.91</ele>
        <time>2015-08-16T15:56:28Z</time>
      </trkpt>
      <trkpt lat="47.29026" lon="1.35277">
        <ele>67.91</ele>
        <time>2015-08-16T15:56:29Z</time>
      </trkpt>
      <trkpt lat="47.29038" lon="1.35323">
        <ele>68.39</ele>
        <time>2015-08-16T15:56:38Z</time>
      </trkpt>
      <trkpt lat="47.29052" lon="1.35379">
        <ele>69.35</ele>
        <time>2015-08-16T15:56:50Z</time>
      </trkpt>
      <trkpt lat="47.29046" lon="1.35415">
        <ele>69.35</ele>
        <time>2015-08-16T15:56:57Z</time>
      </trkpt>
      <trkpt lat="47.29023" lon="1.3548">
        <ele>68.87</ele>
        <time>2015-08-16T15:57:13Z</time>
      </trkpt>
      <trkpt lat="47.29009" lon="1.35557">
        <ele>69.35</ele>
        <time>2015-08-16T15:57:28Z</time>
      </trkpt>
      <trkpt lat="47.29015" lon="1.35633">
        <ele>68.87</ele>
        <time>2015-08-16T15:57:43Z</time>
      </trkpt>
      <trkpt lat="47.29008" lon="1.35713">
        <ele>69.35</ele>
        <time>2015-08-16T15:57:58Z</time>
      </trkpt>
      <trkpt lat="47.28965" lon="1.35785">
        <ele>69.35</ele>
        <time>2015-08-16T15:58:15Z</time>
      </trkpt>
      <trkpt lat="47.28938" lon="1.35844">
        <ele>69.83</ele>
        <time>2015-08-16T15:58:29Z</time>
      </trkpt>
      <trkpt lat="47.28917" lon="1.35907">
        <ele>69.35</ele>
        <time>2015-08-16T15:58:44Z</time>
      </trkpt>
      <trkpt lat="47.28883" lon="1.35982">
        <ele>71.76</ele>
        <time>2015-08-16T15:59:00Z</time>
      </trkpt>
      <trkpt lat="47.28882" lon="1.35986">
        <ele>67.43</ele>
        <time>2015-08-16T15:59:01Z</time>
      </trkpt>
      <trkpt lat="47.28872" lon="1.36007">
        <ele>71.27</ele>
        <time>2015-08-16T15:59:06Z</time>
      </trkpt>
      <trkpt lat="47.2887" lon="1.36011">
        <ele>67.43</ele>
        <time>2015-08-16T15:59:07Z</time>
      </trkpt>
      <trkpt lat="47.28868" lon="1.36016">
        <ele>72.72</ele>
        <time>2015-08-16T15:59:08Z</time>
      </trkpt>
      <trkpt lat="47.28841" lon="1.3607">
        <ele>69.35</ele>
        <time>2015-08-16T15:59:21Z</time>
      </trkpt>
      <trkpt lat="47.28812" lon="1.36127">
        <ele>69.35</ele>
        <time>2015-08-16T15:59:36Z</time>
      </trkpt>
      <trkpt lat="47.28778" lon="1.3619">
        <ele>69.35</ele>
        <time>2015-08-16T15:59:52Z</time>
      </trkpt>
      <trkpt lat="47.28741" lon="1.36261">
        <ele>69.35</ele>
        <time>2015-08-16T16:00:10Z</time>
      </trkpt>
      <trkpt lat="47.28701" lon="1.36316">
        <ele>69.35</ele>
        <time>2015-08-16T16:00:25Z</time>
      </trkpt>
      <trkpt lat="47.28665" lon="1.36359">
        <ele>69.35</ele>
        <time>2015-08-16T16:00:38Z</time>
      </trkpt>
      <trkpt lat="47.28627" lon="1.36417">
        <ele>69.35</ele>
        <time>2015-08-16T16:00:56Z</time>
      </trkpt>
      <trkpt lat="47.28591" lon="1.36481">
        <ele>68.87</ele>
        <time>2015-08-16T16:01:11Z</time>
      </trkpt>
      <trkpt lat="47.28539" lon="1.36512">
        <ele>69.35</ele>
        <time>2015-08-16T16:01:26Z</time>
      </trkpt>
      <trkpt lat="47.2849" lon="1.36572">
        <ele>69.35</ele>
        <time>2015-08-16T16:01:43Z</time>
      </trkpt>
      <trkpt lat="47.28452" lon="1.36633">
        <ele>69.35</ele>
        <time>2015-08-16T16:01:58Z</time>
      </trkpt>
      <trkpt lat="47.28395" lon="1.36716">
        <ele>69.35</ele>
        <time>2015-08-16T16:02:19Z</time>
      </trkpt>
      <trkpt lat="47.28347" lon="1.36769">
        <ele>69.35</ele>
        <time>2015-08-16T16:02:36Z</time>
      </trkpt>
      <trkpt lat="47.28308" lon="1.36816">
        <ele>69.35</ele>
        <time>2015-08-16T16:02:52Z</time>
      </trkpt>
      <trkpt lat="47.28306" lon="1.36819">
        <ele>69.35</ele>
        <time>2015-08-16T16:02:53Z</time>
      </trkpt>
      <trkpt lat="47.28304" lon="1.36822">
        <ele>69.35</ele>
        <time>2015-08-16T16:02:54Z</time>
      </trkpt>
      <trkpt lat="47.28302" lon="1.36824">
        <ele>69.35</ele>
        <time>2015-08-16T16:02:55Z</time>
      </trkpt>
      <trkpt lat="47.28301" lon="1.36826">
        <ele>69.35</ele>
        <time>2015-08-16T16:02:56Z</time>
      </trkpt>
      <trkpt lat="47.283" lon="1.36828">
        <ele>68.87</ele>
        <time>2015-08-16T16:02:57Z</time>
      </trkpt>
      <trkpt lat="47.28299" lon="1.36829">
        <ele>68.87</ele>
        <time>2015-08-16T16:02:58Z</time>
      </trkpt>
      <trkpt lat="47.28299" lon="1.3683">
        <ele>68.87</ele>
        <time>2015-08-16T16:03:09Z</time>
      </trkpt>
      <trkpt lat="47.28299" lon="1.3683">
        <ele>69.35</ele>
        <time>2015-08-16T16:03:11Z</time>
      </trkpt>
      <trkpt lat="47.28299" lon="1.3683">
        <ele>68.39</ele>
        <time>2015-08-16T16:03:13Z</time>
      </trkpt>
      <trkpt lat="47.28299" lon="1.36831">
        <ele>69.35</ele>
        <time>2015-08-16T16:03:28Z</time>
      </trkpt>
      <trkpt lat="47.283" lon="1.36831">
        <ele>69.35</ele>
        <time>2015-08-16T16:04:00Z</time>
      </trkpt>
      <trkpt lat="47.28297" lon="1.36833">
        <ele>69.35</ele>
        <time>2015-08-16T16:04:14Z</time>
      </trkpt>
      <trkpt lat="47.28296" lon="1.36833">
        <ele>69.83</ele>
        <time>2015-08-16T16:04:15Z</time>
      </trkpt>
      <trkpt lat="47.28286" lon="1.36842">
        <ele>69.35</ele>
        <time>2015-08-16T16:04:22Z</time>
      </trkpt>
      <trkpt lat="47.2825" lon="1.36894">
        <ele>69.35</ele>
        <time>2015-08-16T16:04:40Z</time>
      </trkpt>
      <trkpt lat="47.28212" lon="1.36958">
        <ele>69.83</ele>
        <time>2015-08-16T16:04:57Z</time>
      </trkpt>
      <trkpt lat="47.28149" lon="1.37031">
        <ele>69.83</ele>
        <time>2015-08-16T16:05:17Z</time>
      </trkpt>
      <trkpt lat="47.28092" lon="1.37077">
        <ele>70.31</ele>
        <time>2015-08-16T16:05:34Z</time>
      </trkpt>
      <trkpt lat="47.2803" lon="1.37101">
        <ele>70.31</ele>
        <time>2015-08-16T16:05:52Z</time>
      </trkpt>
      <trkpt lat="47.27985" lon="1.37128">
        <ele>69.83</ele>
        <time>2015-08-16T16:06:06Z</time>
      </trkpt>
      <trkpt lat="47.27925" lon="1.37193">
        <ele>69.35</ele>
        <time>2015-08-16T16:06:23Z</time>
      </trkpt>
      <trkpt lat="47.27869" lon="1.37243">
        <ele>69.83</ele>
        <time>2015-08-16T16:06:38Z</time>
      </trkpt>
      <trkpt lat="47.27866" lon="1.37246">
        <ele>70.79</ele>
        <time>2015-08-16T16:06:39Z</time>
      </trkpt>
      <trkpt lat="47.27832" lon="1.37288">
        <ele>69.83</ele>
        <time>2015-08-16T16:06:52Z</time>
      </trkpt>
      <trkpt lat="47.27812" lon="1.37335">
        <ele>69.83</ele>
        <time>2015-08-16T16:07:05Z</time>
      </trkpt>
      <trkpt lat="47.27799" lon="1.37397">
        <ele>69.83</ele>
        <time>2015-08-16T16:07:19Z</time>
      </trkpt>
      <trkpt lat="47.27781" lon="1.37459">
        <ele>69.83</ele>
        <time>2015-08-16T16:07:33Z</time>
      </trkpt>
      <trkpt lat="47.27769" lon="1.37528">
        <ele>69.83</ele>
        <time>2015-08-16T16:07:47Z</time>
      </trkpt>
      <trkpt lat="47.2775" lon="1.37602">
        <ele>69.83</ele>
        <time>2015-08-16T16:08:02Z</time>
      </trkpt>
      <trkpt lat="47.2773" lon="1.37656">
        <ele>70.31</ele>
        <time>2015-08-16T16:08:13Z</time>
      </trkpt>
      <trkpt lat="47.27689" lon="1.37745">
        <ele>70.31</ele>
        <time>2015-08-16T16:08:29Z</time>
      </trkpt>
      <trkpt lat="47.2768" lon="1.37768">
        <ele>70.79</ele>
        <time>2015-08-16T16:08:33Z</time>
      </trkpt>
      <trkpt lat="47.27678" lon="1.37773">
        <ele>70.79</ele>
        <time>2015-08-16T16:08:34Z</time>
      </trkpt>
      <trkpt lat="47.27677" lon="1.37778">
        <ele>71.27</ele>
        <time>2015-08-16T16:08:35Z</time>
      </trkpt>
      <trkpt lat="47.27673" lon="1.37786">
        <ele>71.76</ele>
        <time>2015-08-16T16:08:37Z</time>
      </trkpt>
      <trkpt lat="47.27672" lon="1.37789">
        <ele>71.76</ele>
        <time>2015-08-16T16:08:38Z</time>
      </trkpt>
      <trkpt lat="47.2767" lon="1.37791">
        <ele>71.76</ele>
        <time>2015-08-16T16:08:39Z</time>
      </trkpt>
      <trkpt lat="47.27669" lon="1.37793">
        <ele>72.24</ele>
        <time>2015-08-16T16:08:40Z</time>
      </trkpt>
      <trkpt lat="47.27669" lon="1.37794">
        <ele>71.76</ele>
        <time>2015-08-16T16:08:41Z</time>
      </trkpt>
      <trkpt lat="47.27668" lon="1.37794">
        <ele>71.76</ele>
        <time>2015-08-16T16:08:44Z</time>
      </trkpt>
      <trkpt lat="47.27641" lon="1.37784">
        <ele>72.24</ele>
        <time>2015-08-16T16:08:57Z</time>
      </trkpt>
      <trkpt lat="47.27605" lon="1.37767">
        <ele>72.24</ele>
        <time>2015-08-16T16:09:11Z</time>
      </trkpt>
      <trkpt lat="47.27603" lon="1.37766">
        <ele>72.24</ele>
        <time>2015-08-16T16:09:12Z</time>
      </trkpt>
      <trkpt lat="47.27601" lon="1.37764">
        <ele>72.24</ele>
        <time>2015-08-16T16:09:13Z</time>
      </trkpt>
      <trkpt lat="47.276" lon="1.37764">
        <ele>72.24</ele>
        <time>2015-08-16T16:09:14Z</time>
      </trkpt>
      <trkpt lat="47.27598" lon="1.37764">
        <ele>72.24</ele>
        <time>2015-08-16T16:09:15Z</time>
      </trkpt>
      <trkpt lat="47.27597" lon="1.37764">
        <ele>72.24</ele>
        <time>2015-08-16T16:09:16Z</time>
      </trkpt>
      <trkpt lat="47.27596" lon="1.37765">
        <ele>71.76</ele>
        <time>2015-08-16T16:09:28Z</time>
      </trkpt>
      <trkpt lat="47.27594" lon="1.37769">
        <ele>71.27</ele>
        <time>2015-08-16T16:09:40Z</time>
      </trkpt>
      <trkpt lat="47.27595" lon="1.37795">
        <ele>70.31</ele>
        <time>2015-08-16T16:09:48Z</time>
      </trkpt>
      <trkpt lat="47.27596" lon="1.37799">
        <ele>70.31</ele>
        <time>2015-08-16T16:09:49Z</time>
      </trkpt>
      <trkpt lat="47.27596" lon="1.37803">
        <ele>69.83</ele>
        <time>2015-08-16T16:09:50Z</time>
      </trkpt>
      <trkpt lat="47.27597" lon="1.37807">
        <ele>69.83</ele>
        <time>2015-08-16T16:09:51Z</time>
      </trkpt>
      <trkpt lat="47.27597" lon="1.37812">
        <ele>69.83</ele>
        <time>2015-08-16T16:09:52Z</time>
      </trkpt>
      <trkpt lat="47.27598" lon="1.37818">
        <ele>69.83</ele>
        <time>2015-08-16T16:09:53Z</time>
      </trkpt>
      <trkpt lat="47.276" lon="1.37834">
        <ele>69.83</ele>
        <time>2015-08-16T16:09:56Z</time>
      </trkpt>
      <trkpt lat="47.27597" lon="1.37921">
        <ele>69.35</ele>
        <time>2015-08-16T16:10:13Z</time>
      </trkpt>
      <trkpt lat="47.27584" lon="1.37998">
        <ele>69.83</ele>
        <time>2015-08-16T16:10:29Z</time>
      </trkpt>
      <trkpt lat="47.27569" lon="1.38075">
        <ele>69.83</ele>
        <time>2015-08-16T16:10:45Z</time>
      </trkpt>
      <trkpt lat="47.27558" lon="1.38135">
        <ele>69.83</ele>
        <time>2015-08-16T16:10:58Z</time>
      </trkpt>
      <trkpt lat="47.27549" lon="1.38195">
        <ele>69.83</ele>
        <time>2015-08-16T16:11:12Z</time>
      </trkpt>
      <trkpt lat="47.27545" lon="1.38254">
        <ele>69.83</ele>
        <time>2015-08-16T16:11:26Z</time>
      </trkpt>
      <trkpt lat="47.27546" lon="1.38317">
        <ele>69.83</ele>
        <time>2015-08-16T16:11:40Z</time>
      </trkpt>
      <trkpt lat="47.27552" lon="1.38391">
        <ele>69.83</ele>
        <time>2015-08-16T16:11:57Z</time>
      </trkpt>
      <trkpt lat="47.27559" lon="1.38448">
        <ele>69.83</ele>
        <time>2015-08-16T16:12:09Z</time>
      </trkpt>
      <trkpt lat="47.27569" lon="1.38537">
        <ele>70.79</ele>
        <time>2015-08-16T16:12:23Z</time>
      </trkpt>
      <trkpt lat="47.27569" lon="1.38545">
        <ele>70.79</ele>
        <time>2015-08-16T16:12:24Z</time>
      </trkpt>
      <trkpt lat="47.27568" lon="1.38552">
        <ele>70.79</ele>
        <time>2015-08-16T16:12:25Z</time>
      </trkpt>
      <trkpt lat="47.27553" lon="1.38605">
        <ele>70.79</ele>
        <time>2015-08-16T16:12:33Z</time>
      </trkpt>
      <trkpt lat="47.27551" lon="1.38611">
        <ele>70.79</ele>
        <time>2015-08-16T16:12:34Z</time>
      </trkpt>
      <trkpt lat="47.27549" lon="1.38617">
        <ele>70.79</ele>
        <time>2015-08-16T16:12:35Z</time>
      </trkpt>
      <trkpt lat="47.27548" lon="1.38624">
        <ele>70.79</ele>
        <time>2015-08-16T16:12:36Z</time>
      </trkpt>
      <trkpt lat="47.2753" lon="1.38683">
        <ele>70.31</ele>
        <time>2015-08-16T16:12:49Z</time>
      </trkpt>
      <trkpt lat="47.27519" lon="1.38721">
        <ele>68.87</ele>
        <time>2015-08-16T16:13:04Z</time>
      </trkpt>
      <trkpt lat="47.27518" lon="1.38723">
        <ele>73.2</ele>
        <time>2015-08-16T16:13:05Z</time>
      </trkpt>
      <trkpt lat="47.27517" lon="1.38726">
        <ele>68.39</ele>
        <time>2015-08-16T16:13:06Z</time>
      </trkpt>
      <trkpt lat="47.27515" lon="1.3873">
        <ele>71.76</ele>
        <time>2015-08-16T16:13:08Z</time>
      </trkpt>
      <trkpt lat="47.27513" lon="1.38741">
        <ele>69.83</ele>
        <time>2015-08-16T16:13:12Z</time>
      </trkpt>
      <trkpt lat="47.27511" lon="1.38745">
        <ele>72.72</ele>
        <time>2015-08-16T16:13:14Z</time>
      </trkpt>
      <trkpt lat="47.27511" lon="1.38747">
        <ele>68.39</ele>
        <time>2015-08-16T16:13:15Z</time>
      </trkpt>
      <trkpt lat="47.27509" lon="1.38754">
        <ele>73.2</ele>
        <time>2015-08-16T16:13:18Z</time>
      </trkpt>
      <trkpt lat="47.27504" lon="1.38766">
        <ele>69.83</ele>
        <time>2015-08-16T16:13:23Z</time>
      </trkpt>
      <trkpt lat="47.27504" lon="1.38769">
        <ele>69.83</ele>
        <time>2015-08-16T16:13:24Z</time>
      </trkpt>
      <trkpt lat="47.27502" lon="1.38774">
        <ele>73.2</ele>
        <time>2015-08-16T16:13:26Z</time>
      </trkpt>
      <trkpt lat="47.27502" lon="1.38778">
        <ele>71.27</ele>
        <time>2015-08-16T16:13:27Z</time>
      </trkpt>
      <trkpt lat="47.27501" lon="1.38781">
        <ele>67.91</ele>
        <time>2015-08-16T16:13:28Z</time>
      </trkpt>
      <trkpt lat="47.275" lon="1.38784">
        <ele>70.79</ele>
        <time>2015-08-16T16:13:29Z</time>
      </trkpt>
      <trkpt lat="47.27499" lon="1.38787">
        <ele>73.68</ele>
        <time>2015-08-16T16:13:30Z</time>
      </trkpt>
      <trkpt lat="47.27498" lon="1.3879">
        <ele>68.87</ele>
        <time>2015-08-16T16:13:31Z</time>
      </trkpt>
      <trkpt lat="47.27497" lon="1.38793">
        <ele>68.87</ele>
        <time>2015-08-16T16:13:32Z</time>
      </trkpt>
      <trkpt lat="47.27497" lon="1.38795">
        <ele>71.27</ele>
        <time>2015-08-16T16:13:33Z</time>
      </trkpt>
      <trkpt lat="47.27496" lon="1.38798">
        <ele>69.35</ele>
        <time>2015-08-16T16:13:34Z</time>
      </trkpt>
      <trkpt lat="47.27496" lon="1.388">
        <ele>70.79</ele>
        <time>2015-08-16T16:13:35Z</time>
      </trkpt>
      <trkpt lat="47.27495" lon="1.38803">
        <ele>70.79</ele>
        <time>2015-08-16T16:13:36Z</time>
      </trkpt>
      <trkpt lat="47.27495" lon="1.38805">
        <ele>70.79</ele>
        <time>2015-08-16T16:13:37Z</time>
      </trkpt>
      <trkpt lat="47.27495" lon="1.38808">
        <ele>70.79</ele>
        <time>2015-08-16T16:13:38Z</time>
      </trkpt>
      <trkpt lat="47.27496" lon="1.38811">
        <ele>70.79</ele>
        <time>2015-08-16T16:13:39Z</time>
      </trkpt>
      <trkpt lat="47.27496" lon="1.38814">
        <ele>70.79</ele>
        <time>2015-08-16T16:13:40Z</time>
      </trkpt>
      <trkpt lat="47.27496" lon="1.38817">
        <ele>70.79</ele>
        <time>2015-08-16T16:13:41Z</time>
      </trkpt>
      <trkpt lat="47.27478" lon="1.38837">
        <ele>70.31</ele>
        <time>2015-08-16T16:13:53Z</time>
      </trkpt>
      <trkpt lat="47.2746" lon="1.38887">
        <ele>69.83</ele>
        <time>2015-08-16T16:14:08Z</time>
      </trkpt>
      <trkpt lat="47.27451" lon="1.38923">
        <ele>69.83</ele>
        <time>2015-08-16T16:14:22Z</time>
      </trkpt>
      <trkpt lat="47.27442" lon="1.38924">
        <ele>69.83</ele>
        <time>2015-08-16T16:14:26Z</time>
      </trkpt>
      <trkpt lat="47.2741" lon="1.38915">
        <ele>69.83</ele>
        <time>2015-08-16T16:14:38Z</time>
      </trkpt>
      <trkpt lat="47.27408" lon="1.38913">
        <ele>69.83</ele>
        <time>2015-08-16T16:14:39Z</time>
      </trkpt>
      <trkpt lat="47.27405" lon="1.38912">
        <ele>69.83</ele>
        <time>2015-08-16T16:14:40Z</time>
      </trkpt>
      <trkpt lat="47.27403" lon="1.38912">
        <ele>70.31</ele>
        <time>2015-08-16T16:14:41Z</time>
      </trkpt>
      <trkpt lat="47.27401" lon="1.38912">
        <ele>70.31</ele>
        <time>2015-08-16T16:14:42Z</time>
      </trkpt>
      <trkpt lat="47.27398" lon="1.38914">
        <ele>71.27</ele>
        <time>2015-08-16T16:14:43Z</time>
      </trkpt>
      <trkpt lat="47.27396" lon="1.38915">
        <ele>70.31</ele>
        <time>2015-08-16T16:14:44Z</time>
      </trkpt>
      <trkpt lat="47.27394" lon="1.38917">
        <ele>70.31</ele>
        <time>2015-08-16T16:14:45Z</time>
      </trkpt>
      <trkpt lat="47.27393" lon="1.38919">
        <ele>70.31</ele>
        <time>2015-08-16T16:14:46Z</time>
      </trkpt>
      <trkpt lat="47.27391" lon="1.38925">
        <ele>70.79</ele>
        <time>2015-08-16T16:14:53Z</time>
      </trkpt>
      <trkpt lat="47.27389" lon="1.38924">
        <ele>70.31</ele>
        <time>2015-08-16T16:15:24Z</time>
      </trkpt>
      <trkpt lat="47.27388" lon="1.38923">
        <ele>71.27</ele>
        <time>2015-08-16T16:15:50Z</time>
      </trkpt>
      <trkpt lat="47.27383" lon="1.3894">
        <ele>71.76</ele>
        <time>2015-08-16T16:16:04Z</time>
      </trkpt>
      <trkpt lat="47.27379" lon="1.38961">
        <ele>71.27</ele>
        <time>2015-08-16T16:16:16Z</time>
      </trkpt>
      <trkpt lat="47.27376" lon="1.38996">
        <ele>69.83</ele>
        <time>2015-08-16T16:16:27Z</time>
      </trkpt>
      <trkpt lat="47.27401" lon="1.39066">
        <ele>70.31</ele>
        <time>2015-08-16T16:16:41Z</time>
      </trkpt>
      <trkpt lat="47.27403" lon="1.39083">
        <ele>71.27</ele>
        <time>2015-08-16T16:16:44Z</time>
      </trkpt>
      <trkpt lat="47.27393" lon="1.39156">
        <ele>70.79</ele>
        <time>2015-08-16T16:16:58Z</time>
      </trkpt>
      <trkpt lat="47.27389" lon="1.39181">
        <ele>71.27</ele>
        <time>2015-08-16T16:17:09Z</time>
      </trkpt>
      <trkpt lat="47.27389" lon="1.39181">
        <ele>75.6</ele>
        <time>2015-08-16T16:17:10Z</time>
      </trkpt>
      <trkpt lat="47.27389" lon="1.39181">
        <ele>65.03</ele>
        <time>2015-08-16T16:17:11Z</time>
      </trkpt>
      <trkpt lat="47.27389" lon="1.39181">
        <ele>71.27</ele>
        <time>2015-08-16T16:17:17Z</time>
      </trkpt>
      <trkpt lat="47.2739" lon="1.39182">
        <ele>71.27</ele>
        <time>2015-08-16T16:17:39Z</time>
      </trkpt>
      <trkpt lat="47.2739" lon="1.39185">
        <ele>71.27</ele>
        <time>2015-08-16T16:17:53Z</time>
      </trkpt>
      <trkpt lat="47.27376" lon="1.39232">
        <ele>71.76</ele>
        <time>2015-08-16T16:18:06Z</time>
      </trkpt>
      <trkpt lat="47.27372" lon="1.39241">
        <ele>71.27</ele>
        <time>2015-08-16T16:18:10Z</time>
      </trkpt>
      <trkpt lat="47.27372" lon="1.3925">
        <ele>71.76</ele>
        <time>2015-08-16T16:18:15Z</time>
      </trkpt>
      <trkpt lat="47.27373" lon="1.39251">
        <ele>71.76</ele>
        <time>2015-08-16T16:18:23Z</time>
      </trkpt>
      <trkpt lat="47.27375" lon="1.39258">
        <ele>71.76</ele>
        <time>2015-08-16T16:18:36Z</time>
      </trkpt>
      <trkpt lat="47.27376" lon="1.39259">
        <ele>71.76</ele>
        <time>2015-08-16T16:18:37Z</time>
      </trkpt>
      <trkpt lat="47.27384" lon="1.39259">
        <ele>72.72</ele>
        <time>2015-08-16T16:18:48Z</time>
      </trkpt>
      <trkpt lat="47.27384" lon="1.39259">
        <ele>71.76</ele>
        <time>2015-08-16T16:18:49Z</time>
      </trkpt>
      <trkpt lat="47.27402" lon="1.39221">
        <ele>72.24</ele>
        <time>2015-08-16T16:19:05Z</time>
      </trkpt>
      <trkpt lat="47.27408" lon="1.39194">
        <ele>72.24</ele>
        <time>2015-08-16T16:19:14Z</time>
      </trkpt>
      <trkpt lat="47.27411" lon="1.39184">
        <ele>72.24</ele>
        <time>2015-08-16T16:19:19Z</time>
      </trkpt>
      <trkpt lat="47.27419" lon="1.39178">
        <ele>72.24</ele>
        <time>2015-08-16T16:19:25Z</time>
      </trkpt>
      <trkpt lat="47.2742" lon="1.39179">
        <ele>72.24</ele>
        <time>2015-08-16T16:19:31Z</time>
      </trkpt>
      <trkpt lat="47.2742" lon="1.39179">
        <ele>75.12</ele>
        <time>2015-08-16T16:19:33Z</time>
      </trkpt>
      <trkpt lat="47.2742" lon="1.39179">
        <ele>68.39</ele>
        <time>2015-08-16T16:19:34Z</time>
      </trkpt>
      <trkpt lat="47.2742" lon="1.39179">
        <ele>72.24</ele>
        <time>2015-08-16T16:19:39Z</time>
      </trkpt>
      <trkpt lat="47.27411" lon="1.39205">
        <ele>72.24</ele>
        <time>2015-08-16T16:19:54Z</time>
      </trkpt>
      <trkpt lat="47.27393" lon="1.39279">
        <ele>72.24</ele>
        <time>2015-08-16T16:20:11Z</time>
      </trkpt>
      <trkpt lat="47.27377" lon="1.39351">
        <ele>71.76</ele>
        <time>2015-08-16T16:20:25Z</time>
      </trkpt>
      <trkpt lat="47.27366" lon="1.39432">
        <ele>71.76</ele>
        <time>2015-08-16T16:20:40Z</time>
      </trkpt>
      <trkpt lat="47.2736" lon="1.3953">
        <ele>71.76</ele>
        <time>2015-08-16T16:20:57Z</time>
      </trkpt>
      <trkpt lat="47.27359" lon="1.39595">
        <ele>71.76</ele>
        <time>2015-08-16T16:21:09Z</time>
      </trkpt>
      <trkpt lat="47.2736" lon="1.39679">
        <ele>72.24</ele>
        <time>2015-08-16T16:21:25Z</time>
      </trkpt>
      <trkpt lat="47.2736" lon="1.39752">
        <ele>73.68</ele>
        <time>2015-08-16T16:21:39Z</time>
      </trkpt>
      <trkpt lat="47.2736" lon="1.39757">
        <ele>70.31</ele>
        <time>2015-08-16T16:21:40Z</time>
      </trkpt>
      <trkpt lat="47.27359" lon="1.39761">
        <ele>71.76</ele>
        <time>2015-08-16T16:21:41Z</time>
      </trkpt>
      <trkpt lat="47.27358" lon="1.39785">
        <ele>71.76</ele>
        <time>2015-08-16T16:21:46Z</time>
      </trkpt>
      <trkpt lat="47.27356" lon="1.39826">
        <ele>73.68</ele>
        <time>2015-08-16T16:21:57Z</time>
      </trkpt>
      <trkpt lat="47.27356" lon="1.3983">
        <ele>69.83</ele>
        <time>2015-08-16T16:21:58Z</time>
      </trkpt>
      <trkpt lat="47.27355" lon="1.39877">
        <ele>72.24</ele>
        <time>2015-08-16T16:22:10Z</time>
      </trkpt>
      <trkpt lat="47.27354" lon="1.39942">
        <ele>72.24</ele>
        <time>2015-08-16T16:22:26Z</time>
      </trkpt>
      <trkpt lat="47.27354" lon="1.39945">
        <ele>72.72</ele>
        <time>2015-08-16T16:22:27Z</time>
      </trkpt>
      <trkpt lat="47.27354" lon="1.39948">
        <ele>72.72</ele>
        <time>2015-08-16T16:22:28Z</time>
      </trkpt>
      <trkpt lat="47.27354" lon="1.39951">
        <ele>72.72</ele>
        <time>2015-08-16T16:22:29Z</time>
      </trkpt>
      <trkpt lat="47.27354" lon="1.39955">
        <ele>72.72</ele>
        <time>2015-08-16T16:22:30Z</time>
      </trkpt>
      <trkpt lat="47.27354" lon="1.39958">
        <ele>72.24</ele>
        <time>2015-08-16T16:22:31Z</time>
      </trkpt>
      <trkpt lat="47.27353" lon="1.39961">
        <ele>72.24</ele>
        <time>2015-08-16T16:22:32Z</time>
      </trkpt>
      <trkpt lat="47.27353" lon="1.39965">
        <ele>72.72</ele>
        <time>2015-08-16T16:22:33Z</time>
      </trkpt>
      <trkpt lat="47.27353" lon="1.39967">
        <ele>72.72</ele>
        <time>2015-08-16T16:22:34Z</time>
      </trkpt>
      <trkpt lat="47.27356" lon="1.39971">
        <ele>72.24</ele>
        <time>2015-08-16T16:22:36Z</time>
      </trkpt>
      <trkpt lat="47.27359" lon="1.39972">
        <ele>72.24</ele>
        <time>2015-08-16T16:22:38Z</time>
      </trkpt>
      <trkpt lat="47.27385" lon="1.3999">
        <ele>71.27</ele>
        <time>2015-08-16T16:22:52Z</time>
      </trkpt>
      <trkpt lat="47.2742" lon="1.40014">
        <ele>71.27</ele>
        <time>2015-08-16T16:23:04Z</time>
      </trkpt>
      <trkpt lat="47.27454" lon="1.40044">
        <ele>72.72</ele>
        <time>2015-08-16T16:23:15Z</time>
      </trkpt>
      <trkpt lat="47.27456" lon="1.40045">
        <ele>72.72</ele>
        <time>2015-08-16T16:23:16Z</time>
      </trkpt>
      <trkpt lat="47.27461" lon="1.40044">
        <ele>72.72</ele>
        <time>2015-08-16T16:23:24Z</time>
      </trkpt>
      <trkpt lat="47.27461" lon="1.40044">
        <ele>72.72</ele>
        <time>2015-08-16T16:23:26Z</time>
      </trkpt>
      <trkpt lat="47.27461" lon="1.40044">
        <ele>72.72</ele>
        <time>2015-08-16T16:23:50Z</time>
      </trkpt>
      <trkpt lat="47.2746" lon="1.40045">
        <ele>72.72</ele>
        <time>2015-08-16T16:24:29Z</time>
      </trkpt>
      <trkpt lat="47.27461" lon="1.40044">
        <ele>72.24</ele>
        <time>2015-08-16T16:25:02Z</time>
      </trkpt>
      <trkpt lat="47.27461" lon="1.40044">
        <ele>72.24</ele>
        <time>2015-08-16T16:25:33Z</time>
      </trkpt>
      <trkpt lat="47.27462" lon="1.40043">
        <ele>72.24</ele>
        <time>2015-08-16T16:26:06Z</time>
      </trkpt>
      <trkpt lat="47.27462" lon="1.40043">
        <ele>72.24</ele>
        <time>2015-08-16T16:26:35Z</time>
      </trkpt>
      <trkpt lat="47.27462" lon="1.40042">
        <ele>72.24</ele>
        <time>2015-08-16T16:26:56Z</time>
      </trkpt>
      <trkpt lat="47.27461" lon="1.40044">
        <ele>72.24</ele>
        <time>2015-08-16T16:27:23Z</time>
      </trkpt>
      <trkpt lat="47.27461" lon="1.40044">
        <ele>72.24</ele>
        <time>2015-08-16T16:27:41Z</time>
      </trkpt>
      <trkpt lat="47.2746" lon="1.40044">
        <ele>72.24</ele>
        <time>2015-08-16T16:28:15Z</time>
      </trkpt>
      <trkpt lat="47.2746" lon="1.40044">
        <ele>72.24</ele>
        <time>2015-08-16T16:28:51Z</time>
      </trkpt>
      <trkpt lat="47.2746" lon="1.40043">
        <ele>72.24</ele>
        <time>2015-08-16T16:29:22Z</time>
      </trkpt>
      <trkpt lat="47.2746" lon="1.40044">
        <ele>72.24</ele>
        <time>2015-08-16T16:29:48Z</time>
      </trkpt>
      <trkpt lat="47.27459" lon="1.40044">
        <ele>72.24</ele>
        <time>2015-08-16T16:30:28Z</time>
      </trkpt>
      <trkpt lat="47.27458" lon="1.40043">
        <ele>72.24</ele>
        <time>2015-08-16T16:31:01Z</time>
      </trkpt>
      <trkpt lat="47.27459" lon="1.40042">
        <ele>72.24</ele>
        <time>2015-08-16T16:31:34Z</time>
      </trkpt>
      <trkpt lat="47.2746" lon="1.40043">
        <ele>72.24</ele>
        <time>2015-08-16T16:32:03Z</time>
      </trkpt>
      <trkpt lat="47.2746" lon="1.40043">
        <ele>71.76</ele>
        <time>2015-08-16T16:32:32Z</time>
      </trkpt>
      <trkpt lat="47.2746" lon="1.40043">
        <ele>71.76</ele>
        <time>2015-08-16T16:33:06Z</time>
      </trkpt>
      <trkpt lat="47.2746" lon="1.40044">
        <ele>71.76</ele>
        <time>2015-08-16T16:33:35Z</time>
      </trkpt>
      <trkpt lat="47.2746" lon="1.40048">
        <ele>72.24</ele>
        <time>2015-08-16T16:33:46Z</time>
      </trkpt>
      <trkpt lat="47.27463" lon="1.40052">
        <ele>72.24</ele>
        <time>2015-08-16T16:33:51Z</time>
      </trkpt>
      <trkpt lat="47.27464" lon="1.40051">
        <ele>72.24</ele>
        <time>2015-08-16T16:34:13Z</time>
      </trkpt>
      <trkpt lat="47.27465" lon="1.40051">
        <ele>72.24</ele>
        <time>2015-08-16T16:34:40Z</time>
      </trkpt>
      <trkpt lat="47.27465" lon="1.40051">
        <ele>72.24</ele>
        <time>2015-08-16T16:35:09Z</time>
      </trkpt>
      <trkpt lat="47.27465" lon="1.40051">
        <ele>74.16</ele>
        <time>2015-08-16T16:35:12Z</time>
      </trkpt>
      <trkpt lat="47.27465" lon="1.4005">
        <ele>70.79</ele>
        <time>2015-08-16T16:35:34Z</time>
      </trkpt>
      <trkpt lat="47.27465" lon="1.4005">
        <ele>74.16</ele>
        <time>2015-08-16T16:35:37Z</time>
      </trkpt>
      <trkpt lat="47.27465" lon="1.4005">
        <ele>69.83</ele>
        <time>2015-08-16T16:35:38Z</time>
      </trkpt>
      <trkpt lat="47.27465" lon="1.4005">
        <ele>76.56</ele>
        <time>2015-08-16T16:35:39Z</time>
      </trkpt>
      <trkpt lat="47.27465" lon="1.4005">
        <ele>71.27</ele>
        <time>2015-08-16T16:35:41Z</time>
      </trkpt>
      <trkpt lat="47.27465" lon="1.4005">
        <ele>76.08</ele>
        <time>2015-08-16T16:35:42Z</time>
      </trkpt>
      <trkpt lat="47.27465" lon="1.4005">
        <ele>69.35</ele>
        <time>2015-08-16T16:35:43Z</time>
      </trkpt>
      <trkpt lat="47.27465" lon="1.40049">
        <ele>72.24</ele>
        <time>2015-08-16T16:36:07Z</time>
      </trkpt>
      <trkpt lat="47.27465" lon="1.4005">
        <ele>72.24</ele>
        <time>2015-08-16T16:36:28Z</time>
      </trkpt>
      <trkpt lat="47.27468" lon="1.40053">
        <ele>72.24</ele>
        <time>2015-08-16T16:36:45Z</time>
      </trkpt>
      <trkpt lat="47.27471" lon="1.40054">
        <ele>72.24</ele>
        <time>2015-08-16T16:36:59Z</time>
      </trkpt>
      <trkpt lat="47.27472" lon="1.40054">
        <ele>72.24</ele>
        <time>2015-08-16T16:37:00Z</time>
      </trkpt>
      <trkpt lat="47.27472" lon="1.40056">
        <ele>72.24</ele>
        <time>2015-08-16T16:37:01Z</time>
      </trkpt>
      <trkpt lat="47.27489" lon="1.40065">
        <ele>71.76</ele>
        <time>2015-08-16T16:37:09Z</time>
      </trkpt>
      <trkpt lat="47.2754" lon="1.40108">
        <ele>72.72</ele>
        <time>2015-08-16T16:37:27Z</time>
      </trkpt>
      <trkpt lat="47.27571" lon="1.40136">
        <ele>73.2</ele>
        <time>2015-08-16T16:37:39Z</time>
      </trkpt>
      <trkpt lat="47.27572" lon="1.40137">
        <ele>73.68</ele>
        <time>2015-08-16T16:37:40Z</time>
      </trkpt>
      <trkpt lat="47.2757" lon="1.40148">
        <ele>73.68</ele>
        <time>2015-08-16T16:37:45Z</time>
      </trkpt>
      <trkpt lat="47.27569" lon="1.40151">
        <ele>73.68</ele>
        <time>2015-08-16T16:37:46Z</time>
      </trkpt>
      <trkpt lat="47.27568" lon="1.40155">
        <ele>73.68</ele>
        <time>2015-08-16T16:37:47Z</time>
      </trkpt>
      <trkpt lat="47.27566" lon="1.40159">
        <ele>73.68</ele>
        <time>2015-08-16T16:37:48Z</time>
      </trkpt>
      <trkpt lat="47.27565" lon="1.40163">
        <ele>73.68</ele>
        <time>2015-08-16T16:37:49Z</time>
      </trkpt>
      <trkpt lat="47.27563" lon="1.40167">
        <ele>73.68</ele>
        <time>2015-08-16T16:37:50Z</time>
      </trkpt>
      <trkpt lat="47.27552" lon="1.40194">
        <ele>73.68</ele>
        <time>2015-08-16T16:37:57Z</time>
      </trkpt>
      <trkpt lat="47.27527" lon="1.4025">
        <ele>73.68</ele>
        <time>2015-08-16T16:38:11Z</time>
      </trkpt>
      <trkpt lat="47.27497" lon="1.40323">
        <ele>74.16</ele>
        <time>2015-08-16T16:38:27Z</time>
      </trkpt>
      <trkpt lat="47.27472" lon="1.4038">
        <ele>74.64</ele>
        <time>2015-08-16T16:38:41Z</time>
      </trkpt>
      <trkpt lat="47.2745" lon="1.40435">
        <ele>74.64</ele>
        <time>2015-08-16T16:38:56Z</time>
      </trkpt>
      <trkpt lat="47.27428" lon="1.40487">
        <ele>74.64</ele>
        <time>2015-08-16T16:39:09Z</time>
      </trkpt>
      <trkpt lat="47.274" lon="1.40553">
        <ele>75.12</ele>
        <time>2015-08-16T16:39:24Z</time>
      </trkpt>
      <trkpt lat="47.27398" lon="1.40557">
        <ele>75.12</ele>
        <time>2015-08-16T16:39:25Z</time>
      </trkpt>
      <trkpt lat="47.27396" lon="1.40562">
        <ele>75.12</ele>
        <time>2015-08-16T16:39:26Z</time>
      </trkpt>
      <trkpt lat="47.27394" lon="1.40567">
        <ele>75.12</ele>
        <time>2015-08-16T16:39:27Z</time>
      </trkpt>
      <trkpt lat="47.27391" lon="1.40572">
        <ele>75.12</ele>
        <time>2015-08-16T16:39:28Z</time>
      </trkpt>
      <trkpt lat="47.2739" lon="1.40577">
        <ele>75.12</ele>
        <time>2015-08-16T16:39:29Z</time>
      </trkpt>
      <trkpt lat="47.27388" lon="1.40583">
        <ele>75.12</ele>
        <time>2015-08-16T16:39:30Z</time>
      </trkpt>
      <trkpt lat="47.27386" lon="1.40588">
        <ele>75.12</ele>
        <time>2015-08-16T16:39:31Z</time>
      </trkpt>
      <trkpt lat="47.27379" lon="1.40603">
        <ele>75.6</ele>
        <time>2015-08-16T16:39:34Z</time>
      </trkpt>
      <trkpt lat="47.27349" lon="1.40674">
        <ele>75.6</ele>
        <time>2015-08-16T16:39:49Z</time>
      </trkpt>
      <trkpt lat="47.27322" lon="1.40737">
        <ele>75.6</ele>
        <time>2015-08-16T16:40:04Z</time>
      </trkpt>
      <trkpt lat="47.2729" lon="1.40807">
        <ele>74.64</ele>
        <time>2015-08-16T16:40:21Z</time>
      </trkpt>
      <trkpt lat="47.27258" lon="1.40884">
        <ele>74.16</ele>
        <time>2015-08-16T16:40:38Z</time>
      </trkpt>
      <trkpt lat="47.27225" lon="1.4096">
        <ele>74.16</ele>
        <time>2015-08-16T16:40:54Z</time>
      </trkpt>
      <trkpt lat="47.27191" lon="1.41038">
        <ele>73.2</ele>
        <time>2015-08-16T16:41:11Z</time>
      </trkpt>
      <trkpt lat="47.27162" lon="1.4111">
        <ele>72.72</ele>
        <time>2015-08-16T16:41:26Z</time>
      </trkpt>
      <trkpt lat="47.27135" lon="1.41178">
        <ele>72.72</ele>
        <time>2015-08-16T16:41:42Z</time>
      </trkpt>
      <trkpt lat="47.27109" lon="1.41248">
        <ele>72.72</ele>
        <time>2015-08-16T16:41:59Z</time>
      </trkpt>
      <trkpt lat="47.27095" lon="1.41288">
        <ele>73.2</ele>
        <time>2015-08-16T16:42:11Z</time>
      </trkpt>
      <trkpt lat="47.27093" lon="1.41291">
        <ele>73.2</ele>
        <time>2015-08-16T16:42:12Z</time>
      </trkpt>
      <trkpt lat="47.27092" lon="1.41294">
        <ele>73.2</ele>
        <time>2015-08-16T16:42:13Z</time>
      </trkpt>
      <trkpt lat="47.2709" lon="1.41297">
        <ele>73.2</ele>
        <time>2015-08-16T16:42:14Z</time>
      </trkpt>
      <trkpt lat="47.27089" lon="1.41299">
        <ele>73.2</ele>
        <time>2015-08-16T16:42:15Z</time>
      </trkpt>
      <trkpt lat="47.27087" lon="1.413">
        <ele>73.2</ele>
        <time>2015-08-16T16:42:16Z</time>
      </trkpt>
      <trkpt lat="47.2708" lon="1.41301">
        <ele>73.68</ele>
        <time>2015-08-16T16:42:20Z</time>
      </trkpt>
      <trkpt lat="47.27074" lon="1.41296">
        <ele>73.68</ele>
        <time>2015-08-16T16:42:23Z</time>
      </trkpt>
      <trkpt lat="47.27071" lon="1.41294">
        <ele>74.16</ele>
        <time>2015-08-16T16:42:24Z</time>
      </trkpt>
      <trkpt lat="47.27069" lon="1.41292">
        <ele>74.16</ele>
        <time>2015-08-16T16:42:25Z</time>
      </trkpt>
      <trkpt lat="47.27067" lon="1.41291">
        <ele>74.64</ele>
        <time>2015-08-16T16:42:26Z</time>
      </trkpt>
      <trkpt lat="47.27065" lon="1.4129">
        <ele>74.64</ele>
        <time>2015-08-16T16:42:27Z</time>
      </trkpt>
      <trkpt lat="47.27063" lon="1.41289">
        <ele>74.16</ele>
        <time>2015-08-16T16:42:28Z</time>
      </trkpt>
      <trkpt lat="47.27062" lon="1.41288">
        <ele>74.64</ele>
        <time>2015-08-16T16:42:29Z</time>
      </trkpt>
      <trkpt lat="47.27061" lon="1.41287">
        <ele>74.16</ele>
        <time>2015-08-16T16:42:30Z</time>
      </trkpt>
      <trkpt lat="47.27058" lon="1.41286">
        <ele>74.64</ele>
        <time>2015-08-16T16:42:48Z</time>
      </trkpt>
      <trkpt lat="47.27058" lon="1.41287">
        <ele>74.64</ele>
        <time>2015-08-16T16:43:14Z</time>
      </trkpt>
      <trkpt lat="47.27058" lon="1.41287">
        <ele>77.52</ele>
        <time>2015-08-16T16:43:15Z</time>
      </trkpt>
      <trkpt lat="47.27058" lon="1.41286">
        <ele>73.2</ele>
        <time>2015-08-16T16:43:39Z</time>
      </trkpt>
      <trkpt lat="47.27057" lon="1.41289">
        <ele>74.64</ele>
        <time>2015-08-16T16:43:56Z</time>
      </trkpt>
      <trkpt lat="47.27045" lon="1.41323">
        <ele>74.64</ele>
        <time>2015-08-16T16:44:11Z</time>
      </trkpt>
      <trkpt lat="47.27038" lon="1.41335">
        <ele>74.64</ele>
        <time>2015-08-16T16:44:16Z</time>
      </trkpt>
      <trkpt lat="47.27027" lon="1.41369">
        <ele>74.16</ele>
        <time>2015-08-16T16:44:30Z</time>
      </trkpt>
      <trkpt lat="47.27015" lon="1.41403">
        <ele>74.16</ele>
        <time>2015-08-16T16:44:44Z</time>
      </trkpt>
      <trkpt lat="47.27005" lon="1.41432">
        <ele>74.16</ele>
        <time>2015-08-16T16:44:56Z</time>
      </trkpt>
      <trkpt lat="47.26995" lon="1.4147">
        <ele>74.64</ele>
        <time>2015-08-16T16:45:11Z</time>
      </trkpt>
      <trkpt lat="47.26983" lon="1.41503">
        <ele>74.64</ele>
        <time>2015-08-16T16:45:24Z</time>
      </trkpt>
      <trkpt lat="47.26966" lon="1.41551">
        <ele>74.64</ele>
        <time>2015-08-16T16:45:40Z</time>
      </trkpt>
      <trkpt lat="47.26953" lon="1.41599">
        <ele>74.64</ele>
        <time>2015-08-16T16:45:57Z</time>
      </trkpt>
      <trkpt lat="47.26937" lon="1.41647">
        <ele>74.64</ele>
        <time>2015-08-16T16:46:13Z</time>
      </trkpt>
      <trkpt lat="47.26916" lon="1.41676">
        <ele>75.12</ele>
        <time>2015-08-16T16:46:27Z</time>
      </trkpt>
      <trkpt lat="47.26914" lon="1.41678">
        <ele>75.12</ele>
        <time>2015-08-16T16:46:28Z</time>
      </trkpt>
      <trkpt lat="47.26912" lon="1.41679">
        <ele>75.12</ele>
        <time>2015-08-16T16:46:29Z</time>
      </trkpt>
      <trkpt lat="47.26899" lon="1.41708">
        <ele>74.64</ele>
        <time>2015-08-16T16:46:42Z</time>
      </trkpt>
      <trkpt lat="47.26884" lon="1.41746">
        <ele>74.64</ele>
        <time>2015-08-16T16:46:57Z</time>
      </trkpt>
      <trkpt lat="47.2687" lon="1.4178">
        <ele>74.64</ele>
        <time>2015-08-16T16:47:12Z</time>
      </trkpt>
      <trkpt lat="47.26856" lon="1.41816">
        <ele>74.64</ele>
        <time>2015-08-16T16:47:27Z</time>
      </trkpt>
      <trkpt lat="47.26855" lon="1.41818">
        <ele>74.64</ele>
        <time>2015-08-16T16:47:28Z</time>
      </trkpt>
      <trkpt lat="47.26849" lon="1.41831">
        <ele>74.64</ele>
        <time>2015-08-16T16:47:33Z</time>
      </trkpt>
      <trkpt lat="47.2683" lon="1.41877">
        <ele>74.64</ele>
        <time>2015-08-16T16:47:49Z</time>
      </trkpt>
      <trkpt lat="47.26816" lon="1.41922">
        <ele>75.12</ele>
        <time>2015-08-16T16:48:05Z</time>
      </trkpt>
      <trkpt lat="47.26815" lon="1.41925">
        <ele>75.12</ele>
        <time>2015-08-16T16:48:06Z</time>
      </trkpt>
      <trkpt lat="47.26814" lon="1.41927">
        <ele>74.64</ele>
        <time>2015-08-16T16:48:07Z</time>
      </trkpt>
      <trkpt lat="47.26809" lon="1.41949">
        <ele>75.12</ele>
        <time>2015-08-16T16:48:15Z</time>
      </trkpt>
      <trkpt lat="47.26801" lon="1.41987">
        <ele>75.12</ele>
        <time>2015-08-16T16:48:28Z</time>
      </trkpt>
      <trkpt lat="47.26791" lon="1.42028">
        <ele>75.12</ele>
        <time>2015-08-16T16:48:41Z</time>
      </trkpt>
      <trkpt lat="47.2679" lon="1.4203">
        <ele>75.12</ele>
        <time>2015-08-16T16:48:42Z</time>
      </trkpt>
      <trkpt lat="47.26786" lon="1.42053">
        <ele>75.12</ele>
        <time>2015-08-16T16:48:50Z</time>
      </trkpt>
      <trkpt lat="47.26776" lon="1.42098">
        <ele>74.64</ele>
        <time>2015-08-16T16:49:06Z</time>
      </trkpt>
      <trkpt lat="47.26766" lon="1.42146">
        <ele>75.12</ele>
        <time>2015-08-16T16:49:22Z</time>
      </trkpt>
      <trkpt lat="47.26762" lon="1.42187">
        <ele>75.12</ele>
        <time>2015-08-16T16:49:36Z</time>
      </trkpt>
      <trkpt lat="47.26754" lon="1.42241">
        <ele>75.6</ele>
        <time>2015-08-16T16:49:52Z</time>
      </trkpt>
      <trkpt lat="47.26749" lon="1.42287">
        <ele>77.52</ele>
        <time>2015-08-16T16:50:02Z</time>
      </trkpt>
      <trkpt lat="47.26752" lon="1.42293">
        <ele>77.52</ele>
        <time>2015-08-16T16:50:06Z</time>
      </trkpt>
      <trkpt lat="47.26753" lon="1.42294">
        <ele>77.52</ele>
        <time>2015-08-16T16:50:08Z</time>
      </trkpt>
      <trkpt lat="47.26756" lon="1.42294">
        <ele>77.52</ele>
        <time>2015-08-16T16:50:29Z</time>
      </trkpt>
      <trkpt lat="47.26758" lon="1.42298">
        <ele>77.52</ele>
        <time>2015-08-16T16:50:48Z</time>
      </trkpt>
      <trkpt lat="47.26758" lon="1.42298">
        <ele>77.52</ele>
        <time>2015-08-16T16:51:14Z</time>
      </trkpt>
      <trkpt lat="47.26756" lon="1.42302">
        <ele>77.52</ele>
        <time>2015-08-16T16:51:33Z</time>
      </trkpt>
      <trkpt lat="47.26755" lon="1.42314">
        <ele>77.52</ele>
        <time>2015-08-16T16:51:45Z</time>
      </trkpt>
      <trkpt lat="47.26756" lon="1.42315">
        <ele>77.04</ele>
        <time>2015-08-16T16:52:09Z</time>
      </trkpt>
      <trkpt lat="47.26757" lon="1.42316">
        <ele>77.52</ele>
        <time>2015-08-16T16:52:36Z</time>
      </trkpt>
      <trkpt lat="47.26765" lon="1.42301">
        <ele>77.52</ele>
        <time>2015-08-16T16:52:49Z</time>
      </trkpt>
      <trkpt lat="47.2679" lon="1.42306">
        <ele>78.97</ele>
        <time>2015-08-16T16:52:58Z</time>
      </trkpt>
      <trkpt lat="47.26798" lon="1.42309">
        <ele>79.45</ele>
        <time>2015-08-16T16:53:01Z</time>
      </trkpt>
      <trkpt lat="47.26799" lon="1.42311">
        <ele>79.93</ele>
        <time>2015-08-16T16:53:02Z</time>
      </trkpt>
      <trkpt lat="47.268" lon="1.42313">
        <ele>79.93</ele>
        <time>2015-08-16T16:53:03Z</time>
      </trkpt>
      <trkpt lat="47.268" lon="1.42345">
        <ele>80.41</ele>
        <time>2015-08-16T16:53:09Z</time>
      </trkpt>
      <trkpt lat="47.26799" lon="1.42357">
        <ele>80.41</ele>
        <time>2015-08-16T16:53:11Z</time>
      </trkpt>
      <trkpt lat="47.26798" lon="1.42379">
        <ele>80.41</ele>
        <time>2015-08-16T16:53:15Z</time>
      </trkpt>
      <trkpt lat="47.2679" lon="1.42485">
        <ele>80.41</ele>
        <time>2015-08-16T16:53:34Z</time>
      </trkpt>
      <trkpt lat="47.26784" lon="1.42561">
        <ele>79.93</ele>
        <time>2015-08-16T16:53:49Z</time>
      </trkpt>
      <trkpt lat="47.26777" lon="1.42651">
        <ele>79.93</ele>
        <time>2015-08-16T16:54:07Z</time>
      </trkpt>
      <trkpt lat="47.26768" lon="1.42712">
        <ele>80.41</ele>
        <time>2015-08-16T16:54:22Z</time>
      </trkpt>
      <trkpt lat="47.26768" lon="1.42714">
        <ele>80.41</ele>
        <time>2015-08-16T16:54:23Z</time>
      </trkpt>
      <trkpt lat="47.26768" lon="1.42717">
        <ele>80.41</ele>
        <time>2015-08-16T16:54:24Z</time>
      </trkpt>
      <trkpt lat="47.26769" lon="1.4272">
        <ele>80.89</ele>
        <time>2015-08-16T16:54:26Z</time>
      </trkpt>
      <trkpt lat="47.2677" lon="1.42723">
        <ele>80.41</ele>
        <time>2015-08-16T16:54:47Z</time>
      </trkpt>
      <trkpt lat="47.26768" lon="1.42729">
        <ele>80.89</ele>
        <time>2015-08-16T16:55:08Z</time>
      </trkpt>
      <trkpt lat="47.26768" lon="1.42736">
        <ele>80.89</ele>
        <time>2015-08-16T16:55:22Z</time>
      </trkpt>
      <trkpt lat="47.26767" lon="1.42737">
        <ele>80.89</ele>
        <time>2015-08-16T16:55:51Z</time>
      </trkpt>
      <trkpt lat="47.26766" lon="1.42737">
        <ele>80.89</ele>
        <time>2015-08-16T16:56:20Z</time>
      </trkpt>
      <trkpt lat="47.26767" lon="1.42737">
        <ele>80.89</ele>
        <time>2015-08-16T16:56:47Z</time>
      </trkpt>
      <trkpt lat="47.2676" lon="1.42784">
        <ele>81.85</ele>
        <time>2015-08-16T16:57:00Z</time>
      </trkpt>
      <trkpt lat="47.26748" lon="1.42874">
        <ele>82.33</ele>
        <time>2015-08-16T16:57:17Z</time>
      </trkpt>
      <trkpt lat="47.26734" lon="1.42989">
        <ele>81.85</ele>
        <time>2015-08-16T16:57:38Z</time>
      </trkpt>
      <trkpt lat="47.26736" lon="1.43106">
        <ele>81.37</ele>
        <time>2015-08-16T16:57:58Z</time>
      </trkpt>
      <trkpt lat="47.26751" lon="1.43192">
        <ele>81.85</ele>
        <time>2015-08-16T16:58:13Z</time>
      </trkpt>
      <trkpt lat="47.26749" lon="1.43267">
        <ele>81.85</ele>
        <time>2015-08-16T16:58:26Z</time>
      </trkpt>
      <trkpt lat="47.26731" lon="1.43376">
        <ele>82.81</ele>
        <time>2015-08-16T16:58:40Z</time>
      </trkpt>
      <trkpt lat="47.26694" lon="1.43437">
        <ele>84.25</ele>
        <time>2015-08-16T16:58:53Z</time>
      </trkpt>
      <trkpt lat="47.2665" lon="1.43478">
        <ele>84.73</ele>
        <time>2015-08-16T16:59:08Z</time>
      </trkpt>
      <trkpt lat="47.2663" lon="1.43531">
        <ele>85.21</ele>
        <time>2015-08-16T16:59:21Z</time>
      </trkpt>
      <trkpt lat="47.26615" lon="1.43606">
        <ele>86.18</ele>
        <time>2015-08-16T16:59:35Z</time>
      </trkpt>
      <trkpt lat="47.26606" lon="1.4367">
        <ele>86.18</ele>
        <time>2015-08-16T16:59:49Z</time>
      </trkpt>
      <trkpt lat="47.26599" lon="1.43719">
        <ele>85.21</ele>
        <time>2015-08-16T17:00:02Z</time>
      </trkpt>
      <trkpt lat="47.26591" lon="1.4378">
        <ele>83.77</ele>
        <time>2015-08-16T17:00:18Z</time>
      </trkpt>
      <trkpt lat="47.26586" lon="1.43828">
        <ele>82.81</ele>
        <time>2015-08-16T17:00:31Z</time>
      </trkpt>
      <trkpt lat="47.26586" lon="1.43833">
        <ele>82.81</ele>
        <time>2015-08-16T17:00:32Z</time>
      </trkpt>
      <trkpt lat="47.26586" lon="1.43838">
        <ele>82.81</ele>
        <time>2015-08-16T17:00:33Z</time>
      </trkpt>
      <trkpt lat="47.26587" lon="1.43843">
        <ele>82.81</ele>
        <time>2015-08-16T17:00:34Z</time>
      </trkpt>
      <trkpt lat="47.26587" lon="1.43848">
        <ele>82.81</ele>
        <time>2015-08-16T17:00:35Z</time>
      </trkpt>
      <trkpt lat="47.26588" lon="1.43854">
        <ele>82.81</ele>
        <time>2015-08-16T17:00:36Z</time>
      </trkpt>
      <trkpt lat="47.2659" lon="1.4386">
        <ele>82.81</ele>
        <time>2015-08-16T17:00:37Z</time>
      </trkpt>
      <trkpt lat="47.26613" lon="1.43922">
        <ele>84.25</ele>
        <time>2015-08-16T17:00:49Z</time>
      </trkpt>
      <trkpt lat="47.26614" lon="1.43937">
        <ele>84.73</ele>
        <time>2015-08-16T17:00:54Z</time>
      </trkpt>
      <trkpt lat="47.26615" lon="1.43966">
        <ele>86.18</ele>
        <time>2015-08-16T17:01:08Z</time>
      </trkpt>
      <trkpt lat="47.26612" lon="1.43977">
        <ele>86.18</ele>
        <time>2015-08-16T17:01:14Z</time>
      </trkpt>
      <trkpt lat="47.26591" lon="1.43984">
        <ele>84.25</ele>
        <time>2015-08-16T17:01:26Z</time>
      </trkpt>
      <trkpt lat="47.26564" lon="1.43989">
        <ele>83.29</ele>
        <time>2015-08-16T17:01:41Z</time>
      </trkpt>
      <trkpt lat="47.26562" lon="1.43989">
        <ele>87.14</ele>
        <time>2015-08-16T17:01:42Z</time>
      </trkpt>
      <trkpt lat="47.26561" lon="1.43988">
        <ele>78.97</ele>
        <time>2015-08-16T17:01:43Z</time>
      </trkpt>
      <trkpt lat="47.26556" lon="1.43988">
        <ele>82.33</ele>
        <time>2015-08-16T17:01:47Z</time>
      </trkpt>
      <trkpt lat="47.26553" lon="1.43988">
        <ele>82.81</ele>
        <time>2015-08-16T17:01:54Z</time>
      </trkpt>
      <trkpt lat="47.26547" lon="1.43984">
        <ele>82.33</ele>
        <time>2015-08-16T17:02:09Z</time>
      </trkpt>
      <trkpt lat="47.2654" lon="1.43982">
        <ele>80.89</ele>
        <time>2015-08-16T17:02:22Z</time>
      </trkpt>
      <trkpt lat="47.2654" lon="1.43982">
        <ele>80.89</ele>
        <time>2015-08-16T17:02:23Z</time>
      </trkpt>
      <trkpt lat="47.26539" lon="1.43982">
        <ele>81.37</ele>
        <time>2015-08-16T17:02:49Z</time>
      </trkpt>
      <trkpt lat="47.26538" lon="1.43981">
        <ele>81.37</ele>
        <time>2015-08-16T17:03:17Z</time>
      </trkpt>
      <trkpt lat="47.26538" lon="1.4398">
        <ele>81.37</ele>
        <time>2015-08-16T17:03:45Z</time>
      </trkpt>
      <trkpt lat="47.26537" lon="1.43979">
        <ele>81.37</ele>
        <time>2015-08-16T17:04:09Z</time>
      </trkpt>
      <trkpt lat="47.26538" lon="1.43978">
        <ele>80.89</ele>
        <time>2015-08-16T17:04:44Z</time>
      </trkpt>
      <trkpt lat="47.26538" lon="1.43977">
        <ele>80.89</ele>
        <time>2015-08-16T17:05:09Z</time>
      </trkpt>
      <trkpt lat="47.26539" lon="1.43977">
        <ele>81.37</ele>
        <time>2015-08-16T17:05:28Z</time>
      </trkpt>
      <trkpt lat="47.26541" lon="1.43979">
        <ele>80.41</ele>
        <time>2015-08-16T17:05:51Z</time>
      </trkpt>
      <trkpt lat="47.26541" lon="1.43979">
        <ele>83.77</ele>
        <time>2015-08-16T17:05:53Z</time>
      </trkpt>
      <trkpt lat="47.26541" lon="1.43979">
        <ele>78</ele>
        <time>2015-08-16T17:05:54Z</time>
      </trkpt>
      <trkpt lat="47.26538" lon="1.43994">
        <ele>80.89</ele>
        <time>2015-08-16T17:06:04Z</time>
      </trkpt>
      <trkpt lat="47.26523" lon="1.44035">
        <ele>80.89</ele>
        <time>2015-08-16T17:06:18Z</time>
      </trkpt>
      <trkpt lat="47.26504" lon="1.44074">
        <ele>80.41</ele>
        <time>2015-08-16T17:06:31Z</time>
      </trkpt>
      <trkpt lat="47.265" lon="1.44119">
        <ele>80.41</ele>
        <time>2015-08-16T17:06:44Z</time>
      </trkpt>
      <trkpt lat="47.26501" lon="1.44165">
        <ele>80.89</ele>
        <time>2015-08-16T17:06:56Z</time>
      </trkpt>
      <trkpt lat="47.26504" lon="1.44212">
        <ele>80.89</ele>
        <time>2015-08-16T17:07:08Z</time>
      </trkpt>
      <trkpt lat="47.26504" lon="1.44246">
        <ele>80.89</ele>
        <time>2015-08-16T17:07:19Z</time>
      </trkpt>
      <trkpt lat="47.26506" lon="1.44288">
        <ele>80.89</ele>
        <time>2015-08-16T17:07:32Z</time>
      </trkpt>
      <trkpt lat="47.26508" lon="1.44308">
        <ele>80.89</ele>
        <time>2015-08-16T17:07:45Z</time>
      </trkpt>
      <trkpt lat="47.2651" lon="1.4432">
        <ele>80.89</ele>
        <time>2015-08-16T17:07:59Z</time>
      </trkpt>
      <trkpt lat="47.26512" lon="1.44335">
        <ele>80.89</ele>
        <time>2015-08-16T17:08:04Z</time>
      </trkpt>
      <trkpt lat="47.26512" lon="1.44375">
        <ele>80.89</ele>
        <time>2015-08-16T17:08:16Z</time>
      </trkpt>
      <trkpt lat="47.26515" lon="1.44425">
        <ele>80.89</ele>
        <time>2015-08-16T17:08:30Z</time>
      </trkpt>
      <trkpt lat="47.26518" lon="1.4447">
        <ele>80.89</ele>
        <time>2015-08-16T17:08:43Z</time>
      </trkpt>
      <trkpt lat="47.26519" lon="1.44495">
        <ele>80.89</ele>
        <time>2015-08-16T17:08:52Z</time>
      </trkpt>
      <trkpt lat="47.26519" lon="1.44501">
        <ele>80.89</ele>
        <time>2015-08-16T17:08:54Z</time>
      </trkpt>
      <trkpt lat="47.26522" lon="1.44554">
        <ele>80.89</ele>
        <time>2015-08-16T17:09:10Z</time>
      </trkpt>
      <trkpt lat="47.26525" lon="1.44598">
        <ele>80.41</ele>
        <time>2015-08-16T17:09:24Z</time>
      </trkpt>
      <trkpt lat="47.26528" lon="1.44645">
        <ele>80.41</ele>
        <time>2015-08-16T17:09:39Z</time>
      </trkpt>
      <trkpt lat="47.2653" lon="1.44691">
        <ele>80.41</ele>
        <time>2015-08-16T17:09:52Z</time>
      </trkpt>
      <trkpt lat="47.26535" lon="1.44741">
        <ele>80.41</ele>
        <time>2015-08-16T17:10:06Z</time>
      </trkpt>
      <trkpt lat="47.26535" lon="1.44787">
        <ele>80.41</ele>
        <time>2015-08-16T17:10:18Z</time>
      </trkpt>
      <trkpt lat="47.26533" lon="1.44849">
        <ele>80.89</ele>
        <time>2015-08-16T17:10:34Z</time>
      </trkpt>
      <trkpt lat="47.26529" lon="1.44894">
        <ele>80.89</ele>
        <time>2015-08-16T17:10:47Z</time>
      </trkpt>
      <trkpt lat="47.26525" lon="1.44938">
        <ele>81.37</ele>
        <time>2015-08-16T17:10:59Z</time>
      </trkpt>
      <trkpt lat="47.26522" lon="1.44993">
        <ele>80.89</ele>
        <time>2015-08-16T17:11:14Z</time>
      </trkpt>
      <trkpt lat="47.26522" lon="1.45056">
        <ele>80.41</ele>
        <time>2015-08-16T17:11:31Z</time>
      </trkpt>
      <trkpt lat="47.26526" lon="1.45105">
        <ele>80.89</ele>
        <time>2015-08-16T17:11:44Z</time>
      </trkpt>
      <trkpt lat="47.26533" lon="1.45155">
        <ele>80.89</ele>
        <time>2015-08-16T17:11:56Z</time>
      </trkpt>
      <trkpt lat="47.26539" lon="1.45212">
        <ele>80.89</ele>
        <time>2015-08-16T17:12:11Z</time>
      </trkpt>
      <trkpt lat="47.26545" lon="1.4526">
        <ele>80.89</ele>
        <time>2015-08-16T17:12:24Z</time>
      </trkpt>
      <trkpt lat="47.26549" lon="1.45302">
        <ele>80.89</ele>
        <time>2015-08-16T17:12:37Z</time>
      </trkpt>
      <trkpt lat="47.26556" lon="1.45353">
        <ele>80.89</ele>
        <time>2015-08-16T17:12:51Z</time>
      </trkpt>
      <trkpt lat="47.26562" lon="1.45401">
        <ele>80.89</ele>
        <time>2015-08-16T17:13:03Z</time>
      </trkpt>
      <trkpt lat="47.2657" lon="1.45451">
        <ele>80.41</ele>
        <time>2015-08-16T17:13:17Z</time>
      </trkpt>
      <trkpt lat="47.26584" lon="1.45505">
        <ele>80.41</ele>
        <time>2015-08-16T17:13:31Z</time>
      </trkpt>
      <trkpt lat="47.26597" lon="1.45546">
        <ele>80.89</ele>
        <time>2015-08-16T17:13:43Z</time>
      </trkpt>
      <trkpt lat="47.26607" lon="1.45594">
        <ele>80.41</ele>
        <time>2015-08-16T17:13:56Z</time>
      </trkpt>
      <trkpt lat="47.26616" lon="1.45641">
        <ele>80.41</ele>
        <time>2015-08-16T17:14:09Z</time>
      </trkpt>
      <trkpt lat="47.2662" lon="1.45682">
        <ele>80.41</ele>
        <time>2015-08-16T17:14:21Z</time>
      </trkpt>
      <trkpt lat="47.26625" lon="1.45735">
        <ele>79.93</ele>
        <time>2015-08-16T17:14:35Z</time>
      </trkpt>
      <trkpt lat="47.26638" lon="1.45789">
        <ele>79.93</ele>
        <time>2015-08-16T17:14:48Z</time>
      </trkpt>
      <trkpt lat="47.26645" lon="1.45833">
        <ele>79.93</ele>
        <time>2015-08-16T17:14:59Z</time>
      </trkpt>
      <trkpt lat="47.26651" lon="1.45877">
        <ele>79.93</ele>
        <time>2015-08-16T17:15:12Z</time>
      </trkpt>
      <trkpt lat="47.26655" lon="1.45901">
        <ele>79.93</ele>
        <time>2015-08-16T17:15:22Z</time>
      </trkpt>
      <trkpt lat="47.26656" lon="1.45902">
        <ele>80.41</ele>
        <time>2015-08-16T17:15:38Z</time>
      </trkpt>
      <trkpt lat="47.26656" lon="1.45902">
        <ele>80.41</ele>
        <time>2015-08-16T17:16:03Z</time>
      </trkpt>
      <trkpt lat="47.26655" lon="1.45901">
        <ele>80.41</ele>
        <time>2015-08-16T17:16:26Z</time>
      </trkpt>
      <trkpt lat="47.26656" lon="1.45914">
        <ele>80.41</ele>
        <time>2015-08-16T17:16:40Z</time>
      </trkpt>
      <trkpt lat="47.26658" lon="1.45926">
        <ele>80.89</ele>
        <time>2015-08-16T17:16:53Z</time>
      </trkpt>
      <trkpt lat="47.26659" lon="1.45926">
        <ele>80.89</ele>
        <time>2015-08-16T17:17:10Z</time>
      </trkpt>
      <trkpt lat="47.26665" lon="1.45973">
        <ele>80.41</ele>
        <time>2015-08-16T17:17:25Z</time>
      </trkpt>
      <trkpt lat="47.26672" lon="1.46036">
        <ele>80.41</ele>
        <time>2015-08-16T17:17:40Z</time>
      </trkpt>
      <trkpt lat="47.26678" lon="1.46086">
        <ele>80.41</ele>
        <time>2015-08-16T17:17:53Z</time>
      </trkpt>
      <trkpt lat="47.26684" lon="1.46137">
        <ele>80.41</ele>
        <time>2015-08-16T17:18:06Z</time>
      </trkpt>
      <trkpt lat="47.26689" lon="1.46198">
        <ele>80.41</ele>
        <time>2015-08-16T17:18:20Z</time>
      </trkpt>
      <trkpt lat="47.26697" lon="1.4625">
        <ele>80.41</ele>
        <time>2015-08-16T17:18:32Z</time>
      </trkpt>
      <trkpt lat="47.2671" lon="1.46312">
        <ele>80.41</ele>
        <time>2015-08-16T17:18:47Z</time>
      </trkpt>
      <trkpt lat="47.26719" lon="1.4637">
        <ele>80.41</ele>
        <time>2015-08-16T17:19:02Z</time>
      </trkpt>
      <trkpt lat="47.26727" lon="1.46413">
        <ele>80.41</ele>
        <time>2015-08-16T17:19:14Z</time>
      </trkpt>
      <trkpt lat="47.2673" lon="1.46434">
        <ele>80.41</ele>
        <time>2015-08-16T17:19:27Z</time>
      </trkpt>
      <trkpt lat="47.26729" lon="1.46436">
        <ele>80.41</ele>
        <time>2015-08-16T17:19:44Z</time>
      </trkpt>
      <trkpt lat="47.26733" lon="1.46459">
        <ele>80.41</ele>
        <time>2015-08-16T17:19:55Z</time>
      </trkpt>
      <trkpt lat="47.26744" lon="1.46517">
        <ele>80.41</ele>
        <time>2015-08-16T17:20:09Z</time>
      </trkpt>
      <trkpt lat="47.26756" lon="1.46573">
        <ele>80.41</ele>
        <time>2015-08-16T17:20:23Z</time>
      </trkpt>
      <trkpt lat="47.26774" lon="1.46639">
        <ele>80.41</ele>
        <time>2015-08-16T17:20:39Z</time>
      </trkpt>
      <trkpt lat="47.26794" lon="1.4671">
        <ele>80.41</ele>
        <time>2015-08-16T17:20:56Z</time>
      </trkpt>
      <trkpt lat="47.26812" lon="1.46776">
        <ele>80.89</ele>
        <time>2015-08-16T17:21:12Z</time>
      </trkpt>
      <trkpt lat="47.2683" lon="1.4684">
        <ele>80.89</ele>
        <time>2015-08-16T17:21:28Z</time>
      </trkpt>
      <trkpt lat="47.26846" lon="1.46903">
        <ele>80.89</ele>
        <time>2015-08-16T17:21:44Z</time>
      </trkpt>
      <trkpt lat="47.26862" lon="1.46957">
        <ele>80.41</ele>
        <time>2015-08-16T17:22:00Z</time>
      </trkpt>
      <trkpt lat="47.26866" lon="1.46971">
        <ele>80.41</ele>
        <time>2015-08-16T17:22:20Z</time>
      </trkpt>
      <trkpt lat="47.26865" lon="1.46975">
        <ele>80.89</ele>
        <time>2015-08-16T17:22:38Z</time>
      </trkpt>
      <trkpt lat="47.26865" lon="1.46975">
        <ele>81.85</ele>
        <time>2015-08-16T17:23:05Z</time>
      </trkpt>
      <trkpt lat="47.26866" lon="1.46975">
        <ele>84.25</ele>
        <time>2015-08-16T17:23:06Z</time>
      </trkpt>
      <trkpt lat="47.26865" lon="1.46976">
        <ele>80.41</ele>
        <time>2015-08-16T17:23:16Z</time>
      </trkpt>
      <trkpt lat="47.26874" lon="1.46991">
        <ele>80.41</ele>
        <time>2015-08-16T17:23:29Z</time>
      </trkpt>
      <trkpt lat="47.26893" lon="1.47051">
        <ele>80.89</ele>
        <time>2015-08-16T17:23:47Z</time>
      </trkpt>
      <trkpt lat="47.26905" lon="1.47123">
        <ele>80.41</ele>
        <time>2015-08-16T17:24:05Z</time>
      </trkpt>
      <trkpt lat="47.26913" lon="1.472">
        <ele>80.89</ele>
        <time>2015-08-16T17:24:24Z</time>
      </trkpt>
      <trkpt lat="47.26919" lon="1.47249">
        <ele>80.89</ele>
        <time>2015-08-16T17:24:37Z</time>
      </trkpt>
      <trkpt lat="47.26925" lon="1.47296">
        <ele>80.89</ele>
        <time>2015-08-16T17:24:50Z</time>
      </trkpt>
      <trkpt lat="47.26935" lon="1.47367">
        <ele>80.89</ele>
        <time>2015-08-16T17:25:08Z</time>
      </trkpt>
      <trkpt lat="47.26937" lon="1.47403">
        <ele>80.41</ele>
        <time>2015-08-16T17:25:20Z</time>
      </trkpt>
      <trkpt lat="47.26945" lon="1.47462">
        <ele>80.41</ele>
        <time>2015-08-16T17:25:36Z</time>
      </trkpt>
      <trkpt lat="47.2695" lon="1.47506">
        <ele>80.41</ele>
        <time>2015-08-16T17:25:48Z</time>
      </trkpt>
      <trkpt lat="47.26959" lon="1.4758">
        <ele>80.41</ele>
        <time>2015-08-16T17:26:05Z</time>
      </trkpt>
      <trkpt lat="47.26967" lon="1.47649">
        <ele>80.89</ele>
        <time>2015-08-16T17:26:21Z</time>
      </trkpt>
      <trkpt lat="47.26976" lon="1.47709">
        <ele>81.85</ele>
        <time>2015-08-16T17:26:35Z</time>
      </trkpt>
      <trkpt lat="47.26986" lon="1.47769">
        <ele>81.37</ele>
        <time>2015-08-16T17:26:50Z</time>
      </trkpt>
      <trkpt lat="47.26995" lon="1.47823">
        <ele>81.85</ele>
        <time>2015-08-16T17:27:03Z</time>
      </trkpt>
      <trkpt lat="47.27004" lon="1.4787">
        <ele>83.77</ele>
        <time>2015-08-16T17:27:15Z</time>
      </trkpt>
      <trkpt lat="47.27015" lon="1.47931">
        <ele>82.33</ele>
        <time>2015-08-16T17:27:30Z</time>
      </trkpt>
      <trkpt lat="47.27026" lon="1.47992">
        <ele>81.85</ele>
        <time>2015-08-16T17:27:45Z</time>
      </trkpt>
      <trkpt lat="47.27038" lon="1.48055">
        <ele>81.85</ele>
        <time>2015-08-16T17:28:01Z</time>
      </trkpt>
      <trkpt lat="47.27046" lon="1.48105">
        <ele>81.85</ele>
        <time>2015-08-16T17:28:14Z</time>
      </trkpt>
      <trkpt lat="47.27054" lon="1.48156">
        <ele>81.85</ele>
        <time>2015-08-16T17:28:27Z</time>
      </trkpt>
      <trkpt lat="47.27064" lon="1.48211">
        <ele>81.85</ele>
        <time>2015-08-16T17:28:39Z</time>
      </trkpt>
      <trkpt lat="47.27074" lon="1.4827">
        <ele>81.85</ele>
        <time>2015-08-16T17:28:54Z</time>
      </trkpt>
      <trkpt lat="47.27088" lon="1.48322">
        <ele>81.85</ele>
        <time>2015-08-16T17:29:08Z</time>
      </trkpt>
      <trkpt lat="47.27103" lon="1.4836">
        <ele>81.85</ele>
        <time>2015-08-16T17:29:20Z</time>
      </trkpt>
      <trkpt lat="47.27105" lon="1.48363">
        <ele>81.37</ele>
        <time>2015-08-16T17:29:21Z</time>
      </trkpt>
      <trkpt lat="47.27117" lon="1.48402">
        <ele>81.37</ele>
        <time>2015-08-16T17:29:34Z</time>
      </trkpt>
      <trkpt lat="47.27138" lon="1.48417">
        <ele>81.37</ele>
        <time>2015-08-16T17:29:42Z</time>
      </trkpt>
      <trkpt lat="47.27139" lon="1.48429">
        <ele>81.37</ele>
        <time>2015-08-16T17:29:44Z</time>
      </trkpt>
      <trkpt lat="47.2714" lon="1.48503">
        <ele>82.33</ele>
        <time>2015-08-16T17:29:57Z</time>
      </trkpt>
      <trkpt lat="47.27145" lon="1.48582">
        <ele>82.33</ele>
        <time>2015-08-16T17:30:12Z</time>
      </trkpt>
      <trkpt lat="47.27152" lon="1.48645">
        <ele>82.81</ele>
        <time>2015-08-16T17:30:25Z</time>
      </trkpt>
      <trkpt lat="47.27157" lon="1.48692">
        <ele>82.81</ele>
        <time>2015-08-16T17:30:36Z</time>
      </trkpt>
      <trkpt lat="47.2716" lon="1.48734">
        <ele>82.33</ele>
        <time>2015-08-16T17:30:48Z</time>
      </trkpt>
      <trkpt lat="47.27162" lon="1.48743">
        <ele>83.77</ele>
        <time>2015-08-16T17:31:18Z</time>
      </trkpt>
      <trkpt lat="47.27161" lon="1.48745">
        <ele>82.33</ele>
        <time>2015-08-16T17:31:47Z</time>
      </trkpt>
      <trkpt lat="47.27161" lon="1.48745">
        <ele>81.85</ele>
        <time>2015-08-16T17:32:10Z</time>
      </trkpt>
      <trkpt lat="47.27163" lon="1.48757">
        <ele>82.81</ele>
        <time>2015-08-16T17:32:24Z</time>
      </trkpt>
      <trkpt lat="47.27171" lon="1.48796">
        <ele>82.81</ele>
        <time>2015-08-16T17:32:39Z</time>
      </trkpt>
      <trkpt lat="47.2717" lon="1.48812">
        <ele>82.81</ele>
        <time>2015-08-16T17:32:47Z</time>
      </trkpt>
      <trkpt lat="47.27161" lon="1.48815">
        <ele>81.85</ele>
        <time>2015-08-16T17:32:54Z</time>
      </trkpt>
      <trkpt lat="47.27161" lon="1.48817">
        <ele>81.85</ele>
        <time>2015-08-16T17:32:55Z</time>
      </trkpt>
      <trkpt lat="47.27164" lon="1.48871">
        <ele>81.85</ele>
        <time>2015-08-16T17:33:10Z</time>
      </trkpt>
      <trkpt lat="47.27168" lon="1.48935">
        <ele>82.33</ele>
        <time>2015-08-16T17:33:28Z</time>
      </trkpt>
      <trkpt lat="47.27173" lon="1.48983">
        <ele>81.85</ele>
        <time>2015-08-16T17:33:42Z</time>
      </trkpt>
      <trkpt lat="47.27175" lon="1.4903">
        <ele>81.85</ele>
        <time>2015-08-16T17:33:55Z</time>
      </trkpt>
      <trkpt lat="47.2718" lon="1.49079">
        <ele>82.33</ele>
        <time>2015-08-16T17:34:09Z</time>
      </trkpt>
      <trkpt lat="47.27183" lon="1.4913">
        <ele>82.33</ele>
        <time>2015-08-16T17:34:24Z</time>
      </trkpt>
      <trkpt lat="47.27187" lon="1.49178">
        <ele>82.33</ele>
        <time>2015-08-16T17:34:39Z</time>
      </trkpt>
      <trkpt lat="47.27192" lon="1.49236">
        <ele>82.33</ele>
        <time>2015-08-16T17:34:56Z</time>
      </trkpt>
      <trkpt lat="47.27199" lon="1.49294">
        <ele>81.85</ele>
        <time>2015-08-16T17:35:13Z</time>
      </trkpt>
      <trkpt lat="47.27209" lon="1.49351">
        <ele>82.33</ele>
        <time>2015-08-16T17:35:28Z</time>
      </trkpt>
      <trkpt lat="47.27217" lon="1.49403">
        <ele>82.81</ele>
        <time>2015-08-16T17:35:41Z</time>
      </trkpt>
      <trkpt lat="47.27225" lon="1.49447">
        <ele>82.81</ele>
        <time>2015-08-16T17:35:53Z</time>
      </trkpt>
      <trkpt lat="47.27237" lon="1.49498">
        <ele>82.81</ele>
        <time>2015-08-16T17:36:07Z</time>
      </trkpt>
      <trkpt lat="47.27253" lon="1.49535">
        <ele>82.81</ele>
        <time>2015-08-16T17:36:19Z</time>
      </trkpt>
      <trkpt lat="47.27272" lon="1.49584">
        <ele>82.81</ele>
        <time>2015-08-16T17:36:34Z</time>
      </trkpt>
      <trkpt lat="47.27288" lon="1.49624">
        <ele>82.33</ele>
        <time>2015-08-16T17:36:47Z</time>
      </trkpt>
      <trkpt lat="47.27308" lon="1.49673">
        <ele>82.81</ele>
        <time>2015-08-16T17:37:02Z</time>
      </trkpt>
      <trkpt lat="47.27324" lon="1.49719">
        <ele>83.29</ele>
        <time>2015-08-16T17:37:16Z</time>
      </trkpt>
      <trkpt lat="47.2733" lon="1.49732">
        <ele>84.73</ele>
        <time>2015-08-16T17:37:21Z</time>
      </trkpt>
      <trkpt lat="47.27331" lon="1.49734">
        <ele>82.81</ele>
        <time>2015-08-16T17:37:22Z</time>
      </trkpt>
      <trkpt lat="47.27344" lon="1.49781">
        <ele>83.29</ele>
        <time>2015-08-16T17:37:37Z</time>
      </trkpt>
      <trkpt lat="47.27346" lon="1.49792">
        <ele>83.29</ele>
        <time>2015-08-16T17:37:41Z</time>
      </trkpt>
      <trkpt lat="47.27352" lon="1.49819">
        <ele>83.29</ele>
        <time>2015-08-16T17:37:49Z</time>
      </trkpt>
      <trkpt lat="47.27358" lon="1.49883">
        <ele>83.29</ele>
        <time>2015-08-16T17:38:06Z</time>
      </trkpt>
      <trkpt lat="47.27359" lon="1.49937">
        <ele>83.29</ele>
        <time>2015-08-16T17:38:21Z</time>
      </trkpt>
      <trkpt lat="47.27361" lon="1.49997">
        <ele>83.29</ele>
        <time>2015-08-16T17:38:37Z</time>
      </trkpt>
      <trkpt lat="47.27367" lon="1.50054">
        <ele>83.29</ele>
        <time>2015-08-16T17:38:53Z</time>
      </trkpt>
      <trkpt lat="47.27372" lon="1.50106">
        <ele>83.29</ele>
        <time>2015-08-16T17:39:07Z</time>
      </trkpt>
      <trkpt lat="47.27378" lon="1.50167">
        <ele>83.77</ele>
        <time>2015-08-16T17:39:24Z</time>
      </trkpt>
      <trkpt lat="47.27383" lon="1.50212">
        <ele>83.77</ele>
        <time>2015-08-16T17:39:38Z</time>
      </trkpt>
      <trkpt lat="47.2739" lon="1.50265">
        <ele>83.77</ele>
        <time>2015-08-16T17:39:54Z</time>
      </trkpt>
      <trkpt lat="47.27396" lon="1.50318">
        <ele>83.77</ele>
        <time>2015-08-16T17:40:10Z</time>
      </trkpt>
      <trkpt lat="47.27402" lon="1.50371">
        <ele>83.29</ele>
        <time>2015-08-16T17:40:27Z</time>
      </trkpt>
      <trkpt lat="47.27409" lon="1.50426">
        <ele>83.77</ele>
        <time>2015-08-16T17:40:44Z</time>
      </trkpt>
      <trkpt lat="47.27418" lon="1.50478">
        <ele>83.77</ele>
        <time>2015-08-16T17:41:01Z</time>
      </trkpt>
      <trkpt lat="47.27426" lon="1.50528">
        <ele>83.77</ele>
        <time>2015-08-16T17:41:15Z</time>
      </trkpt>
      <trkpt lat="47.27434" lon="1.50585">
        <ele>83.77</ele>
        <time>2015-08-16T17:41:30Z</time>
      </trkpt>
      <trkpt lat="47.27445" lon="1.50646">
        <ele>84.25</ele>
        <time>2015-08-16T17:41:45Z</time>
      </trkpt>
      <trkpt lat="47.27457" lon="1.50697">
        <ele>84.25</ele>
        <time>2015-08-16T17:41:59Z</time>
      </trkpt>
      <trkpt lat="47.2747" lon="1.50738">
        <ele>84.25</ele>
        <time>2015-08-16T17:42:11Z</time>
      </trkpt>
      <trkpt lat="47.27485" lon="1.50791">
        <ele>84.25</ele>
        <time>2015-08-16T17:42:26Z</time>
      </trkpt>
      <trkpt lat="47.27497" lon="1.50832">
        <ele>84.73</ele>
        <time>2015-08-16T17:42:38Z</time>
      </trkpt>
      <trkpt lat="47.27512" lon="1.50873">
        <ele>84.25</ele>
        <time>2015-08-16T17:42:52Z</time>
      </trkpt>
      <trkpt lat="47.27524" lon="1.50916">
        <ele>84.73</ele>
        <time>2015-08-16T17:43:06Z</time>
      </trkpt>
      <trkpt lat="47.27539" lon="1.50967">
        <ele>84.73</ele>
        <time>2015-08-16T17:43:22Z</time>
      </trkpt>
      <trkpt lat="47.27555" lon="1.51025">
        <ele>84.73</ele>
        <time>2015-08-16T17:43:40Z</time>
      </trkpt>
      <trkpt lat="47.27555" lon="1.51029">
        <ele>84.73</ele>
        <time>2015-08-16T17:43:42Z</time>
      </trkpt>
      <trkpt lat="47.27561" lon="1.51053">
        <ele>84.73</ele>
        <time>2015-08-16T17:43:49Z</time>
      </trkpt>
      <trkpt lat="47.27566" lon="1.51095">
        <ele>84.73</ele>
        <time>2015-08-16T17:44:03Z</time>
      </trkpt>
      <trkpt lat="47.27565" lon="1.51149">
        <ele>84.25</ele>
        <time>2015-08-16T17:44:21Z</time>
      </trkpt>
      <trkpt lat="47.27564" lon="1.51164">
        <ele>84.25</ele>
        <time>2015-08-16T17:44:28Z</time>
      </trkpt>
      <trkpt lat="47.27561" lon="1.51177">
        <ele>84.25</ele>
        <time>2015-08-16T17:44:43Z</time>
      </trkpt>
      <trkpt lat="47.27569" lon="1.5118">
        <ele>83.29</ele>
        <time>2015-08-16T17:44:57Z</time>
      </trkpt>
      <trkpt lat="47.27574" lon="1.51188">
        <ele>83.29</ele>
        <time>2015-08-16T17:45:12Z</time>
      </trkpt>
      <trkpt lat="47.27583" lon="1.51197">
        <ele>83.29</ele>
        <time>2015-08-16T17:45:20Z</time>
      </trkpt>
      <trkpt lat="47.27573" lon="1.51196">
        <ele>84.25</ele>
        <time>2015-08-16T17:45:51Z</time>
      </trkpt>
      <trkpt lat="47.27577" lon="1.51198">
        <ele>83.29</ele>
        <time>2015-08-16T18:21:46Z</time>
      </trkpt>
      <trkpt lat="47.27576" lon="1.51198">
        <ele>83.77</ele>
        <time>2015-08-16T18:21:53Z</time>
      </trkpt>
      <trkpt lat="47.27561" lon="1.5119">
        <ele>84.73</ele>
        <time>2015-08-16T18:22:08Z</time>
      </trkpt>
      <trkpt lat="47.27559" lon="1.5119">
        <ele>84.73</ele>
        <time>2015-08-16T18:22:23Z</time>
      </trkpt>
      <trkpt lat="47.27557" lon="1.51202">
        <ele>84.73</ele>
        <time>2015-08-16T18:22:34Z</time>
      </trkpt>
      <trkpt lat="47.27546" lon="1.5124">
        <ele>84.73</ele>
        <time>2015-08-16T18:22:46Z</time>
      </trkpt>
      <trkpt lat="47.2752" lon="1.51294">
        <ele>85.21</ele>
        <time>2015-08-16T18:23:04Z</time>
      </trkpt>
      <trkpt lat="47.27508" lon="1.51313">
        <ele>84.73</ele>
        <time>2015-08-16T18:23:14Z</time>
      </trkpt>
      <trkpt lat="47.27507" lon="1.51314">
        <ele>85.21</ele>
        <time>2015-08-16T18:23:23Z</time>
      </trkpt>
      <trkpt lat="47.27508" lon="1.51313">
        <ele>85.21</ele>
        <time>2015-08-16T18:23:54Z</time>
      </trkpt>
      <trkpt lat="47.2751" lon="1.51314">
        <ele>85.69</ele>
        <time>2015-08-16T18:24:28Z</time>
      </trkpt>
      <trkpt lat="47.2751" lon="1.51315">
        <ele>85.69</ele>
        <time>2015-08-16T18:25:01Z</time>
      </trkpt>
      <trkpt lat="47.27509" lon="1.51316">
        <ele>86.18</ele>
        <time>2015-08-16T18:25:37Z</time>
      </trkpt>
      <trkpt lat="47.27508" lon="1.51316">
        <ele>86.18</ele>
        <time>2015-08-16T18:25:51Z</time>
      </trkpt>
      <trkpt lat="47.27494" lon="1.51328">
        <ele>86.18</ele>
        <time>2015-08-16T18:26:06Z</time>
      </trkpt>
      <trkpt lat="47.27484" lon="1.51348">
        <ele>86.66</ele>
        <time>2015-08-16T18:26:21Z</time>
      </trkpt>
      <trkpt lat="47.27485" lon="1.51348">
        <ele>86.66</ele>
        <time>2015-08-16T18:26:56Z</time>
      </trkpt>
      <trkpt lat="47.27485" lon="1.51347">
        <ele>86.66</ele>
        <time>2015-08-16T18:27:34Z</time>
      </trkpt>
      <trkpt lat="47.27485" lon="1.51347">
        <ele>87.14</ele>
        <time>2015-08-16T18:28:10Z</time>
      </trkpt>
      <trkpt lat="47.27485" lon="1.51346">
        <ele>87.14</ele>
        <time>2015-08-16T18:28:41Z</time>
      </trkpt>
      <trkpt lat="47.27485" lon="1.51345">
        <ele>87.62</ele>
        <time>2015-08-16T18:29:14Z</time>
      </trkpt>
      <trkpt lat="47.27484" lon="1.51347">
        <ele>87.62</ele>
        <time>2015-08-16T18:29:50Z</time>
      </trkpt>
      <trkpt lat="47.27483" lon="1.51347">
        <ele>87.62</ele>
        <time>2015-08-16T18:30:04Z</time>
      </trkpt>
      <trkpt lat="47.27486" lon="1.51346">
        <ele>88.1</ele>
        <time>2015-08-16T18:30:28Z</time>
      </trkpt>
      <trkpt lat="47.27483" lon="1.51347">
        <ele>88.1</ele>
        <time>2015-08-16T18:30:44Z</time>
      </trkpt>
      <trkpt lat="47.27471" lon="1.51366">
        <ele>88.1</ele>
        <time>2015-08-16T18:30:55Z</time>
      </trkpt>
      <trkpt lat="47.27469" lon="1.51376">
        <ele>88.1</ele>
        <time>2015-08-16T18:30:59Z</time>
      </trkpt>
      <trkpt lat="47.27467" lon="1.51388">
        <ele>87.62</ele>
        <time>2015-08-16T18:31:04Z</time>
      </trkpt>
      <trkpt lat="47.27467" lon="1.5139">
        <ele>87.62</ele>
        <time>2015-08-16T18:31:05Z</time>
      </trkpt>
      <trkpt lat="47.27466" lon="1.51393">
        <ele>87.62</ele>
        <time>2015-08-16T18:31:06Z</time>
      </trkpt>
      <trkpt lat="47.27466" lon="1.51395">
        <ele>87.62</ele>
        <time>2015-08-16T18:31:07Z</time>
      </trkpt>
      <trkpt lat="47.27465" lon="1.51397">
        <ele>87.62</ele>
        <time>2015-08-16T18:31:08Z</time>
      </trkpt>
      <trkpt lat="47.27465" lon="1.51398">
        <ele>87.62</ele>
        <time>2015-08-16T18:31:09Z</time>
      </trkpt>
      <trkpt lat="47.27463" lon="1.51401">
        <ele>87.62</ele>
        <time>2015-08-16T18:31:18Z</time>
      </trkpt>
      <trkpt lat="47.27457" lon="1.51412">
        <ele>87.62</ele>
        <time>2015-08-16T18:31:40Z</time>
      </trkpt>
      <trkpt lat="47.27442" lon="1.51446">
        <ele>87.14</ele>
        <time>2015-08-16T18:31:54Z</time>
      </trkpt>
      <trkpt lat="47.27426" lon="1.51471">
        <ele>87.14</ele>
        <time>2015-08-16T18:32:05Z</time>
      </trkpt>
      <trkpt lat="47.27413" lon="1.51509">
        <ele>87.14</ele>
        <time>2015-08-16T18:32:17Z</time>
      </trkpt>
      <trkpt lat="47.27404" lon="1.51546">
        <ele>86.66</ele>
        <time>2015-08-16T18:32:28Z</time>
      </trkpt>
      <trkpt lat="47.27404" lon="1.51551">
        <ele>86.66</ele>
        <time>2015-08-16T18:32:29Z</time>
      </trkpt>
      <trkpt lat="47.27403" lon="1.51564">
        <ele>86.66</ele>
        <time>2015-08-16T18:32:33Z</time>
      </trkpt>
      <trkpt lat="47.274" lon="1.51614">
        <ele>86.18</ele>
        <time>2015-08-16T18:32:46Z</time>
      </trkpt>
      <trkpt lat="47.27395" lon="1.51658">
        <ele>86.66</ele>
        <time>2015-08-16T18:32:58Z</time>
      </trkpt>
      <trkpt lat="47.27395" lon="1.51662">
        <ele>86.66</ele>
        <time>2015-08-16T18:32:59Z</time>
      </trkpt>
      <trkpt lat="47.27396" lon="1.51666">
        <ele>86.18</ele>
        <time>2015-08-16T18:33:00Z</time>
      </trkpt>
      <trkpt lat="47.27395" lon="1.51707">
        <ele>86.18</ele>
        <time>2015-08-16T18:33:10Z</time>
      </trkpt>
      <trkpt lat="47.27395" lon="1.51711">
        <ele>86.18</ele>
        <time>2015-08-16T18:33:11Z</time>
      </trkpt>
      <trkpt lat="47.27395" lon="1.51715">
        <ele>86.18</ele>
        <time>2015-08-16T18:33:12Z</time>
      </trkpt>
      <trkpt lat="47.27392" lon="1.51761">
        <ele>86.18</ele>
        <time>2015-08-16T18:33:24Z</time>
      </trkpt>
      <trkpt lat="47.27391" lon="1.51812">
        <ele>85.69</ele>
        <time>2015-08-16T18:33:38Z</time>
      </trkpt>
      <trkpt lat="47.27391" lon="1.51815">
        <ele>85.69</ele>
        <time>2015-08-16T18:33:39Z</time>
      </trkpt>
      <trkpt lat="47.27391" lon="1.51818">
        <ele>85.69</ele>
        <time>2015-08-16T18:33:40Z</time>
      </trkpt>
      <trkpt lat="47.2739" lon="1.51821">
        <ele>85.69</ele>
        <time>2015-08-16T18:33:41Z</time>
      </trkpt>
      <trkpt lat="47.2739" lon="1.51824">
        <ele>85.69</ele>
        <time>2015-08-16T18:33:42Z</time>
      </trkpt>
      <trkpt lat="47.2739" lon="1.51828">
        <ele>85.69</ele>
        <time>2015-08-16T18:33:43Z</time>
      </trkpt>
      <trkpt lat="47.2739" lon="1.51831">
        <ele>85.69</ele>
        <time>2015-08-16T18:33:44Z</time>
      </trkpt>
      <trkpt lat="47.27387" lon="1.5187">
        <ele>85.69</ele>
        <time>2015-08-16T18:33:56Z</time>
      </trkpt>
      <trkpt lat="47.27386" lon="1.51906">
        <ele>85.69</ele>
        <time>2015-08-16T18:34:06Z</time>
      </trkpt>
      <trkpt lat="47.27384" lon="1.51948">
        <ele>85.69</ele>
        <time>2015-08-16T18:34:17Z</time>
      </trkpt>
      <trkpt lat="47.27385" lon="1.51996">
        <ele>84.73</ele>
        <time>2015-08-16T18:34:29Z</time>
      </trkpt>
      <trkpt lat="47.2738" lon="1.52035">
        <ele>84.73</ele>
        <time>2015-08-16T18:34:40Z</time>
      </trkpt>
      <trkpt lat="47.2738" lon="1.52086">
        <ele>84.73</ele>
        <time>2015-08-16T18:34:53Z</time>
      </trkpt>
      <trkpt lat="47.27377" lon="1.52127">
        <ele>84.25</ele>
        <time>2015-08-16T18:35:05Z</time>
      </trkpt>
      <trkpt lat="47.27373" lon="1.52177">
        <ele>84.25</ele>
        <time>2015-08-16T18:35:19Z</time>
      </trkpt>
      <trkpt lat="47.27368" lon="1.5222">
        <ele>83.77</ele>
        <time>2015-08-16T18:35:32Z</time>
      </trkpt>
      <trkpt lat="47.2736" lon="1.52264">
        <ele>83.77</ele>
        <time>2015-08-16T18:35:46Z</time>
      </trkpt>
      <trkpt lat="47.2736" lon="1.52268">
        <ele>83.77</ele>
        <time>2015-08-16T18:35:47Z</time>
      </trkpt>
      <trkpt lat="47.2736" lon="1.52272">
        <ele>83.77</ele>
        <time>2015-08-16T18:35:48Z</time>
      </trkpt>
      <trkpt lat="47.27355" lon="1.52309">
        <ele>83.77</ele>
        <time>2015-08-16T18:35:59Z</time>
      </trkpt>
      <trkpt lat="47.27348" lon="1.52348">
        <ele>83.29</ele>
        <time>2015-08-16T18:36:10Z</time>
      </trkpt>
      <trkpt lat="47.27337" lon="1.52422">
        <ele>85.21</ele>
        <time>2015-08-16T18:36:22Z</time>
      </trkpt>
      <trkpt lat="47.27333" lon="1.52443">
        <ele>86.18</ele>
        <time>2015-08-16T18:36:26Z</time>
      </trkpt>
      <trkpt lat="47.27332" lon="1.52446">
        <ele>86.18</ele>
        <time>2015-08-16T18:36:27Z</time>
      </trkpt>
      <trkpt lat="47.27332" lon="1.52448">
        <ele>86.18</ele>
        <time>2015-08-16T18:36:28Z</time>
      </trkpt>
      <trkpt lat="47.27332" lon="1.52449">
        <ele>86.66</ele>
        <time>2015-08-16T18:36:36Z</time>
      </trkpt>
      <trkpt lat="47.27332" lon="1.52448">
        <ele>86.18</ele>
        <time>2015-08-16T18:36:51Z</time>
      </trkpt>
      <trkpt lat="47.27331" lon="1.52449">
        <ele>86.18</ele>
        <time>2015-08-16T18:37:20Z</time>
      </trkpt>
      <trkpt lat="47.27331" lon="1.52454">
        <ele>86.18</ele>
        <time>2015-08-16T18:37:32Z</time>
      </trkpt>
      <trkpt lat="47.2733" lon="1.52454">
        <ele>86.18</ele>
        <time>2015-08-16T18:37:33Z</time>
      </trkpt>
      <trkpt lat="47.27329" lon="1.52453">
        <ele>86.18</ele>
        <time>2015-08-16T18:37:34Z</time>
      </trkpt>
      <trkpt lat="47.27327" lon="1.52451">
        <ele>86.18</ele>
        <time>2015-08-16T18:37:36Z</time>
      </trkpt>
      <trkpt lat="47.27326" lon="1.5245">
        <ele>86.18</ele>
        <time>2015-08-16T18:37:37Z</time>
      </trkpt>
      <trkpt lat="47.27325" lon="1.52451">
        <ele>86.18</ele>
        <time>2015-08-16T18:37:39Z</time>
      </trkpt>
      <trkpt lat="47.27324" lon="1.52451">
        <ele>86.18</ele>
        <time>2015-08-16T18:37:40Z</time>
      </trkpt>
      <trkpt lat="47.27323" lon="1.52453">
        <ele>85.69</ele>
        <time>2015-08-16T18:37:41Z</time>
      </trkpt>
      <trkpt lat="47.27322" lon="1.52455">
        <ele>85.69</ele>
        <time>2015-08-16T18:37:42Z</time>
      </trkpt>
      <trkpt lat="47.27322" lon="1.52458">
        <ele>85.69</ele>
        <time>2015-08-16T18:37:43Z</time>
      </trkpt>
      <trkpt lat="47.27322" lon="1.52461">
        <ele>85.69</ele>
        <time>2015-08-16T18:37:44Z</time>
      </trkpt>
      <trkpt lat="47.27314" lon="1.52497">
        <ele>85.69</ele>
        <time>2015-08-16T18:37:57Z</time>
      </trkpt>
      <trkpt lat="47.27312" lon="1.525">
        <ele>85.69</ele>
        <time>2015-08-16T18:38:22Z</time>
      </trkpt>
      <trkpt lat="47.27311" lon="1.52501">
        <ele>85.69</ele>
        <time>2015-08-16T18:38:34Z</time>
      </trkpt>
      <trkpt lat="47.27304" lon="1.52555">
        <ele>85.21</ele>
        <time>2015-08-16T18:38:50Z</time>
      </trkpt>
      <trkpt lat="47.27299" lon="1.52616">
        <ele>85.21</ele>
        <time>2015-08-16T18:39:06Z</time>
      </trkpt>
      <trkpt lat="47.27298" lon="1.52671">
        <ele>85.21</ele>
        <time>2015-08-16T18:39:22Z</time>
      </trkpt>
      <trkpt lat="47.27297" lon="1.52721">
        <ele>84.73</ele>
        <time>2015-08-16T18:39:37Z</time>
      </trkpt>
      <trkpt lat="47.27297" lon="1.52777">
        <ele>84.73</ele>
        <time>2015-08-16T18:39:52Z</time>
      </trkpt>
      <trkpt lat="47.27297" lon="1.52831">
        <ele>84.73</ele>
        <time>2015-08-16T18:40:07Z</time>
      </trkpt>
      <trkpt lat="47.27299" lon="1.52881">
        <ele>84.73</ele>
        <time>2015-08-16T18:40:21Z</time>
      </trkpt>
      <trkpt lat="47.27303" lon="1.52924">
        <ele>84.73</ele>
        <time>2015-08-16T18:40:35Z</time>
      </trkpt>
      <trkpt lat="47.27306" lon="1.52959">
        <ele>84.73</ele>
        <time>2015-08-16T18:40:48Z</time>
      </trkpt>
      <trkpt lat="47.27307" lon="1.52969">
        <ele>84.73</ele>
        <time>2015-08-16T18:41:06Z</time>
      </trkpt>
      <trkpt lat="47.27305" lon="1.52971">
        <ele>84.73</ele>
        <time>2015-08-16T18:41:31Z</time>
      </trkpt>
      <trkpt lat="47.27305" lon="1.52972">
        <ele>84.25</ele>
        <time>2015-08-16T18:41:57Z</time>
      </trkpt>
      <trkpt lat="47.27303" lon="1.52972">
        <ele>84.25</ele>
        <time>2015-08-16T18:42:20Z</time>
      </trkpt>
      <trkpt lat="47.27304" lon="1.52974">
        <ele>84.25</ele>
        <time>2015-08-16T18:42:49Z</time>
      </trkpt>
      <trkpt lat="47.27304" lon="1.52974">
        <ele>84.25</ele>
        <time>2015-08-16T18:43:24Z</time>
      </trkpt>
      <trkpt lat="47.27306" lon="1.52973">
        <ele>84.25</ele>
        <time>2015-08-16T18:44:01Z</time>
      </trkpt>
      <trkpt lat="47.27307" lon="1.52974">
        <ele>83.77</ele>
        <time>2015-08-16T18:44:36Z</time>
      </trkpt>
      <trkpt lat="47.27307" lon="1.52972">
        <ele>83.77</ele>
        <time>2015-08-16T18:45:07Z</time>
      </trkpt>
      <trkpt lat="47.27307" lon="1.52972">
        <ele>83.77</ele>
        <time>2015-08-16T18:45:38Z</time>
      </trkpt>
      <trkpt lat="47.27307" lon="1.52973">
        <ele>84.25</ele>
        <time>2015-08-16T18:46:10Z</time>
      </trkpt>
      <trkpt lat="47.27307" lon="1.52974">
        <ele>83.77</ele>
        <time>2015-08-16T18:46:36Z</time>
      </trkpt>
      <trkpt lat="47.27307" lon="1.52975">
        <ele>83.77</ele>
        <time>2015-08-16T18:47:10Z</time>
      </trkpt>
      <trkpt lat="47.27307" lon="1.52973">
        <ele>83.77</ele>
        <time>2015-08-16T18:47:38Z</time>
      </trkpt>
      <trkpt lat="47.27308" lon="1.52973">
        <ele>83.77</ele>
        <time>2015-08-16T18:48:09Z</time>
      </trkpt>
      <trkpt lat="47.27307" lon="1.52971">
        <ele>83.77</ele>
        <time>2015-08-16T18:48:40Z</time>
      </trkpt>
      <trkpt lat="47.27306" lon="1.5297">
        <ele>83.29</ele>
        <time>2015-08-16T18:49:16Z</time>
      </trkpt>
      <trkpt lat="47.27307" lon="1.5297">
        <ele>83.29</ele>
        <time>2015-08-16T18:49:51Z</time>
      </trkpt>
      <trkpt lat="47.27307" lon="1.52971">
        <ele>83.29</ele>
        <time>2015-08-16T18:50:23Z</time>
      </trkpt>
      <trkpt lat="47.27306" lon="1.52973">
        <ele>83.29</ele>
        <time>2015-08-16T18:50:54Z</time>
      </trkpt>
      <trkpt lat="47.27306" lon="1.52974">
        <ele>83.29</ele>
        <time>2015-08-16T18:51:23Z</time>
      </trkpt>
      <trkpt lat="47.27306" lon="1.52975">
        <ele>83.29</ele>
        <time>2015-08-16T18:51:56Z</time>
      </trkpt>
      <trkpt lat="47.27307" lon="1.52973">
        <ele>82.81</ele>
        <time>2015-08-16T18:52:27Z</time>
      </trkpt>
      <trkpt lat="47.27307" lon="1.52974">
        <ele>82.81</ele>
        <time>2015-08-16T18:52:57Z</time>
      </trkpt>
      <trkpt lat="47.27307" lon="1.52976">
        <ele>82.33</ele>
        <time>2015-08-16T18:53:28Z</time>
      </trkpt>
      <trkpt lat="47.27307" lon="1.52976">
        <ele>82.33</ele>
        <time>2015-08-16T18:54:03Z</time>
      </trkpt>
      <trkpt lat="47.27308" lon="1.52977">
        <ele>82.33</ele>
        <time>2015-08-16T18:54:31Z</time>
      </trkpt>
      <trkpt lat="47.27308" lon="1.52975">
        <ele>82.33</ele>
        <time>2015-08-16T18:54:59Z</time>
      </trkpt>
      <trkpt lat="47.27311" lon="1.52976">
        <ele>82.33</ele>
        <time>2015-08-16T18:55:33Z</time>
      </trkpt>
      <trkpt lat="47.27308" lon="1.52973">
        <ele>82.33</ele>
        <time>2015-08-16T18:55:53Z</time>
      </trkpt>
      <trkpt lat="47.27311" lon="1.53001">
        <ele>82.33</ele>
        <time>2015-08-16T18:56:06Z</time>
      </trkpt>
      <trkpt lat="47.27315" lon="1.53057">
        <ele>82.33</ele>
        <time>2015-08-16T18:56:21Z</time>
      </trkpt>
      <trkpt lat="47.27321" lon="1.53126">
        <ele>82.33</ele>
        <time>2015-08-16T18:56:38Z</time>
      </trkpt>
      <trkpt lat="47.27328" lon="1.53194">
        <ele>82.33</ele>
        <time>2015-08-16T18:56:56Z</time>
      </trkpt>
      <trkpt lat="47.27335" lon="1.5325">
        <ele>82.33</ele>
        <time>2015-08-16T18:57:11Z</time>
      </trkpt>
      <trkpt lat="47.27342" lon="1.53315">
        <ele>82.33</ele>
        <time>2015-08-16T18:57:27Z</time>
      </trkpt>
      <trkpt lat="47.27351" lon="1.5337">
        <ele>81.85</ele>
        <time>2015-08-16T18:57:41Z</time>
      </trkpt>
      <trkpt lat="47.2736" lon="1.53444">
        <ele>82.33</ele>
        <time>2015-08-16T18:57:54Z</time>
      </trkpt>
      <trkpt lat="47.27363" lon="1.53457">
        <ele>82.81</ele>
        <time>2015-08-16T18:57:56Z</time>
      </trkpt>
      <trkpt lat="47.27368" lon="1.53487">
        <ele>84.25</ele>
        <time>2015-08-16T18:58:04Z</time>
      </trkpt>
      <trkpt lat="47.27368" lon="1.53488">
        <ele>84.25</ele>
        <time>2015-08-16T18:58:33Z</time>
      </trkpt>
      <trkpt lat="47.27368" lon="1.53489">
        <ele>84.25</ele>
        <time>2015-08-16T18:58:51Z</time>
      </trkpt>
      <trkpt lat="47.27375" lon="1.53526">
        <ele>83.77</ele>
        <time>2015-08-16T18:59:03Z</time>
      </trkpt>
      <trkpt lat="47.27377" lon="1.53544">
        <ele>83.77</ele>
        <time>2015-08-16T18:59:19Z</time>
      </trkpt>
      <trkpt lat="47.27377" lon="1.53544">
        <ele>83.77</ele>
        <time>2015-08-16T18:59:44Z</time>
      </trkpt>
      <trkpt lat="47.27384" lon="1.53585">
        <ele>84.73</ele>
        <time>2015-08-16T18:59:56Z</time>
      </trkpt>
      <trkpt lat="47.27398" lon="1.53657">
        <ele>85.21</ele>
        <time>2015-08-16T19:00:09Z</time>
      </trkpt>
      <trkpt lat="47.27427" lon="1.53716">
        <ele>85.69</ele>
        <time>2015-08-16T19:00:22Z</time>
      </trkpt>
      <trkpt lat="47.2745" lon="1.53742">
        <ele>85.69</ele>
        <time>2015-08-16T19:00:31Z</time>
      </trkpt>
      <trkpt lat="47.27472" lon="1.5376">
        <ele>86.18</ele>
        <time>2015-08-16T19:00:38Z</time>
      </trkpt>
      <trkpt lat="47.27492" lon="1.53778">
        <ele>87.62</ele>
        <time>2015-08-16T19:00:46Z</time>
      </trkpt>
      <trkpt lat="47.27494" lon="1.53778">
        <ele>87.62</ele>
        <time>2015-08-16T19:00:58Z</time>
      </trkpt>
      <trkpt lat="47.27496" lon="1.53806">
        <ele>87.62</ele>
        <time>2015-08-16T19:01:09Z</time>
      </trkpt>
      <trkpt lat="47.27501" lon="1.5387">
        <ele>87.14</ele>
        <time>2015-08-16T19:01:24Z</time>
      </trkpt>
      <trkpt lat="47.27505" lon="1.5394">
        <ele>86.18</ele>
        <time>2015-08-16T19:01:39Z</time>
      </trkpt>
      <trkpt lat="47.27513" lon="1.54022">
        <ele>85.21</ele>
        <time>2015-08-16T19:01:58Z</time>
      </trkpt>
      <trkpt lat="47.27521" lon="1.54088">
        <ele>84.25</ele>
        <time>2015-08-16T19:02:14Z</time>
      </trkpt>
      <trkpt lat="47.27526" lon="1.54138">
        <ele>83.29</ele>
        <time>2015-08-16T19:02:27Z</time>
      </trkpt>
      <trkpt lat="47.27534" lon="1.54191">
        <ele>82.81</ele>
        <time>2015-08-16T19:02:42Z</time>
      </trkpt>
      <trkpt lat="47.27534" lon="1.54194">
        <ele>81.85</ele>
        <time>2015-08-16T19:02:43Z</time>
      </trkpt>
      <trkpt lat="47.27535" lon="1.54196">
        <ele>81.85</ele>
        <time>2015-08-16T19:02:44Z</time>
      </trkpt>
      <trkpt lat="47.27535" lon="1.54198">
        <ele>81.85</ele>
        <time>2015-08-16T19:02:45Z</time>
      </trkpt>
      <trkpt lat="47.27536" lon="1.542">
        <ele>81.85</ele>
        <time>2015-08-16T19:02:46Z</time>
      </trkpt>
      <trkpt lat="47.27537" lon="1.54202">
        <ele>81.85</ele>
        <time>2015-08-16T19:02:47Z</time>
      </trkpt>
      <trkpt lat="47.27572" lon="1.54197">
        <ele>81.85</ele>
        <time>2015-08-16T19:02:58Z</time>
      </trkpt>
      <trkpt lat="47.27617" lon="1.54185">
        <ele>82.81</ele>
        <time>2015-08-16T19:03:08Z</time>
      </trkpt>
      <trkpt lat="47.27642" lon="1.54178">
        <ele>82.81</ele>
        <time>2015-08-16T19:03:14Z</time>
      </trkpt>
      <trkpt lat="47.27646" lon="1.54176">
        <ele>82.81</ele>
        <time>2015-08-16T19:03:15Z</time>
      </trkpt>
      <trkpt lat="47.2765" lon="1.54175">
        <ele>83.29</ele>
        <time>2015-08-16T19:03:16Z</time>
      </trkpt>
      <trkpt lat="47.27655" lon="1.54173">
        <ele>83.29</ele>
        <time>2015-08-16T19:03:17Z</time>
      </trkpt>
      <trkpt lat="47.27659" lon="1.54172">
        <ele>83.29</ele>
        <time>2015-08-16T19:03:18Z</time>
      </trkpt>
      <trkpt lat="47.27663" lon="1.54171">
        <ele>82.81</ele>
        <time>2015-08-16T19:03:19Z</time>
      </trkpt>
      <trkpt lat="47.27667" lon="1.54168">
        <ele>83.29</ele>
        <time>2015-08-16T19:03:20Z</time>
      </trkpt>
      <trkpt lat="47.2767" lon="1.54164">
        <ele>83.29</ele>
        <time>2015-08-16T19:03:21Z</time>
      </trkpt>
      <trkpt lat="47.27675" lon="1.54122">
        <ele>83.77</ele>
        <time>2015-08-16T19:03:31Z</time>
      </trkpt>
      <trkpt lat="47.27675" lon="1.54121">
        <ele>83.77</ele>
        <time>2015-08-16T19:03:37Z</time>
      </trkpt>
      <trkpt lat="47.27679" lon="1.54118">
        <ele>83.77</ele>
        <time>2015-08-16T19:03:53Z</time>
      </trkpt>
      <trkpt lat="47.27688" lon="1.54114">
        <ele>84.25</ele>
        <time>2015-08-16T19:03:59Z</time>
      </trkpt>
      <trkpt lat="47.27696" lon="1.54109">
        <ele>84.25</ele>
        <time>2015-08-16T19:04:04Z</time>
      </trkpt>
      <trkpt lat="47.27733" lon="1.54093">
        <ele>84.25</ele>
        <time>2015-08-16T19:04:23Z</time>
      </trkpt>
      <trkpt lat="47.2777" lon="1.54096">
        <ele>84.25</ele>
        <time>2015-08-16T19:04:40Z</time>
      </trkpt>
      <trkpt lat="47.278" lon="1.54109">
        <ele>84.25</ele>
        <time>2015-08-16T19:04:55Z</time>
      </trkpt>
      <trkpt lat="47.27826" lon="1.54135">
        <ele>83.77</ele>
        <time>2015-08-16T19:05:10Z</time>
      </trkpt>
      <trkpt lat="47.27848" lon="1.54171">
        <ele>83.77</ele>
        <time>2015-08-16T19:05:25Z</time>
      </trkpt>
      <trkpt lat="47.27863" lon="1.54224">
        <ele>84.25</ele>
        <time>2015-08-16T19:05:43Z</time>
      </trkpt>
      <trkpt lat="47.27867" lon="1.54274">
        <ele>83.77</ele>
        <time>2015-08-16T19:05:59Z</time>
      </trkpt>
      <trkpt lat="47.27862" lon="1.54325">
        <ele>83.77</ele>
        <time>2015-08-16T19:06:16Z</time>
      </trkpt>
      <trkpt lat="47.27851" lon="1.54375">
        <ele>83.77</ele>
        <time>2015-08-16T19:06:33Z</time>
      </trkpt>
      <trkpt lat="47.27842" lon="1.54416">
        <ele>83.77</ele>
        <time>2015-08-16T19:06:48Z</time>
      </trkpt>
      <trkpt lat="47.2784" lon="1.54422">
        <ele>83.77</ele>
        <time>2015-08-16T19:07:02Z</time>
      </trkpt>
      <trkpt lat="47.27838" lon="1.54428">
        <ele>84.25</ele>
        <time>2015-08-16T19:07:13Z</time>
      </trkpt>
      <trkpt lat="47.27836" lon="1.54431">
        <ele>84.25</ele>
        <time>2015-08-16T19:07:32Z</time>
      </trkpt>
      <trkpt lat="47.27836" lon="1.54431">
        <ele>86.66</ele>
        <time>2015-08-16T19:07:33Z</time>
      </trkpt>
      <trkpt lat="47.27836" lon="1.54432">
        <ele>80.89</ele>
        <time>2015-08-16T19:07:35Z</time>
      </trkpt>
      <trkpt lat="47.27836" lon="1.54432">
        <ele>84.25</ele>
        <time>2015-08-16T19:07:46Z</time>
      </trkpt>
      <trkpt lat="47.27837" lon="1.54434">
        <ele>83.77</ele>
        <time>2015-08-16T19:08:06Z</time>
      </trkpt>
      <trkpt lat="47.27838" lon="1.54432">
        <ele>83.77</ele>
        <time>2015-08-16T19:08:38Z</time>
      </trkpt>
      <trkpt lat="47.27834" lon="1.54455">
        <ele>83.77</ele>
        <time>2015-08-16T19:08:51Z</time>
      </trkpt>
      <trkpt lat="47.27824" lon="1.54503">
        <ele>83.77</ele>
        <time>2015-08-16T19:09:07Z</time>
      </trkpt>
      <trkpt lat="47.27814" lon="1.54546">
        <ele>83.77</ele>
        <time>2015-08-16T19:09:21Z</time>
      </trkpt>
      <trkpt lat="47.27807" lon="1.54603">
        <ele>83.77</ele>
        <time>2015-08-16T19:09:39Z</time>
      </trkpt>
      <trkpt lat="47.27808" lon="1.54652">
        <ele>83.77</ele>
        <time>2015-08-16T19:09:54Z</time>
      </trkpt>
      <trkpt lat="47.27816" lon="1.54701">
        <ele>83.77</ele>
        <time>2015-08-16T19:10:11Z</time>
      </trkpt>
      <trkpt lat="47.27835" lon="1.54753">
        <ele>83.77</ele>
        <time>2015-08-16T19:10:29Z</time>
      </trkpt>
      <trkpt lat="47.27865" lon="1.54801">
        <ele>84.25</ele>
        <time>2015-08-16T19:10:48Z</time>
      </trkpt>
      <trkpt lat="47.27888" lon="1.54834">
        <ele>84.25</ele>
        <time>2015-08-16T19:11:03Z</time>
      </trkpt>
      <trkpt lat="47.27889" lon="1.54836">
        <ele>84.25</ele>
        <time>2015-08-16T19:11:04Z</time>
      </trkpt>
      <trkpt lat="47.2789" lon="1.54837">
        <ele>84.25</ele>
        <time>2015-08-16T19:11:05Z</time>
      </trkpt>
      <trkpt lat="47.27891" lon="1.54838">
        <ele>84.25</ele>
        <time>2015-08-16T19:11:06Z</time>
      </trkpt>
      <trkpt lat="47.27892" lon="1.54839">
        <ele>84.25</ele>
        <time>2015-08-16T19:11:07Z</time>
      </trkpt>
      <trkpt lat="47.27893" lon="1.5484">
        <ele>84.25</ele>
        <time>2015-08-16T19:11:08Z</time>
      </trkpt>
      <trkpt lat="47.27893" lon="1.54842">
        <ele>84.25</ele>
        <time>2015-08-16T19:11:27Z</time>
      </trkpt>
      <trkpt lat="47.27893" lon="1.54842">
        <ele>83.77</ele>
        <time>2015-08-16T19:11:51Z</time>
      </trkpt>
      <trkpt lat="47.27893" lon="1.54841">
        <ele>83.77</ele>
        <time>2015-08-16T19:12:20Z</time>
      </trkpt>
      <trkpt lat="47.27893" lon="1.54841">
        <ele>83.77</ele>
        <time>2015-08-16T19:12:44Z</time>
      </trkpt>
      <trkpt lat="47.27892" lon="1.54841">
        <ele>84.25</ele>
        <time>2015-08-16T19:13:11Z</time>
      </trkpt>
      <trkpt lat="47.27892" lon="1.54841">
        <ele>83.77</ele>
        <time>2015-08-16T19:13:35Z</time>
      </trkpt>
      <trkpt lat="47.27892" lon="1.54841">
        <ele>84.25</ele>
        <time>2015-08-16T19:13:59Z</time>
      </trkpt>
      <trkpt lat="47.27891" lon="1.54837">
        <ele>84.25</ele>
        <time>2015-08-16T19:14:15Z</time>
      </trkpt>
      <trkpt lat="47.27892" lon="1.54835">
        <ele>84.25</ele>
        <time>2015-08-16T19:14:16Z</time>
      </trkpt>
      <trkpt lat="47.27893" lon="1.54834">
        <ele>84.25</ele>
        <time>2015-08-16T19:14:17Z</time>
      </trkpt>
      <trkpt lat="47.27894" lon="1.54835">
        <ele>84.25</ele>
        <time>2015-08-16T19:14:18Z</time>
      </trkpt>
      <trkpt lat="47.27894" lon="1.54836">
        <ele>84.25</ele>
        <time>2015-08-16T19:14:19Z</time>
      </trkpt>
      <trkpt lat="47.27895" lon="1.54841">
        <ele>84.25</ele>
        <time>2015-08-16T19:14:23Z</time>
      </trkpt>
      <trkpt lat="47.27905" lon="1.5485">
        <ele>83.77</ele>
        <time>2015-08-16T19:14:38Z</time>
      </trkpt>
      <trkpt lat="47.27906" lon="1.54852">
        <ele>84.25</ele>
        <time>2015-08-16T19:14:39Z</time>
      </trkpt>
      <trkpt lat="47.27905" lon="1.54852">
        <ele>83.77</ele>
        <time>2015-08-16T19:14:51Z</time>
      </trkpt>
      <trkpt lat="47.27888" lon="1.54885">
        <ele>83.77</ele>
        <time>2015-08-16T19:15:06Z</time>
      </trkpt>
      <trkpt lat="47.27882" lon="1.54913">
        <ele>83.77</ele>
        <time>2015-08-16T19:15:18Z</time>
      </trkpt>
      <trkpt lat="47.27898" lon="1.54956">
        <ele>84.25</ele>
        <time>2015-08-16T19:15:32Z</time>
      </trkpt>
      <trkpt lat="47.27929" lon="1.54995">
        <ele>83.77</ele>
        <time>2015-08-16T19:15:48Z</time>
      </trkpt>
      <trkpt lat="47.27955" lon="1.55015">
        <ele>83.77</ele>
        <time>2015-08-16T19:16:02Z</time>
      </trkpt>
      <trkpt lat="47.2798" lon="1.55024">
        <ele>80.89</ele>
        <time>2015-08-16T19:16:16Z</time>
      </trkpt>
      <trkpt lat="47.28" lon="1.55062">
        <ele>80.41</ele>
        <time>2015-08-16T19:16:28Z</time>
      </trkpt>
      <trkpt lat="47.27989" lon="1.55132">
        <ele>79.93</ele>
        <time>2015-08-16T19:16:42Z</time>
      </trkpt>
      <trkpt lat="47.27967" lon="1.55206">
        <ele>79.93</ele>
        <time>2015-08-16T19:16:58Z</time>
      </trkpt>
      <trkpt lat="47.27942" lon="1.55289">
        <ele>79.93</ele>
        <time>2015-08-16T19:17:14Z</time>
      </trkpt>
      <trkpt lat="47.27927" lon="1.55346">
        <ele>80.41</ele>
        <time>2015-08-16T19:17:25Z</time>
      </trkpt>
      <trkpt lat="47.27913" lon="1.55431">
        <ele>79.93</ele>
        <time>2015-08-16T19:17:43Z</time>
      </trkpt>
      <trkpt lat="47.2791" lon="1.55531">
        <ele>79.45</ele>
        <time>2015-08-16T19:18:01Z</time>
      </trkpt>
      <trkpt lat="47.27905" lon="1.55613">
        <ele>78.48</ele>
        <time>2015-08-16T19:18:17Z</time>
      </trkpt>
      <trkpt lat="47.27902" lon="1.55672">
        <ele>78.48</ele>
        <time>2015-08-16T19:18:30Z</time>
      </trkpt>
      <trkpt lat="47.27898" lon="1.5573">
        <ele>77.52</ele>
        <time>2015-08-16T19:18:45Z</time>
      </trkpt>
      <trkpt lat="47.27897" lon="1.55733">
        <ele>77.52</ele>
        <time>2015-08-16T19:18:46Z</time>
      </trkpt>
      <trkpt lat="47.27897" lon="1.55737">
        <ele>77.04</ele>
        <time>2015-08-16T19:18:47Z</time>
      </trkpt>
      <trkpt lat="47.27896" lon="1.5574">
        <ele>77.04</ele>
        <time>2015-08-16T19:18:48Z</time>
      </trkpt>
      <trkpt lat="47.27896" lon="1.55743">
        <ele>77.52</ele>
        <time>2015-08-16T19:18:49Z</time>
      </trkpt>
      <trkpt lat="47.27896" lon="1.55745">
        <ele>78</ele>
        <time>2015-08-16T19:18:50Z</time>
      </trkpt>
      <trkpt lat="47.27895" lon="1.55748">
        <ele>77.04</ele>
        <time>2015-08-16T19:18:51Z</time>
      </trkpt>
      <trkpt lat="47.27891" lon="1.55752">
        <ele>77.04</ele>
        <time>2015-08-16T19:18:58Z</time>
      </trkpt>
      <trkpt lat="47.27889" lon="1.55751">
        <ele>77.04</ele>
        <time>2015-08-16T19:18:59Z</time>
      </trkpt>
      <trkpt lat="47.27887" lon="1.55751">
        <ele>77.04</ele>
        <time>2015-08-16T19:19:00Z</time>
      </trkpt>
      <trkpt lat="47.27886" lon="1.55751">
        <ele>77.04</ele>
        <time>2015-08-16T19:19:01Z</time>
      </trkpt>
      <trkpt lat="47.27885" lon="1.55751">
        <ele>77.04</ele>
        <time>2015-08-16T19:19:02Z</time>
      </trkpt>
      <trkpt lat="47.27882" lon="1.55751">
        <ele>77.04</ele>
        <time>2015-08-16T19:19:04Z</time>
      </trkpt>
      <trkpt lat="47.27882" lon="1.55753">
        <ele>77.04</ele>
        <time>2015-08-16T19:19:06Z</time>
      </trkpt>
      <trkpt lat="47.27871" lon="1.55768">
        <ele>77.52</ele>
        <time>2015-08-16T19:19:17Z</time>
      </trkpt>
      <trkpt lat="47.27831" lon="1.55783">
        <ele>78.97</ele>
        <time>2015-08-16T19:19:32Z</time>
      </trkpt>
      <trkpt lat="47.27828" lon="1.55784">
        <ele>78.97</ele>
        <time>2015-08-16T19:19:33Z</time>
      </trkpt>
      <trkpt lat="47.27826" lon="1.55785">
        <ele>78.97</ele>
        <time>2015-08-16T19:19:34Z</time>
      </trkpt>
      <trkpt lat="47.27824" lon="1.55786">
        <ele>78.97</ele>
        <time>2015-08-16T19:19:35Z</time>
      </trkpt>
      <trkpt lat="47.27823" lon="1.55786">
        <ele>78.97</ele>
        <time>2015-08-16T19:19:36Z</time>
      </trkpt>
      <trkpt lat="47.27821" lon="1.55786">
        <ele>78.97</ele>
        <time>2015-08-16T19:19:37Z</time>
      </trkpt>
      <trkpt lat="47.2782" lon="1.55786">
        <ele>78.97</ele>
        <time>2015-08-16T19:19:38Z</time>
      </trkpt>
      <trkpt lat="47.2782" lon="1.55786">
        <ele>78.97</ele>
        <time>2015-08-16T19:19:45Z</time>
      </trkpt>
      <trkpt lat="47.2782" lon="1.55786">
        <ele>78.97</ele>
        <time>2015-08-16T19:20:08Z</time>
      </trkpt>
      <trkpt lat="47.2782" lon="1.55783">
        <ele>78.97</ele>
        <time>2015-08-16T19:20:39Z</time>
      </trkpt>
      <trkpt lat="47.27819" lon="1.55783">
        <ele>78.97</ele>
        <time>2015-08-16T19:21:06Z</time>
      </trkpt>
      <trkpt lat="47.27788" lon="1.55794">
        <ele>79.45</ele>
        <time>2015-08-16T19:21:21Z</time>
      </trkpt>
      <trkpt lat="47.27786" lon="1.55794">
        <ele>79.45</ele>
        <time>2015-08-16T19:21:22Z</time>
      </trkpt>
      <trkpt lat="47.27784" lon="1.55794">
        <ele>79.45</ele>
        <time>2015-08-16T19:21:23Z</time>
      </trkpt>
      <trkpt lat="47.27782" lon="1.55793">
        <ele>79.45</ele>
        <time>2015-08-16T19:21:24Z</time>
      </trkpt>
      <trkpt lat="47.2778" lon="1.55791">
        <ele>79.45</ele>
        <time>2015-08-16T19:21:25Z</time>
      </trkpt>
      <trkpt lat="47.27778" lon="1.55789">
        <ele>79.45</ele>
        <time>2015-08-16T19:21:26Z</time>
      </trkpt>
      <trkpt lat="47.27777" lon="1.55787">
        <ele>78.97</ele>
        <time>2015-08-16T19:21:27Z</time>
      </trkpt>
      <trkpt lat="47.27776" lon="1.55785">
        <ele>78.97</ele>
        <time>2015-08-16T19:21:28Z</time>
      </trkpt>
      <trkpt lat="47.27775" lon="1.55782">
        <ele>78.97</ele>
        <time>2015-08-16T19:21:29Z</time>
      </trkpt>
      <trkpt lat="47.27773" lon="1.5578">
        <ele>78.97</ele>
        <time>2015-08-16T19:21:30Z</time>
      </trkpt>
      <trkpt lat="47.27771" lon="1.55778">
        <ele>78.97</ele>
        <time>2015-08-16T19:21:31Z</time>
      </trkpt>
      <trkpt lat="47.27769" lon="1.55779">
        <ele>78.97</ele>
        <time>2015-08-16T19:21:32Z</time>
      </trkpt>
      <trkpt lat="47.27767" lon="1.5578">
        <ele>78.97</ele>
        <time>2015-08-16T19:21:33Z</time>
      </trkpt>
      <trkpt lat="47.27765" lon="1.55782">
        <ele>78.97</ele>
        <time>2015-08-16T19:21:34Z</time>
      </trkpt>
      <trkpt lat="47.27763" lon="1.55785">
        <ele>78.97</ele>
        <time>2015-08-16T19:21:35Z</time>
      </trkpt>
      <trkpt lat="47.27762" lon="1.55788">
        <ele>78.97</ele>
        <time>2015-08-16T19:21:36Z</time>
      </trkpt>
      <trkpt lat="47.27735" lon="1.558">
        <ele>79.45</ele>
        <time>2015-08-16T19:21:45Z</time>
      </trkpt>
      <trkpt lat="47.27671" lon="1.55821">
        <ele>79.45</ele>
        <time>2015-08-16T19:22:05Z</time>
      </trkpt>
      <trkpt lat="47.27631" lon="1.55834">
        <ele>78.97</ele>
        <time>2015-08-16T19:22:19Z</time>
      </trkpt>
      <trkpt lat="47.2763" lon="1.55835">
        <ele>78.97</ele>
        <time>2015-08-16T19:22:20Z</time>
      </trkpt>
      <trkpt lat="47.27628" lon="1.55836">
        <ele>78.97</ele>
        <time>2015-08-16T19:22:21Z</time>
      </trkpt>
      <trkpt lat="47.27624" lon="1.5584">
        <ele>78.97</ele>
        <time>2015-08-16T19:22:29Z</time>
      </trkpt>
      <trkpt lat="47.27624" lon="1.55841">
        <ele>78.97</ele>
        <time>2015-08-16T19:22:30Z</time>
      </trkpt>
      <trkpt lat="47.27627" lon="1.55845">
        <ele>78.97</ele>
        <time>2015-08-16T19:22:33Z</time>
      </trkpt>
      <trkpt lat="47.27628" lon="1.55845">
        <ele>78.97</ele>
        <time>2015-08-16T19:22:34Z</time>
      </trkpt>
      <trkpt lat="47.27629" lon="1.55849">
        <ele>78.97</ele>
        <time>2015-08-16T19:22:46Z</time>
      </trkpt>
      <trkpt lat="47.27628" lon="1.5585">
        <ele>78.97</ele>
        <time>2015-08-16T19:23:06Z</time>
      </trkpt>
      <trkpt lat="47.27582" lon="1.55866">
        <ele>78.97</ele>
        <time>2015-08-16T19:23:22Z</time>
      </trkpt>
      <trkpt lat="47.27524" lon="1.55887">
        <ele>78.48</ele>
        <time>2015-08-16T19:23:39Z</time>
      </trkpt>
      <trkpt lat="47.2748" lon="1.55903">
        <ele>78.48</ele>
        <time>2015-08-16T19:23:53Z</time>
      </trkpt>
      <trkpt lat="47.27424" lon="1.55925">
        <ele>78.48</ele>
        <time>2015-08-16T19:24:10Z</time>
      </trkpt>
      <trkpt lat="47.27379" lon="1.55943">
        <ele>78.48</ele>
        <time>2015-08-16T19:24:25Z</time>
      </trkpt>
      <trkpt lat="47.27376" lon="1.55944">
        <ele>78.48</ele>
        <time>2015-08-16T19:24:26Z</time>
      </trkpt>
      <trkpt lat="47.27374" lon="1.55945">
        <ele>78.48</ele>
        <time>2015-08-16T19:24:27Z</time>
      </trkpt>
      <trkpt lat="47.27373" lon="1.55946">
        <ele>78.48</ele>
        <time>2015-08-16T19:24:28Z</time>
      </trkpt>
      <trkpt lat="47.27371" lon="1.55945">
        <ele>78.48</ele>
        <time>2015-08-16T19:24:29Z</time>
      </trkpt>
      <trkpt lat="47.27355" lon="1.55961">
        <ele>78.48</ele>
        <time>2015-08-16T19:24:41Z</time>
      </trkpt>
      <trkpt lat="47.27324" lon="1.5599">
        <ele>79.93</ele>
        <time>2015-08-16T19:24:53Z</time>
      </trkpt>
      <trkpt lat="47.27291" lon="1.5597">
        <ele>78</ele>
        <time>2015-08-16T19:25:03Z</time>
      </trkpt>
      <trkpt lat="47.27248" lon="1.55987">
        <ele>77.52</ele>
        <time>2015-08-16T19:25:16Z</time>
      </trkpt>
      <trkpt lat="47.27225" lon="1.56054">
        <ele>77.04</ele>
        <time>2015-08-16T19:25:29Z</time>
      </trkpt>
      <trkpt lat="47.2722" lon="1.56071">
        <ele>77.04</ele>
        <time>2015-08-16T19:25:32Z</time>
      </trkpt>
      <trkpt lat="47.27201" lon="1.56137">
        <ele>77.52</ele>
        <time>2015-08-16T19:25:45Z</time>
      </trkpt>
      <trkpt lat="47.272" lon="1.56141">
        <ele>77.52</ele>
        <time>2015-08-16T19:25:46Z</time>
      </trkpt>
      <trkpt lat="47.27199" lon="1.56144">
        <ele>77.04</ele>
        <time>2015-08-16T19:25:47Z</time>
      </trkpt>
      <trkpt lat="47.27198" lon="1.56147">
        <ele>77.04</ele>
        <time>2015-08-16T19:25:48Z</time>
      </trkpt>
      <trkpt lat="47.27197" lon="1.5615">
        <ele>77.52</ele>
        <time>2015-08-16T19:25:49Z</time>
      </trkpt>
      <trkpt lat="47.27197" lon="1.56153">
        <ele>77.04</ele>
        <time>2015-08-16T19:25:50Z</time>
      </trkpt>
      <trkpt lat="47.27197" lon="1.56155">
        <ele>77.04</ele>
        <time>2015-08-16T19:25:51Z</time>
      </trkpt>
      <trkpt lat="47.27198" lon="1.56157">
        <ele>77.52</ele>
        <time>2015-08-16T19:25:52Z</time>
      </trkpt>
      <trkpt lat="47.27197" lon="1.56157">
        <ele>77.52</ele>
        <time>2015-08-16T19:26:08Z</time>
      </trkpt>
      <trkpt lat="47.27197" lon="1.56157">
        <ele>77.52</ele>
        <time>2015-08-16T19:26:33Z</time>
      </trkpt>
      <trkpt lat="47.27194" lon="1.56156">
        <ele>77.52</ele>
        <time>2015-08-16T19:27:00Z</time>
      </trkpt>
      <trkpt lat="47.27188" lon="1.56157">
        <ele>77.52</ele>
        <time>2015-08-16T19:27:12Z</time>
      </trkpt>
      <trkpt lat="47.27187" lon="1.56158">
        <ele>77.52</ele>
        <time>2015-08-16T19:27:13Z</time>
      </trkpt>
      <trkpt lat="47.27169" lon="1.56203">
        <ele>77.52</ele>
        <time>2015-08-16T19:27:26Z</time>
      </trkpt>
      <trkpt lat="47.2715" lon="1.56268">
        <ele>77.52</ele>
        <time>2015-08-16T19:27:42Z</time>
      </trkpt>
      <trkpt lat="47.27131" lon="1.56319">
        <ele>77.52</ele>
        <time>2015-08-16T19:27:57Z</time>
      </trkpt>
      <trkpt lat="47.27129" lon="1.56324">
        <ele>77.52</ele>
        <time>2015-08-16T19:27:58Z</time>
      </trkpt>
      <trkpt lat="47.27127" lon="1.56328">
        <ele>77.52</ele>
        <time>2015-08-16T19:27:59Z</time>
      </trkpt>
      <trkpt lat="47.27125" lon="1.56333">
        <ele>78</ele>
        <time>2015-08-16T19:28:00Z</time>
      </trkpt>
      <trkpt lat="47.27123" lon="1.56338">
        <ele>78</ele>
        <time>2015-08-16T19:28:01Z</time>
      </trkpt>
      <trkpt lat="47.27121" lon="1.56343">
        <ele>77.52</ele>
        <time>2015-08-16T19:28:02Z</time>
      </trkpt>
      <trkpt lat="47.27105" lon="1.56379">
        <ele>77.52</ele>
        <time>2015-08-16T19:28:09Z</time>
      </trkpt>
      <trkpt lat="47.27087" lon="1.56467">
        <ele>77.52</ele>
        <time>2015-08-16T19:28:25Z</time>
      </trkpt>
      <trkpt lat="47.27086" lon="1.56557">
        <ele>77.52</ele>
        <time>2015-08-16T19:28:41Z</time>
      </trkpt>
      <trkpt lat="47.27076" lon="1.56633">
        <ele>78.48</ele>
        <time>2015-08-16T19:28:55Z</time>
      </trkpt>
      <trkpt lat="47.27072" lon="1.56682">
        <ele>76</ele>
        <time>2015-08-16T19:29:18.82Z</time>
      </trkpt>
      <trkpt lat="47.27072" lon="1.56682">
        <ele>76</ele>
        <time>2015-08-16T19:29:19.46Z</time>
      </trkpt>
      <trkpt lat="47.27072" lon="1.56693">
        <ele>76</ele>
        <time>2015-08-16T19:29:24.55Z</time>
      </trkpt>
      <trkpt lat="47.27072" lon="1.5672">
        <ele>76</ele>
        <time>2015-08-16T19:29:37.88Z</time>
      </trkpt>
      <trkpt lat="47.27072" lon="1.5674">
        <ele>76</ele>
        <time>2015-08-16T19:29:47.10Z</time>
      </trkpt>
      <trkpt lat="47.27072" lon="1.5677">
        <ele>76</ele>
        <time>2015-08-16T19:30:01.46Z</time>
      </trkpt>
      <trkpt lat="47.27072" lon="1.56791">
        <ele>76</ele>
        <time>2015-08-16T19:30:11.71Z</time>
      </trkpt>
      <trkpt lat="47.27072" lon="1.56811">
        <ele>76</ele>
        <time>2015-08-16T19:30:20.94Z</time>
      </trkpt>
      <trkpt lat="47.27074" lon="1.56832">
        <ele>76</ele>
        <time>2015-08-16T19:30:31.30Z</time>
      </trkpt>
      <trkpt lat="47.27076" lon="1.56853">
        <ele>76</ele>
        <time>2015-08-16T19:30:41.66Z</time>
      </trkpt>
      <trkpt lat="47.2708" lon="1.56886">
        <ele>76</ele>
        <time>2015-08-16T19:30:57.33Z</time>
      </trkpt>
      <trkpt lat="47.27082" lon="1.56914">
        <ele>76</ele>
        <time>2015-08-16T19:31:10.74Z</time>
      </trkpt>
      <trkpt lat="47.27087" lon="1.56937">
        <ele>76</ele>
        <time>2015-08-16T19:31:22.42Z</time>
      </trkpt>
      <trkpt lat="47.27087" lon="1.56948">
        <ele>76</ele>
        <time>2015-08-16T19:31:27.54Z</time>
      </trkpt>
      <trkpt lat="47.27087" lon="1.56963">
        <ele>76</ele>
        <time>2015-08-16T19:31:34.72Z</time>
      </trkpt>
      <trkpt lat="47.27087" lon="1.56982">
        <ele>76</ele>
        <time>2015-08-16T19:31:43.95Z</time>
      </trkpt>
      <trkpt lat="47.27082" lon="1.57019">
        <ele>76</ele>
        <time>2015-08-16T19:32:01.64Z</time>
      </trkpt>
      <trkpt lat="47.27078" lon="1.57057">
        <ele>76</ele>
        <time>2015-08-16T19:32:20.33Z</time>
      </trkpt>
      <trkpt lat="47.27067" lon="1.5713">
        <ele>76</ele>
        <time>2015-08-16T19:32:56Z</time>
      </trkpt>
      <trkpt lat="47.27059" lon="1.5718">
        <ele>76.2</ele>
        <time>2015-08-16T19:33:20.34Z</time>
      </trkpt>
      <trkpt lat="47.27054" lon="1.57214">
        <ele>76.36</ele>
        <time>2015-08-16T19:33:37.02Z</time>
      </trkpt>
      <trkpt lat="47.27048" lon="1.57238">
        <ele>76.59</ele>
        <time>2015-08-16T19:33:49.17Z</time>
      </trkpt>
      <trkpt lat="47.27048" lon="1.57244">
        <ele>76.68</ele>
        <time>2015-08-16T19:33:52.25Z</time>
      </trkpt>
      <trkpt lat="47.27039" lon="1.57287">
        <ele>77</ele>
        <time>2015-08-16T19:34:13.62Z</time>
      </trkpt>
      <trkpt lat="47.27031" lon="1.57328">
        <ele>78</ele>
        <time>2015-08-16T19:34:34.02Z</time>
      </trkpt>
      <trkpt lat="47.27016" lon="1.57377">
        <ele>78</ele>
        <time>2015-08-16T19:34:59.86Z</time>
      </trkpt>
      <trkpt lat="47.27005" lon="1.57426">
        <ele>78</ele>
        <time>2015-08-16T19:35:24.62Z</time>
      </trkpt>
      <trkpt lat="47.27003" lon="1.57441">
        <ele>78</ele>
        <time>2015-08-16T19:35:31.95Z</time>
      </trkpt>
      <trkpt lat="47.27001" lon="1.57454">
        <ele>78</ele>
        <time>2015-08-16T19:35:38.29Z</time>
      </trkpt>
      <trkpt lat="47.26996" lon="1.57467">
        <ele>78</ele>
        <time>2015-08-16T19:35:45.14Z</time>
      </trkpt>
      <trkpt lat="47.26994" lon="1.5748">
        <ele>78</ele>
        <time>2015-08-16T19:35:51.48Z</time>
      </trkpt>
      <trkpt lat="47.2699" lon="1.57493">
        <ele>78</ele>
        <time>2015-08-16T19:35:58.33Z</time>
      </trkpt>
      <trkpt lat="47.26986" lon="1.57508">
        <ele>78</ele>
        <time>2015-08-16T19:36:06.12Z</time>
      </trkpt>
      <trkpt lat="47.26979" lon="1.57527">
        <ele>78</ele>
        <time>2015-08-16T19:36:16.40Z</time>
      </trkpt>
      <trkpt lat="47.26973" lon="1.57551">
        <ele>77.71</ele>
        <time>2015-08-16T19:36:28.55Z</time>
      </trkpt>
      <trkpt lat="47.26971" lon="1.57564">
        <ele>77.25</ele>
        <time>2015-08-16T19:36:34.88Z</time>
      </trkpt>
      <trkpt lat="47.26969" lon="1.57587">
        <ele>77</ele>
        <time>2015-08-16T19:36:46.26Z</time>
      </trkpt>
      <trkpt lat="47.26966" lon="1.57609">
        <ele>77</ele>
        <time>2015-08-16T19:36:56.62Z</time>
      </trkpt>
      <trkpt lat="47.26966" lon="1.5763">
        <ele>77</ele>
        <time>2015-08-16T19:37:06.88Z</time>
      </trkpt>
      <trkpt lat="47.26969" lon="1.57654">
        <ele>77</ele>
        <time>2015-08-16T19:37:18.25Z</time>
      </trkpt>
      <trkpt lat="47.26969" lon="1.57671">
        <ele>77</ele>
        <time>2015-08-16T19:37:26.46Z</time>
      </trkpt>
      <trkpt lat="47.26969" lon="1.57684">
        <ele>77</ele>
        <time>2015-08-16T19:37:32.61Z</time>
      </trkpt>
      <trkpt lat="47.26966" lon="1.57697">
        <ele>77</ele>
        <time>2015-08-16T19:37:38.94Z</time>
      </trkpt>
      <trkpt lat="47.26962" lon="1.57723">
        <ele>77</ele>
        <time>2015-08-16T19:37:51.61Z</time>
      </trkpt>
      <trkpt lat="47.26945" lon="1.57815">
        <ele>77</ele>
        <time>2015-08-16T19:38:37.32Z</time>
      </trkpt>
      <trkpt lat="47.26932" lon="1.57883">
        <ele>77</ele>
        <time>2015-08-16T19:39:11.35Z</time>
      </trkpt>
      <trkpt lat="47.26921" lon="1.5795">
        <ele>77</ele>
        <time>2015-08-16T19:39:44.02Z</time>
      </trkpt>
      <trkpt lat="47.26917" lon="1.57978">
        <ele>77</ele>
        <time>2015-08-16T19:39:57.69Z</time>
      </trkpt>
      <trkpt lat="47.26913" lon="1.58019">
        <ele>77</ele>
        <time>2015-08-16T19:40:17.40Z</time>
      </trkpt>
      <trkpt lat="47.26908" lon="1.58053">
        <ele>77</ele>
        <time>2015-08-16T19:40:34.08Z</time>
      </trkpt>
      <trkpt lat="47.26904" lon="1.58083">
        <ele>77</ele>
        <time>2015-08-16T19:40:48.75Z</time>
      </trkpt>
      <trkpt lat="47.26898" lon="1.58135">
        <ele>77</ele>
        <time>2015-08-16T19:41:13.76Z</time>
      </trkpt>
      <trkpt lat="47.26891" lon="1.58173">
        <ele>77</ele>
        <time>2015-08-16T19:41:32.77Z</time>
      </trkpt>
      <trkpt lat="47.26889" lon="1.58201">
        <ele>77</ele>
        <time>2015-08-16T19:41:46.18Z</time>
      </trkpt>
      <trkpt lat="47.26889" lon="1.58222">
        <ele>77</ele>
        <time>2015-08-16T19:41:56.43Z</time>
      </trkpt>
      <trkpt lat="47.26889" lon="1.58242">
        <ele>77</ele>
        <time>2015-08-16T19:42:05.66Z</time>
      </trkpt>
      <trkpt lat="47.26889" lon="1.58278">
        <ele>77</ele>
        <time>2015-08-16T19:42:23.09Z</time>
      </trkpt>
      <trkpt lat="47.26891" lon="1.58323">
        <ele>77</ele>
        <time>2015-08-16T19:42:44.67Z</time>
      </trkpt>
      <trkpt lat="47.26891" lon="1.58349">
        <ele>77.03</ele>
        <time>2015-08-16T19:42:56.97Z</time>
      </trkpt>
      <trkpt lat="47.26891" lon="1.58371">
        <ele>77.63</ele>
        <time>2015-08-16T19:43:07.22Z</time>
      </trkpt>
      <trkpt lat="47.26891" lon="1.5839">
        <ele>77.89</ele>
        <time>2015-08-16T19:43:16.45Z</time>
      </trkpt>
      <trkpt lat="47.26889" lon="1.58409">
        <ele>78</ele>
        <time>2015-08-16T19:43:25.80Z</time>
      </trkpt>
      <trkpt lat="47.26885" lon="1.58428">
        <ele>78</ele>
        <time>2015-08-16T19:43:35.51Z</time>
      </trkpt>
      <trkpt lat="47.26878" lon="1.58465">
        <ele>78</ele>
        <time>2015-08-16T19:43:53.52Z</time>
      </trkpt>
      <trkpt lat="47.26863" lon="1.58542">
        <ele>78</ele>
        <time>2015-08-16T19:44:31.91Z</time>
      </trkpt>
      <trkpt lat="47.26836" lon="1.58658">
        <ele>78</ele>
        <time>2015-08-16T19:45:30.65Z</time>
      </trkpt>
      <trkpt lat="47.26803" lon="1.58806">
        <ele>79</ele>
        <time>2015-08-16T19:46:44.94Z</time>
      </trkpt>
      <trkpt lat="47.26784" lon="1.58898">
        <ele>79</ele>
        <time>2015-08-16T19:47:31.07Z</time>
      </trkpt>
      <trkpt lat="47.26775" lon="1.58943">
        <ele>79</ele>
        <time>2015-08-16T19:47:53.43Z</time>
      </trkpt>
      <trkpt lat="47.26743" lon="1.59096">
        <ele>79</ele>
        <time>2015-08-16T19:49:09.67Z</time>
      </trkpt>
      <trkpt lat="47.26722" lon="1.59201">
        <ele>79</ele>
        <time>2015-08-16T19:50:02.13Z</time>
      </trkpt>
      <trkpt lat="47.26718" lon="1.59222">
        <ele>79</ele>
        <time>2015-08-16T19:50:12.82Z</time>
      </trkpt>
      <trkpt lat="47.26711" lon="1.59242">
        <ele>79</ele>
        <time>2015-08-16T19:50:23.10Z</time>
      </trkpt>
      <trkpt lat="47.26694" lon="1.59298">
        <ele>79</ele>
        <time>2015-08-16T19:50:52.37Z</time>
      </trkpt>
      <trkpt lat="47.2669" lon="1.5931">
        <ele>79</ele>
        <time>2015-08-16T19:50:59.22Z</time>
      </trkpt>
      <trkpt lat="47.2669" lon="1.59315">
        <ele>79</ele>
        <time>2015-08-16T19:51:01.27Z</time>
      </trkpt>
      <trkpt lat="47.26687" lon="1.59334">
        <ele>79</ele>
        <time>2015-08-16T19:51:10.62Z</time>
      </trkpt>
      <trkpt lat="47.26687" lon="1.59358">
        <ele>79</ele>
        <time>2015-08-16T19:51:21.90Z</time>
      </trkpt>
      <trkpt lat="47.26687" lon="1.59375">
        <ele>79</ele>
        <time>2015-08-16T19:51:30.10Z</time>
      </trkpt>
      <trkpt lat="47.26687" lon="1.59385">
        <ele>79</ele>
        <time>2015-08-16T19:51:35.23Z</time>
      </trkpt>
      <trkpt lat="47.2669" lon="1.59398">
        <ele>79</ele>
        <time>2015-08-16T19:51:41.56Z</time>
      </trkpt>
      <trkpt lat="47.26692" lon="1.5942">
        <ele>79</ele>
        <time>2015-08-16T19:51:51.92Z</time>
      </trkpt>
      <trkpt lat="47.26705" lon="1.59473">
        <ele>79</ele>
        <time>2015-08-16T19:52:19.11Z</time>
      </trkpt>
      <trkpt lat="47.26711" lon="1.59508">
        <ele>78.79</ele>
        <time>2015-08-16T19:52:36.13Z</time>
      </trkpt>
      <trkpt lat="47.26715" lon="1.5954">
        <ele>78.04</ele>
        <time>2015-08-16T19:52:51.80Z</time>
      </trkpt>
      <trkpt lat="47.26718" lon="1.59559">
        <ele>78</ele>
        <time>2015-08-16T19:53:01.15Z</time>
      </trkpt>
      <trkpt lat="47.26722" lon="1.59609">
        <ele>78</ele>
        <time>2015-08-16T19:53:24.93Z</time>
      </trkpt>
      <trkpt lat="47.26724" lon="1.5963">
        <ele>78</ele>
        <time>2015-08-16T19:53:35.29Z</time>
      </trkpt>
      <trkpt lat="47.26728" lon="1.59701">
        <ele>78</ele>
        <time>2015-08-16T19:54:09.26Z</time>
      </trkpt>
      <trkpt lat="47.2673" lon="1.59759">
        <ele>78</ele>
        <time>2015-08-16T19:54:36.98Z</time>
      </trkpt>
      <trkpt lat="47.2673" lon="1.5981">
        <ele>78</ele>
        <time>2015-08-16T19:55:01.58Z</time>
      </trkpt>
      <trkpt lat="47.26733" lon="1.5987">
        <ele>78.95</ele>
        <time>2015-08-16T19:55:30.33Z</time>
      </trkpt>
      <trkpt lat="47.26733" lon="1.60059">
        <ele>79</ele>
        <time>2015-08-16T19:57:00.55Z</time>
      </trkpt>
      <trkpt lat="47.26733" lon="1.60079">
        <ele>79</ele>
        <time>2015-08-16T19:57:09.78Z</time>
      </trkpt>
      <trkpt lat="47.26733" lon="1.60096">
        <ele>79</ele>
        <time>2015-08-16T19:57:17.98Z</time>
      </trkpt>
      <trkpt lat="47.2673" lon="1.60121">
        <ele>79</ele>
        <time>2015-08-16T19:57:30.38Z</time>
      </trkpt>
      <trkpt lat="47.26724" lon="1.60233">
        <ele>79</ele>
        <time>2015-08-16T19:58:23.88Z</time>
      </trkpt>
      <trkpt lat="47.26724" lon="1.60259">
        <ele>79.83</ele>
        <time>2015-08-16T19:58:36.18Z</time>
      </trkpt>
      <trkpt lat="47.26722" lon="1.60276">
        <ele>80</ele>
        <time>2015-08-16T19:58:44.52Z</time>
      </trkpt>
      <trkpt lat="47.26722" lon="1.6031">
        <ele>80</ele>
        <time>2015-08-16T19:59:00.93Z</time>
      </trkpt>
      <trkpt lat="47.26722" lon="1.60347">
        <ele>80</ele>
        <time>2015-08-16T19:59:18.36Z</time>
      </trkpt>
      <trkpt lat="47.26722" lon="1.60373">
        <ele>80</ele>
        <time>2015-08-16T19:59:30.66Z</time>
      </trkpt>
      <trkpt lat="47.26722" lon="1.60394">
        <ele>80.7</ele>
        <time>2015-08-16T19:59:40.91Z</time>
      </trkpt>
      <trkpt lat="47.26724" lon="1.60415">
        <ele>81</ele>
        <time>2015-08-16T19:59:51.27Z</time>
      </trkpt>
      <trkpt lat="47.2673" lon="1.60495">
        <ele>81</ele>
        <time>2015-08-16T20:00:29.48Z</time>
      </trkpt>
      <trkpt lat="47.2673" lon="1.60523">
        <ele>81</ele>
        <time>2015-08-16T20:00:42.81Z</time>
      </trkpt>
      <trkpt lat="47.26733" lon="1.60538">
        <ele>81</ele>
        <time>2015-08-16T20:00:50.14Z</time>
      </trkpt>
      <trkpt lat="47.26733" lon="1.6057">
        <ele>81</ele>
        <time>2015-08-16T20:01:05.52Z</time>
      </trkpt>
      <trkpt lat="47.26733" lon="1.60585">
        <ele>81</ele>
        <time>2015-08-16T20:01:12.70Z</time>
      </trkpt>
      <trkpt lat="47.26733" lon="1.60609">
        <ele>81</ele>
        <time>2015-08-16T20:01:23.97Z</time>
      </trkpt>
      <trkpt lat="47.2673" lon="1.60701">
        <ele>81</ele>
        <time>2015-08-16T20:02:08.08Z</time>
      </trkpt>
      <trkpt lat="47.2673" lon="1.60735">
        <ele>81</ele>
        <time>2015-08-16T20:02:24.49Z</time>
      </trkpt>
      <trkpt lat="47.26729" lon="1.6091">
        <ele>81</ele>
        <time>2015-08-16T20:03:48.14Z</time>
      </trkpt>
      <trkpt lat="47.26728" lon="1.60997">
        <ele>80.58</ele>
        <time>2015-08-16T20:04:29.58Z</time>
      </trkpt>
      <trkpt lat="47.26726" lon="1.61059">
        <ele>80</ele>
        <time>2015-08-16T20:04:59.35Z</time>
      </trkpt>
      <trkpt lat="47.26726" lon="1.61089">
        <ele>80</ele>
        <time>2015-08-16T20:05:13.70Z</time>
      </trkpt>
      <trkpt lat="47.26726" lon="1.61104">
        <ele>80</ele>
        <time>2015-08-16T20:05:20.88Z</time>
      </trkpt>
      <trkpt lat="47.26726" lon="1.61121">
        <ele>80</ele>
        <time>2015-08-16T20:05:29.08Z</time>
      </trkpt>
      <trkpt lat="47.26726" lon="1.61136">
        <ele>80</ele>
        <time>2015-08-16T20:05:36.26Z</time>
      </trkpt>
      <trkpt lat="47.26726" lon="1.61147">
        <ele>80</ele>
        <time>2015-08-16T20:05:41.38Z</time>
      </trkpt>
      <trkpt lat="47.26724" lon="1.61164">
        <ele>80</ele>
        <time>2015-08-16T20:05:49.72Z</time>
      </trkpt>
      <trkpt lat="47.26722" lon="1.61186">
        <ele>80</ele>
        <time>2015-08-16T20:06:00.08Z</time>
      </trkpt>
      <trkpt lat="47.26709" lon="1.61282">
        <ele>80</ele>
        <time>2015-08-16T20:06:47.10Z</time>
      </trkpt>
      <trkpt lat="47.26707" lon="1.613">
        <ele>80</ele>
        <time>2015-08-16T20:06:55.44Z</time>
      </trkpt>
      <trkpt lat="47.26705" lon="1.6131">
        <ele>80</ele>
        <time>2015-08-16T20:07:00.79Z</time>
      </trkpt>
      <trkpt lat="47.26703" lon="1.61321">
        <ele>80</ele>
        <time>2015-08-16T20:07:06.13Z</time>
      </trkpt>
      <trkpt lat="47.26698" lon="1.61336">
        <ele>80</ele>
        <time>2015-08-16T20:07:13.92Z</time>
      </trkpt>
      <trkpt lat="47.26668" lon="1.61418">
        <ele>80</ele>
        <time>2015-08-16T20:07:58.25Z</time>
      </trkpt>
      <trkpt lat="47.26636" lon="1.61512">
        <ele>79.57</ele>
        <time>2015-08-16T20:08:48.73Z</time>
      </trkpt>
      <trkpt lat="47.26619" lon="1.61561">
        <ele>79</ele>
        <time>2015-08-16T20:09:15.23Z</time>
      </trkpt>
      <trkpt lat="47.26593" lon="1.61634">
        <ele>79.02</ele>
        <time>2015-08-16T20:09:54.52Z</time>
      </trkpt>
      <trkpt lat="47.26587" lon="1.61651">
        <ele>79</ele>
        <time>2015-08-16T20:10:03.89Z</time>
      </trkpt>
      <trkpt lat="47.26574" lon="1.61686">
        <ele>79</ele>
        <time>2015-08-16T20:10:22.64Z</time>
      </trkpt>
      <trkpt lat="47.26572" lon="1.61696">
        <ele>79</ele>
        <time>2015-08-16T20:10:27.98Z</time>
      </trkpt>
      <trkpt lat="47.26567" lon="1.61705">
        <ele>79</ele>
        <time>2015-08-16T20:10:33.07Z</time>
      </trkpt>
      <trkpt lat="47.26563" lon="1.61714">
        <ele>79</ele>
        <time>2015-08-16T20:10:38.17Z</time>
      </trkpt>
      <trkpt lat="47.26559" lon="1.6172">
        <ele>79</ele>
        <time>2015-08-16T20:10:42.48Z</time>
      </trkpt>
      <trkpt lat="47.26552" lon="1.61727">
        <ele>79</ele>
        <time>2015-08-16T20:10:47.96Z</time>
      </trkpt>
      <trkpt lat="47.26484" lon="1.61821">
        <ele>78</ele>
        <time>2015-08-16T20:11:54.08Z</time>
      </trkpt>
      <trkpt lat="47.26419" lon="1.61913">
        <ele>78</ele>
        <time>2015-08-16T20:12:57.31Z</time>
      </trkpt>
      <trkpt lat="47.26411" lon="1.61928">
        <ele>78</ele>
        <time>2015-08-16T20:13:06.70Z</time>
      </trkpt>
      <trkpt lat="47.26406" lon="1.61937">
        <ele>78</ele>
        <time>2015-08-16T20:13:11.79Z</time>
      </trkpt>
      <trkpt lat="47.26402" lon="1.61952">
        <ele>78</ele>
        <time>2015-08-16T20:13:19.58Z</time>
      </trkpt>
      <trkpt lat="47.264" lon="1.61958">
        <ele>78</ele>
        <time>2015-08-16T20:13:23.01Z</time>
      </trkpt>
      <trkpt lat="47.264" lon="1.61967">
        <ele>78</ele>
        <time>2015-08-16T20:13:27.11Z</time>
      </trkpt>
      <trkpt lat="47.26398" lon="1.61975">
        <ele>78</ele>
        <time>2015-08-16T20:13:31.48Z</time>
      </trkpt>
      <trkpt lat="47.26398" lon="1.61993">
        <ele>78</ele>
        <time>2015-08-16T20:13:39.68Z</time>
      </trkpt>
      <trkpt lat="47.264" lon="1.62001">
        <ele>78</ele>
        <time>2015-08-16T20:13:44.05Z</time>
      </trkpt>
      <trkpt lat="47.26404" lon="1.62081">
        <ele>78</ele>
        <time>2015-08-16T20:14:22.11Z</time>
      </trkpt>
      <trkpt lat="47.26409" lon="1.62151">
        <ele>78</ele>
        <time>2015-08-16T20:14:56.08Z</time>
      </trkpt>
      <trkpt lat="47.26411" lon="1.62214">
        <ele>78</ele>
        <time>2015-08-16T20:15:25.85Z</time>
      </trkpt>
      <trkpt lat="47.26413" lon="1.62244">
        <ele>78</ele>
        <time>2015-08-16T20:15:40.28Z</time>
      </trkpt>
      <trkpt lat="47.26413" lon="1.62261">
        <ele>78</ele>
        <time>2015-08-16T20:15:48.48Z</time>
      </trkpt>
      <trkpt lat="47.26413" lon="1.62282">
        <ele>78</ele>
        <time>2015-08-16T20:15:58.74Z</time>
      </trkpt>
      <trkpt lat="47.26413" lon="1.62295">
        <ele>78</ele>
        <time>2015-08-16T20:16:04.89Z</time>
      </trkpt>
      <trkpt lat="47.26413" lon="1.62312">
        <ele>78</ele>
        <time>2015-08-16T20:16:13.09Z</time>
      </trkpt>
      <trkpt lat="47.26413" lon="1.62327">
        <ele>78</ele>
        <time>2015-08-16T20:16:20.27Z</time>
      </trkpt>
      <trkpt lat="47.26411" lon="1.62353">
        <ele>78</ele>
        <time>2015-08-16T20:16:32.66Z</time>
      </trkpt>
      <trkpt lat="47.26409" lon="1.62424">
        <ele>78</ele>
        <time>2015-08-16T20:17:06.53Z</time>
      </trkpt>
      <trkpt lat="47.26409" lon="1.62448">
        <ele>78</ele>
        <time>2015-08-16T20:17:17.81Z</time>
      </trkpt>
      <trkpt lat="47.26409" lon="1.62461">
        <ele>78</ele>
        <time>2015-08-16T20:17:24.17Z</time>
      </trkpt>
      <trkpt lat="47.26411" lon="1.62473">
        <ele>78</ele>
        <time>2015-08-16T20:17:30.29Z</time>
      </trkpt>
      <trkpt lat="47.26411" lon="1.62486">
        <ele>78</ele>
        <time>2015-08-16T20:17:36.44Z</time>
      </trkpt>
      <trkpt lat="47.26413" lon="1.62499">
        <ele>78</ele>
        <time>2015-08-16T20:17:42.78Z</time>
      </trkpt>
      <trkpt lat="47.26417" lon="1.62531">
        <ele>78</ele>
        <time>2015-08-16T20:17:58.45Z</time>
      </trkpt>
      <trkpt lat="47.26421" lon="1.6255">
        <ele>78</ele>
        <time>2015-08-16T20:18:08.16Z</time>
      </trkpt>
      <trkpt lat="47.26424" lon="1.62568">
        <ele>78</ele>
        <time>2015-08-16T20:18:16.50Z</time>
      </trkpt>
      <trkpt lat="47.26424" lon="1.62576">
        <ele>78</ele>
        <time>2015-08-16T20:18:20.60Z</time>
      </trkpt>
      <trkpt lat="47.26426" lon="1.62585">
        <ele>78</ele>
        <time>2015-08-16T20:18:24.98Z</time>
      </trkpt>
      <trkpt lat="47.26426" lon="1.626">
        <ele>78</ele>
        <time>2015-08-16T20:18:32.15Z</time>
      </trkpt>
      <trkpt lat="47.26426" lon="1.62613">
        <ele>78</ele>
        <time>2015-08-16T20:18:38.30Z</time>
      </trkpt>
      <trkpt lat="47.26426" lon="1.62626">
        <ele>78</ele>
        <time>2015-08-16T20:18:44.46Z</time>
      </trkpt>
      <trkpt lat="47.26426" lon="1.62641">
        <ele>78</ele>
        <time>2015-08-16T20:18:51.63Z</time>
      </trkpt>
      <trkpt lat="47.26424" lon="1.62653">
        <ele>78</ele>
        <time>2015-08-16T20:18:57.97Z</time>
      </trkpt>
      <trkpt lat="47.26421" lon="1.62669">
        <ele>78</ele>
        <time>2015-08-16T20:19:05.30Z</time>
      </trkpt>
      <trkpt lat="47.26419" lon="1.62692">
        <ele>78</ele>
        <time>2015-08-16T20:19:16.68Z</time>
      </trkpt>
      <trkpt lat="47.26411" lon="1.62731">
        <ele>78</ele>
        <time>2015-08-16T20:19:36.10Z</time>
      </trkpt>
      <trkpt lat="47.26404" lon="1.62774">
        <ele>78</ele>
        <time>2015-08-16T20:19:57.10Z</time>
      </trkpt>
      <trkpt lat="47.264" lon="1.62791">
        <ele>78</ele>
        <time>2015-08-16T20:20:05.84Z</time>
      </trkpt>
      <trkpt lat="47.26398" lon="1.62806">
        <ele>78</ele>
        <time>2015-08-16T20:20:13.18Z</time>
      </trkpt>
      <trkpt lat="47.26391" lon="1.62821">
        <ele>78</ele>
        <time>2015-08-16T20:20:21.67Z</time>
      </trkpt>
      <trkpt lat="47.26387" lon="1.62842">
        <ele>78</ele>
        <time>2015-08-16T20:20:32.35Z</time>
      </trkpt>
      <trkpt lat="47.26376" lon="1.62883">
        <ele>78</ele>
        <time>2015-08-16T20:20:53.25Z</time>
      </trkpt>
      <trkpt lat="47.26372" lon="1.62898">
        <ele>78</ele>
        <time>2015-08-16T20:21:01.04Z</time>
      </trkpt>
      <trkpt lat="47.2637" lon="1.62902">
        <ele>78</ele>
        <time>2015-08-16T20:21:03.58Z</time>
      </trkpt>
      <trkpt lat="47.26366" lon="1.62917">
        <ele>78</ele>
        <time>2015-08-16T20:21:11.37Z</time>
      </trkpt>
      <trkpt lat="47.26357" lon="1.62937">
        <ele>78</ele>
        <time>2015-08-16T20:21:22.40Z</time>
      </trkpt>
      <trkpt lat="47.26348" lon="1.62956">
        <ele>78</ele>
        <time>2015-08-16T20:21:33.43Z</time>
      </trkpt>
      <trkpt lat="47.2631" lon="1.63038">
        <ele>78</ele>
        <time>2015-08-16T20:22:20.95Z</time>
      </trkpt>
      <trkpt lat="47.26301" lon="1.63057">
        <ele>78</ele>
        <time>2015-08-16T20:22:31.98Z</time>
      </trkpt>
      <trkpt lat="47.26297" lon="1.63068">
        <ele>78</ele>
        <time>2015-08-16T20:22:37.93Z</time>
      </trkpt>
      <trkpt lat="47.26293" lon="1.63081">
        <ele>78</ele>
        <time>2015-08-16T20:22:44.78Z</time>
      </trkpt>
      <trkpt lat="47.2626" lon="1.63205">
        <ele>78.96</ele>
        <time>2015-08-16T20:23:48.42Z</time>
      </trkpt>
      <trkpt lat="47.26254" lon="1.63231">
        <ele>79</ele>
        <time>2015-08-16T20:24:01.54Z</time>
      </trkpt>
      <trkpt lat="47.2625" lon="1.63244">
        <ele>79</ele>
        <time>2015-08-16T20:24:08.39Z</time>
      </trkpt>
      <trkpt lat="47.26245" lon="1.63256">
        <ele>79</ele>
        <time>2015-08-16T20:24:15.24Z</time>
      </trkpt>
      <trkpt lat="47.26243" lon="1.63269">
        <ele>79</ele>
        <time>2015-08-16T20:24:21.58Z</time>
      </trkpt>
      <trkpt lat="47.26239" lon="1.63278">
        <ele>79</ele>
        <time>2015-08-16T20:24:26.67Z</time>
      </trkpt>
      <trkpt lat="47.26233" lon="1.63295">
        <ele>79</ele>
        <time>2015-08-16T20:24:36.04Z</time>
      </trkpt>
      <trkpt lat="47.26228" lon="1.63306">
        <ele>79</ele>
        <time>2015-08-16T20:24:42Z</time>
      </trkpt>
      <trkpt lat="47.26222" lon="1.63317">
        <ele>79</ele>
        <time>2015-08-16T20:24:48.84Z</time>
      </trkpt>
      <trkpt lat="47.26218" lon="1.63327">
        <ele>79</ele>
        <time>2015-08-16T20:24:54.79Z</time>
      </trkpt>
      <trkpt lat="47.26209" lon="1.63342">
        <ele>79</ele>
        <time>2015-08-16T20:25:04.17Z</time>
      </trkpt>
      <trkpt lat="47.26194" lon="1.6337">
        <ele>79</ele>
        <time>2015-08-16T20:25:21.19Z</time>
      </trkpt>
      <trkpt lat="47.26153" lon="1.63447">
        <ele>79</ele>
        <time>2015-08-16T20:26:07.95Z</time>
      </trkpt>
      <trkpt lat="47.26142" lon="1.63467">
        <ele>79</ele>
        <time>2015-08-16T20:26:19.87Z</time>
      </trkpt>
      <trkpt lat="47.26136" lon="1.63477">
        <ele>79</ele>
        <time>2015-08-16T20:26:26.72Z</time>
      </trkpt>
      <trkpt lat="47.26132" lon="1.63488">
        <ele>79</ele>
        <time>2015-08-16T20:26:32.67Z</time>
      </trkpt>
      <trkpt lat="47.26127" lon="1.63497">
        <ele>79</ele>
        <time>2015-08-16T20:26:37.76Z</time>
      </trkpt>
      <trkpt lat="47.26123" lon="1.63508">
        <ele>79</ele>
        <time>2015-08-16T20:26:43.71Z</time>
      </trkpt>
      <trkpt lat="47.26121" lon="1.6352">
        <ele>79</ele>
        <time>2015-08-16T20:26:50.05Z</time>
      </trkpt>
      <trkpt lat="47.26119" lon="1.63531">
        <ele>79</ele>
        <time>2015-08-16T20:26:55.39Z</time>
      </trkpt>
      <trkpt lat="47.26112" lon="1.63555">
        <ele>79</ele>
        <time>2015-08-16T20:27:07.55Z</time>
      </trkpt>
      <trkpt lat="47.2611" lon="1.63565">
        <ele>79</ele>
        <time>2015-08-16T20:27:12.89Z</time>
      </trkpt>
      <trkpt lat="47.2611" lon="1.6357">
        <ele>79</ele>
        <time>2015-08-16T20:27:14.94Z</time>
      </trkpt>
      <trkpt lat="47.26108" lon="1.63585">
        <ele>79</ele>
        <time>2015-08-16T20:27:22.28Z</time>
      </trkpt>
      <trkpt lat="47.26097" lon="1.63711">
        <ele>79</ele>
        <time>2015-08-16T20:28:23.25Z</time>
      </trkpt>
      <trkpt lat="47.26093" lon="1.63744">
        <ele>79</ele>
        <time>2015-08-16T20:28:38.92Z</time>
      </trkpt>
      <trkpt lat="47.26091" lon="1.63765">
        <ele>79</ele>
        <time>2015-08-16T20:28:49.28Z</time>
      </trkpt>
      <trkpt lat="47.26089" lon="1.63812">
        <ele>79</ele>
        <time>2015-08-16T20:29:11.89Z</time>
      </trkpt>
      <trkpt lat="47.2608" lon="1.63902">
        <ele>79</ele>
        <time>2015-08-16T20:29:55.38Z</time>
      </trkpt>
      <trkpt lat="47.26076" lon="1.63958">
        <ele>79</ele>
        <time>2015-08-16T20:30:22.21Z</time>
      </trkpt>
      <trkpt lat="47.26074" lon="1.63986">
        <ele>79</ele>
        <time>2015-08-16T20:30:35.63Z</time>
      </trkpt>
      <trkpt lat="47.26072" lon="1.64005">
        <ele>79</ele>
        <time>2015-08-16T20:30:44.98Z</time>
      </trkpt>
      <trkpt lat="47.2607" lon="1.6402">
        <ele>79.05</ele>
        <time>2015-08-16T20:30:52.31Z</time>
      </trkpt>
      <trkpt lat="47.26067" lon="1.64033">
        <ele>79.07</ele>
        <time>2015-08-16T20:30:58.65Z</time>
      </trkpt>
      <trkpt lat="47.26061" lon="1.64057">
        <ele>79.55</ele>
        <time>2015-08-16T20:31:10.80Z</time>
      </trkpt>
      <trkpt lat="47.26054" lon="1.64085">
        <ele>79.63</ele>
        <time>2015-08-16T20:31:24.88Z</time>
      </trkpt>
      <trkpt lat="47.26052" lon="1.64094">
        <ele>79.52</ele>
        <time>2015-08-16T20:31:29.84Z</time>
      </trkpt>
      <trkpt lat="47.26052" lon="1.64094">
        <ele>79.52</ele>
        <time>2015-08-16T20:31:30.48Z</time>
      </trkpt>
      <trkpt lat="47.26048" lon="1.64106">
        <ele>79.39</ele>
        <time>2015-08-16T20:31:36.73Z</time>
      </trkpt>
      <trkpt lat="47.26046" lon="1.64119">
        <ele>79.31</ele>
        <time>2015-08-16T20:31:43.06Z</time>
      </trkpt>
      <trkpt lat="47.26042" lon="1.64145">
        <ele>79.16</ele>
        <time>2015-08-16T20:31:55.73Z</time>
      </trkpt>
      <trkpt lat="47.26031" lon="1.64211">
        <ele>80</ele>
        <time>2015-08-16T20:32:28.40Z</time>
      </trkpt>
      <trkpt lat="47.26031" lon="1.64222">
        <ele>80</ele>
        <time>2015-08-16T20:32:33.53Z</time>
      </trkpt>
      <trkpt lat="47.2602" lon="1.64276">
        <ele>80.71</ele>
        <time>2015-08-16T20:33:00.25Z</time>
      </trkpt>
      <trkpt lat="47.26014" lon="1.64321">
        <ele>81.28</ele>
        <time>2015-08-16T20:33:22.26Z</time>
      </trkpt>
      <trkpt lat="47.26005" lon="1.64353">
        <ele>81.84</ele>
        <time>2015-08-16T20:33:38.78Z</time>
      </trkpt>
      <trkpt lat="47.26001" lon="1.6437">
        <ele>81.69</ele>
        <time>2015-08-16T20:33:47.53Z</time>
      </trkpt>
      <trkpt lat="47.25997" lon="1.64385">
        <ele>81.54</ele>
        <time>2015-08-16T20:33:55.31Z</time>
      </trkpt>
      <trkpt lat="47.25964" lon="1.64477">
        <ele>82</ele>
        <time>2015-08-16T20:34:44.89Z</time>
      </trkpt>
      <trkpt lat="47.25939" lon="1.64546">
        <ele>82</ele>
        <time>2015-08-16T20:35:22.38Z</time>
      </trkpt>
      <trkpt lat="47.25919" lon="1.64602">
        <ele>82</ele>
        <time>2015-08-16T20:35:52.30Z</time>
      </trkpt>
      <trkpt lat="47.25911" lon="1.64619">
        <ele>82</ele>
        <time>2015-08-16T20:36:02.49Z</time>
      </trkpt>
      <trkpt lat="47.25904" lon="1.64632">
        <ele>82</ele>
        <time>2015-08-16T20:36:10.13Z</time>
      </trkpt>
      <trkpt lat="47.25872" lon="1.64681">
        <ele>82</ele>
        <time>2015-08-16T20:36:42.84Z</time>
      </trkpt>
      <trkpt lat="47.25853" lon="1.64711">
        <ele>82</ele>
        <time>2015-08-16T20:37:02.62Z</time>
      </trkpt>
      <trkpt lat="47.25846" lon="1.6472">
        <ele>82</ele>
        <time>2015-08-16T20:37:08.73Z</time>
      </trkpt>
      <trkpt lat="47.2584" lon="1.64726">
        <ele>82</ele>
        <time>2015-08-16T20:37:14.21Z</time>
      </trkpt>
      <trkpt lat="47.25825" lon="1.64741">
        <ele>82</ele>
        <time>2015-08-16T20:37:26.99Z</time>
      </trkpt>
      <trkpt lat="47.25818" lon="1.64746">
        <ele>82</ele>
        <time>2015-08-16T20:37:31.96Z</time>
      </trkpt>
      <trkpt lat="47.25812" lon="1.6475">
        <ele>82</ele>
        <time>2015-08-16T20:37:36.94Z</time>
      </trkpt>
      <trkpt lat="47.25806" lon="1.64754">
        <ele>82</ele>
        <time>2015-08-16T20:37:41.91Z</time>
      </trkpt>
      <trkpt lat="47.25801" lon="1.64758">
        <ele>82</ele>
        <time>2015-08-16T20:37:45.57Z</time>
      </trkpt>
      <trkpt lat="47.25797" lon="1.64763">
        <ele>82</ele>
        <time>2015-08-16T20:37:49.22Z</time>
      </trkpt>
      <trkpt lat="47.25788" lon="1.64776">
        <ele>82</ele>
        <time>2015-08-16T20:37:57.84Z</time>
      </trkpt>
      <trkpt lat="47.25765" lon="1.64814">
        <ele>82</ele>
        <time>2015-08-16T20:38:22.68Z</time>
      </trkpt>
      <trkpt lat="47.25754" lon="1.64834">
        <ele>82</ele>
        <time>2015-08-16T20:38:34.61Z</time>
      </trkpt>
      <trkpt lat="47.25728" lon="1.6487">
        <ele>82.13</ele>
        <time>2015-08-16T20:38:59.76Z</time>
      </trkpt>
      <trkpt lat="47.25724" lon="1.64877">
        <ele>82.28</ele>
        <time>2015-08-16T20:39:04.07Z</time>
      </trkpt>
      <trkpt lat="47.2572" lon="1.64881">
        <ele>82.43</ele>
        <time>2015-08-16T20:39:07.72Z</time>
      </trkpt>
      <trkpt lat="47.25718" lon="1.64892">
        <ele>82.51</ele>
        <time>2015-08-16T20:39:13.07Z</time>
      </trkpt>
      <trkpt lat="47.25715" lon="1.64907">
        <ele>82.59</ele>
        <time>2015-08-16T20:39:20.40Z</time>
      </trkpt>
      <trkpt lat="47.25713" lon="1.64932">
        <ele>82.67</ele>
        <time>2015-08-16T20:39:32.80Z</time>
      </trkpt>
      <trkpt lat="47.25711" lon="1.64954">
        <ele>82.74</ele>
        <time>2015-08-16T20:39:43.16Z</time>
      </trkpt>
      <trkpt lat="47.25707" lon="1.65014">
        <ele>82</ele>
        <time>2015-08-16T20:40:12.04Z</time>
      </trkpt>
      <trkpt lat="47.25705" lon="1.65035">
        <ele>82</ele>
        <time>2015-08-16T20:40:22.40Z</time>
      </trkpt>
      <trkpt lat="47.25703" lon="1.6505">
        <ele>82.05</ele>
        <time>2015-08-16T20:40:29.74Z</time>
      </trkpt>
      <trkpt lat="47.257" lon="1.65063">
        <ele>82.13</ele>
        <time>2015-08-16T20:40:36.07Z</time>
      </trkpt>
      <trkpt lat="47.25698" lon="1.65072">
        <ele>82.21</ele>
        <time>2015-08-16T20:40:40.44Z</time>
      </trkpt>
      <trkpt lat="47.25696" lon="1.65083">
        <ele>82.29</ele>
        <time>2015-08-16T20:40:45.79Z</time>
      </trkpt>
      <trkpt lat="47.25692" lon="1.65091">
        <ele>82.44</ele>
        <time>2015-08-16T20:40:50.88Z</time>
      </trkpt>
      <trkpt lat="47.25688" lon="1.65102">
        <ele>82.59</ele>
        <time>2015-08-16T20:40:56.83Z</time>
      </trkpt>
      <trkpt lat="47.25685" lon="1.65106">
        <ele>82.67</ele>
        <time>2015-08-16T20:40:59.38Z</time>
      </trkpt>
      <trkpt lat="47.25683" lon="1.65113">
        <ele>82.75</ele>
        <time>2015-08-16T20:41:02.81Z</time>
      </trkpt>
      <trkpt lat="47.25679" lon="1.65123">
        <ele>82.9</ele>
        <time>2015-08-16T20:41:08.76Z</time>
      </trkpt>
      <trkpt lat="47.25668" lon="1.6514">
        <ele>83</ele>
        <time>2015-08-16T20:41:19.91Z</time>
      </trkpt>
      <trkpt lat="47.2564" lon="1.65179">
        <ele>83</ele>
        <time>2015-08-16T20:41:46.86Z</time>
      </trkpt>
      <trkpt lat="47.25634" lon="1.65192">
        <ele>83</ele>
        <time>2015-08-16T20:41:54.51Z</time>
      </trkpt>
      <trkpt lat="47.2563" lon="1.65201">
        <ele>83</ele>
        <time>2015-08-16T20:41:59.60Z</time>
      </trkpt>
      <trkpt lat="47.25623" lon="1.65213">
        <ele>83</ele>
        <time>2015-08-16T20:42:07.24Z</time>
      </trkpt>
      <trkpt lat="47.25617" lon="1.65233">
        <ele>83</ele>
        <time>2015-08-16T20:42:17.53Z</time>
      </trkpt>
      <trkpt lat="47.25589" lon="1.65327">
        <ele>83</ele>
        <time>2015-08-16T20:43:06.73Z</time>
      </trkpt>
      <trkpt lat="47.25585" lon="1.65336">
        <ele>83</ele>
        <time>2015-08-16T20:43:11.83Z</time>
      </trkpt>
      <trkpt lat="47.25582" lon="1.65342">
        <ele>83</ele>
        <time>2015-08-16T20:43:15.26Z</time>
      </trkpt>
      <trkpt lat="47.25578" lon="1.65351">
        <ele>83</ele>
        <time>2015-08-16T20:43:20.35Z</time>
      </trkpt>
      <trkpt lat="47.2558" lon="1.65357">
        <ele>83</ele>
        <time>2015-08-16T20:43:23.78Z</time>
      </trkpt>
      <trkpt lat="47.25585" lon="1.65385">
        <ele>83</ele>
        <time>2015-08-16T20:43:37.45Z</time>
      </trkpt>
      <trkpt lat="47.25585" lon="1.65396">
        <ele>83</ele>
        <time>2015-08-16T20:43:42.58Z</time>
      </trkpt>
      <trkpt lat="47.25585" lon="1.65404">
        <ele>83</ele>
        <time>2015-08-16T20:43:46.68Z</time>
      </trkpt>
      <trkpt lat="47.25585" lon="1.65415">
        <ele>83</ele>
        <time>2015-08-16T20:43:51.80Z</time>
      </trkpt>
      <trkpt lat="47.25585" lon="1.6542">
        <ele>83</ele>
        <time>2015-08-16T20:43:54.31Z</time>
      </trkpt>
      <trkpt lat="47.25607" lon="1.65451">
        <ele>81.37</ele>
        <time>2015-08-16T20:44:16Z</time>
      </trkpt>
      <trkpt lat="47.2566" lon="1.65479">
        <ele>80.89</ele>
        <time>2015-08-16T20:44:31Z</time>
      </trkpt>
      <trkpt lat="47.2573" lon="1.65516">
        <ele>80.41</ele>
        <time>2015-08-16T20:44:49Z</time>
      </trkpt>
      <trkpt lat="47.25795" lon="1.6555">
        <ele>80.41</ele>
        <time>2015-08-16T20:45:05Z</time>
      </trkpt>
      <trkpt lat="47.25873" lon="1.65594">
        <ele>80.41</ele>
        <time>2015-08-16T20:45:24Z</time>
      </trkpt>
      <trkpt lat="47.25955" lon="1.65638">
        <ele>81.37</ele>
        <time>2015-08-16T20:45:42Z</time>
      </trkpt>
      <trkpt lat="47.25999" lon="1.65661">
        <ele>82.81</ele>
        <time>2015-08-16T20:45:55Z</time>
      </trkpt>
      <trkpt lat="47.26001" lon="1.65661">
        <ele>82.81</ele>
        <time>2015-08-16T20:45:56Z</time>
      </trkpt>
      <trkpt lat="47.26003" lon="1.65662">
        <ele>82.81</ele>
        <time>2015-08-16T20:45:57Z</time>
      </trkpt>
      <trkpt lat="47.26005" lon="1.65663">
        <ele>82.81</ele>
        <time>2015-08-16T20:46:06Z</time>
      </trkpt>
      <trkpt lat="47.26033" lon="1.6568">
        <ele>83.29</ele>
        <time>2015-08-16T20:46:20Z</time>
      </trkpt>
      <trkpt lat="47.26081" lon="1.65706">
        <ele>82.81</ele>
        <time>2015-08-16T20:46:37Z</time>
      </trkpt>
      <trkpt lat="47.26136" lon="1.65735">
        <ele>81.37</ele>
        <time>2015-08-16T20:46:55Z</time>
      </trkpt>
      <trkpt lat="47.26191" lon="1.65767">
        <ele>80.41</ele>
        <time>2015-08-16T20:47:13Z</time>
      </trkpt>
      <trkpt lat="47.26193" lon="1.65768">
        <ele>80.41</ele>
        <time>2015-08-16T20:47:14Z</time>
      </trkpt>
      <trkpt lat="47.26195" lon="1.65771">
        <ele>80.41</ele>
        <time>2015-08-16T20:47:15Z</time>
      </trkpt>
      <trkpt lat="47.26196" lon="1.65776">
        <ele>79.93</ele>
        <time>2015-08-16T20:47:17Z</time>
      </trkpt>
      <trkpt lat="47.26195" lon="1.65779">
        <ele>79.93</ele>
        <time>2015-08-16T20:47:18Z</time>
      </trkpt>
      <trkpt lat="47.26196" lon="1.6578">
        <ele>79.93</ele>
        <time>2015-08-16T20:47:25Z</time>
      </trkpt>
      <trkpt lat="47.26193" lon="1.6579">
        <ele>79.93</ele>
        <time>2015-08-16T20:47:36Z</time>
      </trkpt>
      <trkpt lat="47.26184" lon="1.65839">
        <ele>79.45</ele>
        <time>2015-08-16T20:47:48Z</time>
      </trkpt>
      <trkpt lat="47.26174" lon="1.65917">
        <ele>79.45</ele>
        <time>2015-08-16T20:48:03Z</time>
      </trkpt>
      <trkpt lat="47.2616" lon="1.65976">
        <ele>79.45</ele>
        <time>2015-08-16T20:48:16Z</time>
      </trkpt>
      <trkpt lat="47.26159" lon="1.66027">
        <ele>79.45</ele>
        <time>2015-08-16T20:48:28Z</time>
      </trkpt>
      <trkpt lat="47.26164" lon="1.66049">
        <ele>79.45</ele>
        <time>2015-08-16T20:48:40Z</time>
      </trkpt>
      <trkpt lat="47.26165" lon="1.66062">
        <ele>79.45</ele>
        <time>2015-08-16T20:48:50Z</time>
      </trkpt>
      <trkpt lat="47.26166" lon="1.66066">
        <ele>79.45</ele>
        <time>2015-08-16T20:48:51Z</time>
      </trkpt>
      <trkpt lat="47.26166" lon="1.6607">
        <ele>79.45</ele>
        <time>2015-08-16T20:48:52Z</time>
      </trkpt>
      <trkpt lat="47.26167" lon="1.66073">
        <ele>79.45</ele>
        <time>2015-08-16T20:48:53Z</time>
      </trkpt>
      <trkpt lat="47.26168" lon="1.66075">
        <ele>79.45</ele>
        <time>2015-08-16T20:48:54Z</time>
      </trkpt>
      <trkpt lat="47.26169" lon="1.66078">
        <ele>79.45</ele>
        <time>2015-08-16T20:48:55Z</time>
      </trkpt>
      <trkpt lat="47.26169" lon="1.6608">
        <ele>79.45</ele>
        <time>2015-08-16T20:48:56Z</time>
      </trkpt>
      <trkpt lat="47.26183" lon="1.66127">
        <ele>78.97</ele>
        <time>2015-08-16T20:49:08Z</time>
      </trkpt>
      <trkpt lat="47.26188" lon="1.66183">
        <ele>78.97</ele>
        <time>2015-08-16T20:49:22Z</time>
      </trkpt>
      <trkpt lat="47.26185" lon="1.66196">
        <ele>78.97</ele>
        <time>2015-08-16T20:49:37Z</time>
      </trkpt>
      <trkpt lat="47.2618" lon="1.66237">
        <ele>78.97</ele>
        <time>2015-08-16T20:49:47Z</time>
      </trkpt>
      <trkpt lat="47.26166" lon="1.66292">
        <ele>79.45</ele>
        <time>2015-08-16T20:50:00Z</time>
      </trkpt>
      <trkpt lat="47.26135" lon="1.66355">
        <ele>79.45</ele>
        <time>2015-08-16T20:50:15Z</time>
      </trkpt>
      <trkpt lat="47.26131" lon="1.6643">
        <ele>79.93</ele>
        <time>2015-08-16T20:50:28Z</time>
      </trkpt>
      <trkpt lat="47.26137" lon="1.66488">
        <ele>80.41</ele>
        <time>2015-08-16T20:50:38Z</time>
      </trkpt>
      <trkpt lat="47.26152" lon="1.66556">
        <ele>79.93</ele>
        <time>2015-08-16T20:50:51Z</time>
      </trkpt>
      <trkpt lat="47.2618" lon="1.66614">
        <ele>79.93</ele>
        <time>2015-08-16T20:51:04Z</time>
      </trkpt>
      <trkpt lat="47.26206" lon="1.66655">
        <ele>79.93</ele>
        <time>2015-08-16T20:51:16Z</time>
      </trkpt>
      <trkpt lat="47.26226" lon="1.66713">
        <ele>79.93</ele>
        <time>2015-08-16T20:51:28Z</time>
      </trkpt>
      <trkpt lat="47.26242" lon="1.66787">
        <ele>79.93</ele>
        <time>2015-08-16T20:51:43Z</time>
      </trkpt>
      <trkpt lat="47.26255" lon="1.66846">
        <ele>79.93</ele>
        <time>2015-08-16T20:51:56Z</time>
      </trkpt>
      <trkpt lat="47.26274" lon="1.66874">
        <ele>79.93</ele>
        <time>2015-08-16T20:52:07Z</time>
      </trkpt>
      <trkpt lat="47.26276" lon="1.66874">
        <ele>79.45</ele>
        <time>2015-08-16T20:52:08Z</time>
      </trkpt>
      <trkpt lat="47.2629" lon="1.66868">
        <ele>79.45</ele>
        <time>2015-08-16T20:52:13Z</time>
      </trkpt>
      <trkpt lat="47.26292" lon="1.66866">
        <ele>79.93</ele>
        <time>2015-08-16T20:52:14Z</time>
      </trkpt>
      <trkpt lat="47.26295" lon="1.66864">
        <ele>79.93</ele>
        <time>2015-08-16T20:52:15Z</time>
      </trkpt>
      <trkpt lat="47.26298" lon="1.66863">
        <ele>79.93</ele>
        <time>2015-08-16T20:52:16Z</time>
      </trkpt>
      <trkpt lat="47.26302" lon="1.66864">
        <ele>79.93</ele>
        <time>2015-08-16T20:52:17Z</time>
      </trkpt>
      <trkpt lat="47.26304" lon="1.66867">
        <ele>79.93</ele>
        <time>2015-08-16T20:52:18Z</time>
      </trkpt>
      <trkpt lat="47.26304" lon="1.66871">
        <ele>80.41</ele>
        <time>2015-08-16T20:52:19Z</time>
      </trkpt>
      <trkpt lat="47.26297" lon="1.66903">
        <ele>80.41</ele>
        <time>2015-08-16T20:52:26Z</time>
      </trkpt>
      <trkpt lat="47.26294" lon="1.67008">
        <ele>80.41</ele>
        <time>2015-08-16T20:52:45Z</time>
      </trkpt>
      <trkpt lat="47.26294" lon="1.67013">
        <ele>80.41</ele>
        <time>2015-08-16T20:52:46Z</time>
      </trkpt>
      <trkpt lat="47.26296" lon="1.67045">
        <ele>80.41</ele>
        <time>2015-08-16T20:52:51Z</time>
      </trkpt>
      <trkpt lat="47.263" lon="1.67148">
        <ele>82.81</ele>
        <time>2015-08-16T20:53:08Z</time>
      </trkpt>
      <trkpt lat="47.263" lon="1.67154">
        <ele>77.04</ele>
        <time>2015-08-16T20:53:09Z</time>
      </trkpt>
      <trkpt lat="47.26301" lon="1.67174">
        <ele>80.41</ele>
        <time>2015-08-16T20:53:12Z</time>
      </trkpt>
      <trkpt lat="47.2631" lon="1.67283">
        <ele>80.41</ele>
        <time>2015-08-16T20:53:29Z</time>
      </trkpt>
      <trkpt lat="47.2631" lon="1.67289">
        <ele>80.41</ele>
        <time>2015-08-16T20:53:30Z</time>
      </trkpt>
      <trkpt lat="47.26311" lon="1.67296">
        <ele>80.41</ele>
        <time>2015-08-16T20:53:31Z</time>
      </trkpt>
      <trkpt lat="47.26316" lon="1.67352">
        <ele>80.41</ele>
        <time>2015-08-16T20:53:40Z</time>
      </trkpt>
      <trkpt lat="47.2632" lon="1.67388">
        <ele>80.41</ele>
        <time>2015-08-16T20:53:46Z</time>
      </trkpt>
      <trkpt lat="47.26342" lon="1.67479">
        <ele>80.89</ele>
        <time>2015-08-16T20:54:01Z</time>
      </trkpt>
      <trkpt lat="47.26344" lon="1.67484">
        <ele>80.89</ele>
        <time>2015-08-16T20:54:02Z</time>
      </trkpt>
      <trkpt lat="47.26354" lon="1.67522">
        <ele>80.89</ele>
        <time>2015-08-16T20:54:09Z</time>
      </trkpt>
      <trkpt lat="47.26356" lon="1.67528">
        <ele>81.37</ele>
        <time>2015-08-16T20:54:10Z</time>
      </trkpt>
      <trkpt lat="47.26358" lon="1.67546">
        <ele>80.89</ele>
        <time>2015-08-16T20:54:13Z</time>
      </trkpt>
      <trkpt lat="47.2637" lon="1.67655">
        <ele>81.37</ele>
        <time>2015-08-16T20:54:32Z</time>
      </trkpt>
      <trkpt lat="47.26379" lon="1.67752">
        <ele>80.89</ele>
        <time>2015-08-16T20:54:50Z</time>
      </trkpt>
      <trkpt lat="47.2638" lon="1.67824">
        <ele>80.89</ele>
        <time>2015-08-16T20:55:04Z</time>
      </trkpt>
      <trkpt lat="47.26382" lon="1.67867">
        <ele>80.89</ele>
        <time>2015-08-16T20:55:16Z</time>
      </trkpt>
      <trkpt lat="47.26385" lon="1.67952">
        <ele>80.41</ele>
        <time>2015-08-16T20:55:32Z</time>
      </trkpt>
      <trkpt lat="47.26389" lon="1.68026">
        <ele>80.41</ele>
        <time>2015-08-16T20:55:46Z</time>
      </trkpt>
      <trkpt lat="47.26396" lon="1.68075">
        <ele>80.89</ele>
        <time>2015-08-16T20:55:58Z</time>
      </trkpt>
      <trkpt lat="47.26396" lon="1.68077">
        <ele>80.41</ele>
        <time>2015-08-16T20:55:59Z</time>
      </trkpt>
      <trkpt lat="47.26396" lon="1.68079">
        <ele>80.41</ele>
        <time>2015-08-16T20:56:00Z</time>
      </trkpt>
      <trkpt lat="47.26397" lon="1.68091">
        <ele>80.41</ele>
        <time>2015-08-16T20:56:07Z</time>
      </trkpt>
      <trkpt lat="47.26403" lon="1.68126">
        <ele>80.89</ele>
        <time>2015-08-16T20:56:20Z</time>
      </trkpt>
      <trkpt lat="47.26421" lon="1.68196">
        <ele>80.89</ele>
        <time>2015-08-16T20:56:34Z</time>
      </trkpt>
      <trkpt lat="47.2645" lon="1.68295">
        <ele>81.37</ele>
        <time>2015-08-16T20:56:51Z</time>
      </trkpt>
      <trkpt lat="47.26452" lon="1.683">
        <ele>81.37</ele>
        <time>2015-08-16T20:56:52Z</time>
      </trkpt>
      <trkpt lat="47.26455" lon="1.68305">
        <ele>81.37</ele>
        <time>2015-08-16T20:56:53Z</time>
      </trkpt>
      <trkpt lat="47.26457" lon="1.6831">
        <ele>81.37</ele>
        <time>2015-08-16T20:56:54Z</time>
      </trkpt>
      <trkpt lat="47.26459" lon="1.68315">
        <ele>81.37</ele>
        <time>2015-08-16T20:56:55Z</time>
      </trkpt>
      <trkpt lat="47.26496" lon="1.68387">
        <ele>81.37</ele>
        <time>2015-08-16T20:57:10Z</time>
      </trkpt>
      <trkpt lat="47.26524" lon="1.68464">
        <ele>81.37</ele>
        <time>2015-08-16T20:57:25Z</time>
      </trkpt>
      <trkpt lat="47.26554" lon="1.68553">
        <ele>81.85</ele>
        <time>2015-08-16T20:57:43Z</time>
      </trkpt>
      <trkpt lat="47.26573" lon="1.68614">
        <ele>81.37</ele>
        <time>2015-08-16T20:57:57Z</time>
      </trkpt>
      <trkpt lat="47.26589" lon="1.68662">
        <ele>81.85</ele>
        <time>2015-08-16T20:58:10Z</time>
      </trkpt>
      <trkpt lat="47.26616" lon="1.68732">
        <ele>81.85</ele>
        <time>2015-08-16T20:58:26Z</time>
      </trkpt>
      <trkpt lat="47.26618" lon="1.68736">
        <ele>81.85</ele>
        <time>2015-08-16T20:58:27Z</time>
      </trkpt>
      <trkpt lat="47.26621" lon="1.68741">
        <ele>81.85</ele>
        <time>2015-08-16T20:58:28Z</time>
      </trkpt>
      <trkpt lat="47.26638" lon="1.68778">
        <ele>81.85</ele>
        <time>2015-08-16T20:58:36Z</time>
      </trkpt>
      <trkpt lat="47.26667" lon="1.68821">
        <ele>81.37</ele>
        <time>2015-08-16T20:58:48Z</time>
      </trkpt>
      <trkpt lat="47.26688" lon="1.68908">
        <ele>81.37</ele>
        <time>2015-08-16T20:59:04Z</time>
      </trkpt>
      <trkpt lat="47.26706" lon="1.68998">
        <ele>81.37</ele>
        <time>2015-08-16T20:59:20Z</time>
      </trkpt>
      <trkpt lat="47.26713" lon="1.69038">
        <ele>81.37</ele>
        <time>2015-08-16T20:59:27Z</time>
      </trkpt>
      <trkpt lat="47.26722" lon="1.69094">
        <ele>82.81</ele>
        <time>2015-08-16T20:59:38Z</time>
      </trkpt>
      <trkpt lat="47.26731" lon="1.69146">
        <ele>81.85</ele>
        <time>2015-08-16T20:59:49Z</time>
      </trkpt>
      <trkpt lat="47.2675" lon="1.69209">
        <ele>81.85</ele>
        <time>2015-08-16T21:00:05Z</time>
      </trkpt>
      <trkpt lat="47.26776" lon="1.69284">
        <ele>81.85</ele>
        <time>2015-08-16T21:00:22Z</time>
      </trkpt>
      <trkpt lat="47.26803" lon="1.69339">
        <ele>81.37</ele>
        <time>2015-08-16T21:00:37Z</time>
      </trkpt>
      <trkpt lat="47.26806" lon="1.69344">
        <ele>81.85</ele>
        <time>2015-08-16T21:00:38Z</time>
      </trkpt>
      <trkpt lat="47.26808" lon="1.69346">
        <ele>81.85</ele>
        <time>2015-08-16T21:00:39Z</time>
      </trkpt>
      <trkpt lat="47.2681" lon="1.69347">
        <ele>81.37</ele>
        <time>2015-08-16T21:00:40Z</time>
      </trkpt>
      <trkpt lat="47.26812" lon="1.69348">
        <ele>81.85</ele>
        <time>2015-08-16T21:00:41Z</time>
      </trkpt>
      <trkpt lat="47.26825" lon="1.69357">
        <ele>81.37</ele>
        <time>2015-08-16T21:00:47Z</time>
      </trkpt>
      <trkpt lat="47.26827" lon="1.69359">
        <ele>81.37</ele>
        <time>2015-08-16T21:00:48Z</time>
      </trkpt>
      <trkpt lat="47.26828" lon="1.6936">
        <ele>81.37</ele>
        <time>2015-08-16T21:00:49Z</time>
      </trkpt>
      <trkpt lat="47.26829" lon="1.69362">
        <ele>81.37</ele>
        <time>2015-08-16T21:00:50Z</time>
      </trkpt>
      <trkpt lat="47.26831" lon="1.69364">
        <ele>81.37</ele>
        <time>2015-08-16T21:00:51Z</time>
      </trkpt>
      <trkpt lat="47.26834" lon="1.69367">
        <ele>81.37</ele>
        <time>2015-08-16T21:00:53Z</time>
      </trkpt>
      <trkpt lat="47.26835" lon="1.69369">
        <ele>81.37</ele>
        <time>2015-08-16T21:00:54Z</time>
      </trkpt>
      <trkpt lat="47.26836" lon="1.69371">
        <ele>81.37</ele>
        <time>2015-08-16T21:00:55Z</time>
      </trkpt>
      <trkpt lat="47.26837" lon="1.69372">
        <ele>81.37</ele>
        <time>2015-08-16T21:00:56Z</time>
      </trkpt>
      <trkpt lat="47.26838" lon="1.69373">
        <ele>82.33</ele>
        <time>2015-08-16T21:00:57Z</time>
      </trkpt>
      <trkpt lat="47.26841" lon="1.69375">
        <ele>80.89</ele>
        <time>2015-08-16T21:01:00Z</time>
      </trkpt>
      <trkpt lat="47.26841" lon="1.69377">
        <ele>80.89</ele>
        <time>2015-08-16T21:01:01Z</time>
      </trkpt>
      <trkpt lat="47.26841" lon="1.69379">
        <ele>80.89</ele>
        <time>2015-08-16T21:01:02Z</time>
      </trkpt>
      <trkpt lat="47.26844" lon="1.6938">
        <ele>80.89</ele>
        <time>2015-08-16T21:01:31Z</time>
      </trkpt>
      <trkpt lat="47.26845" lon="1.6938">
        <ele>80.89</ele>
        <time>2015-08-16T21:02:04Z</time>
      </trkpt>
      <trkpt lat="47.26845" lon="1.6938">
        <ele>80.89</ele>
        <time>2015-08-16T21:02:39Z</time>
      </trkpt>
      <trkpt lat="47.26844" lon="1.6938">
        <ele>80.41</ele>
        <time>2015-08-16T21:03:10Z</time>
      </trkpt>
      <trkpt lat="47.26842" lon="1.6938">
        <ele>81.37</ele>
        <time>2015-08-16T21:03:41Z</time>
      </trkpt>
      <trkpt lat="47.26844" lon="1.6938">
        <ele>79.93</ele>
        <time>2015-08-16T21:04:21Z</time>
      </trkpt>
      <trkpt lat="47.26846" lon="1.69392">
        <ele>80.41</ele>
        <time>2015-08-16T21:04:33Z</time>
      </trkpt>
      <trkpt lat="47.26847" lon="1.69394">
        <ele>79.93</ele>
        <time>2015-08-16T21:04:34Z</time>
      </trkpt>
      <trkpt lat="47.26846" lon="1.69429">
        <ele>79.93</ele>
        <time>2015-08-16T21:04:43Z</time>
      </trkpt>
      <trkpt lat="47.26849" lon="1.69497">
        <ele>79.93</ele>
        <time>2015-08-16T21:04:54Z</time>
      </trkpt>
      <trkpt lat="47.26849" lon="1.69509">
        <ele>79.93</ele>
        <time>2015-08-16T21:04:56Z</time>
      </trkpt>
      <trkpt lat="47.26854" lon="1.69566">
        <ele>80.41</ele>
        <time>2015-08-16T21:05:06Z</time>
      </trkpt>
      <trkpt lat="47.26858" lon="1.69588">
        <ele>80.41</ele>
        <time>2015-08-16T21:05:10Z</time>
      </trkpt>
      <trkpt lat="47.26859" lon="1.69594">
        <ele>80.41</ele>
        <time>2015-08-16T21:05:11Z</time>
      </trkpt>
      <trkpt lat="47.2686" lon="1.69599">
        <ele>80.41</ele>
        <time>2015-08-16T21:05:12Z</time>
      </trkpt>
      <trkpt lat="47.26861" lon="1.69605">
        <ele>80.41</ele>
        <time>2015-08-16T21:05:13Z</time>
      </trkpt>
      <trkpt lat="47.26862" lon="1.69612">
        <ele>80.41</ele>
        <time>2015-08-16T21:05:14Z</time>
      </trkpt>
      <trkpt lat="47.26879" lon="1.69673">
        <ele>80.41</ele>
        <time>2015-08-16T21:05:24Z</time>
      </trkpt>
      <trkpt lat="47.26892" lon="1.69714">
        <ele>80.41</ele>
        <time>2015-08-16T21:05:31Z</time>
      </trkpt>
      <trkpt lat="47.26901" lon="1.69743">
        <ele>80.89</ele>
        <time>2015-08-16T21:05:36Z</time>
      </trkpt>
      <trkpt lat="47.26903" lon="1.69748">
        <ele>80.89</ele>
        <time>2015-08-16T21:05:37Z</time>
      </trkpt>
      <trkpt lat="47.26905" lon="1.69753">
        <ele>80.89</ele>
        <time>2015-08-16T21:05:38Z</time>
      </trkpt>
      <trkpt lat="47.26907" lon="1.69758">
        <ele>80.89</ele>
        <time>2015-08-16T21:05:39Z</time>
      </trkpt>
      <trkpt lat="47.26908" lon="1.69764">
        <ele>80.89</ele>
        <time>2015-08-16T21:05:40Z</time>
      </trkpt>
      <trkpt lat="47.2691" lon="1.69769">
        <ele>80.89</ele>
        <time>2015-08-16T21:05:41Z</time>
      </trkpt>
      <trkpt lat="47.2693" lon="1.69825">
        <ele>80.89</ele>
        <time>2015-08-16T21:05:51Z</time>
      </trkpt>
      <trkpt lat="47.26962" lon="1.6992">
        <ele>81.37</ele>
        <time>2015-08-16T21:06:08Z</time>
      </trkpt>
      <trkpt lat="47.26993" lon="1.7002">
        <ele>81.37</ele>
        <time>2015-08-16T21:06:26Z</time>
      </trkpt>
      <trkpt lat="47.27025" lon="1.70119">
        <ele>81.37</ele>
        <time>2015-08-16T21:06:46Z</time>
      </trkpt>
      <trkpt lat="47.27054" lon="1.70211">
        <ele>80.89</ele>
        <time>2015-08-16T21:07:04Z</time>
      </trkpt>
      <trkpt lat="47.27086" lon="1.70305">
        <ele>81.37</ele>
        <time>2015-08-16T21:07:22Z</time>
      </trkpt>
      <trkpt lat="47.27113" lon="1.70384">
        <ele>81.37</ele>
        <time>2015-08-16T21:07:37Z</time>
      </trkpt>
      <trkpt lat="47.27143" lon="1.70434">
        <ele>80.89</ele>
        <time>2015-08-16T21:07:50Z</time>
      </trkpt>
      <trkpt lat="47.27151" lon="1.70439">
        <ele>80.89</ele>
        <time>2015-08-16T21:07:52Z</time>
      </trkpt>
      <trkpt lat="47.27159" lon="1.70443">
        <ele>80.89</ele>
        <time>2015-08-16T21:07:54Z</time>
      </trkpt>
      <trkpt lat="47.27216" lon="1.70475">
        <ele>80.89</ele>
        <time>2015-08-16T21:08:09Z</time>
      </trkpt>
      <trkpt lat="47.27275" lon="1.70518">
        <ele>81.37</ele>
        <time>2015-08-16T21:08:24Z</time>
      </trkpt>
      <trkpt lat="47.27284" lon="1.70525">
        <ele>81.37</ele>
        <time>2015-08-16T21:08:26Z</time>
      </trkpt>
      <trkpt lat="47.27287" lon="1.70528">
        <ele>81.37</ele>
        <time>2015-08-16T21:08:27Z</time>
      </trkpt>
      <trkpt lat="47.27291" lon="1.70531">
        <ele>81.85</ele>
        <time>2015-08-16T21:08:28Z</time>
      </trkpt>
      <trkpt lat="47.27294" lon="1.70533">
        <ele>81.85</ele>
        <time>2015-08-16T21:08:29Z</time>
      </trkpt>
      <trkpt lat="47.27299" lon="1.70535">
        <ele>81.85</ele>
        <time>2015-08-16T21:08:30Z</time>
      </trkpt>
      <trkpt lat="47.27303" lon="1.70535">
        <ele>81.85</ele>
        <time>2015-08-16T21:08:31Z</time>
      </trkpt>
      <trkpt lat="47.27318" lon="1.7053">
        <ele>82.81</ele>
        <time>2015-08-16T21:08:36Z</time>
      </trkpt>
      <trkpt lat="47.2732" lon="1.7053">
        <ele>82.81</ele>
        <time>2015-08-16T21:08:37Z</time>
      </trkpt>
      <trkpt lat="47.27321" lon="1.70529">
        <ele>82.81</ele>
        <time>2015-08-16T21:08:38Z</time>
      </trkpt>
      <trkpt lat="47.27322" lon="1.70529">
        <ele>82.81</ele>
        <time>2015-08-16T21:08:53Z</time>
      </trkpt>
      <trkpt lat="47.27322" lon="1.70528">
        <ele>82.81</ele>
        <time>2015-08-16T21:09:25Z</time>
      </trkpt>
      <trkpt lat="47.27321" lon="1.70528">
        <ele>82.81</ele>
        <time>2015-08-16T21:09:47Z</time>
      </trkpt>
      <trkpt lat="47.27325" lon="1.70528">
        <ele>82.81</ele>
        <time>2015-08-16T21:10:12Z</time>
      </trkpt>
      <trkpt lat="47.27324" lon="1.70527">
        <ele>82.81</ele>
        <time>2015-08-16T21:10:45Z</time>
      </trkpt>
      <trkpt lat="47.27325" lon="1.70524">
        <ele>82.81</ele>
        <time>2015-08-16T21:11:24Z</time>
      </trkpt>
      <trkpt lat="47.27326" lon="1.70525">
        <ele>82.81</ele>
        <time>2015-08-16T21:11:59Z</time>
      </trkpt>
      <trkpt lat="47.27326" lon="1.70527">
        <ele>82.81</ele>
        <time>2015-08-16T21:12:32Z</time>
      </trkpt>
      <trkpt lat="47.27332" lon="1.70526">
        <ele>82.81</ele>
        <time>2015-08-16T21:12:43Z</time>
      </trkpt>
      <trkpt lat="47.27374" lon="1.70535">
        <ele>84.25</ele>
        <time>2015-08-16T21:12:55Z</time>
      </trkpt>
      <trkpt lat="47.27378" lon="1.70536">
        <ele>84.25</ele>
        <time>2015-08-16T21:12:56Z</time>
      </trkpt>
      <trkpt lat="47.27382" lon="1.70536">
        <ele>84.25</ele>
        <time>2015-08-16T21:12:57Z</time>
      </trkpt>
      <trkpt lat="47.27386" lon="1.70536">
        <ele>84.73</ele>
        <time>2015-08-16T21:12:58Z</time>
      </trkpt>
      <trkpt lat="47.27391" lon="1.70537">
        <ele>84.73</ele>
        <time>2015-08-16T21:12:59Z</time>
      </trkpt>
      <trkpt lat="47.27395" lon="1.70536">
        <ele>85.21</ele>
        <time>2015-08-16T21:13:00Z</time>
      </trkpt>
      <trkpt lat="47.274" lon="1.70536">
        <ele>85.21</ele>
        <time>2015-08-16T21:13:01Z</time>
      </trkpt>
      <trkpt lat="47.27405" lon="1.70536">
        <ele>86.18</ele>
        <time>2015-08-16T21:13:02Z</time>
      </trkpt>
      <trkpt lat="47.27434" lon="1.70534">
        <ele>88.58</ele>
        <time>2015-08-16T21:13:08Z</time>
      </trkpt>
      <trkpt lat="47.27468" lon="1.70521">
        <ele>90.02</ele>
        <time>2015-08-16T21:13:15Z</time>
      </trkpt>
      <trkpt lat="47.27513" lon="1.70506">
        <ele>91.46</ele>
        <time>2015-08-16T21:13:27Z</time>
      </trkpt>
      <trkpt lat="47.27515" lon="1.70505">
        <ele>91.46</ele>
        <time>2015-08-16T21:13:28Z</time>
      </trkpt>
      <trkpt lat="47.27517" lon="1.70505">
        <ele>91.94</ele>
        <time>2015-08-16T21:13:29Z</time>
      </trkpt>
      <trkpt lat="47.27524" lon="1.70509">
        <ele>91.46</ele>
        <time>2015-08-16T21:13:32Z</time>
      </trkpt>
      <trkpt lat="47.27545" lon="1.70565">
        <ele>91.94</ele>
        <time>2015-08-16T21:13:44Z</time>
      </trkpt>
      <trkpt lat="47.27566" lon="1.70627">
        <ele>91.94</ele>
        <time>2015-08-16T21:13:57Z</time>
      </trkpt>
      <trkpt lat="47.27583" lon="1.70679">
        <ele>91.94</ele>
        <time>2015-08-16T21:14:07Z</time>
      </trkpt>
      <trkpt lat="47.27593" lon="1.70717">
        <ele>91.94</ele>
        <time>2015-08-16T21:14:19Z</time>
      </trkpt>
      <trkpt lat="47.27593" lon="1.70718">
        <ele>92.42</ele>
        <time>2015-08-16T21:14:32Z</time>
      </trkpt>
      <trkpt lat="47.27593" lon="1.70718">
        <ele>96.27</ele>
        <time>2015-08-16T21:14:33Z</time>
      </trkpt>
      <trkpt lat="47.27593" lon="1.70718">
        <ele>87.14</ele>
        <time>2015-08-16T21:14:34Z</time>
      </trkpt>
      <trkpt lat="47.27593" lon="1.70719">
        <ele>91.94</ele>
        <time>2015-08-16T21:14:45Z</time>
      </trkpt>
      <trkpt lat="47.27593" lon="1.70719">
        <ele>90.02</ele>
        <time>2015-08-16T21:15:09Z</time>
      </trkpt>
      <trkpt lat="47.27593" lon="1.70719">
        <ele>94.35</ele>
        <time>2015-08-16T21:15:10Z</time>
      </trkpt>
      <trkpt lat="47.27593" lon="1.70718">
        <ele>88.1</ele>
        <time>2015-08-16T21:15:11Z</time>
      </trkpt>
      <trkpt lat="47.27593" lon="1.70718">
        <ele>92.42</ele>
        <time>2015-08-16T21:15:17Z</time>
      </trkpt>
      <trkpt lat="47.27593" lon="1.70718">
        <ele>97.23</ele>
        <time>2015-08-16T21:15:18Z</time>
      </trkpt>
      <trkpt lat="47.27593" lon="1.70718">
        <ele>86.66</ele>
        <time>2015-08-16T21:15:19Z</time>
      </trkpt>
      <trkpt lat="47.27593" lon="1.70718">
        <ele>90.5</ele>
        <time>2015-08-16T21:15:41Z</time>
      </trkpt>
      <trkpt lat="47.27593" lon="1.70718">
        <ele>95.31</ele>
        <time>2015-08-16T21:15:42Z</time>
      </trkpt>
      <trkpt lat="47.27593" lon="1.70718">
        <ele>87.62</ele>
        <time>2015-08-16T21:15:43Z</time>
      </trkpt>
      <trkpt lat="47.27593" lon="1.70718">
        <ele>95.31</ele>
        <time>2015-08-16T21:15:44Z</time>
      </trkpt>
      <trkpt lat="47.27593" lon="1.70718">
        <ele>87.62</ele>
        <time>2015-08-16T21:15:45Z</time>
      </trkpt>
      <trkpt lat="47.27593" lon="1.70717">
        <ele>93.87</ele>
        <time>2015-08-16T21:15:46Z</time>
      </trkpt>
      <trkpt lat="47.27593" lon="1.70717">
        <ele>90.02</ele>
        <time>2015-08-16T21:15:47Z</time>
      </trkpt>
      <trkpt lat="47.27593" lon="1.70718">
        <ele>93.87</ele>
        <time>2015-08-16T21:15:48Z</time>
      </trkpt>
      <trkpt lat="47.27593" lon="1.70718">
        <ele>90.5</ele>
        <time>2015-08-16T21:15:50Z</time>
      </trkpt>
      <trkpt lat="47.27593" lon="1.70718">
        <ele>93.87</ele>
        <time>2015-08-16T21:15:53Z</time>
      </trkpt>
      <trkpt lat="47.27593" lon="1.70718">
        <ele>89.06</ele>
        <time>2015-08-16T21:15:54Z</time>
      </trkpt>
      <trkpt lat="47.27592" lon="1.70718">
        <ele>93.87</ele>
        <time>2015-08-16T21:16:06Z</time>
      </trkpt>
      <trkpt lat="47.27592" lon="1.70718">
        <ele>90.5</ele>
        <time>2015-08-16T21:16:07Z</time>
      </trkpt>
      <trkpt lat="47.27592" lon="1.70717">
        <ele>93.87</ele>
        <time>2015-08-16T21:16:13Z</time>
      </trkpt>
      <trkpt lat="47.27592" lon="1.70717">
        <ele>90.5</ele>
        <time>2015-08-16T21:16:18Z</time>
      </trkpt>
      <trkpt lat="47.27592" lon="1.70717">
        <ele>94.35</ele>
        <time>2015-08-16T21:16:19Z</time>
      </trkpt>
      <trkpt lat="47.27593" lon="1.70723">
        <ele>91.94</ele>
        <time>2015-08-16T21:16:31Z</time>
      </trkpt>
      <trkpt lat="47.27597" lon="1.70741">
        <ele>94.83</ele>
        <time>2015-08-16T21:16:36Z</time>
      </trkpt>
      <trkpt lat="47.27598" lon="1.70746">
        <ele>88.1</ele>
        <time>2015-08-16T21:16:37Z</time>
      </trkpt>
      <trkpt lat="47.27599" lon="1.70751">
        <ele>94.35</ele>
        <time>2015-08-16T21:16:38Z</time>
      </trkpt>
      <trkpt lat="47.27605" lon="1.70784">
        <ele>90.98</ele>
        <time>2015-08-16T21:16:45Z</time>
      </trkpt>
      <trkpt lat="47.27606" lon="1.7079">
        <ele>94.35</ele>
        <time>2015-08-16T21:16:46Z</time>
      </trkpt>
      <trkpt lat="47.27607" lon="1.70795">
        <ele>91.46</ele>
        <time>2015-08-16T21:16:47Z</time>
      </trkpt>
      <trkpt lat="47.27608" lon="1.70801">
        <ele>95.79</ele>
        <time>2015-08-16T21:16:48Z</time>
      </trkpt>
      <trkpt lat="47.27609" lon="1.70807">
        <ele>90.02</ele>
        <time>2015-08-16T21:16:49Z</time>
      </trkpt>
      <trkpt lat="47.2761" lon="1.70813">
        <ele>95.79</ele>
        <time>2015-08-16T21:16:50Z</time>
      </trkpt>
      <trkpt lat="47.27611" lon="1.70819">
        <ele>87.62</ele>
        <time>2015-08-16T21:16:51Z</time>
      </trkpt>
      <trkpt lat="47.2762" lon="1.70863">
        <ele>92.42</ele>
        <time>2015-08-16T21:16:58Z</time>
      </trkpt>
      <trkpt lat="47.27622" lon="1.70869">
        <ele>92.42</ele>
        <time>2015-08-16T21:16:59Z</time>
      </trkpt>
      <trkpt lat="47.27635" lon="1.70935">
        <ele>92.9</ele>
        <time>2015-08-16T21:17:11Z</time>
      </trkpt>
      <trkpt lat="47.27645" lon="1.70962">
        <ele>92.42</ele>
        <time>2015-08-16T21:17:16Z</time>
      </trkpt>
      <trkpt lat="47.27662" lon="1.70997">
        <ele>92.42</ele>
        <time>2015-08-16T21:17:23Z</time>
      </trkpt>
      <trkpt lat="47.27687" lon="1.71036">
        <ele>92.42</ele>
        <time>2015-08-16T21:17:32Z</time>
      </trkpt>
      <trkpt lat="47.27733" lon="1.71102">
        <ele>92.42</ele>
        <time>2015-08-16T21:17:48Z</time>
      </trkpt>
      <trkpt lat="47.27736" lon="1.71106">
        <ele>96.75</ele>
        <time>2015-08-16T21:17:49Z</time>
      </trkpt>
      <trkpt lat="47.27765" lon="1.71154">
        <ele>92.42</ele>
        <time>2015-08-16T21:18:00Z</time>
      </trkpt>
      <trkpt lat="47.27768" lon="1.7116">
        <ele>92.42</ele>
        <time>2015-08-16T21:18:01Z</time>
      </trkpt>
      <trkpt lat="47.27778" lon="1.71183">
        <ele>92.9</ele>
        <time>2015-08-16T21:18:06Z</time>
      </trkpt>
      <trkpt lat="47.27804" lon="1.71257">
        <ele>92.9</ele>
        <time>2015-08-16T21:18:21Z</time>
      </trkpt>
      <trkpt lat="47.27806" lon="1.71262">
        <ele>92.42</ele>
        <time>2015-08-16T21:18:22Z</time>
      </trkpt>
      <trkpt lat="47.27809" lon="1.71267">
        <ele>92.42</ele>
        <time>2015-08-16T21:18:23Z</time>
      </trkpt>
      <trkpt lat="47.27811" lon="1.71272">
        <ele>92.9</ele>
        <time>2015-08-16T21:18:24Z</time>
      </trkpt>
      <trkpt lat="47.27814" lon="1.71276">
        <ele>92.42</ele>
        <time>2015-08-16T21:18:25Z</time>
      </trkpt>
      <trkpt lat="47.27816" lon="1.7128">
        <ele>92.42</ele>
        <time>2015-08-16T21:18:26Z</time>
      </trkpt>
      <trkpt lat="47.2782" lon="1.71284">
        <ele>92.9</ele>
        <time>2015-08-16T21:18:27Z</time>
      </trkpt>
      <trkpt lat="47.27826" lon="1.71291">
        <ele>92.9</ele>
        <time>2015-08-16T21:18:29Z</time>
      </trkpt>
      <trkpt lat="47.2783" lon="1.71293">
        <ele>92.9</ele>
        <time>2015-08-16T21:18:30Z</time>
      </trkpt>
      <trkpt lat="47.27834" lon="1.71295">
        <ele>92.42</ele>
        <time>2015-08-16T21:18:31Z</time>
      </trkpt>
      <trkpt lat="47.27885" lon="1.71325">
        <ele>92.9</ele>
        <time>2015-08-16T21:18:43Z</time>
      </trkpt>
      <trkpt lat="47.27892" lon="1.71334">
        <ele>92.9</ele>
        <time>2015-08-16T21:18:45Z</time>
      </trkpt>
      <trkpt lat="47.27932" lon="1.71388">
        <ele>92.9</ele>
        <time>2015-08-16T21:18:58Z</time>
      </trkpt>
      <trkpt lat="47.27971" lon="1.71444">
        <ele>92.42</ele>
        <time>2015-08-16T21:19:12Z</time>
      </trkpt>
      <trkpt lat="47.27975" lon="1.71448">
        <ele>92.42</ele>
        <time>2015-08-16T21:19:13Z</time>
      </trkpt>
      <trkpt lat="47.27978" lon="1.71452">
        <ele>92.42</ele>
        <time>2015-08-16T21:19:14Z</time>
      </trkpt>
      <trkpt lat="47.27981" lon="1.71454">
        <ele>92.42</ele>
        <time>2015-08-16T21:19:15Z</time>
      </trkpt>
      <trkpt lat="47.27985" lon="1.71456">
        <ele>92.42</ele>
        <time>2015-08-16T21:19:16Z</time>
      </trkpt>
      <trkpt lat="47.27989" lon="1.71456">
        <ele>92.42</ele>
        <time>2015-08-16T21:19:17Z</time>
      </trkpt>
      <trkpt lat="47.27993" lon="1.71454">
        <ele>92.42</ele>
        <time>2015-08-16T21:19:18Z</time>
      </trkpt>
      <trkpt lat="47.27996" lon="1.71451">
        <ele>92.42</ele>
        <time>2015-08-16T21:19:19Z</time>
      </trkpt>
      <trkpt lat="47.28006" lon="1.71436">
        <ele>92.42</ele>
        <time>2015-08-16T21:19:22Z</time>
      </trkpt>
      <trkpt lat="47.28019" lon="1.71412">
        <ele>92.9</ele>
        <time>2015-08-16T21:19:26Z</time>
      </trkpt>
      <trkpt lat="47.28074" lon="1.71321">
        <ele>93.87</ele>
        <time>2015-08-16T21:19:41Z</time>
      </trkpt>
      <trkpt lat="47.28077" lon="1.71316">
        <ele>93.87</ele>
        <time>2015-08-16T21:19:42Z</time>
      </trkpt>
      <trkpt lat="47.28081" lon="1.71311">
        <ele>93.87</ele>
        <time>2015-08-16T21:19:43Z</time>
      </trkpt>
      <trkpt lat="47.28085" lon="1.71306">
        <ele>93.87</ele>
        <time>2015-08-16T21:19:44Z</time>
      </trkpt>
      <trkpt lat="47.28089" lon="1.71302">
        <ele>94.35</ele>
        <time>2015-08-16T21:19:45Z</time>
      </trkpt>
      <trkpt lat="47.28094" lon="1.71298">
        <ele>94.35</ele>
        <time>2015-08-16T21:19:46Z</time>
      </trkpt>
      <trkpt lat="47.28121" lon="1.71276">
        <ele>94.83</ele>
        <time>2015-08-16T21:19:52Z</time>
      </trkpt>
      <trkpt lat="47.2813" lon="1.71272">
        <ele>94.83</ele>
        <time>2015-08-16T21:19:54Z</time>
      </trkpt>
      <trkpt lat="47.28167" lon="1.71252">
        <ele>95.31</ele>
        <time>2015-08-16T21:20:04Z</time>
      </trkpt>
      <trkpt lat="47.28211" lon="1.71231">
        <ele>95.79</ele>
        <time>2015-08-16T21:20:18Z</time>
      </trkpt>
      <trkpt lat="47.28247" lon="1.71215">
        <ele>96.27</ele>
        <time>2015-08-16T21:20:30Z</time>
      </trkpt>
      <trkpt lat="47.28272" lon="1.71204">
        <ele>96.27</ele>
        <time>2015-08-16T21:20:42Z</time>
      </trkpt>
      <trkpt lat="47.28275" lon="1.71202">
        <ele>96.27</ele>
        <time>2015-08-16T21:20:43Z</time>
      </trkpt>
      <trkpt lat="47.28277" lon="1.71201">
        <ele>96.27</ele>
        <time>2015-08-16T21:20:44Z</time>
      </trkpt>
      <trkpt lat="47.2828" lon="1.71199">
        <ele>96.27</ele>
        <time>2015-08-16T21:20:45Z</time>
      </trkpt>
      <trkpt lat="47.28282" lon="1.71198">
        <ele>96.27</ele>
        <time>2015-08-16T21:20:46Z</time>
      </trkpt>
      <trkpt lat="47.28285" lon="1.71197">
        <ele>96.27</ele>
        <time>2015-08-16T21:20:47Z</time>
      </trkpt>
      <trkpt lat="47.28288" lon="1.71199">
        <ele>96.27</ele>
        <time>2015-08-16T21:20:48Z</time>
      </trkpt>
      <trkpt lat="47.28297" lon="1.71214">
        <ele>96.27</ele>
        <time>2015-08-16T21:20:52Z</time>
      </trkpt>
      <trkpt lat="47.28299" lon="1.71219">
        <ele>96.27</ele>
        <time>2015-08-16T21:20:53Z</time>
      </trkpt>
      <trkpt lat="47.28317" lon="1.71261">
        <ele>96.75</ele>
        <time>2015-08-16T21:21:00Z</time>
      </trkpt>
      <trkpt lat="47.28346" lon="1.71341">
        <ele>96.27</ele>
        <time>2015-08-16T21:21:14Z</time>
      </trkpt>
      <trkpt lat="47.28349" lon="1.71351">
        <ele>97.23</ele>
        <time>2015-08-16T21:21:16Z</time>
      </trkpt>
      <trkpt lat="47.2835" lon="1.71356">
        <ele>103.48</ele>
        <time>2015-08-16T21:21:17Z</time>
      </trkpt>
      <trkpt lat="47.28351" lon="1.71362">
        <ele>89.54</ele>
        <time>2015-08-16T21:21:18Z</time>
      </trkpt>
      <trkpt lat="47.28376" lon="1.71452">
        <ele>96.27</ele>
        <time>2015-08-16T21:21:34Z</time>
      </trkpt>
      <trkpt lat="47.28394" lon="1.71521">
        <ele>96.27</ele>
        <time>2015-08-16T21:21:48Z</time>
      </trkpt>
      <trkpt lat="47.28413" lon="1.71575">
        <ele>96.27</ele>
        <time>2015-08-16T21:22:02Z</time>
      </trkpt>
      <trkpt lat="47.28435" lon="1.71643">
        <ele>96.75</ele>
        <time>2015-08-16T21:22:19Z</time>
      </trkpt>
      <trkpt lat="47.28453" lon="1.71688">
        <ele>96.75</ele>
        <time>2015-08-16T21:22:31Z</time>
      </trkpt>
      <trkpt lat="47.28476" lon="1.71749">
        <ele>97.23</ele>
        <time>2015-08-16T21:22:45Z</time>
      </trkpt>
      <trkpt lat="47.28492" lon="1.71827">
        <ele>96.27</ele>
        <time>2015-08-16T21:23:02Z</time>
      </trkpt>
      <trkpt lat="47.2851" lon="1.71916">
        <ele>96.27</ele>
        <time>2015-08-16T21:23:20Z</time>
      </trkpt>
      <trkpt lat="47.28524" lon="1.71984">
        <ele>95.79</ele>
        <time>2015-08-16T21:23:34Z</time>
      </trkpt>
      <trkpt lat="47.28541" lon="1.72064">
        <ele>95.31</ele>
        <time>2015-08-16T21:23:50Z</time>
      </trkpt>
      <trkpt lat="47.28557" lon="1.72146">
        <ele>94.83</ele>
        <time>2015-08-16T21:24:07Z</time>
      </trkpt>
      <trkpt lat="47.28573" lon="1.7221">
        <ele>94.35</ele>
        <time>2015-08-16T21:24:20Z</time>
      </trkpt>
      <trkpt lat="47.28592" lon="1.72308">
        <ele>94.35</ele>
        <time>2015-08-16T21:24:38Z</time>
      </trkpt>
      <trkpt lat="47.28598" lon="1.72352">
        <ele>94.35</ele>
        <time>2015-08-16T21:24:45Z</time>
      </trkpt>
      <trkpt lat="47.28613" lon="1.72452">
        <ele>94.83</ele>
        <time>2015-08-16T21:25:02Z</time>
      </trkpt>
      <trkpt lat="47.2862" lon="1.72508">
        <ele>95.31</ele>
        <time>2015-08-16T21:25:17Z</time>
      </trkpt>
      <trkpt lat="47.28628" lon="1.72566">
        <ele>95.31</ele>
        <time>2015-08-16T21:25:32Z</time>
      </trkpt>
      <trkpt lat="47.28637" lon="1.72621">
        <ele>95.31</ele>
        <time>2015-08-16T21:25:43Z</time>
      </trkpt>
      <trkpt lat="47.2865" lon="1.727">
        <ele>95.79</ele>
        <time>2015-08-16T21:25:57Z</time>
      </trkpt>
      <trkpt lat="47.28651" lon="1.72706">
        <ele>95.31</ele>
        <time>2015-08-16T21:25:58Z</time>
      </trkpt>
      <trkpt lat="47.28656" lon="1.72735">
        <ele>95.79</ele>
        <time>2015-08-16T21:26:03Z</time>
      </trkpt>
      <trkpt lat="47.28672" lon="1.72817">
        <ele>95.31</ele>
        <time>2015-08-16T21:26:18Z</time>
      </trkpt>
      <trkpt lat="47.28688" lon="1.72904">
        <ele>94.83</ele>
        <time>2015-08-16T21:26:35Z</time>
      </trkpt>
      <trkpt lat="47.28705" lon="1.72999">
        <ele>93.87</ele>
        <time>2015-08-16T21:26:56Z</time>
      </trkpt>
      <trkpt lat="47.28717" lon="1.73077">
        <ele>91.94</ele>
        <time>2015-08-16T21:27:14Z</time>
      </trkpt>
      <trkpt lat="47.28729" lon="1.73147">
        <ele>90.98</ele>
        <time>2015-08-16T21:27:31Z</time>
      </trkpt>
      <trkpt lat="47.28742" lon="1.73197">
        <ele>89.54</ele>
        <time>2015-08-16T21:27:45Z</time>
      </trkpt>
      <trkpt lat="47.28746" lon="1.732">
        <ele>89.54</ele>
        <time>2015-08-16T21:27:49Z</time>
      </trkpt>
      <trkpt lat="47.28749" lon="1.73203">
        <ele>89.54</ele>
        <time>2015-08-16T21:27:52Z</time>
      </trkpt>
      <trkpt lat="47.28753" lon="1.73246">
        <ele>90.02</ele>
        <time>2015-08-16T21:28:01Z</time>
      </trkpt>
      <trkpt lat="47.28771" lon="1.73314">
        <ele>90.98</ele>
        <time>2015-08-16T21:28:10Z</time>
      </trkpt>
      <trkpt lat="47.28796" lon="1.73422">
        <ele>92.9</ele>
        <time>2015-08-16T21:28:26Z</time>
      </trkpt>
      <trkpt lat="47.28813" lon="1.73485">
        <ele>93.39</ele>
        <time>2015-08-16T21:28:38Z</time>
      </trkpt>
      <trkpt lat="47.2884" lon="1.7359">
        <ele>94.35</ele>
        <time>2015-08-16T21:28:56Z</time>
      </trkpt>
      <trkpt lat="47.28864" lon="1.73689">
        <ele>94.83</ele>
        <time>2015-08-16T21:29:13Z</time>
      </trkpt>
      <trkpt lat="47.28872" lon="1.73712">
        <ele>94.83</ele>
        <time>2015-08-16T21:29:17Z</time>
      </trkpt>
      <trkpt lat="47.28895" lon="1.73812">
        <ele>94.35</ele>
        <time>2015-08-16T21:29:33Z</time>
      </trkpt>
      <trkpt lat="47.28897" lon="1.73818">
        <ele>94.35</ele>
        <time>2015-08-16T21:29:34Z</time>
      </trkpt>
      <trkpt lat="47.28917" lon="1.73888">
        <ele>94.35</ele>
        <time>2015-08-16T21:29:46Z</time>
      </trkpt>
      <trkpt lat="47.28934" lon="1.7397">
        <ele>94.35</ele>
        <time>2015-08-16T21:30:00Z</time>
      </trkpt>
      <trkpt lat="47.28935" lon="1.73976">
        <ele>94.35</ele>
        <time>2015-08-16T21:30:01Z</time>
      </trkpt>
      <trkpt lat="47.28935" lon="1.73982">
        <ele>94.35</ele>
        <time>2015-08-16T21:30:02Z</time>
      </trkpt>
      <trkpt lat="47.28942" lon="1.74007">
        <ele>94.35</ele>
        <time>2015-08-16T21:30:07Z</time>
      </trkpt>
      <trkpt lat="47.28956" lon="1.74068">
        <ele>94.35</ele>
        <time>2015-08-16T21:30:19Z</time>
      </trkpt>
      <trkpt lat="47.28966" lon="1.74146">
        <ele>93.39</ele>
        <time>2015-08-16T21:30:35Z</time>
      </trkpt>
      <trkpt lat="47.28982" lon="1.7425">
        <ele>91.46</ele>
        <time>2015-08-16T21:30:54Z</time>
      </trkpt>
      <trkpt lat="47.28995" lon="1.74339">
        <ele>90.98</ele>
        <time>2015-08-16T21:31:07Z</time>
      </trkpt>
      <trkpt lat="47.28998" lon="1.74354">
        <ele>90.98</ele>
        <time>2015-08-16T21:31:09Z</time>
      </trkpt>
      <trkpt lat="47.29008" lon="1.74409">
        <ele>90.98</ele>
        <time>2015-08-16T21:31:17Z</time>
      </trkpt>
      <trkpt lat="47.29034" lon="1.74548">
        <ele>92.42</ele>
        <time>2015-08-16T21:31:34Z</time>
      </trkpt>
      <trkpt lat="47.29057" lon="1.74671">
        <ele>94.83</ele>
        <time>2015-08-16T21:31:51Z</time>
      </trkpt>
      <trkpt lat="47.29069" lon="1.74702">
        <ele>95.31</ele>
        <time>2015-08-16T21:31:57Z</time>
      </trkpt>
      <trkpt lat="47.29071" lon="1.74707">
        <ele>95.31</ele>
        <time>2015-08-16T21:31:58Z</time>
      </trkpt>
      <trkpt lat="47.29081" lon="1.74759">
        <ele>95.31</ele>
        <time>2015-08-16T21:32:07Z</time>
      </trkpt>
      <trkpt lat="47.29103" lon="1.74839">
        <ele>95.79</ele>
        <time>2015-08-16T21:32:21Z</time>
      </trkpt>
      <trkpt lat="47.29128" lon="1.74928">
        <ele>95.79</ele>
        <time>2015-08-16T21:32:37Z</time>
      </trkpt>
      <trkpt lat="47.29153" lon="1.75024">
        <ele>96.27</ele>
        <time>2015-08-16T21:32:54Z</time>
      </trkpt>
      <trkpt lat="47.29178" lon="1.75117">
        <ele>96.27</ele>
        <time>2015-08-16T21:33:10Z</time>
      </trkpt>
      <trkpt lat="47.29207" lon="1.75226">
        <ele>97.23</ele>
        <time>2015-08-16T21:33:29Z</time>
      </trkpt>
      <trkpt lat="47.29208" lon="1.75231">
        <ele>101.56</ele>
        <time>2015-08-16T21:33:30Z</time>
      </trkpt>
      <trkpt lat="47.2921" lon="1.75237">
        <ele>94.83</ele>
        <time>2015-08-16T21:33:31Z</time>
      </trkpt>
      <trkpt lat="47.29211" lon="1.75242">
        <ele>92.9</ele>
        <time>2015-08-16T21:33:32Z</time>
      </trkpt>
      <trkpt lat="47.29226" lon="1.75297">
        <ele>97.23</ele>
        <time>2015-08-16T21:33:42Z</time>
      </trkpt>
      <trkpt lat="47.29248" lon="1.75387">
        <ele>97.23</ele>
        <time>2015-08-16T21:33:58Z</time>
      </trkpt>
      <trkpt lat="47.29262" lon="1.75475">
        <ele>97.23</ele>
        <time>2015-08-16T21:34:15Z</time>
      </trkpt>
      <trkpt lat="47.29272" lon="1.75548">
        <ele>96.75</ele>
        <time>2015-08-16T21:34:30Z</time>
      </trkpt>
      <trkpt lat="47.29281" lon="1.75633">
        <ele>96.27</ele>
        <time>2015-08-16T21:34:46Z</time>
      </trkpt>
      <trkpt lat="47.29291" lon="1.75717">
        <ele>96.27</ele>
        <time>2015-08-16T21:35:02Z</time>
      </trkpt>
      <trkpt lat="47.293" lon="1.75778">
        <ele>95.79</ele>
        <time>2015-08-16T21:35:15Z</time>
      </trkpt>
      <trkpt lat="47.29304" lon="1.75832">
        <ele>95.79</ele>
        <time>2015-08-16T21:35:29Z</time>
      </trkpt>
      <trkpt lat="47.29308" lon="1.75891">
        <ele>95.31</ele>
        <time>2015-08-16T21:35:45Z</time>
      </trkpt>
      <trkpt lat="47.29313" lon="1.75953">
        <ele>94.83</ele>
        <time>2015-08-16T21:36:03Z</time>
      </trkpt>
      <trkpt lat="47.29317" lon="1.76005">
        <ele>94.35</ele>
        <time>2015-08-16T21:36:18Z</time>
      </trkpt>
      <trkpt lat="47.2932" lon="1.76057">
        <ele>93.87</ele>
        <time>2015-08-16T21:36:32Z</time>
      </trkpt>
      <trkpt lat="47.29324" lon="1.76114">
        <ele>93.39</ele>
        <time>2015-08-16T21:36:46Z</time>
      </trkpt>
      <trkpt lat="47.29327" lon="1.76178">
        <ele>92.42</ele>
        <time>2015-08-16T21:37:02Z</time>
      </trkpt>
      <trkpt lat="47.29327" lon="1.76246">
        <ele>90.98</ele>
        <time>2015-08-16T21:37:20Z</time>
      </trkpt>
      <trkpt lat="47.29329" lon="1.76306">
        <ele>89.06</ele>
        <time>2015-08-16T21:37:37Z</time>
      </trkpt>
      <trkpt lat="47.2933" lon="1.76361">
        <ele>87.62</ele>
        <time>2015-08-16T21:37:53Z</time>
      </trkpt>
      <trkpt lat="47.29331" lon="1.76427">
        <ele>85.69</ele>
        <time>2015-08-16T21:38:10Z</time>
      </trkpt>
      <trkpt lat="47.2933" lon="1.76495">
        <ele>84.73</ele>
        <time>2015-08-16T21:38:26Z</time>
      </trkpt>
      <trkpt lat="47.2933" lon="1.76578">
        <ele>83.77</ele>
        <time>2015-08-16T21:38:41Z</time>
      </trkpt>
      <trkpt lat="47.29318" lon="1.76678">
        <ele>84.73</ele>
        <time>2015-08-16T21:38:56Z</time>
      </trkpt>
      <trkpt lat="47.2931" lon="1.76747">
        <ele>85.69</ele>
        <time>2015-08-16T21:39:08Z</time>
      </trkpt>
      <trkpt lat="47.2931" lon="1.76752">
        <ele>89.54</ele>
        <time>2015-08-16T21:39:09Z</time>
      </trkpt>
      <trkpt lat="47.2931" lon="1.76757">
        <ele>79.93</ele>
        <time>2015-08-16T21:39:10Z</time>
      </trkpt>
      <trkpt lat="47.29307" lon="1.76792">
        <ele>85.21</ele>
        <time>2015-08-16T21:39:17Z</time>
      </trkpt>
      <trkpt lat="47.29301" lon="1.76867">
        <ele>85.21</ele>
        <time>2015-08-16T21:39:32Z</time>
      </trkpt>
      <trkpt lat="47.29293" lon="1.76937">
        <ele>84.73</ele>
        <time>2015-08-16T21:39:46Z</time>
      </trkpt>
      <trkpt lat="47.29292" lon="1.76942">
        <ele>85.21</ele>
        <time>2015-08-16T21:39:47Z</time>
      </trkpt>
      <trkpt lat="47.29292" lon="1.76946">
        <ele>85.21</ele>
        <time>2015-08-16T21:39:48Z</time>
      </trkpt>
      <trkpt lat="47.29291" lon="1.7695">
        <ele>85.21</ele>
        <time>2015-08-16T21:39:49Z</time>
      </trkpt>
      <trkpt lat="47.2929" lon="1.76954">
        <ele>84.73</ele>
        <time>2015-08-16T21:39:50Z</time>
      </trkpt>
      <trkpt lat="47.2929" lon="1.76958">
        <ele>84.73</ele>
        <time>2015-08-16T21:39:51Z</time>
      </trkpt>
      <trkpt lat="47.29291" lon="1.76961">
        <ele>84.73</ele>
        <time>2015-08-16T21:39:52Z</time>
      </trkpt>
      <trkpt lat="47.2929" lon="1.76965">
        <ele>84.73</ele>
        <time>2015-08-16T21:39:53Z</time>
      </trkpt>
      <trkpt lat="47.2929" lon="1.76968">
        <ele>84.73</ele>
        <time>2015-08-16T21:39:54Z</time>
      </trkpt>
      <trkpt lat="47.29289" lon="1.76972">
        <ele>84.73</ele>
        <time>2015-08-16T21:39:55Z</time>
      </trkpt>
      <trkpt lat="47.29288" lon="1.76975">
        <ele>84.73</ele>
        <time>2015-08-16T21:39:56Z</time>
      </trkpt>
      <trkpt lat="47.29287" lon="1.76983">
        <ele>84.73</ele>
        <time>2015-08-16T21:40:08Z</time>
      </trkpt>
      <trkpt lat="47.29286" lon="1.76985">
        <ele>84.73</ele>
        <time>2015-08-16T21:40:09Z</time>
      </trkpt>
      <trkpt lat="47.29287" lon="1.76987">
        <ele>84.73</ele>
        <time>2015-08-16T21:40:10Z</time>
      </trkpt>
      <trkpt lat="47.29286" lon="1.77004">
        <ele>84.73</ele>
        <time>2015-08-16T21:40:16Z</time>
      </trkpt>
      <trkpt lat="47.29277" lon="1.77063">
        <ele>84.73</ele>
        <time>2015-08-16T21:40:31Z</time>
      </trkpt>
      <trkpt lat="47.2927" lon="1.7711">
        <ele>85.21</ele>
        <time>2015-08-16T21:40:43Z</time>
      </trkpt>
      <trkpt lat="47.29267" lon="1.77146">
        <ele>85.21</ele>
        <time>2015-08-16T21:40:55Z</time>
      </trkpt>
      <trkpt lat="47.29267" lon="1.77149">
        <ele>85.21</ele>
        <time>2015-08-16T21:40:56Z</time>
      </trkpt>
      <trkpt lat="47.29267" lon="1.7715">
        <ele>85.21</ele>
        <time>2015-08-16T21:40:57Z</time>
      </trkpt>
      <trkpt lat="47.29269" lon="1.77152">
        <ele>85.21</ele>
        <time>2015-08-16T21:41:00Z</time>
      </trkpt>
      <trkpt lat="47.29269" lon="1.77152">
        <ele>85.21</ele>
        <time>2015-08-16T21:41:09Z</time>
      </trkpt>
      <trkpt lat="47.29267" lon="1.77152">
        <ele>85.21</ele>
        <time>2015-08-16T21:41:37Z</time>
      </trkpt>
      <trkpt lat="47.29264" lon="1.77153">
        <ele>84.73</ele>
        <time>2015-08-16T21:42:02Z</time>
      </trkpt>
      <trkpt lat="47.29267" lon="1.77154">
        <ele>84.73</ele>
        <time>2015-08-16T21:42:25Z</time>
      </trkpt>
      <trkpt lat="47.29268" lon="1.77153">
        <ele>84.73</ele>
        <time>2015-08-16T21:43:03Z</time>
      </trkpt>
      <trkpt lat="47.29268" lon="1.77153">
        <ele>84.73</ele>
        <time>2015-08-16T21:43:32Z</time>
      </trkpt>
      <trkpt lat="47.2927" lon="1.77155">
        <ele>84.25</ele>
        <time>2015-08-16T21:43:51Z</time>
      </trkpt>
      <trkpt lat="47.2927" lon="1.77157">
        <ele>84.25</ele>
        <time>2015-08-16T21:44:08Z</time>
      </trkpt>
      <trkpt lat="47.29269" lon="1.77163">
        <ele>84.73</ele>
        <time>2015-08-16T21:44:22Z</time>
      </trkpt>
      <trkpt lat="47.29268" lon="1.77165">
        <ele>84.25</ele>
        <time>2015-08-16T21:44:23Z</time>
      </trkpt>
      <trkpt lat="47.29268" lon="1.77166">
        <ele>84.25</ele>
        <time>2015-08-16T21:44:24Z</time>
      </trkpt>
      <trkpt lat="47.29268" lon="1.7717">
        <ele>84.25</ele>
        <time>2015-08-16T21:44:41Z</time>
      </trkpt>
      <trkpt lat="47.29269" lon="1.77171">
        <ele>84.25</ele>
        <time>2015-08-16T21:45:12Z</time>
      </trkpt>
      <trkpt lat="47.29269" lon="1.77171">
        <ele>83.77</ele>
        <time>2015-08-16T21:45:41Z</time>
      </trkpt>
      <trkpt lat="47.2927" lon="1.77171">
        <ele>83.77</ele>
        <time>2015-08-16T21:46:10Z</time>
      </trkpt>
      <trkpt lat="47.2927" lon="1.77172">
        <ele>83.29</ele>
        <time>2015-08-16T21:46:40Z</time>
      </trkpt>
      <trkpt lat="47.2927" lon="1.77171">
        <ele>83.29</ele>
        <time>2015-08-16T21:47:09Z</time>
      </trkpt>
      <trkpt lat="47.2927" lon="1.77171">
        <ele>83.29</ele>
        <time>2015-08-16T21:47:36Z</time>
      </trkpt>
      <trkpt lat="47.29271" lon="1.77171">
        <ele>83.29</ele>
        <time>2015-08-16T21:48:07Z</time>
      </trkpt>
      <trkpt lat="47.29272" lon="1.77171">
        <ele>82.81</ele>
        <time>2015-08-16T21:48:33Z</time>
      </trkpt>
      <trkpt lat="47.29272" lon="1.7717">
        <ele>82.81</ele>
        <time>2015-08-16T21:49:00Z</time>
      </trkpt>
      <trkpt lat="47.29271" lon="1.77169">
        <ele>82.81</ele>
        <time>2015-08-16T21:49:31Z</time>
      </trkpt>
      <trkpt lat="47.2927" lon="1.77167">
        <ele>82.81</ele>
        <time>2015-08-16T21:50:05Z</time>
      </trkpt>
      <trkpt lat="47.2927" lon="1.77166">
        <ele>82.33</ele>
        <time>2015-08-16T21:50:33Z</time>
      </trkpt>
      <trkpt lat="47.29267" lon="1.77169">
        <ele>82.33</ele>
        <time>2015-08-16T21:50:45Z</time>
      </trkpt>
      <trkpt lat="47.29266" lon="1.77171">
        <ele>82.33</ele>
        <time>2015-08-16T21:50:46Z</time>
      </trkpt>
      <trkpt lat="47.29265" lon="1.77194">
        <ele>82.33</ele>
        <time>2015-08-16T21:50:52Z</time>
      </trkpt>
      <trkpt lat="47.29264" lon="1.77262">
        <ele>81.85</ele>
        <time>2015-08-16T21:51:06Z</time>
      </trkpt>
      <trkpt lat="47.29259" lon="1.77345">
        <ele>82.33</ele>
        <time>2015-08-16T21:51:21Z</time>
      </trkpt>
      <trkpt lat="47.29258" lon="1.77437">
        <ele>82.33</ele>
        <time>2015-08-16T21:51:38Z</time>
      </trkpt>
      <trkpt lat="47.29255" lon="1.77513">
        <ele>82.33</ele>
        <time>2015-08-16T21:51:53Z</time>
      </trkpt>
      <trkpt lat="47.2925" lon="1.77579">
        <ele>83.29</ele>
        <time>2015-08-16T21:52:07Z</time>
      </trkpt>
      <trkpt lat="47.29239" lon="1.77644">
        <ele>81.37</ele>
        <time>2015-08-16T21:52:21Z</time>
      </trkpt>
      <trkpt lat="47.2923" lon="1.77712">
        <ele>80.89</ele>
        <time>2015-08-16T21:52:35Z</time>
      </trkpt>
      <trkpt lat="47.29217" lon="1.77793">
        <ele>80.41</ele>
        <time>2015-08-16T21:52:52Z</time>
      </trkpt>
      <trkpt lat="47.29205" lon="1.77866">
        <ele>80.41</ele>
        <time>2015-08-16T21:53:07Z</time>
      </trkpt>
      <trkpt lat="47.29189" lon="1.7796">
        <ele>79.45</ele>
        <time>2015-08-16T21:53:25Z</time>
      </trkpt>
      <trkpt lat="47.29172" lon="1.78069">
        <ele>79.45</ele>
        <time>2015-08-16T21:53:44Z</time>
      </trkpt>
      <trkpt lat="47.29158" lon="1.78146">
        <ele>78.97</ele>
        <time>2015-08-16T21:53:58Z</time>
      </trkpt>
      <trkpt lat="47.29147" lon="1.78212">
        <ele>78.97</ele>
        <time>2015-08-16T21:54:10Z</time>
      </trkpt>
      <trkpt lat="47.29131" lon="1.78312">
        <ele>79.45</ele>
        <time>2015-08-16T21:54:28Z</time>
      </trkpt>
      <trkpt lat="47.29116" lon="1.78403">
        <ele>79.45</ele>
        <time>2015-08-16T21:54:44Z</time>
      </trkpt>
      <trkpt lat="47.29101" lon="1.78496">
        <ele>79.93</ele>
        <time>2015-08-16T21:55:01Z</time>
      </trkpt>
      <trkpt lat="47.29087" lon="1.78574">
        <ele>79.45</ele>
        <time>2015-08-16T21:55:16Z</time>
      </trkpt>
      <trkpt lat="47.29075" lon="1.78655">
        <ele>79.45</ele>
        <time>2015-08-16T21:55:31Z</time>
      </trkpt>
      <trkpt lat="47.29057" lon="1.7876">
        <ele>79.45</ele>
        <time>2015-08-16T21:55:50Z</time>
      </trkpt>
      <trkpt lat="47.29042" lon="1.7885">
        <ele>79.45</ele>
        <time>2015-08-16T21:56:06Z</time>
      </trkpt>
      <trkpt lat="47.29028" lon="1.78927">
        <ele>79.45</ele>
        <time>2015-08-16T21:56:20Z</time>
      </trkpt>
      <trkpt lat="47.29027" lon="1.78933">
        <ele>79.45</ele>
        <time>2015-08-16T21:56:21Z</time>
      </trkpt>
      <trkpt lat="47.29025" lon="1.78946">
        <ele>79.45</ele>
        <time>2015-08-16T21:56:23Z</time>
      </trkpt>
      <trkpt lat="47.29018" lon="1.78983">
        <ele>79.45</ele>
        <time>2015-08-16T21:56:29Z</time>
      </trkpt>
      <trkpt lat="47.29004" lon="1.79077">
        <ele>79.93</ele>
        <time>2015-08-16T21:56:46Z</time>
      </trkpt>
      <trkpt lat="47.28986" lon="1.79175">
        <ele>79.93</ele>
        <time>2015-08-16T21:57:04Z</time>
      </trkpt>
      <trkpt lat="47.28974" lon="1.79263">
        <ele>79.93</ele>
        <time>2015-08-16T21:57:21Z</time>
      </trkpt>
      <trkpt lat="47.28962" lon="1.79326">
        <ele>79.45</ele>
        <time>2015-08-16T21:57:33Z</time>
      </trkpt>
      <trkpt lat="47.2895" lon="1.7941">
        <ele>79.93</ele>
        <time>2015-08-16T21:57:48Z</time>
      </trkpt>
      <trkpt lat="47.28949" lon="1.79416">
        <ele>79.45</ele>
        <time>2015-08-16T21:57:49Z</time>
      </trkpt>
      <trkpt lat="47.28948" lon="1.79421">
        <ele>79.45</ele>
        <time>2015-08-16T21:57:50Z</time>
      </trkpt>
      <trkpt lat="47.28934" lon="1.79488">
        <ele>79.93</ele>
        <time>2015-08-16T21:58:03Z</time>
      </trkpt>
      <trkpt lat="47.28923" lon="1.7956">
        <ele>79.45</ele>
        <time>2015-08-16T21:58:16Z</time>
      </trkpt>
      <trkpt lat="47.28922" lon="1.79565">
        <ele>79.45</ele>
        <time>2015-08-16T21:58:17Z</time>
      </trkpt>
      <trkpt lat="47.28913" lon="1.7963">
        <ele>79.93</ele>
        <time>2015-08-16T21:58:28Z</time>
      </trkpt>
      <trkpt lat="47.28899" lon="1.79723">
        <ele>79.93</ele>
        <time>2015-08-16T21:58:44Z</time>
      </trkpt>
      <trkpt lat="47.28883" lon="1.79823">
        <ele>79.93</ele>
        <time>2015-08-16T21:59:02Z</time>
      </trkpt>
      <trkpt lat="47.28867" lon="1.79925">
        <ele>80.41</ele>
        <time>2015-08-16T21:59:20Z</time>
      </trkpt>
      <trkpt lat="47.28857" lon="1.79993">
        <ele>80.41</ele>
        <time>2015-08-16T21:59:32Z</time>
      </trkpt>
      <trkpt lat="47.28841" lon="1.80084">
        <ele>80.41</ele>
        <time>2015-08-16T21:59:49Z</time>
      </trkpt>
      <trkpt lat="47.28822" lon="1.80188">
        <ele>79.93</ele>
        <time>2015-08-16T22:00:08Z</time>
      </trkpt>
      <trkpt lat="47.28808" lon="1.80283">
        <ele>79.93</ele>
        <time>2015-08-16T22:00:25Z</time>
      </trkpt>
      <trkpt lat="47.28794" lon="1.8039">
        <ele>79.45</ele>
        <time>2015-08-16T22:00:43Z</time>
      </trkpt>
      <trkpt lat="47.28782" lon="1.80479">
        <ele>79.93</ele>
        <time>2015-08-16T22:00:59Z</time>
      </trkpt>
      <trkpt lat="47.28776" lon="1.80536">
        <ele>80.41</ele>
        <time>2015-08-16T22:01:16Z</time>
      </trkpt>
      <trkpt lat="47.28769" lon="1.80596">
        <ele>80.41</ele>
        <time>2015-08-16T22:01:38Z</time>
      </trkpt>
      <trkpt lat="47.28759" lon="1.80623">
        <ele>79.93</ele>
        <time>2015-08-16T22:01:52Z</time>
      </trkpt>
      <trkpt lat="47.2873" lon="1.80611">
        <ele>79.93</ele>
        <time>2015-08-16T22:02:06Z</time>
      </trkpt>
      <trkpt lat="47.28728" lon="1.80608">
        <ele>79.45</ele>
        <time>2015-08-16T22:02:23Z</time>
      </trkpt>
      <trkpt lat="47.28728" lon="1.80607">
        <ele>79.45</ele>
        <time>2015-08-16T22:02:45Z</time>
      </trkpt>
      <trkpt lat="47.28729" lon="1.80608">
        <ele>79.45</ele>
        <time>2015-08-16T22:03:10Z</time>
      </trkpt>
      <trkpt lat="47.28728" lon="1.80608">
        <ele>79.93</ele>
        <time>2015-08-16T22:03:29Z</time>
      </trkpt>
      <trkpt lat="47.28724" lon="1.80606">
        <ele>78.97</ele>
        <time>2015-08-16T22:03:40Z</time>
      </trkpt>
      <trkpt lat="47.28724" lon="1.80615">
        <ele>78.97</ele>
        <time>2015-08-16T22:03:47Z</time>
      </trkpt>
      <trkpt lat="47.28719" lon="1.80634">
        <ele>78</ele>
        <time>2015-08-16T22:03:56Z</time>
      </trkpt>
      <trkpt lat="47.28715" lon="1.80666">
        <ele>76.56</ele>
        <time>2015-08-16T22:04:09Z</time>
      </trkpt>
      <trkpt lat="47.28707" lon="1.80716">
        <ele>76.08</ele>
        <time>2015-08-16T22:04:24Z</time>
      </trkpt>
      <trkpt lat="47.28702" lon="1.80757">
        <ele>76.08</ele>
        <time>2015-08-16T22:04:36Z</time>
      </trkpt>
      <trkpt lat="47.28695" lon="1.80803">
        <ele>76.08</ele>
        <time>2015-08-16T22:04:49Z</time>
      </trkpt>
      <trkpt lat="47.28688" lon="1.80859">
        <ele>76.08</ele>
        <time>2015-08-16T22:05:04Z</time>
      </trkpt>
      <trkpt lat="47.28679" lon="1.80929">
        <ele>76.08</ele>
        <time>2015-08-16T22:05:22Z</time>
      </trkpt>
      <trkpt lat="47.28672" lon="1.80991">
        <ele>76.08</ele>
        <time>2015-08-16T22:05:40Z</time>
      </trkpt>
      <trkpt lat="47.28663" lon="1.8104">
        <ele>76.08</ele>
        <time>2015-08-16T22:05:54Z</time>
      </trkpt>
      <trkpt lat="47.28652" lon="1.81099">
        <ele>76.08</ele>
        <time>2015-08-16T22:06:11Z</time>
      </trkpt>
      <trkpt lat="47.28644" lon="1.81141">
        <ele>76.08</ele>
        <time>2015-08-16T22:06:25Z</time>
      </trkpt>
      <trkpt lat="47.28634" lon="1.81203">
        <ele>75.6</ele>
        <time>2015-08-16T22:06:43Z</time>
      </trkpt>
      <trkpt lat="47.28624" lon="1.8126">
        <ele>75.6</ele>
        <time>2015-08-16T22:06:59Z</time>
      </trkpt>
      <trkpt lat="47.28611" lon="1.81325">
        <ele>75.12</ele>
        <time>2015-08-16T22:07:17Z</time>
      </trkpt>
      <trkpt lat="47.28605" lon="1.81367">
        <ele>75.12</ele>
        <time>2015-08-16T22:07:29Z</time>
      </trkpt>
      <trkpt lat="47.28595" lon="1.81409">
        <ele>75.12</ele>
        <time>2015-08-16T22:07:44Z</time>
      </trkpt>
      <trkpt lat="47.2859" lon="1.81443">
        <ele>75.12</ele>
        <time>2015-08-16T22:07:58Z</time>
      </trkpt>
      <trkpt lat="47.28588" lon="1.81448">
        <ele>75.12</ele>
        <time>2015-08-16T22:08:15Z</time>
      </trkpt>
      <trkpt lat="47.28588" lon="1.81449">
        <ele>74.64</ele>
        <time>2015-08-16T22:08:37Z</time>
      </trkpt>
      <trkpt lat="47.28589" lon="1.81449">
        <ele>74.64</ele>
        <time>2015-08-16T22:09:01Z</time>
      </trkpt>
      <trkpt lat="47.28588" lon="1.81449">
        <ele>74.16</ele>
        <time>2015-08-16T22:09:24Z</time>
      </trkpt>
      <trkpt lat="47.28589" lon="1.8145">
        <ele>74.16</ele>
        <time>2015-08-16T22:09:45Z</time>
      </trkpt>
      <trkpt lat="47.28589" lon="1.81449">
        <ele>74.16</ele>
        <time>2015-08-16T22:09:57Z</time>
      </trkpt>
      <trkpt lat="47.28589" lon="1.8145">
        <ele>75.6</ele>
        <time>2015-08-16T22:10:18Z</time>
      </trkpt>
      <trkpt lat="47.28589" lon="1.81449">
        <ele>73.68</ele>
        <time>2015-08-16T22:10:38Z</time>
      </trkpt>
      <trkpt lat="47.28589" lon="1.81453">
        <ele>73.68</ele>
        <time>2015-08-16T22:10:49Z</time>
      </trkpt>
      <trkpt lat="47.28587" lon="1.81459">
        <ele>73.68</ele>
        <time>2015-08-16T22:10:52Z</time>
      </trkpt>
      <trkpt lat="47.28577" lon="1.81506">
        <ele>73.68</ele>
        <time>2015-08-16T22:11:08Z</time>
      </trkpt>
      <trkpt lat="47.28569" lon="1.81557">
        <ele>74.16</ele>
        <time>2015-08-16T22:11:24Z</time>
      </trkpt>
      <trkpt lat="47.2856" lon="1.81607">
        <ele>73.68</ele>
        <time>2015-08-16T22:11:41Z</time>
      </trkpt>
      <trkpt lat="47.28556" lon="1.81635">
        <ele>73.68</ele>
        <time>2015-08-16T22:11:50Z</time>
      </trkpt>
      <trkpt lat="47.28546" lon="1.81692">
        <ele>73.68</ele>
        <time>2015-08-16T22:12:07Z</time>
      </trkpt>
      <trkpt lat="47.28541" lon="1.81733">
        <ele>74.64</ele>
        <time>2015-08-16T22:12:20Z</time>
      </trkpt>
      <trkpt lat="47.28543" lon="1.81736">
        <ele>75.12</ele>
        <time>2015-08-16T22:12:22Z</time>
      </trkpt>
      <trkpt lat="47.28544" lon="1.81743">
        <ele>74.64</ele>
        <time>2015-08-16T22:12:25Z</time>
      </trkpt>
      <trkpt lat="47.28535" lon="1.81755">
        <ele>74.16</ele>
        <time>2015-08-16T22:12:33Z</time>
      </trkpt>
      <trkpt lat="47.28526" lon="1.81795">
        <ele>73.68</ele>
        <time>2015-08-16T22:12:46Z</time>
      </trkpt>
      <trkpt lat="47.28511" lon="1.81852">
        <ele>73.2</ele>
        <time>2015-08-16T22:13:03Z</time>
      </trkpt>
      <trkpt lat="47.28495" lon="1.81904">
        <ele>73.68</ele>
        <time>2015-08-16T22:13:19Z</time>
      </trkpt>
      <trkpt lat="47.28484" lon="1.81947">
        <ele>73.2</ele>
        <time>2015-08-16T22:13:33Z</time>
      </trkpt>
      <trkpt lat="47.2847" lon="1.81997">
        <ele>73.2</ele>
        <time>2015-08-16T22:13:48Z</time>
      </trkpt>
      <trkpt lat="47.28456" lon="1.82046">
        <ele>73.2</ele>
        <time>2015-08-16T22:14:01Z</time>
      </trkpt>
      <trkpt lat="47.28438" lon="1.82108">
        <ele>73.68</ele>
        <time>2015-08-16T22:14:15Z</time>
      </trkpt>
      <trkpt lat="47.28423" lon="1.82159">
        <ele>73.68</ele>
        <time>2015-08-16T22:14:29Z</time>
      </trkpt>
      <trkpt lat="47.28406" lon="1.82216">
        <ele>73.68</ele>
        <time>2015-08-16T22:14:43Z</time>
      </trkpt>
      <trkpt lat="47.28387" lon="1.82285">
        <ele>74.16</ele>
        <time>2015-08-16T22:14:57Z</time>
      </trkpt>
      <trkpt lat="47.28377" lon="1.82324">
        <ele>73.68</ele>
        <time>2015-08-16T22:15:07Z</time>
      </trkpt>
      <trkpt lat="47.28362" lon="1.82378">
        <ele>73.2</ele>
        <time>2015-08-16T22:15:20Z</time>
      </trkpt>
      <trkpt lat="47.28344" lon="1.82435">
        <ele>73.2</ele>
        <time>2015-08-16T22:15:32Z</time>
      </trkpt>
      <trkpt lat="47.28328" lon="1.82493">
        <ele>73.2</ele>
        <time>2015-08-16T22:15:46Z</time>
      </trkpt>
      <trkpt lat="47.28314" lon="1.82552">
        <ele>73.68</ele>
        <time>2015-08-16T22:15:59Z</time>
      </trkpt>
      <trkpt lat="47.28314" lon="1.82556">
        <ele>73.68</ele>
        <time>2015-08-16T22:16:00Z</time>
      </trkpt>
      <trkpt lat="47.28314" lon="1.8256">
        <ele>73.68</ele>
        <time>2015-08-16T22:16:01Z</time>
      </trkpt>
      <trkpt lat="47.28314" lon="1.82563">
        <ele>74.16</ele>
        <time>2015-08-16T22:16:02Z</time>
      </trkpt>
      <trkpt lat="47.28313" lon="1.82566">
        <ele>74.16</ele>
        <time>2015-08-16T22:16:03Z</time>
      </trkpt>
      <trkpt lat="47.28312" lon="1.82569">
        <ele>74.16</ele>
        <time>2015-08-16T22:16:04Z</time>
      </trkpt>
      <trkpt lat="47.28312" lon="1.82573">
        <ele>74.16</ele>
        <time>2015-08-16T22:16:05Z</time>
      </trkpt>
      <trkpt lat="47.28311" lon="1.82577">
        <ele>74.16</ele>
        <time>2015-08-16T22:16:06Z</time>
      </trkpt>
      <trkpt lat="47.28311" lon="1.8258">
        <ele>74.16</ele>
        <time>2015-08-16T22:16:07Z</time>
      </trkpt>
      <trkpt lat="47.28312" lon="1.82583">
        <ele>74.16</ele>
        <time>2015-08-16T22:16:08Z</time>
      </trkpt>
      <trkpt lat="47.28313" lon="1.82585">
        <ele>74.16</ele>
        <time>2015-08-16T22:16:09Z</time>
      </trkpt>
      <trkpt lat="47.28314" lon="1.82587">
        <ele>74.16</ele>
        <time>2015-08-16T22:16:10Z</time>
      </trkpt>
      <trkpt lat="47.28316" lon="1.82587">
        <ele>74.64</ele>
        <time>2015-08-16T22:16:11Z</time>
      </trkpt>
      <trkpt lat="47.28317" lon="1.82589">
        <ele>74.16</ele>
        <time>2015-08-16T22:16:12Z</time>
      </trkpt>
      <trkpt lat="47.28318" lon="1.8259">
        <ele>74.16</ele>
        <time>2015-08-16T22:16:13Z</time>
      </trkpt>
      <trkpt lat="47.2832" lon="1.8259">
        <ele>74.16</ele>
        <time>2015-08-16T22:16:14Z</time>
      </trkpt>
      <trkpt lat="47.28321" lon="1.82591">
        <ele>74.16</ele>
        <time>2015-08-16T22:16:15Z</time>
      </trkpt>
      <trkpt lat="47.28322" lon="1.82592">
        <ele>74.16</ele>
        <time>2015-08-16T22:16:16Z</time>
      </trkpt>
      <trkpt lat="47.28324" lon="1.82593">
        <ele>73.68</ele>
        <time>2015-08-16T22:16:17Z</time>
      </trkpt>
      <trkpt lat="47.28325" lon="1.82593">
        <ele>73.68</ele>
        <time>2015-08-16T22:16:18Z</time>
      </trkpt>
      <trkpt lat="47.28344" lon="1.82604">
        <ele>73.68</ele>
        <time>2015-08-16T22:16:27Z</time>
      </trkpt>
      <trkpt lat="47.28346" lon="1.82604">
        <ele>73.68</ele>
        <time>2015-08-16T22:16:28Z</time>
      </trkpt>
      <trkpt lat="47.28348" lon="1.82604">
        <ele>73.68</ele>
        <time>2015-08-16T22:16:29Z</time>
      </trkpt>
      <trkpt lat="47.28369" lon="1.82621">
        <ele>75.12</ele>
        <time>2015-08-16T22:16:40Z</time>
      </trkpt>
      <trkpt lat="47.28372" lon="1.82624">
        <ele>75.12</ele>
        <time>2015-08-16T22:16:41Z</time>
      </trkpt>
      <trkpt lat="47.28375" lon="1.82627">
        <ele>75.6</ele>
        <time>2015-08-16T22:16:42Z</time>
      </trkpt>
      <trkpt lat="47.28379" lon="1.82628">
        <ele>75.6</ele>
        <time>2015-08-16T22:16:43Z</time>
      </trkpt>
      <trkpt lat="47.28383" lon="1.82628">
        <ele>76.08</ele>
        <time>2015-08-16T22:16:44Z</time>
      </trkpt>
      <trkpt lat="47.28387" lon="1.82626">
        <ele>76.08</ele>
        <time>2015-08-16T22:16:45Z</time>
      </trkpt>
      <trkpt lat="47.28411" lon="1.82588">
        <ele>77.52</ele>
        <time>2015-08-16T22:16:53Z</time>
      </trkpt>
      <trkpt lat="47.28414" lon="1.82583">
        <ele>78</ele>
        <time>2015-08-16T22:16:54Z</time>
      </trkpt>
      <trkpt lat="47.28417" lon="1.82579">
        <ele>78</ele>
        <time>2015-08-16T22:16:55Z</time>
      </trkpt>
      <trkpt lat="47.28419" lon="1.82574">
        <ele>78</ele>
        <time>2015-08-16T22:16:56Z</time>
      </trkpt>
      <trkpt lat="47.28422" lon="1.8257">
        <ele>78.48</ele>
        <time>2015-08-16T22:16:57Z</time>
      </trkpt>
      <trkpt lat="47.28426" lon="1.82567">
        <ele>78.48</ele>
        <time>2015-08-16T22:16:58Z</time>
      </trkpt>
      <trkpt lat="47.2843" lon="1.82564">
        <ele>78.48</ele>
        <time>2015-08-16T22:16:59Z</time>
      </trkpt>
      <trkpt lat="47.28433" lon="1.82564">
        <ele>78.97</ele>
        <time>2015-08-16T22:17:00Z</time>
      </trkpt>
      <trkpt lat="47.28446" lon="1.82581">
        <ele>80.41</ele>
        <time>2015-08-16T22:17:05Z</time>
      </trkpt>
      <trkpt lat="47.28454" lon="1.82595">
        <ele>80.41</ele>
        <time>2015-08-16T22:17:08Z</time>
      </trkpt>
      <trkpt lat="47.28456" lon="1.826">
        <ele>80.89</ele>
        <time>2015-08-16T22:17:09Z</time>
      </trkpt>
      <trkpt lat="47.28459" lon="1.82605">
        <ele>80.89</ele>
        <time>2015-08-16T22:17:10Z</time>
      </trkpt>
      <trkpt lat="47.2846" lon="1.82609">
        <ele>81.37</ele>
        <time>2015-08-16T22:17:11Z</time>
      </trkpt>
      <trkpt lat="47.28461" lon="1.82613">
        <ele>81.37</ele>
        <time>2015-08-16T22:17:12Z</time>
      </trkpt>
      <trkpt lat="47.28475" lon="1.82633">
        <ele>82.33</ele>
        <time>2015-08-16T22:17:20Z</time>
      </trkpt>
      <trkpt lat="47.28477" lon="1.82634">
        <ele>82.33</ele>
        <time>2015-08-16T22:17:21Z</time>
      </trkpt>
      <trkpt lat="47.28478" lon="1.82636">
        <ele>82.33</ele>
        <time>2015-08-16T22:17:22Z</time>
      </trkpt>
      <trkpt lat="47.2848" lon="1.82637">
        <ele>82.33</ele>
        <time>2015-08-16T22:17:23Z</time>
      </trkpt>
      <trkpt lat="47.28481" lon="1.82638">
        <ele>82.33</ele>
        <time>2015-08-16T22:17:24Z</time>
      </trkpt>
      <trkpt lat="47.28483" lon="1.82638">
        <ele>83.77</ele>
        <time>2015-08-16T22:17:33Z</time>
      </trkpt>
      <trkpt lat="47.28483" lon="1.82638">
        <ele>79.93</ele>
        <time>2015-08-16T22:17:34Z</time>
      </trkpt>
      <trkpt lat="47.28483" lon="1.82638">
        <ele>85.69</ele>
        <time>2015-08-16T22:17:35Z</time>
      </trkpt>
      <trkpt lat="47.28484" lon="1.82638">
        <ele>81.85</ele>
        <time>2015-08-16T22:17:54Z</time>
      </trkpt>
      <trkpt lat="47.28484" lon="1.82636">
        <ele>81.85</ele>
        <time>2015-08-16T22:18:19Z</time>
      </trkpt>
      <trkpt lat="47.28484" lon="1.82636">
        <ele>81.37</ele>
        <time>2015-08-16T22:18:45Z</time>
      </trkpt>
      <trkpt lat="47.28484" lon="1.82637">
        <ele>81.37</ele>
        <time>2015-08-16T22:18:59Z</time>
      </trkpt>
      <trkpt lat="47.28486" lon="1.82638">
        <ele>81.37</ele>
        <time>2015-08-16T22:19:00Z</time>
      </trkpt>
      <trkpt lat="47.28479" lon="1.82673">
        <ele>83.29</ele>
        <time>2015-08-16T22:19:09Z</time>
      </trkpt>
      <trkpt lat="47.28451" lon="1.82748">
        <ele>82.81</ele>
        <time>2015-08-16T22:19:28Z</time>
      </trkpt>
      <trkpt lat="47.28424" lon="1.82824">
        <ele>82.33</ele>
        <time>2015-08-16T22:19:44Z</time>
      </trkpt>
      <trkpt lat="47.28393" lon="1.82913">
        <ele>81.37</ele>
        <time>2015-08-16T22:20:03Z</time>
      </trkpt>
      <trkpt lat="47.28361" lon="1.83005">
        <ele>80.41</ele>
        <time>2015-08-16T22:20:22Z</time>
      </trkpt>
      <trkpt lat="47.28333" lon="1.83073">
        <ele>79.45</ele>
        <time>2015-08-16T22:20:37Z</time>
      </trkpt>
      <trkpt lat="47.28298" lon="1.83159">
        <ele>78.97</ele>
        <time>2015-08-16T22:20:56Z</time>
      </trkpt>
      <trkpt lat="47.2826" lon="1.83248">
        <ele>78.97</ele>
        <time>2015-08-16T22:21:15Z</time>
      </trkpt>
      <trkpt lat="47.28258" lon="1.83253">
        <ele>78.97</ele>
        <time>2015-08-16T22:21:16Z</time>
      </trkpt>
      <trkpt lat="47.28252" lon="1.83268">
        <ele>79.45</ele>
        <time>2015-08-16T22:21:19Z</time>
      </trkpt>
      <trkpt lat="47.28221" lon="1.83342">
        <ele>79.93</ele>
        <time>2015-08-16T22:21:35Z</time>
      </trkpt>
      <trkpt lat="47.28199" lon="1.83391">
        <ele>79.93</ele>
        <time>2015-08-16T22:21:50Z</time>
      </trkpt>
      <trkpt lat="47.28177" lon="1.8344">
        <ele>79.45</ele>
        <time>2015-08-16T22:22:05Z</time>
      </trkpt>
      <trkpt lat="47.28158" lon="1.83478">
        <ele>78.48</ele>
        <time>2015-08-16T22:22:18Z</time>
      </trkpt>
      <trkpt lat="47.28139" lon="1.83518">
        <ele>77.04</ele>
        <time>2015-08-16T22:22:31Z</time>
      </trkpt>
      <trkpt lat="47.28116" lon="1.83565">
        <ele>75.12</ele>
        <time>2015-08-16T22:22:46Z</time>
      </trkpt>
      <trkpt lat="47.2807" lon="1.83647">
        <ele>74.16</ele>
        <time>2015-08-16T22:23:06Z</time>
      </trkpt>
      <trkpt lat="47.28036" lon="1.83707">
        <ele>73.68</ele>
        <time>2015-08-16T22:23:22Z</time>
      </trkpt>
      <trkpt lat="47.27988" lon="1.83784">
        <ele>71.27</ele>
        <time>2015-08-16T22:23:42Z</time>
      </trkpt>
      <trkpt lat="47.27945" lon="1.83884">
        <ele>71.27</ele>
        <time>2015-08-16T22:23:59Z</time>
      </trkpt>
      <trkpt lat="47.27897" lon="1.84011">
        <ele>71.76</ele>
        <time>2015-08-16T22:24:21Z</time>
      </trkpt>
      <trkpt lat="47.27859" lon="1.84111">
        <ele>71.27</ele>
        <time>2015-08-16T22:24:40Z</time>
      </trkpt>
      <trkpt lat="47.27821" lon="1.84216">
        <ele>71.27</ele>
        <time>2015-08-16T22:24:58Z</time>
      </trkpt>
      <trkpt lat="47.27774" lon="1.84332">
        <ele>71.76</ele>
        <time>2015-08-16T22:25:18Z</time>
      </trkpt>
      <trkpt lat="47.27737" lon="1.84425">
        <ele>73.2</ele>
        <time>2015-08-16T22:25:34Z</time>
      </trkpt>
      <trkpt lat="47.27699" lon="1.84516">
        <ele>71.76</ele>
        <time>2015-08-16T22:25:53Z</time>
      </trkpt>
      <trkpt lat="47.27653" lon="1.84619">
        <ele>71.76</ele>
        <time>2015-08-16T22:26:11Z</time>
      </trkpt>
      <trkpt lat="47.27607" lon="1.84721">
        <ele>73.2</ele>
        <time>2015-08-16T22:26:28Z</time>
      </trkpt>
      <trkpt lat="47.27597" lon="1.84748">
        <ele>73.2</ele>
        <time>2015-08-16T22:26:33Z</time>
      </trkpt>
      <trkpt lat="47.27563" lon="1.84844">
        <ele>72.24</ele>
        <time>2015-08-16T22:26:51Z</time>
      </trkpt>
      <trkpt lat="47.27525" lon="1.84953">
        <ele>71.27</ele>
        <time>2015-08-16T22:27:10Z</time>
      </trkpt>
      <trkpt lat="47.27524" lon="1.84959">
        <ele>70.79</ele>
        <time>2015-08-16T22:27:11Z</time>
      </trkpt>
      <trkpt lat="47.27498" lon="1.85045">
        <ele>70.79</ele>
        <time>2015-08-16T22:27:25Z</time>
      </trkpt>
      <trkpt lat="47.27465" lon="1.85159">
        <ele>70.31</ele>
        <time>2015-08-16T22:27:42Z</time>
      </trkpt>
      <trkpt lat="47.27445" lon="1.85273">
        <ele>72.24</ele>
        <time>2015-08-16T22:27:58Z</time>
      </trkpt>
      <trkpt lat="47.27428" lon="1.85322">
        <ele>72.72</ele>
        <time>2015-08-16T22:28:09Z</time>
      </trkpt>
      <trkpt lat="47.27398" lon="1.85349">
        <ele>72.72</ele>
        <time>2015-08-16T22:28:21Z</time>
      </trkpt>
      <trkpt lat="47.27359" lon="1.85371">
        <ele>69.83</ele>
        <time>2015-08-16T22:28:36Z</time>
      </trkpt>
      <trkpt lat="47.27327" lon="1.85421">
        <ele>69.83</ele>
        <time>2015-08-16T22:28:50Z</time>
      </trkpt>
      <trkpt lat="47.27312" lon="1.8543">
        <ele>69.35</ele>
        <time>2015-08-16T22:28:57Z</time>
      </trkpt>
      <trkpt lat="47.27296" lon="1.85414">
        <ele>68.87</ele>
        <time>2015-08-16T22:29:06Z</time>
      </trkpt>
      <trkpt lat="47.2729" lon="1.85411">
        <ele>68.39</ele>
        <time>2015-08-16T22:29:10Z</time>
      </trkpt>
      <trkpt lat="47.27277" lon="1.85433">
        <ele>68.39</ele>
        <time>2015-08-16T22:29:18Z</time>
      </trkpt>
      <trkpt lat="47.27262" lon="1.85459">
        <ele>67.91</ele>
        <time>2015-08-16T22:29:28Z</time>
      </trkpt>
      <trkpt lat="47.27247" lon="1.8549">
        <ele>67.91</ele>
        <time>2015-08-16T22:29:40Z</time>
      </trkpt>
      <trkpt lat="47.27226" lon="1.85535">
        <ele>67.91</ele>
        <time>2015-08-16T22:29:53Z</time>
      </trkpt>
      <trkpt lat="47.27206" lon="1.8558">
        <ele>67.43</ele>
        <time>2015-08-16T22:30:08Z</time>
      </trkpt>
      <trkpt lat="47.272" lon="1.85595">
        <ele>67.43</ele>
        <time>2015-08-16T22:30:13Z</time>
      </trkpt>
      <trkpt lat="47.27197" lon="1.85601">
        <ele>67.43</ele>
        <time>2015-08-16T22:30:16Z</time>
      </trkpt>
      <trkpt lat="47.27182" lon="1.85633">
        <ele>67.43</ele>
        <time>2015-08-16T22:30:29Z</time>
      </trkpt>
      <trkpt lat="47.27173" lon="1.85665">
        <ele>66.95</ele>
        <time>2015-08-16T22:30:40Z</time>
      </trkpt>
      <trkpt lat="47.27162" lon="1.85704">
        <ele>66.95</ele>
        <time>2015-08-16T22:30:52Z</time>
      </trkpt>
      <trkpt lat="47.27146" lon="1.85754">
        <ele>66.95</ele>
        <time>2015-08-16T22:31:08Z</time>
      </trkpt>
      <trkpt lat="47.27143" lon="1.8577">
        <ele>66.95</ele>
        <time>2015-08-16T22:31:13Z</time>
      </trkpt>
      <trkpt lat="47.27132" lon="1.85818">
        <ele>66.47</ele>
        <time>2015-08-16T22:31:28Z</time>
      </trkpt>
      <trkpt lat="47.27119" lon="1.85864">
        <ele>66.47</ele>
        <time>2015-08-16T22:31:43Z</time>
      </trkpt>
      <trkpt lat="47.27106" lon="1.85905">
        <ele>66.47</ele>
        <time>2015-08-16T22:31:57Z</time>
      </trkpt>
      <trkpt lat="47.27089" lon="1.85944">
        <ele>65.99</ele>
        <time>2015-08-16T22:32:11Z</time>
      </trkpt>
      <trkpt lat="47.2707" lon="1.85984">
        <ele>65.51</ele>
        <time>2015-08-16T22:32:25Z</time>
      </trkpt>
      <trkpt lat="47.27056" lon="1.86018">
        <ele>65.51</ele>
        <time>2015-08-16T22:32:37Z</time>
      </trkpt>
      <trkpt lat="47.2704" lon="1.86056">
        <ele>65.03</ele>
        <time>2015-08-16T22:32:51Z</time>
      </trkpt>
      <trkpt lat="47.27023" lon="1.86096">
        <ele>65.03</ele>
        <time>2015-08-16T22:33:04Z</time>
      </trkpt>
      <trkpt lat="47.27008" lon="1.86128">
        <ele>65.03</ele>
        <time>2015-08-16T22:33:16Z</time>
      </trkpt>
      <trkpt lat="47.26986" lon="1.86174">
        <ele>64.55</ele>
        <time>2015-08-16T22:33:32Z</time>
      </trkpt>
      <trkpt lat="47.26967" lon="1.86219">
        <ele>64.07</ele>
        <time>2015-08-16T22:33:47Z</time>
      </trkpt>
      <trkpt lat="47.26963" lon="1.86228">
        <ele>63.58</ele>
        <time>2015-08-16T22:34:10Z</time>
      </trkpt>
      <trkpt lat="47.26949" lon="1.86261">
        <ele>63.58</ele>
        <time>2015-08-16T22:34:24Z</time>
      </trkpt>
      <trkpt lat="47.26925" lon="1.86319">
        <ele>63.58</ele>
        <time>2015-08-16T22:34:39Z</time>
      </trkpt>
      <trkpt lat="47.26905" lon="1.86382">
        <ele>63.1</ele>
        <time>2015-08-16T22:34:55Z</time>
      </trkpt>
      <trkpt lat="47.26899" lon="1.86408">
        <ele>63.1</ele>
        <time>2015-08-16T22:35:05Z</time>
      </trkpt>
      <trkpt lat="47.26899" lon="1.86408">
        <ele>66.95</ele>
        <time>2015-08-16T22:35:06Z</time>
      </trkpt>
      <trkpt lat="47.26899" lon="1.86408">
        <ele>58.3</ele>
        <time>2015-08-16T22:35:07Z</time>
      </trkpt>
      <trkpt lat="47.26899" lon="1.86407">
        <ele>62.14</ele>
        <time>2015-08-16T22:35:22Z</time>
      </trkpt>
      <trkpt lat="47.26899" lon="1.86407">
        <ele>65.03</ele>
        <time>2015-08-16T22:35:23Z</time>
      </trkpt>
      <trkpt lat="47.26899" lon="1.86407">
        <ele>61.66</ele>
        <time>2015-08-16T22:35:24Z</time>
      </trkpt>
      <trkpt lat="47.26899" lon="1.86407">
        <ele>61.18</ele>
        <time>2015-08-16T22:35:25Z</time>
      </trkpt>
      <trkpt lat="47.26899" lon="1.86407">
        <ele>64.07</ele>
        <time>2015-08-16T22:35:26Z</time>
      </trkpt>
      <trkpt lat="47.26899" lon="1.86407">
        <ele>63.58</ele>
        <time>2015-08-16T22:35:28Z</time>
      </trkpt>
      <trkpt lat="47.26899" lon="1.86407">
        <ele>57.82</ele>
        <time>2015-08-16T22:35:29Z</time>
      </trkpt>
      <trkpt lat="47.269" lon="1.86407">
        <ele>65.03</ele>
        <time>2015-08-16T22:35:30Z</time>
      </trkpt>
      <trkpt lat="47.269" lon="1.86407">
        <ele>58.78</ele>
        <time>2015-08-16T22:35:31Z</time>
      </trkpt>
      <trkpt lat="47.269" lon="1.86407">
        <ele>62.14</ele>
        <time>2015-08-16T22:35:34Z</time>
      </trkpt>
      <trkpt lat="47.26894" lon="1.86434">
        <ele>62.14</ele>
        <time>2015-08-16T22:35:46Z</time>
      </trkpt>
      <trkpt lat="47.26874" lon="1.86472">
        <ele>62.14</ele>
        <time>2015-08-16T22:36:01Z</time>
      </trkpt>
      <trkpt lat="47.26862" lon="1.86524">
        <ele>61.66</ele>
        <time>2015-08-16T22:36:19Z</time>
      </trkpt>
      <trkpt lat="47.26859" lon="1.86543">
        <ele>61.66</ele>
        <time>2015-08-16T22:36:29Z</time>
      </trkpt>
      <trkpt lat="47.26858" lon="1.86545">
        <ele>61.66</ele>
        <time>2015-08-16T22:36:31Z</time>
      </trkpt>
      <trkpt lat="47.26859" lon="1.8656">
        <ele>61.18</ele>
        <time>2015-08-16T22:36:41Z</time>
      </trkpt>
      <trkpt lat="47.26852" lon="1.86557">
        <ele>60.22</ele>
        <time>2015-08-16T22:36:46Z</time>
      </trkpt>
      <trkpt lat="47.2685" lon="1.86537">
        <ele>59.74</ele>
        <time>2015-08-16T22:36:51Z</time>
      </trkpt>
      <trkpt lat="47.26861" lon="1.86483">
        <ele>59.74</ele>
        <time>2015-08-16T22:37:07Z</time>
      </trkpt>
      <trkpt lat="47.26867" lon="1.86462">
        <ele>59.26</ele>
        <time>2015-08-16T22:37:15Z</time>
      </trkpt>
      <trkpt lat="47.26881" lon="1.86416">
        <ele>59.26</ele>
        <time>2015-08-16T22:37:30Z</time>
      </trkpt>
      <trkpt lat="47.26897" lon="1.86351">
        <ele>58.3</ele>
        <time>2015-08-16T22:37:47Z</time>
      </trkpt>
      <trkpt lat="47.26908" lon="1.86296">
        <ele>57.82</ele>
        <time>2015-08-16T22:38:03Z</time>
      </trkpt>
      <trkpt lat="47.26893" lon="1.86269">
        <ele>57.82</ele>
        <time>2015-08-16T22:38:14Z</time>
      </trkpt>
      <trkpt lat="47.2686" lon="1.8626">
        <ele>57.34</ele>
        <time>2015-08-16T22:38:27Z</time>
      </trkpt>
      <trkpt lat="47.26836" lon="1.86251">
        <ele>56.86</ele>
        <time>2015-08-16T22:38:39Z</time>
      </trkpt>
      <trkpt lat="47.2683" lon="1.86243">
        <ele>56.86</ele>
        <time>2015-08-16T22:38:45Z</time>
      </trkpt>
      <trkpt lat="47.26842" lon="1.86223">
        <ele>56.37</ele>
        <time>2015-08-16T22:38:58Z</time>
      </trkpt>
      <trkpt lat="47.26849" lon="1.86226">
        <ele>56.37</ele>
        <time>2015-08-16T22:39:03Z</time>
      </trkpt>
      <trkpt lat="47.2685" lon="1.86228">
        <ele>56.37</ele>
        <time>2015-08-16T22:39:08Z</time>
      </trkpt>
      <trkpt lat="47.2685" lon="1.86228">
        <ele>55.89</ele>
        <time>2015-08-16T22:39:26Z</time>
      </trkpt>
      <trkpt lat="47.2685" lon="1.86229">
        <ele>54.93</ele>
        <time>2015-08-16T22:39:58Z</time>
      </trkpt>
      <trkpt lat="47.26852" lon="1.8623">
        <ele>54.45</ele>
        <time>2015-08-16T22:40:27Z</time>
      </trkpt>
      <trkpt lat="47.26853" lon="1.86236">
        <ele>54.45</ele>
        <time>2015-08-16T22:40:40Z</time>
      </trkpt>
      <trkpt lat="47.26852" lon="1.86238">
        <ele>53.97</ele>
        <time>2015-08-16T22:40:54Z</time>
      </trkpt>
      <trkpt lat="47.26851" lon="1.86239">
        <ele>53.49</ele>
        <time>2015-08-16T22:41:09Z</time>
      </trkpt>
      <trkpt lat="47.26851" lon="1.86239">
        <ele>53.01</ele>
        <time>2015-08-16T22:41:41Z</time>
      </trkpt>
      <trkpt lat="47.26851" lon="1.86238">
        <ele>52.05</ele>
        <time>2015-08-16T22:42:13Z</time>
      </trkpt>
      <trkpt lat="47.26851" lon="1.86242">
        <ele>50.61</ele>
        <time>2015-08-16T22:42:48Z</time>
      </trkpt>
      <trkpt lat="47.26851" lon="1.86242">
        <ele>53.97</ele>
        <time>2015-08-16T22:42:50Z</time>
      </trkpt>
      <trkpt lat="47.26851" lon="1.86242">
        <ele>50.13</ele>
        <time>2015-08-16T22:42:51Z</time>
      </trkpt>
      <trkpt lat="47.26851" lon="1.86242">
        <ele>53.49</ele>
        <time>2015-08-16T22:42:52Z</time>
      </trkpt>
      <trkpt lat="47.26851" lon="1.86242">
        <ele>48.68</ele>
        <time>2015-08-16T22:42:53Z</time>
      </trkpt>
      <trkpt lat="47.26854" lon="1.86245">
        <ele>50.13</ele>
        <time>2015-08-16T22:43:28Z</time>
      </trkpt>
      <trkpt lat="47.26859" lon="1.86236">
        <ele>49.65</ele>
        <time>2015-08-16T22:43:56Z</time>
      </trkpt>
      <trkpt lat="47.26848" lon="1.86232">
        <ele>49.16</ele>
        <time>2015-08-16T22:44:32Z</time>
      </trkpt>
      <trkpt lat="47.26848" lon="1.86231">
        <ele>49.16</ele>
        <time>2015-08-16T22:44:33Z</time>
      </trkpt>
      <trkpt lat="47.26829" lon="1.86237">
        <ele>89.06</ele>
        <time>2015-08-17T14:09:23Z</time>
      </trkpt>
      <trkpt lat="47.26829" lon="1.86245">
        <ele>89.54</ele>
        <time>2015-08-17T14:09:35Z</time>
      </trkpt>
      <trkpt lat="47.26831" lon="1.8625">
        <ele>89.54</ele>
        <time>2015-08-17T14:09:37Z</time>
      </trkpt>
      <trkpt lat="47.26865" lon="1.86261">
        <ele>90.02</ele>
        <time>2015-08-17T14:09:49Z</time>
      </trkpt>
      <trkpt lat="47.26903" lon="1.86275">
        <ele>90.02</ele>
        <time>2015-08-17T14:10:04Z</time>
      </trkpt>
      <trkpt lat="47.26909" lon="1.86278">
        <ele>90.02</ele>
        <time>2015-08-17T14:10:08Z</time>
      </trkpt>
      <trkpt lat="47.26911" lon="1.86277">
        <ele>90.98</ele>
        <time>2015-08-17T14:10:09Z</time>
      </trkpt>
      <trkpt lat="47.26912" lon="1.86277">
        <ele>90.02</ele>
        <time>2015-08-17T14:10:10Z</time>
      </trkpt>
      <trkpt lat="47.26913" lon="1.86276">
        <ele>89.54</ele>
        <time>2015-08-17T14:10:11Z</time>
      </trkpt>
      <trkpt lat="47.26914" lon="1.86277">
        <ele>89.54</ele>
        <time>2015-08-17T14:10:12Z</time>
      </trkpt>
      <trkpt lat="47.26914" lon="1.86277">
        <ele>89.54</ele>
        <time>2015-08-17T14:10:16Z</time>
      </trkpt>
      <trkpt lat="47.26914" lon="1.86277">
        <ele>95.31</ele>
        <time>2015-08-17T14:10:17Z</time>
      </trkpt>
      <trkpt lat="47.26914" lon="1.86277">
        <ele>90.02</ele>
        <time>2015-08-17T14:10:26Z</time>
      </trkpt>
      <trkpt lat="47.26913" lon="1.86278">
        <ele>90.02</ele>
        <time>2015-08-17T14:10:54Z</time>
      </trkpt>
      <trkpt lat="47.26913" lon="1.86278">
        <ele>90.02</ele>
        <time>2015-08-17T14:11:24Z</time>
      </trkpt>
      <trkpt lat="47.26914" lon="1.86278">
        <ele>89.54</ele>
        <time>2015-08-17T14:11:58Z</time>
      </trkpt>
      <trkpt lat="47.26914" lon="1.86278">
        <ele>90.02</ele>
        <time>2015-08-17T14:12:38Z</time>
      </trkpt>
      <trkpt lat="47.26914" lon="1.86279">
        <ele>90.02</ele>
        <time>2015-08-17T14:13:18Z</time>
      </trkpt>
      <trkpt lat="47.26914" lon="1.86277">
        <ele>90.02</ele>
        <time>2015-08-17T14:13:58Z</time>
      </trkpt>
      <trkpt lat="47.26914" lon="1.86278">
        <ele>90.02</ele>
        <time>2015-08-17T14:14:37Z</time>
      </trkpt>
      <trkpt lat="47.26912" lon="1.86279">
        <ele>89.54</ele>
        <time>2015-08-17T14:15:14Z</time>
      </trkpt>
      <trkpt lat="47.26911" lon="1.86279">
        <ele>89.54</ele>
        <time>2015-08-17T14:15:53Z</time>
      </trkpt>
      <trkpt lat="47.2691" lon="1.86279">
        <ele>89.54</ele>
        <time>2015-08-17T14:16:24Z</time>
      </trkpt>
      <trkpt lat="47.26911" lon="1.86279">
        <ele>89.54</ele>
        <time>2015-08-17T14:16:58Z</time>
      </trkpt>
      <trkpt lat="47.26914" lon="1.86279">
        <ele>89.54</ele>
        <time>2015-08-17T14:17:39Z</time>
      </trkpt>
      <trkpt lat="47.26914" lon="1.86278">
        <ele>89.54</ele>
        <time>2015-08-17T14:18:15Z</time>
      </trkpt>
      <trkpt lat="47.26914" lon="1.86278">
        <ele>89.54</ele>
        <time>2015-08-17T14:18:46Z</time>
      </trkpt>
      <trkpt lat="47.26912" lon="1.86282">
        <ele>89.54</ele>
        <time>2015-08-17T14:19:04Z</time>
      </trkpt>
      <trkpt lat="47.26912" lon="1.86283">
        <ele>89.54</ele>
        <time>2015-08-17T14:19:14Z</time>
      </trkpt>
      <trkpt lat="47.26905" lon="1.86315">
        <ele>90.02</ele>
        <time>2015-08-17T14:19:26Z</time>
      </trkpt>
      <trkpt lat="47.26891" lon="1.8638">
        <ele>90.02</ele>
        <time>2015-08-17T14:19:39Z</time>
      </trkpt>
    </trkseg>
  </trk>
  <trk>
    <name><![CDATA[Mennetou-sur-Cher > Bourges (53 km)]]></name>
    <desc><![CDATA[De Bourges à Mehun le chemin est assez roulant. Beaux passages bordés de platanes aux allures de canal du Midi. Entre Mehun et Vierzon, suivre l’itinéraire préconisé par le guide, le halage des variantes est trop herbeux. De Vierzon à Mennetou, le halage est globalement bien roulant. Visite de la cité médiévale.]]></desc>
    <trkseg>
      <trkpt lat="47.26877" lon="1.86434">
        <ele>90.02</ele>
        <time>2015-08-17T14:19:52Z</time>
      </trkpt>
      <trkpt lat="47.2686" lon="1.86492">
        <ele>90.02</ele>
        <time>2015-08-17T14:20:06Z</time>
      </trkpt>
      <trkpt lat="47.26859" lon="1.86496">
        <ele>90.5</ele>
        <time>2015-08-17T14:20:07Z</time>
      </trkpt>
      <trkpt lat="47.26857" lon="1.865">
        <ele>90.02</ele>
        <time>2015-08-17T14:20:08Z</time>
      </trkpt>
      <trkpt lat="47.26856" lon="1.86505">
        <ele>90.5</ele>
        <time>2015-08-17T14:20:09Z</time>
      </trkpt>
      <trkpt lat="47.26856" lon="1.8651">
        <ele>90.02</ele>
        <time>2015-08-17T14:20:10Z</time>
      </trkpt>
      <trkpt lat="47.26855" lon="1.86515">
        <ele>90.02</ele>
        <time>2015-08-17T14:20:11Z</time>
      </trkpt>
      <trkpt lat="47.26854" lon="1.86521">
        <ele>90.02</ele>
        <time>2015-08-17T14:20:12Z</time>
      </trkpt>
      <trkpt lat="47.26854" lon="1.86527">
        <ele>90.5</ele>
        <time>2015-08-17T14:20:13Z</time>
      </trkpt>
      <trkpt lat="47.26853" lon="1.86532">
        <ele>90.5</ele>
        <time>2015-08-17T14:20:14Z</time>
      </trkpt>
      <trkpt lat="47.26852" lon="1.86538">
        <ele>90.5</ele>
        <time>2015-08-17T14:20:15Z</time>
      </trkpt>
      <trkpt lat="47.26851" lon="1.86544">
        <ele>90.5</ele>
        <time>2015-08-17T14:20:16Z</time>
      </trkpt>
      <trkpt lat="47.26855" lon="1.86564">
        <ele>91.46</ele>
        <time>2015-08-17T14:20:20Z</time>
      </trkpt>
      <trkpt lat="47.26856" lon="1.86566">
        <ele>91.46</ele>
        <time>2015-08-17T14:20:21Z</time>
      </trkpt>
      <trkpt lat="47.26858" lon="1.86568">
        <ele>91.46</ele>
        <time>2015-08-17T14:20:22Z</time>
      </trkpt>
      <trkpt lat="47.26858" lon="1.86569">
        <ele>91.46</ele>
        <time>2015-08-17T14:20:23Z</time>
      </trkpt>
      <trkpt lat="47.26859" lon="1.86571">
        <ele>91.46</ele>
        <time>2015-08-17T14:20:24Z</time>
      </trkpt>
      <trkpt lat="47.2686" lon="1.86572">
        <ele>91.46</ele>
        <time>2015-08-17T14:20:25Z</time>
      </trkpt>
      <trkpt lat="47.26859" lon="1.86572">
        <ele>91.46</ele>
        <time>2015-08-17T14:20:36Z</time>
      </trkpt>
      <trkpt lat="47.26858" lon="1.86572">
        <ele>91.46</ele>
        <time>2015-08-17T14:21:12Z</time>
      </trkpt>
      <trkpt lat="47.26859" lon="1.86571">
        <ele>91.46</ele>
        <time>2015-08-17T14:21:46Z</time>
      </trkpt>
      <trkpt lat="47.26859" lon="1.86575">
        <ele>91.46</ele>
        <time>2015-08-17T14:22:08Z</time>
      </trkpt>
      <trkpt lat="47.26859" lon="1.86576">
        <ele>91.46</ele>
        <time>2015-08-17T14:22:48Z</time>
      </trkpt>
      <trkpt lat="47.26859" lon="1.86575">
        <ele>91.46</ele>
        <time>2015-08-17T14:22:59Z</time>
      </trkpt>
      <trkpt lat="47.26853" lon="1.86568">
        <ele>90.98</ele>
        <time>2015-08-17T14:23:04Z</time>
      </trkpt>
      <trkpt lat="47.26851" lon="1.86567">
        <ele>90.98</ele>
        <time>2015-08-17T14:23:05Z</time>
      </trkpt>
      <trkpt lat="47.2685" lon="1.86565">
        <ele>90.98</ele>
        <time>2015-08-17T14:23:06Z</time>
      </trkpt>
      <trkpt lat="47.2685" lon="1.86563">
        <ele>90.98</ele>
        <time>2015-08-17T14:23:07Z</time>
      </trkpt>
      <trkpt lat="47.26849" lon="1.86562">
        <ele>90.98</ele>
        <time>2015-08-17T14:23:08Z</time>
      </trkpt>
      <trkpt lat="47.26848" lon="1.86561">
        <ele>90.5</ele>
        <time>2015-08-17T14:23:09Z</time>
      </trkpt>
      <trkpt lat="47.26846" lon="1.8656">
        <ele>90.5</ele>
        <time>2015-08-17T14:23:10Z</time>
      </trkpt>
      <trkpt lat="47.26845" lon="1.8656">
        <ele>90.5</ele>
        <time>2015-08-17T14:23:11Z</time>
      </trkpt>
      <trkpt lat="47.26829" lon="1.86594">
        <ele>90.5</ele>
        <time>2015-08-17T14:23:21Z</time>
      </trkpt>
      <trkpt lat="47.26811" lon="1.86681">
        <ele>91.46</ele>
        <time>2015-08-17T14:23:36Z</time>
      </trkpt>
      <trkpt lat="47.26805" lon="1.86714">
        <ele>91.46</ele>
        <time>2015-08-17T14:23:41Z</time>
      </trkpt>
      <trkpt lat="47.26804" lon="1.8672">
        <ele>91.46</ele>
        <time>2015-08-17T14:23:42Z</time>
      </trkpt>
      <trkpt lat="47.26792" lon="1.86772">
        <ele>92.42</ele>
        <time>2015-08-17T14:23:50Z</time>
      </trkpt>
      <trkpt lat="47.26786" lon="1.86827">
        <ele>92.9</ele>
        <time>2015-08-17T14:24:00Z</time>
      </trkpt>
      <trkpt lat="47.26803" lon="1.86882">
        <ele>91.94</ele>
        <time>2015-08-17T14:24:13Z</time>
      </trkpt>
      <trkpt lat="47.26825" lon="1.86945">
        <ele>92.42</ele>
        <time>2015-08-17T14:24:28Z</time>
      </trkpt>
      <trkpt lat="47.26826" lon="1.86948">
        <ele>92.42</ele>
        <time>2015-08-17T14:24:29Z</time>
      </trkpt>
      <trkpt lat="47.26826" lon="1.86951">
        <ele>92.9</ele>
        <time>2015-08-17T14:24:30Z</time>
      </trkpt>
      <trkpt lat="47.26827" lon="1.86953">
        <ele>92.42</ele>
        <time>2015-08-17T14:24:31Z</time>
      </trkpt>
      <trkpt lat="47.26828" lon="1.86955">
        <ele>92.42</ele>
        <time>2015-08-17T14:24:32Z</time>
      </trkpt>
      <trkpt lat="47.26828" lon="1.86957">
        <ele>92.42</ele>
        <time>2015-08-17T14:25:00Z</time>
      </trkpt>
      <trkpt lat="47.26829" lon="1.86957">
        <ele>92.9</ele>
        <time>2015-08-17T14:25:25Z</time>
      </trkpt>
      <trkpt lat="47.26829" lon="1.86957">
        <ele>92.42</ele>
        <time>2015-08-17T14:25:51Z</time>
      </trkpt>
      <trkpt lat="47.26828" lon="1.86958">
        <ele>92.9</ele>
        <time>2015-08-17T14:26:03Z</time>
      </trkpt>
      <trkpt lat="47.2683" lon="1.86965">
        <ele>92.9</ele>
        <time>2015-08-17T14:26:07Z</time>
      </trkpt>
      <trkpt lat="47.2683" lon="1.86967">
        <ele>92.9</ele>
        <time>2015-08-17T14:26:08Z</time>
      </trkpt>
      <trkpt lat="47.2683" lon="1.86969">
        <ele>92.9</ele>
        <time>2015-08-17T14:26:09Z</time>
      </trkpt>
      <trkpt lat="47.2683" lon="1.86971">
        <ele>92.9</ele>
        <time>2015-08-17T14:26:10Z</time>
      </trkpt>
      <trkpt lat="47.2683" lon="1.86973">
        <ele>92.9</ele>
        <time>2015-08-17T14:26:11Z</time>
      </trkpt>
      <trkpt lat="47.26832" lon="1.8698">
        <ele>93.39</ele>
        <time>2015-08-17T14:26:15Z</time>
      </trkpt>
      <trkpt lat="47.26837" lon="1.87006">
        <ele>93.87</ele>
        <time>2015-08-17T14:26:27Z</time>
      </trkpt>
      <trkpt lat="47.26837" lon="1.87009">
        <ele>93.87</ele>
        <time>2015-08-17T14:26:28Z</time>
      </trkpt>
      <trkpt lat="47.26838" lon="1.87012">
        <ele>93.87</ele>
        <time>2015-08-17T14:26:29Z</time>
      </trkpt>
      <trkpt lat="47.26838" lon="1.87015">
        <ele>94.35</ele>
        <time>2015-08-17T14:26:30Z</time>
      </trkpt>
      <trkpt lat="47.26839" lon="1.87017">
        <ele>94.35</ele>
        <time>2015-08-17T14:26:31Z</time>
      </trkpt>
      <trkpt lat="47.26839" lon="1.87019">
        <ele>94.35</ele>
        <time>2015-08-17T14:26:32Z</time>
      </trkpt>
      <trkpt lat="47.2684" lon="1.87021">
        <ele>94.35</ele>
        <time>2015-08-17T14:26:33Z</time>
      </trkpt>
      <trkpt lat="47.26844" lon="1.8704">
        <ele>94.35</ele>
        <time>2015-08-17T14:26:40Z</time>
      </trkpt>
      <trkpt lat="47.26853" lon="1.87105">
        <ele>94.35</ele>
        <time>2015-08-17T14:26:55Z</time>
      </trkpt>
      <trkpt lat="47.26853" lon="1.87177">
        <ele>94.35</ele>
        <time>2015-08-17T14:27:12Z</time>
      </trkpt>
      <trkpt lat="47.2685" lon="1.8724">
        <ele>93.87</ele>
        <time>2015-08-17T14:27:27Z</time>
      </trkpt>
      <trkpt lat="47.26848" lon="1.87292">
        <ele>93.87</ele>
        <time>2015-08-17T14:27:40Z</time>
      </trkpt>
      <trkpt lat="47.26845" lon="1.87337">
        <ele>93.87</ele>
        <time>2015-08-17T14:27:52Z</time>
      </trkpt>
      <trkpt lat="47.26842" lon="1.87394">
        <ele>93.87</ele>
        <time>2015-08-17T14:28:05Z</time>
      </trkpt>
      <trkpt lat="47.26841" lon="1.87441">
        <ele>93.87</ele>
        <time>2015-08-17T14:28:17Z</time>
      </trkpt>
      <trkpt lat="47.2684" lon="1.87444">
        <ele>94.35</ele>
        <time>2015-08-17T14:28:18Z</time>
      </trkpt>
      <trkpt lat="47.2684" lon="1.87447">
        <ele>94.35</ele>
        <time>2015-08-17T14:28:19Z</time>
      </trkpt>
      <trkpt lat="47.26837" lon="1.87487">
        <ele>93.87</ele>
        <time>2015-08-17T14:28:29Z</time>
      </trkpt>
      <trkpt lat="47.26834" lon="1.87555">
        <ele>93.87</ele>
        <time>2015-08-17T14:28:45Z</time>
      </trkpt>
      <trkpt lat="47.2683" lon="1.87609">
        <ele>93.87</ele>
        <time>2015-08-17T14:28:58Z</time>
      </trkpt>
      <trkpt lat="47.26822" lon="1.87667">
        <ele>93.87</ele>
        <time>2015-08-17T14:29:12Z</time>
      </trkpt>
      <trkpt lat="47.26816" lon="1.8772">
        <ele>93.87</ele>
        <time>2015-08-17T14:29:24Z</time>
      </trkpt>
      <trkpt lat="47.26805" lon="1.87797">
        <ele>93.87</ele>
        <time>2015-08-17T14:29:41Z</time>
      </trkpt>
      <trkpt lat="47.26798" lon="1.87851">
        <ele>93.87</ele>
        <time>2015-08-17T14:29:54Z</time>
      </trkpt>
      <trkpt lat="47.26791" lon="1.87908">
        <ele>93.87</ele>
        <time>2015-08-17T14:30:08Z</time>
      </trkpt>
      <trkpt lat="47.26783" lon="1.8795">
        <ele>93.87</ele>
        <time>2015-08-17T14:30:21Z</time>
      </trkpt>
      <trkpt lat="47.26783" lon="1.87953">
        <ele>93.87</ele>
        <time>2015-08-17T14:30:22Z</time>
      </trkpt>
      <trkpt lat="47.26783" lon="1.87956">
        <ele>93.87</ele>
        <time>2015-08-17T14:30:23Z</time>
      </trkpt>
      <trkpt lat="47.26782" lon="1.87959">
        <ele>93.87</ele>
        <time>2015-08-17T14:30:24Z</time>
      </trkpt>
      <trkpt lat="47.26782" lon="1.87962">
        <ele>93.87</ele>
        <time>2015-08-17T14:30:25Z</time>
      </trkpt>
      <trkpt lat="47.26782" lon="1.87964">
        <ele>93.87</ele>
        <time>2015-08-17T14:30:26Z</time>
      </trkpt>
      <trkpt lat="47.26782" lon="1.87966">
        <ele>93.87</ele>
        <time>2015-08-17T14:30:27Z</time>
      </trkpt>
      <trkpt lat="47.26781" lon="1.87975">
        <ele>93.87</ele>
        <time>2015-08-17T14:30:37Z</time>
      </trkpt>
      <trkpt lat="47.26781" lon="1.87976">
        <ele>93.87</ele>
        <time>2015-08-17T14:30:38Z</time>
      </trkpt>
      <trkpt lat="47.2678" lon="1.87976">
        <ele>93.87</ele>
        <time>2015-08-17T14:31:12Z</time>
      </trkpt>
      <trkpt lat="47.26777" lon="1.87982">
        <ele>92.9</ele>
        <time>2015-08-17T14:31:24Z</time>
      </trkpt>
      <trkpt lat="47.26771" lon="1.87986">
        <ele>91.94</ele>
        <time>2015-08-17T14:31:35Z</time>
      </trkpt>
      <trkpt lat="47.2677" lon="1.87988">
        <ele>91.94</ele>
        <time>2015-08-17T14:31:44Z</time>
      </trkpt>
      <trkpt lat="47.26771" lon="1.8799">
        <ele>92.42</ele>
        <time>2015-08-17T14:31:45Z</time>
      </trkpt>
      <trkpt lat="47.26762" lon="1.88063">
        <ele>92.9</ele>
        <time>2015-08-17T14:31:58Z</time>
      </trkpt>
      <trkpt lat="47.26745" lon="1.8813">
        <ele>93.39</ele>
        <time>2015-08-17T14:32:12Z</time>
      </trkpt>
      <trkpt lat="47.26744" lon="1.88141">
        <ele>93.87</ele>
        <time>2015-08-17T14:32:17Z</time>
      </trkpt>
      <trkpt lat="47.26745" lon="1.88141">
        <ele>93.87</ele>
        <time>2015-08-17T14:32:42Z</time>
      </trkpt>
      <trkpt lat="47.26745" lon="1.88142">
        <ele>93.87</ele>
        <time>2015-08-17T14:33:18Z</time>
      </trkpt>
      <trkpt lat="47.26745" lon="1.88141">
        <ele>93.87</ele>
        <time>2015-08-17T14:33:47Z</time>
      </trkpt>
      <trkpt lat="47.26744" lon="1.88141">
        <ele>93.87</ele>
        <time>2015-08-17T14:34:10Z</time>
      </trkpt>
      <trkpt lat="47.26744" lon="1.88142">
        <ele>93.87</ele>
        <time>2015-08-17T14:34:30Z</time>
      </trkpt>
      <trkpt lat="47.26739" lon="1.8815">
        <ele>93.39</ele>
        <time>2015-08-17T14:34:43Z</time>
      </trkpt>
      <trkpt lat="47.26734" lon="1.8818">
        <ele>92.42</ele>
        <time>2015-08-17T14:34:52Z</time>
      </trkpt>
      <trkpt lat="47.26724" lon="1.88246">
        <ele>91.94</ele>
        <time>2015-08-17T14:35:06Z</time>
      </trkpt>
      <trkpt lat="47.26715" lon="1.88318">
        <ele>91.94</ele>
        <time>2015-08-17T14:35:20Z</time>
      </trkpt>
      <trkpt lat="47.26708" lon="1.88395">
        <ele>91.94</ele>
        <time>2015-08-17T14:35:36Z</time>
      </trkpt>
      <trkpt lat="47.26699" lon="1.88466">
        <ele>91.94</ele>
        <time>2015-08-17T14:35:51Z</time>
      </trkpt>
      <trkpt lat="47.26693" lon="1.88517">
        <ele>91.94</ele>
        <time>2015-08-17T14:36:04Z</time>
      </trkpt>
      <trkpt lat="47.26685" lon="1.88579">
        <ele>91.94</ele>
        <time>2015-08-17T14:36:19Z</time>
      </trkpt>
      <trkpt lat="47.26679" lon="1.88632">
        <ele>91.94</ele>
        <time>2015-08-17T14:36:31Z</time>
      </trkpt>
      <trkpt lat="47.26671" lon="1.8869">
        <ele>91.94</ele>
        <time>2015-08-17T14:36:44Z</time>
      </trkpt>
      <trkpt lat="47.2666" lon="1.88773">
        <ele>91.94</ele>
        <time>2015-08-17T14:37:01Z</time>
      </trkpt>
      <trkpt lat="47.26652" lon="1.88827">
        <ele>91.94</ele>
        <time>2015-08-17T14:37:14Z</time>
      </trkpt>
      <trkpt lat="47.26648" lon="1.88886">
        <ele>91.94</ele>
        <time>2015-08-17T14:37:28Z</time>
      </trkpt>
      <trkpt lat="47.26637" lon="1.88957">
        <ele>91.94</ele>
        <time>2015-08-17T14:37:44Z</time>
      </trkpt>
      <trkpt lat="47.26631" lon="1.89027">
        <ele>92.42</ele>
        <time>2015-08-17T14:37:58Z</time>
      </trkpt>
      <trkpt lat="47.26619" lon="1.8912">
        <ele>92.42</ele>
        <time>2015-08-17T14:38:14Z</time>
      </trkpt>
      <trkpt lat="47.26604" lon="1.89243">
        <ele>91.94</ele>
        <time>2015-08-17T14:38:33Z</time>
      </trkpt>
      <trkpt lat="47.26601" lon="1.89264">
        <ele>91.94</ele>
        <time>2015-08-17T14:38:36Z</time>
      </trkpt>
      <trkpt lat="47.26586" lon="1.89379">
        <ele>92.9</ele>
        <time>2015-08-17T14:38:51Z</time>
      </trkpt>
      <trkpt lat="47.26574" lon="1.89488">
        <ele>93.39</ele>
        <time>2015-08-17T14:39:07Z</time>
      </trkpt>
      <trkpt lat="47.26569" lon="1.89526">
        <ele>93.87</ele>
        <time>2015-08-17T14:39:13Z</time>
      </trkpt>
      <trkpt lat="47.26555" lon="1.89642">
        <ele>93.87</ele>
        <time>2015-08-17T14:39:29Z</time>
      </trkpt>
      <trkpt lat="47.26538" lon="1.89757">
        <ele>95.31</ele>
        <time>2015-08-17T14:39:45Z</time>
      </trkpt>
      <trkpt lat="47.26537" lon="1.89764">
        <ele>95.31</ele>
        <time>2015-08-17T14:39:46Z</time>
      </trkpt>
      <trkpt lat="47.26541" lon="1.89787">
        <ele>96.27</ele>
        <time>2015-08-17T14:39:53Z</time>
      </trkpt>
      <trkpt lat="47.26537" lon="1.89829">
        <ele>94.35</ele>
        <time>2015-08-17T14:40:03Z</time>
      </trkpt>
      <trkpt lat="47.26528" lon="1.89905">
        <ele>93.87</ele>
        <time>2015-08-17T14:40:16Z</time>
      </trkpt>
      <trkpt lat="47.26522" lon="1.89966">
        <ele>93.87</ele>
        <time>2015-08-17T14:40:29Z</time>
      </trkpt>
      <trkpt lat="47.2652" lon="1.90015">
        <ele>93.87</ele>
        <time>2015-08-17T14:40:43Z</time>
      </trkpt>
      <trkpt lat="47.2652" lon="1.90014">
        <ele>93.87</ele>
        <time>2015-08-17T14:41:00Z</time>
      </trkpt>
      <trkpt lat="47.26522" lon="1.90024">
        <ele>93.87</ele>
        <time>2015-08-17T14:41:14Z</time>
      </trkpt>
      <trkpt lat="47.26524" lon="1.90081">
        <ele>93.87</ele>
        <time>2015-08-17T14:41:25Z</time>
      </trkpt>
      <trkpt lat="47.26525" lon="1.90143">
        <ele>93.87</ele>
        <time>2015-08-17T14:41:37Z</time>
      </trkpt>
      <trkpt lat="47.26514" lon="1.90201">
        <ele>93.87</ele>
        <time>2015-08-17T14:41:50Z</time>
      </trkpt>
      <trkpt lat="47.26495" lon="1.9024">
        <ele>93.87</ele>
        <time>2015-08-17T14:42:01Z</time>
      </trkpt>
      <trkpt lat="47.26463" lon="1.90275">
        <ele>93.87</ele>
        <time>2015-08-17T14:42:14Z</time>
      </trkpt>
      <trkpt lat="47.26433" lon="1.90296">
        <ele>93.87</ele>
        <time>2015-08-17T14:42:26Z</time>
      </trkpt>
      <trkpt lat="47.26401" lon="1.90326">
        <ele>94.35</ele>
        <time>2015-08-17T14:42:38Z</time>
      </trkpt>
      <trkpt lat="47.26379" lon="1.90365">
        <ele>95.31</ele>
        <time>2015-08-17T14:42:51Z</time>
      </trkpt>
      <trkpt lat="47.26365" lon="1.90409">
        <ele>93.87</ele>
        <time>2015-08-17T14:43:03Z</time>
      </trkpt>
      <trkpt lat="47.26351" lon="1.90464">
        <ele>93.87</ele>
        <time>2015-08-17T14:43:18Z</time>
      </trkpt>
      <trkpt lat="47.26343" lon="1.90509">
        <ele>93.87</ele>
        <time>2015-08-17T14:43:32Z</time>
      </trkpt>
      <trkpt lat="47.26334" lon="1.90561">
        <ele>93.87</ele>
        <time>2015-08-17T14:43:46Z</time>
      </trkpt>
      <trkpt lat="47.26327" lon="1.9061">
        <ele>93.87</ele>
        <time>2015-08-17T14:43:59Z</time>
      </trkpt>
      <trkpt lat="47.26324" lon="1.90622">
        <ele>93.87</ele>
        <time>2015-08-17T14:44:03Z</time>
      </trkpt>
      <trkpt lat="47.26324" lon="1.90632">
        <ele>93.87</ele>
        <time>2015-08-17T14:44:06Z</time>
      </trkpt>
      <trkpt lat="47.26317" lon="1.9068">
        <ele>93.39</ele>
        <time>2015-08-17T14:44:20Z</time>
      </trkpt>
      <trkpt lat="47.26305" lon="1.90719">
        <ele>93.87</ele>
        <time>2015-08-17T14:44:33Z</time>
      </trkpt>
      <trkpt lat="47.26288" lon="1.90769">
        <ele>93.87</ele>
        <time>2015-08-17T14:44:47Z</time>
      </trkpt>
      <trkpt lat="47.26277" lon="1.90804">
        <ele>93.87</ele>
        <time>2015-08-17T14:45:00Z</time>
      </trkpt>
      <trkpt lat="47.26259" lon="1.90847">
        <ele>92.42</ele>
        <time>2015-08-17T14:45:14Z</time>
      </trkpt>
      <trkpt lat="47.26237" lon="1.90894">
        <ele>91.94</ele>
        <time>2015-08-17T14:45:26Z</time>
      </trkpt>
      <trkpt lat="47.2621" lon="1.9094">
        <ele>91.94</ele>
        <time>2015-08-17T14:45:40Z</time>
      </trkpt>
      <trkpt lat="47.2619" lon="1.90969">
        <ele>91.94</ele>
        <time>2015-08-17T14:45:50Z</time>
      </trkpt>
      <trkpt lat="47.26167" lon="1.91011">
        <ele>91.94</ele>
        <time>2015-08-17T14:46:03Z</time>
      </trkpt>
      <trkpt lat="47.26137" lon="1.91065">
        <ele>91.46</ele>
        <time>2015-08-17T14:46:15Z</time>
      </trkpt>
      <trkpt lat="47.26132" lon="1.91076">
        <ele>91.46</ele>
        <time>2015-08-17T14:46:17Z</time>
      </trkpt>
      <trkpt lat="47.26113" lon="1.91121">
        <ele>91.46</ele>
        <time>2015-08-17T14:46:26Z</time>
      </trkpt>
      <trkpt lat="47.26096" lon="1.91174">
        <ele>90.98</ele>
        <time>2015-08-17T14:46:36Z</time>
      </trkpt>
      <trkpt lat="47.26077" lon="1.91231">
        <ele>91.94</ele>
        <time>2015-08-17T14:46:47Z</time>
      </trkpt>
      <trkpt lat="47.26064" lon="1.91272">
        <ele>91.94</ele>
        <time>2015-08-17T14:46:58Z</time>
      </trkpt>
      <trkpt lat="47.26056" lon="1.91293">
        <ele>91.94</ele>
        <time>2015-08-17T14:47:06Z</time>
      </trkpt>
      <trkpt lat="47.26051" lon="1.91303">
        <ele>91.94</ele>
        <time>2015-08-17T14:47:26Z</time>
      </trkpt>
      <trkpt lat="47.2605" lon="1.91303">
        <ele>91.94</ele>
        <time>2015-08-17T14:47:50Z</time>
      </trkpt>
      <trkpt lat="47.2605" lon="1.91303">
        <ele>91.94</ele>
        <time>2015-08-17T14:48:25Z</time>
      </trkpt>
      <trkpt lat="47.26052" lon="1.91302">
        <ele>91.94</ele>
        <time>2015-08-17T14:48:44Z</time>
      </trkpt>
      <trkpt lat="47.2605" lon="1.91308">
        <ele>92.42</ele>
        <time>2015-08-17T14:48:53Z</time>
      </trkpt>
      <trkpt lat="47.26032" lon="1.91352">
        <ele>92.9</ele>
        <time>2015-08-17T14:49:04Z</time>
      </trkpt>
      <trkpt lat="47.26025" lon="1.91392">
        <ele>93.39</ele>
        <time>2015-08-17T14:49:15Z</time>
      </trkpt>
      <trkpt lat="47.26023" lon="1.91401">
        <ele>93.39</ele>
        <time>2015-08-17T14:49:18Z</time>
      </trkpt>
      <trkpt lat="47.26014" lon="1.91437">
        <ele>93.39</ele>
        <time>2015-08-17T14:49:28Z</time>
      </trkpt>
      <trkpt lat="47.26001" lon="1.91485">
        <ele>93.87</ele>
        <time>2015-08-17T14:49:40Z</time>
      </trkpt>
      <trkpt lat="47.25989" lon="1.91532">
        <ele>91.94</ele>
        <time>2015-08-17T14:49:53Z</time>
      </trkpt>
      <trkpt lat="47.25967" lon="1.9158">
        <ele>91.46</ele>
        <time>2015-08-17T14:50:06Z</time>
      </trkpt>
      <trkpt lat="47.25925" lon="1.91615">
        <ele>90.5</ele>
        <time>2015-08-17T14:50:19Z</time>
      </trkpt>
      <trkpt lat="47.25883" lon="1.91655">
        <ele>90.98</ele>
        <time>2015-08-17T14:50:32Z</time>
      </trkpt>
      <trkpt lat="47.25856" lon="1.91673">
        <ele>90.98</ele>
        <time>2015-08-17T14:50:41Z</time>
      </trkpt>
      <trkpt lat="47.25828" lon="1.91712">
        <ele>90.98</ele>
        <time>2015-08-17T14:50:54Z</time>
      </trkpt>
      <trkpt lat="47.25821" lon="1.91728">
        <ele>90.5</ele>
        <time>2015-08-17T14:50:59Z</time>
      </trkpt>
      <trkpt lat="47.25819" lon="1.91736">
        <ele>90.5</ele>
        <time>2015-08-17T14:51:05Z</time>
      </trkpt>
      <trkpt lat="47.25804" lon="1.9178">
        <ele>91.46</ele>
        <time>2015-08-17T14:51:17Z</time>
      </trkpt>
      <trkpt lat="47.25786" lon="1.91827">
        <ele>90.98</ele>
        <time>2015-08-17T14:51:28Z</time>
      </trkpt>
      <trkpt lat="47.25757" lon="1.91883">
        <ele>90.98</ele>
        <time>2015-08-17T14:51:41Z</time>
      </trkpt>
      <trkpt lat="47.25742" lon="1.91932">
        <ele>91.46</ele>
        <time>2015-08-17T14:51:52Z</time>
      </trkpt>
      <trkpt lat="47.25737" lon="1.91953">
        <ele>91.46</ele>
        <time>2015-08-17T14:51:56Z</time>
      </trkpt>
      <trkpt lat="47.25717" lon="1.92007">
        <ele>91.46</ele>
        <time>2015-08-17T14:52:07Z</time>
      </trkpt>
      <trkpt lat="47.25714" lon="1.92012">
        <ele>91.46</ele>
        <time>2015-08-17T14:52:08Z</time>
      </trkpt>
      <trkpt lat="47.25686" lon="1.92087">
        <ele>91.94</ele>
        <time>2015-08-17T14:52:22Z</time>
      </trkpt>
      <trkpt lat="47.25667" lon="1.92132">
        <ele>92.42</ele>
        <time>2015-08-17T14:52:31Z</time>
      </trkpt>
      <trkpt lat="47.25662" lon="1.92149">
        <ele>92.9</ele>
        <time>2015-08-17T14:52:34Z</time>
      </trkpt>
      <trkpt lat="47.25644" lon="1.92219">
        <ele>92.9</ele>
        <time>2015-08-17T14:52:47Z</time>
      </trkpt>
      <trkpt lat="47.2562" lon="1.923">
        <ele>92.9</ele>
        <time>2015-08-17T14:53:03Z</time>
      </trkpt>
      <trkpt lat="47.25598" lon="1.92368">
        <ele>93.39</ele>
        <time>2015-08-17T14:53:16Z</time>
      </trkpt>
      <trkpt lat="47.25569" lon="1.92439">
        <ele>93.39</ele>
        <time>2015-08-17T14:53:32Z</time>
      </trkpt>
      <trkpt lat="47.25552" lon="1.92507">
        <ele>93.87</ele>
        <time>2015-08-17T14:53:47Z</time>
      </trkpt>
      <trkpt lat="47.2554" lon="1.92545">
        <ele>93.87</ele>
        <time>2015-08-17T14:54:00Z</time>
      </trkpt>
      <trkpt lat="47.25511" lon="1.9259">
        <ele>93.39</ele>
        <time>2015-08-17T14:54:16Z</time>
      </trkpt>
      <trkpt lat="47.25489" lon="1.92654">
        <ele>93.39</ele>
        <time>2015-08-17T14:54:30Z</time>
      </trkpt>
      <trkpt lat="47.25465" lon="1.92739">
        <ele>92.9</ele>
        <time>2015-08-17T14:54:47Z</time>
      </trkpt>
      <trkpt lat="47.25445" lon="1.92805">
        <ele>92.9</ele>
        <time>2015-08-17T14:55:00Z</time>
      </trkpt>
      <trkpt lat="47.25436" lon="1.9287">
        <ele>92.9</ele>
        <time>2015-08-17T14:55:12Z</time>
      </trkpt>
      <trkpt lat="47.25404" lon="1.92949">
        <ele>92.42</ele>
        <time>2015-08-17T14:55:28Z</time>
      </trkpt>
      <trkpt lat="47.25374" lon="1.93008">
        <ele>92.9</ele>
        <time>2015-08-17T14:55:41Z</time>
      </trkpt>
      <trkpt lat="47.25363" lon="1.93073">
        <ele>92.42</ele>
        <time>2015-08-17T14:55:54Z</time>
      </trkpt>
      <trkpt lat="47.25356" lon="1.93135">
        <ele>92.42</ele>
        <time>2015-08-17T14:56:06Z</time>
      </trkpt>
      <trkpt lat="47.2536" lon="1.93198">
        <ele>92.42</ele>
        <time>2015-08-17T14:56:17Z</time>
      </trkpt>
      <trkpt lat="47.25361" lon="1.93205">
        <ele>92.42</ele>
        <time>2015-08-17T14:56:18Z</time>
      </trkpt>
      <trkpt lat="47.25361" lon="1.93211">
        <ele>92.42</ele>
        <time>2015-08-17T14:56:19Z</time>
      </trkpt>
      <trkpt lat="47.25362" lon="1.93218">
        <ele>92.42</ele>
        <time>2015-08-17T14:56:20Z</time>
      </trkpt>
      <trkpt lat="47.25362" lon="1.93224">
        <ele>92.9</ele>
        <time>2015-08-17T14:56:21Z</time>
      </trkpt>
      <trkpt lat="47.25362" lon="1.9323">
        <ele>92.9</ele>
        <time>2015-08-17T14:56:22Z</time>
      </trkpt>
      <trkpt lat="47.25363" lon="1.93236">
        <ele>92.9</ele>
        <time>2015-08-17T14:56:23Z</time>
      </trkpt>
      <trkpt lat="47.25362" lon="1.93261">
        <ele>92.9</ele>
        <time>2015-08-17T14:56:27Z</time>
      </trkpt>
      <trkpt lat="47.2536" lon="1.93317">
        <ele>93.39</ele>
        <time>2015-08-17T14:56:36Z</time>
      </trkpt>
      <trkpt lat="47.2536" lon="1.93323">
        <ele>93.39</ele>
        <time>2015-08-17T14:56:37Z</time>
      </trkpt>
      <trkpt lat="47.2536" lon="1.93328">
        <ele>93.39</ele>
        <time>2015-08-17T14:56:38Z</time>
      </trkpt>
      <trkpt lat="47.2536" lon="1.93334">
        <ele>93.39</ele>
        <time>2015-08-17T14:56:39Z</time>
      </trkpt>
      <trkpt lat="47.25361" lon="1.93339">
        <ele>93.39</ele>
        <time>2015-08-17T14:56:40Z</time>
      </trkpt>
      <trkpt lat="47.25362" lon="1.93345">
        <ele>93.39</ele>
        <time>2015-08-17T14:56:41Z</time>
      </trkpt>
      <trkpt lat="47.25367" lon="1.93363">
        <ele>93.39</ele>
        <time>2015-08-17T14:56:44Z</time>
      </trkpt>
      <trkpt lat="47.25393" lon="1.93407">
        <ele>93.87</ele>
        <time>2015-08-17T14:56:55Z</time>
      </trkpt>
      <trkpt lat="47.25397" lon="1.9345">
        <ele>94.35</ele>
        <time>2015-08-17T14:57:05Z</time>
      </trkpt>
      <trkpt lat="47.2539" lon="1.93501">
        <ele>94.35</ele>
        <time>2015-08-17T14:57:16Z</time>
      </trkpt>
      <trkpt lat="47.25394" lon="1.93571">
        <ele>93.39</ele>
        <time>2015-08-17T14:57:30Z</time>
      </trkpt>
      <trkpt lat="47.25396" lon="1.93626">
        <ele>93.87</ele>
        <time>2015-08-17T14:57:41Z</time>
      </trkpt>
      <trkpt lat="47.25394" lon="1.93675">
        <ele>93.39</ele>
        <time>2015-08-17T14:57:53Z</time>
      </trkpt>
      <trkpt lat="47.25394" lon="1.93719">
        <ele>93.39</ele>
        <time>2015-08-17T14:58:03Z</time>
      </trkpt>
      <trkpt lat="47.25392" lon="1.93761">
        <ele>93.87</ele>
        <time>2015-08-17T14:58:15Z</time>
      </trkpt>
      <trkpt lat="47.25379" lon="1.93799">
        <ele>93.87</ele>
        <time>2015-08-17T14:58:25Z</time>
      </trkpt>
      <trkpt lat="47.25376" lon="1.93814">
        <ele>93.87</ele>
        <time>2015-08-17T14:58:29Z</time>
      </trkpt>
      <trkpt lat="47.25371" lon="1.93844">
        <ele>93.87</ele>
        <time>2015-08-17T14:58:38Z</time>
      </trkpt>
      <trkpt lat="47.25362" lon="1.93904">
        <ele>93.87</ele>
        <time>2015-08-17T14:58:54Z</time>
      </trkpt>
      <trkpt lat="47.25362" lon="1.9395">
        <ele>93.39</ele>
        <time>2015-08-17T14:59:07Z</time>
      </trkpt>
      <trkpt lat="47.25361" lon="1.93964">
        <ele>93.87</ele>
        <time>2015-08-17T14:59:12Z</time>
      </trkpt>
      <trkpt lat="47.25359" lon="1.93973">
        <ele>93.87</ele>
        <time>2015-08-17T14:59:16Z</time>
      </trkpt>
      <trkpt lat="47.25359" lon="1.93974">
        <ele>93.39</ele>
        <time>2015-08-17T14:59:35Z</time>
      </trkpt>
      <trkpt lat="47.2536" lon="1.93976">
        <ele>93.87</ele>
        <time>2015-08-17T15:00:07Z</time>
      </trkpt>
      <trkpt lat="47.2536" lon="1.93976">
        <ele>93.87</ele>
        <time>2015-08-17T15:00:37Z</time>
      </trkpt>
      <trkpt lat="47.25361" lon="1.93974">
        <ele>93.87</ele>
        <time>2015-08-17T15:01:04Z</time>
      </trkpt>
      <trkpt lat="47.25359" lon="1.93984">
        <ele>93.39</ele>
        <time>2015-08-17T15:01:15Z</time>
      </trkpt>
      <trkpt lat="47.25352" lon="1.94023">
        <ele>93.39</ele>
        <time>2015-08-17T15:01:28Z</time>
      </trkpt>
      <trkpt lat="47.25338" lon="1.9406">
        <ele>93.39</ele>
        <time>2015-08-17T15:01:40Z</time>
      </trkpt>
      <trkpt lat="47.25318" lon="1.94104">
        <ele>93.39</ele>
        <time>2015-08-17T15:01:53Z</time>
      </trkpt>
      <trkpt lat="47.25292" lon="1.94158">
        <ele>93.39</ele>
        <time>2015-08-17T15:02:09Z</time>
      </trkpt>
      <trkpt lat="47.25265" lon="1.94219">
        <ele>93.87</ele>
        <time>2015-08-17T15:02:26Z</time>
      </trkpt>
      <trkpt lat="47.25241" lon="1.94267">
        <ele>94.35</ele>
        <time>2015-08-17T15:02:39Z</time>
      </trkpt>
      <trkpt lat="47.25222" lon="1.94311">
        <ele>93.87</ele>
        <time>2015-08-17T15:02:53Z</time>
      </trkpt>
      <trkpt lat="47.25203" lon="1.94353">
        <ele>93.87</ele>
        <time>2015-08-17T15:03:08Z</time>
      </trkpt>
      <trkpt lat="47.2518" lon="1.94401">
        <ele>94.35</ele>
        <time>2015-08-17T15:03:22Z</time>
      </trkpt>
      <trkpt lat="47.25161" lon="1.94446">
        <ele>94.35</ele>
        <time>2015-08-17T15:03:34Z</time>
      </trkpt>
      <trkpt lat="47.25133" lon="1.94503">
        <ele>94.83</ele>
        <time>2015-08-17T15:03:50Z</time>
      </trkpt>
      <trkpt lat="47.25113" lon="1.94544">
        <ele>94.35</ele>
        <time>2015-08-17T15:04:03Z</time>
      </trkpt>
      <trkpt lat="47.25089" lon="1.94599">
        <ele>94.83</ele>
        <time>2015-08-17T15:04:18Z</time>
      </trkpt>
      <trkpt lat="47.25077" lon="1.94637">
        <ele>94.83</ele>
        <time>2015-08-17T15:04:32Z</time>
      </trkpt>
      <trkpt lat="47.25083" lon="1.94648">
        <ele>95.79</ele>
        <time>2015-08-17T15:04:39Z</time>
      </trkpt>
      <trkpt lat="47.25084" lon="1.94649">
        <ele>95.31</ele>
        <time>2015-08-17T15:05:08Z</time>
      </trkpt>
      <trkpt lat="47.25084" lon="1.94649">
        <ele>95.31</ele>
        <time>2015-08-17T15:05:43Z</time>
      </trkpt>
      <trkpt lat="47.25084" lon="1.9465">
        <ele>95.31</ele>
        <time>2015-08-17T15:06:19Z</time>
      </trkpt>
      <trkpt lat="47.25084" lon="1.9465">
        <ele>95.31</ele>
        <time>2015-08-17T15:06:53Z</time>
      </trkpt>
      <trkpt lat="47.25084" lon="1.94649">
        <ele>95.31</ele>
        <time>2015-08-17T15:07:33Z</time>
      </trkpt>
      <trkpt lat="47.25084" lon="1.94651">
        <ele>95.31</ele>
        <time>2015-08-17T15:08:15Z</time>
      </trkpt>
      <trkpt lat="47.25084" lon="1.94652">
        <ele>95.31</ele>
        <time>2015-08-17T15:09:00Z</time>
      </trkpt>
      <trkpt lat="47.25084" lon="1.94651">
        <ele>95.79</ele>
        <time>2015-08-17T15:09:38Z</time>
      </trkpt>
      <trkpt lat="47.25084" lon="1.94652">
        <ele>95.31</ele>
        <time>2015-08-17T15:10:06Z</time>
      </trkpt>
      <trkpt lat="47.25084" lon="1.9465">
        <ele>95.79</ele>
        <time>2015-08-17T15:10:41Z</time>
      </trkpt>
      <trkpt lat="47.25086" lon="1.94649">
        <ele>95.79</ele>
        <time>2015-08-17T15:10:58Z</time>
      </trkpt>
      <trkpt lat="47.25089" lon="1.94668">
        <ele>95.31</ele>
        <time>2015-08-17T15:11:11Z</time>
      </trkpt>
      <trkpt lat="47.25068" lon="1.94711">
        <ele>95.31</ele>
        <time>2015-08-17T15:11:27Z</time>
      </trkpt>
      <trkpt lat="47.25048" lon="1.94756">
        <ele>94.83</ele>
        <time>2015-08-17T15:11:43Z</time>
      </trkpt>
      <trkpt lat="47.25025" lon="1.94799">
        <ele>94.83</ele>
        <time>2015-08-17T15:11:58Z</time>
      </trkpt>
      <trkpt lat="47.25004" lon="1.94849">
        <ele>94.83</ele>
        <time>2015-08-17T15:12:14Z</time>
      </trkpt>
      <trkpt lat="47.2498" lon="1.94897">
        <ele>94.83</ele>
        <time>2015-08-17T15:12:29Z</time>
      </trkpt>
      <trkpt lat="47.24959" lon="1.94948">
        <ele>94.83</ele>
        <time>2015-08-17T15:12:45Z</time>
      </trkpt>
      <trkpt lat="47.24939" lon="1.94992">
        <ele>95.31</ele>
        <time>2015-08-17T15:12:59Z</time>
      </trkpt>
      <trkpt lat="47.24917" lon="1.9504">
        <ele>95.31</ele>
        <time>2015-08-17T15:13:15Z</time>
      </trkpt>
      <trkpt lat="47.24889" lon="1.95101">
        <ele>95.31</ele>
        <time>2015-08-17T15:13:33Z</time>
      </trkpt>
      <trkpt lat="47.24871" lon="1.95144">
        <ele>95.31</ele>
        <time>2015-08-17T15:13:47Z</time>
      </trkpt>
      <trkpt lat="47.24852" lon="1.95183">
        <ele>95.31</ele>
        <time>2015-08-17T15:14:01Z</time>
      </trkpt>
      <trkpt lat="47.24833" lon="1.95222">
        <ele>95.31</ele>
        <time>2015-08-17T15:14:16Z</time>
      </trkpt>
      <trkpt lat="47.24816" lon="1.95263">
        <ele>95.79</ele>
        <time>2015-08-17T15:14:31Z</time>
      </trkpt>
      <trkpt lat="47.24785" lon="1.95329">
        <ele>95.79</ele>
        <time>2015-08-17T15:14:52Z</time>
      </trkpt>
      <trkpt lat="47.24764" lon="1.95378">
        <ele>95.79</ele>
        <time>2015-08-17T15:15:07Z</time>
      </trkpt>
      <trkpt lat="47.24734" lon="1.95444">
        <ele>95.79</ele>
        <time>2015-08-17T15:15:27Z</time>
      </trkpt>
      <trkpt lat="47.24703" lon="1.95507">
        <ele>95.79</ele>
        <time>2015-08-17T15:15:47Z</time>
      </trkpt>
      <trkpt lat="47.24672" lon="1.95565">
        <ele>95.79</ele>
        <time>2015-08-17T15:16:05Z</time>
      </trkpt>
      <trkpt lat="47.24642" lon="1.95617">
        <ele>96.27</ele>
        <time>2015-08-17T15:16:22Z</time>
      </trkpt>
      <trkpt lat="47.24618" lon="1.95661">
        <ele>96.27</ele>
        <time>2015-08-17T15:16:36Z</time>
      </trkpt>
      <trkpt lat="47.24593" lon="1.95703">
        <ele>96.27</ele>
        <time>2015-08-17T15:16:51Z</time>
      </trkpt>
      <trkpt lat="47.24575" lon="1.95727">
        <ele>97.71</ele>
        <time>2015-08-17T15:17:03Z</time>
      </trkpt>
      <trkpt lat="47.24573" lon="1.95726">
        <ele>97.71</ele>
        <time>2015-08-17T15:17:05Z</time>
      </trkpt>
      <trkpt lat="47.24571" lon="1.95726">
        <ele>97.71</ele>
        <time>2015-08-17T15:17:15Z</time>
      </trkpt>
      <trkpt lat="47.24571" lon="1.95723">
        <ele>97.71</ele>
        <time>2015-08-17T15:17:26Z</time>
      </trkpt>
      <trkpt lat="47.24576" lon="1.95731">
        <ele>97.23</ele>
        <time>2015-08-17T15:17:36Z</time>
      </trkpt>
      <trkpt lat="47.24576" lon="1.95733">
        <ele>97.23</ele>
        <time>2015-08-17T15:17:40Z</time>
      </trkpt>
      <trkpt lat="47.24576" lon="1.95732">
        <ele>97.23</ele>
        <time>2015-08-17T15:18:10Z</time>
      </trkpt>
      <trkpt lat="47.24576" lon="1.95732">
        <ele>97.71</ele>
        <time>2015-08-17T15:18:43Z</time>
      </trkpt>
      <trkpt lat="47.24576" lon="1.95733">
        <ele>97.71</ele>
        <time>2015-08-17T15:19:12Z</time>
      </trkpt>
      <trkpt lat="47.24576" lon="1.95732">
        <ele>97.71</ele>
        <time>2015-08-17T15:19:39Z</time>
      </trkpt>
      <trkpt lat="47.24569" lon="1.95736">
        <ele>97.23</ele>
        <time>2015-08-17T15:19:51Z</time>
      </trkpt>
      <trkpt lat="47.24553" lon="1.95769">
        <ele>97.23</ele>
        <time>2015-08-17T15:20:06Z</time>
      </trkpt>
      <trkpt lat="47.24551" lon="1.95773">
        <ele>97.23</ele>
        <time>2015-08-17T15:20:08Z</time>
      </trkpt>
      <trkpt lat="47.24537" lon="1.95801">
        <ele>97.23</ele>
        <time>2015-08-17T15:20:20Z</time>
      </trkpt>
      <trkpt lat="47.24509" lon="1.95852">
        <ele>97.23</ele>
        <time>2015-08-17T15:20:34Z</time>
      </trkpt>
      <trkpt lat="47.24504" lon="1.95866">
        <ele>97.23</ele>
        <time>2015-08-17T15:20:38Z</time>
      </trkpt>
      <trkpt lat="47.24497" lon="1.95877">
        <ele>97.23</ele>
        <time>2015-08-17T15:20:41Z</time>
      </trkpt>
      <trkpt lat="47.24487" lon="1.95911">
        <ele>97.71</ele>
        <time>2015-08-17T15:20:50Z</time>
      </trkpt>
      <trkpt lat="47.24481" lon="1.95939">
        <ele>97.23</ele>
        <time>2015-08-17T15:20:58Z</time>
      </trkpt>
      <trkpt lat="47.24475" lon="1.95961">
        <ele>97.23</ele>
        <time>2015-08-17T15:21:04Z</time>
      </trkpt>
      <trkpt lat="47.24473" lon="1.95972">
        <ele>97.23</ele>
        <time>2015-08-17T15:21:08Z</time>
      </trkpt>
      <trkpt lat="47.24473" lon="1.95974">
        <ele>97.23</ele>
        <time>2015-08-17T15:21:09Z</time>
      </trkpt>
      <trkpt lat="47.24471" lon="1.95983">
        <ele>97.23</ele>
        <time>2015-08-17T15:21:24Z</time>
      </trkpt>
      <trkpt lat="47.24471" lon="1.95987">
        <ele>97.71</ele>
        <time>2015-08-17T15:21:57Z</time>
      </trkpt>
      <trkpt lat="47.24469" lon="1.96002">
        <ele>97.71</ele>
        <time>2015-08-17T15:22:10Z</time>
      </trkpt>
      <trkpt lat="47.24459" lon="1.96046">
        <ele>97.71</ele>
        <time>2015-08-17T15:22:22Z</time>
      </trkpt>
      <trkpt lat="47.24448" lon="1.96093">
        <ele>97.23</ele>
        <time>2015-08-17T15:22:35Z</time>
      </trkpt>
      <trkpt lat="47.24435" lon="1.96143">
        <ele>97.71</ele>
        <time>2015-08-17T15:22:48Z</time>
      </trkpt>
      <trkpt lat="47.24424" lon="1.9619">
        <ele>97.71</ele>
        <time>2015-08-17T15:23:00Z</time>
      </trkpt>
      <trkpt lat="47.2442" lon="1.96208">
        <ele>97.71</ele>
        <time>2015-08-17T15:23:05Z</time>
      </trkpt>
      <trkpt lat="47.24414" lon="1.9623">
        <ele>98.19</ele>
        <time>2015-08-17T15:23:11Z</time>
      </trkpt>
      <trkpt lat="47.24402" lon="1.96258">
        <ele>97.71</ele>
        <time>2015-08-17T15:23:21Z</time>
      </trkpt>
      <trkpt lat="47.24388" lon="1.96289">
        <ele>97.71</ele>
        <time>2015-08-17T15:23:33Z</time>
      </trkpt>
      <trkpt lat="47.24376" lon="1.9631">
        <ele>97.71</ele>
        <time>2015-08-17T15:23:41Z</time>
      </trkpt>
      <trkpt lat="47.24369" lon="1.96321">
        <ele>97.71</ele>
        <time>2015-08-17T15:23:46Z</time>
      </trkpt>
      <trkpt lat="47.24347" lon="1.9637">
        <ele>97.71</ele>
        <time>2015-08-17T15:24:03Z</time>
      </trkpt>
      <trkpt lat="47.2433" lon="1.96409">
        <ele>97.71</ele>
        <time>2015-08-17T15:24:14Z</time>
      </trkpt>
      <trkpt lat="47.24311" lon="1.96446">
        <ele>97.71</ele>
        <time>2015-08-17T15:24:28Z</time>
      </trkpt>
      <trkpt lat="47.24292" lon="1.96489">
        <ele>97.71</ele>
        <time>2015-08-17T15:24:41Z</time>
      </trkpt>
      <trkpt lat="47.24275" lon="1.96524">
        <ele>97.71</ele>
        <time>2015-08-17T15:24:52Z</time>
      </trkpt>
      <trkpt lat="47.24274" lon="1.96528">
        <ele>97.71</ele>
        <time>2015-08-17T15:24:53Z</time>
      </trkpt>
      <trkpt lat="47.24273" lon="1.96532">
        <ele>97.71</ele>
        <time>2015-08-17T15:24:54Z</time>
      </trkpt>
      <trkpt lat="47.24271" lon="1.96534">
        <ele>97.71</ele>
        <time>2015-08-17T15:24:55Z</time>
      </trkpt>
      <trkpt lat="47.24269" lon="1.96536">
        <ele>97.71</ele>
        <time>2015-08-17T15:24:56Z</time>
      </trkpt>
      <trkpt lat="47.24267" lon="1.96538">
        <ele>97.71</ele>
        <time>2015-08-17T15:24:57Z</time>
      </trkpt>
      <trkpt lat="47.24265" lon="1.9654">
        <ele>97.71</ele>
        <time>2015-08-17T15:24:58Z</time>
      </trkpt>
      <trkpt lat="47.24264" lon="1.96542">
        <ele>98.19</ele>
        <time>2015-08-17T15:24:59Z</time>
      </trkpt>
      <trkpt lat="47.24263" lon="1.96544">
        <ele>98.19</ele>
        <time>2015-08-17T15:25:00Z</time>
      </trkpt>
      <trkpt lat="47.24262" lon="1.96545">
        <ele>97.71</ele>
        <time>2015-08-17T15:25:01Z</time>
      </trkpt>
      <trkpt lat="47.24258" lon="1.9655">
        <ele>98.19</ele>
        <time>2015-08-17T15:25:04Z</time>
      </trkpt>
      <trkpt lat="47.24257" lon="1.96551">
        <ele>98.19</ele>
        <time>2015-08-17T15:25:05Z</time>
      </trkpt>
      <trkpt lat="47.24254" lon="1.96554">
        <ele>98.67</ele>
        <time>2015-08-17T15:25:14Z</time>
      </trkpt>
      <trkpt lat="47.24254" lon="1.96555">
        <ele>98.67</ele>
        <time>2015-08-17T15:25:38Z</time>
      </trkpt>
      <trkpt lat="47.24254" lon="1.96556">
        <ele>98.67</ele>
        <time>2015-08-17T15:26:11Z</time>
      </trkpt>
      <trkpt lat="47.24255" lon="1.96559">
        <ele>98.67</ele>
        <time>2015-08-17T15:26:44Z</time>
      </trkpt>
      <trkpt lat="47.24256" lon="1.96561">
        <ele>98.67</ele>
        <time>2015-08-17T15:27:05Z</time>
      </trkpt>
      <trkpt lat="47.24247" lon="1.96583">
        <ele>98.19</ele>
        <time>2015-08-17T15:27:17Z</time>
      </trkpt>
      <trkpt lat="47.24234" lon="1.96622">
        <ele>98.67</ele>
        <time>2015-08-17T15:27:29Z</time>
      </trkpt>
      <trkpt lat="47.24221" lon="1.96653">
        <ele>98.19</ele>
        <time>2015-08-17T15:27:40Z</time>
      </trkpt>
      <trkpt lat="47.2422" lon="1.96655">
        <ele>98.19</ele>
        <time>2015-08-17T15:27:41Z</time>
      </trkpt>
      <trkpt lat="47.24218" lon="1.96658">
        <ele>98.67</ele>
        <time>2015-08-17T15:27:42Z</time>
      </trkpt>
      <trkpt lat="47.24217" lon="1.96661">
        <ele>98.19</ele>
        <time>2015-08-17T15:27:43Z</time>
      </trkpt>
      <trkpt lat="47.24216" lon="1.96664">
        <ele>98.19</ele>
        <time>2015-08-17T15:27:44Z</time>
      </trkpt>
      <trkpt lat="47.24215" lon="1.96667">
        <ele>98.19</ele>
        <time>2015-08-17T15:27:45Z</time>
      </trkpt>
      <trkpt lat="47.24195" lon="1.96705">
        <ele>98.67</ele>
        <time>2015-08-17T15:27:58Z</time>
      </trkpt>
      <trkpt lat="47.24179" lon="1.96739">
        <ele>98.67</ele>
        <time>2015-08-17T15:28:10Z</time>
      </trkpt>
      <trkpt lat="47.24177" lon="1.96741">
        <ele>98.67</ele>
        <time>2015-08-17T15:28:11Z</time>
      </trkpt>
      <trkpt lat="47.24176" lon="1.96744">
        <ele>98.67</ele>
        <time>2015-08-17T15:28:12Z</time>
      </trkpt>
      <trkpt lat="47.2416" lon="1.96771">
        <ele>98.67</ele>
        <time>2015-08-17T15:28:21Z</time>
      </trkpt>
      <trkpt lat="47.24133" lon="1.96811">
        <ele>99.15</ele>
        <time>2015-08-17T15:28:36Z</time>
      </trkpt>
      <trkpt lat="47.24114" lon="1.96846">
        <ele>99.15</ele>
        <time>2015-08-17T15:28:48Z</time>
      </trkpt>
      <trkpt lat="47.24089" lon="1.96892">
        <ele>99.63</ele>
        <time>2015-08-17T15:29:03Z</time>
      </trkpt>
      <trkpt lat="47.24089" lon="1.96896">
        <ele>99.15</ele>
        <time>2015-08-17T15:29:04Z</time>
      </trkpt>
      <trkpt lat="47.24088" lon="1.969">
        <ele>99.63</ele>
        <time>2015-08-17T15:29:05Z</time>
      </trkpt>
      <trkpt lat="47.24068" lon="1.96936">
        <ele>99.15</ele>
        <time>2015-08-17T15:29:18Z</time>
      </trkpt>
      <trkpt lat="47.2404" lon="1.96972">
        <ele>99.63</ele>
        <time>2015-08-17T15:29:32Z</time>
      </trkpt>
      <trkpt lat="47.24024" lon="1.96987">
        <ele>99.63</ele>
        <time>2015-08-17T15:29:39Z</time>
      </trkpt>
      <trkpt lat="47.24013" lon="1.97018">
        <ele>100.11</ele>
        <time>2015-08-17T15:29:49Z</time>
      </trkpt>
      <trkpt lat="47.24012" lon="1.97021">
        <ele>100.11</ele>
        <time>2015-08-17T15:29:50Z</time>
      </trkpt>
      <trkpt lat="47.24011" lon="1.97024">
        <ele>100.11</ele>
        <time>2015-08-17T15:29:51Z</time>
      </trkpt>
      <trkpt lat="47.24008" lon="1.97029">
        <ele>99.63</ele>
        <time>2015-08-17T15:29:53Z</time>
      </trkpt>
      <trkpt lat="47.24007" lon="1.97032">
        <ele>100.11</ele>
        <time>2015-08-17T15:29:54Z</time>
      </trkpt>
      <trkpt lat="47.24006" lon="1.97035">
        <ele>100.11</ele>
        <time>2015-08-17T15:29:55Z</time>
      </trkpt>
      <trkpt lat="47.24005" lon="1.97038">
        <ele>99.63</ele>
        <time>2015-08-17T15:29:56Z</time>
      </trkpt>
      <trkpt lat="47.24004" lon="1.97041">
        <ele>100.11</ele>
        <time>2015-08-17T15:29:57Z</time>
      </trkpt>
      <trkpt lat="47.24003" lon="1.97043">
        <ele>100.11</ele>
        <time>2015-08-17T15:29:58Z</time>
      </trkpt>
      <trkpt lat="47.24001" lon="1.97044">
        <ele>100.11</ele>
        <time>2015-08-17T15:29:59Z</time>
      </trkpt>
      <trkpt lat="47.23999" lon="1.97047">
        <ele>100.11</ele>
        <time>2015-08-17T15:30:00Z</time>
      </trkpt>
      <trkpt lat="47.23998" lon="1.97049">
        <ele>100.11</ele>
        <time>2015-08-17T15:30:01Z</time>
      </trkpt>
      <trkpt lat="47.23997" lon="1.97052">
        <ele>100.11</ele>
        <time>2015-08-17T15:30:02Z</time>
      </trkpt>
      <trkpt lat="47.23984" lon="1.97084">
        <ele>100.11</ele>
        <time>2015-08-17T15:30:12Z</time>
      </trkpt>
      <trkpt lat="47.23982" lon="1.97087">
        <ele>100.11</ele>
        <time>2015-08-17T15:30:13Z</time>
      </trkpt>
      <trkpt lat="47.23982" lon="1.97092">
        <ele>100.11</ele>
        <time>2015-08-17T15:30:14Z</time>
      </trkpt>
      <trkpt lat="47.23982" lon="1.97096">
        <ele>100.11</ele>
        <time>2015-08-17T15:30:15Z</time>
      </trkpt>
      <trkpt lat="47.23981" lon="1.97101">
        <ele>100.11</ele>
        <time>2015-08-17T15:30:16Z</time>
      </trkpt>
      <trkpt lat="47.23981" lon="1.97105">
        <ele>100.11</ele>
        <time>2015-08-17T15:30:17Z</time>
      </trkpt>
      <trkpt lat="47.2398" lon="1.97108">
        <ele>100.11</ele>
        <time>2015-08-17T15:30:18Z</time>
      </trkpt>
      <trkpt lat="47.23979" lon="1.97112">
        <ele>100.11</ele>
        <time>2015-08-17T15:30:19Z</time>
      </trkpt>
      <trkpt lat="47.23979" lon="1.97116">
        <ele>100.11</ele>
        <time>2015-08-17T15:30:20Z</time>
      </trkpt>
      <trkpt lat="47.23978" lon="1.9712">
        <ele>100.11</ele>
        <time>2015-08-17T15:30:21Z</time>
      </trkpt>
      <trkpt lat="47.23973" lon="1.97137">
        <ele>99.63</ele>
        <time>2015-08-17T15:30:26Z</time>
      </trkpt>
      <trkpt lat="47.23957" lon="1.97182">
        <ele>100.11</ele>
        <time>2015-08-17T15:30:38Z</time>
      </trkpt>
      <trkpt lat="47.23956" lon="1.97185">
        <ele>100.11</ele>
        <time>2015-08-17T15:30:39Z</time>
      </trkpt>
      <trkpt lat="47.23954" lon="1.97189">
        <ele>100.11</ele>
        <time>2015-08-17T15:30:40Z</time>
      </trkpt>
      <trkpt lat="47.23948" lon="1.97215">
        <ele>100.11</ele>
        <time>2015-08-17T15:30:47Z</time>
      </trkpt>
      <trkpt lat="47.23948" lon="1.97219">
        <ele>100.11</ele>
        <time>2015-08-17T15:30:48Z</time>
      </trkpt>
      <trkpt lat="47.23944" lon="1.97228">
        <ele>100.11</ele>
        <time>2015-08-17T15:30:51Z</time>
      </trkpt>
      <trkpt lat="47.23942" lon="1.97231">
        <ele>100.11</ele>
        <time>2015-08-17T15:30:52Z</time>
      </trkpt>
      <trkpt lat="47.23941" lon="1.97234">
        <ele>100.11</ele>
        <time>2015-08-17T15:30:53Z</time>
      </trkpt>
      <trkpt lat="47.2394" lon="1.97237">
        <ele>100.11</ele>
        <time>2015-08-17T15:30:54Z</time>
      </trkpt>
      <trkpt lat="47.23939" lon="1.9724">
        <ele>100.11</ele>
        <time>2015-08-17T15:30:55Z</time>
      </trkpt>
      <trkpt lat="47.23937" lon="1.97242">
        <ele>100.6</ele>
        <time>2015-08-17T15:30:56Z</time>
      </trkpt>
      <trkpt lat="47.23936" lon="1.97244">
        <ele>100.11</ele>
        <time>2015-08-17T15:30:57Z</time>
      </trkpt>
      <trkpt lat="47.23923" lon="1.97262">
        <ele>100.6</ele>
        <time>2015-08-17T15:31:05Z</time>
      </trkpt>
      <trkpt lat="47.2391" lon="1.97297">
        <ele>100.6</ele>
        <time>2015-08-17T15:31:16Z</time>
      </trkpt>
      <trkpt lat="47.23896" lon="1.97335">
        <ele>100.6</ele>
        <time>2015-08-17T15:31:28Z</time>
      </trkpt>
      <trkpt lat="47.23895" lon="1.97338">
        <ele>100.6</ele>
        <time>2015-08-17T15:31:29Z</time>
      </trkpt>
      <trkpt lat="47.23895" lon="1.9734">
        <ele>100.6</ele>
        <time>2015-08-17T15:31:30Z</time>
      </trkpt>
      <trkpt lat="47.23885" lon="1.97372">
        <ele>100.6</ele>
        <time>2015-08-17T15:31:40Z</time>
      </trkpt>
      <trkpt lat="47.23872" lon="1.97412">
        <ele>100.6</ele>
        <time>2015-08-17T15:31:51Z</time>
      </trkpt>
      <trkpt lat="47.23857" lon="1.97459">
        <ele>100.6</ele>
        <time>2015-08-17T15:32:04Z</time>
      </trkpt>
      <trkpt lat="47.23843" lon="1.97503">
        <ele>100.6</ele>
        <time>2015-08-17T15:32:19Z</time>
      </trkpt>
      <trkpt lat="47.23842" lon="1.97506">
        <ele>100.6</ele>
        <time>2015-08-17T15:32:20Z</time>
      </trkpt>
      <trkpt lat="47.2384" lon="1.97508">
        <ele>100.6</ele>
        <time>2015-08-17T15:32:21Z</time>
      </trkpt>
      <trkpt lat="47.2383" lon="1.97536">
        <ele>100.6</ele>
        <time>2015-08-17T15:32:32Z</time>
      </trkpt>
      <trkpt lat="47.23818" lon="1.97582">
        <ele>100.6</ele>
        <time>2015-08-17T15:32:45Z</time>
      </trkpt>
      <trkpt lat="47.23806" lon="1.97626">
        <ele>100.6</ele>
        <time>2015-08-17T15:32:57Z</time>
      </trkpt>
      <trkpt lat="47.23802" lon="1.97637">
        <ele>100.6</ele>
        <time>2015-08-17T15:33:00Z</time>
      </trkpt>
      <trkpt lat="47.23791" lon="1.9767">
        <ele>100.6</ele>
        <time>2015-08-17T15:33:10Z</time>
      </trkpt>
      <trkpt lat="47.23772" lon="1.97717">
        <ele>100.6</ele>
        <time>2015-08-17T15:33:24Z</time>
      </trkpt>
      <trkpt lat="47.23771" lon="1.9772">
        <ele>100.6</ele>
        <time>2015-08-17T15:33:25Z</time>
      </trkpt>
      <trkpt lat="47.23755" lon="1.97763">
        <ele>100.6</ele>
        <time>2015-08-17T15:33:37Z</time>
      </trkpt>
      <trkpt lat="47.23741" lon="1.9781">
        <ele>100.6</ele>
        <time>2015-08-17T15:33:49Z</time>
      </trkpt>
      <trkpt lat="47.2374" lon="1.97815">
        <ele>100.6</ele>
        <time>2015-08-17T15:33:50Z</time>
      </trkpt>
      <trkpt lat="47.23739" lon="1.97819">
        <ele>100.6</ele>
        <time>2015-08-17T15:33:51Z</time>
      </trkpt>
      <trkpt lat="47.23738" lon="1.97824">
        <ele>100.6</ele>
        <time>2015-08-17T15:33:52Z</time>
      </trkpt>
      <trkpt lat="47.23738" lon="1.97828">
        <ele>100.6</ele>
        <time>2015-08-17T15:33:53Z</time>
      </trkpt>
      <trkpt lat="47.23738" lon="1.97833">
        <ele>100.6</ele>
        <time>2015-08-17T15:33:54Z</time>
      </trkpt>
      <trkpt lat="47.23738" lon="1.97837">
        <ele>100.6</ele>
        <time>2015-08-17T15:33:55Z</time>
      </trkpt>
      <trkpt lat="47.23735" lon="1.97851">
        <ele>100.6</ele>
        <time>2015-08-17T15:33:59Z</time>
      </trkpt>
      <trkpt lat="47.23735" lon="1.97855">
        <ele>100.6</ele>
        <time>2015-08-17T15:34:00Z</time>
      </trkpt>
      <trkpt lat="47.23735" lon="1.97859">
        <ele>100.6</ele>
        <time>2015-08-17T15:34:01Z</time>
      </trkpt>
      <trkpt lat="47.23734" lon="1.97863">
        <ele>100.6</ele>
        <time>2015-08-17T15:34:02Z</time>
      </trkpt>
      <trkpt lat="47.23733" lon="1.97867">
        <ele>100.6</ele>
        <time>2015-08-17T15:34:03Z</time>
      </trkpt>
      <trkpt lat="47.23732" lon="1.9787">
        <ele>100.6</ele>
        <time>2015-08-17T15:34:04Z</time>
      </trkpt>
      <trkpt lat="47.23731" lon="1.97873">
        <ele>101.08</ele>
        <time>2015-08-17T15:34:05Z</time>
      </trkpt>
      <trkpt lat="47.2373" lon="1.97875">
        <ele>100.6</ele>
        <time>2015-08-17T15:34:06Z</time>
      </trkpt>
      <trkpt lat="47.23729" lon="1.97879">
        <ele>100.6</ele>
        <time>2015-08-17T15:34:07Z</time>
      </trkpt>
      <trkpt lat="47.23729" lon="1.97882">
        <ele>100.6</ele>
        <time>2015-08-17T15:34:08Z</time>
      </trkpt>
      <trkpt lat="47.23728" lon="1.97885">
        <ele>100.6</ele>
        <time>2015-08-17T15:34:09Z</time>
      </trkpt>
      <trkpt lat="47.23728" lon="1.97887">
        <ele>100.6</ele>
        <time>2015-08-17T15:34:10Z</time>
      </trkpt>
      <trkpt lat="47.23727" lon="1.9789">
        <ele>101.08</ele>
        <time>2015-08-17T15:34:11Z</time>
      </trkpt>
      <trkpt lat="47.23726" lon="1.97894">
        <ele>101.08</ele>
        <time>2015-08-17T15:34:12Z</time>
      </trkpt>
      <trkpt lat="47.23725" lon="1.97897">
        <ele>101.08</ele>
        <time>2015-08-17T15:34:13Z</time>
      </trkpt>
      <trkpt lat="47.23723" lon="1.97901">
        <ele>101.08</ele>
        <time>2015-08-17T15:34:14Z</time>
      </trkpt>
      <trkpt lat="47.23722" lon="1.97904">
        <ele>101.08</ele>
        <time>2015-08-17T15:34:15Z</time>
      </trkpt>
      <trkpt lat="47.2372" lon="1.97907">
        <ele>101.08</ele>
        <time>2015-08-17T15:34:16Z</time>
      </trkpt>
      <trkpt lat="47.23719" lon="1.97911">
        <ele>101.56</ele>
        <time>2015-08-17T15:34:17Z</time>
      </trkpt>
      <trkpt lat="47.23708" lon="1.97953">
        <ele>102.04</ele>
        <time>2015-08-17T15:34:28Z</time>
      </trkpt>
      <trkpt lat="47.23707" lon="1.97956">
        <ele>101.56</ele>
        <time>2015-08-17T15:34:29Z</time>
      </trkpt>
      <trkpt lat="47.23706" lon="1.9796">
        <ele>102.04</ele>
        <time>2015-08-17T15:34:30Z</time>
      </trkpt>
      <trkpt lat="47.23704" lon="1.97963">
        <ele>101.56</ele>
        <time>2015-08-17T15:34:31Z</time>
      </trkpt>
      <trkpt lat="47.23703" lon="1.97966">
        <ele>101.56</ele>
        <time>2015-08-17T15:34:32Z</time>
      </trkpt>
      <trkpt lat="47.23702" lon="1.97969">
        <ele>102.04</ele>
        <time>2015-08-17T15:34:33Z</time>
      </trkpt>
      <trkpt lat="47.237" lon="1.97972">
        <ele>102.04</ele>
        <time>2015-08-17T15:34:34Z</time>
      </trkpt>
      <trkpt lat="47.23699" lon="1.97975">
        <ele>102.04</ele>
        <time>2015-08-17T15:34:35Z</time>
      </trkpt>
      <trkpt lat="47.23699" lon="1.97979">
        <ele>101.56</ele>
        <time>2015-08-17T15:34:36Z</time>
      </trkpt>
      <trkpt lat="47.23699" lon="1.97983">
        <ele>101.56</ele>
        <time>2015-08-17T15:34:37Z</time>
      </trkpt>
      <trkpt lat="47.23698" lon="1.97987">
        <ele>101.56</ele>
        <time>2015-08-17T15:34:38Z</time>
      </trkpt>
      <trkpt lat="47.23698" lon="1.97991">
        <ele>101.56</ele>
        <time>2015-08-17T15:34:39Z</time>
      </trkpt>
      <trkpt lat="47.23698" lon="1.97995">
        <ele>101.56</ele>
        <time>2015-08-17T15:34:40Z</time>
      </trkpt>
      <trkpt lat="47.23698" lon="1.98">
        <ele>101.56</ele>
        <time>2015-08-17T15:34:41Z</time>
      </trkpt>
      <trkpt lat="47.23697" lon="1.98004">
        <ele>101.56</ele>
        <time>2015-08-17T15:34:42Z</time>
      </trkpt>
      <trkpt lat="47.23696" lon="1.98005">
        <ele>101.56</ele>
        <time>2015-08-17T15:34:43Z</time>
      </trkpt>
      <trkpt lat="47.23691" lon="1.98039">
        <ele>101.56</ele>
        <time>2015-08-17T15:34:54Z</time>
      </trkpt>
      <trkpt lat="47.2369" lon="1.98042">
        <ele>101.56</ele>
        <time>2015-08-17T15:34:55Z</time>
      </trkpt>
      <trkpt lat="47.23685" lon="1.98058">
        <ele>101.56</ele>
        <time>2015-08-17T15:35:01Z</time>
      </trkpt>
      <trkpt lat="47.23684" lon="1.9806">
        <ele>101.56</ele>
        <time>2015-08-17T15:35:02Z</time>
      </trkpt>
      <trkpt lat="47.23683" lon="1.98062">
        <ele>102.04</ele>
        <time>2015-08-17T15:35:03Z</time>
      </trkpt>
      <trkpt lat="47.23682" lon="1.98064">
        <ele>101.56</ele>
        <time>2015-08-17T15:35:04Z</time>
      </trkpt>
      <trkpt lat="47.23682" lon="1.98067">
        <ele>101.56</ele>
        <time>2015-08-17T15:35:05Z</time>
      </trkpt>
      <trkpt lat="47.23683" lon="1.98069">
        <ele>101.56</ele>
        <time>2015-08-17T15:35:06Z</time>
      </trkpt>
      <trkpt lat="47.23686" lon="1.98071">
        <ele>102.52</ele>
        <time>2015-08-17T15:35:12Z</time>
      </trkpt>
      <trkpt lat="47.23686" lon="1.98073">
        <ele>102.04</ele>
        <time>2015-08-17T15:35:25Z</time>
      </trkpt>
      <trkpt lat="47.23686" lon="1.98072">
        <ele>102.04</ele>
        <time>2015-08-17T15:35:58Z</time>
      </trkpt>
      <trkpt lat="47.23686" lon="1.98073">
        <ele>102.04</ele>
        <time>2015-08-17T15:36:29Z</time>
      </trkpt>
      <trkpt lat="47.23682" lon="1.9807">
        <ele>102.04</ele>
        <time>2015-08-17T15:36:42Z</time>
      </trkpt>
      <trkpt lat="47.23676" lon="1.98066">
        <ele>102.04</ele>
        <time>2015-08-17T15:36:54Z</time>
      </trkpt>
      <trkpt lat="47.23676" lon="1.98066">
        <ele>101.56</ele>
        <time>2015-08-17T15:37:11Z</time>
      </trkpt>
      <trkpt lat="47.23676" lon="1.98066">
        <ele>101.08</ele>
        <time>2015-08-17T15:37:39Z</time>
      </trkpt>
      <trkpt lat="47.23675" lon="1.98066">
        <ele>102.52</ele>
        <time>2015-08-17T15:37:41Z</time>
      </trkpt>
      <trkpt lat="47.23675" lon="1.98066">
        <ele>101.56</ele>
        <time>2015-08-17T15:37:45Z</time>
      </trkpt>
      <trkpt lat="47.23675" lon="1.98065">
        <ele>101.56</ele>
        <time>2015-08-17T15:38:06Z</time>
      </trkpt>
      <trkpt lat="47.23675" lon="1.98065">
        <ele>101.56</ele>
        <time>2015-08-17T15:38:25Z</time>
      </trkpt>
      <trkpt lat="47.23677" lon="1.98066">
        <ele>101.56</ele>
        <time>2015-08-17T15:38:48Z</time>
      </trkpt>
      <trkpt lat="47.23678" lon="1.98067">
        <ele>101.56</ele>
        <time>2015-08-17T15:39:06Z</time>
      </trkpt>
      <trkpt lat="47.23679" lon="1.98066">
        <ele>101.56</ele>
        <time>2015-08-17T15:39:37Z</time>
      </trkpt>
      <trkpt lat="47.23678" lon="1.98065">
        <ele>101.56</ele>
        <time>2015-08-17T15:40:04Z</time>
      </trkpt>
      <trkpt lat="47.23678" lon="1.98066">
        <ele>101.56</ele>
        <time>2015-08-17T15:40:37Z</time>
      </trkpt>
      <trkpt lat="47.23678" lon="1.98067">
        <ele>101.56</ele>
        <time>2015-08-17T15:41:02Z</time>
      </trkpt>
      <trkpt lat="47.23678" lon="1.98068">
        <ele>101.56</ele>
        <time>2015-08-17T15:41:23Z</time>
      </trkpt>
      <trkpt lat="47.23679" lon="1.98068">
        <ele>101.56</ele>
        <time>2015-08-17T15:41:41Z</time>
      </trkpt>
      <trkpt lat="47.23677" lon="1.98099">
        <ele>101.08</ele>
        <time>2015-08-17T15:41:55Z</time>
      </trkpt>
      <trkpt lat="47.23667" lon="1.98157">
        <ele>101.08</ele>
        <time>2015-08-17T15:42:09Z</time>
      </trkpt>
      <trkpt lat="47.23666" lon="1.98161">
        <ele>101.08</ele>
        <time>2015-08-17T15:42:10Z</time>
      </trkpt>
      <trkpt lat="47.23666" lon="1.98164">
        <ele>100.6</ele>
        <time>2015-08-17T15:42:11Z</time>
      </trkpt>
      <trkpt lat="47.23665" lon="1.98167">
        <ele>100.6</ele>
        <time>2015-08-17T15:42:12Z</time>
      </trkpt>
      <trkpt lat="47.23666" lon="1.98176">
        <ele>100.6</ele>
        <time>2015-08-17T15:42:13Z</time>
      </trkpt>
      <trkpt lat="47.23665" lon="1.9818">
        <ele>100.6</ele>
        <time>2015-08-17T15:42:14Z</time>
      </trkpt>
      <trkpt lat="47.23659" lon="1.98232">
        <ele>100.11</ele>
        <time>2015-08-17T15:42:26Z</time>
      </trkpt>
      <trkpt lat="47.23647" lon="1.983">
        <ele>100.11</ele>
        <time>2015-08-17T15:42:39Z</time>
      </trkpt>
      <trkpt lat="47.23646" lon="1.98306">
        <ele>100.11</ele>
        <time>2015-08-17T15:42:40Z</time>
      </trkpt>
      <trkpt lat="47.23639" lon="1.98363">
        <ele>100.11</ele>
        <time>2015-08-17T15:42:51Z</time>
      </trkpt>
      <trkpt lat="47.23625" lon="1.98414">
        <ele>99.63</ele>
        <time>2015-08-17T15:43:04Z</time>
      </trkpt>
      <trkpt lat="47.23615" lon="1.98473">
        <ele>99.63</ele>
        <time>2015-08-17T15:43:17Z</time>
      </trkpt>
      <trkpt lat="47.23605" lon="1.98513">
        <ele>99.15</ele>
        <time>2015-08-17T15:43:29Z</time>
      </trkpt>
      <trkpt lat="47.23598" lon="1.98557">
        <ele>99.15</ele>
        <time>2015-08-17T15:43:39Z</time>
      </trkpt>
      <trkpt lat="47.23585" lon="1.98606">
        <ele>99.15</ele>
        <time>2015-08-17T15:43:52Z</time>
      </trkpt>
      <trkpt lat="47.23577" lon="1.9865">
        <ele>99.15</ele>
        <time>2015-08-17T15:44:03Z</time>
      </trkpt>
      <trkpt lat="47.23567" lon="1.98712">
        <ele>98.67</ele>
        <time>2015-08-17T15:44:17Z</time>
      </trkpt>
      <trkpt lat="47.23557" lon="1.98767">
        <ele>98.67</ele>
        <time>2015-08-17T15:44:29Z</time>
      </trkpt>
      <trkpt lat="47.23557" lon="1.98772">
        <ele>98.67</ele>
        <time>2015-08-17T15:44:30Z</time>
      </trkpt>
      <trkpt lat="47.23557" lon="1.98779">
        <ele>98.67</ele>
        <time>2015-08-17T15:44:31Z</time>
      </trkpt>
      <trkpt lat="47.23557" lon="1.98785">
        <ele>98.67</ele>
        <time>2015-08-17T15:44:32Z</time>
      </trkpt>
      <trkpt lat="47.23557" lon="1.98791">
        <ele>99.15</ele>
        <time>2015-08-17T15:44:33Z</time>
      </trkpt>
      <trkpt lat="47.23557" lon="1.98796">
        <ele>98.67</ele>
        <time>2015-08-17T15:44:34Z</time>
      </trkpt>
      <trkpt lat="47.23554" lon="1.98802">
        <ele>98.67</ele>
        <time>2015-08-17T15:44:36Z</time>
      </trkpt>
      <trkpt lat="47.23542" lon="1.98866">
        <ele>98.67</ele>
        <time>2015-08-17T15:44:48Z</time>
      </trkpt>
      <trkpt lat="47.2354" lon="1.98872">
        <ele>98.67</ele>
        <time>2015-08-17T15:44:49Z</time>
      </trkpt>
      <trkpt lat="47.23539" lon="1.98878">
        <ele>98.67</ele>
        <time>2015-08-17T15:44:50Z</time>
      </trkpt>
      <trkpt lat="47.23538" lon="1.98884">
        <ele>98.67</ele>
        <time>2015-08-17T15:44:51Z</time>
      </trkpt>
      <trkpt lat="47.23537" lon="1.98891">
        <ele>98.67</ele>
        <time>2015-08-17T15:44:52Z</time>
      </trkpt>
      <trkpt lat="47.23526" lon="1.98948">
        <ele>98.67</ele>
        <time>2015-08-17T15:45:02Z</time>
      </trkpt>
      <trkpt lat="47.23515" lon="1.99006">
        <ele>98.67</ele>
        <time>2015-08-17T15:45:12Z</time>
      </trkpt>
      <trkpt lat="47.23502" lon="1.99083">
        <ele>98.67</ele>
        <time>2015-08-17T15:45:25Z</time>
      </trkpt>
      <trkpt lat="47.23494" lon="1.9913">
        <ele>98.19</ele>
        <time>2015-08-17T15:45:33Z</time>
      </trkpt>
      <trkpt lat="47.23484" lon="1.99206">
        <ele>98.19</ele>
        <time>2015-08-17T15:45:45Z</time>
      </trkpt>
      <trkpt lat="47.23469" lon="1.99264">
        <ele>98.19</ele>
        <time>2015-08-17T15:45:56Z</time>
      </trkpt>
      <trkpt lat="47.23455" lon="1.99314">
        <ele>99.15</ele>
        <time>2015-08-17T15:46:07Z</time>
      </trkpt>
      <trkpt lat="47.23453" lon="1.99337">
        <ele>98.67</ele>
        <time>2015-08-17T15:46:13Z</time>
      </trkpt>
      <trkpt lat="47.23452" lon="1.99343">
        <ele>98.19</ele>
        <time>2015-08-17T15:46:14Z</time>
      </trkpt>
      <trkpt lat="47.23452" lon="1.99349">
        <ele>98.19</ele>
        <time>2015-08-17T15:46:15Z</time>
      </trkpt>
      <trkpt lat="47.23452" lon="1.99358">
        <ele>98.19</ele>
        <time>2015-08-17T15:46:16Z</time>
      </trkpt>
      <trkpt lat="47.23451" lon="1.99366">
        <ele>98.19</ele>
        <time>2015-08-17T15:46:17Z</time>
      </trkpt>
      <trkpt lat="47.23451" lon="1.99374">
        <ele>98.19</ele>
        <time>2015-08-17T15:46:18Z</time>
      </trkpt>
      <trkpt lat="47.23448" lon="1.99386">
        <ele>98.19</ele>
        <time>2015-08-17T15:46:20Z</time>
      </trkpt>
      <trkpt lat="47.23447" lon="1.99392">
        <ele>98.19</ele>
        <time>2015-08-17T15:46:21Z</time>
      </trkpt>
      <trkpt lat="47.23445" lon="1.99398">
        <ele>98.19</ele>
        <time>2015-08-17T15:46:22Z</time>
      </trkpt>
      <trkpt lat="47.23444" lon="1.99404">
        <ele>98.19</ele>
        <time>2015-08-17T15:46:23Z</time>
      </trkpt>
      <trkpt lat="47.23442" lon="1.99409">
        <ele>98.19</ele>
        <time>2015-08-17T15:46:24Z</time>
      </trkpt>
      <trkpt lat="47.23442" lon="1.99416">
        <ele>98.19</ele>
        <time>2015-08-17T15:46:25Z</time>
      </trkpt>
      <trkpt lat="47.23432" lon="1.99465">
        <ele>98.19</ele>
        <time>2015-08-17T15:46:34Z</time>
      </trkpt>
      <trkpt lat="47.23418" lon="1.99525">
        <ele>98.19</ele>
        <time>2015-08-17T15:46:47Z</time>
      </trkpt>
      <trkpt lat="47.23407" lon="1.9958">
        <ele>98.19</ele>
        <time>2015-08-17T15:46:59Z</time>
      </trkpt>
      <trkpt lat="47.23397" lon="1.9963">
        <ele>97.71</ele>
        <time>2015-08-17T15:47:12Z</time>
      </trkpt>
      <trkpt lat="47.23397" lon="1.99633">
        <ele>97.71</ele>
        <time>2015-08-17T15:47:13Z</time>
      </trkpt>
      <trkpt lat="47.23396" lon="1.99635">
        <ele>98.19</ele>
        <time>2015-08-17T15:47:14Z</time>
      </trkpt>
      <trkpt lat="47.23396" lon="1.99638">
        <ele>98.19</ele>
        <time>2015-08-17T15:47:15Z</time>
      </trkpt>
      <trkpt lat="47.23396" lon="1.99641">
        <ele>98.19</ele>
        <time>2015-08-17T15:47:16Z</time>
      </trkpt>
      <trkpt lat="47.23389" lon="1.99682">
        <ele>98.19</ele>
        <time>2015-08-17T15:47:28Z</time>
      </trkpt>
      <trkpt lat="47.23379" lon="1.99728">
        <ele>98.19</ele>
        <time>2015-08-17T15:47:40Z</time>
      </trkpt>
      <trkpt lat="47.23374" lon="1.99773">
        <ele>98.19</ele>
        <time>2015-08-17T15:47:51Z</time>
      </trkpt>
      <trkpt lat="47.23367" lon="1.99821">
        <ele>98.19</ele>
        <time>2015-08-17T15:48:04Z</time>
      </trkpt>
      <trkpt lat="47.23367" lon="1.99826">
        <ele>98.19</ele>
        <time>2015-08-17T15:48:05Z</time>
      </trkpt>
      <trkpt lat="47.23367" lon="1.9983">
        <ele>98.19</ele>
        <time>2015-08-17T15:48:06Z</time>
      </trkpt>
      <trkpt lat="47.23366" lon="1.99834">
        <ele>98.19</ele>
        <time>2015-08-17T15:48:07Z</time>
      </trkpt>
      <trkpt lat="47.23365" lon="1.99838">
        <ele>98.19</ele>
        <time>2015-08-17T15:48:08Z</time>
      </trkpt>
      <trkpt lat="47.23365" lon="1.99842">
        <ele>98.19</ele>
        <time>2015-08-17T15:48:09Z</time>
      </trkpt>
      <trkpt lat="47.23364" lon="1.99845">
        <ele>98.19</ele>
        <time>2015-08-17T15:48:10Z</time>
      </trkpt>
      <trkpt lat="47.23362" lon="1.9985">
        <ele>98.19</ele>
        <time>2015-08-17T15:48:12Z</time>
      </trkpt>
      <trkpt lat="47.23353" lon="1.99889">
        <ele>98.19</ele>
        <time>2015-08-17T15:48:23Z</time>
      </trkpt>
      <trkpt lat="47.23353" lon="1.99892">
        <ele>98.19</ele>
        <time>2015-08-17T15:48:24Z</time>
      </trkpt>
      <trkpt lat="47.23352" lon="1.99893">
        <ele>98.19</ele>
        <time>2015-08-17T15:48:25Z</time>
      </trkpt>
      <trkpt lat="47.23352" lon="1.99895">
        <ele>98.19</ele>
        <time>2015-08-17T15:48:26Z</time>
      </trkpt>
      <trkpt lat="47.23351" lon="1.99896">
        <ele>98.19</ele>
        <time>2015-08-17T15:48:27Z</time>
      </trkpt>
      <trkpt lat="47.2335" lon="1.99898">
        <ele>98.19</ele>
        <time>2015-08-17T15:48:28Z</time>
      </trkpt>
      <trkpt lat="47.2335" lon="1.99901">
        <ele>98.19</ele>
        <time>2015-08-17T15:48:40Z</time>
      </trkpt>
      <trkpt lat="47.23348" lon="1.99908">
        <ele>98.19</ele>
        <time>2015-08-17T15:49:08Z</time>
      </trkpt>
      <trkpt lat="47.23348" lon="1.99909">
        <ele>98.19</ele>
        <time>2015-08-17T15:49:44Z</time>
      </trkpt>
      <trkpt lat="47.23346" lon="1.99909">
        <ele>98.19</ele>
        <time>2015-08-17T15:50:17Z</time>
      </trkpt>
      <trkpt lat="47.23347" lon="1.99912">
        <ele>98.67</ele>
        <time>2015-08-17T15:50:32Z</time>
      </trkpt>
      <trkpt lat="47.2333" lon="1.99996">
        <ele>98.67</ele>
        <time>2015-08-17T15:50:47Z</time>
      </trkpt>
      <trkpt lat="47.23329" lon="2.00003">
        <ele>98.67</ele>
        <time>2015-08-17T15:50:48Z</time>
      </trkpt>
      <trkpt lat="47.23328" lon="2.00015">
        <ele>98.19</ele>
        <time>2015-08-17T15:50:50Z</time>
      </trkpt>
      <trkpt lat="47.23319" lon="2.00069">
        <ele>98.67</ele>
        <time>2015-08-17T15:50:59Z</time>
      </trkpt>
      <trkpt lat="47.23318" lon="2.00075">
        <ele>98.67</ele>
        <time>2015-08-17T15:51:00Z</time>
      </trkpt>
      <trkpt lat="47.23309" lon="2.00118">
        <ele>98.67</ele>
        <time>2015-08-17T15:51:07Z</time>
      </trkpt>
      <trkpt lat="47.23307" lon="2.0013">
        <ele>99.15</ele>
        <time>2015-08-17T15:51:09Z</time>
      </trkpt>
      <trkpt lat="47.23306" lon="2.00136">
        <ele>98.67</ele>
        <time>2015-08-17T15:51:10Z</time>
      </trkpt>
      <trkpt lat="47.23295" lon="2.00198">
        <ele>99.15</ele>
        <time>2015-08-17T15:51:21Z</time>
      </trkpt>
      <trkpt lat="47.2328" lon="2.00283">
        <ele>99.15</ele>
        <time>2015-08-17T15:51:35Z</time>
      </trkpt>
      <trkpt lat="47.23265" lon="2.00362">
        <ele>99.15</ele>
        <time>2015-08-17T15:51:50Z</time>
      </trkpt>
      <trkpt lat="47.23252" lon="2.00439">
        <ele>100.11</ele>
        <time>2015-08-17T15:52:03Z</time>
      </trkpt>
      <trkpt lat="47.23246" lon="2.00463">
        <ele>100.11</ele>
        <time>2015-08-17T15:52:12Z</time>
      </trkpt>
      <trkpt lat="47.2323" lon="2.00546">
        <ele>100.11</ele>
        <time>2015-08-17T15:52:27Z</time>
      </trkpt>
      <trkpt lat="47.23214" lon="2.00634">
        <ele>100.11</ele>
        <time>2015-08-17T15:52:42Z</time>
      </trkpt>
      <trkpt lat="47.23199" lon="2.00719">
        <ele>100.11</ele>
        <time>2015-08-17T15:52:56Z</time>
      </trkpt>
      <trkpt lat="47.23185" lon="2.00805">
        <ele>100.6</ele>
        <time>2015-08-17T15:53:11Z</time>
      </trkpt>
      <trkpt lat="47.23167" lon="2.00888">
        <ele>100.6</ele>
        <time>2015-08-17T15:53:26Z</time>
      </trkpt>
      <trkpt lat="47.23166" lon="2.00894">
        <ele>100.6</ele>
        <time>2015-08-17T15:53:27Z</time>
      </trkpt>
      <trkpt lat="47.23153" lon="2.00975">
        <ele>100.11</ele>
        <time>2015-08-17T15:53:40Z</time>
      </trkpt>
      <trkpt lat="47.2315" lon="2.00987">
        <ele>100.11</ele>
        <time>2015-08-17T15:53:42Z</time>
      </trkpt>
      <trkpt lat="47.23132" lon="2.01081">
        <ele>100.6</ele>
        <time>2015-08-17T15:53:59Z</time>
      </trkpt>
      <trkpt lat="47.23111" lon="2.01195">
        <ele>100.6</ele>
        <time>2015-08-17T15:54:19Z</time>
      </trkpt>
      <trkpt lat="47.23093" lon="2.01296">
        <ele>100.6</ele>
        <time>2015-08-17T15:54:38Z</time>
      </trkpt>
      <trkpt lat="47.23076" lon="2.01388">
        <ele>100.6</ele>
        <time>2015-08-17T15:54:57Z</time>
      </trkpt>
      <trkpt lat="47.23062" lon="2.01467">
        <ele>100.6</ele>
        <time>2015-08-17T15:55:13Z</time>
      </trkpt>
      <trkpt lat="47.23054" lon="2.01525">
        <ele>101.08</ele>
        <time>2015-08-17T15:55:26Z</time>
      </trkpt>
      <trkpt lat="47.23041" lon="2.01577">
        <ele>102.04</ele>
        <time>2015-08-17T15:55:39Z</time>
      </trkpt>
      <trkpt lat="47.2304" lon="2.0158">
        <ele>102.04</ele>
        <time>2015-08-17T15:55:40Z</time>
      </trkpt>
      <trkpt lat="47.23039" lon="2.01583">
        <ele>102.04</ele>
        <time>2015-08-17T15:55:41Z</time>
      </trkpt>
      <trkpt lat="47.23034" lon="2.01586">
        <ele>102.52</ele>
        <time>2015-08-17T15:55:45Z</time>
      </trkpt>
      <trkpt lat="47.23032" lon="2.01585">
        <ele>102.52</ele>
        <time>2015-08-17T15:55:48Z</time>
      </trkpt>
      <trkpt lat="47.23027" lon="2.01588">
        <ele>102.04</ele>
        <time>2015-08-17T15:56:14Z</time>
      </trkpt>
      <trkpt lat="47.23026" lon="2.01586">
        <ele>102.04</ele>
        <time>2015-08-17T15:56:40Z</time>
      </trkpt>
      <trkpt lat="47.23025" lon="2.01586">
        <ele>102.52</ele>
        <time>2015-08-17T15:56:51Z</time>
      </trkpt>
      <trkpt lat="47.23025" lon="2.01584">
        <ele>102.52</ele>
        <time>2015-08-17T15:56:52Z</time>
      </trkpt>
      <trkpt lat="47.23026" lon="2.01582">
        <ele>102.52</ele>
        <time>2015-08-17T15:56:53Z</time>
      </trkpt>
      <trkpt lat="47.23028" lon="2.01581">
        <ele>102.52</ele>
        <time>2015-08-17T15:56:54Z</time>
      </trkpt>
      <trkpt lat="47.2303" lon="2.01581">
        <ele>102.52</ele>
        <time>2015-08-17T15:56:55Z</time>
      </trkpt>
      <trkpt lat="47.23031" lon="2.01582">
        <ele>102.52</ele>
        <time>2015-08-17T15:56:56Z</time>
      </trkpt>
      <trkpt lat="47.23032" lon="2.01584">
        <ele>102.52</ele>
        <time>2015-08-17T15:56:57Z</time>
      </trkpt>
      <trkpt lat="47.23033" lon="2.01586">
        <ele>102.52</ele>
        <time>2015-08-17T15:56:58Z</time>
      </trkpt>
      <trkpt lat="47.23035" lon="2.01587">
        <ele>102.52</ele>
        <time>2015-08-17T15:56:59Z</time>
      </trkpt>
      <trkpt lat="47.23032" lon="2.01598">
        <ele>102.04</ele>
        <time>2015-08-17T15:57:03Z</time>
      </trkpt>
      <trkpt lat="47.2303" lon="2.01637">
        <ele>102.52</ele>
        <time>2015-08-17T15:57:15Z</time>
      </trkpt>
      <trkpt lat="47.23023" lon="2.01679">
        <ele>102.04</ele>
        <time>2015-08-17T15:57:26Z</time>
      </trkpt>
      <trkpt lat="47.23007" lon="2.01765">
        <ele>102.04</ele>
        <time>2015-08-17T15:57:45Z</time>
      </trkpt>
      <trkpt lat="47.22993" lon="2.01847">
        <ele>102.04</ele>
        <time>2015-08-17T15:58:03Z</time>
      </trkpt>
      <trkpt lat="47.22981" lon="2.01908">
        <ele>102.04</ele>
        <time>2015-08-17T15:58:17Z</time>
      </trkpt>
      <trkpt lat="47.22969" lon="2.01984">
        <ele>102.04</ele>
        <time>2015-08-17T15:58:34Z</time>
      </trkpt>
      <trkpt lat="47.22958" lon="2.02037">
        <ele>102.04</ele>
        <time>2015-08-17T15:58:47Z</time>
      </trkpt>
      <trkpt lat="47.22947" lon="2.02099">
        <ele>102.04</ele>
        <time>2015-08-17T15:59:04Z</time>
      </trkpt>
      <trkpt lat="47.2293" lon="2.02195">
        <ele>102.04</ele>
        <time>2015-08-17T15:59:26Z</time>
      </trkpt>
      <trkpt lat="47.22914" lon="2.02274">
        <ele>102.52</ele>
        <time>2015-08-17T15:59:44Z</time>
      </trkpt>
      <trkpt lat="47.229" lon="2.02354">
        <ele>102.04</ele>
        <time>2015-08-17T16:00:02Z</time>
      </trkpt>
      <trkpt lat="47.22888" lon="2.02427">
        <ele>102.04</ele>
        <time>2015-08-17T16:00:17Z</time>
      </trkpt>
      <trkpt lat="47.22875" lon="2.02492">
        <ele>101.56</ele>
        <time>2015-08-17T16:00:31Z</time>
      </trkpt>
      <trkpt lat="47.22863" lon="2.02555">
        <ele>101.56</ele>
        <time>2015-08-17T16:00:45Z</time>
      </trkpt>
      <trkpt lat="47.22849" lon="2.02631">
        <ele>102.04</ele>
        <time>2015-08-17T16:01:03Z</time>
      </trkpt>
      <trkpt lat="47.22836" lon="2.02714">
        <ele>102.04</ele>
        <time>2015-08-17T16:01:21Z</time>
      </trkpt>
      <trkpt lat="47.22828" lon="2.0277">
        <ele>102.04</ele>
        <time>2015-08-17T16:01:33Z</time>
      </trkpt>
      <trkpt lat="47.22827" lon="2.02774">
        <ele>102.04</ele>
        <time>2015-08-17T16:01:34Z</time>
      </trkpt>
      <trkpt lat="47.22826" lon="2.02778">
        <ele>102.04</ele>
        <time>2015-08-17T16:01:35Z</time>
      </trkpt>
      <trkpt lat="47.22825" lon="2.02782">
        <ele>102.04</ele>
        <time>2015-08-17T16:01:36Z</time>
      </trkpt>
      <trkpt lat="47.22824" lon="2.02785">
        <ele>102.04</ele>
        <time>2015-08-17T16:01:37Z</time>
      </trkpt>
      <trkpt lat="47.22821" lon="2.02795">
        <ele>102.04</ele>
        <time>2015-08-17T16:01:40Z</time>
      </trkpt>
      <trkpt lat="47.2281" lon="2.02859">
        <ele>102.04</ele>
        <time>2015-08-17T16:01:56Z</time>
      </trkpt>
      <trkpt lat="47.22799" lon="2.02917">
        <ele>102.04</ele>
        <time>2015-08-17T16:02:11Z</time>
      </trkpt>
      <trkpt lat="47.22799" lon="2.02922">
        <ele>102.04</ele>
        <time>2015-08-17T16:02:12Z</time>
      </trkpt>
      <trkpt lat="47.22798" lon="2.02925">
        <ele>102.04</ele>
        <time>2015-08-17T16:02:13Z</time>
      </trkpt>
      <trkpt lat="47.22797" lon="2.02929">
        <ele>102.04</ele>
        <time>2015-08-17T16:02:14Z</time>
      </trkpt>
      <trkpt lat="47.22796" lon="2.02933">
        <ele>102.04</ele>
        <time>2015-08-17T16:02:15Z</time>
      </trkpt>
      <trkpt lat="47.22792" lon="2.02946">
        <ele>102.04</ele>
        <time>2015-08-17T16:02:20Z</time>
      </trkpt>
      <trkpt lat="47.22788" lon="2.02975">
        <ele>102.04</ele>
        <time>2015-08-17T16:02:33Z</time>
      </trkpt>
      <trkpt lat="47.22776" lon="2.03029">
        <ele>102.04</ele>
        <time>2015-08-17T16:02:48Z</time>
      </trkpt>
      <trkpt lat="47.22763" lon="2.03108">
        <ele>102.04</ele>
        <time>2015-08-17T16:03:06Z</time>
      </trkpt>
      <trkpt lat="47.22749" lon="2.03181">
        <ele>102.52</ele>
        <time>2015-08-17T16:03:21Z</time>
      </trkpt>
      <trkpt lat="47.22732" lon="2.03273">
        <ele>102.52</ele>
        <time>2015-08-17T16:03:39Z</time>
      </trkpt>
      <trkpt lat="47.22713" lon="2.03383">
        <ele>102.04</ele>
        <time>2015-08-17T16:04:01Z</time>
      </trkpt>
      <trkpt lat="47.22699" lon="2.03459">
        <ele>103</ele>
        <time>2015-08-17T16:04:17Z</time>
      </trkpt>
      <trkpt lat="47.22699" lon="2.03463">
        <ele>103</ele>
        <time>2015-08-17T16:04:18Z</time>
      </trkpt>
      <trkpt lat="47.22698" lon="2.03466">
        <ele>103</ele>
        <time>2015-08-17T16:04:19Z</time>
      </trkpt>
      <trkpt lat="47.22697" lon="2.03469">
        <ele>103</ele>
        <time>2015-08-17T16:04:20Z</time>
      </trkpt>
      <trkpt lat="47.22696" lon="2.03471">
        <ele>103</ele>
        <time>2015-08-17T16:04:21Z</time>
      </trkpt>
      <trkpt lat="47.22696" lon="2.03474">
        <ele>103</ele>
        <time>2015-08-17T16:04:22Z</time>
      </trkpt>
      <trkpt lat="47.22701" lon="2.03485">
        <ele>102.04</ele>
        <time>2015-08-17T16:04:26Z</time>
      </trkpt>
      <trkpt lat="47.22702" lon="2.03489">
        <ele>102.04</ele>
        <time>2015-08-17T16:04:27Z</time>
      </trkpt>
      <trkpt lat="47.22691" lon="2.03584">
        <ele>101.56</ele>
        <time>2015-08-17T16:04:41Z</time>
      </trkpt>
      <trkpt lat="47.22669" lon="2.03693">
        <ele>104.44</ele>
        <time>2015-08-17T16:04:55Z</time>
      </trkpt>
      <trkpt lat="47.22668" lon="2.037">
        <ele>104.92</ele>
        <time>2015-08-17T16:04:56Z</time>
      </trkpt>
      <trkpt lat="47.22661" lon="2.0374">
        <ele>106.84</ele>
        <time>2015-08-17T16:05:03Z</time>
      </trkpt>
      <trkpt lat="47.22645" lon="2.03825">
        <ele>108.77</ele>
        <time>2015-08-17T16:05:20Z</time>
      </trkpt>
      <trkpt lat="47.22633" lon="2.03895">
        <ele>106.36</ele>
        <time>2015-08-17T16:05:42Z</time>
      </trkpt>
      <trkpt lat="47.22624" lon="2.03947">
        <ele>103.96</ele>
        <time>2015-08-17T16:06:00Z</time>
      </trkpt>
      <trkpt lat="47.22615" lon="2.04009">
        <ele>102.04</ele>
        <time>2015-08-17T16:06:17Z</time>
      </trkpt>
      <trkpt lat="47.22614" lon="2.04013">
        <ele>102.04</ele>
        <time>2015-08-17T16:06:18Z</time>
      </trkpt>
      <trkpt lat="47.22614" lon="2.04017">
        <ele>102.04</ele>
        <time>2015-08-17T16:06:19Z</time>
      </trkpt>
      <trkpt lat="47.22613" lon="2.04021">
        <ele>102.04</ele>
        <time>2015-08-17T16:06:20Z</time>
      </trkpt>
      <trkpt lat="47.22613" lon="2.04024">
        <ele>102.04</ele>
        <time>2015-08-17T16:06:21Z</time>
      </trkpt>
      <trkpt lat="47.22612" lon="2.04027">
        <ele>102.04</ele>
        <time>2015-08-17T16:06:22Z</time>
      </trkpt>
      <trkpt lat="47.22611" lon="2.0403">
        <ele>102.04</ele>
        <time>2015-08-17T16:06:23Z</time>
      </trkpt>
      <trkpt lat="47.22609" lon="2.04032">
        <ele>102.04</ele>
        <time>2015-08-17T16:06:24Z</time>
      </trkpt>
      <trkpt lat="47.22608" lon="2.04032">
        <ele>102.04</ele>
        <time>2015-08-17T16:06:25Z</time>
      </trkpt>
      <trkpt lat="47.22606" lon="2.04032">
        <ele>102.04</ele>
        <time>2015-08-17T16:06:26Z</time>
      </trkpt>
      <trkpt lat="47.22596" lon="2.04028">
        <ele>102.04</ele>
        <time>2015-08-17T16:06:33Z</time>
      </trkpt>
      <trkpt lat="47.22565" lon="2.0404">
        <ele>101.08</ele>
        <time>2015-08-17T16:06:47Z</time>
      </trkpt>
      <trkpt lat="47.22557" lon="2.04058">
        <ele>101.08</ele>
        <time>2015-08-17T16:07:05Z</time>
      </trkpt>
      <trkpt lat="47.22556" lon="2.04058">
        <ele>101.08</ele>
        <time>2015-08-17T16:07:30Z</time>
      </trkpt>
      <trkpt lat="47.22549" lon="2.04103">
        <ele>101.08</ele>
        <time>2015-08-17T16:07:43Z</time>
      </trkpt>
      <trkpt lat="47.2253" lon="2.0422">
        <ele>101.56</ele>
        <time>2015-08-17T16:08:02Z</time>
      </trkpt>
      <trkpt lat="47.22512" lon="2.04326">
        <ele>101.56</ele>
        <time>2015-08-17T16:08:19Z</time>
      </trkpt>
      <trkpt lat="47.22496" lon="2.04422">
        <ele>101.56</ele>
        <time>2015-08-17T16:08:34Z</time>
      </trkpt>
      <trkpt lat="47.22475" lon="2.04534">
        <ele>101.08</ele>
        <time>2015-08-17T16:08:52Z</time>
      </trkpt>
      <trkpt lat="47.22457" lon="2.04643">
        <ele>101.08</ele>
        <time>2015-08-17T16:09:09Z</time>
      </trkpt>
      <trkpt lat="47.22437" lon="2.04752">
        <ele>101.08</ele>
        <time>2015-08-17T16:09:27Z</time>
      </trkpt>
      <trkpt lat="47.22435" lon="2.04758">
        <ele>101.08</ele>
        <time>2015-08-17T16:09:28Z</time>
      </trkpt>
      <trkpt lat="47.22433" lon="2.0481">
        <ele>101.56</ele>
        <time>2015-08-17T16:09:40Z</time>
      </trkpt>
      <trkpt lat="47.22432" lon="2.0481">
        <ele>101.56</ele>
        <time>2015-08-17T16:09:57Z</time>
      </trkpt>
      <trkpt lat="47.22432" lon="2.04811">
        <ele>101.56</ele>
        <time>2015-08-17T16:10:21Z</time>
      </trkpt>
      <trkpt lat="47.22427" lon="2.04849">
        <ele>101.56</ele>
        <time>2015-08-17T16:10:33Z</time>
      </trkpt>
      <trkpt lat="47.22419" lon="2.04905">
        <ele>101.56</ele>
        <time>2015-08-17T16:10:45Z</time>
      </trkpt>
      <trkpt lat="47.22408" lon="2.04968">
        <ele>101.08</ele>
        <time>2015-08-17T16:10:57Z</time>
      </trkpt>
      <trkpt lat="47.22394" lon="2.05034">
        <ele>101.08</ele>
        <time>2015-08-17T16:11:10Z</time>
      </trkpt>
      <trkpt lat="47.22382" lon="2.05093">
        <ele>101.08</ele>
        <time>2015-08-17T16:11:22Z</time>
      </trkpt>
      <trkpt lat="47.22379" lon="2.05108">
        <ele>101.08</ele>
        <time>2015-08-17T16:11:28Z</time>
      </trkpt>
      <trkpt lat="47.22379" lon="2.05109">
        <ele>101.56</ele>
        <time>2015-08-17T16:11:34Z</time>
      </trkpt>
      <trkpt lat="47.22378" lon="2.05109">
        <ele>101.08</ele>
        <time>2015-08-17T16:12:00Z</time>
      </trkpt>
      <trkpt lat="47.22379" lon="2.05109">
        <ele>101.08</ele>
        <time>2015-08-17T16:12:26Z</time>
      </trkpt>
      <trkpt lat="47.22379" lon="2.05111">
        <ele>101.08</ele>
        <time>2015-08-17T16:12:53Z</time>
      </trkpt>
      <trkpt lat="47.22378" lon="2.05112">
        <ele>101.08</ele>
        <time>2015-08-17T16:13:22Z</time>
      </trkpt>
      <trkpt lat="47.22373" lon="2.05147">
        <ele>101.08</ele>
        <time>2015-08-17T16:13:31Z</time>
      </trkpt>
      <trkpt lat="47.22361" lon="2.05209">
        <ele>101.08</ele>
        <time>2015-08-17T16:13:43Z</time>
      </trkpt>
      <trkpt lat="47.22347" lon="2.05279">
        <ele>101.08</ele>
        <time>2015-08-17T16:13:56Z</time>
      </trkpt>
      <trkpt lat="47.22333" lon="2.05353">
        <ele>101.56</ele>
        <time>2015-08-17T16:14:09Z</time>
      </trkpt>
      <trkpt lat="47.22319" lon="2.05421">
        <ele>101.08</ele>
        <time>2015-08-17T16:14:22Z</time>
      </trkpt>
      <trkpt lat="47.22312" lon="2.05475">
        <ele>101.56</ele>
        <time>2015-08-17T16:14:33Z</time>
      </trkpt>
      <trkpt lat="47.22301" lon="2.05537">
        <ele>100.6</ele>
        <time>2015-08-17T16:14:45Z</time>
      </trkpt>
      <trkpt lat="47.22286" lon="2.05607">
        <ele>101.08</ele>
        <time>2015-08-17T16:14:58Z</time>
      </trkpt>
      <trkpt lat="47.22278" lon="2.05657">
        <ele>101.08</ele>
        <time>2015-08-17T16:15:09Z</time>
      </trkpt>
      <trkpt lat="47.22263" lon="2.05738">
        <ele>101.08</ele>
        <time>2015-08-17T16:15:25Z</time>
      </trkpt>
      <trkpt lat="47.2226" lon="2.05761">
        <ele>101.08</ele>
        <time>2015-08-17T16:15:30Z</time>
      </trkpt>
      <trkpt lat="47.22259" lon="2.05765">
        <ele>101.56</ele>
        <time>2015-08-17T16:15:31Z</time>
      </trkpt>
      <trkpt lat="47.22249" lon="2.05803">
        <ele>100.6</ele>
        <time>2015-08-17T16:15:41Z</time>
      </trkpt>
      <trkpt lat="47.22232" lon="2.05876">
        <ele>100.6</ele>
        <time>2015-08-17T16:15:56Z</time>
      </trkpt>
      <trkpt lat="47.22216" lon="2.05957">
        <ele>100.11</ele>
        <time>2015-08-17T16:16:12Z</time>
      </trkpt>
      <trkpt lat="47.22206" lon="2.0601">
        <ele>100.6</ele>
        <time>2015-08-17T16:16:23Z</time>
      </trkpt>
      <trkpt lat="47.22195" lon="2.06068">
        <ele>101.08</ele>
        <time>2015-08-17T16:16:37Z</time>
      </trkpt>
      <trkpt lat="47.22179" lon="2.06084">
        <ele>101.56</ele>
        <time>2015-08-17T16:16:47Z</time>
      </trkpt>
      <trkpt lat="47.22175" lon="2.06111">
        <ele>101.56</ele>
        <time>2015-08-17T16:16:54Z</time>
      </trkpt>
      <trkpt lat="47.22162" lon="2.06167">
        <ele>102.04</ele>
        <time>2015-08-17T16:17:08Z</time>
      </trkpt>
      <trkpt lat="47.22149" lon="2.06248">
        <ele>102.04</ele>
        <time>2015-08-17T16:17:24Z</time>
      </trkpt>
      <trkpt lat="47.22137" lon="2.06313">
        <ele>102.04</ele>
        <time>2015-08-17T16:17:38Z</time>
      </trkpt>
      <trkpt lat="47.22127" lon="2.06384">
        <ele>102.04</ele>
        <time>2015-08-17T16:17:53Z</time>
      </trkpt>
      <trkpt lat="47.22117" lon="2.06441">
        <ele>102.04</ele>
        <time>2015-08-17T16:18:06Z</time>
      </trkpt>
      <trkpt lat="47.22117" lon="2.0646">
        <ele>102.04</ele>
        <time>2015-08-17T16:18:12Z</time>
      </trkpt>
      <trkpt lat="47.22126" lon="2.06468">
        <ele>102.52</ele>
        <time>2015-08-17T16:18:16Z</time>
      </trkpt>
      <trkpt lat="47.22158" lon="2.06492">
        <ele>102.04</ele>
        <time>2015-08-17T16:18:29Z</time>
      </trkpt>
      <trkpt lat="47.22165" lon="2.06503">
        <ele>102.04</ele>
        <time>2015-08-17T16:18:35Z</time>
      </trkpt>
      <trkpt lat="47.22163" lon="2.06512">
        <ele>102.52</ele>
        <time>2015-08-17T16:18:40Z</time>
      </trkpt>
      <trkpt lat="47.22161" lon="2.06528">
        <ele>103</ele>
        <time>2015-08-17T16:18:45Z</time>
      </trkpt>
      <trkpt lat="47.22155" lon="2.06574">
        <ele>103</ele>
        <time>2015-08-17T16:18:58Z</time>
      </trkpt>
      <trkpt lat="47.22151" lon="2.06612">
        <ele>102.52</ele>
        <time>2015-08-17T16:19:11Z</time>
      </trkpt>
      <trkpt lat="47.2215" lon="2.06615">
        <ele>102.52</ele>
        <time>2015-08-17T16:19:12Z</time>
      </trkpt>
      <trkpt lat="47.22145" lon="2.06638">
        <ele>102.04</ele>
        <time>2015-08-17T16:19:24Z</time>
      </trkpt>
      <trkpt lat="47.2214" lon="2.06661">
        <ele>102.04</ele>
        <time>2015-08-17T16:19:36Z</time>
      </trkpt>
      <trkpt lat="47.22132" lon="2.06689">
        <ele>101.56</ele>
        <time>2015-08-17T16:19:47Z</time>
      </trkpt>
      <trkpt lat="47.22125" lon="2.06705">
        <ele>102.04</ele>
        <time>2015-08-17T16:19:54Z</time>
      </trkpt>
      <trkpt lat="47.22129" lon="2.06718">
        <ele>102.04</ele>
        <time>2015-08-17T16:20:02Z</time>
      </trkpt>
      <trkpt lat="47.22129" lon="2.06719">
        <ele>102.04</ele>
        <time>2015-08-17T16:20:09Z</time>
      </trkpt>
      <trkpt lat="47.2213" lon="2.06722">
        <ele>101.56</ele>
        <time>2015-08-17T16:20:27Z</time>
      </trkpt>
      <trkpt lat="47.22134" lon="2.06725">
        <ele>101.56</ele>
        <time>2015-08-17T16:20:44Z</time>
      </trkpt>
      <trkpt lat="47.22134" lon="2.06726">
        <ele>101.56</ele>
        <time>2015-08-17T16:21:20Z</time>
      </trkpt>
      <trkpt lat="47.22135" lon="2.06727">
        <ele>101.56</ele>
        <time>2015-08-17T16:21:49Z</time>
      </trkpt>
      <trkpt lat="47.22134" lon="2.06726">
        <ele>101.56</ele>
        <time>2015-08-17T16:22:06Z</time>
      </trkpt>
      <trkpt lat="47.22136" lon="2.0673">
        <ele>101.56</ele>
        <time>2015-08-17T16:22:15Z</time>
      </trkpt>
      <trkpt lat="47.22122" lon="2.06726">
        <ele>100.6</ele>
        <time>2015-08-17T16:22:25Z</time>
      </trkpt>
      <trkpt lat="47.22122" lon="2.06737">
        <ele>100.11</ele>
        <time>2015-08-17T16:22:29Z</time>
      </trkpt>
      <trkpt lat="47.22119" lon="2.06755">
        <ele>100.6</ele>
        <time>2015-08-17T16:22:37Z</time>
      </trkpt>
      <trkpt lat="47.22115" lon="2.06763">
        <ele>100.6</ele>
        <time>2015-08-17T16:22:48Z</time>
      </trkpt>
      <trkpt lat="47.22112" lon="2.06781">
        <ele>100.6</ele>
        <time>2015-08-17T16:23:00Z</time>
      </trkpt>
      <trkpt lat="47.22106" lon="2.06808">
        <ele>100.6</ele>
        <time>2015-08-17T16:23:08Z</time>
      </trkpt>
      <trkpt lat="47.22096" lon="2.06862">
        <ele>100.6</ele>
        <time>2015-08-17T16:23:24Z</time>
      </trkpt>
      <trkpt lat="47.22086" lon="2.06924">
        <ele>100.6</ele>
        <time>2015-08-17T16:23:41Z</time>
      </trkpt>
      <trkpt lat="47.22074" lon="2.06983">
        <ele>100.6</ele>
        <time>2015-08-17T16:23:57Z</time>
      </trkpt>
      <trkpt lat="47.22067" lon="2.07034">
        <ele>100.6</ele>
        <time>2015-08-17T16:24:10Z</time>
      </trkpt>
      <trkpt lat="47.22056" lon="2.07085">
        <ele>100.6</ele>
        <time>2015-08-17T16:24:24Z</time>
      </trkpt>
      <trkpt lat="47.22046" lon="2.07139">
        <ele>100.6</ele>
        <time>2015-08-17T16:24:42Z</time>
      </trkpt>
      <trkpt lat="47.22053" lon="2.07152">
        <ele>100.6</ele>
        <time>2015-08-17T16:24:49Z</time>
      </trkpt>
      <trkpt lat="47.22057" lon="2.07166">
        <ele>101.56</ele>
        <time>2015-08-17T16:24:54Z</time>
      </trkpt>
      <trkpt lat="47.2206" lon="2.07183">
        <ele>101.08</ele>
        <time>2015-08-17T16:25:00Z</time>
      </trkpt>
      <trkpt lat="47.22058" lon="2.07187">
        <ele>101.08</ele>
        <time>2015-08-17T16:25:03Z</time>
      </trkpt>
      <trkpt lat="47.22041" lon="2.07196">
        <ele>100.6</ele>
        <time>2015-08-17T16:25:17Z</time>
      </trkpt>
      <trkpt lat="47.22037" lon="2.07195">
        <ele>100.6</ele>
        <time>2015-08-17T16:25:23Z</time>
      </trkpt>
      <trkpt lat="47.22035" lon="2.07192">
        <ele>100.6</ele>
        <time>2015-08-17T16:25:50Z</time>
      </trkpt>
      <trkpt lat="47.22035" lon="2.07186">
        <ele>100.6</ele>
        <time>2015-08-17T16:26:05Z</time>
      </trkpt>
      <trkpt lat="47.22043" lon="2.07184">
        <ele>100.6</ele>
        <time>2015-08-17T16:26:15Z</time>
      </trkpt>
      <trkpt lat="47.2204" lon="2.07184">
        <ele>100.11</ele>
        <time>2015-08-17T16:26:41Z</time>
      </trkpt>
      <trkpt lat="47.22038" lon="2.07181">
        <ele>100.11</ele>
        <time>2015-08-17T16:27:14Z</time>
      </trkpt>
      <trkpt lat="47.22029" lon="2.07187">
        <ele>100.11</ele>
        <time>2015-08-17T16:27:15Z</time>
      </trkpt>
      <trkpt lat="47.22039" lon="2.07184">
        <ele>100.11</ele>
        <time>2015-08-17T17:23:13Z</time>
      </trkpt>
      <trkpt lat="47.22037" lon="2.07185">
        <ele>100.6</ele>
        <time>2015-08-17T17:23:26Z</time>
      </trkpt>
      <trkpt lat="47.22033" lon="2.07194">
        <ele>100.6</ele>
        <time>2015-08-17T17:23:37Z</time>
      </trkpt>
      <trkpt lat="47.22032" lon="2.07196">
        <ele>100.6</ele>
        <time>2015-08-17T17:23:38Z</time>
      </trkpt>
      <trkpt lat="47.22029" lon="2.07202">
        <ele>100.6</ele>
        <time>2015-08-17T17:23:41Z</time>
      </trkpt>
      <trkpt lat="47.22018" lon="2.07254">
        <ele>101.56</ele>
        <time>2015-08-17T17:23:57Z</time>
      </trkpt>
      <trkpt lat="47.22017" lon="2.07257">
        <ele>101.56</ele>
        <time>2015-08-17T17:23:58Z</time>
      </trkpt>
      <trkpt lat="47.22013" lon="2.0726">
        <ele>102.04</ele>
        <time>2015-08-17T17:24:01Z</time>
      </trkpt>
      <trkpt lat="47.22011" lon="2.0726">
        <ele>102.04</ele>
        <time>2015-08-17T17:24:02Z</time>
      </trkpt>
      <trkpt lat="47.2201" lon="2.0726">
        <ele>102.04</ele>
        <time>2015-08-17T17:24:03Z</time>
      </trkpt>
      <trkpt lat="47.2201" lon="2.07262">
        <ele>102.52</ele>
        <time>2015-08-17T17:24:35Z</time>
      </trkpt>
      <trkpt lat="47.22011" lon="2.07264">
        <ele>102.52</ele>
        <time>2015-08-17T17:24:47Z</time>
      </trkpt>
      <trkpt lat="47.2201" lon="2.07266">
        <ele>102.52</ele>
        <time>2015-08-17T17:24:48Z</time>
      </trkpt>
      <trkpt lat="47.22008" lon="2.07268">
        <ele>102.52</ele>
        <time>2015-08-17T17:24:50Z</time>
      </trkpt>
      <trkpt lat="47.22003" lon="2.07304">
        <ele>102.52</ele>
        <time>2015-08-17T17:25:02Z</time>
      </trkpt>
      <trkpt lat="47.21995" lon="2.07373">
        <ele>102.04</ele>
        <time>2015-08-17T17:25:18Z</time>
      </trkpt>
      <trkpt lat="47.21981" lon="2.07447">
        <ele>102.04</ele>
        <time>2015-08-17T17:25:33Z</time>
      </trkpt>
      <trkpt lat="47.21967" lon="2.07527">
        <ele>102.04</ele>
        <time>2015-08-17T17:25:47Z</time>
      </trkpt>
      <trkpt lat="47.21963" lon="2.07551">
        <ele>102.04</ele>
        <time>2015-08-17T17:25:51Z</time>
      </trkpt>
      <trkpt lat="47.2195" lon="2.07621">
        <ele>101.56</ele>
        <time>2015-08-17T17:26:03Z</time>
      </trkpt>
      <trkpt lat="47.21942" lon="2.07664">
        <ele>101.56</ele>
        <time>2015-08-17T17:26:11Z</time>
      </trkpt>
      <trkpt lat="47.21933" lon="2.07711">
        <ele>101.56</ele>
        <time>2015-08-17T17:26:21Z</time>
      </trkpt>
      <trkpt lat="47.21932" lon="2.07716">
        <ele>101.56</ele>
        <time>2015-08-17T17:26:22Z</time>
      </trkpt>
      <trkpt lat="47.21931" lon="2.0772">
        <ele>102.04</ele>
        <time>2015-08-17T17:26:23Z</time>
      </trkpt>
      <trkpt lat="47.2193" lon="2.07725">
        <ele>101.56</ele>
        <time>2015-08-17T17:26:24Z</time>
      </trkpt>
      <trkpt lat="47.21928" lon="2.07729">
        <ele>102.04</ele>
        <time>2015-08-17T17:26:25Z</time>
      </trkpt>
      <trkpt lat="47.21925" lon="2.07732">
        <ele>102.04</ele>
        <time>2015-08-17T17:26:26Z</time>
      </trkpt>
      <trkpt lat="47.21922" lon="2.07734">
        <ele>102.04</ele>
        <time>2015-08-17T17:26:27Z</time>
      </trkpt>
      <trkpt lat="47.2192" lon="2.07734">
        <ele>102.52</ele>
        <time>2015-08-17T17:26:28Z</time>
      </trkpt>
      <trkpt lat="47.21916" lon="2.07745">
        <ele>102.52</ele>
        <time>2015-08-17T17:26:31Z</time>
      </trkpt>
      <trkpt lat="47.21903" lon="2.07817">
        <ele>102.52</ele>
        <time>2015-08-17T17:26:44Z</time>
      </trkpt>
      <trkpt lat="47.21886" lon="2.07906">
        <ele>102.52</ele>
        <time>2015-08-17T17:27:00Z</time>
      </trkpt>
      <trkpt lat="47.21867" lon="2.07994">
        <ele>102.52</ele>
        <time>2015-08-17T17:27:15Z</time>
      </trkpt>
      <trkpt lat="47.21846" lon="2.08075">
        <ele>103</ele>
        <time>2015-08-17T17:27:30Z</time>
      </trkpt>
      <trkpt lat="47.21825" lon="2.08161">
        <ele>102.52</ele>
        <time>2015-08-17T17:27:46Z</time>
      </trkpt>
      <trkpt lat="47.21803" lon="2.08254">
        <ele>102.52</ele>
        <time>2015-08-17T17:28:04Z</time>
      </trkpt>
      <trkpt lat="47.21787" lon="2.08314">
        <ele>102.52</ele>
        <time>2015-08-17T17:28:19Z</time>
      </trkpt>
      <trkpt lat="47.21787" lon="2.08317">
        <ele>102.52</ele>
        <time>2015-08-17T17:28:20Z</time>
      </trkpt>
      <trkpt lat="47.21786" lon="2.08319">
        <ele>102.52</ele>
        <time>2015-08-17T17:28:21Z</time>
      </trkpt>
      <trkpt lat="47.21786" lon="2.0832">
        <ele>102.52</ele>
        <time>2015-08-17T17:28:22Z</time>
      </trkpt>
      <trkpt lat="47.21786" lon="2.08321">
        <ele>102.04</ele>
        <time>2015-08-17T17:28:50Z</time>
      </trkpt>
      <trkpt lat="47.21786" lon="2.08321">
        <ele>105.4</ele>
        <time>2015-08-17T17:28:52Z</time>
      </trkpt>
      <trkpt lat="47.21786" lon="2.08321">
        <ele>100.6</ele>
        <time>2015-08-17T17:28:53Z</time>
      </trkpt>
      <trkpt lat="47.21786" lon="2.08321">
        <ele>105.88</ele>
        <time>2015-08-17T17:28:54Z</time>
      </trkpt>
      <trkpt lat="47.21786" lon="2.0832">
        <ele>99.15</ele>
        <time>2015-08-17T17:28:55Z</time>
      </trkpt>
      <trkpt lat="47.21786" lon="2.08321">
        <ele>102.52</ele>
        <time>2015-08-17T17:29:01Z</time>
      </trkpt>
      <trkpt lat="47.21786" lon="2.08321">
        <ele>105.88</ele>
        <time>2015-08-17T17:29:02Z</time>
      </trkpt>
      <trkpt lat="47.21786" lon="2.08321">
        <ele>102.52</ele>
        <time>2015-08-17T17:29:04Z</time>
      </trkpt>
      <trkpt lat="47.21786" lon="2.08321">
        <ele>99.15</ele>
        <time>2015-08-17T17:29:05Z</time>
      </trkpt>
      <trkpt lat="47.21787" lon="2.08321">
        <ele>102.52</ele>
        <time>2015-08-17T17:29:13Z</time>
      </trkpt>
      <trkpt lat="47.2177" lon="2.08389">
        <ele>103</ele>
        <time>2015-08-17T17:29:30Z</time>
      </trkpt>
      <trkpt lat="47.21748" lon="2.08474">
        <ele>102.52</ele>
        <time>2015-08-17T17:29:49Z</time>
      </trkpt>
      <trkpt lat="47.21728" lon="2.08551">
        <ele>102.52</ele>
        <time>2015-08-17T17:30:06Z</time>
      </trkpt>
      <trkpt lat="47.2171" lon="2.08626">
        <ele>103</ele>
        <time>2015-08-17T17:30:22Z</time>
      </trkpt>
      <trkpt lat="47.21691" lon="2.08702">
        <ele>102.52</ele>
        <time>2015-08-17T17:30:38Z</time>
      </trkpt>
      <trkpt lat="47.21673" lon="2.08784">
        <ele>102.52</ele>
        <time>2015-08-17T17:30:54Z</time>
      </trkpt>
      <trkpt lat="47.21653" lon="2.08861">
        <ele>103</ele>
        <time>2015-08-17T17:31:09Z</time>
      </trkpt>
      <trkpt lat="47.21636" lon="2.08935">
        <ele>103</ele>
        <time>2015-08-17T17:31:23Z</time>
      </trkpt>
      <trkpt lat="47.2162" lon="2.08982">
        <ele>103.48</ele>
        <time>2015-08-17T17:31:35Z</time>
      </trkpt>
      <trkpt lat="47.21619" lon="2.08984">
        <ele>103.48</ele>
        <time>2015-08-17T17:31:36Z</time>
      </trkpt>
      <trkpt lat="47.21619" lon="2.08988">
        <ele>103.48</ele>
        <time>2015-08-17T17:31:56Z</time>
      </trkpt>
      <trkpt lat="47.21615" lon="2.08999">
        <ele>103.96</ele>
        <time>2015-08-17T17:32:10Z</time>
      </trkpt>
      <trkpt lat="47.21614" lon="2.09001">
        <ele>103.48</ele>
        <time>2015-08-17T17:32:11Z</time>
      </trkpt>
      <trkpt lat="47.21613" lon="2.09003">
        <ele>103.48</ele>
        <time>2015-08-17T17:32:12Z</time>
      </trkpt>
      <trkpt lat="47.21612" lon="2.09006">
        <ele>103.48</ele>
        <time>2015-08-17T17:32:13Z</time>
      </trkpt>
      <trkpt lat="47.21611" lon="2.09009">
        <ele>103.48</ele>
        <time>2015-08-17T17:32:14Z</time>
      </trkpt>
      <trkpt lat="47.21611" lon="2.09012">
        <ele>103.96</ele>
        <time>2015-08-17T17:32:15Z</time>
      </trkpt>
      <trkpt lat="47.21608" lon="2.09022">
        <ele>103.96</ele>
        <time>2015-08-17T17:32:19Z</time>
      </trkpt>
      <trkpt lat="47.21608" lon="2.09024">
        <ele>103.96</ele>
        <time>2015-08-17T17:32:20Z</time>
      </trkpt>
      <trkpt lat="47.21608" lon="2.09027">
        <ele>103.96</ele>
        <time>2015-08-17T17:32:21Z</time>
      </trkpt>
      <trkpt lat="47.21603" lon="2.09056">
        <ele>103.96</ele>
        <time>2015-08-17T17:32:30Z</time>
      </trkpt>
      <trkpt lat="47.21592" lon="2.09106">
        <ele>103.96</ele>
        <time>2015-08-17T17:32:41Z</time>
      </trkpt>
      <trkpt lat="47.21577" lon="2.09161">
        <ele>103.96</ele>
        <time>2015-08-17T17:32:53Z</time>
      </trkpt>
      <trkpt lat="47.21576" lon="2.09167">
        <ele>103.96</ele>
        <time>2015-08-17T17:32:54Z</time>
      </trkpt>
      <trkpt lat="47.21553" lon="2.09255">
        <ele>103.96</ele>
        <time>2015-08-17T17:33:11Z</time>
      </trkpt>
      <trkpt lat="47.2153" lon="2.0935">
        <ele>103.96</ele>
        <time>2015-08-17T17:33:29Z</time>
      </trkpt>
      <trkpt lat="47.21514" lon="2.09414">
        <ele>103.96</ele>
        <time>2015-08-17T17:33:42Z</time>
      </trkpt>
      <trkpt lat="47.21509" lon="2.09467">
        <ele>104.44</ele>
        <time>2015-08-17T17:33:54Z</time>
      </trkpt>
      <trkpt lat="47.21502" lon="2.09516">
        <ele>103.96</ele>
        <time>2015-08-17T17:34:07Z</time>
      </trkpt>
      <trkpt lat="47.21506" lon="2.09581">
        <ele>104.44</ele>
        <time>2015-08-17T17:34:20Z</time>
      </trkpt>
      <trkpt lat="47.21487" lon="2.0966">
        <ele>104.44</ele>
        <time>2015-08-17T17:34:36Z</time>
      </trkpt>
      <trkpt lat="47.21456" lon="2.09706">
        <ele>104.44</ele>
        <time>2015-08-17T17:34:49Z</time>
      </trkpt>
      <trkpt lat="47.2141" lon="2.09747">
        <ele>104.44</ele>
        <time>2015-08-17T17:35:04Z</time>
      </trkpt>
      <trkpt lat="47.21381" lon="2.09801">
        <ele>104.44</ele>
        <time>2015-08-17T17:35:19Z</time>
      </trkpt>
      <trkpt lat="47.21368" lon="2.09839">
        <ele>104.44</ele>
        <time>2015-08-17T17:35:30Z</time>
      </trkpt>
      <trkpt lat="47.21368" lon="2.09842">
        <ele>104.44</ele>
        <time>2015-08-17T17:35:31Z</time>
      </trkpt>
      <trkpt lat="47.21369" lon="2.09845">
        <ele>104.44</ele>
        <time>2015-08-17T17:35:32Z</time>
      </trkpt>
      <trkpt lat="47.2137" lon="2.09847">
        <ele>104.44</ele>
        <time>2015-08-17T17:35:33Z</time>
      </trkpt>
      <trkpt lat="47.21371" lon="2.09849">
        <ele>104.44</ele>
        <time>2015-08-17T17:35:34Z</time>
      </trkpt>
      <trkpt lat="47.21371" lon="2.09851">
        <ele>104.44</ele>
        <time>2015-08-17T17:35:35Z</time>
      </trkpt>
      <trkpt lat="47.21372" lon="2.09852">
        <ele>104.44</ele>
        <time>2015-08-17T17:35:36Z</time>
      </trkpt>
      <trkpt lat="47.21374" lon="2.09854">
        <ele>104.44</ele>
        <time>2015-08-17T17:35:37Z</time>
      </trkpt>
      <trkpt lat="47.21375" lon="2.09855">
        <ele>104.44</ele>
        <time>2015-08-17T17:35:38Z</time>
      </trkpt>
      <trkpt lat="47.21376" lon="2.09856">
        <ele>104.44</ele>
        <time>2015-08-17T17:35:39Z</time>
      </trkpt>
      <trkpt lat="47.21377" lon="2.09857">
        <ele>104.44</ele>
        <time>2015-08-17T17:35:40Z</time>
      </trkpt>
      <trkpt lat="47.21379" lon="2.09856">
        <ele>104.44</ele>
        <time>2015-08-17T17:35:41Z</time>
      </trkpt>
      <trkpt lat="47.2138" lon="2.09855">
        <ele>104.44</ele>
        <time>2015-08-17T17:35:42Z</time>
      </trkpt>
      <trkpt lat="47.2138" lon="2.09853">
        <ele>104.44</ele>
        <time>2015-08-17T17:35:43Z</time>
      </trkpt>
      <trkpt lat="47.21378" lon="2.09857">
        <ele>104.44</ele>
        <time>2015-08-17T17:35:50Z</time>
      </trkpt>
      <trkpt lat="47.21361" lon="2.09906">
        <ele>103.96</ele>
        <time>2015-08-17T17:36:04Z</time>
      </trkpt>
      <trkpt lat="47.21359" lon="2.09911">
        <ele>104.44</ele>
        <time>2015-08-17T17:36:05Z</time>
      </trkpt>
      <trkpt lat="47.21357" lon="2.09916">
        <ele>104.44</ele>
        <time>2015-08-17T17:36:06Z</time>
      </trkpt>
      <trkpt lat="47.21327" lon="2.09991">
        <ele>104.44</ele>
        <time>2015-08-17T17:36:21Z</time>
      </trkpt>
      <trkpt lat="47.2131" lon="2.10034">
        <ele>104.44</ele>
        <time>2015-08-17T17:36:28Z</time>
      </trkpt>
      <trkpt lat="47.21301" lon="2.1005">
        <ele>104.92</ele>
        <time>2015-08-17T17:36:31Z</time>
      </trkpt>
      <trkpt lat="47.21298" lon="2.10054">
        <ele>104.92</ele>
        <time>2015-08-17T17:36:32Z</time>
      </trkpt>
      <trkpt lat="47.21278" lon="2.10091">
        <ele>105.88</ele>
        <time>2015-08-17T17:36:44Z</time>
      </trkpt>
      <trkpt lat="47.21277" lon="2.10092">
        <ele>105.88</ele>
        <time>2015-08-17T17:36:45Z</time>
      </trkpt>
      <trkpt lat="47.21275" lon="2.10092">
        <ele>105.88</ele>
        <time>2015-08-17T17:36:47Z</time>
      </trkpt>
      <trkpt lat="47.21273" lon="2.10094">
        <ele>105.88</ele>
        <time>2015-08-17T17:36:58Z</time>
      </trkpt>
      <trkpt lat="47.21264" lon="2.10117">
        <ele>104.44</ele>
        <time>2015-08-17T17:37:11Z</time>
      </trkpt>
      <trkpt lat="47.21263" lon="2.10119">
        <ele>104.44</ele>
        <time>2015-08-17T17:37:12Z</time>
      </trkpt>
      <trkpt lat="47.21262" lon="2.10122">
        <ele>104.44</ele>
        <time>2015-08-17T17:37:13Z</time>
      </trkpt>
      <trkpt lat="47.21261" lon="2.10124">
        <ele>104.44</ele>
        <time>2015-08-17T17:37:14Z</time>
      </trkpt>
      <trkpt lat="47.2126" lon="2.10126">
        <ele>104.44</ele>
        <time>2015-08-17T17:37:15Z</time>
      </trkpt>
      <trkpt lat="47.2126" lon="2.10128">
        <ele>103.96</ele>
        <time>2015-08-17T17:37:16Z</time>
      </trkpt>
      <trkpt lat="47.2126" lon="2.10132">
        <ele>104.44</ele>
        <time>2015-08-17T17:37:19Z</time>
      </trkpt>
      <trkpt lat="47.2126" lon="2.10132">
        <ele>104.44</ele>
        <time>2015-08-17T17:37:25Z</time>
      </trkpt>
      <trkpt lat="47.21261" lon="2.10133">
        <ele>104.44</ele>
        <time>2015-08-17T17:37:55Z</time>
      </trkpt>
      <trkpt lat="47.21259" lon="2.10135">
        <ele>104.44</ele>
        <time>2015-08-17T17:38:24Z</time>
      </trkpt>
      <trkpt lat="47.2126" lon="2.10135">
        <ele>104.44</ele>
        <time>2015-08-17T17:38:58Z</time>
      </trkpt>
      <trkpt lat="47.21259" lon="2.10135">
        <ele>104.44</ele>
        <time>2015-08-17T17:39:32Z</time>
      </trkpt>
      <trkpt lat="47.21259" lon="2.10135">
        <ele>104.44</ele>
        <time>2015-08-17T17:40:08Z</time>
      </trkpt>
      <trkpt lat="47.21261" lon="2.1014">
        <ele>104.44</ele>
        <time>2015-08-17T17:40:43Z</time>
      </trkpt>
      <trkpt lat="47.21262" lon="2.10139">
        <ele>104.44</ele>
        <time>2015-08-17T17:41:18Z</time>
      </trkpt>
      <trkpt lat="47.21261" lon="2.1014">
        <ele>104.44</ele>
        <time>2015-08-17T17:41:52Z</time>
      </trkpt>
      <trkpt lat="47.21259" lon="2.10144">
        <ele>104.92</ele>
        <time>2015-08-17T17:42:03Z</time>
      </trkpt>
      <trkpt lat="47.21242" lon="2.10187">
        <ele>104.44</ele>
        <time>2015-08-17T17:42:18Z</time>
      </trkpt>
      <trkpt lat="47.2123" lon="2.10221">
        <ele>104.44</ele>
        <time>2015-08-17T17:42:30Z</time>
      </trkpt>
      <trkpt lat="47.21229" lon="2.10223">
        <ele>104.44</ele>
        <time>2015-08-17T17:42:31Z</time>
      </trkpt>
      <trkpt lat="47.21229" lon="2.10225">
        <ele>104.44</ele>
        <time>2015-08-17T17:42:32Z</time>
      </trkpt>
      <trkpt lat="47.21228" lon="2.10226">
        <ele>104.44</ele>
        <time>2015-08-17T17:42:33Z</time>
      </trkpt>
      <trkpt lat="47.21229" lon="2.1023">
        <ele>103.96</ele>
        <time>2015-08-17T17:42:45Z</time>
      </trkpt>
      <trkpt lat="47.2123" lon="2.10234">
        <ele>103.96</ele>
        <time>2015-08-17T17:43:06Z</time>
      </trkpt>
      <trkpt lat="47.21229" lon="2.10238">
        <ele>103.96</ele>
        <time>2015-08-17T17:43:17Z</time>
      </trkpt>
      <trkpt lat="47.21209" lon="2.1028">
        <ele>104.92</ele>
        <time>2015-08-17T17:43:30Z</time>
      </trkpt>
      <trkpt lat="47.21192" lon="2.10325">
        <ele>104.92</ele>
        <time>2015-08-17T17:43:42Z</time>
      </trkpt>
      <trkpt lat="47.21166" lon="2.10407">
        <ele>104.92</ele>
        <time>2015-08-17T17:43:59Z</time>
      </trkpt>
      <trkpt lat="47.21146" lon="2.10454">
        <ele>104.92</ele>
        <time>2015-08-17T17:44:13Z</time>
      </trkpt>
      <trkpt lat="47.21145" lon="2.10456">
        <ele>104.92</ele>
        <time>2015-08-17T17:44:14Z</time>
      </trkpt>
      <trkpt lat="47.21146" lon="2.10463">
        <ele>104.92</ele>
        <time>2015-08-17T17:44:20Z</time>
      </trkpt>
      <trkpt lat="47.21134" lon="2.10493">
        <ele>104.92</ele>
        <time>2015-08-17T17:44:31Z</time>
      </trkpt>
      <trkpt lat="47.21132" lon="2.10497">
        <ele>104.92</ele>
        <time>2015-08-17T17:44:32Z</time>
      </trkpt>
      <trkpt lat="47.2113" lon="2.105">
        <ele>105.4</ele>
        <time>2015-08-17T17:44:33Z</time>
      </trkpt>
      <trkpt lat="47.21128" lon="2.10504">
        <ele>105.4</ele>
        <time>2015-08-17T17:44:34Z</time>
      </trkpt>
      <trkpt lat="47.21127" lon="2.10508">
        <ele>105.4</ele>
        <time>2015-08-17T17:44:35Z</time>
      </trkpt>
      <trkpt lat="47.21122" lon="2.10518">
        <ele>104.92</ele>
        <time>2015-08-17T17:44:38Z</time>
      </trkpt>
      <trkpt lat="47.21121" lon="2.10522">
        <ele>104.92</ele>
        <time>2015-08-17T17:44:39Z</time>
      </trkpt>
      <trkpt lat="47.21119" lon="2.10525">
        <ele>104.92</ele>
        <time>2015-08-17T17:44:40Z</time>
      </trkpt>
      <trkpt lat="47.21118" lon="2.10529">
        <ele>104.92</ele>
        <time>2015-08-17T17:44:41Z</time>
      </trkpt>
      <trkpt lat="47.21116" lon="2.10533">
        <ele>104.92</ele>
        <time>2015-08-17T17:44:42Z</time>
      </trkpt>
      <trkpt lat="47.21114" lon="2.10537">
        <ele>104.92</ele>
        <time>2015-08-17T17:44:43Z</time>
      </trkpt>
      <trkpt lat="47.21112" lon="2.10542">
        <ele>105.4</ele>
        <time>2015-08-17T17:44:44Z</time>
      </trkpt>
      <trkpt lat="47.21111" lon="2.10546">
        <ele>104.92</ele>
        <time>2015-08-17T17:44:45Z</time>
      </trkpt>
      <trkpt lat="47.2111" lon="2.1055">
        <ele>104.92</ele>
        <time>2015-08-17T17:44:46Z</time>
      </trkpt>
      <trkpt lat="47.21107" lon="2.10562">
        <ele>104.92</ele>
        <time>2015-08-17T17:44:49Z</time>
      </trkpt>
      <trkpt lat="47.21091" lon="2.10602">
        <ele>104.92</ele>
        <time>2015-08-17T17:44:59Z</time>
      </trkpt>
      <trkpt lat="47.2109" lon="2.10606">
        <ele>104.92</ele>
        <time>2015-08-17T17:45:00Z</time>
      </trkpt>
      <trkpt lat="47.21089" lon="2.10611">
        <ele>104.92</ele>
        <time>2015-08-17T17:45:01Z</time>
      </trkpt>
      <trkpt lat="47.21083" lon="2.10629">
        <ele>104.92</ele>
        <time>2015-08-17T17:45:06Z</time>
      </trkpt>
      <trkpt lat="47.2107" lon="2.10668">
        <ele>104.92</ele>
        <time>2015-08-17T17:45:16Z</time>
      </trkpt>
      <trkpt lat="47.21053" lon="2.10718">
        <ele>105.4</ele>
        <time>2015-08-17T17:45:28Z</time>
      </trkpt>
      <trkpt lat="47.2103" lon="2.10772">
        <ele>105.4</ele>
        <time>2015-08-17T17:45:41Z</time>
      </trkpt>
      <trkpt lat="47.21011" lon="2.10822">
        <ele>105.88</ele>
        <time>2015-08-17T17:45:54Z</time>
      </trkpt>
      <trkpt lat="47.20992" lon="2.10873">
        <ele>105.88</ele>
        <time>2015-08-17T17:46:07Z</time>
      </trkpt>
      <trkpt lat="47.20974" lon="2.10917">
        <ele>105.88</ele>
        <time>2015-08-17T17:46:19Z</time>
      </trkpt>
      <trkpt lat="47.20952" lon="2.10971">
        <ele>105.88</ele>
        <time>2015-08-17T17:46:32Z</time>
      </trkpt>
      <trkpt lat="47.20936" lon="2.11011">
        <ele>105.88</ele>
        <time>2015-08-17T17:46:43Z</time>
      </trkpt>
      <trkpt lat="47.20918" lon="2.1106">
        <ele>105.88</ele>
        <time>2015-08-17T17:46:55Z</time>
      </trkpt>
      <trkpt lat="47.20903" lon="2.11105">
        <ele>105.4</ele>
        <time>2015-08-17T17:47:07Z</time>
      </trkpt>
      <trkpt lat="47.20886" lon="2.1115">
        <ele>105.88</ele>
        <time>2015-08-17T17:47:18Z</time>
      </trkpt>
      <trkpt lat="47.20868" lon="2.11199">
        <ele>105.88</ele>
        <time>2015-08-17T17:47:29Z</time>
      </trkpt>
      <trkpt lat="47.2085" lon="2.11253">
        <ele>105.88</ele>
        <time>2015-08-17T17:47:41Z</time>
      </trkpt>
      <trkpt lat="47.20831" lon="2.11304">
        <ele>105.88</ele>
        <time>2015-08-17T17:47:53Z</time>
      </trkpt>
      <trkpt lat="47.20829" lon="2.11308">
        <ele>105.88</ele>
        <time>2015-08-17T17:47:54Z</time>
      </trkpt>
      <trkpt lat="47.20827" lon="2.11312">
        <ele>105.88</ele>
        <time>2015-08-17T17:47:55Z</time>
      </trkpt>
      <trkpt lat="47.20825" lon="2.11315">
        <ele>105.88</ele>
        <time>2015-08-17T17:47:56Z</time>
      </trkpt>
      <trkpt lat="47.20823" lon="2.11319">
        <ele>105.88</ele>
        <time>2015-08-17T17:47:57Z</time>
      </trkpt>
      <trkpt lat="47.20822" lon="2.11324">
        <ele>106.36</ele>
        <time>2015-08-17T17:47:58Z</time>
      </trkpt>
      <trkpt lat="47.20812" lon="2.11355">
        <ele>105.88</ele>
        <time>2015-08-17T17:48:05Z</time>
      </trkpt>
      <trkpt lat="47.20793" lon="2.11403">
        <ele>105.88</ele>
        <time>2015-08-17T17:48:16Z</time>
      </trkpt>
      <trkpt lat="47.20774" lon="2.1145">
        <ele>106.36</ele>
        <time>2015-08-17T17:48:28Z</time>
      </trkpt>
      <trkpt lat="47.2076" lon="2.1149">
        <ele>106.36</ele>
        <time>2015-08-17T17:48:39Z</time>
      </trkpt>
      <trkpt lat="47.20744" lon="2.11528">
        <ele>105.88</ele>
        <time>2015-08-17T17:48:51Z</time>
      </trkpt>
      <trkpt lat="47.20731" lon="2.11569">
        <ele>105.4</ele>
        <time>2015-08-17T17:49:03Z</time>
      </trkpt>
      <trkpt lat="47.20719" lon="2.11607">
        <ele>105.4</ele>
        <time>2015-08-17T17:49:15Z</time>
      </trkpt>
      <trkpt lat="47.20702" lon="2.11658">
        <ele>105.4</ele>
        <time>2015-08-17T17:49:30Z</time>
      </trkpt>
      <trkpt lat="47.20686" lon="2.11702">
        <ele>104.92</ele>
        <time>2015-08-17T17:49:43Z</time>
      </trkpt>
      <trkpt lat="47.20663" lon="2.11759">
        <ele>105.4</ele>
        <time>2015-08-17T17:50:00Z</time>
      </trkpt>
      <trkpt lat="47.20649" lon="2.11802">
        <ele>104.92</ele>
        <time>2015-08-17T17:50:12Z</time>
      </trkpt>
      <trkpt lat="47.20632" lon="2.11849">
        <ele>104.92</ele>
        <time>2015-08-17T17:50:25Z</time>
      </trkpt>
      <trkpt lat="47.20616" lon="2.11895">
        <ele>104.92</ele>
        <time>2015-08-17T17:50:39Z</time>
      </trkpt>
      <trkpt lat="47.20606" lon="2.11917">
        <ele>104.92</ele>
        <time>2015-08-17T17:50:50Z</time>
      </trkpt>
      <trkpt lat="47.20603" lon="2.11926">
        <ele>104.44</ele>
        <time>2015-08-17T17:51:00Z</time>
      </trkpt>
      <trkpt lat="47.20584" lon="2.11976">
        <ele>104.44</ele>
        <time>2015-08-17T17:51:15Z</time>
      </trkpt>
      <trkpt lat="47.20569" lon="2.12017">
        <ele>104.44</ele>
        <time>2015-08-17T17:51:28Z</time>
      </trkpt>
      <trkpt lat="47.20552" lon="2.12069">
        <ele>104.44</ele>
        <time>2015-08-17T17:51:43Z</time>
      </trkpt>
      <trkpt lat="47.20533" lon="2.12118">
        <ele>104.44</ele>
        <time>2015-08-17T17:51:58Z</time>
      </trkpt>
      <trkpt lat="47.20519" lon="2.1216">
        <ele>104.44</ele>
        <time>2015-08-17T17:52:11Z</time>
      </trkpt>
      <trkpt lat="47.20503" lon="2.12201">
        <ele>104.44</ele>
        <time>2015-08-17T17:52:24Z</time>
      </trkpt>
      <trkpt lat="47.20489" lon="2.1224">
        <ele>104.92</ele>
        <time>2015-08-17T17:52:36Z</time>
      </trkpt>
      <trkpt lat="47.20469" lon="2.12292">
        <ele>104.44</ele>
        <time>2015-08-17T17:52:51Z</time>
      </trkpt>
      <trkpt lat="47.20453" lon="2.12335">
        <ele>104.44</ele>
        <time>2015-08-17T17:53:04Z</time>
      </trkpt>
      <trkpt lat="47.20438" lon="2.12375">
        <ele>104.44</ele>
        <time>2015-08-17T17:53:18Z</time>
      </trkpt>
      <trkpt lat="47.20423" lon="2.12417">
        <ele>104.44</ele>
        <time>2015-08-17T17:53:32Z</time>
      </trkpt>
      <trkpt lat="47.20406" lon="2.12469">
        <ele>104.44</ele>
        <time>2015-08-17T17:53:47Z</time>
      </trkpt>
      <trkpt lat="47.2039" lon="2.12515">
        <ele>105.4</ele>
        <time>2015-08-17T17:53:59Z</time>
      </trkpt>
      <trkpt lat="47.20389" lon="2.12519">
        <ele>105.4</ele>
        <time>2015-08-17T17:54:00Z</time>
      </trkpt>
      <trkpt lat="47.20388" lon="2.12522">
        <ele>105.4</ele>
        <time>2015-08-17T17:54:01Z</time>
      </trkpt>
      <trkpt lat="47.20388" lon="2.12524">
        <ele>105.4</ele>
        <time>2015-08-17T17:54:02Z</time>
      </trkpt>
      <trkpt lat="47.20387" lon="2.12526">
        <ele>105.4</ele>
        <time>2015-08-17T17:54:03Z</time>
      </trkpt>
      <trkpt lat="47.20385" lon="2.12527">
        <ele>105.88</ele>
        <time>2015-08-17T17:54:04Z</time>
      </trkpt>
      <trkpt lat="47.2038" lon="2.12527">
        <ele>106.36</ele>
        <time>2015-08-17T17:54:09Z</time>
      </trkpt>
      <trkpt lat="47.20379" lon="2.12526">
        <ele>106.36</ele>
        <time>2015-08-17T17:54:28Z</time>
      </trkpt>
      <trkpt lat="47.20378" lon="2.12526">
        <ele>106.36</ele>
        <time>2015-08-17T17:54:50Z</time>
      </trkpt>
      <trkpt lat="47.20372" lon="2.12522">
        <ele>105.88</ele>
        <time>2015-08-17T17:55:03Z</time>
      </trkpt>
      <trkpt lat="47.20336" lon="2.12497">
        <ele>104.44</ele>
        <time>2015-08-17T17:55:17Z</time>
      </trkpt>
      <trkpt lat="47.20332" lon="2.12496">
        <ele>104.92</ele>
        <time>2015-08-17T17:55:18Z</time>
      </trkpt>
      <trkpt lat="47.20323" lon="2.12495">
        <ele>104.44</ele>
        <time>2015-08-17T17:55:20Z</time>
      </trkpt>
      <trkpt lat="47.20302" lon="2.12497">
        <ele>104.92</ele>
        <time>2015-08-17T17:55:25Z</time>
      </trkpt>
      <trkpt lat="47.20298" lon="2.12498">
        <ele>104.92</ele>
        <time>2015-08-17T17:55:26Z</time>
      </trkpt>
      <trkpt lat="47.20257" lon="2.125">
        <ele>104.92</ele>
        <time>2015-08-17T17:55:35Z</time>
      </trkpt>
      <trkpt lat="47.20253" lon="2.125">
        <ele>104.92</ele>
        <time>2015-08-17T17:55:36Z</time>
      </trkpt>
      <trkpt lat="47.20249" lon="2.12501">
        <ele>104.92</ele>
        <time>2015-08-17T17:55:37Z</time>
      </trkpt>
      <trkpt lat="47.20244" lon="2.125">
        <ele>104.92</ele>
        <time>2015-08-17T17:55:38Z</time>
      </trkpt>
      <trkpt lat="47.2024" lon="2.12501">
        <ele>104.92</ele>
        <time>2015-08-17T17:55:39Z</time>
      </trkpt>
      <trkpt lat="47.20236" lon="2.12502">
        <ele>104.92</ele>
        <time>2015-08-17T17:55:40Z</time>
      </trkpt>
      <trkpt lat="47.20227" lon="2.12504">
        <ele>104.92</ele>
        <time>2015-08-17T17:55:42Z</time>
      </trkpt>
      <trkpt lat="47.20185" lon="2.12512">
        <ele>104.92</ele>
        <time>2015-08-17T17:55:52Z</time>
      </trkpt>
      <trkpt lat="47.20135" lon="2.12515">
        <ele>104.92</ele>
        <time>2015-08-17T17:56:05Z</time>
      </trkpt>
      <trkpt lat="47.20091" lon="2.12485">
        <ele>104.44</ele>
        <time>2015-08-17T17:56:18Z</time>
      </trkpt>
      <trkpt lat="47.20087" lon="2.12482">
        <ele>104.44</ele>
        <time>2015-08-17T17:56:19Z</time>
      </trkpt>
      <trkpt lat="47.20062" lon="2.12464">
        <ele>104.44</ele>
        <time>2015-08-17T17:56:26Z</time>
      </trkpt>
      <trkpt lat="47.20059" lon="2.12461">
        <ele>104.92</ele>
        <time>2015-08-17T17:56:27Z</time>
      </trkpt>
      <trkpt lat="47.20055" lon="2.12458">
        <ele>104.92</ele>
        <time>2015-08-17T17:56:28Z</time>
      </trkpt>
      <trkpt lat="47.20052" lon="2.12454">
        <ele>104.92</ele>
        <time>2015-08-17T17:56:29Z</time>
      </trkpt>
      <trkpt lat="47.20049" lon="2.12449">
        <ele>105.4</ele>
        <time>2015-08-17T17:56:30Z</time>
      </trkpt>
      <trkpt lat="47.20048" lon="2.12443">
        <ele>105.4</ele>
        <time>2015-08-17T17:56:31Z</time>
      </trkpt>
      <trkpt lat="47.20055" lon="2.12393">
        <ele>106.36</ele>
        <time>2015-08-17T17:56:39Z</time>
      </trkpt>
      <trkpt lat="47.20053" lon="2.12322">
        <ele>108.29</ele>
        <time>2015-08-17T17:56:51Z</time>
      </trkpt>
      <trkpt lat="47.2005" lon="2.12267">
        <ele>109.73</ele>
        <time>2015-08-17T17:57:02Z</time>
      </trkpt>
      <trkpt lat="47.20045" lon="2.12235">
        <ele>110.21</ele>
        <time>2015-08-17T17:57:13Z</time>
      </trkpt>
      <trkpt lat="47.20045" lon="2.12229">
        <ele>110.21</ele>
        <time>2015-08-17T17:57:14Z</time>
      </trkpt>
      <trkpt lat="47.20044" lon="2.12223">
        <ele>110.21</ele>
        <time>2015-08-17T17:57:15Z</time>
      </trkpt>
      <trkpt lat="47.20043" lon="2.12217">
        <ele>110.21</ele>
        <time>2015-08-17T17:57:16Z</time>
      </trkpt>
      <trkpt lat="47.20041" lon="2.1221">
        <ele>110.21</ele>
        <time>2015-08-17T17:57:17Z</time>
      </trkpt>
      <trkpt lat="47.2004" lon="2.12204">
        <ele>110.69</ele>
        <time>2015-08-17T17:57:18Z</time>
      </trkpt>
      <trkpt lat="47.20038" lon="2.12198">
        <ele>111.17</ele>
        <time>2015-08-17T17:57:19Z</time>
      </trkpt>
      <trkpt lat="47.20037" lon="2.12192">
        <ele>111.17</ele>
        <time>2015-08-17T17:57:20Z</time>
      </trkpt>
      <trkpt lat="47.20022" lon="2.1215">
        <ele>112.13</ele>
        <time>2015-08-17T17:57:27Z</time>
      </trkpt>
      <trkpt lat="47.2002" lon="2.12144">
        <ele>112.13</ele>
        <time>2015-08-17T17:57:28Z</time>
      </trkpt>
      <trkpt lat="47.20005" lon="2.12118">
        <ele>112.61</ele>
        <time>2015-08-17T17:57:34Z</time>
      </trkpt>
      <trkpt lat="47.19968" lon="2.1207">
        <ele>113.57</ele>
        <time>2015-08-17T17:57:49Z</time>
      </trkpt>
      <trkpt lat="47.19933" lon="2.1204">
        <ele>114.05</ele>
        <time>2015-08-17T17:58:05Z</time>
      </trkpt>
      <trkpt lat="47.19931" lon="2.12039">
        <ele>114.05</ele>
        <time>2015-08-17T17:58:06Z</time>
      </trkpt>
      <trkpt lat="47.1993" lon="2.12037">
        <ele>114.05</ele>
        <time>2015-08-17T17:58:07Z</time>
      </trkpt>
      <trkpt lat="47.19928" lon="2.12036">
        <ele>114.05</ele>
        <time>2015-08-17T17:58:08Z</time>
      </trkpt>
      <trkpt lat="47.19926" lon="2.12036">
        <ele>114.05</ele>
        <time>2015-08-17T17:58:09Z</time>
      </trkpt>
      <trkpt lat="47.19926" lon="2.12036">
        <ele>114.05</ele>
        <time>2015-08-17T17:58:34Z</time>
      </trkpt>
      <trkpt lat="47.19925" lon="2.12036">
        <ele>114.05</ele>
        <time>2015-08-17T17:58:48Z</time>
      </trkpt>
      <trkpt lat="47.19908" lon="2.12052">
        <ele>114.05</ele>
        <time>2015-08-17T17:58:57Z</time>
      </trkpt>
      <trkpt lat="47.1987" lon="2.12104">
        <ele>113.57</ele>
        <time>2015-08-17T17:59:15Z</time>
      </trkpt>
      <trkpt lat="47.19834" lon="2.12157">
        <ele>113.57</ele>
        <time>2015-08-17T17:59:32Z</time>
      </trkpt>
      <trkpt lat="47.19802" lon="2.12204">
        <ele>113.57</ele>
        <time>2015-08-17T17:59:48Z</time>
      </trkpt>
      <trkpt lat="47.19772" lon="2.12249">
        <ele>113.09</ele>
        <time>2015-08-17T18:00:03Z</time>
      </trkpt>
      <trkpt lat="47.19742" lon="2.12292">
        <ele>112.61</ele>
        <time>2015-08-17T18:00:18Z</time>
      </trkpt>
      <trkpt lat="47.19714" lon="2.12335">
        <ele>110.69</ele>
        <time>2015-08-17T18:00:33Z</time>
      </trkpt>
      <trkpt lat="47.19688" lon="2.12371">
        <ele>109.73</ele>
        <time>2015-08-17T18:00:46Z</time>
      </trkpt>
      <trkpt lat="47.19663" lon="2.12406">
        <ele>108.77</ele>
        <time>2015-08-17T18:01:00Z</time>
      </trkpt>
      <trkpt lat="47.19662" lon="2.12408">
        <ele>108.77</ele>
        <time>2015-08-17T18:01:01Z</time>
      </trkpt>
      <trkpt lat="47.1966" lon="2.12409">
        <ele>108.77</ele>
        <time>2015-08-17T18:01:02Z</time>
      </trkpt>
      <trkpt lat="47.19659" lon="2.12411">
        <ele>109.25</ele>
        <time>2015-08-17T18:01:10Z</time>
      </trkpt>
      <trkpt lat="47.19659" lon="2.12411">
        <ele>112.13</ele>
        <time>2015-08-17T18:01:11Z</time>
      </trkpt>
      <trkpt lat="47.19659" lon="2.12411">
        <ele>108.77</ele>
        <time>2015-08-17T18:01:21Z</time>
      </trkpt>
      <trkpt lat="47.19655" lon="2.12416">
        <ele>108.77</ele>
        <time>2015-08-17T18:01:34Z</time>
      </trkpt>
      <trkpt lat="47.19654" lon="2.12417">
        <ele>108.77</ele>
        <time>2015-08-17T18:01:35Z</time>
      </trkpt>
      <trkpt lat="47.19653" lon="2.12418">
        <ele>108.77</ele>
        <time>2015-08-17T18:01:36Z</time>
      </trkpt>
      <trkpt lat="47.19652" lon="2.1242">
        <ele>108.77</ele>
        <time>2015-08-17T18:01:37Z</time>
      </trkpt>
      <trkpt lat="47.19651" lon="2.12421">
        <ele>108.77</ele>
        <time>2015-08-17T18:01:38Z</time>
      </trkpt>
      <trkpt lat="47.1965" lon="2.12422">
        <ele>108.77</ele>
        <time>2015-08-17T18:01:39Z</time>
      </trkpt>
      <trkpt lat="47.19628" lon="2.12455">
        <ele>108.77</ele>
        <time>2015-08-17T18:01:54Z</time>
      </trkpt>
      <trkpt lat="47.19591" lon="2.12508">
        <ele>109.25</ele>
        <time>2015-08-17T18:02:09Z</time>
      </trkpt>
      <trkpt lat="47.19575" lon="2.12532">
        <ele>109.25</ele>
        <time>2015-08-17T18:02:14Z</time>
      </trkpt>
      <trkpt lat="47.19513" lon="2.12622">
        <ele>110.21</ele>
        <time>2015-08-17T18:02:29Z</time>
      </trkpt>
      <trkpt lat="47.19435" lon="2.12733">
        <ele>113.09</ele>
        <time>2015-08-17T18:02:44Z</time>
      </trkpt>
      <trkpt lat="47.19364" lon="2.12835">
        <ele>116.46</ele>
        <time>2015-08-17T18:02:59Z</time>
      </trkpt>
      <trkpt lat="47.19319" lon="2.12898">
        <ele>119.82</ele>
        <time>2015-08-17T18:03:10Z</time>
      </trkpt>
      <trkpt lat="47.19313" lon="2.12907">
        <ele>119.82</ele>
        <time>2015-08-17T18:03:12Z</time>
      </trkpt>
      <trkpt lat="47.19285" lon="2.12948">
        <ele>120.78</ele>
        <time>2015-08-17T18:03:26Z</time>
      </trkpt>
      <trkpt lat="47.1928" lon="2.12953">
        <ele>120.78</ele>
        <time>2015-08-17T18:03:47Z</time>
      </trkpt>
      <trkpt lat="47.1928" lon="2.12953">
        <ele>120.78</ele>
        <time>2015-08-17T18:04:12Z</time>
      </trkpt>
      <trkpt lat="47.1927" lon="2.1297">
        <ele>121.26</ele>
        <time>2015-08-17T18:04:28Z</time>
      </trkpt>
      <trkpt lat="47.19269" lon="2.12971">
        <ele>121.74</ele>
        <time>2015-08-17T18:04:29Z</time>
      </trkpt>
      <trkpt lat="47.19268" lon="2.12972">
        <ele>121.74</ele>
        <time>2015-08-17T18:04:30Z</time>
      </trkpt>
      <trkpt lat="47.19267" lon="2.12973">
        <ele>121.26</ele>
        <time>2015-08-17T18:04:31Z</time>
      </trkpt>
      <trkpt lat="47.19266" lon="2.12974">
        <ele>121.74</ele>
        <time>2015-08-17T18:04:32Z</time>
      </trkpt>
      <trkpt lat="47.19265" lon="2.12976">
        <ele>121.26</ele>
        <time>2015-08-17T18:04:33Z</time>
      </trkpt>
      <trkpt lat="47.19254" lon="2.12994">
        <ele>121.74</ele>
        <time>2015-08-17T18:04:44Z</time>
      </trkpt>
      <trkpt lat="47.19233" lon="2.13022">
        <ele>122.22</ele>
        <time>2015-08-17T18:05:00Z</time>
      </trkpt>
      <trkpt lat="47.19209" lon="2.13063">
        <ele>122.71</ele>
        <time>2015-08-17T18:05:14Z</time>
      </trkpt>
      <trkpt lat="47.19195" lon="2.13128">
        <ele>123.19</ele>
        <time>2015-08-17T18:05:29Z</time>
      </trkpt>
      <trkpt lat="47.19169" lon="2.13189">
        <ele>123.67</ele>
        <time>2015-08-17T18:05:43Z</time>
      </trkpt>
      <trkpt lat="47.19127" lon="2.13231">
        <ele>123.67</ele>
        <time>2015-08-17T18:05:57Z</time>
      </trkpt>
      <trkpt lat="47.19101" lon="2.13283">
        <ele>122.71</ele>
        <time>2015-08-17T18:06:10Z</time>
      </trkpt>
      <trkpt lat="47.19082" lon="2.13334">
        <ele>123.19</ele>
        <time>2015-08-17T18:06:23Z</time>
      </trkpt>
      <trkpt lat="47.19081" lon="2.13337">
        <ele>123.19</ele>
        <time>2015-08-17T18:06:24Z</time>
      </trkpt>
      <trkpt lat="47.1908" lon="2.1334">
        <ele>123.19</ele>
        <time>2015-08-17T18:06:25Z</time>
      </trkpt>
      <trkpt lat="47.19051" lon="2.13397">
        <ele>122.71</ele>
        <time>2015-08-17T18:06:43Z</time>
      </trkpt>
      <trkpt lat="47.19036" lon="2.1343">
        <ele>122.22</ele>
        <time>2015-08-17T18:06:56Z</time>
      </trkpt>
      <trkpt lat="47.19016" lon="2.13483">
        <ele>122.22</ele>
        <time>2015-08-17T18:07:11Z</time>
      </trkpt>
      <trkpt lat="47.18998" lon="2.13534">
        <ele>120.78</ele>
        <time>2015-08-17T18:07:25Z</time>
      </trkpt>
      <trkpt lat="47.18975" lon="2.13613">
        <ele>119.82</ele>
        <time>2015-08-17T18:07:43Z</time>
      </trkpt>
      <trkpt lat="47.18952" lon="2.13681">
        <ele>119.82</ele>
        <time>2015-08-17T18:07:57Z</time>
      </trkpt>
      <trkpt lat="47.1891" lon="2.13759">
        <ele>120.3</ele>
        <time>2015-08-17T18:08:14Z</time>
      </trkpt>
      <trkpt lat="47.18872" lon="2.1383">
        <ele>121.74</ele>
        <time>2015-08-17T18:08:30Z</time>
      </trkpt>
      <trkpt lat="47.1884" lon="2.13912">
        <ele>121.74</ele>
        <time>2015-08-17T18:08:48Z</time>
      </trkpt>
      <trkpt lat="47.18817" lon="2.13978">
        <ele>121.74</ele>
        <time>2015-08-17T18:09:03Z</time>
      </trkpt>
      <trkpt lat="47.1879" lon="2.14058">
        <ele>121.26</ele>
        <time>2015-08-17T18:09:23Z</time>
      </trkpt>
      <trkpt lat="47.18766" lon="2.14129">
        <ele>120.3</ele>
        <time>2015-08-17T18:09:40Z</time>
      </trkpt>
      <trkpt lat="47.18731" lon="2.14219">
        <ele>119.34</ele>
        <time>2015-08-17T18:09:59Z</time>
      </trkpt>
      <trkpt lat="47.18686" lon="2.14319">
        <ele>119.34</ele>
        <time>2015-08-17T18:10:19Z</time>
      </trkpt>
      <trkpt lat="47.18639" lon="2.1442">
        <ele>119.82</ele>
        <time>2015-08-17T18:10:38Z</time>
      </trkpt>
      <trkpt lat="47.18594" lon="2.14502">
        <ele>120.3</ele>
        <time>2015-08-17T18:10:55Z</time>
      </trkpt>
      <trkpt lat="47.18566" lon="2.1455">
        <ele>120.78</ele>
        <time>2015-08-17T18:11:06Z</time>
      </trkpt>
      <trkpt lat="47.18536" lon="2.14604">
        <ele>121.74</ele>
        <time>2015-08-17T18:11:20Z</time>
      </trkpt>
      <trkpt lat="47.18492" lon="2.14681">
        <ele>120.78</ele>
        <time>2015-08-17T18:11:40Z</time>
      </trkpt>
      <trkpt lat="47.18454" lon="2.14761">
        <ele>120.3</ele>
        <time>2015-08-17T18:11:59Z</time>
      </trkpt>
      <trkpt lat="47.18422" lon="2.14825">
        <ele>119.34</ele>
        <time>2015-08-17T18:12:15Z</time>
      </trkpt>
      <trkpt lat="47.18399" lon="2.14875">
        <ele>118.86</ele>
        <time>2015-08-17T18:12:28Z</time>
      </trkpt>
      <trkpt lat="47.18371" lon="2.1493">
        <ele>118.38</ele>
        <time>2015-08-17T18:12:43Z</time>
      </trkpt>
      <trkpt lat="47.18342" lon="2.14973">
        <ele>117.42</ele>
        <time>2015-08-17T18:12:57Z</time>
      </trkpt>
      <trkpt lat="47.18294" lon="2.15027">
        <ele>116.94</ele>
        <time>2015-08-17T18:13:16Z</time>
      </trkpt>
      <trkpt lat="47.18255" lon="2.15069">
        <ele>116.46</ele>
        <time>2015-08-17T18:13:32Z</time>
      </trkpt>
      <trkpt lat="47.1822" lon="2.15113">
        <ele>116.46</ele>
        <time>2015-08-17T18:13:46Z</time>
      </trkpt>
      <trkpt lat="47.18193" lon="2.15146">
        <ele>116.94</ele>
        <time>2015-08-17T18:13:58Z</time>
      </trkpt>
      <trkpt lat="47.18161" lon="2.15178">
        <ele>117.42</ele>
        <time>2015-08-17T18:14:15Z</time>
      </trkpt>
      <trkpt lat="47.18132" lon="2.15209">
        <ele>116.94</ele>
        <time>2015-08-17T18:14:32Z</time>
      </trkpt>
      <trkpt lat="47.18118" lon="2.15214">
        <ele>116.94</ele>
        <time>2015-08-17T18:14:43Z</time>
      </trkpt>
      <trkpt lat="47.18116" lon="2.152">
        <ele>116.94</ele>
        <time>2015-08-17T18:14:51Z</time>
      </trkpt>
      <trkpt lat="47.18113" lon="2.15192">
        <ele>116.46</ele>
        <time>2015-08-17T18:14:56Z</time>
      </trkpt>
      <trkpt lat="47.18112" lon="2.15188">
        <ele>116.94</ele>
        <time>2015-08-17T18:15:07Z</time>
      </trkpt>
      <trkpt lat="47.18113" lon="2.15188">
        <ele>116.46</ele>
        <time>2015-08-17T18:15:32Z</time>
      </trkpt>
      <trkpt lat="47.18115" lon="2.15186">
        <ele>116.46</ele>
        <time>2015-08-17T18:15:46Z</time>
      </trkpt>
      <trkpt lat="47.18115" lon="2.15186">
        <ele>116.46</ele>
        <time>2015-08-17T18:15:49Z</time>
      </trkpt>
      <trkpt lat="47.18117" lon="2.15186">
        <ele>116.94</ele>
        <time>2015-08-17T18:16:26Z</time>
      </trkpt>
      <trkpt lat="47.18117" lon="2.15189">
        <ele>116.94</ele>
        <time>2015-08-17T18:17:00Z</time>
      </trkpt>
      <trkpt lat="47.18116" lon="2.15188">
        <ele>116.94</ele>
        <time>2015-08-17T18:17:27Z</time>
      </trkpt>
      <trkpt lat="47.18116" lon="2.15186">
        <ele>116.94</ele>
        <time>2015-08-17T18:17:55Z</time>
      </trkpt>
      <trkpt lat="47.18116" lon="2.15185">
        <ele>116.94</ele>
        <time>2015-08-17T18:18:26Z</time>
      </trkpt>
      <trkpt lat="47.18114" lon="2.15185">
        <ele>116.94</ele>
        <time>2015-08-17T18:19:00Z</time>
      </trkpt>
      <trkpt lat="47.18115" lon="2.15186">
        <ele>116.94</ele>
        <time>2015-08-17T18:19:23Z</time>
      </trkpt>
      <trkpt lat="47.18113" lon="2.15197">
        <ele>116.94</ele>
        <time>2015-08-17T18:19:37Z</time>
      </trkpt>
      <trkpt lat="47.18113" lon="2.15202">
        <ele>116.94</ele>
        <time>2015-08-17T18:19:40Z</time>
      </trkpt>
      <trkpt lat="47.18117" lon="2.15218">
        <ele>117.42</ele>
        <time>2015-08-17T18:19:46Z</time>
      </trkpt>
      <trkpt lat="47.18114" lon="2.15224">
        <ele>117.42</ele>
        <time>2015-08-17T18:19:49Z</time>
      </trkpt>
      <trkpt lat="47.1808" lon="2.15254">
        <ele>117.9</ele>
        <time>2015-08-17T18:20:01Z</time>
      </trkpt>
      <trkpt lat="47.18036" lon="2.15286">
        <ele>117.9</ele>
        <time>2015-08-17T18:20:12Z</time>
      </trkpt>
      <trkpt lat="47.17971" lon="2.15333">
        <ele>117.42</ele>
        <time>2015-08-17T18:20:28Z</time>
      </trkpt>
      <trkpt lat="47.17899" lon="2.15387">
        <ele>118.38</ele>
        <time>2015-08-17T18:20:46Z</time>
      </trkpt>
      <trkpt lat="47.17895" lon="2.1539">
        <ele>118.38</ele>
        <time>2015-08-17T18:20:47Z</time>
      </trkpt>
      <trkpt lat="47.17883" lon="2.15398">
        <ele>117.9</ele>
        <time>2015-08-17T18:20:50Z</time>
      </trkpt>
      <trkpt lat="47.17834" lon="2.15436">
        <ele>118.38</ele>
        <time>2015-08-17T18:21:04Z</time>
      </trkpt>
      <trkpt lat="47.17787" lon="2.15471">
        <ele>119.34</ele>
        <time>2015-08-17T18:21:18Z</time>
      </trkpt>
      <trkpt lat="47.17783" lon="2.15474">
        <ele>119.82</ele>
        <time>2015-08-17T18:21:19Z</time>
      </trkpt>
      <trkpt lat="47.17757" lon="2.15491">
        <ele>120.3</ele>
        <time>2015-08-17T18:21:24Z</time>
      </trkpt>
      <trkpt lat="47.17685" lon="2.15547">
        <ele>122.71</ele>
        <time>2015-08-17T18:21:40Z</time>
      </trkpt>
      <trkpt lat="47.17681" lon="2.15549">
        <ele>122.71</ele>
        <time>2015-08-17T18:21:41Z</time>
      </trkpt>
      <trkpt lat="47.17677" lon="2.15553">
        <ele>123.19</ele>
        <time>2015-08-17T18:21:42Z</time>
      </trkpt>
      <trkpt lat="47.17673" lon="2.15557">
        <ele>123.19</ele>
        <time>2015-08-17T18:21:43Z</time>
      </trkpt>
      <trkpt lat="47.1767" lon="2.15561">
        <ele>124.15</ele>
        <time>2015-08-17T18:21:44Z</time>
      </trkpt>
      <trkpt lat="47.17666" lon="2.15563">
        <ele>124.63</ele>
        <time>2015-08-17T18:21:45Z</time>
      </trkpt>
      <trkpt lat="47.17662" lon="2.15566">
        <ele>126.55</ele>
        <time>2015-08-17T18:21:46Z</time>
      </trkpt>
      <trkpt lat="47.17658" lon="2.15569">
        <ele>127.03</ele>
        <time>2015-08-17T18:21:47Z</time>
      </trkpt>
      <trkpt lat="47.17654" lon="2.15573">
        <ele>125.11</ele>
        <time>2015-08-17T18:21:48Z</time>
      </trkpt>
      <trkpt lat="47.1765" lon="2.15577">
        <ele>124.15</ele>
        <time>2015-08-17T18:21:49Z</time>
      </trkpt>
      <trkpt lat="47.17642" lon="2.15584">
        <ele>123.67</ele>
        <time>2015-08-17T18:21:51Z</time>
      </trkpt>
      <trkpt lat="47.17621" lon="2.15603">
        <ele>124.15</ele>
        <time>2015-08-17T18:21:56Z</time>
      </trkpt>
      <trkpt lat="47.17617" lon="2.15607">
        <ele>124.63</ele>
        <time>2015-08-17T18:21:57Z</time>
      </trkpt>
      <trkpt lat="47.17613" lon="2.1561">
        <ele>124.15</ele>
        <time>2015-08-17T18:21:58Z</time>
      </trkpt>
      <trkpt lat="47.17553" lon="2.15664">
        <ele>125.59</ele>
        <time>2015-08-17T18:22:12Z</time>
      </trkpt>
      <trkpt lat="47.17509" lon="2.15702">
        <ele>126.55</ele>
        <time>2015-08-17T18:22:25Z</time>
      </trkpt>
      <trkpt lat="47.1748" lon="2.15726">
        <ele>126.07</ele>
        <time>2015-08-17T18:22:39Z</time>
      </trkpt>
      <trkpt lat="47.17446" lon="2.15754">
        <ele>126.07</ele>
        <time>2015-08-17T18:22:55Z</time>
      </trkpt>
      <trkpt lat="47.17426" lon="2.1577">
        <ele>126.07</ele>
        <time>2015-08-17T18:23:08Z</time>
      </trkpt>
      <trkpt lat="47.17424" lon="2.15771">
        <ele>126.55</ele>
        <time>2015-08-17T18:23:09Z</time>
      </trkpt>
      <trkpt lat="47.17422" lon="2.15772">
        <ele>126.07</ele>
        <time>2015-08-17T18:23:10Z</time>
      </trkpt>
      <trkpt lat="47.1742" lon="2.15773">
        <ele>126.07</ele>
        <time>2015-08-17T18:23:11Z</time>
      </trkpt>
      <trkpt lat="47.17418" lon="2.15774">
        <ele>126.07</ele>
        <time>2015-08-17T18:23:12Z</time>
      </trkpt>
      <trkpt lat="47.17416" lon="2.15775">
        <ele>126.07</ele>
        <time>2015-08-17T18:23:13Z</time>
      </trkpt>
      <trkpt lat="47.17414" lon="2.15777">
        <ele>126.07</ele>
        <time>2015-08-17T18:23:14Z</time>
      </trkpt>
      <trkpt lat="47.1739" lon="2.15796">
        <ele>125.59</ele>
        <time>2015-08-17T18:23:28Z</time>
      </trkpt>
      <trkpt lat="47.17389" lon="2.15797">
        <ele>125.59</ele>
        <time>2015-08-17T18:23:29Z</time>
      </trkpt>
      <trkpt lat="47.17388" lon="2.15799">
        <ele>125.59</ele>
        <time>2015-08-17T18:23:30Z</time>
      </trkpt>
      <trkpt lat="47.17378" lon="2.15807">
        <ele>125.59</ele>
        <time>2015-08-17T18:23:35Z</time>
      </trkpt>
      <trkpt lat="47.17376" lon="2.15808">
        <ele>125.59</ele>
        <time>2015-08-17T18:23:36Z</time>
      </trkpt>
      <trkpt lat="47.17375" lon="2.1581">
        <ele>125.59</ele>
        <time>2015-08-17T18:23:37Z</time>
      </trkpt>
      <trkpt lat="47.17373" lon="2.15812">
        <ele>125.11</ele>
        <time>2015-08-17T18:23:38Z</time>
      </trkpt>
      <trkpt lat="47.17372" lon="2.15815">
        <ele>125.59</ele>
        <time>2015-08-17T18:23:39Z</time>
      </trkpt>
      <trkpt lat="47.17371" lon="2.15818">
        <ele>125.11</ele>
        <time>2015-08-17T18:23:40Z</time>
      </trkpt>
      <trkpt lat="47.17369" lon="2.15819">
        <ele>125.59</ele>
        <time>2015-08-17T18:23:41Z</time>
      </trkpt>
      <trkpt lat="47.17366" lon="2.15821">
        <ele>125.59</ele>
        <time>2015-08-17T18:23:42Z</time>
      </trkpt>
      <trkpt lat="47.17364" lon="2.15822">
        <ele>125.59</ele>
        <time>2015-08-17T18:23:43Z</time>
      </trkpt>
      <trkpt lat="47.17362" lon="2.15824">
        <ele>125.59</ele>
        <time>2015-08-17T18:23:44Z</time>
      </trkpt>
      <trkpt lat="47.17359" lon="2.15826">
        <ele>125.11</ele>
        <time>2015-08-17T18:23:45Z</time>
      </trkpt>
      <trkpt lat="47.17357" lon="2.15828">
        <ele>125.59</ele>
        <time>2015-08-17T18:23:46Z</time>
      </trkpt>
      <trkpt lat="47.17355" lon="2.1583">
        <ele>125.11</ele>
        <time>2015-08-17T18:23:47Z</time>
      </trkpt>
      <trkpt lat="47.17354" lon="2.15833">
        <ele>125.11</ele>
        <time>2015-08-17T18:23:48Z</time>
      </trkpt>
      <trkpt lat="47.17352" lon="2.15836">
        <ele>125.11</ele>
        <time>2015-08-17T18:23:49Z</time>
      </trkpt>
      <trkpt lat="47.17351" lon="2.15838">
        <ele>125.11</ele>
        <time>2015-08-17T18:23:50Z</time>
      </trkpt>
      <trkpt lat="47.1735" lon="2.15841">
        <ele>125.11</ele>
        <time>2015-08-17T18:23:51Z</time>
      </trkpt>
      <trkpt lat="47.1735" lon="2.15844">
        <ele>124.63</ele>
        <time>2015-08-17T18:23:52Z</time>
      </trkpt>
      <trkpt lat="47.17377" lon="2.15887">
        <ele>124.63</ele>
        <time>2015-08-17T18:24:06Z</time>
      </trkpt>
      <trkpt lat="47.17408" lon="2.15932">
        <ele>124.63</ele>
        <time>2015-08-17T18:24:20Z</time>
      </trkpt>
      <trkpt lat="47.17436" lon="2.15972">
        <ele>124.63</ele>
        <time>2015-08-17T18:24:33Z</time>
      </trkpt>
      <trkpt lat="47.1744" lon="2.15978">
        <ele>125.59</ele>
        <time>2015-08-17T18:24:35Z</time>
      </trkpt>
      <trkpt lat="47.1745" lon="2.15994">
        <ele>123.67</ele>
        <time>2015-08-17T18:24:41Z</time>
      </trkpt>
      <trkpt lat="47.1748" lon="2.16038">
        <ele>122.22</ele>
        <time>2015-08-17T18:24:57Z</time>
      </trkpt>
      <trkpt lat="47.17505" lon="2.16074">
        <ele>121.26</ele>
        <time>2015-08-17T18:25:10Z</time>
      </trkpt>
      <trkpt lat="47.17535" lon="2.16117">
        <ele>120.3</ele>
        <time>2015-08-17T18:25:25Z</time>
      </trkpt>
      <trkpt lat="47.17571" lon="2.1616">
        <ele>118.86</ele>
        <time>2015-08-17T18:25:41Z</time>
      </trkpt>
      <trkpt lat="47.17606" lon="2.16195">
        <ele>117.9</ele>
        <time>2015-08-17T18:25:56Z</time>
      </trkpt>
      <trkpt lat="47.17646" lon="2.16241">
        <ele>117.42</ele>
        <time>2015-08-17T18:26:12Z</time>
      </trkpt>
      <trkpt lat="47.17677" lon="2.16268">
        <ele>117.42</ele>
        <time>2015-08-17T18:26:24Z</time>
      </trkpt>
      <trkpt lat="47.1768" lon="2.16269">
        <ele>117.42</ele>
        <time>2015-08-17T18:26:25Z</time>
      </trkpt>
      <trkpt lat="47.17683" lon="2.16272">
        <ele>117.42</ele>
        <time>2015-08-17T18:26:26Z</time>
      </trkpt>
      <trkpt lat="47.1769" lon="2.16307">
        <ele>116.94</ele>
        <time>2015-08-17T18:26:34Z</time>
      </trkpt>
      <trkpt lat="47.17711" lon="2.1637">
        <ele>116.46</ele>
        <time>2015-08-17T18:26:48Z</time>
      </trkpt>
      <trkpt lat="47.17723" lon="2.1641">
        <ele>116.46</ele>
        <time>2015-08-17T18:26:59Z</time>
      </trkpt>
      <trkpt lat="47.17723" lon="2.16459">
        <ele>115.98</ele>
        <time>2015-08-17T18:27:12Z</time>
      </trkpt>
      <trkpt lat="47.17723" lon="2.16462">
        <ele>115.98</ele>
        <time>2015-08-17T18:27:13Z</time>
      </trkpt>
      <trkpt lat="47.17723" lon="2.16464">
        <ele>115.98</ele>
        <time>2015-08-17T18:27:14Z</time>
      </trkpt>
      <trkpt lat="47.17722" lon="2.16467">
        <ele>115.98</ele>
        <time>2015-08-17T18:27:15Z</time>
      </trkpt>
      <trkpt lat="47.17722" lon="2.1647">
        <ele>115.98</ele>
        <time>2015-08-17T18:27:16Z</time>
      </trkpt>
      <trkpt lat="47.17721" lon="2.16473">
        <ele>115.98</ele>
        <time>2015-08-17T18:27:17Z</time>
      </trkpt>
      <trkpt lat="47.17721" lon="2.16476">
        <ele>115.98</ele>
        <time>2015-08-17T18:27:18Z</time>
      </trkpt>
      <trkpt lat="47.1772" lon="2.16478">
        <ele>115.98</ele>
        <time>2015-08-17T18:27:19Z</time>
      </trkpt>
      <trkpt lat="47.17718" lon="2.16481">
        <ele>115.98</ele>
        <time>2015-08-17T18:27:20Z</time>
      </trkpt>
      <trkpt lat="47.17715" lon="2.16482">
        <ele>115.98</ele>
        <time>2015-08-17T18:27:21Z</time>
      </trkpt>
      <trkpt lat="47.17712" lon="2.16482">
        <ele>115.98</ele>
        <time>2015-08-17T18:27:22Z</time>
      </trkpt>
      <trkpt lat="47.17709" lon="2.16481">
        <ele>115.98</ele>
        <time>2015-08-17T18:27:23Z</time>
      </trkpt>
      <trkpt lat="47.17707" lon="2.1648">
        <ele>115.98</ele>
        <time>2015-08-17T18:27:24Z</time>
      </trkpt>
      <trkpt lat="47.17705" lon="2.16478">
        <ele>115.98</ele>
        <time>2015-08-17T18:27:25Z</time>
      </trkpt>
      <trkpt lat="47.17702" lon="2.16475">
        <ele>116.46</ele>
        <time>2015-08-17T18:27:26Z</time>
      </trkpt>
      <trkpt lat="47.17699" lon="2.16473">
        <ele>116.46</ele>
        <time>2015-08-17T18:27:27Z</time>
      </trkpt>
      <trkpt lat="47.17697" lon="2.16473">
        <ele>116.46</ele>
        <time>2015-08-17T18:27:28Z</time>
      </trkpt>
      <trkpt lat="47.17674" lon="2.16506">
        <ele>116.46</ele>
        <time>2015-08-17T18:27:39Z</time>
      </trkpt>
      <trkpt lat="47.17684" lon="2.16541">
        <ele>115.5</ele>
        <time>2015-08-17T18:27:50Z</time>
      </trkpt>
      <trkpt lat="47.17715" lon="2.16574">
        <ele>114.53</ele>
        <time>2015-08-17T18:28:04Z</time>
      </trkpt>
      <trkpt lat="47.17717" lon="2.16575">
        <ele>114.05</ele>
        <time>2015-08-17T18:28:05Z</time>
      </trkpt>
      <trkpt lat="47.17719" lon="2.16575">
        <ele>114.05</ele>
        <time>2015-08-17T18:28:06Z</time>
      </trkpt>
      <trkpt lat="47.1772" lon="2.16577">
        <ele>114.53</ele>
        <time>2015-08-17T18:28:07Z</time>
      </trkpt>
      <trkpt lat="47.17722" lon="2.16579">
        <ele>114.05</ele>
        <time>2015-08-17T18:28:08Z</time>
      </trkpt>
      <trkpt lat="47.17721" lon="2.16598">
        <ele>114.05</ele>
        <time>2015-08-17T18:28:13Z</time>
      </trkpt>
      <trkpt lat="47.17707" lon="2.16661">
        <ele>113.09</ele>
        <time>2015-08-17T18:28:29Z</time>
      </trkpt>
      <trkpt lat="47.17706" lon="2.16664">
        <ele>113.09</ele>
        <time>2015-08-17T18:28:30Z</time>
      </trkpt>
      <trkpt lat="47.17705" lon="2.16666">
        <ele>113.57</ele>
        <time>2015-08-17T18:28:31Z</time>
      </trkpt>
      <trkpt lat="47.17706" lon="2.16671">
        <ele>113.57</ele>
        <time>2015-08-17T18:28:56Z</time>
      </trkpt>
      <trkpt lat="47.17709" lon="2.16673">
        <ele>113.57</ele>
        <time>2015-08-17T18:29:15Z</time>
      </trkpt>
      <trkpt lat="47.17731" lon="2.16725">
        <ele>112.61</ele>
        <time>2015-08-17T18:29:30Z</time>
      </trkpt>
      <trkpt lat="47.17726" lon="2.16789">
        <ele>112.61</ele>
        <time>2015-08-17T18:29:43Z</time>
      </trkpt>
      <trkpt lat="47.17736" lon="2.16845">
        <ele>112.13</ele>
        <time>2015-08-17T18:29:57Z</time>
      </trkpt>
      <trkpt lat="47.17748" lon="2.16888">
        <ele>111.65</ele>
        <time>2015-08-17T18:30:11Z</time>
      </trkpt>
      <trkpt lat="47.1778" lon="2.16918">
        <ele>110.21</ele>
        <time>2015-08-17T18:30:26Z</time>
      </trkpt>
      <trkpt lat="47.17813" lon="2.16947">
        <ele>109.25</ele>
        <time>2015-08-17T18:30:40Z</time>
      </trkpt>
      <trkpt lat="47.17815" lon="2.1695">
        <ele>109.25</ele>
        <time>2015-08-17T18:30:41Z</time>
      </trkpt>
      <trkpt lat="47.17817" lon="2.16953">
        <ele>109.25</ele>
        <time>2015-08-17T18:30:42Z</time>
      </trkpt>
      <trkpt lat="47.17819" lon="2.16956">
        <ele>109.25</ele>
        <time>2015-08-17T18:30:43Z</time>
      </trkpt>
      <trkpt lat="47.17821" lon="2.16959">
        <ele>109.25</ele>
        <time>2015-08-17T18:30:44Z</time>
      </trkpt>
      <trkpt lat="47.17822" lon="2.16962">
        <ele>109.25</ele>
        <time>2015-08-17T18:30:45Z</time>
      </trkpt>
      <trkpt lat="47.17821" lon="2.16986">
        <ele>108.77</ele>
        <time>2015-08-17T18:30:52Z</time>
      </trkpt>
      <trkpt lat="47.17829" lon="2.1704">
        <ele>109.25</ele>
        <time>2015-08-17T18:31:06Z</time>
      </trkpt>
      <trkpt lat="47.17838" lon="2.17083">
        <ele>108.77</ele>
        <time>2015-08-17T18:31:19Z</time>
      </trkpt>
      <trkpt lat="47.17842" lon="2.17101">
        <ele>108.77</ele>
        <time>2015-08-17T18:31:31Z</time>
      </trkpt>
      <trkpt lat="47.17854" lon="2.17127">
        <ele>109.25</ele>
        <time>2015-08-17T18:31:43Z</time>
      </trkpt>
      <trkpt lat="47.17866" lon="2.17159">
        <ele>110.21</ele>
        <time>2015-08-17T18:31:53Z</time>
      </trkpt>
      <trkpt lat="47.17866" lon="2.17162">
        <ele>110.69</ele>
        <time>2015-08-17T18:31:54Z</time>
      </trkpt>
      <trkpt lat="47.17867" lon="2.17167">
        <ele>110.69</ele>
        <time>2015-08-17T18:31:56Z</time>
      </trkpt>
      <trkpt lat="47.17868" lon="2.1717">
        <ele>110.69</ele>
        <time>2015-08-17T18:31:57Z</time>
      </trkpt>
      <trkpt lat="47.17869" lon="2.17172">
        <ele>110.69</ele>
        <time>2015-08-17T18:31:58Z</time>
      </trkpt>
      <trkpt lat="47.17869" lon="2.17174">
        <ele>110.69</ele>
        <time>2015-08-17T18:31:59Z</time>
      </trkpt>
      <trkpt lat="47.1787" lon="2.17175">
        <ele>110.69</ele>
        <time>2015-08-17T18:32:00Z</time>
      </trkpt>
      <trkpt lat="47.17871" lon="2.17177">
        <ele>110.69</ele>
        <time>2015-08-17T18:32:01Z</time>
      </trkpt>
      <trkpt lat="47.17871" lon="2.17179">
        <ele>110.69</ele>
        <time>2015-08-17T18:32:16Z</time>
      </trkpt>
      <trkpt lat="47.17868" lon="2.17184">
        <ele>110.69</ele>
        <time>2015-08-17T18:32:27Z</time>
      </trkpt>
      <trkpt lat="47.17844" lon="2.17209">
        <ele>110.21</ele>
        <time>2015-08-17T18:32:42Z</time>
      </trkpt>
      <trkpt lat="47.17819" lon="2.17235">
        <ele>110.21</ele>
        <time>2015-08-17T18:32:56Z</time>
      </trkpt>
      <trkpt lat="47.1779" lon="2.17263">
        <ele>110.21</ele>
        <time>2015-08-17T18:33:12Z</time>
      </trkpt>
      <trkpt lat="47.17764" lon="2.17289">
        <ele>110.21</ele>
        <time>2015-08-17T18:33:26Z</time>
      </trkpt>
      <trkpt lat="47.17737" lon="2.17311">
        <ele>110.21</ele>
        <time>2015-08-17T18:33:41Z</time>
      </trkpt>
      <trkpt lat="47.17708" lon="2.17338">
        <ele>110.21</ele>
        <time>2015-08-17T18:33:57Z</time>
      </trkpt>
      <trkpt lat="47.17679" lon="2.17368">
        <ele>110.21</ele>
        <time>2015-08-17T18:34:13Z</time>
      </trkpt>
      <trkpt lat="47.17655" lon="2.17391">
        <ele>110.69</ele>
        <time>2015-08-17T18:34:26Z</time>
      </trkpt>
      <trkpt lat="47.17635" lon="2.17409">
        <ele>110.69</ele>
        <time>2015-08-17T18:34:38Z</time>
      </trkpt>
      <trkpt lat="47.17612" lon="2.17431">
        <ele>110.21</ele>
        <time>2015-08-17T18:34:51Z</time>
      </trkpt>
      <trkpt lat="47.176" lon="2.17444">
        <ele>110.69</ele>
        <time>2015-08-17T18:35:03Z</time>
      </trkpt>
      <trkpt lat="47.17594" lon="2.17449">
        <ele>110.69</ele>
        <time>2015-08-17T18:35:14Z</time>
      </trkpt>
      <trkpt lat="47.1757" lon="2.17473">
        <ele>110.69</ele>
        <time>2015-08-17T18:35:28Z</time>
      </trkpt>
      <trkpt lat="47.17542" lon="2.17499">
        <ele>110.69</ele>
        <time>2015-08-17T18:35:44Z</time>
      </trkpt>
      <trkpt lat="47.17513" lon="2.17527">
        <ele>110.69</ele>
        <time>2015-08-17T18:36:00Z</time>
      </trkpt>
      <trkpt lat="47.17481" lon="2.17556">
        <ele>110.69</ele>
        <time>2015-08-17T18:36:16Z</time>
      </trkpt>
      <trkpt lat="47.17451" lon="2.17586">
        <ele>110.69</ele>
        <time>2015-08-17T18:36:31Z</time>
      </trkpt>
      <trkpt lat="47.17417" lon="2.17621">
        <ele>110.69</ele>
        <time>2015-08-17T18:36:48Z</time>
      </trkpt>
      <trkpt lat="47.17396" lon="2.17642">
        <ele>110.69</ele>
        <time>2015-08-17T18:37:00Z</time>
      </trkpt>
      <trkpt lat="47.17371" lon="2.17665">
        <ele>111.17</ele>
        <time>2015-08-17T18:37:14Z</time>
      </trkpt>
      <trkpt lat="47.17343" lon="2.17695">
        <ele>111.17</ele>
        <time>2015-08-17T18:37:29Z</time>
      </trkpt>
      <trkpt lat="47.17318" lon="2.17721">
        <ele>111.17</ele>
        <time>2015-08-17T18:37:43Z</time>
      </trkpt>
      <trkpt lat="47.17292" lon="2.17745">
        <ele>111.17</ele>
        <time>2015-08-17T18:37:57Z</time>
      </trkpt>
      <trkpt lat="47.17269" lon="2.17769">
        <ele>111.17</ele>
        <time>2015-08-17T18:38:10Z</time>
      </trkpt>
      <trkpt lat="47.17244" lon="2.17797">
        <ele>111.17</ele>
        <time>2015-08-17T18:38:25Z</time>
      </trkpt>
      <trkpt lat="47.17222" lon="2.17814">
        <ele>111.17</ele>
        <time>2015-08-17T18:38:37Z</time>
      </trkpt>
      <trkpt lat="47.17197" lon="2.17838">
        <ele>111.17</ele>
        <time>2015-08-17T18:38:51Z</time>
      </trkpt>
      <trkpt lat="47.17169" lon="2.17865">
        <ele>111.17</ele>
        <time>2015-08-17T18:39:06Z</time>
      </trkpt>
      <trkpt lat="47.17139" lon="2.17893">
        <ele>111.17</ele>
        <time>2015-08-17T18:39:21Z</time>
      </trkpt>
      <trkpt lat="47.17112" lon="2.17918">
        <ele>111.65</ele>
        <time>2015-08-17T18:39:35Z</time>
      </trkpt>
      <trkpt lat="47.1711" lon="2.17919">
        <ele>111.17</ele>
        <time>2015-08-17T18:39:36Z</time>
      </trkpt>
      <trkpt lat="47.17108" lon="2.17921">
        <ele>111.17</ele>
        <time>2015-08-17T18:39:37Z</time>
      </trkpt>
      <trkpt lat="47.17105" lon="2.17923">
        <ele>111.17</ele>
        <time>2015-08-17T18:39:38Z</time>
      </trkpt>
      <trkpt lat="47.17103" lon="2.17924">
        <ele>111.17</ele>
        <time>2015-08-17T18:39:39Z</time>
      </trkpt>
      <trkpt lat="47.17101" lon="2.17926">
        <ele>111.17</ele>
        <time>2015-08-17T18:39:40Z</time>
      </trkpt>
      <trkpt lat="47.17097" lon="2.17931">
        <ele>111.65</ele>
        <time>2015-08-17T18:39:42Z</time>
      </trkpt>
      <trkpt lat="47.17077" lon="2.17951">
        <ele>111.17</ele>
        <time>2015-08-17T18:39:53Z</time>
      </trkpt>
      <trkpt lat="47.17051" lon="2.17976">
        <ele>111.17</ele>
        <time>2015-08-17T18:40:07Z</time>
      </trkpt>
      <trkpt lat="47.17028" lon="2.18">
        <ele>111.17</ele>
        <time>2015-08-17T18:40:21Z</time>
      </trkpt>
      <trkpt lat="47.17007" lon="2.18023">
        <ele>111.17</ele>
        <time>2015-08-17T18:40:35Z</time>
      </trkpt>
      <trkpt lat="47.17005" lon="2.18024">
        <ele>111.17</ele>
        <time>2015-08-17T18:40:36Z</time>
      </trkpt>
      <trkpt lat="47.17003" lon="2.18028">
        <ele>111.17</ele>
        <time>2015-08-17T18:40:50Z</time>
      </trkpt>
      <trkpt lat="47.17001" lon="2.18028">
        <ele>111.17</ele>
        <time>2015-08-17T18:41:16Z</time>
      </trkpt>
      <trkpt lat="47.16997" lon="2.18031">
        <ele>111.17</ele>
        <time>2015-08-17T18:41:33Z</time>
      </trkpt>
      <trkpt lat="47.16993" lon="2.18032">
        <ele>111.65</ele>
        <time>2015-08-17T18:41:47Z</time>
      </trkpt>
      <trkpt lat="47.16968" lon="2.18042">
        <ele>112.61</ele>
        <time>2015-08-17T18:42:01Z</time>
      </trkpt>
      <trkpt lat="47.16931" lon="2.18056">
        <ele>111.65</ele>
        <time>2015-08-17T18:42:16Z</time>
      </trkpt>
      <trkpt lat="47.16886" lon="2.18067">
        <ele>110.69</ele>
        <time>2015-08-17T18:42:30Z</time>
      </trkpt>
      <trkpt lat="47.16853" lon="2.18002">
        <ele>110.69</ele>
        <time>2015-08-17T18:42:44Z</time>
      </trkpt>
      <trkpt lat="47.1681" lon="2.17911">
        <ele>112.13</ele>
        <time>2015-08-17T18:43:01Z</time>
      </trkpt>
      <trkpt lat="47.16783" lon="2.17869">
        <ele>114.53</ele>
        <time>2015-08-17T18:43:12Z</time>
      </trkpt>
      <trkpt lat="47.16765" lon="2.17837">
        <ele>115.98</ele>
        <time>2015-08-17T18:43:22Z</time>
      </trkpt>
      <trkpt lat="47.16751" lon="2.17815">
        <ele>115.98</ele>
        <time>2015-08-17T18:43:27Z</time>
      </trkpt>
      <trkpt lat="47.16748" lon="2.17811">
        <ele>115.98</ele>
        <time>2015-08-17T18:43:28Z</time>
      </trkpt>
      <trkpt lat="47.16745" lon="2.17808">
        <ele>116.46</ele>
        <time>2015-08-17T18:43:29Z</time>
      </trkpt>
      <trkpt lat="47.16743" lon="2.17805">
        <ele>116.46</ele>
        <time>2015-08-17T18:43:30Z</time>
      </trkpt>
      <trkpt lat="47.16741" lon="2.17802">
        <ele>116.46</ele>
        <time>2015-08-17T18:43:31Z</time>
      </trkpt>
      <trkpt lat="47.16739" lon="2.178">
        <ele>116.46</ele>
        <time>2015-08-17T18:43:32Z</time>
      </trkpt>
      <trkpt lat="47.16738" lon="2.17797">
        <ele>116.46</ele>
        <time>2015-08-17T18:43:33Z</time>
      </trkpt>
      <trkpt lat="47.16737" lon="2.17796">
        <ele>116.46</ele>
        <time>2015-08-17T18:43:34Z</time>
      </trkpt>
      <trkpt lat="47.16736" lon="2.17794">
        <ele>116.46</ele>
        <time>2015-08-17T18:43:41Z</time>
      </trkpt>
      <trkpt lat="47.16735" lon="2.17794">
        <ele>116.94</ele>
        <time>2015-08-17T18:44:11Z</time>
      </trkpt>
      <trkpt lat="47.16734" lon="2.17795">
        <ele>116.94</ele>
        <time>2015-08-17T18:44:44Z</time>
      </trkpt>
      <trkpt lat="47.16734" lon="2.17796">
        <ele>116.94</ele>
        <time>2015-08-17T18:45:15Z</time>
      </trkpt>
      <trkpt lat="47.16733" lon="2.17796">
        <ele>116.94</ele>
        <time>2015-08-17T18:45:32Z</time>
      </trkpt>
      <trkpt lat="47.16709" lon="2.17821">
        <ele>117.42</ele>
        <time>2015-08-17T18:45:43Z</time>
      </trkpt>
      <trkpt lat="47.16651" lon="2.179">
        <ele>116.94</ele>
        <time>2015-08-17T18:46:02Z</time>
      </trkpt>
      <trkpt lat="47.16594" lon="2.17961">
        <ele>117.42</ele>
        <time>2015-08-17T18:46:20Z</time>
      </trkpt>
      <trkpt lat="47.16537" lon="2.18017">
        <ele>117.9</ele>
        <time>2015-08-17T18:46:37Z</time>
      </trkpt>
      <trkpt lat="47.16488" lon="2.18073">
        <ele>118.38</ele>
        <time>2015-08-17T18:46:53Z</time>
      </trkpt>
      <trkpt lat="47.16436" lon="2.18145">
        <ele>118.86</ele>
        <time>2015-08-17T18:47:10Z</time>
      </trkpt>
      <trkpt lat="47.16389" lon="2.18232">
        <ele>118.86</ele>
        <time>2015-08-17T18:47:31Z</time>
      </trkpt>
      <trkpt lat="47.16359" lon="2.18286">
        <ele>119.34</ele>
        <time>2015-08-17T18:47:45Z</time>
      </trkpt>
      <trkpt lat="47.16312" lon="2.18362">
        <ele>119.82</ele>
        <time>2015-08-17T18:48:03Z</time>
      </trkpt>
      <trkpt lat="47.16306" lon="2.18371">
        <ele>119.82</ele>
        <time>2015-08-17T18:48:05Z</time>
      </trkpt>
      <trkpt lat="47.16282" lon="2.18403">
        <ele>119.82</ele>
        <time>2015-08-17T18:48:13Z</time>
      </trkpt>
      <trkpt lat="47.16279" lon="2.18407">
        <ele>119.82</ele>
        <time>2015-08-17T18:48:14Z</time>
      </trkpt>
      <trkpt lat="47.16223" lon="2.18474">
        <ele>120.3</ele>
        <time>2015-08-17T18:48:31Z</time>
      </trkpt>
      <trkpt lat="47.16174" lon="2.18551">
        <ele>119.82</ele>
        <time>2015-08-17T18:48:50Z</time>
      </trkpt>
      <trkpt lat="47.16134" lon="2.18611">
        <ele>119.34</ele>
        <time>2015-08-17T18:49:06Z</time>
      </trkpt>
      <trkpt lat="47.16076" lon="2.18704">
        <ele>119.34</ele>
        <time>2015-08-17T18:49:26Z</time>
      </trkpt>
      <trkpt lat="47.16002" lon="2.18819">
        <ele>119.34</ele>
        <time>2015-08-17T18:49:48Z</time>
      </trkpt>
      <trkpt lat="47.15961" lon="2.18903">
        <ele>119.34</ele>
        <time>2015-08-17T18:50:02Z</time>
      </trkpt>
      <trkpt lat="47.15916" lon="2.19017">
        <ele>119.82</ele>
        <time>2015-08-17T18:50:22Z</time>
      </trkpt>
      <trkpt lat="47.15873" lon="2.19126">
        <ele>119.34</ele>
        <time>2015-08-17T18:50:41Z</time>
      </trkpt>
      <trkpt lat="47.1583" lon="2.19222">
        <ele>119.34</ele>
        <time>2015-08-17T18:50:59Z</time>
      </trkpt>
      <trkpt lat="47.15828" lon="2.19227">
        <ele>119.34</ele>
        <time>2015-08-17T18:51:00Z</time>
      </trkpt>
      <trkpt lat="47.15798" lon="2.1929">
        <ele>119.82</ele>
        <time>2015-08-17T18:51:12Z</time>
      </trkpt>
      <trkpt lat="47.15767" lon="2.19357">
        <ele>119.82</ele>
        <time>2015-08-17T18:51:25Z</time>
      </trkpt>
      <trkpt lat="47.15712" lon="2.19442">
        <ele>118.86</ele>
        <time>2015-08-17T18:51:45Z</time>
      </trkpt>
      <trkpt lat="47.15655" lon="2.19506">
        <ele>117.9</ele>
        <time>2015-08-17T18:52:04Z</time>
      </trkpt>
      <trkpt lat="47.15572" lon="2.19576">
        <ele>116.94</ele>
        <time>2015-08-17T18:52:22Z</time>
      </trkpt>
      <trkpt lat="47.15483" lon="2.1966">
        <ele>117.9</ele>
        <time>2015-08-17T18:52:41Z</time>
      </trkpt>
      <trkpt lat="47.15391" lon="2.19752">
        <ele>119.34</ele>
        <time>2015-08-17T18:53:01Z</time>
      </trkpt>
      <trkpt lat="47.15332" lon="2.19845">
        <ele>119.82</ele>
        <time>2015-08-17T18:53:19Z</time>
      </trkpt>
      <trkpt lat="47.1529" lon="2.19923">
        <ele>119.34</ele>
        <time>2015-08-17T18:53:35Z</time>
      </trkpt>
      <trkpt lat="47.15242" lon="2.20004">
        <ele>118.86</ele>
        <time>2015-08-17T18:53:51Z</time>
      </trkpt>
      <trkpt lat="47.15133" lon="2.2018">
        <ele>120.3</ele>
        <time>2015-08-17T18:54:25Z</time>
      </trkpt>
      <trkpt lat="47.1513" lon="2.20184">
        <ele>120.3</ele>
        <time>2015-08-17T18:54:26Z</time>
      </trkpt>
      <trkpt lat="47.15127" lon="2.20188">
        <ele>120.3</ele>
        <time>2015-08-17T18:54:27Z</time>
      </trkpt>
      <trkpt lat="47.1509" lon="2.20226">
        <ele>120.3</ele>
        <time>2015-08-17T18:54:40Z</time>
      </trkpt>
      <trkpt lat="47.15087" lon="2.20231">
        <ele>119.82</ele>
        <time>2015-08-17T18:54:42Z</time>
      </trkpt>
      <trkpt lat="47.15085" lon="2.20234">
        <ele>120.3</ele>
        <time>2015-08-17T18:54:50Z</time>
      </trkpt>
      <trkpt lat="47.15102" lon="2.20279">
        <ele>119.34</ele>
        <time>2015-08-17T18:57:59Z</time>
      </trkpt>
      <trkpt lat="47.15131" lon="2.20345">
        <ele>119.34</ele>
        <time>2015-08-17T18:58:15Z</time>
      </trkpt>
      <trkpt lat="47.15161" lon="2.20413">
        <ele>117.9</ele>
        <time>2015-08-17T18:58:32Z</time>
      </trkpt>
      <trkpt lat="47.15187" lon="2.2048">
        <ele>116.94</ele>
        <time>2015-08-17T18:58:48Z</time>
      </trkpt>
      <trkpt lat="47.15211" lon="2.20546">
        <ele>115.98</ele>
        <time>2015-08-17T18:59:04Z</time>
      </trkpt>
      <trkpt lat="47.15246" lon="2.20599">
        <ele>115.01</ele>
        <time>2015-08-17T18:59:20Z</time>
      </trkpt>
      <trkpt lat="47.1529" lon="2.20604">
        <ele>113.09</ele>
        <time>2015-08-17T19:04:00Z</time>
      </trkpt>
      <trkpt lat="47.1529" lon="2.20604">
        <ele>116.46</ele>
        <time>2015-08-17T19:04:01Z</time>
      </trkpt>
      <trkpt lat="47.15288" lon="2.20604">
        <ele>113.57</ele>
        <time>2015-08-17T19:04:24Z</time>
      </trkpt>
      <trkpt lat="47.15287" lon="2.20603">
        <ele>113.57</ele>
        <time>2015-08-17T19:04:40Z</time>
      </trkpt>
      <trkpt lat="47.15286" lon="2.20603">
        <ele>113.57</ele>
        <time>2015-08-17T19:04:41Z</time>
      </trkpt>
      <trkpt lat="47.15285" lon="2.20604">
        <ele>113.57</ele>
        <time>2015-08-17T19:04:42Z</time>
      </trkpt>
      <trkpt lat="47.15284" lon="2.20606">
        <ele>113.57</ele>
        <time>2015-08-17T19:04:43Z</time>
      </trkpt>
      <trkpt lat="47.15283" lon="2.20608">
        <ele>114.05</ele>
        <time>2015-08-17T19:04:44Z</time>
      </trkpt>
      <trkpt lat="47.15282" lon="2.2061">
        <ele>113.57</ele>
        <time>2015-08-17T19:04:45Z</time>
      </trkpt>
      <trkpt lat="47.15273" lon="2.20625">
        <ele>112.61</ele>
        <time>2015-08-17T19:04:52Z</time>
      </trkpt>
      <trkpt lat="47.15237" lon="2.20669">
        <ele>112.13</ele>
        <time>2015-08-17T19:05:08Z</time>
      </trkpt>
      <trkpt lat="47.15211" lon="2.20694">
        <ele>111.65</ele>
        <time>2015-08-17T19:05:20Z</time>
      </trkpt>
      <trkpt lat="47.15174" lon="2.20719">
        <ele>112.13</ele>
        <time>2015-08-17T19:05:33Z</time>
      </trkpt>
      <trkpt lat="47.15138" lon="2.20734">
        <ele>112.13</ele>
        <time>2015-08-17T19:05:43Z</time>
      </trkpt>
      <trkpt lat="47.15093" lon="2.20752">
        <ele>112.13</ele>
        <time>2015-08-17T19:05:58Z</time>
      </trkpt>
      <trkpt lat="47.15089" lon="2.20753">
        <ele>112.13</ele>
        <time>2015-08-17T19:05:59Z</time>
      </trkpt>
      <trkpt lat="47.15086" lon="2.20755">
        <ele>112.61</ele>
        <time>2015-08-17T19:06:00Z</time>
      </trkpt>
      <trkpt lat="47.15083" lon="2.20758">
        <ele>112.13</ele>
        <time>2015-08-17T19:06:01Z</time>
      </trkpt>
      <trkpt lat="47.15081" lon="2.2076">
        <ele>112.13</ele>
        <time>2015-08-17T19:06:02Z</time>
      </trkpt>
      <trkpt lat="47.15078" lon="2.20763">
        <ele>112.13</ele>
        <time>2015-08-17T19:06:03Z</time>
      </trkpt>
      <trkpt lat="47.15042" lon="2.20774">
        <ele>112.13</ele>
        <time>2015-08-17T19:06:16Z</time>
      </trkpt>
      <trkpt lat="47.15017" lon="2.20783">
        <ele>112.13</ele>
        <time>2015-08-17T19:06:26Z</time>
      </trkpt>
      <trkpt lat="47.14978" lon="2.20787">
        <ele>112.61</ele>
        <time>2015-08-17T19:06:38Z</time>
      </trkpt>
      <trkpt lat="47.14951" lon="2.20788">
        <ele>112.61</ele>
        <time>2015-08-17T19:06:49Z</time>
      </trkpt>
      <trkpt lat="47.14923" lon="2.20787">
        <ele>112.13</ele>
        <time>2015-08-17T19:07:02Z</time>
      </trkpt>
      <trkpt lat="47.14921" lon="2.20787">
        <ele>112.61</ele>
        <time>2015-08-17T19:07:03Z</time>
      </trkpt>
      <trkpt lat="47.1492" lon="2.20786">
        <ele>112.61</ele>
        <time>2015-08-17T19:07:04Z</time>
      </trkpt>
      <trkpt lat="47.14918" lon="2.20785">
        <ele>112.61</ele>
        <time>2015-08-17T19:07:24Z</time>
      </trkpt>
      <trkpt lat="47.14916" lon="2.20788">
        <ele>112.61</ele>
        <time>2015-08-17T19:07:42Z</time>
      </trkpt>
      <trkpt lat="47.14883" lon="2.20787">
        <ele>112.61</ele>
        <time>2015-08-17T19:07:54Z</time>
      </trkpt>
      <trkpt lat="47.14838" lon="2.20785">
        <ele>112.13</ele>
        <time>2015-08-17T19:08:07Z</time>
      </trkpt>
      <trkpt lat="47.14771" lon="2.20786">
        <ele>112.61</ele>
        <time>2015-08-17T19:08:24Z</time>
      </trkpt>
      <trkpt lat="47.14711" lon="2.20786">
        <ele>112.13</ele>
        <time>2015-08-17T19:08:40Z</time>
      </trkpt>
      <trkpt lat="47.14655" lon="2.20783">
        <ele>112.13</ele>
        <time>2015-08-17T19:08:54Z</time>
      </trkpt>
      <trkpt lat="47.14625" lon="2.20786">
        <ele>112.13</ele>
        <time>2015-08-17T19:09:01Z</time>
      </trkpt>
      <trkpt lat="47.14582" lon="2.20794">
        <ele>112.13</ele>
        <time>2015-08-17T19:09:14Z</time>
      </trkpt>
      <trkpt lat="47.1455" lon="2.2081">
        <ele>112.13</ele>
        <time>2015-08-17T19:09:26Z</time>
      </trkpt>
      <trkpt lat="47.1452" lon="2.20832">
        <ele>111.65</ele>
        <time>2015-08-17T19:09:37Z</time>
      </trkpt>
      <trkpt lat="47.14503" lon="2.20851">
        <ele>111.65</ele>
        <time>2015-08-17T19:09:47Z</time>
      </trkpt>
      <trkpt lat="47.14501" lon="2.20855">
        <ele>111.65</ele>
        <time>2015-08-17T19:09:48Z</time>
      </trkpt>
      <trkpt lat="47.145" lon="2.2086">
        <ele>111.65</ele>
        <time>2015-08-17T19:09:49Z</time>
      </trkpt>
      <trkpt lat="47.14498" lon="2.20865">
        <ele>111.65</ele>
        <time>2015-08-17T19:09:50Z</time>
      </trkpt>
      <trkpt lat="47.14496" lon="2.20868">
        <ele>111.65</ele>
        <time>2015-08-17T19:09:51Z</time>
      </trkpt>
      <trkpt lat="47.14494" lon="2.20869">
        <ele>111.65</ele>
        <time>2015-08-17T19:09:52Z</time>
      </trkpt>
      <trkpt lat="47.14492" lon="2.20867">
        <ele>111.65</ele>
        <time>2015-08-17T19:09:53Z</time>
      </trkpt>
      <trkpt lat="47.14485" lon="2.2087">
        <ele>111.65</ele>
        <time>2015-08-17T19:10:00Z</time>
      </trkpt>
      <trkpt lat="47.14484" lon="2.20871">
        <ele>111.65</ele>
        <time>2015-08-17T19:10:01Z</time>
      </trkpt>
      <trkpt lat="47.14488" lon="2.20877">
        <ele>112.61</ele>
        <time>2015-08-17T19:10:05Z</time>
      </trkpt>
      <trkpt lat="47.14489" lon="2.20879">
        <ele>112.61</ele>
        <time>2015-08-17T19:10:06Z</time>
      </trkpt>
      <trkpt lat="47.1449" lon="2.20881">
        <ele>112.61</ele>
        <time>2015-08-17T19:10:07Z</time>
      </trkpt>
      <trkpt lat="47.14491" lon="2.20883">
        <ele>112.61</ele>
        <time>2015-08-17T19:10:08Z</time>
      </trkpt>
      <trkpt lat="47.14491" lon="2.20886">
        <ele>112.13</ele>
        <time>2015-08-17T19:10:09Z</time>
      </trkpt>
      <trkpt lat="47.14492" lon="2.20889">
        <ele>112.13</ele>
        <time>2015-08-17T19:10:10Z</time>
      </trkpt>
      <trkpt lat="47.14492" lon="2.20893">
        <ele>111.65</ele>
        <time>2015-08-17T19:10:11Z</time>
      </trkpt>
      <trkpt lat="47.14491" lon="2.20897">
        <ele>111.65</ele>
        <time>2015-08-17T19:10:12Z</time>
      </trkpt>
      <trkpt lat="47.14488" lon="2.209">
        <ele>111.65</ele>
        <time>2015-08-17T19:10:13Z</time>
      </trkpt>
      <trkpt lat="47.14486" lon="2.20903">
        <ele>111.65</ele>
        <time>2015-08-17T19:10:14Z</time>
      </trkpt>
      <trkpt lat="47.14483" lon="2.20906">
        <ele>111.65</ele>
        <time>2015-08-17T19:10:15Z</time>
      </trkpt>
      <trkpt lat="47.14481" lon="2.20909">
        <ele>112.13</ele>
        <time>2015-08-17T19:10:16Z</time>
      </trkpt>
      <trkpt lat="47.14478" lon="2.20913">
        <ele>112.13</ele>
        <time>2015-08-17T19:10:17Z</time>
      </trkpt>
      <trkpt lat="47.14475" lon="2.20917">
        <ele>112.13</ele>
        <time>2015-08-17T19:10:18Z</time>
      </trkpt>
      <trkpt lat="47.14474" lon="2.20921">
        <ele>112.13</ele>
        <time>2015-08-17T19:10:19Z</time>
      </trkpt>
      <trkpt lat="47.14474" lon="2.20925">
        <ele>112.13</ele>
        <time>2015-08-17T19:10:20Z</time>
      </trkpt>
      <trkpt lat="47.14474" lon="2.20929">
        <ele>112.13</ele>
        <time>2015-08-17T19:10:21Z</time>
      </trkpt>
      <trkpt lat="47.14463" lon="2.20947">
        <ele>112.61</ele>
        <time>2015-08-17T19:10:27Z</time>
      </trkpt>
      <trkpt lat="47.14431" lon="2.20979">
        <ele>112.61</ele>
        <time>2015-08-17T19:10:37Z</time>
      </trkpt>
      <trkpt lat="47.14428" lon="2.20982">
        <ele>112.61</ele>
        <time>2015-08-17T19:10:38Z</time>
      </trkpt>
      <trkpt lat="47.14424" lon="2.20985">
        <ele>112.61</ele>
        <time>2015-08-17T19:10:39Z</time>
      </trkpt>
      <trkpt lat="47.14386" lon="2.21025">
        <ele>112.61</ele>
        <time>2015-08-17T19:10:51Z</time>
      </trkpt>
      <trkpt lat="47.14383" lon="2.21028">
        <ele>112.61</ele>
        <time>2015-08-17T19:10:52Z</time>
      </trkpt>
      <trkpt lat="47.1438" lon="2.21031">
        <ele>112.61</ele>
        <time>2015-08-17T19:10:53Z</time>
      </trkpt>
      <trkpt lat="47.14378" lon="2.21034">
        <ele>112.61</ele>
        <time>2015-08-17T19:10:54Z</time>
      </trkpt>
      <trkpt lat="47.14375" lon="2.21037">
        <ele>112.61</ele>
        <time>2015-08-17T19:10:55Z</time>
      </trkpt>
      <trkpt lat="47.14371" lon="2.21039">
        <ele>112.61</ele>
        <time>2015-08-17T19:10:56Z</time>
      </trkpt>
      <trkpt lat="47.14368" lon="2.2104">
        <ele>112.61</ele>
        <time>2015-08-17T19:10:57Z</time>
      </trkpt>
      <trkpt lat="47.14366" lon="2.21042">
        <ele>112.61</ele>
        <time>2015-08-17T19:10:58Z</time>
      </trkpt>
      <trkpt lat="47.14342" lon="2.21043">
        <ele>112.61</ele>
        <time>2015-08-17T19:11:05Z</time>
      </trkpt>
      <trkpt lat="47.14309" lon="2.21064">
        <ele>112.61</ele>
        <time>2015-08-17T19:11:17Z</time>
      </trkpt>
      <trkpt lat="47.14306" lon="2.21068">
        <ele>112.61</ele>
        <time>2015-08-17T19:11:19Z</time>
      </trkpt>
      <trkpt lat="47.14304" lon="2.21069">
        <ele>112.61</ele>
        <time>2015-08-17T19:11:25Z</time>
      </trkpt>
      <trkpt lat="47.14302" lon="2.21071">
        <ele>112.61</ele>
        <time>2015-08-17T19:11:39Z</time>
      </trkpt>
      <trkpt lat="47.143" lon="2.21071">
        <ele>112.61</ele>
        <time>2015-08-17T19:11:40Z</time>
      </trkpt>
      <trkpt lat="47.14283" lon="2.21088">
        <ele>113.57</ele>
        <time>2015-08-17T19:11:52Z</time>
      </trkpt>
      <trkpt lat="47.14282" lon="2.21089">
        <ele>113.57</ele>
        <time>2015-08-17T19:11:53Z</time>
      </trkpt>
      <trkpt lat="47.14292" lon="2.21119">
        <ele>112.61</ele>
        <time>2015-08-17T19:12:02Z</time>
      </trkpt>
      <trkpt lat="47.14325" lon="2.21208">
        <ele>113.57</ele>
        <time>2015-08-17T19:12:16Z</time>
      </trkpt>
      <trkpt lat="47.14346" lon="2.21273">
        <ele>112.61</ele>
        <time>2015-08-17T19:12:29Z</time>
      </trkpt>
      <trkpt lat="47.14349" lon="2.21279">
        <ele>112.61</ele>
        <time>2015-08-17T19:12:30Z</time>
      </trkpt>
      <trkpt lat="47.1437" lon="2.21337">
        <ele>112.61</ele>
        <time>2015-08-17T19:12:39Z</time>
      </trkpt>
      <trkpt lat="47.14388" lon="2.21395">
        <ele>112.13</ele>
        <time>2015-08-17T19:12:47Z</time>
      </trkpt>
      <trkpt lat="47.1439" lon="2.21402">
        <ele>112.61</ele>
        <time>2015-08-17T19:12:48Z</time>
      </trkpt>
      <trkpt lat="47.14394" lon="2.21424">
        <ele>112.61</ele>
        <time>2015-08-17T19:12:51Z</time>
      </trkpt>
      <trkpt lat="47.14396" lon="2.21431">
        <ele>113.09</ele>
        <time>2015-08-17T19:12:52Z</time>
      </trkpt>
      <trkpt lat="47.14397" lon="2.21438">
        <ele>113.09</ele>
        <time>2015-08-17T19:12:53Z</time>
      </trkpt>
      <trkpt lat="47.14397" lon="2.21444">
        <ele>113.57</ele>
        <time>2015-08-17T19:12:54Z</time>
      </trkpt>
      <trkpt lat="47.14398" lon="2.2145">
        <ele>113.57</ele>
        <time>2015-08-17T19:12:55Z</time>
      </trkpt>
      <trkpt lat="47.14398" lon="2.21456">
        <ele>114.05</ele>
        <time>2015-08-17T19:12:56Z</time>
      </trkpt>
      <trkpt lat="47.14399" lon="2.21463">
        <ele>114.05</ele>
        <time>2015-08-17T19:12:57Z</time>
      </trkpt>
      <trkpt lat="47.14419" lon="2.21523">
        <ele>116.94</ele>
        <time>2015-08-17T19:13:05Z</time>
      </trkpt>
      <trkpt lat="47.14421" lon="2.21531">
        <ele>117.42</ele>
        <time>2015-08-17T19:13:06Z</time>
      </trkpt>
      <trkpt lat="47.14437" lon="2.2157">
        <ele>118.38</ele>
        <time>2015-08-17T19:13:12Z</time>
      </trkpt>
      <trkpt lat="47.1444" lon="2.21575">
        <ele>118.38</ele>
        <time>2015-08-17T19:13:13Z</time>
      </trkpt>
      <trkpt lat="47.14442" lon="2.2158">
        <ele>118.86</ele>
        <time>2015-08-17T19:13:14Z</time>
      </trkpt>
      <trkpt lat="47.14448" lon="2.21592">
        <ele>118.86</ele>
        <time>2015-08-17T19:13:17Z</time>
      </trkpt>
      <trkpt lat="47.14445" lon="2.21618">
        <ele>119.34</ele>
        <time>2015-08-17T19:13:26Z</time>
      </trkpt>
      <trkpt lat="47.14466" lon="2.21663">
        <ele>119.82</ele>
        <time>2015-08-17T19:13:40Z</time>
      </trkpt>
      <trkpt lat="47.14467" lon="2.21668">
        <ele>119.82</ele>
        <time>2015-08-17T19:13:43Z</time>
      </trkpt>
      <trkpt lat="47.14467" lon="2.21669">
        <ele>119.82</ele>
        <time>2015-08-17T19:13:53Z</time>
      </trkpt>
      <trkpt lat="47.14463" lon="2.21668">
        <ele>119.34</ele>
        <time>2015-08-17T19:14:21Z</time>
      </trkpt>
      <trkpt lat="47.1446" lon="2.21668">
        <ele>119.34</ele>
        <time>2015-08-17T19:14:48Z</time>
      </trkpt>
      <trkpt lat="47.14452" lon="2.21666">
        <ele>119.34</ele>
        <time>2015-08-17T19:15:18Z</time>
      </trkpt>
      <trkpt lat="47.14449" lon="2.21653">
        <ele>119.34</ele>
        <time>2015-08-17T19:15:30Z</time>
      </trkpt>
      <trkpt lat="47.14451" lon="2.21651">
        <ele>119.34</ele>
        <time>2015-08-17T19:15:32Z</time>
      </trkpt>
      <trkpt lat="47.14456" lon="2.21626">
        <ele>118.38</ele>
        <time>2015-08-17T19:15:48Z</time>
      </trkpt>
      <trkpt lat="47.14441" lon="2.21589">
        <ele>117.9</ele>
        <time>2015-08-17T19:16:07Z</time>
      </trkpt>
      <trkpt lat="47.14438" lon="2.21583">
        <ele>117.9</ele>
        <time>2015-08-17T19:16:11Z</time>
      </trkpt>
      <trkpt lat="47.14436" lon="2.21569">
        <ele>117.42</ele>
        <time>2015-08-17T19:16:22Z</time>
      </trkpt>
      <trkpt lat="47.14432" lon="2.21546">
        <ele>116.46</ele>
        <time>2015-08-17T19:16:38Z</time>
      </trkpt>
      <trkpt lat="47.14436" lon="2.21541">
        <ele>115.98</ele>
        <time>2015-08-17T19:16:45Z</time>
      </trkpt>
      <trkpt lat="47.14436" lon="2.21539">
        <ele>115.98</ele>
        <time>2015-08-17T19:16:46Z</time>
      </trkpt>
      <trkpt lat="47.14427" lon="2.21511">
        <ele>114.53</ele>
        <time>2015-08-17T19:17:01Z</time>
      </trkpt>
      <trkpt lat="47.14422" lon="2.21498">
        <ele>114.53</ele>
        <time>2015-08-17T19:17:10Z</time>
      </trkpt>
      <trkpt lat="47.14418" lon="2.2149">
        <ele>113.57</ele>
        <time>2015-08-17T19:17:21Z</time>
      </trkpt>
      <trkpt lat="47.14413" lon="2.21464">
        <ele>112.61</ele>
        <time>2015-08-17T19:17:35Z</time>
      </trkpt>
      <trkpt lat="47.14409" lon="2.21458">
        <ele>112.61</ele>
        <time>2015-08-17T19:17:40Z</time>
      </trkpt>
      <trkpt lat="47.14408" lon="2.21454">
        <ele>112.61</ele>
        <time>2015-08-17T19:17:43Z</time>
      </trkpt>
      <trkpt lat="47.14409" lon="2.21442">
        <ele>112.13</ele>
        <time>2015-08-17T19:17:55Z</time>
      </trkpt>
      <trkpt lat="47.14399" lon="2.21425">
        <ele>111.65</ele>
        <time>2015-08-17T19:18:02Z</time>
      </trkpt>
      <trkpt lat="47.14379" lon="2.21381">
        <ele>111.65</ele>
        <time>2015-08-17T19:18:14Z</time>
      </trkpt>
      <trkpt lat="47.14368" lon="2.21324">
        <ele>111.17</ele>
        <time>2015-08-17T19:18:30Z</time>
      </trkpt>
      <trkpt lat="47.14351" lon="2.2128">
        <ele>112.13</ele>
        <time>2015-08-17T19:18:41Z</time>
      </trkpt>
      <trkpt lat="47.14326" lon="2.21215">
        <ele>112.61</ele>
        <time>2015-08-17T19:18:56Z</time>
      </trkpt>
      <trkpt lat="47.14298" lon="2.21145">
        <ele>111.65</ele>
        <time>2015-08-17T19:19:11Z</time>
      </trkpt>
      <trkpt lat="47.14296" lon="2.21139">
        <ele>111.65</ele>
        <time>2015-08-17T19:19:12Z</time>
      </trkpt>
      <trkpt lat="47.14286" lon="2.21107">
        <ele>112.13</ele>
        <time>2015-08-17T19:19:19Z</time>
      </trkpt>
      <trkpt lat="47.14284" lon="2.21103">
        <ele>112.13</ele>
        <time>2015-08-17T19:19:20Z</time>
      </trkpt>
      <trkpt lat="47.14283" lon="2.211">
        <ele>112.13</ele>
        <time>2015-08-17T19:19:21Z</time>
      </trkpt>
      <trkpt lat="47.14282" lon="2.21098">
        <ele>112.13</ele>
        <time>2015-08-17T19:19:22Z</time>
      </trkpt>
      <trkpt lat="47.14281" lon="2.21095">
        <ele>112.13</ele>
        <time>2015-08-17T19:19:23Z</time>
      </trkpt>
      <trkpt lat="47.14279" lon="2.21093">
        <ele>112.61</ele>
        <time>2015-08-17T19:19:24Z</time>
      </trkpt>
      <trkpt lat="47.14278" lon="2.21091">
        <ele>112.13</ele>
        <time>2015-08-17T19:19:25Z</time>
      </trkpt>
      <trkpt lat="47.14277" lon="2.21089">
        <ele>112.13</ele>
        <time>2015-08-17T19:19:26Z</time>
      </trkpt>
      <trkpt lat="47.14277" lon="2.21087">
        <ele>112.13</ele>
        <time>2015-08-17T19:19:27Z</time>
      </trkpt>
      <trkpt lat="47.14276" lon="2.21084">
        <ele>112.13</ele>
        <time>2015-08-17T19:19:29Z</time>
      </trkpt>
      <trkpt lat="47.14277" lon="2.21082">
        <ele>112.61</ele>
        <time>2015-08-17T19:19:30Z</time>
      </trkpt>
      <trkpt lat="47.14278" lon="2.21081">
        <ele>112.13</ele>
        <time>2015-08-17T19:19:31Z</time>
      </trkpt>
      <trkpt lat="47.14279" lon="2.21081">
        <ele>112.13</ele>
        <time>2015-08-17T19:19:34Z</time>
      </trkpt>
      <trkpt lat="47.14279" lon="2.21082">
        <ele>112.13</ele>
        <time>2015-08-17T19:19:48Z</time>
      </trkpt>
      <trkpt lat="47.14276" lon="2.21083">
        <ele>112.13</ele>
        <time>2015-08-17T19:20:09Z</time>
      </trkpt>
      <trkpt lat="47.14258" lon="2.21085">
        <ele>112.61</ele>
        <time>2015-08-17T19:20:22Z</time>
      </trkpt>
      <trkpt lat="47.14254" lon="2.21088">
        <ele>112.13</ele>
        <time>2015-08-17T19:20:24Z</time>
      </trkpt>
      <trkpt lat="47.14254" lon="2.2109">
        <ele>112.13</ele>
        <time>2015-08-17T19:20:25Z</time>
      </trkpt>
      <trkpt lat="47.14254" lon="2.21092">
        <ele>112.13</ele>
        <time>2015-08-17T19:20:26Z</time>
      </trkpt>
      <trkpt lat="47.1425" lon="2.21095">
        <ele>112.13</ele>
        <time>2015-08-17T19:20:30Z</time>
      </trkpt>
      <trkpt lat="47.14249" lon="2.21096">
        <ele>112.13</ele>
        <time>2015-08-17T19:20:31Z</time>
      </trkpt>
      <trkpt lat="47.14248" lon="2.21097">
        <ele>112.13</ele>
        <time>2015-08-17T19:20:32Z</time>
      </trkpt>
      <trkpt lat="47.14247" lon="2.21099">
        <ele>111.65</ele>
        <time>2015-08-17T19:20:33Z</time>
      </trkpt>
      <trkpt lat="47.14241" lon="2.21104">
        <ele>111.17</ele>
        <time>2015-08-17T19:20:36Z</time>
      </trkpt>
      <trkpt lat="47.1421" lon="2.2114">
        <ele>111.17</ele>
        <time>2015-08-17T19:20:49Z</time>
      </trkpt>
      <trkpt lat="47.14209" lon="2.21142">
        <ele>111.17</ele>
        <time>2015-08-17T19:20:50Z</time>
      </trkpt>
      <trkpt lat="47.14207" lon="2.21145">
        <ele>110.69</ele>
        <time>2015-08-17T19:20:51Z</time>
      </trkpt>
      <trkpt lat="47.14206" lon="2.21148">
        <ele>110.69</ele>
        <time>2015-08-17T19:20:52Z</time>
      </trkpt>
      <trkpt lat="47.14204" lon="2.21151">
        <ele>110.69</ele>
        <time>2015-08-17T19:20:53Z</time>
      </trkpt>
      <trkpt lat="47.14203" lon="2.21154">
        <ele>110.69</ele>
        <time>2015-08-17T19:20:54Z</time>
      </trkpt>
      <trkpt lat="47.14202" lon="2.21158">
        <ele>110.69</ele>
        <time>2015-08-17T19:20:55Z</time>
      </trkpt>
      <trkpt lat="47.14201" lon="2.21161">
        <ele>110.69</ele>
        <time>2015-08-17T19:20:56Z</time>
      </trkpt>
      <trkpt lat="47.14191" lon="2.21176">
        <ele>110.69</ele>
        <time>2015-08-17T19:21:03Z</time>
      </trkpt>
      <trkpt lat="47.14168" lon="2.2124">
        <ele>111.65</ele>
        <time>2015-08-17T19:21:16Z</time>
      </trkpt>
      <trkpt lat="47.14165" lon="2.21254">
        <ele>111.17</ele>
        <time>2015-08-17T19:21:18Z</time>
      </trkpt>
      <trkpt lat="47.14163" lon="2.21267">
        <ele>111.17</ele>
        <time>2015-08-17T19:21:20Z</time>
      </trkpt>
      <trkpt lat="47.14162" lon="2.21273">
        <ele>111.17</ele>
        <time>2015-08-17T19:21:21Z</time>
      </trkpt>
      <trkpt lat="47.14161" lon="2.21279">
        <ele>110.69</ele>
        <time>2015-08-17T19:21:22Z</time>
      </trkpt>
      <trkpt lat="47.14159" lon="2.21285">
        <ele>110.69</ele>
        <time>2015-08-17T19:21:23Z</time>
      </trkpt>
      <trkpt lat="47.14157" lon="2.21292">
        <ele>110.69</ele>
        <time>2015-08-17T19:21:24Z</time>
      </trkpt>
      <trkpt lat="47.14156" lon="2.21299">
        <ele>110.69</ele>
        <time>2015-08-17T19:21:25Z</time>
      </trkpt>
      <trkpt lat="47.14138" lon="2.21357">
        <ele>112.61</ele>
        <time>2015-08-17T19:21:37Z</time>
      </trkpt>
      <trkpt lat="47.14137" lon="2.21369">
        <ele>112.61</ele>
        <time>2015-08-17T19:21:41Z</time>
      </trkpt>
      <trkpt lat="47.14137" lon="2.21371">
        <ele>112.61</ele>
        <time>2015-08-17T19:21:42Z</time>
      </trkpt>
      <trkpt lat="47.14137" lon="2.21374">
        <ele>112.61</ele>
        <time>2015-08-17T19:21:43Z</time>
      </trkpt>
      <trkpt lat="47.14137" lon="2.21379">
        <ele>112.61</ele>
        <time>2015-08-17T19:21:45Z</time>
      </trkpt>
      <trkpt lat="47.14136" lon="2.21381">
        <ele>112.61</ele>
        <time>2015-08-17T19:21:46Z</time>
      </trkpt>
      <trkpt lat="47.14135" lon="2.21386">
        <ele>112.61</ele>
        <time>2015-08-17T19:21:48Z</time>
      </trkpt>
      <trkpt lat="47.14135" lon="2.21389">
        <ele>112.61</ele>
        <time>2015-08-17T19:21:49Z</time>
      </trkpt>
      <trkpt lat="47.14131" lon="2.21401">
        <ele>112.61</ele>
        <time>2015-08-17T19:21:53Z</time>
      </trkpt>
      <trkpt lat="47.1413" lon="2.21403">
        <ele>112.61</ele>
        <time>2015-08-17T19:21:54Z</time>
      </trkpt>
      <trkpt lat="47.14124" lon="2.21422">
        <ele>112.61</ele>
        <time>2015-08-17T19:22:00Z</time>
      </trkpt>
      <trkpt lat="47.14102" lon="2.21469">
        <ele>112.61</ele>
        <time>2015-08-17T19:22:12Z</time>
      </trkpt>
      <trkpt lat="47.141" lon="2.21472">
        <ele>112.61</ele>
        <time>2015-08-17T19:22:13Z</time>
      </trkpt>
      <trkpt lat="47.14099" lon="2.21474">
        <ele>112.61</ele>
        <time>2015-08-17T19:22:14Z</time>
      </trkpt>
      <trkpt lat="47.14098" lon="2.21476">
        <ele>112.61</ele>
        <time>2015-08-17T19:22:15Z</time>
      </trkpt>
      <trkpt lat="47.14096" lon="2.21478">
        <ele>112.61</ele>
        <time>2015-08-17T19:22:16Z</time>
      </trkpt>
      <trkpt lat="47.14092" lon="2.21488">
        <ele>112.61</ele>
        <time>2015-08-17T19:22:20Z</time>
      </trkpt>
      <trkpt lat="47.14087" lon="2.21498">
        <ele>112.61</ele>
        <time>2015-08-17T19:22:37Z</time>
      </trkpt>
      <trkpt lat="47.14077" lon="2.21514">
        <ele>112.61</ele>
        <time>2015-08-17T19:22:50Z</time>
      </trkpt>
      <trkpt lat="47.14076" lon="2.21516">
        <ele>112.61</ele>
        <time>2015-08-17T19:22:51Z</time>
      </trkpt>
      <trkpt lat="47.14065" lon="2.2153">
        <ele>112.61</ele>
        <time>2015-08-17T19:22:58Z</time>
      </trkpt>
      <trkpt lat="47.14045" lon="2.21556">
        <ele>112.13</ele>
        <time>2015-08-17T19:23:10Z</time>
      </trkpt>
      <trkpt lat="47.14043" lon="2.21559">
        <ele>112.13</ele>
        <time>2015-08-17T19:23:11Z</time>
      </trkpt>
      <trkpt lat="47.14041" lon="2.21561">
        <ele>112.13</ele>
        <time>2015-08-17T19:23:12Z</time>
      </trkpt>
      <trkpt lat="47.14032" lon="2.21565">
        <ele>113.09</ele>
        <time>2015-08-17T19:23:16Z</time>
      </trkpt>
      <trkpt lat="47.14012" lon="2.21583">
        <ele>112.13</ele>
        <time>2015-08-17T19:23:28Z</time>
      </trkpt>
      <trkpt lat="47.14011" lon="2.21585">
        <ele>112.13</ele>
        <time>2015-08-17T19:23:29Z</time>
      </trkpt>
      <trkpt lat="47.1401" lon="2.21589">
        <ele>112.13</ele>
        <time>2015-08-17T19:23:32Z</time>
      </trkpt>
      <trkpt lat="47.1401" lon="2.21588">
        <ele>112.13</ele>
        <time>2015-08-17T19:23:57Z</time>
      </trkpt>
      <trkpt lat="47.14011" lon="2.21588">
        <ele>112.13</ele>
        <time>2015-08-17T19:24:30Z</time>
      </trkpt>
      <trkpt lat="47.14003" lon="2.2159">
        <ele>112.13</ele>
        <time>2015-08-17T19:24:57Z</time>
      </trkpt>
      <trkpt lat="47.13999" lon="2.21588">
        <ele>111.65</ele>
        <time>2015-08-17T19:25:16Z</time>
      </trkpt>
      <trkpt lat="47.13997" lon="2.21591">
        <ele>112.13</ele>
        <time>2015-08-17T19:25:40Z</time>
      </trkpt>
      <trkpt lat="47.13993" lon="2.21591">
        <ele>112.13</ele>
        <time>2015-08-17T19:26:05Z</time>
      </trkpt>
      <trkpt lat="47.1399" lon="2.21592">
        <ele>112.13</ele>
        <time>2015-08-17T19:26:19Z</time>
      </trkpt>
      <trkpt lat="47.13955" lon="2.21605">
        <ele>112.61</ele>
        <time>2015-08-17T19:26:30Z</time>
      </trkpt>
      <trkpt lat="47.13909" lon="2.21621">
        <ele>112.61</ele>
        <time>2015-08-17T19:26:43Z</time>
      </trkpt>
      <trkpt lat="47.1387" lon="2.21621">
        <ele>112.13</ele>
        <time>2015-08-17T19:26:53Z</time>
      </trkpt>
      <trkpt lat="47.13811" lon="2.21604">
        <ele>112.61</ele>
        <time>2015-08-17T19:27:05Z</time>
      </trkpt>
      <trkpt lat="47.13769" lon="2.2158">
        <ele>112.61</ele>
        <time>2015-08-17T19:27:16Z</time>
      </trkpt>
      <trkpt lat="47.13714" lon="2.21551">
        <ele>112.13</ele>
        <time>2015-08-17T19:27:29Z</time>
      </trkpt>
      <trkpt lat="47.13676" lon="2.21544">
        <ele>112.61</ele>
        <time>2015-08-17T19:27:38Z</time>
      </trkpt>
      <trkpt lat="47.13663" lon="2.21543">
        <ele>112.13</ele>
        <time>2015-08-17T19:27:41Z</time>
      </trkpt>
      <trkpt lat="47.13602" lon="2.21549">
        <ele>112.13</ele>
        <time>2015-08-17T19:27:55Z</time>
      </trkpt>
      <trkpt lat="47.13552" lon="2.21565">
        <ele>112.13</ele>
        <time>2015-08-17T19:28:07Z</time>
      </trkpt>
      <trkpt lat="47.13523" lon="2.21579">
        <ele>112.13</ele>
        <time>2015-08-17T19:28:17Z</time>
      </trkpt>
      <trkpt lat="47.13481" lon="2.21594">
        <ele>112.13</ele>
        <time>2015-08-17T19:28:28Z</time>
      </trkpt>
      <trkpt lat="47.13412" lon="2.21617">
        <ele>112.13</ele>
        <time>2015-08-17T19:28:45Z</time>
      </trkpt>
      <trkpt lat="47.13355" lon="2.2164">
        <ele>112.13</ele>
        <time>2015-08-17T19:28:59Z</time>
      </trkpt>
      <trkpt lat="47.13351" lon="2.21642">
        <ele>112.13</ele>
        <time>2015-08-17T19:29:00Z</time>
      </trkpt>
      <trkpt lat="47.13333" lon="2.21649">
        <ele>112.13</ele>
        <time>2015-08-17T19:29:04Z</time>
      </trkpt>
      <trkpt lat="47.1328" lon="2.21693">
        <ele>112.13</ele>
        <time>2015-08-17T19:29:19Z</time>
      </trkpt>
      <trkpt lat="47.13241" lon="2.21722">
        <ele>112.13</ele>
        <time>2015-08-17T19:29:30Z</time>
      </trkpt>
      <trkpt lat="47.13237" lon="2.21725">
        <ele>112.13</ele>
        <time>2015-08-17T19:29:31Z</time>
      </trkpt>
      <trkpt lat="47.13229" lon="2.21734">
        <ele>112.13</ele>
        <time>2015-08-17T19:29:33Z</time>
      </trkpt>
      <trkpt lat="47.13195" lon="2.21762">
        <ele>112.61</ele>
        <time>2015-08-17T19:29:44Z</time>
      </trkpt>
      <trkpt lat="47.13162" lon="2.2182">
        <ele>112.61</ele>
        <time>2015-08-17T19:29:57Z</time>
      </trkpt>
      <trkpt lat="47.13144" lon="2.21862">
        <ele>113.09</ele>
        <time>2015-08-17T19:30:05Z</time>
      </trkpt>
      <trkpt lat="47.13118" lon="2.21921">
        <ele>112.61</ele>
        <time>2015-08-17T19:30:17Z</time>
      </trkpt>
      <trkpt lat="47.13087" lon="2.21985">
        <ele>112.61</ele>
        <time>2015-08-17T19:30:30Z</time>
      </trkpt>
      <trkpt lat="47.13079" lon="2.22001">
        <ele>112.61</ele>
        <time>2015-08-17T19:30:33Z</time>
      </trkpt>
      <trkpt lat="47.13047" lon="2.22057">
        <ele>112.61</ele>
        <time>2015-08-17T19:30:45Z</time>
      </trkpt>
      <trkpt lat="47.13024" lon="2.2211">
        <ele>112.61</ele>
        <time>2015-08-17T19:30:56Z</time>
      </trkpt>
      <trkpt lat="47.12993" lon="2.22178">
        <ele>112.61</ele>
        <time>2015-08-17T19:31:09Z</time>
      </trkpt>
      <trkpt lat="47.12959" lon="2.22237">
        <ele>112.61</ele>
        <time>2015-08-17T19:31:21Z</time>
      </trkpt>
      <trkpt lat="47.12932" lon="2.22294">
        <ele>112.61</ele>
        <time>2015-08-17T19:31:32Z</time>
      </trkpt>
      <trkpt lat="47.12915" lon="2.22344">
        <ele>112.61</ele>
        <time>2015-08-17T19:31:42Z</time>
      </trkpt>
      <trkpt lat="47.12903" lon="2.22381">
        <ele>113.09</ele>
        <time>2015-08-17T19:31:51Z</time>
      </trkpt>
      <trkpt lat="47.12878" lon="2.22437">
        <ele>112.61</ele>
        <time>2015-08-17T19:32:05Z</time>
      </trkpt>
      <trkpt lat="47.1286" lon="2.22473">
        <ele>112.61</ele>
        <time>2015-08-17T19:32:14Z</time>
      </trkpt>
      <trkpt lat="47.12838" lon="2.22521">
        <ele>112.61</ele>
        <time>2015-08-17T19:32:26Z</time>
      </trkpt>
      <trkpt lat="47.12812" lon="2.22582">
        <ele>112.61</ele>
        <time>2015-08-17T19:32:41Z</time>
      </trkpt>
      <trkpt lat="47.12781" lon="2.22653">
        <ele>112.61</ele>
        <time>2015-08-17T19:32:57Z</time>
      </trkpt>
      <trkpt lat="47.12755" lon="2.22723">
        <ele>113.09</ele>
        <time>2015-08-17T19:33:13Z</time>
      </trkpt>
      <trkpt lat="47.12731" lon="2.22785">
        <ele>113.09</ele>
        <time>2015-08-17T19:33:27Z</time>
      </trkpt>
      <trkpt lat="47.12702" lon="2.22841">
        <ele>113.09</ele>
        <time>2015-08-17T19:33:41Z</time>
      </trkpt>
      <trkpt lat="47.12681" lon="2.22889">
        <ele>112.61</ele>
        <time>2015-08-17T19:33:55Z</time>
      </trkpt>
      <trkpt lat="47.12657" lon="2.22938">
        <ele>112.61</ele>
        <time>2015-08-17T19:34:09Z</time>
      </trkpt>
      <trkpt lat="47.12629" lon="2.22992">
        <ele>112.61</ele>
        <time>2015-08-17T19:34:24Z</time>
      </trkpt>
      <trkpt lat="47.12609" lon="2.23037">
        <ele>112.61</ele>
        <time>2015-08-17T19:34:37Z</time>
      </trkpt>
      <trkpt lat="47.12587" lon="2.23084">
        <ele>112.61</ele>
        <time>2015-08-17T19:34:50Z</time>
      </trkpt>
      <trkpt lat="47.12569" lon="2.23123">
        <ele>112.61</ele>
        <time>2015-08-17T19:35:04Z</time>
      </trkpt>
      <trkpt lat="47.12567" lon="2.23131">
        <ele>112.13</ele>
        <time>2015-08-17T19:35:16Z</time>
      </trkpt>
      <trkpt lat="47.12567" lon="2.23133">
        <ele>112.13</ele>
        <time>2015-08-17T19:35:17Z</time>
      </trkpt>
      <trkpt lat="47.12567" lon="2.23135">
        <ele>112.61</ele>
        <time>2015-08-17T19:35:18Z</time>
      </trkpt>
      <trkpt lat="47.12572" lon="2.23148">
        <ele>111.65</ele>
        <time>2015-08-17T19:35:29Z</time>
      </trkpt>
      <trkpt lat="47.12573" lon="2.23156">
        <ele>111.17</ele>
        <time>2015-08-17T19:35:37Z</time>
      </trkpt>
      <trkpt lat="47.12556" lon="2.23196">
        <ele>111.17</ele>
        <time>2015-08-17T19:35:50Z</time>
      </trkpt>
      <trkpt lat="47.12536" lon="2.23239">
        <ele>111.65</ele>
        <time>2015-08-17T19:36:03Z</time>
      </trkpt>
      <trkpt lat="47.12514" lon="2.23288">
        <ele>111.65</ele>
        <time>2015-08-17T19:36:16Z</time>
      </trkpt>
      <trkpt lat="47.12493" lon="2.23343">
        <ele>111.65</ele>
        <time>2015-08-17T19:36:29Z</time>
      </trkpt>
      <trkpt lat="47.12471" lon="2.23379">
        <ele>112.13</ele>
        <time>2015-08-17T19:36:39Z</time>
      </trkpt>
      <trkpt lat="47.12453" lon="2.23419">
        <ele>112.13</ele>
        <time>2015-08-17T19:36:50Z</time>
      </trkpt>
      <trkpt lat="47.12435" lon="2.23458">
        <ele>112.13</ele>
        <time>2015-08-17T19:37:00Z</time>
      </trkpt>
      <trkpt lat="47.12411" lon="2.2351">
        <ele>112.13</ele>
        <time>2015-08-17T19:37:13Z</time>
      </trkpt>
      <trkpt lat="47.1241" lon="2.23513">
        <ele>112.13</ele>
        <time>2015-08-17T19:37:14Z</time>
      </trkpt>
      <trkpt lat="47.12408" lon="2.23516">
        <ele>112.13</ele>
        <time>2015-08-17T19:37:15Z</time>
      </trkpt>
      <trkpt lat="47.12407" lon="2.23519">
        <ele>112.13</ele>
        <time>2015-08-17T19:37:16Z</time>
      </trkpt>
      <trkpt lat="47.12406" lon="2.23522">
        <ele>112.13</ele>
        <time>2015-08-17T19:37:17Z</time>
      </trkpt>
      <trkpt lat="47.12403" lon="2.23528">
        <ele>112.13</ele>
        <time>2015-08-17T19:37:23Z</time>
      </trkpt>
      <trkpt lat="47.12402" lon="2.23529">
        <ele>112.13</ele>
        <time>2015-08-17T19:37:46Z</time>
      </trkpt>
      <trkpt lat="47.12397" lon="2.2354">
        <ele>112.13</ele>
        <time>2015-08-17T19:37:58Z</time>
      </trkpt>
      <trkpt lat="47.1237" lon="2.23587">
        <ele>113.09</ele>
        <time>2015-08-17T19:38:12Z</time>
      </trkpt>
      <trkpt lat="47.12354" lon="2.23622">
        <ele>112.61</ele>
        <time>2015-08-17T19:38:24Z</time>
      </trkpt>
      <trkpt lat="47.12333" lon="2.23667">
        <ele>112.61</ele>
        <time>2015-08-17T19:38:38Z</time>
      </trkpt>
      <trkpt lat="47.12316" lon="2.2373">
        <ele>113.09</ele>
        <time>2015-08-17T19:38:53Z</time>
      </trkpt>
      <trkpt lat="47.12291" lon="2.23772">
        <ele>112.61</ele>
        <time>2015-08-17T19:39:05Z</time>
      </trkpt>
      <trkpt lat="47.12276" lon="2.23818">
        <ele>113.09</ele>
        <time>2015-08-17T19:39:16Z</time>
      </trkpt>
      <trkpt lat="47.12258" lon="2.23857">
        <ele>112.61</ele>
        <time>2015-08-17T19:39:26Z</time>
      </trkpt>
      <trkpt lat="47.12234" lon="2.23894">
        <ele>112.61</ele>
        <time>2015-08-17T19:39:37Z</time>
      </trkpt>
      <trkpt lat="47.12207" lon="2.23916">
        <ele>112.61</ele>
        <time>2015-08-17T19:39:47Z</time>
      </trkpt>
      <trkpt lat="47.12184" lon="2.23942">
        <ele>112.61</ele>
        <time>2015-08-17T19:39:59Z</time>
      </trkpt>
      <trkpt lat="47.12164" lon="2.23963">
        <ele>112.61</ele>
        <time>2015-08-17T19:40:12Z</time>
      </trkpt>
      <trkpt lat="47.12161" lon="2.23965">
        <ele>112.61</ele>
        <time>2015-08-17T19:40:30Z</time>
      </trkpt>
      <trkpt lat="47.1216" lon="2.23969">
        <ele>112.61</ele>
        <time>2015-08-17T19:40:56Z</time>
      </trkpt>
      <trkpt lat="47.1216" lon="2.2397">
        <ele>112.13</ele>
        <time>2015-08-17T19:41:31Z</time>
      </trkpt>
      <trkpt lat="47.12161" lon="2.2397">
        <ele>112.13</ele>
        <time>2015-08-17T19:42:05Z</time>
      </trkpt>
      <trkpt lat="47.12163" lon="2.23971">
        <ele>112.13</ele>
        <time>2015-08-17T19:42:37Z</time>
      </trkpt>
      <trkpt lat="47.12164" lon="2.23973">
        <ele>112.13</ele>
        <time>2015-08-17T19:43:08Z</time>
      </trkpt>
      <trkpt lat="47.12163" lon="2.23974">
        <ele>112.13</ele>
        <time>2015-08-17T19:43:40Z</time>
      </trkpt>
      <trkpt lat="47.12163" lon="2.23974">
        <ele>112.13</ele>
        <time>2015-08-17T19:44:11Z</time>
      </trkpt>
      <trkpt lat="47.12162" lon="2.23974">
        <ele>112.13</ele>
        <time>2015-08-17T19:44:42Z</time>
      </trkpt>
      <trkpt lat="47.12163" lon="2.23975">
        <ele>112.13</ele>
        <time>2015-08-17T19:45:05Z</time>
      </trkpt>
      <trkpt lat="47.12162" lon="2.23974">
        <ele>115.01</ele>
        <time>2015-08-17T19:45:07Z</time>
      </trkpt>
      <trkpt lat="47.12162" lon="2.23974">
        <ele>110.69</ele>
        <time>2015-08-17T19:45:14Z</time>
      </trkpt>
      <trkpt lat="47.12162" lon="2.23974">
        <ele>114.05</ele>
        <time>2015-08-17T19:45:17Z</time>
      </trkpt>
      <trkpt lat="47.12162" lon="2.23974">
        <ele>109.73</ele>
        <time>2015-08-17T19:45:18Z</time>
      </trkpt>
      <trkpt lat="47.12156" lon="2.23975">
        <ele>112.13</ele>
        <time>2015-08-17T19:45:29Z</time>
      </trkpt>
      <trkpt lat="47.12131" lon="2.24">
        <ele>112.13</ele>
        <time>2015-08-17T19:45:41Z</time>
      </trkpt>
      <trkpt lat="47.12096" lon="2.24039">
        <ele>111.65</ele>
        <time>2015-08-17T19:45:56Z</time>
      </trkpt>
      <trkpt lat="47.12052" lon="2.24086">
        <ele>112.13</ele>
        <time>2015-08-17T19:46:12Z</time>
      </trkpt>
      <trkpt lat="47.12012" lon="2.24128">
        <ele>112.13</ele>
        <time>2015-08-17T19:46:26Z</time>
      </trkpt>
      <trkpt lat="47.11968" lon="2.24177">
        <ele>111.65</ele>
        <time>2015-08-17T19:46:42Z</time>
      </trkpt>
      <trkpt lat="47.11929" lon="2.2422">
        <ele>112.13</ele>
        <time>2015-08-17T19:46:56Z</time>
      </trkpt>
      <trkpt lat="47.11894" lon="2.24258">
        <ele>112.13</ele>
        <time>2015-08-17T19:47:09Z</time>
      </trkpt>
      <trkpt lat="47.11854" lon="2.24303">
        <ele>112.13</ele>
        <time>2015-08-17T19:47:24Z</time>
      </trkpt>
      <trkpt lat="47.11809" lon="2.2435">
        <ele>112.13</ele>
        <time>2015-08-17T19:47:40Z</time>
      </trkpt>
      <trkpt lat="47.11771" lon="2.24391">
        <ele>111.65</ele>
        <time>2015-08-17T19:47:55Z</time>
      </trkpt>
      <trkpt lat="47.1174" lon="2.24426">
        <ele>111.65</ele>
        <time>2015-08-17T19:48:09Z</time>
      </trkpt>
      <trkpt lat="47.11717" lon="2.24451">
        <ele>112.13</ele>
        <time>2015-08-17T19:48:21Z</time>
      </trkpt>
      <trkpt lat="47.11683" lon="2.24487">
        <ele>111.65</ele>
        <time>2015-08-17T19:48:36Z</time>
      </trkpt>
      <trkpt lat="47.11651" lon="2.24521">
        <ele>111.65</ele>
        <time>2015-08-17T19:48:49Z</time>
      </trkpt>
      <trkpt lat="47.1161" lon="2.24566">
        <ele>111.65</ele>
        <time>2015-08-17T19:49:05Z</time>
      </trkpt>
      <trkpt lat="47.11576" lon="2.24604">
        <ele>111.65</ele>
        <time>2015-08-17T19:49:19Z</time>
      </trkpt>
      <trkpt lat="47.11572" lon="2.24607">
        <ele>111.65</ele>
        <time>2015-08-17T19:49:20Z</time>
      </trkpt>
      <trkpt lat="47.11557" lon="2.24624">
        <ele>111.65</ele>
        <time>2015-08-17T19:49:25Z</time>
      </trkpt>
      <trkpt lat="47.11514" lon="2.2467">
        <ele>112.13</ele>
        <time>2015-08-17T19:49:40Z</time>
      </trkpt>
      <trkpt lat="47.11463" lon="2.24725">
        <ele>111.65</ele>
        <time>2015-08-17T19:49:58Z</time>
      </trkpt>
      <trkpt lat="47.11428" lon="2.24765">
        <ele>112.13</ele>
        <time>2015-08-17T19:50:11Z</time>
      </trkpt>
      <trkpt lat="47.11387" lon="2.24809">
        <ele>111.65</ele>
        <time>2015-08-17T19:50:26Z</time>
      </trkpt>
      <trkpt lat="47.1134" lon="2.24858">
        <ele>111.65</ele>
        <time>2015-08-17T19:50:43Z</time>
      </trkpt>
      <trkpt lat="47.11303" lon="2.24899">
        <ele>111.65</ele>
        <time>2015-08-17T19:50:57Z</time>
      </trkpt>
      <trkpt lat="47.11269" lon="2.24938">
        <ele>111.65</ele>
        <time>2015-08-17T19:51:11Z</time>
      </trkpt>
      <trkpt lat="47.11235" lon="2.24973">
        <ele>111.65</ele>
        <time>2015-08-17T19:51:24Z</time>
      </trkpt>
      <trkpt lat="47.11193" lon="2.25018">
        <ele>112.13</ele>
        <time>2015-08-17T19:51:40Z</time>
      </trkpt>
      <trkpt lat="47.11154" lon="2.25059">
        <ele>111.65</ele>
        <time>2015-08-17T19:51:55Z</time>
      </trkpt>
      <trkpt lat="47.11115" lon="2.25102">
        <ele>111.65</ele>
        <time>2015-08-17T19:52:11Z</time>
      </trkpt>
      <trkpt lat="47.11078" lon="2.25141">
        <ele>111.65</ele>
        <time>2015-08-17T19:52:25Z</time>
      </trkpt>
      <trkpt lat="47.11041" lon="2.25185">
        <ele>111.65</ele>
        <time>2015-08-17T19:52:39Z</time>
      </trkpt>
      <trkpt lat="47.11002" lon="2.25227">
        <ele>111.65</ele>
        <time>2015-08-17T19:52:53Z</time>
      </trkpt>
      <trkpt lat="47.10956" lon="2.25278">
        <ele>111.65</ele>
        <time>2015-08-17T19:53:10Z</time>
      </trkpt>
      <trkpt lat="47.1091" lon="2.25325">
        <ele>111.17</ele>
        <time>2015-08-17T19:53:27Z</time>
      </trkpt>
      <trkpt lat="47.10864" lon="2.25376">
        <ele>111.17</ele>
        <time>2015-08-17T19:53:44Z</time>
      </trkpt>
      <trkpt lat="47.10834" lon="2.25407">
        <ele>112.13</ele>
        <time>2015-08-17T19:53:56Z</time>
      </trkpt>
      <trkpt lat="47.10832" lon="2.2541">
        <ele>112.13</ele>
        <time>2015-08-17T19:53:57Z</time>
      </trkpt>
      <trkpt lat="47.1083" lon="2.25411">
        <ele>112.13</ele>
        <time>2015-08-17T19:53:58Z</time>
      </trkpt>
      <trkpt lat="47.10828" lon="2.25412">
        <ele>112.13</ele>
        <time>2015-08-17T19:54:00Z</time>
      </trkpt>
      <trkpt lat="47.10827" lon="2.25412">
        <ele>112.13</ele>
        <time>2015-08-17T19:54:23Z</time>
      </trkpt>
      <trkpt lat="47.10823" lon="2.25416">
        <ele>112.61</ele>
        <time>2015-08-17T19:54:37Z</time>
      </trkpt>
      <trkpt lat="47.1082" lon="2.2542">
        <ele>113.09</ele>
        <time>2015-08-17T19:55:01Z</time>
      </trkpt>
      <trkpt lat="47.10819" lon="2.25423">
        <ele>112.61</ele>
        <time>2015-08-17T19:55:11Z</time>
      </trkpt>
      <trkpt lat="47.10792" lon="2.25456">
        <ele>112.61</ele>
        <time>2015-08-17T19:55:25Z</time>
      </trkpt>
      <trkpt lat="47.10761" lon="2.25497">
        <ele>112.61</ele>
        <time>2015-08-17T19:55:39Z</time>
      </trkpt>
      <trkpt lat="47.1073" lon="2.2553">
        <ele>112.61</ele>
        <time>2015-08-17T19:55:51Z</time>
      </trkpt>
      <trkpt lat="47.10699" lon="2.25566">
        <ele>112.61</ele>
        <time>2015-08-17T19:56:04Z</time>
      </trkpt>
      <trkpt lat="47.10696" lon="2.25569">
        <ele>112.61</ele>
        <time>2015-08-17T19:56:05Z</time>
      </trkpt>
      <trkpt lat="47.10693" lon="2.25571">
        <ele>112.61</ele>
        <time>2015-08-17T19:56:06Z</time>
      </trkpt>
      <trkpt lat="47.1069" lon="2.25574">
        <ele>112.61</ele>
        <time>2015-08-17T19:56:07Z</time>
      </trkpt>
      <trkpt lat="47.10688" lon="2.25576">
        <ele>113.09</ele>
        <time>2015-08-17T19:56:08Z</time>
      </trkpt>
      <trkpt lat="47.10685" lon="2.25578">
        <ele>113.09</ele>
        <time>2015-08-17T19:56:09Z</time>
      </trkpt>
      <trkpt lat="47.10661" lon="2.25606">
        <ele>112.61</ele>
        <time>2015-08-17T19:56:19Z</time>
      </trkpt>
      <trkpt lat="47.10624" lon="2.25652">
        <ele>113.09</ele>
        <time>2015-08-17T19:56:34Z</time>
      </trkpt>
      <trkpt lat="47.10595" lon="2.25699">
        <ele>113.09</ele>
        <time>2015-08-17T19:56:48Z</time>
      </trkpt>
      <trkpt lat="47.10574" lon="2.2575">
        <ele>113.09</ele>
        <time>2015-08-17T19:57:02Z</time>
      </trkpt>
      <trkpt lat="47.10565" lon="2.25802">
        <ele>113.09</ele>
        <time>2015-08-17T19:57:15Z</time>
      </trkpt>
      <trkpt lat="47.10556" lon="2.25848">
        <ele>113.09</ele>
        <time>2015-08-17T19:57:27Z</time>
      </trkpt>
      <trkpt lat="47.1055" lon="2.25894">
        <ele>113.09</ele>
        <time>2015-08-17T19:57:40Z</time>
      </trkpt>
      <trkpt lat="47.10549" lon="2.25932">
        <ele>113.09</ele>
        <time>2015-08-17T19:57:51Z</time>
      </trkpt>
      <trkpt lat="47.10547" lon="2.25996">
        <ele>112.61</ele>
        <time>2015-08-17T19:58:07Z</time>
      </trkpt>
      <trkpt lat="47.10546" lon="2.26037">
        <ele>113.09</ele>
        <time>2015-08-17T19:58:18Z</time>
      </trkpt>
      <trkpt lat="47.10544" lon="2.26101">
        <ele>113.09</ele>
        <time>2015-08-17T19:58:33Z</time>
      </trkpt>
      <trkpt lat="47.10543" lon="2.2618">
        <ele>113.09</ele>
        <time>2015-08-17T19:58:50Z</time>
      </trkpt>
      <trkpt lat="47.1054" lon="2.2623">
        <ele>113.09</ele>
        <time>2015-08-17T19:59:02Z</time>
      </trkpt>
      <trkpt lat="47.10539" lon="2.26295">
        <ele>113.09</ele>
        <time>2015-08-17T19:59:16Z</time>
      </trkpt>
      <trkpt lat="47.10537" lon="2.26342">
        <ele>113.09</ele>
        <time>2015-08-17T19:59:27Z</time>
      </trkpt>
      <trkpt lat="47.10538" lon="2.26345">
        <ele>113.09</ele>
        <time>2015-08-17T19:59:28Z</time>
      </trkpt>
      <trkpt lat="47.10536" lon="2.26369">
        <ele>113.09</ele>
        <time>2015-08-17T19:59:34Z</time>
      </trkpt>
      <trkpt lat="47.10533" lon="2.26445">
        <ele>113.09</ele>
        <time>2015-08-17T19:59:52Z</time>
      </trkpt>
      <trkpt lat="47.1053" lon="2.26509">
        <ele>113.09</ele>
        <time>2015-08-17T20:00:08Z</time>
      </trkpt>
      <trkpt lat="47.10528" lon="2.26575">
        <ele>112.61</ele>
        <time>2015-08-17T20:00:24Z</time>
      </trkpt>
      <trkpt lat="47.10526" lon="2.2663">
        <ele>113.09</ele>
        <time>2015-08-17T20:00:40Z</time>
      </trkpt>
      <trkpt lat="47.10526" lon="2.26632">
        <ele>112.61</ele>
        <time>2015-08-17T20:00:41Z</time>
      </trkpt>
      <trkpt lat="47.10526" lon="2.26635">
        <ele>112.61</ele>
        <time>2015-08-17T20:00:42Z</time>
      </trkpt>
      <trkpt lat="47.10526" lon="2.26637">
        <ele>112.61</ele>
        <time>2015-08-17T20:00:43Z</time>
      </trkpt>
      <trkpt lat="47.10525" lon="2.2664">
        <ele>112.61</ele>
        <time>2015-08-17T20:00:44Z</time>
      </trkpt>
      <trkpt lat="47.10524" lon="2.26643">
        <ele>113.09</ele>
        <time>2015-08-17T20:00:45Z</time>
      </trkpt>
      <trkpt lat="47.10522" lon="2.26644">
        <ele>112.61</ele>
        <time>2015-08-17T20:00:46Z</time>
      </trkpt>
      <trkpt lat="47.1052" lon="2.26643">
        <ele>113.09</ele>
        <time>2015-08-17T20:00:47Z</time>
      </trkpt>
      <trkpt lat="47.10515" lon="2.26645">
        <ele>112.61</ele>
        <time>2015-08-17T20:00:54Z</time>
      </trkpt>
      <trkpt lat="47.10516" lon="2.26643">
        <ele>113.09</ele>
        <time>2015-08-17T20:01:05Z</time>
      </trkpt>
      <trkpt lat="47.10517" lon="2.26644">
        <ele>113.09</ele>
        <time>2015-08-17T20:01:06Z</time>
      </trkpt>
      <trkpt lat="47.10519" lon="2.26645">
        <ele>113.09</ele>
        <time>2015-08-17T20:01:07Z</time>
      </trkpt>
      <trkpt lat="47.1052" lon="2.26646">
        <ele>112.61</ele>
        <time>2015-08-17T20:01:08Z</time>
      </trkpt>
      <trkpt lat="47.10522" lon="2.26646">
        <ele>112.61</ele>
        <time>2015-08-17T20:01:09Z</time>
      </trkpt>
      <trkpt lat="47.10524" lon="2.26646">
        <ele>112.61</ele>
        <time>2015-08-17T20:01:10Z</time>
      </trkpt>
      <trkpt lat="47.10526" lon="2.26648">
        <ele>112.61</ele>
        <time>2015-08-17T20:01:11Z</time>
      </trkpt>
      <trkpt lat="47.10527" lon="2.26655">
        <ele>112.61</ele>
        <time>2015-08-17T20:01:14Z</time>
      </trkpt>
      <trkpt lat="47.10525" lon="2.26703">
        <ele>112.61</ele>
        <time>2015-08-17T20:01:28Z</time>
      </trkpt>
      <trkpt lat="47.10523" lon="2.26754">
        <ele>112.61</ele>
        <time>2015-08-17T20:01:42Z</time>
      </trkpt>
      <trkpt lat="47.10521" lon="2.26804">
        <ele>112.61</ele>
        <time>2015-08-17T20:01:55Z</time>
      </trkpt>
      <trkpt lat="47.1052" lon="2.26858">
        <ele>112.61</ele>
        <time>2015-08-17T20:02:09Z</time>
      </trkpt>
      <trkpt lat="47.1052" lon="2.26899">
        <ele>112.61</ele>
        <time>2015-08-17T20:02:20Z</time>
      </trkpt>
      <trkpt lat="47.1052" lon="2.26961">
        <ele>112.61</ele>
        <time>2015-08-17T20:02:35Z</time>
      </trkpt>
      <trkpt lat="47.10517" lon="2.27017">
        <ele>112.61</ele>
        <time>2015-08-17T20:02:48Z</time>
      </trkpt>
      <trkpt lat="47.10517" lon="2.27022">
        <ele>112.61</ele>
        <time>2015-08-17T20:02:49Z</time>
      </trkpt>
      <trkpt lat="47.10515" lon="2.27054">
        <ele>112.61</ele>
        <time>2015-08-17T20:02:57Z</time>
      </trkpt>
      <trkpt lat="47.10516" lon="2.27058">
        <ele>112.61</ele>
        <time>2015-08-17T20:02:58Z</time>
      </trkpt>
      <trkpt lat="47.10516" lon="2.27063">
        <ele>112.61</ele>
        <time>2015-08-17T20:02:59Z</time>
      </trkpt>
      <trkpt lat="47.10515" lon="2.27066">
        <ele>112.61</ele>
        <time>2015-08-17T20:03:00Z</time>
      </trkpt>
      <trkpt lat="47.10515" lon="2.2707">
        <ele>112.61</ele>
        <time>2015-08-17T20:03:01Z</time>
      </trkpt>
      <trkpt lat="47.10515" lon="2.27075">
        <ele>112.61</ele>
        <time>2015-08-17T20:03:02Z</time>
      </trkpt>
      <trkpt lat="47.10515" lon="2.27079">
        <ele>112.61</ele>
        <time>2015-08-17T20:03:03Z</time>
      </trkpt>
      <trkpt lat="47.10514" lon="2.27107">
        <ele>112.61</ele>
        <time>2015-08-17T20:03:09Z</time>
      </trkpt>
      <trkpt lat="47.10511" lon="2.27156">
        <ele>112.61</ele>
        <time>2015-08-17T20:03:22Z</time>
      </trkpt>
      <trkpt lat="47.10512" lon="2.27193">
        <ele>113.09</ele>
        <time>2015-08-17T20:03:31Z</time>
      </trkpt>
      <trkpt lat="47.10512" lon="2.27255">
        <ele>113.09</ele>
        <time>2015-08-17T20:03:44Z</time>
      </trkpt>
      <trkpt lat="47.10511" lon="2.27309">
        <ele>113.09</ele>
        <time>2015-08-17T20:03:56Z</time>
      </trkpt>
      <trkpt lat="47.10505" lon="2.27361">
        <ele>113.09</ele>
        <time>2015-08-17T20:04:09Z</time>
      </trkpt>
      <trkpt lat="47.10497" lon="2.27402">
        <ele>113.09</ele>
        <time>2015-08-17T20:04:19Z</time>
      </trkpt>
      <trkpt lat="47.10496" lon="2.27405">
        <ele>113.09</ele>
        <time>2015-08-17T20:04:20Z</time>
      </trkpt>
      <trkpt lat="47.10497" lon="2.2741">
        <ele>113.09</ele>
        <time>2015-08-17T20:04:21Z</time>
      </trkpt>
      <trkpt lat="47.10493" lon="2.27453">
        <ele>113.09</ele>
        <time>2015-08-17T20:04:31Z</time>
      </trkpt>
      <trkpt lat="47.10488" lon="2.27501">
        <ele>113.09</ele>
        <time>2015-08-17T20:04:42Z</time>
      </trkpt>
      <trkpt lat="47.10484" lon="2.27546">
        <ele>113.09</ele>
        <time>2015-08-17T20:04:54Z</time>
      </trkpt>
      <trkpt lat="47.10479" lon="2.27592">
        <ele>113.57</ele>
        <time>2015-08-17T20:05:05Z</time>
      </trkpt>
      <trkpt lat="47.10481" lon="2.27613">
        <ele>113.09</ele>
        <time>2015-08-17T20:05:10Z</time>
      </trkpt>
      <trkpt lat="47.10478" lon="2.27658">
        <ele>113.57</ele>
        <time>2015-08-17T20:05:21Z</time>
      </trkpt>
      <trkpt lat="47.1047" lon="2.27708">
        <ele>113.09</ele>
        <time>2015-08-17T20:05:32Z</time>
      </trkpt>
      <trkpt lat="47.1047" lon="2.27712">
        <ele>113.09</ele>
        <time>2015-08-17T20:05:33Z</time>
      </trkpt>
      <trkpt lat="47.10469" lon="2.27717">
        <ele>113.09</ele>
        <time>2015-08-17T20:05:34Z</time>
      </trkpt>
      <trkpt lat="47.10469" lon="2.2772">
        <ele>113.09</ele>
        <time>2015-08-17T20:05:35Z</time>
      </trkpt>
      <trkpt lat="47.10468" lon="2.27724">
        <ele>113.09</ele>
        <time>2015-08-17T20:05:36Z</time>
      </trkpt>
      <trkpt lat="47.10467" lon="2.27728">
        <ele>113.09</ele>
        <time>2015-08-17T20:05:37Z</time>
      </trkpt>
      <trkpt lat="47.10466" lon="2.27731">
        <ele>113.09</ele>
        <time>2015-08-17T20:05:38Z</time>
      </trkpt>
      <trkpt lat="47.10466" lon="2.27734">
        <ele>113.09</ele>
        <time>2015-08-17T20:05:39Z</time>
      </trkpt>
      <trkpt lat="47.10466" lon="2.27738">
        <ele>113.09</ele>
        <time>2015-08-17T20:05:40Z</time>
      </trkpt>
      <trkpt lat="47.10465" lon="2.27742">
        <ele>113.09</ele>
        <time>2015-08-17T20:05:41Z</time>
      </trkpt>
      <trkpt lat="47.10464" lon="2.27747">
        <ele>113.57</ele>
        <time>2015-08-17T20:05:42Z</time>
      </trkpt>
      <trkpt lat="47.10464" lon="2.27752">
        <ele>113.09</ele>
        <time>2015-08-17T20:05:43Z</time>
      </trkpt>
      <trkpt lat="47.10464" lon="2.27756">
        <ele>113.09</ele>
        <time>2015-08-17T20:05:44Z</time>
      </trkpt>
      <trkpt lat="47.10465" lon="2.27761">
        <ele>113.09</ele>
        <time>2015-08-17T20:05:45Z</time>
      </trkpt>
      <trkpt lat="47.10465" lon="2.27766">
        <ele>113.57</ele>
        <time>2015-08-17T20:05:46Z</time>
      </trkpt>
      <trkpt lat="47.10465" lon="2.27805">
        <ele>113.57</ele>
        <time>2015-08-17T20:05:53Z</time>
      </trkpt>
      <trkpt lat="47.10464" lon="2.27809">
        <ele>113.57</ele>
        <time>2015-08-17T20:05:54Z</time>
      </trkpt>
      <trkpt lat="47.10462" lon="2.27813">
        <ele>113.57</ele>
        <time>2015-08-17T20:05:55Z</time>
      </trkpt>
      <trkpt lat="47.10461" lon="2.27816">
        <ele>113.09</ele>
        <time>2015-08-17T20:05:56Z</time>
      </trkpt>
      <trkpt lat="47.1046" lon="2.2782">
        <ele>113.57</ele>
        <time>2015-08-17T20:05:57Z</time>
      </trkpt>
      <trkpt lat="47.10459" lon="2.27824">
        <ele>113.57</ele>
        <time>2015-08-17T20:05:58Z</time>
      </trkpt>
      <trkpt lat="47.10458" lon="2.27827">
        <ele>113.57</ele>
        <time>2015-08-17T20:05:59Z</time>
      </trkpt>
      <trkpt lat="47.10458" lon="2.2783">
        <ele>113.57</ele>
        <time>2015-08-17T20:06:00Z</time>
      </trkpt>
      <trkpt lat="47.10457" lon="2.27833">
        <ele>113.57</ele>
        <time>2015-08-17T20:06:01Z</time>
      </trkpt>
      <trkpt lat="47.10456" lon="2.27837">
        <ele>113.09</ele>
        <time>2015-08-17T20:06:02Z</time>
      </trkpt>
      <trkpt lat="47.10455" lon="2.27841">
        <ele>113.57</ele>
        <time>2015-08-17T20:06:03Z</time>
      </trkpt>
      <trkpt lat="47.10455" lon="2.27845">
        <ele>113.57</ele>
        <time>2015-08-17T20:06:05Z</time>
      </trkpt>
      <trkpt lat="47.10455" lon="2.27849">
        <ele>113.57</ele>
        <time>2015-08-17T20:06:07Z</time>
      </trkpt>
      <trkpt lat="47.10458" lon="2.27872">
        <ele>113.09</ele>
        <time>2015-08-17T20:06:34Z</time>
      </trkpt>
      <trkpt lat="47.10457" lon="2.27896">
        <ele>113.57</ele>
        <time>2015-08-17T20:06:46Z</time>
      </trkpt>
      <trkpt lat="47.10455" lon="2.27901">
        <ele>113.57</ele>
        <time>2015-08-17T20:06:47Z</time>
      </trkpt>
      <trkpt lat="47.10454" lon="2.27906">
        <ele>113.57</ele>
        <time>2015-08-17T20:06:48Z</time>
      </trkpt>
      <trkpt lat="47.10454" lon="2.27912">
        <ele>113.57</ele>
        <time>2015-08-17T20:06:49Z</time>
      </trkpt>
      <trkpt lat="47.10452" lon="2.2792">
        <ele>113.57</ele>
        <time>2015-08-17T20:06:50Z</time>
      </trkpt>
      <trkpt lat="47.10451" lon="2.27924">
        <ele>113.57</ele>
        <time>2015-08-17T20:06:51Z</time>
      </trkpt>
      <trkpt lat="47.10449" lon="2.2793">
        <ele>113.57</ele>
        <time>2015-08-17T20:06:52Z</time>
      </trkpt>
      <trkpt lat="47.10448" lon="2.27935">
        <ele>113.57</ele>
        <time>2015-08-17T20:06:53Z</time>
      </trkpt>
      <trkpt lat="47.10446" lon="2.2794">
        <ele>113.57</ele>
        <time>2015-08-17T20:06:54Z</time>
      </trkpt>
      <trkpt lat="47.10446" lon="2.27943">
        <ele>113.57</ele>
        <time>2015-08-17T20:06:55Z</time>
      </trkpt>
      <trkpt lat="47.10445" lon="2.27945">
        <ele>113.57</ele>
        <time>2015-08-17T20:06:56Z</time>
      </trkpt>
      <trkpt lat="47.10445" lon="2.27948">
        <ele>113.57</ele>
        <time>2015-08-17T20:06:57Z</time>
      </trkpt>
      <trkpt lat="47.10444" lon="2.27953">
        <ele>113.57</ele>
        <time>2015-08-17T20:06:58Z</time>
      </trkpt>
      <trkpt lat="47.10444" lon="2.27956">
        <ele>113.57</ele>
        <time>2015-08-17T20:06:59Z</time>
      </trkpt>
      <trkpt lat="47.10443" lon="2.27961">
        <ele>113.57</ele>
        <time>2015-08-17T20:07:00Z</time>
      </trkpt>
      <trkpt lat="47.10441" lon="2.27967">
        <ele>113.57</ele>
        <time>2015-08-17T20:07:01Z</time>
      </trkpt>
      <trkpt lat="47.10439" lon="2.27973">
        <ele>113.57</ele>
        <time>2015-08-17T20:07:02Z</time>
      </trkpt>
      <trkpt lat="47.10437" lon="2.27979">
        <ele>113.57</ele>
        <time>2015-08-17T20:07:03Z</time>
      </trkpt>
      <trkpt lat="47.10438" lon="2.28006">
        <ele>114.05</ele>
        <time>2015-08-17T20:07:13Z</time>
      </trkpt>
      <trkpt lat="47.10431" lon="2.28038">
        <ele>114.05</ele>
        <time>2015-08-17T20:07:20Z</time>
      </trkpt>
      <trkpt lat="47.10431" lon="2.28043">
        <ele>114.05</ele>
        <time>2015-08-17T20:07:21Z</time>
      </trkpt>
      <trkpt lat="47.10431" lon="2.28046">
        <ele>114.05</ele>
        <time>2015-08-17T20:07:22Z</time>
      </trkpt>
      <trkpt lat="47.10428" lon="2.28076">
        <ele>114.05</ele>
        <time>2015-08-17T20:07:28Z</time>
      </trkpt>
      <trkpt lat="47.10428" lon="2.28082">
        <ele>114.05</ele>
        <time>2015-08-17T20:07:29Z</time>
      </trkpt>
      <trkpt lat="47.10422" lon="2.28132">
        <ele>114.05</ele>
        <time>2015-08-17T20:07:38Z</time>
      </trkpt>
      <trkpt lat="47.10411" lon="2.2818">
        <ele>114.05</ele>
        <time>2015-08-17T20:07:49Z</time>
      </trkpt>
      <trkpt lat="47.10404" lon="2.28219">
        <ele>114.05</ele>
        <time>2015-08-17T20:07:57Z</time>
      </trkpt>
      <trkpt lat="47.10393" lon="2.28273">
        <ele>114.05</ele>
        <time>2015-08-17T20:08:07Z</time>
      </trkpt>
      <trkpt lat="47.10391" lon="2.28279">
        <ele>114.05</ele>
        <time>2015-08-17T20:08:08Z</time>
      </trkpt>
      <trkpt lat="47.1039" lon="2.28284">
        <ele>114.05</ele>
        <time>2015-08-17T20:08:09Z</time>
      </trkpt>
      <trkpt lat="47.10388" lon="2.28295">
        <ele>114.05</ele>
        <time>2015-08-17T20:08:12Z</time>
      </trkpt>
      <trkpt lat="47.10382" lon="2.28344">
        <ele>114.05</ele>
        <time>2015-08-17T20:08:22Z</time>
      </trkpt>
      <trkpt lat="47.10382" lon="2.2835">
        <ele>114.05</ele>
        <time>2015-08-17T20:08:23Z</time>
      </trkpt>
      <trkpt lat="47.1038" lon="2.28368">
        <ele>114.53</ele>
        <time>2015-08-17T20:08:27Z</time>
      </trkpt>
      <trkpt lat="47.10366" lon="2.28419">
        <ele>114.53</ele>
        <time>2015-08-17T20:08:38Z</time>
      </trkpt>
      <trkpt lat="47.10362" lon="2.28436">
        <ele>114.53</ele>
        <time>2015-08-17T20:08:47Z</time>
      </trkpt>
      <trkpt lat="47.10362" lon="2.28441">
        <ele>114.53</ele>
        <time>2015-08-17T20:08:50Z</time>
      </trkpt>
      <trkpt lat="47.10363" lon="2.28443">
        <ele>114.53</ele>
        <time>2015-08-17T20:08:51Z</time>
      </trkpt>
      <trkpt lat="47.10362" lon="2.28444">
        <ele>114.53</ele>
        <time>2015-08-17T20:09:24Z</time>
      </trkpt>
      <trkpt lat="47.10361" lon="2.28445">
        <ele>115.01</ele>
        <time>2015-08-17T20:09:50Z</time>
      </trkpt>
      <trkpt lat="47.10362" lon="2.2845">
        <ele>114.53</ele>
        <time>2015-08-17T20:10:03Z</time>
      </trkpt>
      <trkpt lat="47.10352" lon="2.28509">
        <ele>115.01</ele>
        <time>2015-08-17T20:10:17Z</time>
      </trkpt>
      <trkpt lat="47.10343" lon="2.28579">
        <ele>115.01</ele>
        <time>2015-08-17T20:10:29Z</time>
      </trkpt>
      <trkpt lat="47.10333" lon="2.2864">
        <ele>115.5</ele>
        <time>2015-08-17T20:10:42Z</time>
      </trkpt>
      <trkpt lat="47.10321" lon="2.28687">
        <ele>115.5</ele>
        <time>2015-08-17T20:10:52Z</time>
      </trkpt>
      <trkpt lat="47.1032" lon="2.28691">
        <ele>115.5</ele>
        <time>2015-08-17T20:10:53Z</time>
      </trkpt>
      <trkpt lat="47.10319" lon="2.28697">
        <ele>115.5</ele>
        <time>2015-08-17T20:10:54Z</time>
      </trkpt>
      <trkpt lat="47.10318" lon="2.28701">
        <ele>115.5</ele>
        <time>2015-08-17T20:10:55Z</time>
      </trkpt>
      <trkpt lat="47.10318" lon="2.28705">
        <ele>115.5</ele>
        <time>2015-08-17T20:10:56Z</time>
      </trkpt>
      <trkpt lat="47.10317" lon="2.28709">
        <ele>115.5</ele>
        <time>2015-08-17T20:10:57Z</time>
      </trkpt>
      <trkpt lat="47.10316" lon="2.28713">
        <ele>115.5</ele>
        <time>2015-08-17T20:10:58Z</time>
      </trkpt>
      <trkpt lat="47.1031" lon="2.28747">
        <ele>115.5</ele>
        <time>2015-08-17T20:11:06Z</time>
      </trkpt>
      <trkpt lat="47.10299" lon="2.28785">
        <ele>115.5</ele>
        <time>2015-08-17T20:11:15Z</time>
      </trkpt>
      <trkpt lat="47.10298" lon="2.28791">
        <ele>115.98</ele>
        <time>2015-08-17T20:11:16Z</time>
      </trkpt>
      <trkpt lat="47.10297" lon="2.28794">
        <ele>115.5</ele>
        <time>2015-08-17T20:11:17Z</time>
      </trkpt>
      <trkpt lat="47.10297" lon="2.28799">
        <ele>115.98</ele>
        <time>2015-08-17T20:11:18Z</time>
      </trkpt>
      <trkpt lat="47.10295" lon="2.28804">
        <ele>115.5</ele>
        <time>2015-08-17T20:11:19Z</time>
      </trkpt>
      <trkpt lat="47.10294" lon="2.28806">
        <ele>115.5</ele>
        <time>2015-08-17T20:11:20Z</time>
      </trkpt>
      <trkpt lat="47.10292" lon="2.28809">
        <ele>115.98</ele>
        <time>2015-08-17T20:11:21Z</time>
      </trkpt>
      <trkpt lat="47.10291" lon="2.28812">
        <ele>115.98</ele>
        <time>2015-08-17T20:11:22Z</time>
      </trkpt>
      <trkpt lat="47.10283" lon="2.28855">
        <ele>115.5</ele>
        <time>2015-08-17T20:11:31Z</time>
      </trkpt>
      <trkpt lat="47.10279" lon="2.28871">
        <ele>115.5</ele>
        <time>2015-08-17T20:11:35Z</time>
      </trkpt>
      <trkpt lat="47.10266" lon="2.28948">
        <ele>115.5</ele>
        <time>2015-08-17T20:11:50Z</time>
      </trkpt>
      <trkpt lat="47.10254" lon="2.29008">
        <ele>115.5</ele>
        <time>2015-08-17T20:12:02Z</time>
      </trkpt>
      <trkpt lat="47.10236" lon="2.2908">
        <ele>115.5</ele>
        <time>2015-08-17T20:12:17Z</time>
      </trkpt>
      <trkpt lat="47.10226" lon="2.29113">
        <ele>115.98</ele>
        <time>2015-08-17T20:12:26Z</time>
      </trkpt>
      <trkpt lat="47.10225" lon="2.29116">
        <ele>115.5</ele>
        <time>2015-08-17T20:12:27Z</time>
      </trkpt>
      <trkpt lat="47.10225" lon="2.29117">
        <ele>115.5</ele>
        <time>2015-08-17T20:12:28Z</time>
      </trkpt>
      <trkpt lat="47.10225" lon="2.29119">
        <ele>115.98</ele>
        <time>2015-08-17T20:12:35Z</time>
      </trkpt>
      <trkpt lat="47.10226" lon="2.29131">
        <ele>115.98</ele>
        <time>2015-08-17T20:13:01Z</time>
      </trkpt>
      <trkpt lat="47.10225" lon="2.29137">
        <ele>116.46</ele>
        <time>2015-08-17T20:13:12Z</time>
      </trkpt>
      <trkpt lat="47.10222" lon="2.29144">
        <ele>116.46</ele>
        <time>2015-08-17T20:13:15Z</time>
      </trkpt>
      <trkpt lat="47.10206" lon="2.29191">
        <ele>116.46</ele>
        <time>2015-08-17T20:13:26Z</time>
      </trkpt>
      <trkpt lat="47.10183" lon="2.29244">
        <ele>116.94</ele>
        <time>2015-08-17T20:13:38Z</time>
      </trkpt>
      <trkpt lat="47.1017" lon="2.29272">
        <ele>116.94</ele>
        <time>2015-08-17T20:13:45Z</time>
      </trkpt>
      <trkpt lat="47.10151" lon="2.29321">
        <ele>117.42</ele>
        <time>2015-08-17T20:13:56Z</time>
      </trkpt>
      <trkpt lat="47.10133" lon="2.29361">
        <ele>117.42</ele>
        <time>2015-08-17T20:14:07Z</time>
      </trkpt>
      <trkpt lat="47.10114" lon="2.29406">
        <ele>117.9</ele>
        <time>2015-08-17T20:14:20Z</time>
      </trkpt>
      <trkpt lat="47.10099" lon="2.29442">
        <ele>117.9</ele>
        <time>2015-08-17T20:14:31Z</time>
      </trkpt>
      <trkpt lat="47.10085" lon="2.29472">
        <ele>117.9</ele>
        <time>2015-08-17T20:14:41Z</time>
      </trkpt>
      <trkpt lat="47.10075" lon="2.29494">
        <ele>118.38</ele>
        <time>2015-08-17T20:14:49Z</time>
      </trkpt>
      <trkpt lat="47.10058" lon="2.29538">
        <ele>118.38</ele>
        <time>2015-08-17T20:15:02Z</time>
      </trkpt>
      <trkpt lat="47.10037" lon="2.29589">
        <ele>118.38</ele>
        <time>2015-08-17T20:15:15Z</time>
      </trkpt>
      <trkpt lat="47.1001" lon="2.29659">
        <ele>118.86</ele>
        <time>2015-08-17T20:15:32Z</time>
      </trkpt>
      <trkpt lat="47.0999" lon="2.29711">
        <ele>118.86</ele>
        <time>2015-08-17T20:15:44Z</time>
      </trkpt>
      <trkpt lat="47.0997" lon="2.29757">
        <ele>119.34</ele>
        <time>2015-08-17T20:15:55Z</time>
      </trkpt>
      <trkpt lat="47.09946" lon="2.29806">
        <ele>119.82</ele>
        <time>2015-08-17T20:16:09Z</time>
      </trkpt>
      <trkpt lat="47.09945" lon="2.29808">
        <ele>119.82</ele>
        <time>2015-08-17T20:16:10Z</time>
      </trkpt>
      <trkpt lat="47.09944" lon="2.2981">
        <ele>120.3</ele>
        <time>2015-08-17T20:16:11Z</time>
      </trkpt>
      <trkpt lat="47.09943" lon="2.29812">
        <ele>120.3</ele>
        <time>2015-08-17T20:16:12Z</time>
      </trkpt>
      <trkpt lat="47.09942" lon="2.29814">
        <ele>120.3</ele>
        <time>2015-08-17T20:16:13Z</time>
      </trkpt>
      <trkpt lat="47.09941" lon="2.29817">
        <ele>120.3</ele>
        <time>2015-08-17T20:16:14Z</time>
      </trkpt>
      <trkpt lat="47.09939" lon="2.29819">
        <ele>120.3</ele>
        <time>2015-08-17T20:16:15Z</time>
      </trkpt>
      <trkpt lat="47.09938" lon="2.29819">
        <ele>120.3</ele>
        <time>2015-08-17T20:16:16Z</time>
      </trkpt>
      <trkpt lat="47.09935" lon="2.29817">
        <ele>120.78</ele>
        <time>2015-08-17T20:16:18Z</time>
      </trkpt>
      <trkpt lat="47.09934" lon="2.29816">
        <ele>120.3</ele>
        <time>2015-08-17T20:16:19Z</time>
      </trkpt>
      <trkpt lat="47.09933" lon="2.29815">
        <ele>120.3</ele>
        <time>2015-08-17T20:16:20Z</time>
      </trkpt>
      <trkpt lat="47.09932" lon="2.29814">
        <ele>120.3</ele>
        <time>2015-08-17T20:16:21Z</time>
      </trkpt>
      <trkpt lat="47.09931" lon="2.29814">
        <ele>120.3</ele>
        <time>2015-08-17T20:16:22Z</time>
      </trkpt>
      <trkpt lat="47.09931" lon="2.29814">
        <ele>120.3</ele>
        <time>2015-08-17T20:16:25Z</time>
      </trkpt>
      <trkpt lat="47.0993" lon="2.29814">
        <ele>120.3</ele>
        <time>2015-08-17T20:16:50Z</time>
      </trkpt>
      <trkpt lat="47.0993" lon="2.29814">
        <ele>120.3</ele>
        <time>2015-08-17T20:17:06Z</time>
      </trkpt>
      <trkpt lat="47.09929" lon="2.29817">
        <ele>120.78</ele>
        <time>2015-08-17T20:17:17Z</time>
      </trkpt>
      <trkpt lat="47.09907" lon="2.29867">
        <ele>120.78</ele>
        <time>2015-08-17T20:17:33Z</time>
      </trkpt>
      <trkpt lat="47.09886" lon="2.29917">
        <ele>120.78</ele>
        <time>2015-08-17T20:17:48Z</time>
      </trkpt>
      <trkpt lat="47.09863" lon="2.29973">
        <ele>120.78</ele>
        <time>2015-08-17T20:18:03Z</time>
      </trkpt>
      <trkpt lat="47.09841" lon="2.30028">
        <ele>120.78</ele>
        <time>2015-08-17T20:18:18Z</time>
      </trkpt>
      <trkpt lat="47.09816" lon="2.30089">
        <ele>120.78</ele>
        <time>2015-08-17T20:18:35Z</time>
      </trkpt>
      <trkpt lat="47.09791" lon="2.30154">
        <ele>120.78</ele>
        <time>2015-08-17T20:18:52Z</time>
      </trkpt>
      <trkpt lat="47.09762" lon="2.30226">
        <ele>120.78</ele>
        <time>2015-08-17T20:19:10Z</time>
      </trkpt>
      <trkpt lat="47.09739" lon="2.30284">
        <ele>120.78</ele>
        <time>2015-08-17T20:19:26Z</time>
      </trkpt>
      <trkpt lat="47.09716" lon="2.3034">
        <ele>120.78</ele>
        <time>2015-08-17T20:19:42Z</time>
      </trkpt>
      <trkpt lat="47.09689" lon="2.30407">
        <ele>120.78</ele>
        <time>2015-08-17T20:20:00Z</time>
      </trkpt>
      <trkpt lat="47.09668" lon="2.30459">
        <ele>120.78</ele>
        <time>2015-08-17T20:20:15Z</time>
      </trkpt>
      <trkpt lat="47.09648" lon="2.30507">
        <ele>120.78</ele>
        <time>2015-08-17T20:20:29Z</time>
      </trkpt>
      <trkpt lat="47.09634" lon="2.30546">
        <ele>120.78</ele>
        <time>2015-08-17T20:20:41Z</time>
      </trkpt>
      <trkpt lat="47.09616" lon="2.30592">
        <ele>120.78</ele>
        <time>2015-08-17T20:20:55Z</time>
      </trkpt>
      <trkpt lat="47.09599" lon="2.30635">
        <ele>120.78</ele>
        <time>2015-08-17T20:21:09Z</time>
      </trkpt>
      <trkpt lat="47.09592" lon="2.30652">
        <ele>121.26</ele>
        <time>2015-08-17T20:21:22Z</time>
      </trkpt>
      <trkpt lat="47.09589" lon="2.30654">
        <ele>120.78</ele>
        <time>2015-08-17T20:21:35Z</time>
      </trkpt>
      <trkpt lat="47.09588" lon="2.30656">
        <ele>120.78</ele>
        <time>2015-08-17T20:21:36Z</time>
      </trkpt>
      <trkpt lat="47.09576" lon="2.30688">
        <ele>121.26</ele>
        <time>2015-08-17T20:21:46Z</time>
      </trkpt>
      <trkpt lat="47.09561" lon="2.30724">
        <ele>121.26</ele>
        <time>2015-08-17T20:21:57Z</time>
      </trkpt>
      <trkpt lat="47.09538" lon="2.30785">
        <ele>121.26</ele>
        <time>2015-08-17T20:22:14Z</time>
      </trkpt>
      <trkpt lat="47.09514" lon="2.30841">
        <ele>121.26</ele>
        <time>2015-08-17T20:22:30Z</time>
      </trkpt>
      <trkpt lat="47.09495" lon="2.30889">
        <ele>121.26</ele>
        <time>2015-08-17T20:22:44Z</time>
      </trkpt>
      <trkpt lat="47.09482" lon="2.30924">
        <ele>121.26</ele>
        <time>2015-08-17T20:22:57Z</time>
      </trkpt>
      <trkpt lat="47.09482" lon="2.30928">
        <ele>121.26</ele>
        <time>2015-08-17T20:23:00Z</time>
      </trkpt>
      <trkpt lat="47.09488" lon="2.30934">
        <ele>121.26</ele>
        <time>2015-08-17T20:23:06Z</time>
      </trkpt>
      <trkpt lat="47.09488" lon="2.30936">
        <ele>121.26</ele>
        <time>2015-08-17T20:23:07Z</time>
      </trkpt>
      <trkpt lat="47.09489" lon="2.30937">
        <ele>121.26</ele>
        <time>2015-08-17T20:23:31Z</time>
      </trkpt>
      <trkpt lat="47.09482" lon="2.30959">
        <ele>121.74</ele>
        <time>2015-08-17T20:23:42Z</time>
      </trkpt>
      <trkpt lat="47.09453" lon="2.31012">
        <ele>121.26</ele>
        <time>2015-08-17T20:23:58Z</time>
      </trkpt>
      <trkpt lat="47.09422" lon="2.31062">
        <ele>121.74</ele>
        <time>2015-08-17T20:24:13Z</time>
      </trkpt>
      <trkpt lat="47.09391" lon="2.31107">
        <ele>121.74</ele>
        <time>2015-08-17T20:24:28Z</time>
      </trkpt>
      <trkpt lat="47.09359" lon="2.31153">
        <ele>121.74</ele>
        <time>2015-08-17T20:24:43Z</time>
      </trkpt>
      <trkpt lat="47.09332" lon="2.3119">
        <ele>121.74</ele>
        <time>2015-08-17T20:24:56Z</time>
      </trkpt>
      <trkpt lat="47.09306" lon="2.31227">
        <ele>121.74</ele>
        <time>2015-08-17T20:25:08Z</time>
      </trkpt>
      <trkpt lat="47.09279" lon="2.31269">
        <ele>121.74</ele>
        <time>2015-08-17T20:25:22Z</time>
      </trkpt>
      <trkpt lat="47.09256" lon="2.31309">
        <ele>121.74</ele>
        <time>2015-08-17T20:25:36Z</time>
      </trkpt>
      <trkpt lat="47.09227" lon="2.31352">
        <ele>121.74</ele>
        <time>2015-08-17T20:25:52Z</time>
      </trkpt>
      <trkpt lat="47.09208" lon="2.31379">
        <ele>121.74</ele>
        <time>2015-08-17T20:26:05Z</time>
      </trkpt>
      <trkpt lat="47.09206" lon="2.31382">
        <ele>121.74</ele>
        <time>2015-08-17T20:26:06Z</time>
      </trkpt>
      <trkpt lat="47.09205" lon="2.31384">
        <ele>121.74</ele>
        <time>2015-08-17T20:26:07Z</time>
      </trkpt>
      <trkpt lat="47.09203" lon="2.31386">
        <ele>121.74</ele>
        <time>2015-08-17T20:26:08Z</time>
      </trkpt>
      <trkpt lat="47.09202" lon="2.31388">
        <ele>121.74</ele>
        <time>2015-08-17T20:26:09Z</time>
      </trkpt>
      <trkpt lat="47.092" lon="2.31391">
        <ele>121.74</ele>
        <time>2015-08-17T20:26:10Z</time>
      </trkpt>
      <trkpt lat="47.09199" lon="2.31392">
        <ele>121.74</ele>
        <time>2015-08-17T20:26:11Z</time>
      </trkpt>
      <trkpt lat="47.09197" lon="2.31394">
        <ele>121.74</ele>
        <time>2015-08-17T20:26:12Z</time>
      </trkpt>
      <trkpt lat="47.09187" lon="2.31408">
        <ele>121.74</ele>
        <time>2015-08-17T20:26:18Z</time>
      </trkpt>
      <trkpt lat="47.09162" lon="2.31444">
        <ele>121.74</ele>
        <time>2015-08-17T20:26:32Z</time>
      </trkpt>
      <trkpt lat="47.09138" lon="2.31476">
        <ele>121.74</ele>
        <time>2015-08-17T20:26:45Z</time>
      </trkpt>
      <trkpt lat="47.09133" lon="2.31483">
        <ele>121.74</ele>
        <time>2015-08-17T20:27:05Z</time>
      </trkpt>
      <trkpt lat="47.09132" lon="2.31487">
        <ele>121.74</ele>
        <time>2015-08-17T20:27:20Z</time>
      </trkpt>
      <trkpt lat="47.0913" lon="2.31488">
        <ele>122.22</ele>
        <time>2015-08-17T20:27:21Z</time>
      </trkpt>
      <trkpt lat="47.09126" lon="2.31493">
        <ele>122.22</ele>
        <time>2015-08-17T20:27:24Z</time>
      </trkpt>
      <trkpt lat="47.09125" lon="2.31495">
        <ele>122.71</ele>
        <time>2015-08-17T20:27:25Z</time>
      </trkpt>
      <trkpt lat="47.09123" lon="2.31497">
        <ele>121.74</ele>
        <time>2015-08-17T20:27:26Z</time>
      </trkpt>
      <trkpt lat="47.09122" lon="2.31499">
        <ele>121.74</ele>
        <time>2015-08-17T20:27:27Z</time>
      </trkpt>
      <trkpt lat="47.0912" lon="2.315">
        <ele>121.74</ele>
        <time>2015-08-17T20:27:28Z</time>
      </trkpt>
      <trkpt lat="47.09119" lon="2.31501">
        <ele>121.74</ele>
        <time>2015-08-17T20:27:29Z</time>
      </trkpt>
      <trkpt lat="47.09117" lon="2.31502">
        <ele>122.22</ele>
        <time>2015-08-17T20:27:30Z</time>
      </trkpt>
      <trkpt lat="47.09116" lon="2.31502">
        <ele>122.22</ele>
        <time>2015-08-17T20:27:31Z</time>
      </trkpt>
      <trkpt lat="47.09115" lon="2.31503">
        <ele>122.22</ele>
        <time>2015-08-17T20:27:36Z</time>
      </trkpt>
      <trkpt lat="47.09114" lon="2.31504">
        <ele>121.74</ele>
        <time>2015-08-17T20:28:07Z</time>
      </trkpt>
      <trkpt lat="47.0911" lon="2.31505">
        <ele>121.74</ele>
        <time>2015-08-17T20:28:21Z</time>
      </trkpt>
      <trkpt lat="47.0909" lon="2.31512">
        <ele>121.74</ele>
        <time>2015-08-17T20:28:30Z</time>
      </trkpt>
      <trkpt lat="47.09074" lon="2.31544">
        <ele>121.74</ele>
        <time>2015-08-17T20:28:42Z</time>
      </trkpt>
      <trkpt lat="47.09035" lon="2.316">
        <ele>121.74</ele>
        <time>2015-08-17T20:28:58Z</time>
      </trkpt>
      <trkpt lat="47.09001" lon="2.31649">
        <ele>121.74</ele>
        <time>2015-08-17T20:29:12Z</time>
      </trkpt>
      <trkpt lat="47.0896" lon="2.31706">
        <ele>122.22</ele>
        <time>2015-08-17T20:29:29Z</time>
      </trkpt>
      <trkpt lat="47.08914" lon="2.31769">
        <ele>122.22</ele>
        <time>2015-08-17T20:29:48Z</time>
      </trkpt>
      <trkpt lat="47.08874" lon="2.31837">
        <ele>122.22</ele>
        <time>2015-08-17T20:30:06Z</time>
      </trkpt>
      <trkpt lat="47.08848" lon="2.31899">
        <ele>122.22</ele>
        <time>2015-08-17T20:30:22Z</time>
      </trkpt>
      <trkpt lat="47.08833" lon="2.31955">
        <ele>122.22</ele>
        <time>2015-08-17T20:30:36Z</time>
      </trkpt>
      <trkpt lat="47.08816" lon="2.32024">
        <ele>121.74</ele>
        <time>2015-08-17T20:30:51Z</time>
      </trkpt>
      <trkpt lat="47.08799" lon="2.32099">
        <ele>122.22</ele>
        <time>2015-08-17T20:31:07Z</time>
      </trkpt>
      <trkpt lat="47.0878" lon="2.32181">
        <ele>122.22</ele>
        <time>2015-08-17T20:31:25Z</time>
      </trkpt>
      <trkpt lat="47.08764" lon="2.32246">
        <ele>121.74</ele>
        <time>2015-08-17T20:31:40Z</time>
      </trkpt>
      <trkpt lat="47.08749" lon="2.3231">
        <ele>122.22</ele>
        <time>2015-08-17T20:31:55Z</time>
      </trkpt>
      <trkpt lat="47.08733" lon="2.32379">
        <ele>122.22</ele>
        <time>2015-08-17T20:32:11Z</time>
      </trkpt>
      <trkpt lat="47.08714" lon="2.32459">
        <ele>122.22</ele>
        <time>2015-08-17T20:32:28Z</time>
      </trkpt>
      <trkpt lat="47.08697" lon="2.3253">
        <ele>122.22</ele>
        <time>2015-08-17T20:32:44Z</time>
      </trkpt>
      <trkpt lat="47.08678" lon="2.32608">
        <ele>122.22</ele>
        <time>2015-08-17T20:33:02Z</time>
      </trkpt>
      <trkpt lat="47.08664" lon="2.32671">
        <ele>122.22</ele>
        <time>2015-08-17T20:33:17Z</time>
      </trkpt>
      <trkpt lat="47.08647" lon="2.32742">
        <ele>122.22</ele>
        <time>2015-08-17T20:33:33Z</time>
      </trkpt>
      <trkpt lat="47.08632" lon="2.32802">
        <ele>122.71</ele>
        <time>2015-08-17T20:33:46Z</time>
      </trkpt>
      <trkpt lat="47.08623" lon="2.3284">
        <ele>122.22</ele>
        <time>2015-08-17T20:33:58Z</time>
      </trkpt>
      <trkpt lat="47.08607" lon="2.32903">
        <ele>122.22</ele>
        <time>2015-08-17T20:34:14Z</time>
      </trkpt>
      <trkpt lat="47.08596" lon="2.3296">
        <ele>122.71</ele>
        <time>2015-08-17T20:34:29Z</time>
      </trkpt>
      <trkpt lat="47.08577" lon="2.33036">
        <ele>122.71</ele>
        <time>2015-08-17T20:34:47Z</time>
      </trkpt>
      <trkpt lat="47.08559" lon="2.33118">
        <ele>122.71</ele>
        <time>2015-08-17T20:35:06Z</time>
      </trkpt>
      <trkpt lat="47.08543" lon="2.33183">
        <ele>122.71</ele>
        <time>2015-08-17T20:35:23Z</time>
      </trkpt>
      <trkpt lat="47.0853" lon="2.33237">
        <ele>122.71</ele>
        <time>2015-08-17T20:35:37Z</time>
      </trkpt>
      <trkpt lat="47.08516" lon="2.33298">
        <ele>123.19</ele>
        <time>2015-08-17T20:35:52Z</time>
      </trkpt>
      <trkpt lat="47.085" lon="2.33363">
        <ele>123.19</ele>
        <time>2015-08-17T20:36:08Z</time>
      </trkpt>
      <trkpt lat="47.08484" lon="2.33431">
        <ele>123.19</ele>
        <time>2015-08-17T20:36:24Z</time>
      </trkpt>
      <trkpt lat="47.08464" lon="2.33508">
        <ele>123.67</ele>
        <time>2015-08-17T20:36:42Z</time>
      </trkpt>
      <trkpt lat="47.08461" lon="2.33523">
        <ele>123.67</ele>
        <time>2015-08-17T20:37:01Z</time>
      </trkpt>
      <trkpt lat="47.08462" lon="2.33528">
        <ele>123.19</ele>
        <time>2015-08-17T20:37:13Z</time>
      </trkpt>
      <trkpt lat="47.08452" lon="2.3361">
        <ele>123.67</ele>
        <time>2015-08-17T20:37:31Z</time>
      </trkpt>
      <trkpt lat="47.08448" lon="2.33706">
        <ele>123.67</ele>
        <time>2015-08-17T20:37:50Z</time>
      </trkpt>
      <trkpt lat="47.0845" lon="2.3378">
        <ele>123.67</ele>
        <time>2015-08-17T20:38:05Z</time>
      </trkpt>
      <trkpt lat="47.08453" lon="2.33845">
        <ele>123.67</ele>
        <time>2015-08-17T20:38:19Z</time>
      </trkpt>
      <trkpt lat="47.08453" lon="2.3385">
        <ele>124.15</ele>
        <time>2015-08-17T20:38:20Z</time>
      </trkpt>
      <trkpt lat="47.08453" lon="2.33855">
        <ele>123.67</ele>
        <time>2015-08-17T20:38:21Z</time>
      </trkpt>
      <trkpt lat="47.08451" lon="2.33866">
        <ele>124.15</ele>
        <time>2015-08-17T20:38:24Z</time>
      </trkpt>
      <trkpt lat="47.08452" lon="2.3391">
        <ele>124.15</ele>
        <time>2015-08-17T20:38:35Z</time>
      </trkpt>
      <trkpt lat="47.08452" lon="2.33963">
        <ele>124.15</ele>
        <time>2015-08-17T20:38:48Z</time>
      </trkpt>
      <trkpt lat="47.08453" lon="2.34023">
        <ele>124.15</ele>
        <time>2015-08-17T20:39:02Z</time>
      </trkpt>
      <trkpt lat="47.08454" lon="2.34091">
        <ele>124.63</ele>
        <time>2015-08-17T20:39:17Z</time>
      </trkpt>
      <trkpt lat="47.08456" lon="2.34148">
        <ele>125.59</ele>
        <time>2015-08-17T20:39:30Z</time>
      </trkpt>
      <trkpt lat="47.08456" lon="2.34212">
        <ele>124.63</ele>
        <time>2015-08-17T20:39:44Z</time>
      </trkpt>
      <trkpt lat="47.08457" lon="2.34257">
        <ele>125.59</ele>
        <time>2015-08-17T20:39:57Z</time>
      </trkpt>
      <trkpt lat="47.08457" lon="2.34259">
        <ele>126.07</ele>
        <time>2015-08-17T20:39:58Z</time>
      </trkpt>
      <trkpt lat="47.08457" lon="2.34261">
        <ele>126.07</ele>
        <time>2015-08-17T20:39:59Z</time>
      </trkpt>
      <trkpt lat="47.08458" lon="2.34264">
        <ele>126.07</ele>
        <time>2015-08-17T20:40:00Z</time>
      </trkpt>
      <trkpt lat="47.08458" lon="2.34266">
        <ele>126.07</ele>
        <time>2015-08-17T20:40:01Z</time>
      </trkpt>
      <trkpt lat="47.08458" lon="2.34269">
        <ele>126.07</ele>
        <time>2015-08-17T20:40:02Z</time>
      </trkpt>
      <trkpt lat="47.08458" lon="2.34271">
        <ele>126.07</ele>
        <time>2015-08-17T20:40:03Z</time>
      </trkpt>
      <trkpt lat="47.08458" lon="2.34274">
        <ele>126.07</ele>
        <time>2015-08-17T20:40:04Z</time>
      </trkpt>
      <trkpt lat="47.08457" lon="2.34276">
        <ele>126.55</ele>
        <time>2015-08-17T20:40:05Z</time>
      </trkpt>
      <trkpt lat="47.08457" lon="2.34278">
        <ele>126.07</ele>
        <time>2015-08-17T20:40:06Z</time>
      </trkpt>
      <trkpt lat="47.08456" lon="2.3428">
        <ele>126.07</ele>
        <time>2015-08-17T20:40:07Z</time>
      </trkpt>
      <trkpt lat="47.08455" lon="2.34282">
        <ele>126.55</ele>
        <time>2015-08-17T20:40:08Z</time>
      </trkpt>
      <trkpt lat="47.08455" lon="2.34284">
        <ele>126.07</ele>
        <time>2015-08-17T20:40:09Z</time>
      </trkpt>
      <trkpt lat="47.08456" lon="2.34287">
        <ele>126.55</ele>
        <time>2015-08-17T20:40:10Z</time>
      </trkpt>
      <trkpt lat="47.08454" lon="2.34312">
        <ele>126.55</ele>
        <time>2015-08-17T20:40:22Z</time>
      </trkpt>
      <trkpt lat="47.08455" lon="2.34317">
        <ele>126.55</ele>
        <time>2015-08-17T20:40:41Z</time>
      </trkpt>
      <trkpt lat="47.08455" lon="2.34316">
        <ele>126.55</ele>
        <time>2015-08-17T20:41:14Z</time>
      </trkpt>
      <trkpt lat="47.08456" lon="2.34317">
        <ele>126.55</ele>
        <time>2015-08-17T20:41:44Z</time>
      </trkpt>
      <trkpt lat="47.08457" lon="2.34316">
        <ele>126.55</ele>
        <time>2015-08-17T20:42:21Z</time>
      </trkpt>
      <trkpt lat="47.08456" lon="2.34314">
        <ele>126.07</ele>
        <time>2015-08-17T20:42:41Z</time>
      </trkpt>
      <trkpt lat="47.08456" lon="2.34315">
        <ele>126.55</ele>
        <time>2015-08-17T20:43:06Z</time>
      </trkpt>
      <trkpt lat="47.08459" lon="2.3434">
        <ele>126.55</ele>
        <time>2015-08-17T20:43:17Z</time>
      </trkpt>
      <trkpt lat="47.08462" lon="2.3441">
        <ele>126.55</ele>
        <time>2015-08-17T20:43:29Z</time>
      </trkpt>
      <trkpt lat="47.0846" lon="2.34454">
        <ele>126.55</ele>
        <time>2015-08-17T20:43:36Z</time>
      </trkpt>
      <trkpt lat="47.08458" lon="2.34515">
        <ele>126.55</ele>
        <time>2015-08-17T20:43:46Z</time>
      </trkpt>
      <trkpt lat="47.08455" lon="2.34584">
        <ele>126.55</ele>
        <time>2015-08-17T20:43:58Z</time>
      </trkpt>
      <trkpt lat="47.08453" lon="2.34633">
        <ele>127.03</ele>
        <time>2015-08-17T20:44:08Z</time>
      </trkpt>
      <trkpt lat="47.08449" lon="2.34697">
        <ele>126.55</ele>
        <time>2015-08-17T20:44:20Z</time>
      </trkpt>
      <trkpt lat="47.08449" lon="2.34701">
        <ele>126.55</ele>
        <time>2015-08-17T20:44:21Z</time>
      </trkpt>
      <trkpt lat="47.0845" lon="2.34706">
        <ele>126.55</ele>
        <time>2015-08-17T20:44:22Z</time>
      </trkpt>
      <trkpt lat="47.08451" lon="2.34725">
        <ele>127.03</ele>
        <time>2015-08-17T20:44:26Z</time>
      </trkpt>
      <trkpt lat="47.08452" lon="2.34783">
        <ele>126.55</ele>
        <time>2015-08-17T20:44:37Z</time>
      </trkpt>
      <trkpt lat="47.08456" lon="2.34847">
        <ele>127.03</ele>
        <time>2015-08-17T20:44:48Z</time>
      </trkpt>
      <trkpt lat="47.0846" lon="2.34908">
        <ele>127.03</ele>
        <time>2015-08-17T20:44:59Z</time>
      </trkpt>
      <trkpt lat="47.08464" lon="2.34964">
        <ele>127.03</ele>
        <time>2015-08-17T20:45:10Z</time>
      </trkpt>
      <trkpt lat="47.08465" lon="2.34969">
        <ele>127.03</ele>
        <time>2015-08-17T20:45:11Z</time>
      </trkpt>
      <trkpt lat="47.08465" lon="2.34973">
        <ele>127.03</ele>
        <time>2015-08-17T20:45:12Z</time>
      </trkpt>
      <trkpt lat="47.08467" lon="2.34982">
        <ele>127.03</ele>
        <time>2015-08-17T20:45:14Z</time>
      </trkpt>
      <trkpt lat="47.08471" lon="2.35039">
        <ele>127.03</ele>
        <time>2015-08-17T20:45:26Z</time>
      </trkpt>
      <trkpt lat="47.08477" lon="2.35111">
        <ele>127.51</ele>
        <time>2015-08-17T20:45:39Z</time>
      </trkpt>
      <trkpt lat="47.08484" lon="2.35173">
        <ele>127.51</ele>
        <time>2015-08-17T20:45:51Z</time>
      </trkpt>
      <trkpt lat="47.08492" lon="2.35259">
        <ele>127.51</ele>
        <time>2015-08-17T20:46:07Z</time>
      </trkpt>
      <trkpt lat="47.08499" lon="2.35338">
        <ele>127.51</ele>
        <time>2015-08-17T20:46:20Z</time>
      </trkpt>
      <trkpt lat="47.08503" lon="2.35392">
        <ele>127.99</ele>
        <time>2015-08-17T20:46:30Z</time>
      </trkpt>
      <trkpt lat="47.0851" lon="2.35458">
        <ele>127.99</ele>
        <time>2015-08-17T20:46:43Z</time>
      </trkpt>
      <trkpt lat="47.08515" lon="2.35524">
        <ele>127.51</ele>
        <time>2015-08-17T20:46:57Z</time>
      </trkpt>
      <trkpt lat="47.08521" lon="2.35565">
        <ele>127.51</ele>
        <time>2015-08-17T20:47:06Z</time>
      </trkpt>
      <trkpt lat="47.08521" lon="2.35568">
        <ele>127.99</ele>
        <time>2015-08-17T20:47:07Z</time>
      </trkpt>
      <trkpt lat="47.0852" lon="2.3557">
        <ele>127.51</ele>
        <time>2015-08-17T20:47:08Z</time>
      </trkpt>
      <trkpt lat="47.08519" lon="2.35572">
        <ele>127.51</ele>
        <time>2015-08-17T20:47:09Z</time>
      </trkpt>
      <trkpt lat="47.08519" lon="2.35574">
        <ele>127.51</ele>
        <time>2015-08-17T20:47:10Z</time>
      </trkpt>
      <trkpt lat="47.08518" lon="2.35576">
        <ele>127.51</ele>
        <time>2015-08-17T20:47:29Z</time>
      </trkpt>
      <trkpt lat="47.0852" lon="2.35577">
        <ele>127.51</ele>
        <time>2015-08-17T20:47:59Z</time>
      </trkpt>
      <trkpt lat="47.08521" lon="2.35579">
        <ele>127.99</ele>
        <time>2015-08-17T20:48:16Z</time>
      </trkpt>
      <trkpt lat="47.08542" lon="2.35638">
        <ele>127.99</ele>
        <time>2015-08-17T20:48:31Z</time>
      </trkpt>
      <trkpt lat="47.08545" lon="2.35644">
        <ele>128.47</ele>
        <time>2015-08-17T20:48:32Z</time>
      </trkpt>
      <trkpt lat="47.08547" lon="2.3565">
        <ele>128.47</ele>
        <time>2015-08-17T20:48:33Z</time>
      </trkpt>
      <trkpt lat="47.08561" lon="2.35685">
        <ele>127.99</ele>
        <time>2015-08-17T20:48:39Z</time>
      </trkpt>
      <trkpt lat="47.08586" lon="2.35748">
        <ele>127.99</ele>
        <time>2015-08-17T20:48:51Z</time>
      </trkpt>
      <trkpt lat="47.08604" lon="2.35794">
        <ele>128.47</ele>
        <time>2015-08-17T20:49:01Z</time>
      </trkpt>
      <trkpt lat="47.08619" lon="2.35833">
        <ele>127.99</ele>
        <time>2015-08-17T20:49:11Z</time>
      </trkpt>
      <trkpt lat="47.08621" lon="2.35837">
        <ele>127.99</ele>
        <time>2015-08-17T20:49:12Z</time>
      </trkpt>
      <trkpt lat="47.08623" lon="2.35852">
        <ele>127.99</ele>
        <time>2015-08-17T20:49:17Z</time>
      </trkpt>
      <trkpt lat="47.08635" lon="2.35882">
        <ele>127.99</ele>
        <time>2015-08-17T20:49:27Z</time>
      </trkpt>
      <trkpt lat="47.08646" lon="2.3594">
        <ele>127.51</ele>
        <time>2015-08-17T20:49:40Z</time>
      </trkpt>
      <trkpt lat="47.08646" lon="2.35944">
        <ele>127.51</ele>
        <time>2015-08-17T20:49:41Z</time>
      </trkpt>
      <trkpt lat="47.08647" lon="2.35948">
        <ele>127.99</ele>
        <time>2015-08-17T20:49:43Z</time>
      </trkpt>
      <trkpt lat="47.08647" lon="2.35951">
        <ele>127.99</ele>
        <time>2015-08-17T20:49:44Z</time>
      </trkpt>
      <trkpt lat="47.08647" lon="2.35956">
        <ele>127.99</ele>
        <time>2015-08-17T20:49:45Z</time>
      </trkpt>
      <trkpt lat="47.08647" lon="2.3596">
        <ele>127.99</ele>
        <time>2015-08-17T20:49:46Z</time>
      </trkpt>
      <trkpt lat="47.08648" lon="2.35964">
        <ele>127.99</ele>
        <time>2015-08-17T20:49:47Z</time>
      </trkpt>
      <trkpt lat="47.08648" lon="2.35969">
        <ele>127.99</ele>
        <time>2015-08-17T20:49:48Z</time>
      </trkpt>
      <trkpt lat="47.08648" lon="2.35973">
        <ele>127.99</ele>
        <time>2015-08-17T20:49:49Z</time>
      </trkpt>
      <trkpt lat="47.08648" lon="2.35991">
        <ele>127.99</ele>
        <time>2015-08-17T20:49:53Z</time>
      </trkpt>
      <trkpt lat="47.08648" lon="2.36038">
        <ele>127.99</ele>
        <time>2015-08-17T20:50:03Z</time>
      </trkpt>
      <trkpt lat="47.08649" lon="2.36043">
        <ele>127.99</ele>
        <time>2015-08-17T20:50:04Z</time>
      </trkpt>
      <trkpt lat="47.08649" lon="2.36048">
        <ele>127.99</ele>
        <time>2015-08-17T20:50:05Z</time>
      </trkpt>
      <trkpt lat="47.08649" lon="2.36053">
        <ele>127.99</ele>
        <time>2015-08-17T20:50:06Z</time>
      </trkpt>
      <trkpt lat="47.08649" lon="2.36057">
        <ele>127.99</ele>
        <time>2015-08-17T20:50:07Z</time>
      </trkpt>
      <trkpt lat="47.08649" lon="2.36061">
        <ele>127.99</ele>
        <time>2015-08-17T20:50:08Z</time>
      </trkpt>
      <trkpt lat="47.08649" lon="2.36065">
        <ele>127.99</ele>
        <time>2015-08-17T20:50:09Z</time>
      </trkpt>
      <trkpt lat="47.08649" lon="2.36069">
        <ele>127.99</ele>
        <time>2015-08-17T20:50:10Z</time>
      </trkpt>
      <trkpt lat="47.08649" lon="2.36074">
        <ele>127.99</ele>
        <time>2015-08-17T20:50:11Z</time>
      </trkpt>
      <trkpt lat="47.08648" lon="2.36078">
        <ele>127.99</ele>
        <time>2015-08-17T20:50:12Z</time>
      </trkpt>
      <trkpt lat="47.08646" lon="2.36111">
        <ele>127.99</ele>
        <time>2015-08-17T20:50:19Z</time>
      </trkpt>
      <trkpt lat="47.08649" lon="2.36158">
        <ele>127.99</ele>
        <time>2015-08-17T20:50:30Z</time>
      </trkpt>
      <trkpt lat="47.0865" lon="2.36211">
        <ele>127.99</ele>
        <time>2015-08-17T20:50:41Z</time>
      </trkpt>
      <trkpt lat="47.0865" lon="2.36216">
        <ele>127.99</ele>
        <time>2015-08-17T20:50:42Z</time>
      </trkpt>
      <trkpt lat="47.0865" lon="2.3622">
        <ele>127.99</ele>
        <time>2015-08-17T20:50:43Z</time>
      </trkpt>
      <trkpt lat="47.0865" lon="2.36224">
        <ele>128.47</ele>
        <time>2015-08-17T20:50:44Z</time>
      </trkpt>
      <trkpt lat="47.08651" lon="2.36229">
        <ele>128.47</ele>
        <time>2015-08-17T20:50:45Z</time>
      </trkpt>
      <trkpt lat="47.08651" lon="2.36233">
        <ele>127.99</ele>
        <time>2015-08-17T20:50:46Z</time>
      </trkpt>
      <trkpt lat="47.08651" lon="2.36248">
        <ele>127.99</ele>
        <time>2015-08-17T20:50:49Z</time>
      </trkpt>
      <trkpt lat="47.08654" lon="2.36291">
        <ele>127.99</ele>
        <time>2015-08-17T20:50:58Z</time>
      </trkpt>
      <trkpt lat="47.08652" lon="2.36332">
        <ele>127.99</ele>
        <time>2015-08-17T20:51:08Z</time>
      </trkpt>
      <trkpt lat="47.08652" lon="2.36374">
        <ele>127.99</ele>
        <time>2015-08-17T20:51:17Z</time>
      </trkpt>
      <trkpt lat="47.08653" lon="2.36378">
        <ele>127.99</ele>
        <time>2015-08-17T20:51:18Z</time>
      </trkpt>
      <trkpt lat="47.08652" lon="2.36383">
        <ele>127.99</ele>
        <time>2015-08-17T20:51:19Z</time>
      </trkpt>
      <trkpt lat="47.08652" lon="2.36387">
        <ele>127.99</ele>
        <time>2015-08-17T20:51:20Z</time>
      </trkpt>
      <trkpt lat="47.08652" lon="2.36392">
        <ele>127.99</ele>
        <time>2015-08-17T20:51:21Z</time>
      </trkpt>
      <trkpt lat="47.08652" lon="2.36396">
        <ele>127.99</ele>
        <time>2015-08-17T20:51:22Z</time>
      </trkpt>
      <trkpt lat="47.08653" lon="2.36426">
        <ele>127.99</ele>
        <time>2015-08-17T20:51:30Z</time>
      </trkpt>
      <trkpt lat="47.08654" lon="2.3649">
        <ele>127.99</ele>
        <time>2015-08-17T20:51:43Z</time>
      </trkpt>
      <trkpt lat="47.08654" lon="2.36494">
        <ele>127.99</ele>
        <time>2015-08-17T20:51:44Z</time>
      </trkpt>
      <trkpt lat="47.08655" lon="2.36498">
        <ele>127.99</ele>
        <time>2015-08-17T20:51:45Z</time>
      </trkpt>
      <trkpt lat="47.08655" lon="2.36502">
        <ele>127.99</ele>
        <time>2015-08-17T20:51:46Z</time>
      </trkpt>
      <trkpt lat="47.08655" lon="2.36507">
        <ele>127.99</ele>
        <time>2015-08-17T20:51:47Z</time>
      </trkpt>
      <trkpt lat="47.08656" lon="2.36511">
        <ele>127.99</ele>
        <time>2015-08-17T20:51:48Z</time>
      </trkpt>
      <trkpt lat="47.08657" lon="2.36515">
        <ele>127.51</ele>
        <time>2015-08-17T20:51:49Z</time>
      </trkpt>
      <trkpt lat="47.08657" lon="2.36519">
        <ele>127.99</ele>
        <time>2015-08-17T20:51:50Z</time>
      </trkpt>
      <trkpt lat="47.08658" lon="2.36544">
        <ele>127.99</ele>
        <time>2015-08-17T20:51:56Z</time>
      </trkpt>
      <trkpt lat="47.0866" lon="2.36586">
        <ele>127.51</ele>
        <time>2015-08-17T20:52:06Z</time>
      </trkpt>
      <trkpt lat="47.08659" lon="2.36627">
        <ele>127.51</ele>
        <time>2015-08-17T20:52:15Z</time>
      </trkpt>
      <trkpt lat="47.0866" lon="2.36678">
        <ele>127.99</ele>
        <time>2015-08-17T20:52:25Z</time>
      </trkpt>
      <trkpt lat="47.0866" lon="2.36683">
        <ele>127.99</ele>
        <time>2015-08-17T20:52:26Z</time>
      </trkpt>
      <trkpt lat="47.08662" lon="2.36703">
        <ele>127.99</ele>
        <time>2015-08-17T20:52:30Z</time>
      </trkpt>
      <trkpt lat="47.08661" lon="2.36721">
        <ele>127.99</ele>
        <time>2015-08-17T20:52:34Z</time>
      </trkpt>
      <trkpt lat="47.08661" lon="2.36725">
        <ele>127.99</ele>
        <time>2015-08-17T20:52:35Z</time>
      </trkpt>
      <trkpt lat="47.08661" lon="2.3673">
        <ele>127.99</ele>
        <time>2015-08-17T20:52:36Z</time>
      </trkpt>
      <trkpt lat="47.08662" lon="2.36735">
        <ele>127.99</ele>
        <time>2015-08-17T20:52:37Z</time>
      </trkpt>
      <trkpt lat="47.08663" lon="2.36742">
        <ele>127.99</ele>
        <time>2015-08-17T20:52:38Z</time>
      </trkpt>
      <trkpt lat="47.0866" lon="2.36784">
        <ele>127.99</ele>
        <time>2015-08-17T20:52:49Z</time>
      </trkpt>
      <trkpt lat="47.08662" lon="2.36804">
        <ele>127.99</ele>
        <time>2015-08-17T20:52:53Z</time>
      </trkpt>
      <trkpt lat="47.0866" lon="2.36847">
        <ele>127.99</ele>
        <time>2015-08-17T20:53:03Z</time>
      </trkpt>
      <trkpt lat="47.08659" lon="2.36851">
        <ele>127.99</ele>
        <time>2015-08-17T20:53:04Z</time>
      </trkpt>
      <trkpt lat="47.08658" lon="2.36856">
        <ele>127.99</ele>
        <time>2015-08-17T20:53:05Z</time>
      </trkpt>
      <trkpt lat="47.08658" lon="2.36861">
        <ele>127.99</ele>
        <time>2015-08-17T20:53:06Z</time>
      </trkpt>
      <trkpt lat="47.08659" lon="2.36865">
        <ele>127.99</ele>
        <time>2015-08-17T20:53:07Z</time>
      </trkpt>
      <trkpt lat="47.08659" lon="2.36869">
        <ele>127.99</ele>
        <time>2015-08-17T20:53:08Z</time>
      </trkpt>
      <trkpt lat="47.08659" lon="2.36874">
        <ele>128.47</ele>
        <time>2015-08-17T20:53:09Z</time>
      </trkpt>
      <trkpt lat="47.08659" lon="2.3688">
        <ele>127.99</ele>
        <time>2015-08-17T20:53:10Z</time>
      </trkpt>
      <trkpt lat="47.08661" lon="2.36898">
        <ele>128.47</ele>
        <time>2015-08-17T20:53:14Z</time>
      </trkpt>
      <trkpt lat="47.08661" lon="2.36901">
        <ele>127.99</ele>
        <time>2015-08-17T20:53:15Z</time>
      </trkpt>
      <trkpt lat="47.08664" lon="2.36951">
        <ele>127.99</ele>
        <time>2015-08-17T20:53:26Z</time>
      </trkpt>
      <trkpt lat="47.08663" lon="2.36998">
        <ele>129.43</ele>
        <time>2015-08-17T20:53:37Z</time>
      </trkpt>
      <trkpt lat="47.08664" lon="2.37041">
        <ele>127.99</ele>
        <time>2015-08-17T20:53:47Z</time>
      </trkpt>
      <trkpt lat="47.08664" lon="2.37083">
        <ele>127.99</ele>
        <time>2015-08-17T20:53:57Z</time>
      </trkpt>
      <trkpt lat="47.08664" lon="2.37086">
        <ele>127.99</ele>
        <time>2015-08-17T20:53:58Z</time>
      </trkpt>
      <trkpt lat="47.08664" lon="2.3709">
        <ele>127.51</ele>
        <time>2015-08-17T20:53:59Z</time>
      </trkpt>
      <trkpt lat="47.08666" lon="2.37125">
        <ele>127.99</ele>
        <time>2015-08-17T20:54:07Z</time>
      </trkpt>
      <trkpt lat="47.08666" lon="2.37183">
        <ele>127.99</ele>
        <time>2015-08-17T20:54:18Z</time>
      </trkpt>
      <trkpt lat="47.08663" lon="2.37232">
        <ele>127.99</ele>
        <time>2015-08-17T20:54:28Z</time>
      </trkpt>
      <trkpt lat="47.08664" lon="2.37261">
        <ele>127.51</ele>
        <time>2015-08-17T20:54:36Z</time>
      </trkpt>
      <trkpt lat="47.08664" lon="2.37262">
        <ele>127.51</ele>
        <time>2015-08-17T20:54:37Z</time>
      </trkpt>
      <trkpt lat="47.08664" lon="2.37264">
        <ele>127.51</ele>
        <time>2015-08-17T20:54:38Z</time>
      </trkpt>
      <trkpt lat="47.08665" lon="2.37267">
        <ele>127.51</ele>
        <time>2015-08-17T20:54:39Z</time>
      </trkpt>
      <trkpt lat="47.08665" lon="2.37269">
        <ele>127.51</ele>
        <time>2015-08-17T20:54:40Z</time>
      </trkpt>
      <trkpt lat="47.08665" lon="2.3728">
        <ele>127.99</ele>
        <time>2015-08-17T20:54:43Z</time>
      </trkpt>
      <trkpt lat="47.08666" lon="2.37285">
        <ele>127.99</ele>
        <time>2015-08-17T20:54:58Z</time>
      </trkpt>
      <trkpt lat="47.08665" lon="2.37286">
        <ele>127.51</ele>
        <time>2015-08-17T20:55:17Z</time>
      </trkpt>
      <trkpt lat="47.08666" lon="2.37287">
        <ele>127.51</ele>
        <time>2015-08-17T20:55:53Z</time>
      </trkpt>
      <trkpt lat="47.08665" lon="2.37288">
        <ele>127.03</ele>
        <time>2015-08-17T20:56:34Z</time>
      </trkpt>
      <trkpt lat="47.08665" lon="2.37288">
        <ele>127.03</ele>
        <time>2015-08-17T20:57:09Z</time>
      </trkpt>
      <trkpt lat="47.08666" lon="2.37287">
        <ele>127.03</ele>
        <time>2015-08-17T20:57:42Z</time>
      </trkpt>
      <trkpt lat="47.08666" lon="2.37284">
        <ele>126.55</ele>
        <time>2015-08-17T20:58:17Z</time>
      </trkpt>
      <trkpt lat="47.08666" lon="2.37284">
        <ele>126.07</ele>
        <time>2015-08-17T20:58:52Z</time>
      </trkpt>
      <trkpt lat="47.08667" lon="2.37283">
        <ele>126.55</ele>
        <time>2015-08-17T20:59:16Z</time>
      </trkpt>
      <trkpt lat="47.08666" lon="2.37283">
        <ele>126.07</ele>
        <time>2015-08-17T20:59:42Z</time>
      </trkpt>
      <trkpt lat="47.08668" lon="2.37283">
        <ele>126.07</ele>
        <time>2015-08-17T21:00:15Z</time>
      </trkpt>
      <trkpt lat="47.08669" lon="2.37288">
        <ele>126.07</ele>
        <time>2015-08-17T21:00:43Z</time>
      </trkpt>
      <trkpt lat="47.0867" lon="2.37296">
        <ele>125.59</ele>
        <time>2015-08-17T21:01:08Z</time>
      </trkpt>
      <trkpt lat="47.08671" lon="2.37309">
        <ele>126.07</ele>
        <time>2015-08-17T21:01:18Z</time>
      </trkpt>
      <trkpt lat="47.08669" lon="2.37326">
        <ele>126.07</ele>
        <time>2015-08-17T21:01:22Z</time>
      </trkpt>
      <trkpt lat="47.08662" lon="2.37376">
        <ele>126.07</ele>
        <time>2015-08-17T21:01:32Z</time>
      </trkpt>
      <trkpt lat="47.08653" lon="2.3742">
        <ele>126.07</ele>
        <time>2015-08-17T21:01:40Z</time>
      </trkpt>
      <trkpt lat="47.0864" lon="2.37456">
        <ele>125.59</ele>
        <time>2015-08-17T21:01:50Z</time>
      </trkpt>
      <trkpt lat="47.08639" lon="2.3746">
        <ele>125.59</ele>
        <time>2015-08-17T21:01:51Z</time>
      </trkpt>
      <trkpt lat="47.08637" lon="2.37466">
        <ele>125.59</ele>
        <time>2015-08-17T21:01:52Z</time>
      </trkpt>
      <trkpt lat="47.08636" lon="2.3747">
        <ele>125.59</ele>
        <time>2015-08-17T21:01:53Z</time>
      </trkpt>
      <trkpt lat="47.08634" lon="2.37476">
        <ele>125.59</ele>
        <time>2015-08-17T21:01:54Z</time>
      </trkpt>
      <trkpt lat="47.08632" lon="2.37481">
        <ele>125.59</ele>
        <time>2015-08-17T21:01:55Z</time>
      </trkpt>
      <trkpt lat="47.08631" lon="2.37487">
        <ele>125.59</ele>
        <time>2015-08-17T21:01:56Z</time>
      </trkpt>
      <trkpt lat="47.08629" lon="2.37491">
        <ele>125.59</ele>
        <time>2015-08-17T21:01:57Z</time>
      </trkpt>
      <trkpt lat="47.08627" lon="2.37495">
        <ele>125.59</ele>
        <time>2015-08-17T21:01:58Z</time>
      </trkpt>
      <trkpt lat="47.08625" lon="2.37498">
        <ele>125.59</ele>
        <time>2015-08-17T21:01:59Z</time>
      </trkpt>
      <trkpt lat="47.08614" lon="2.37525">
        <ele>126.07</ele>
        <time>2015-08-17T21:02:05Z</time>
      </trkpt>
      <trkpt lat="47.0859" lon="2.37571">
        <ele>125.59</ele>
        <time>2015-08-17T21:02:16Z</time>
      </trkpt>
      <trkpt lat="47.08566" lon="2.37611">
        <ele>126.07</ele>
        <time>2015-08-17T21:02:26Z</time>
      </trkpt>
      <trkpt lat="47.08539" lon="2.37679">
        <ele>126.07</ele>
        <time>2015-08-17T21:02:38Z</time>
      </trkpt>
      <trkpt lat="47.08525" lon="2.37736">
        <ele>126.07</ele>
        <time>2015-08-17T21:02:50Z</time>
      </trkpt>
      <trkpt lat="47.08516" lon="2.37747">
        <ele>127.51</ele>
        <time>2015-08-17T21:02:57Z</time>
      </trkpt>
      <trkpt lat="47.08512" lon="2.3775">
        <ele>127.51</ele>
        <time>2015-08-17T21:02:59Z</time>
      </trkpt>
      <trkpt lat="47.0851" lon="2.37752">
        <ele>127.51</ele>
        <time>2015-08-17T21:03:00Z</time>
      </trkpt>
      <trkpt lat="47.08509" lon="2.37754">
        <ele>127.51</ele>
        <time>2015-08-17T21:03:01Z</time>
      </trkpt>
      <trkpt lat="47.08507" lon="2.37755">
        <ele>127.51</ele>
        <time>2015-08-17T21:03:02Z</time>
      </trkpt>
      <trkpt lat="47.08506" lon="2.37757">
        <ele>127.51</ele>
        <time>2015-08-17T21:03:03Z</time>
      </trkpt>
      <trkpt lat="47.08504" lon="2.37759">
        <ele>127.51</ele>
        <time>2015-08-17T21:03:04Z</time>
      </trkpt>
      <trkpt lat="47.08503" lon="2.37762">
        <ele>127.51</ele>
        <time>2015-08-17T21:03:05Z</time>
      </trkpt>
      <trkpt lat="47.08502" lon="2.37764">
        <ele>127.51</ele>
        <time>2015-08-17T21:03:06Z</time>
      </trkpt>
      <trkpt lat="47.08502" lon="2.37768">
        <ele>127.51</ele>
        <time>2015-08-17T21:03:07Z</time>
      </trkpt>
      <trkpt lat="47.08502" lon="2.37771">
        <ele>127.51</ele>
        <time>2015-08-17T21:03:08Z</time>
      </trkpt>
      <trkpt lat="47.08502" lon="2.37774">
        <ele>127.51</ele>
        <time>2015-08-17T21:03:09Z</time>
      </trkpt>
      <trkpt lat="47.08502" lon="2.37776">
        <ele>127.51</ele>
        <time>2015-08-17T21:03:10Z</time>
      </trkpt>
      <trkpt lat="47.08515" lon="2.37761">
        <ele>127.99</ele>
        <time>2015-08-17T21:03:15Z</time>
      </trkpt>
      <trkpt lat="47.08533" lon="2.37712">
        <ele>129.43</ele>
        <time>2015-08-17T21:03:25Z</time>
      </trkpt>
      <trkpt lat="47.08534" lon="2.37707">
        <ele>129.43</ele>
        <time>2015-08-17T21:03:26Z</time>
      </trkpt>
      <trkpt lat="47.08535" lon="2.37704">
        <ele>129.43</ele>
        <time>2015-08-17T21:03:27Z</time>
      </trkpt>
      <trkpt lat="47.08536" lon="2.377">
        <ele>129.43</ele>
        <time>2015-08-17T21:03:28Z</time>
      </trkpt>
      <trkpt lat="47.08536" lon="2.37696">
        <ele>129.43</ele>
        <time>2015-08-17T21:03:29Z</time>
      </trkpt>
      <trkpt lat="47.08535" lon="2.37693">
        <ele>129.43</ele>
        <time>2015-08-17T21:03:30Z</time>
      </trkpt>
      <trkpt lat="47.08531" lon="2.37686">
        <ele>129.92</ele>
        <time>2015-08-17T21:03:33Z</time>
      </trkpt>
      <trkpt lat="47.0853" lon="2.37685">
        <ele>129.92</ele>
        <time>2015-08-17T21:03:34Z</time>
      </trkpt>
      <trkpt lat="47.08529" lon="2.37684">
        <ele>129.43</ele>
        <time>2015-08-17T21:03:35Z</time>
      </trkpt>
      <trkpt lat="47.08527" lon="2.37682">
        <ele>129.92</ele>
        <time>2015-08-17T21:03:37Z</time>
      </trkpt>
      <trkpt lat="47.08525" lon="2.37682">
        <ele>129.43</ele>
        <time>2015-08-17T21:03:44Z</time>
      </trkpt>
      <trkpt lat="47.08527" lon="2.3768">
        <ele>129.43</ele>
        <time>2015-08-17T21:04:15Z</time>
      </trkpt>
      <trkpt lat="47.08527" lon="2.37679">
        <ele>129.43</ele>
        <time>2015-08-17T21:04:45Z</time>
      </trkpt>
      <trkpt lat="47.08527" lon="2.37678">
        <ele>128.95</ele>
        <time>2015-08-17T21:05:12Z</time>
      </trkpt>
      <trkpt lat="47.08527" lon="2.37678">
        <ele>129.92</ele>
        <time>2015-08-17T21:05:43Z</time>
      </trkpt>
      <trkpt lat="47.08526" lon="2.37678">
        <ele>128.47</ele>
        <time>2015-08-17T21:06:13Z</time>
      </trkpt>
      <trkpt lat="47.08526" lon="2.37679">
        <ele>127.99</ele>
        <time>2015-08-17T21:06:44Z</time>
      </trkpt>
      <trkpt lat="47.08526" lon="2.37677">
        <ele>127.99</ele>
        <time>2015-08-17T21:07:15Z</time>
      </trkpt>
      <trkpt lat="47.08525" lon="2.37678">
        <ele>127.51</ele>
        <time>2015-08-17T21:07:41Z</time>
      </trkpt>
      <trkpt lat="47.08526" lon="2.37679">
        <ele>127.51</ele>
        <time>2015-08-17T21:08:10Z</time>
      </trkpt>
      <trkpt lat="47.08526" lon="2.3768">
        <ele>127.03</ele>
        <time>2015-08-17T21:08:46Z</time>
      </trkpt>
      <trkpt lat="47.08526" lon="2.37681">
        <ele>126.55</ele>
        <time>2015-08-17T21:09:19Z</time>
      </trkpt>
      <trkpt lat="47.08525" lon="2.3768">
        <ele>126.55</ele>
        <time>2015-08-17T21:09:51Z</time>
      </trkpt>
      <trkpt lat="47.08525" lon="2.3768">
        <ele>126.07</ele>
        <time>2015-08-17T21:10:20Z</time>
      </trkpt>
      <trkpt lat="47.08525" lon="2.37681">
        <ele>126.07</ele>
        <time>2015-08-17T21:10:49Z</time>
      </trkpt>
      <trkpt lat="47.08524" lon="2.37681">
        <ele>125.59</ele>
        <time>2015-08-17T21:11:19Z</time>
      </trkpt>
      <trkpt lat="47.08524" lon="2.37679">
        <ele>125.59</ele>
        <time>2015-08-17T21:11:44Z</time>
      </trkpt>
      <trkpt lat="47.08525" lon="2.37678">
        <ele>125.11</ele>
        <time>2015-08-17T21:12:12Z</time>
      </trkpt>
      <trkpt lat="47.08525" lon="2.37679">
        <ele>125.11</ele>
        <time>2015-08-17T21:12:40Z</time>
      </trkpt>
      <trkpt lat="47.08525" lon="2.37679">
        <ele>124.63</ele>
        <time>2015-08-17T21:13:07Z</time>
      </trkpt>
      <trkpt lat="47.08525" lon="2.37679">
        <ele>124.15</ele>
        <time>2015-08-17T21:13:37Z</time>
      </trkpt>
      <trkpt lat="47.08524" lon="2.3768">
        <ele>123.67</ele>
        <time>2015-08-17T21:14:08Z</time>
      </trkpt>
      <trkpt lat="47.08524" lon="2.3768">
        <ele>123.67</ele>
        <time>2015-08-17T21:14:40Z</time>
      </trkpt>
      <trkpt lat="47.08522" lon="2.37679">
        <ele>123.19</ele>
        <time>2015-08-17T21:15:12Z</time>
      </trkpt>
      <trkpt lat="47.08521" lon="2.37677">
        <ele>122.71</ele>
        <time>2015-08-17T21:15:42Z</time>
      </trkpt>
      <trkpt lat="47.08521" lon="2.37676">
        <ele>122.71</ele>
        <time>2015-08-17T21:16:12Z</time>
      </trkpt>
      <trkpt lat="47.0852" lon="2.37673">
        <ele>122.71</ele>
        <time>2015-08-17T21:16:28Z</time>
      </trkpt>
      <trkpt lat="47.0852" lon="2.37673">
        <ele>122.22</ele>
        <time>2015-08-17T21:16:40Z</time>
      </trkpt>
      <trkpt lat="47.08519" lon="2.3767">
        <ele>122.22</ele>
        <time>2015-08-17T21:17:06Z</time>
      </trkpt>
      <trkpt lat="47.0852" lon="2.37671">
        <ele>122.22</ele>
        <time>2015-08-17T21:17:40Z</time>
      </trkpt>
      <trkpt lat="47.08521" lon="2.37671">
        <ele>121.74</ele>
        <time>2015-08-17T21:18:12Z</time>
      </trkpt>
      <trkpt lat="47.08524" lon="2.37676">
        <ele>121.74</ele>
        <time>2015-08-17T21:18:30Z</time>
      </trkpt>
      <trkpt lat="47.08534" lon="2.37691">
        <ele>121.26</ele>
        <time>2015-08-17T21:18:43Z</time>
      </trkpt>
      <trkpt lat="47.08535" lon="2.37692">
        <ele>121.26</ele>
        <time>2015-08-17T21:18:44Z</time>
      </trkpt>
      <trkpt lat="47.08536" lon="2.37694">
        <ele>121.26</ele>
        <time>2015-08-17T21:18:45Z</time>
      </trkpt>
      <trkpt lat="47.08538" lon="2.37695">
        <ele>121.26</ele>
        <time>2015-08-17T21:18:46Z</time>
      </trkpt>
      <trkpt lat="47.08539" lon="2.37696">
        <ele>121.26</ele>
        <time>2015-08-17T21:18:47Z</time>
      </trkpt>
      <trkpt lat="47.0854" lon="2.377">
        <ele>121.26</ele>
        <time>2015-08-17T21:18:50Z</time>
      </trkpt>
      <trkpt lat="47.08541" lon="2.37702">
        <ele>121.26</ele>
        <time>2015-08-17T21:18:51Z</time>
      </trkpt>
      <trkpt lat="47.08541" lon="2.37705">
        <ele>120.78</ele>
        <time>2015-08-17T21:18:52Z</time>
      </trkpt>
      <trkpt lat="47.0854" lon="2.37707">
        <ele>120.78</ele>
        <time>2015-08-17T21:18:53Z</time>
      </trkpt>
      <trkpt lat="47.08539" lon="2.37709">
        <ele>120.78</ele>
        <time>2015-08-17T21:18:54Z</time>
      </trkpt>
      <trkpt lat="47.08537" lon="2.37713">
        <ele>120.78</ele>
        <time>2015-08-17T21:18:56Z</time>
      </trkpt>
      <trkpt lat="47.08532" lon="2.37722">
        <ele>119.82</ele>
        <time>2015-08-17T21:19:17Z</time>
      </trkpt>
      <trkpt lat="47.08527" lon="2.37738">
        <ele>119.82</ele>
        <time>2015-08-17T21:19:28Z</time>
      </trkpt>
      <trkpt lat="47.08525" lon="2.37742">
        <ele>119.82</ele>
        <time>2015-08-17T21:19:29Z</time>
      </trkpt>
      <trkpt lat="47.08524" lon="2.37746">
        <ele>119.82</ele>
        <time>2015-08-17T21:19:30Z</time>
      </trkpt>
      <trkpt lat="47.08523" lon="2.37751">
        <ele>119.34</ele>
        <time>2015-08-17T21:19:31Z</time>
      </trkpt>
      <trkpt lat="47.08521" lon="2.37755">
        <ele>119.34</ele>
        <time>2015-08-17T21:19:32Z</time>
      </trkpt>
      <trkpt lat="47.0852" lon="2.37759">
        <ele>119.34</ele>
        <time>2015-08-17T21:19:33Z</time>
      </trkpt>
      <trkpt lat="47.08518" lon="2.37763">
        <ele>119.34</ele>
        <time>2015-08-17T21:19:34Z</time>
      </trkpt>
      <trkpt lat="47.08517" lon="2.37767">
        <ele>119.34</ele>
        <time>2015-08-17T21:19:35Z</time>
      </trkpt>
      <trkpt lat="47.08512" lon="2.37779">
        <ele>118.86</ele>
        <time>2015-08-17T21:19:39Z</time>
      </trkpt>
      <trkpt lat="47.08502" lon="2.37788">
        <ele>118.86</ele>
        <time>2015-08-17T21:19:43Z</time>
      </trkpt>
      <trkpt lat="47.0846" lon="2.37875">
        <ele>118.86</ele>
        <time>2015-08-17T21:19:59Z</time>
      </trkpt>
      <trkpt lat="47.08442" lon="2.37922">
        <ele>118.38</ele>
        <time>2015-08-17T21:20:07Z</time>
      </trkpt>
      <trkpt lat="47.08436" lon="2.37932">
        <ele>118.38</ele>
        <time>2015-08-17T21:20:09Z</time>
      </trkpt>
      <trkpt lat="47.08404" lon="2.38011">
        <ele>117.9</ele>
        <time>2015-08-17T21:20:24Z</time>
      </trkpt>
      <trkpt lat="47.08402" lon="2.38016">
        <ele>117.9</ele>
        <time>2015-08-17T21:20:25Z</time>
      </trkpt>
      <trkpt lat="47.084" lon="2.38022">
        <ele>117.9</ele>
        <time>2015-08-17T21:20:26Z</time>
      </trkpt>
      <trkpt lat="47.08373" lon="2.38084">
        <ele>117.42</ele>
        <time>2015-08-17T21:20:37Z</time>
      </trkpt>
      <trkpt lat="47.08368" lon="2.38095">
        <ele>117.42</ele>
        <time>2015-08-17T21:20:39Z</time>
      </trkpt>
      <trkpt lat="47.08362" lon="2.38104">
        <ele>117.42</ele>
        <time>2015-08-17T21:20:41Z</time>
      </trkpt>
      <trkpt lat="47.08356" lon="2.38115">
        <ele>117.42</ele>
        <time>2015-08-17T21:20:43Z</time>
      </trkpt>
      <trkpt lat="47.08353" lon="2.3812">
        <ele>116.94</ele>
        <time>2015-08-17T21:20:44Z</time>
      </trkpt>
      <trkpt lat="47.08351" lon="2.38125">
        <ele>117.42</ele>
        <time>2015-08-17T21:20:45Z</time>
      </trkpt>
      <trkpt lat="47.0835" lon="2.38132">
        <ele>117.42</ele>
        <time>2015-08-17T21:20:46Z</time>
      </trkpt>
      <trkpt lat="47.08348" lon="2.38138">
        <ele>117.42</ele>
        <time>2015-08-17T21:20:47Z</time>
      </trkpt>
      <trkpt lat="47.08347" lon="2.38146">
        <ele>117.42</ele>
        <time>2015-08-17T21:20:48Z</time>
      </trkpt>
      <trkpt lat="47.08334" lon="2.38184">
        <ele>117.9</ele>
        <time>2015-08-17T21:20:54Z</time>
      </trkpt>
      <trkpt lat="47.08296" lon="2.38282">
        <ele>118.38</ele>
        <time>2015-08-17T21:21:10Z</time>
      </trkpt>
      <trkpt lat="47.08272" lon="2.38341">
        <ele>118.86</ele>
        <time>2015-08-17T21:21:19Z</time>
      </trkpt>
      <trkpt lat="47.08268" lon="2.38353">
        <ele>118.38</ele>
        <time>2015-08-17T21:21:21Z</time>
      </trkpt>
      <trkpt lat="47.08248" lon="2.38403">
        <ele>118.86</ele>
        <time>2015-08-17T21:21:31Z</time>
      </trkpt>
      <trkpt lat="47.08232" lon="2.38439">
        <ele>118.86</ele>
        <time>2015-08-17T21:21:42Z</time>
      </trkpt>
      <trkpt lat="47.08231" lon="2.38442">
        <ele>118.86</ele>
        <time>2015-08-17T21:21:43Z</time>
      </trkpt>
      <trkpt lat="47.0823" lon="2.38444">
        <ele>118.86</ele>
        <time>2015-08-17T21:21:44Z</time>
      </trkpt>
      <trkpt lat="47.08227" lon="2.3845">
        <ele>118.38</ele>
        <time>2015-08-17T21:21:58Z</time>
      </trkpt>
      <trkpt lat="47.08225" lon="2.38454">
        <ele>118.38</ele>
        <time>2015-08-17T21:22:13Z</time>
      </trkpt>
      <trkpt lat="47.08211" lon="2.38483">
        <ele>117.42</ele>
        <time>2015-08-17T21:22:24Z</time>
      </trkpt>
      <trkpt lat="47.08191" lon="2.38549">
        <ele>117.42</ele>
        <time>2015-08-17T21:22:35Z</time>
      </trkpt>
      <trkpt lat="47.08188" lon="2.38556">
        <ele>117.42</ele>
        <time>2015-08-17T21:22:36Z</time>
      </trkpt>
      <trkpt lat="47.08187" lon="2.38564">
        <ele>117.42</ele>
        <time>2015-08-17T21:22:37Z</time>
      </trkpt>
      <trkpt lat="47.08166" lon="2.38617">
        <ele>117.9</ele>
        <time>2015-08-17T21:22:47Z</time>
      </trkpt>
      <trkpt lat="47.08141" lon="2.38675">
        <ele>117.9</ele>
        <time>2015-08-17T21:22:58Z</time>
      </trkpt>
      <trkpt lat="47.08139" lon="2.38683">
        <ele>117.9</ele>
        <time>2015-08-17T21:22:59Z</time>
      </trkpt>
      <trkpt lat="47.08137" lon="2.38691">
        <ele>117.9</ele>
        <time>2015-08-17T21:23:00Z</time>
      </trkpt>
    </trkseg>
  </trk>
</gpx>